<?xml version='1.0' encoding='UTF-8'?><gpx version="1.1" creator="JPX - https://github.com/jenetics/jpx" xmlns="http://www.topografix.com/GPX/1/1"><trk><trkseg><trkpt lat="42.5221318" lon="14.1524605"><ele>1.9999999999999998</ele><time>2026-05-01T06:58:20.833Z</time></trkpt><trkpt lat="42.5220831" lon="14.152347"><ele>2.0</ele><time>2026-05-01T06:58:22.823Z</time></trkpt><trkpt lat="42.522025" lon="14.1522191"><ele>2.0</ele><time>2026-05-01T06:58:24.844Z</time></trkpt><trkpt lat="42.5219903" lon="14.1521377"><ele>2.0</ele><time>2026-05-01T06:58:25.835Z</time></trkpt><trkpt lat="42.5219534" lon="14.1520671"><ele>1.9999999999999998</ele><time>2026-05-01T06:58:26.882Z</time></trkpt><trkpt lat="42.5218839" lon="14.1519851"><ele>2.0</ele><time>2026-05-01T06:58:28.836Z</time></trkpt><trkpt lat="42.5218221" lon="14.152007"><ele>1.7142857142857142</ele><time>2026-05-01T06:58:29.83Z</time></trkpt><trkpt lat="42.5217848" lon="14.1520805"><ele>1.4285714285714284</ele><time>2026-05-01T06:58:31.834Z</time></trkpt><trkpt lat="42.5218074" lon="14.1521656"><ele>1.1428571428571428</ele><time>2026-05-01T06:58:35.842Z</time></trkpt><trkpt lat="42.5218435" lon="14.152264"><ele>0.8571428571428571</ele><time>2026-05-01T06:58:40.828Z</time></trkpt><trkpt lat="42.5218969" lon="14.1523406"><ele>0.5714285714285714</ele><time>2026-05-01T06:59:14.828Z</time></trkpt><trkpt lat="42.5219351" lon="14.152415"><ele>0.2857142857142857</ele><time>2026-05-01T06:59:21.816Z</time></trkpt><trkpt lat="42.5219627" lon="14.1524972"><ele>0.0</ele><time>2026-05-01T07:02:56.825Z</time></trkpt><trkpt lat="42.5219824" lon="14.1525922"><ele>-0.2</ele><time>2026-05-01T07:04:57.818Z</time></trkpt><trkpt lat="42.5220259" lon="14.1526948"><ele>-0.4</ele><time>2026-05-01T07:05:16.824Z</time></trkpt><trkpt lat="42.5221" lon="14.1528684"><ele>-0.6000000000000001</ele><time>2026-05-01T07:05:18.819Z</time></trkpt><trkpt lat="42.5221408" lon="14.1529687"><ele>-0.8</ele><time>2026-05-01T07:05:19.859Z</time></trkpt><trkpt lat="42.522176" lon="14.1530466"><ele>-1.0</ele><time>2026-05-01T07:05:20.819Z</time></trkpt><trkpt lat="42.5222313" lon="14.1531287"><ele>-0.4</ele><time>2026-05-01T07:05:22.813Z</time></trkpt><trkpt lat="42.5223547" lon="14.1530841"><ele>0.19999999999999996</ele><time>2026-05-01T07:05:24.82Z</time></trkpt><trkpt lat="42.522421" lon="14.1530241"><ele>0.8000000000000002</ele><time>2026-05-01T07:05:25.819Z</time></trkpt><trkpt lat="42.5224935" lon="14.152964"><ele>1.4000000000000001</ele><time>2026-05-01T07:05:26.824Z</time></trkpt><trkpt lat="42.5225476" lon="14.1529116"><ele>2.0</ele><time>2026-05-01T07:05:27.815Z</time></trkpt><trkpt lat="42.5226472" lon="14.1528537"><ele>2.0</ele><time>2026-05-01T07:05:29.828Z</time></trkpt><trkpt lat="42.5227039" lon="14.1529274"><ele>2.0</ele><time>2026-05-01T07:05:31.817Z</time></trkpt><trkpt lat="42.5226482" lon="14.1530281"><ele>2.0</ele><time>2026-05-01T07:05:33.813Z</time></trkpt><trkpt lat="42.5225578" lon="14.1531023"><ele>2.0</ele><time>2026-05-01T07:05:34.817Z</time></trkpt><trkpt lat="42.5224661" lon="14.1531748"><ele>2.0</ele><time>2026-05-01T07:05:35.82Z</time></trkpt><trkpt lat="42.522383" lon="14.1532461"><ele>1.9999999999999998</ele><time>2026-05-01T07:05:36.825Z</time></trkpt><trkpt lat="42.5223013" lon="14.1533143"><ele>2.0</ele><time>2026-05-01T07:05:37.841Z</time></trkpt><trkpt lat="42.5222282" lon="14.1533879"><ele>2.0</ele><time>2026-05-01T07:05:38.821Z</time></trkpt><trkpt lat="42.5221652" lon="14.1534431"><ele>2.0</ele><time>2026-05-01T07:05:39.829Z</time></trkpt><trkpt lat="42.5221113" lon="14.1534971"><ele>1.9999999999999998</ele><time>2026-05-01T07:05:40.838Z</time></trkpt><trkpt lat="42.5220066" lon="14.1535778"><ele>2.0</ele><time>2026-05-01T07:05:42.813Z</time></trkpt><trkpt lat="42.521931" lon="14.1536451"><ele>1.8333333333333333</ele><time>2026-05-01T07:05:44.82Z</time></trkpt><trkpt lat="42.5219048" lon="14.1537316"><ele>1.6666666666666665</ele><time>2026-05-01T07:05:46.815Z</time></trkpt><trkpt lat="42.5219083" lon="14.1538197"><ele>1.5</ele><time>2026-05-01T07:05:47.813Z</time></trkpt><trkpt lat="42.5219376" lon="14.1539311"><ele>1.3333333333333333</ele><time>2026-05-01T07:05:48.811Z</time></trkpt><trkpt lat="42.5219772" lon="14.1540539"><ele>1.1666666666666665</ele><time>2026-05-01T07:05:49.814Z</time></trkpt><trkpt lat="42.5220146" lon="14.1541955"><ele>1.0</ele><time>2026-05-01T07:05:50.818Z</time></trkpt><trkpt lat="42.5220536" lon="14.1543489"><ele>2.75</ele><time>2026-05-01T07:05:51.83Z</time></trkpt><trkpt lat="42.522095" lon="14.1545078"><ele>4.5</ele><time>2026-05-01T07:05:52.812Z</time></trkpt><trkpt lat="42.5221267" lon="14.1546668"><ele>6.25</ele><time>2026-05-01T07:05:53.828Z</time></trkpt><trkpt lat="42.5221454" lon="14.1548314"><ele>8.0</ele><time>2026-05-01T07:05:54.815Z</time></trkpt><trkpt lat="42.5221515" lon="14.1550064"><ele>7.5</ele><time>2026-05-01T07:05:55.813Z</time></trkpt><trkpt lat="42.5221578" lon="14.1551846"><ele>7.0</ele><time>2026-05-01T07:05:56.816Z</time></trkpt><trkpt lat="42.5221466" lon="14.1553733"><ele>6.5</ele><time>2026-05-01T07:05:57.815Z</time></trkpt><trkpt lat="42.5221191" lon="14.1555467"><ele>6.0</ele><time>2026-05-01T07:05:58.807Z</time></trkpt><trkpt lat="42.5220799" lon="14.1557086"><ele>5.25</ele><time>2026-05-01T07:05:59.81Z</time></trkpt><trkpt lat="42.5220396" lon="14.1558732"><ele>4.5</ele><time>2026-05-01T07:06:00.809Z</time></trkpt><trkpt lat="42.5219914" lon="14.1560306"><ele>3.75</ele><time>2026-05-01T07:06:01.809Z</time></trkpt><trkpt lat="42.5219261" lon="14.1561793"><ele>3.0</ele><time>2026-05-01T07:06:02.819Z</time></trkpt><trkpt lat="42.5218492" lon="14.1563173"><ele>3.0</ele><time>2026-05-01T07:06:03.813Z</time></trkpt><trkpt lat="42.521763" lon="14.1564498"><ele>3.0</ele><time>2026-05-01T07:06:04.831Z</time></trkpt><trkpt lat="42.5216766" lon="14.1565693"><ele>3.0</ele><time>2026-05-01T07:06:05.815Z</time></trkpt><trkpt lat="42.5215888" lon="14.1566773"><ele>3.0</ele><time>2026-05-01T07:06:06.825Z</time></trkpt><trkpt lat="42.5215055" lon="14.156775"><ele>3.0</ele><time>2026-05-01T07:06:07.812Z</time></trkpt><trkpt lat="42.5214264" lon="14.1568647"><ele>3.0</ele><time>2026-05-01T07:06:08.832Z</time></trkpt><trkpt lat="42.521358" lon="14.1569427"><ele>3.0</ele><time>2026-05-01T07:06:09.82Z</time></trkpt><trkpt lat="42.5212915" lon="14.1570168"><ele>3.0</ele><time>2026-05-01T07:06:10.821Z</time></trkpt><trkpt lat="42.5212263" lon="14.1570938"><ele>3.0</ele><time>2026-05-01T07:06:11.819Z</time></trkpt><trkpt lat="42.5211544" lon="14.157172"><ele>3.0</ele><time>2026-05-01T07:06:12.825Z</time></trkpt><trkpt lat="42.5210818" lon="14.1572541"><ele>3.0</ele><time>2026-05-01T07:06:13.826Z</time></trkpt><trkpt lat="42.5210057" lon="14.1573313"><ele>3.0</ele><time>2026-05-01T07:06:14.817Z</time></trkpt><trkpt lat="42.5209359" lon="14.1574018"><ele>3.0</ele><time>2026-05-01T07:06:15.826Z</time></trkpt><trkpt lat="42.5208707" lon="14.1574641"><ele>3.0</ele><time>2026-05-01T07:06:16.821Z</time></trkpt><trkpt lat="42.5208038" lon="14.157528"><ele>3.0</ele><time>2026-05-01T07:06:17.819Z</time></trkpt><trkpt lat="42.5207341" lon="14.1576063"><ele>3.0</ele><time>2026-05-01T07:06:18.823Z</time></trkpt><trkpt lat="42.5206613" lon="14.1576838"><ele>3.0</ele><time>2026-05-01T07:06:19.82Z</time></trkpt><trkpt lat="42.5205883" lon="14.1577577"><ele>3.0</ele><time>2026-05-01T07:06:20.825Z</time></trkpt><trkpt lat="42.5205225" lon="14.1578281"><ele>3.0</ele><time>2026-05-01T07:06:21.822Z</time></trkpt><trkpt lat="42.5204537" lon="14.1579082"><ele>3.0</ele><time>2026-05-01T07:06:22.82Z</time></trkpt><trkpt lat="42.5203849" lon="14.1579835"><ele>3.0</ele><time>2026-05-01T07:06:23.822Z</time></trkpt><trkpt lat="42.5203188" lon="14.158069"><ele>3.0</ele><time>2026-05-01T07:06:24.817Z</time></trkpt><trkpt lat="42.5202469" lon="14.1581484"><ele>3.0</ele><time>2026-05-01T07:06:25.819Z</time></trkpt><trkpt lat="42.5201742" lon="14.158226"><ele>3.0</ele><time>2026-05-01T07:06:26.816Z</time></trkpt><trkpt lat="42.5200955" lon="14.1583093"><ele>3.0</ele><time>2026-05-01T07:06:27.818Z</time></trkpt><trkpt lat="42.5200172" lon="14.1583922"><ele>3.0</ele><time>2026-05-01T07:06:28.819Z</time></trkpt><trkpt lat="42.5199344" lon="14.1584814"><ele>3.0</ele><time>2026-05-01T07:06:29.819Z</time></trkpt><trkpt lat="42.51985" lon="14.1585725"><ele>3.0</ele><time>2026-05-01T07:06:30.819Z</time></trkpt><trkpt lat="42.5197698" lon="14.1586548"><ele>3.0</ele><time>2026-05-01T07:06:31.819Z</time></trkpt><trkpt lat="42.5196967" lon="14.1587294"><ele>3.0</ele><time>2026-05-01T07:06:32.824Z</time></trkpt><trkpt lat="42.519629" lon="14.1587979"><ele>3.0</ele><time>2026-05-01T07:06:33.832Z</time></trkpt><trkpt lat="42.5195607" lon="14.1588651"><ele>2.8333333333333335</ele><time>2026-05-01T07:06:34.802Z</time></trkpt><trkpt lat="42.5195024" lon="14.1589325"><ele>2.6666666666666665</ele><time>2026-05-01T07:06:35.817Z</time></trkpt><trkpt lat="42.519445" lon="14.1589929"><ele>2.5</ele><time>2026-05-01T07:06:36.814Z</time></trkpt><trkpt lat="42.5193833" lon="14.1590589"><ele>2.333333333333333</ele><time>2026-05-01T07:06:37.815Z</time></trkpt><trkpt lat="42.5193185" lon="14.1591288"><ele>2.1666666666666665</ele><time>2026-05-01T07:06:38.811Z</time></trkpt><trkpt lat="42.5192442" lon="14.1592069"><ele>2.0</ele><time>2026-05-01T07:06:39.82Z</time></trkpt><trkpt lat="42.5191711" lon="14.1592931"><ele>1.9999999999999998</ele><time>2026-05-01T07:06:40.81Z</time></trkpt><trkpt lat="42.5191028" lon="14.1593681"><ele>2.0</ele><time>2026-05-01T07:06:41.814Z</time></trkpt><trkpt lat="42.5190424" lon="14.159437"><ele>2.0</ele><time>2026-05-01T07:06:42.819Z</time></trkpt><trkpt lat="42.5189824" lon="14.1594986"><ele>2.0</ele><time>2026-05-01T07:06:43.819Z</time></trkpt><trkpt lat="42.5189165" lon="14.1595654"><ele>1.9999999999999998</ele><time>2026-05-01T07:06:44.815Z</time></trkpt><trkpt lat="42.5188462" lon="14.1596423"><ele>2.0</ele><time>2026-05-01T07:06:45.815Z</time></trkpt><trkpt lat="42.5187701" lon="14.159734"><ele>1.8</ele><time>2026-05-01T07:06:46.824Z</time></trkpt><trkpt lat="42.5186902" lon="14.159828"><ele>1.6</ele><time>2026-05-01T07:06:47.815Z</time></trkpt><trkpt lat="42.5186053" lon="14.1599173"><ele>1.4000000000000001</ele><time>2026-05-01T07:06:48.813Z</time></trkpt><trkpt lat="42.5185232" lon="14.160008"><ele>1.2000000000000002</ele><time>2026-05-01T07:06:49.811Z</time></trkpt><trkpt lat="42.5184375" lon="14.1600938"><ele>1.0</ele><time>2026-05-01T07:06:50.816Z</time></trkpt><trkpt lat="42.518349" lon="14.1601819"><ele>0.6000000000000001</ele><time>2026-05-01T07:06:51.828Z</time></trkpt><trkpt lat="42.5182642" lon="14.1602715"><ele>0.20000000000000007</ele><time>2026-05-01T07:06:52.815Z</time></trkpt><trkpt lat="42.5181814" lon="14.1603606"><ele>-0.20000000000000007</ele><time>2026-05-01T07:06:53.813Z</time></trkpt><trkpt lat="42.5181009" lon="14.1604465"><ele>-0.6000000000000001</ele><time>2026-05-01T07:06:54.815Z</time></trkpt><trkpt lat="42.5180143" lon="14.1605423"><ele>-1.0</ele><time>2026-05-01T07:06:55.809Z</time></trkpt><trkpt lat="42.5179281" lon="14.1606342"><ele>-0.20000000000000007</ele><time>2026-05-01T07:06:56.856Z</time></trkpt><trkpt lat="42.5178421" lon="14.1607223"><ele>0.5999999999999999</ele><time>2026-05-01T07:06:57.819Z</time></trkpt><trkpt lat="42.5177604" lon="14.1608129"><ele>1.4</ele><time>2026-05-01T07:06:58.812Z</time></trkpt><trkpt lat="42.5176825" lon="14.1608955"><ele>2.1999999999999997</ele><time>2026-05-01T07:06:59.821Z</time></trkpt><trkpt lat="42.5176159" lon="14.1609683"><ele>3.0</ele><time>2026-05-01T07:07:00.811Z</time></trkpt><trkpt lat="42.5175537" lon="14.1610291"><ele>3.0</ele><time>2026-05-01T07:07:01.849Z</time></trkpt><trkpt lat="42.5174866" lon="14.1610959"><ele>3.0</ele><time>2026-05-01T07:07:02.818Z</time></trkpt><trkpt lat="42.5174142" lon="14.1611817"><ele>3.0</ele><time>2026-05-01T07:07:03.831Z</time></trkpt><trkpt lat="42.5173261" lon="14.161275"><ele>3.0</ele><time>2026-05-01T07:07:04.816Z</time></trkpt><trkpt lat="42.5172399" lon="14.1613705"><ele>3.0</ele><time>2026-05-01T07:07:05.814Z</time></trkpt><trkpt lat="42.5171452" lon="14.1614718"><ele>3.25</ele><time>2026-05-01T07:07:06.813Z</time></trkpt><trkpt lat="42.5170456" lon="14.1615691"><ele>3.5</ele><time>2026-05-01T07:07:07.812Z</time></trkpt><trkpt lat="42.5169389" lon="14.1616629"><ele>3.75</ele><time>2026-05-01T07:07:08.82Z</time></trkpt><trkpt lat="42.5168382" lon="14.1617752"><ele>4.0</ele><time>2026-05-01T07:07:09.815Z</time></trkpt><trkpt lat="42.5167412" lon="14.1618815"><ele>4.0</ele><time>2026-05-01T07:07:10.825Z</time></trkpt><trkpt lat="42.5166459" lon="14.161982"><ele>4.0</ele><time>2026-05-01T07:07:11.816Z</time></trkpt><trkpt lat="42.5165518" lon="14.1620841"><ele>4.0</ele><time>2026-05-01T07:07:12.815Z</time></trkpt><trkpt lat="42.5164604" lon="14.1621826"><ele>4.0</ele><time>2026-05-01T07:07:13.822Z</time></trkpt><trkpt lat="42.5163711" lon="14.1622788"><ele>4.0</ele><time>2026-05-01T07:07:14.814Z</time></trkpt><trkpt lat="42.5162853" lon="14.1623717"><ele>4.0</ele><time>2026-05-01T07:07:15.824Z</time></trkpt><trkpt lat="42.5162011" lon="14.162462"><ele>4.0</ele><time>2026-05-01T07:07:16.812Z</time></trkpt><trkpt lat="42.5161191" lon="14.1625546"><ele>4.0</ele><time>2026-05-01T07:07:17.809Z</time></trkpt><trkpt lat="42.5160358" lon="14.1626471"><ele>4.0</ele><time>2026-05-01T07:07:18.811Z</time></trkpt><trkpt lat="42.515952" lon="14.1627397"><ele>4.0</ele><time>2026-05-01T07:07:19.829Z</time></trkpt><trkpt lat="42.5158652" lon="14.1628292"><ele>4.0</ele><time>2026-05-01T07:07:20.817Z</time></trkpt><trkpt lat="42.5157743" lon="14.1629274"><ele>4.0</ele><time>2026-05-01T07:07:21.827Z</time></trkpt><trkpt lat="42.5156901" lon="14.1630128"><ele>4.0</ele><time>2026-05-01T07:07:22.826Z</time></trkpt><trkpt lat="42.5156085" lon="14.1631056"><ele>4.0</ele><time>2026-05-01T07:07:23.817Z</time></trkpt><trkpt lat="42.5155228" lon="14.1631932"><ele>3.6</ele><time>2026-05-01T07:07:24.817Z</time></trkpt><trkpt lat="42.5154361" lon="14.1632786"><ele>3.2</ele><time>2026-05-01T07:07:25.814Z</time></trkpt><trkpt lat="42.5153553" lon="14.1633672"><ele>2.8000000000000003</ele><time>2026-05-01T07:07:26.816Z</time></trkpt><trkpt lat="42.5152741" lon="14.1634557"><ele>2.4000000000000004</ele><time>2026-05-01T07:07:27.817Z</time></trkpt><trkpt lat="42.5151936" lon="14.1635407"><ele>2.0</ele><time>2026-05-01T07:07:28.829Z</time></trkpt><trkpt lat="42.5151145" lon="14.1636287"><ele>2.0</ele><time>2026-05-01T07:07:29.83Z</time></trkpt><trkpt lat="42.515033" lon="14.1637167"><ele>2.0</ele><time>2026-05-01T07:07:30.818Z</time></trkpt><trkpt lat="42.5149493" lon="14.1637999"><ele>2.0</ele><time>2026-05-01T07:07:31.81Z</time></trkpt><trkpt lat="42.5148629" lon="14.1638893"><ele>2.0</ele><time>2026-05-01T07:07:32.811Z</time></trkpt><trkpt lat="42.5147754" lon="14.1639833"><ele>2.0</ele><time>2026-05-01T07:07:33.847Z</time></trkpt><trkpt lat="42.5146826" lon="14.1640801"><ele>1.75</ele><time>2026-05-01T07:07:34.809Z</time></trkpt><trkpt lat="42.5145895" lon="14.1641782"><ele>1.5</ele><time>2026-05-01T07:07:35.833Z</time></trkpt><trkpt lat="42.5144984" lon="14.1642806"><ele>1.25</ele><time>2026-05-01T07:07:36.81Z</time></trkpt><trkpt lat="42.5144016" lon="14.164381"><ele>1.0</ele><time>2026-05-01T07:07:37.814Z</time></trkpt><trkpt lat="42.5143052" lon="14.1644835"><ele>1.0</ele><time>2026-05-01T07:07:38.821Z</time></trkpt><trkpt lat="42.5142097" lon="14.1645808"><ele>1.0</ele><time>2026-05-01T07:07:39.825Z</time></trkpt><trkpt lat="42.5141178" lon="14.1646819"><ele>1.0</ele><time>2026-05-01T07:07:40.819Z</time></trkpt><trkpt lat="42.5140221" lon="14.1647788"><ele>1.0</ele><time>2026-05-01T07:07:41.82Z</time></trkpt><trkpt lat="42.5139296" lon="14.1648886"><ele>1.25</ele><time>2026-05-01T07:07:42.818Z</time></trkpt><trkpt lat="42.5138397" lon="14.1649845"><ele>1.5</ele><time>2026-05-01T07:07:43.825Z</time></trkpt><trkpt lat="42.51375" lon="14.1650861"><ele>1.75</ele><time>2026-05-01T07:07:44.818Z</time></trkpt><trkpt lat="42.5136635" lon="14.1651781"><ele>2.0</ele><time>2026-05-01T07:07:45.816Z</time></trkpt><trkpt lat="42.5135763" lon="14.1652734"><ele>2.0</ele><time>2026-05-01T07:07:46.815Z</time></trkpt><trkpt lat="42.5134945" lon="14.1653634"><ele>2.0</ele><time>2026-05-01T07:07:47.819Z</time></trkpt><trkpt lat="42.5134181" lon="14.1654532"><ele>2.0</ele><time>2026-05-01T07:07:48.811Z</time></trkpt><trkpt lat="42.5133469" lon="14.1655454"><ele>2.0</ele><time>2026-05-01T07:07:49.834Z</time></trkpt><trkpt lat="42.513271" lon="14.1656276"><ele>2.0</ele><time>2026-05-01T07:07:50.827Z</time></trkpt><trkpt lat="42.5131882" lon="14.1657169"><ele>2.0</ele><time>2026-05-01T07:07:51.82Z</time></trkpt><trkpt lat="42.5131003" lon="14.1658113"><ele>2.0</ele><time>2026-05-01T07:07:52.824Z</time></trkpt><trkpt lat="42.5130066" lon="14.1659136"><ele>2.0</ele><time>2026-05-01T07:07:53.817Z</time></trkpt><trkpt lat="42.5128996" lon="14.1660251"><ele>2.0</ele><time>2026-05-01T07:07:54.821Z</time></trkpt><trkpt lat="42.5127856" lon="14.1661333"><ele>2.333333333333333</ele><time>2026-05-01T07:07:55.828Z</time></trkpt><trkpt lat="42.5126655" lon="14.166256"><ele>2.6666666666666665</ele><time>2026-05-01T07:07:56.822Z</time></trkpt><trkpt lat="42.5125431" lon="14.1663857"><ele>3.0</ele><time>2026-05-01T07:07:57.819Z</time></trkpt><trkpt lat="42.5124245" lon="14.1665174"><ele>2.6666666666666665</ele><time>2026-05-01T07:07:58.828Z</time></trkpt><trkpt lat="42.5123036" lon="14.1666491"><ele>2.333333333333333</ele><time>2026-05-01T07:07:59.824Z</time></trkpt><trkpt lat="42.5121788" lon="14.1667784"><ele>2.0</ele><time>2026-05-01T07:08:00.819Z</time></trkpt><trkpt lat="42.5120552" lon="14.1669061"><ele>2.0</ele><time>2026-05-01T07:08:01.825Z</time></trkpt><trkpt lat="42.5119323" lon="14.1670341"><ele>2.0</ele><time>2026-05-01T07:08:02.834Z</time></trkpt><trkpt lat="42.5118123" lon="14.1671631"><ele>2.0</ele><time>2026-05-01T07:08:03.827Z</time></trkpt><trkpt lat="42.5116911" lon="14.1672896"><ele>1.3333333333333333</ele><time>2026-05-01T07:08:04.819Z</time></trkpt><trkpt lat="42.5115679" lon="14.1674198"><ele>0.6666666666666666</ele><time>2026-05-01T07:08:05.82Z</time></trkpt><trkpt lat="42.5114466" lon="14.1675485"><ele>0.0</ele><time>2026-05-01T07:08:06.814Z</time></trkpt><trkpt lat="42.5113256" lon="14.1676822"><ele>0.6666666666666666</ele><time>2026-05-01T07:08:07.83Z</time></trkpt><trkpt lat="42.5112072" lon="14.1678092"><ele>1.3333333333333333</ele><time>2026-05-01T07:08:08.812Z</time></trkpt><trkpt lat="42.511092" lon="14.1679391"><ele>2.0</ele><time>2026-05-01T07:08:09.821Z</time></trkpt><trkpt lat="42.5109753" lon="14.1680658"><ele>2.0</ele><time>2026-05-01T07:08:10.816Z</time></trkpt><trkpt lat="42.5108566" lon="14.1681903"><ele>2.0</ele><time>2026-05-01T07:08:11.824Z</time></trkpt><trkpt lat="42.5107389" lon="14.168315"><ele>2.0</ele><time>2026-05-01T07:08:12.821Z</time></trkpt><trkpt lat="42.5106215" lon="14.1684362"><ele>2.0</ele><time>2026-05-01T07:08:13.821Z</time></trkpt><trkpt lat="42.5105157" lon="14.1685536"><ele>2.0</ele><time>2026-05-01T07:08:14.821Z</time></trkpt><trkpt lat="42.5104124" lon="14.1686619"><ele>2.0</ele><time>2026-05-01T07:08:15.822Z</time></trkpt><trkpt lat="42.5103126" lon="14.1687702"><ele>2.0</ele><time>2026-05-01T07:08:16.821Z</time></trkpt><trkpt lat="42.5102202" lon="14.1688563"><ele>2.0</ele><time>2026-05-01T07:08:17.818Z</time></trkpt><trkpt lat="42.5101268" lon="14.1689184"><ele>1.8</ele><time>2026-05-01T07:08:18.822Z</time></trkpt><trkpt lat="42.5100429" lon="14.1689518"><ele>1.6</ele><time>2026-05-01T07:08:19.806Z</time></trkpt><trkpt lat="42.5099606" lon="14.1689389"><ele>1.4000000000000001</ele><time>2026-05-01T07:08:20.814Z</time></trkpt><trkpt lat="42.5098856" lon="14.1688788"><ele>1.2000000000000002</ele><time>2026-05-01T07:08:21.821Z</time></trkpt><trkpt lat="42.5098119" lon="14.1687734"><ele>1.0</ele><time>2026-05-01T07:08:22.821Z</time></trkpt><trkpt lat="42.5097328" lon="14.1686525"><ele>1.0</ele><time>2026-05-01T07:08:23.812Z</time></trkpt><trkpt lat="42.509658" lon="14.1685189"><ele>1.0</ele><time>2026-05-01T07:08:24.824Z</time></trkpt><trkpt lat="42.5095729" lon="14.1683839"><ele>1.0</ele><time>2026-05-01T07:08:25.816Z</time></trkpt><trkpt lat="42.509481" lon="14.1682485"><ele>1.0</ele><time>2026-05-01T07:08:26.816Z</time></trkpt><trkpt lat="42.5093937" lon="14.1681127"><ele>1.5</ele><time>2026-05-01T07:08:27.824Z</time></trkpt><trkpt lat="42.5093055" lon="14.1679825"><ele>2.0</ele><time>2026-05-01T07:08:28.825Z</time></trkpt><trkpt lat="42.50922" lon="14.1678498"><ele>2.5</ele><time>2026-05-01T07:08:29.826Z</time></trkpt><trkpt lat="42.5091392" lon="14.1677174"><ele>3.0</ele><time>2026-05-01T07:08:30.833Z</time></trkpt><trkpt lat="42.5090604" lon="14.1676007"><ele>3.0</ele><time>2026-05-01T07:08:31.821Z</time></trkpt><trkpt lat="42.5089876" lon="14.1674831"><ele>3.0</ele><time>2026-05-01T07:08:32.818Z</time></trkpt><trkpt lat="42.5089161" lon="14.1673682"><ele>3.0</ele><time>2026-05-01T07:08:33.823Z</time></trkpt><trkpt lat="42.5088417" lon="14.1672543"><ele>3.0</ele><time>2026-05-01T07:08:34.814Z</time></trkpt><trkpt lat="42.5087668" lon="14.1671441"><ele>3.0</ele><time>2026-05-01T07:08:35.812Z</time></trkpt><trkpt lat="42.5086962" lon="14.1670301"><ele>2.8</ele><time>2026-05-01T07:08:36.826Z</time></trkpt><trkpt lat="42.5086269" lon="14.1669162"><ele>2.5999999999999996</ele><time>2026-05-01T07:08:37.822Z</time></trkpt><trkpt lat="42.5085535" lon="14.1668043"><ele>2.4000000000000004</ele><time>2026-05-01T07:08:38.821Z</time></trkpt><trkpt lat="42.5084854" lon="14.1666943"><ele>2.2</ele><time>2026-05-01T07:08:39.853Z</time></trkpt><trkpt lat="42.5084179" lon="14.1665861"><ele>2.0</ele><time>2026-05-01T07:08:40.821Z</time></trkpt><trkpt lat="42.5083497" lon="14.1664726"><ele>2.6</ele><time>2026-05-01T07:08:41.817Z</time></trkpt><trkpt lat="42.50828" lon="14.1663647"><ele>3.2</ele><time>2026-05-01T07:08:42.818Z</time></trkpt><trkpt lat="42.5082142" lon="14.1662627"><ele>3.8</ele><time>2026-05-01T07:08:43.824Z</time></trkpt><trkpt lat="42.5081556" lon="14.1661637"><ele>4.4</ele><time>2026-05-01T07:08:44.827Z</time></trkpt><trkpt lat="42.5080885" lon="14.1660682"><ele>5.0</ele><time>2026-05-01T07:08:45.819Z</time></trkpt><trkpt lat="42.5080167" lon="14.1659651"><ele>5.0</ele><time>2026-05-01T07:08:46.82Z</time></trkpt><trkpt lat="42.5079477" lon="14.1658532"><ele>5.0</ele><time>2026-05-01T07:08:47.82Z</time></trkpt><trkpt lat="42.5078782" lon="14.1657544"><ele>5.0</ele><time>2026-05-01T07:08:48.815Z</time></trkpt><trkpt lat="42.507812" lon="14.1656491"><ele>5.0</ele><time>2026-05-01T07:08:49.813Z</time></trkpt><trkpt lat="42.50775" lon="14.1655456"><ele>5.0</ele><time>2026-05-01T07:08:50.825Z</time></trkpt><trkpt lat="42.5076909" lon="14.1654553"><ele>4.666666666666667</ele><time>2026-05-01T07:08:51.827Z</time></trkpt><trkpt lat="42.5076393" lon="14.1653712"><ele>4.333333333333334</ele><time>2026-05-01T07:08:52.819Z</time></trkpt><trkpt lat="42.5075943" lon="14.1652944"><ele>4.0</ele><time>2026-05-01T07:08:53.868Z</time></trkpt><trkpt lat="42.507553" lon="14.165229"><ele>3.666666666666667</ele><time>2026-05-01T07:08:54.822Z</time></trkpt><trkpt lat="42.5074851" lon="14.165128"><ele>3.3333333333333335</ele><time>2026-05-01T07:08:56.822Z</time></trkpt><trkpt lat="42.5074245" lon="14.1650352"><ele>3.0</ele><time>2026-05-01T07:08:58.816Z</time></trkpt><trkpt lat="42.5073794" lon="14.1649629"><ele>3.0</ele><time>2026-05-01T07:09:00.821Z</time></trkpt><trkpt lat="42.5073178" lon="14.1648682"><ele>3.0</ele><time>2026-05-01T07:09:02.818Z</time></trkpt><trkpt lat="42.5072572" lon="14.1647565"><ele>3.0</ele><time>2026-05-01T07:09:04.82Z</time></trkpt><trkpt lat="42.5072086" lon="14.1646957"><ele>3.0</ele><time>2026-05-01T07:09:05.83Z</time></trkpt><trkpt lat="42.5071403" lon="14.1646101"><ele>3.0</ele><time>2026-05-01T07:09:06.818Z</time></trkpt><trkpt lat="42.5070614" lon="14.1645187"><ele>2.75</ele><time>2026-05-01T07:09:07.835Z</time></trkpt><trkpt lat="42.5069791" lon="14.164407"><ele>2.5</ele><time>2026-05-01T07:09:08.819Z</time></trkpt><trkpt lat="42.5068998" lon="14.1642817"><ele>2.25</ele><time>2026-05-01T07:09:09.817Z</time></trkpt><trkpt lat="42.5068152" lon="14.1641656"><ele>2.0</ele><time>2026-05-01T07:09:10.814Z</time></trkpt><trkpt lat="42.5067398" lon="14.1640412"><ele>1.8</ele><time>2026-05-01T07:09:11.82Z</time></trkpt><trkpt lat="42.5066622" lon="14.1639241"><ele>1.6</ele><time>2026-05-01T07:09:12.815Z</time></trkpt><trkpt lat="42.506589" lon="14.163816"><ele>1.4000000000000001</ele><time>2026-05-01T07:09:13.822Z</time></trkpt><trkpt lat="42.5065226" lon="14.1637109"><ele>1.2000000000000002</ele><time>2026-05-01T07:09:14.821Z</time></trkpt><trkpt lat="42.5064602" lon="14.1636191"><ele>1.0</ele><time>2026-05-01T07:09:15.82Z</time></trkpt><trkpt lat="42.506401" lon="14.1635283"><ele>0.9999999999999999</ele><time>2026-05-01T07:09:16.813Z</time></trkpt><trkpt lat="42.506346" lon="14.163449"><ele>1.0</ele><time>2026-05-01T07:09:17.813Z</time></trkpt><trkpt lat="42.5062901" lon="14.1633809"><ele>1.0</ele><time>2026-05-01T07:09:18.825Z</time></trkpt><trkpt lat="42.506238" lon="14.1633154"><ele>1.0</ele><time>2026-05-01T07:09:19.82Z</time></trkpt><trkpt lat="42.5061643" lon="14.1632059"><ele>0.9999999999999999</ele><time>2026-05-01T07:09:21.814Z</time></trkpt><trkpt lat="42.5061134" lon="14.1631154"><ele>1.0</ele><time>2026-05-01T07:09:24.818Z</time></trkpt><trkpt lat="42.5060575" lon="14.163031"><ele>1.2000000000000002</ele><time>2026-05-01T07:09:41.827Z</time></trkpt><trkpt lat="42.5059984" lon="14.1629297"><ele>1.4000000000000001</ele><time>2026-05-01T07:09:43.828Z</time></trkpt><trkpt lat="42.5059574" lon="14.1628594"><ele>1.6</ele><time>2026-05-01T07:09:45.822Z</time></trkpt><trkpt lat="42.5058667" lon="14.1628378"><ele>1.8</ele><time>2026-05-01T07:09:47.82Z</time></trkpt><trkpt lat="42.5057559" lon="14.1629535"><ele>2.0</ele><time>2026-05-01T07:09:49.823Z</time></trkpt><trkpt lat="42.5056864" lon="14.1630429"><ele>2.0</ele><time>2026-05-01T07:09:50.844Z</time></trkpt><trkpt lat="42.505606" lon="14.1631358"><ele>2.0</ele><time>2026-05-01T07:09:51.822Z</time></trkpt><trkpt lat="42.5055253" lon="14.1632387"><ele>2.0</ele><time>2026-05-01T07:09:52.809Z</time></trkpt><trkpt lat="42.5054434" lon="14.1633413"><ele>2.0</ele><time>2026-05-01T07:09:53.829Z</time></trkpt><trkpt lat="42.505368" lon="14.1634309"><ele>2.0</ele><time>2026-05-01T07:09:54.824Z</time></trkpt><trkpt lat="42.5052923" lon="14.1635337"><ele>2.25</ele><time>2026-05-01T07:09:55.819Z</time></trkpt><trkpt lat="42.5052065" lon="14.1636398"><ele>2.5</ele><time>2026-05-01T07:09:56.822Z</time></trkpt><trkpt lat="42.5051149" lon="14.1637496"><ele>2.75</ele><time>2026-05-01T07:09:57.823Z</time></trkpt><trkpt lat="42.505023" lon="14.1638551"><ele>3.0</ele><time>2026-05-01T07:09:58.818Z</time></trkpt><trkpt lat="42.5049363" lon="14.1639601"><ele>2.75</ele><time>2026-05-01T07:09:59.82Z</time></trkpt><trkpt lat="42.5048511" lon="14.1640654"><ele>2.5</ele><time>2026-05-01T07:10:00.822Z</time></trkpt><trkpt lat="42.5047682" lon="14.164171"><ele>2.25</ele><time>2026-05-01T07:10:01.826Z</time></trkpt><trkpt lat="42.5046818" lon="14.164281"><ele>2.0</ele><time>2026-05-01T07:10:02.817Z</time></trkpt><trkpt lat="42.5045887" lon="14.1643955"><ele>2.25</ele><time>2026-05-01T07:10:03.82Z</time></trkpt><trkpt lat="42.5044945" lon="14.1645047"><ele>2.5</ele><time>2026-05-01T07:10:04.823Z</time></trkpt><trkpt lat="42.5043976" lon="14.1646152"><ele>2.75</ele><time>2026-05-01T07:10:05.818Z</time></trkpt><trkpt lat="42.5042994" lon="14.1647264"><ele>3.0</ele><time>2026-05-01T07:10:06.818Z</time></trkpt><trkpt lat="42.5042026" lon="14.1648407"><ele>2.75</ele><time>2026-05-01T07:10:07.821Z</time></trkpt><trkpt lat="42.5041071" lon="14.1649523"><ele>2.5</ele><time>2026-05-01T07:10:08.821Z</time></trkpt><trkpt lat="42.5040151" lon="14.1650625"><ele>2.25</ele><time>2026-05-01T07:10:09.825Z</time></trkpt><trkpt lat="42.5039236" lon="14.1651721"><ele>2.0</ele><time>2026-05-01T07:10:10.819Z</time></trkpt><trkpt lat="42.5038331" lon="14.1652835"><ele>2.75</ele><time>2026-05-01T07:10:11.819Z</time></trkpt><trkpt lat="42.5037382" lon="14.1653957"><ele>3.5</ele><time>2026-05-01T07:10:12.812Z</time></trkpt><trkpt lat="42.5036427" lon="14.165512"><ele>4.25</ele><time>2026-05-01T07:10:13.819Z</time></trkpt><trkpt lat="42.5035459" lon="14.165628"><ele>5.0</ele><time>2026-05-01T07:10:14.812Z</time></trkpt><trkpt lat="42.5034522" lon="14.1657453"><ele>5.0</ele><time>2026-05-01T07:10:15.824Z</time></trkpt><trkpt lat="42.5033636" lon="14.165851"><ele>5.0</ele><time>2026-05-01T07:10:16.822Z</time></trkpt><trkpt lat="42.5032856" lon="14.1659421"><ele>5.0</ele><time>2026-05-01T07:10:17.821Z</time></trkpt><trkpt lat="42.5032203" lon="14.1660133"><ele>5.0</ele><time>2026-05-01T07:10:18.855Z</time></trkpt><trkpt lat="42.5031693" lon="14.166072"><ele>5.0</ele><time>2026-05-01T07:10:19.816Z</time></trkpt><trkpt lat="42.5030804" lon="14.1661629"><ele>5.0</ele><time>2026-05-01T07:10:21.813Z</time></trkpt><trkpt lat="42.5030296" lon="14.1662206"><ele>5.0</ele><time>2026-05-01T07:10:22.822Z</time></trkpt><trkpt lat="42.5029712" lon="14.1663029"><ele>5.0</ele><time>2026-05-01T07:10:23.856Z</time></trkpt><trkpt lat="42.5029053" lon="14.1664001"><ele>5.0</ele><time>2026-05-01T07:10:24.818Z</time></trkpt><trkpt lat="42.5028242" lon="14.1664922"><ele>5.0</ele><time>2026-05-01T07:10:25.817Z</time></trkpt><trkpt lat="42.5027395" lon="14.1665886"><ele>4.75</ele><time>2026-05-01T07:10:26.822Z</time></trkpt><trkpt lat="42.5026545" lon="14.1666965"><ele>4.5</ele><time>2026-05-01T07:10:27.819Z</time></trkpt><trkpt lat="42.5025612" lon="14.1668027"><ele>4.25</ele><time>2026-05-01T07:10:28.816Z</time></trkpt><trkpt lat="42.5024695" lon="14.1669175"><ele>4.0</ele><time>2026-05-01T07:10:29.819Z</time></trkpt><trkpt lat="42.5023745" lon="14.1670404"><ele>4.0</ele><time>2026-05-01T07:10:30.813Z</time></trkpt><trkpt lat="42.502277" lon="14.167165"><ele>4.0</ele><time>2026-05-01T07:10:31.821Z</time></trkpt><trkpt lat="42.502176" lon="14.1672969"><ele>4.0</ele><time>2026-05-01T07:10:32.821Z</time></trkpt><trkpt lat="42.5020711" lon="14.1674248"><ele>4.0</ele><time>2026-05-01T07:10:33.818Z</time></trkpt><trkpt lat="42.5019675" lon="14.1675504"><ele>4.0</ele><time>2026-05-01T07:10:34.816Z</time></trkpt><trkpt lat="42.501866" lon="14.1676732"><ele>4.0</ele><time>2026-05-01T07:10:35.824Z</time></trkpt><trkpt lat="42.501772" lon="14.1677926"><ele>4.0</ele><time>2026-05-01T07:10:36.82Z</time></trkpt><trkpt lat="42.5016748" lon="14.1679076"><ele>4.0</ele><time>2026-05-01T07:10:37.841Z</time></trkpt><trkpt lat="42.5015741" lon="14.1680204"><ele>4.0</ele><time>2026-05-01T07:10:38.819Z</time></trkpt><trkpt lat="42.5014757" lon="14.1681351"><ele>4.0</ele><time>2026-05-01T07:10:39.827Z</time></trkpt><trkpt lat="42.5013711" lon="14.1682577"><ele>4.0</ele><time>2026-05-01T07:10:40.817Z</time></trkpt><trkpt lat="42.5012651" lon="14.1683881"><ele>4.0</ele><time>2026-05-01T07:10:41.822Z</time></trkpt><trkpt lat="42.5011615" lon="14.1685218"><ele>4.0</ele><time>2026-05-01T07:10:42.816Z</time></trkpt><trkpt lat="42.5010586" lon="14.1686488"><ele>4.0</ele><time>2026-05-01T07:10:43.817Z</time></trkpt><trkpt lat="42.5009587" lon="14.16877"><ele>4.0</ele><time>2026-05-01T07:10:44.82Z</time></trkpt><trkpt lat="42.500859" lon="14.1688991"><ele>4.0</ele><time>2026-05-01T07:10:45.823Z</time></trkpt><trkpt lat="42.5007541" lon="14.1690228"><ele>4.0</ele><time>2026-05-01T07:10:46.818Z</time></trkpt><trkpt lat="42.50065" lon="14.1691575"><ele>4.0</ele><time>2026-05-01T07:10:47.863Z</time></trkpt><trkpt lat="42.5005506" lon="14.1692919"><ele>4.0</ele><time>2026-05-01T07:10:48.816Z</time></trkpt><trkpt lat="42.5004444" lon="14.169421"><ele>4.0</ele><time>2026-05-01T07:10:49.818Z</time></trkpt><trkpt lat="42.5003389" lon="14.1695438"><ele>3.75</ele><time>2026-05-01T07:10:50.826Z</time></trkpt><trkpt lat="42.5002406" lon="14.1696621"><ele>3.5</ele><time>2026-05-01T07:10:51.825Z</time></trkpt><trkpt lat="42.5001406" lon="14.169792"><ele>3.25</ele><time>2026-05-01T07:10:52.821Z</time></trkpt><trkpt lat="42.5000413" lon="14.169912"><ele>3.0</ele><time>2026-05-01T07:10:53.844Z</time></trkpt><trkpt lat="42.4999442" lon="14.1700264"><ele>3.0</ele><time>2026-05-01T07:10:54.821Z</time></trkpt><trkpt lat="42.499851" lon="14.1701478"><ele>3.0</ele><time>2026-05-01T07:10:55.818Z</time></trkpt><trkpt lat="42.4997589" lon="14.1702581"><ele>3.0</ele><time>2026-05-01T07:10:56.823Z</time></trkpt><trkpt lat="42.4996645" lon="14.170365"><ele>3.0</ele><time>2026-05-01T07:10:57.814Z</time></trkpt><trkpt lat="42.4995751" lon="14.1704716"><ele>3.0</ele><time>2026-05-01T07:10:58.819Z</time></trkpt><trkpt lat="42.4994788" lon="14.170578"><ele>3.0</ele><time>2026-05-01T07:10:59.813Z</time></trkpt><trkpt lat="42.499387" lon="14.1706916"><ele>3.0</ele><time>2026-05-01T07:11:00.82Z</time></trkpt><trkpt lat="42.4992964" lon="14.1708011"><ele>3.0</ele><time>2026-05-01T07:11:01.816Z</time></trkpt><trkpt lat="42.4992052" lon="14.1709113"><ele>3.25</ele><time>2026-05-01T07:11:02.818Z</time></trkpt><trkpt lat="42.4991154" lon="14.1710234"><ele>3.5</ele><time>2026-05-01T07:11:03.823Z</time></trkpt><trkpt lat="42.4990303" lon="14.1711294"><ele>3.75</ele><time>2026-05-01T07:11:04.822Z</time></trkpt><trkpt lat="42.4989418" lon="14.1712364"><ele>4.0</ele><time>2026-05-01T07:11:05.852Z</time></trkpt><trkpt lat="42.4988629" lon="14.1713392"><ele>4.0</ele><time>2026-05-01T07:11:06.816Z</time></trkpt><trkpt lat="42.4987833" lon="14.171433"><ele>4.0</ele><time>2026-05-01T07:11:07.811Z</time></trkpt><trkpt lat="42.4987091" lon="14.171524"><ele>4.0</ele><time>2026-05-01T07:11:08.824Z</time></trkpt><trkpt lat="42.4986245" lon="14.1716315"><ele>4.0</ele><time>2026-05-01T07:11:09.819Z</time></trkpt><trkpt lat="42.4985318" lon="14.1717449"><ele>4.0</ele><time>2026-05-01T07:11:10.852Z</time></trkpt><trkpt lat="42.4984281" lon="14.1718698"><ele>3.75</ele><time>2026-05-01T07:11:11.826Z</time></trkpt><trkpt lat="42.4983213" lon="14.1720002"><ele>3.5</ele><time>2026-05-01T07:11:12.815Z</time></trkpt><trkpt lat="42.4982141" lon="14.1721306"><ele>3.25</ele><time>2026-05-01T07:11:13.829Z</time></trkpt><trkpt lat="42.4981079" lon="14.1722611"><ele>3.0</ele><time>2026-05-01T07:11:14.815Z</time></trkpt><trkpt lat="42.4980049" lon="14.1723917"><ele>3.5</ele><time>2026-05-01T07:11:15.857Z</time></trkpt><trkpt lat="42.4978907" lon="14.1725121"><ele>4.0</ele><time>2026-05-01T07:11:16.811Z</time></trkpt><trkpt lat="42.4977762" lon="14.1726359"><ele>4.5</ele><time>2026-05-01T07:11:17.823Z</time></trkpt><trkpt lat="42.4976668" lon="14.1727596"><ele>5.0</ele><time>2026-05-01T07:11:18.827Z</time></trkpt><trkpt lat="42.4975684" lon="14.1728894"><ele>5.0</ele><time>2026-05-01T07:11:19.818Z</time></trkpt><trkpt lat="42.4974723" lon="14.1730063"><ele>5.0</ele><time>2026-05-01T07:11:20.816Z</time></trkpt><trkpt lat="42.4973774" lon="14.1731188"><ele>5.0</ele><time>2026-05-01T07:11:21.819Z</time></trkpt><trkpt lat="42.497293" lon="14.1732208"><ele>5.0</ele><time>2026-05-01T07:11:22.814Z</time></trkpt><trkpt lat="42.4972139" lon="14.1733149"><ele>5.0</ele><time>2026-05-01T07:11:23.861Z</time></trkpt><trkpt lat="42.4971397" lon="14.1733997"><ele>5.0</ele><time>2026-05-01T07:11:24.815Z</time></trkpt><trkpt lat="42.4970703" lon="14.1734882"><ele>5.0</ele><time>2026-05-01T07:11:25.824Z</time></trkpt><trkpt lat="42.4970028" lon="14.1735702"><ele>5.0</ele><time>2026-05-01T07:11:26.824Z</time></trkpt><trkpt lat="42.496948" lon="14.173632"><ele>5.0</ele><time>2026-05-01T07:11:27.827Z</time></trkpt><trkpt lat="42.4968945" lon="14.1737127"><ele>5.0</ele><time>2026-05-01T07:11:29.823Z</time></trkpt><trkpt lat="42.4968563" lon="14.1737828"><ele>5.0</ele><time>2026-05-01T07:11:57.837Z</time></trkpt><trkpt lat="42.4967895" lon="14.1738487"><ele>5.0</ele><time>2026-05-01T07:11:59.827Z</time></trkpt><trkpt lat="42.4967545" lon="14.1739455"><ele>5.0</ele><time>2026-05-01T07:12:01.817Z</time></trkpt><trkpt lat="42.4967971" lon="14.1740508"><ele>5.0</ele><time>2026-05-01T07:12:03.817Z</time></trkpt><trkpt lat="42.4968465" lon="14.17411"><ele>5.0</ele><time>2026-05-01T07:12:04.809Z</time></trkpt><trkpt lat="42.496891" lon="14.1741779"><ele>5.0</ele><time>2026-05-01T07:12:05.81Z</time></trkpt><trkpt lat="42.4969368" lon="14.1742584"><ele>4.6</ele><time>2026-05-01T07:12:06.821Z</time></trkpt><trkpt lat="42.497" lon="14.1743489"><ele>4.2</ele><time>2026-05-01T07:12:07.821Z</time></trkpt><trkpt lat="42.4970705" lon="14.1744435"><ele>3.8</ele><time>2026-05-01T07:12:08.824Z</time></trkpt><trkpt lat="42.4971453" lon="14.1745423"><ele>3.4</ele><time>2026-05-01T07:12:09.818Z</time></trkpt><trkpt lat="42.497207" lon="14.174639"><ele>3.0</ele><time>2026-05-01T07:12:10.853Z</time></trkpt><trkpt lat="42.4972654" lon="14.1747306"><ele>3.0</ele><time>2026-05-01T07:12:11.816Z</time></trkpt><trkpt lat="42.4973286" lon="14.1748153"><ele>3.0</ele><time>2026-05-01T07:12:12.822Z</time></trkpt><trkpt lat="42.4973889" lon="14.1749148"><ele>3.0</ele><time>2026-05-01T07:12:13.818Z</time></trkpt><trkpt lat="42.4974492" lon="14.1750043"><ele>3.0</ele><time>2026-05-01T07:12:14.819Z</time></trkpt><trkpt lat="42.4975041" lon="14.1750898"><ele>3.0</ele><time>2026-05-01T07:12:15.816Z</time></trkpt><trkpt lat="42.4975651" lon="14.1751844"><ele>3.0</ele><time>2026-05-01T07:12:16.81Z</time></trkpt><trkpt lat="42.4976286" lon="14.1752839"><ele>3.0</ele><time>2026-05-01T07:12:17.812Z</time></trkpt><trkpt lat="42.4976909" lon="14.1753793"><ele>3.0</ele><time>2026-05-01T07:12:18.817Z</time></trkpt><trkpt lat="42.4977445" lon="14.1754768"><ele>3.0</ele><time>2026-05-01T07:12:19.816Z</time></trkpt><trkpt lat="42.4977984" lon="14.1755582"><ele>3.0</ele><time>2026-05-01T07:12:20.808Z</time></trkpt><trkpt lat="42.4978437" lon="14.1756388"><ele>3.0</ele><time>2026-05-01T07:12:21.816Z</time></trkpt><trkpt lat="42.4978924" lon="14.17571"><ele>3.0</ele><time>2026-05-01T07:12:22.823Z</time></trkpt><trkpt lat="42.4979411" lon="14.1757708"><ele>3.25</ele><time>2026-05-01T07:12:23.81Z</time></trkpt><trkpt lat="42.4980198" lon="14.175879"><ele>3.5</ele><time>2026-05-01T07:12:25.824Z</time></trkpt><trkpt lat="42.4980891" lon="14.1759777"><ele>3.75</ele><time>2026-05-01T07:12:27.822Z</time></trkpt><trkpt lat="42.4981688" lon="14.1760942"><ele>4.0</ele><time>2026-05-01T07:12:29.829Z</time></trkpt><trkpt lat="42.4982511" lon="14.1762187"><ele>3.9999999999999996</ele><time>2026-05-01T07:12:31.814Z</time></trkpt><trkpt lat="42.498299" lon="14.1762934"><ele>4.0</ele><time>2026-05-01T07:12:32.82Z</time></trkpt><trkpt lat="42.4983488" lon="14.1763783"><ele>4.0</ele><time>2026-05-01T07:12:33.82Z</time></trkpt><trkpt lat="42.4984153" lon="14.1764637"><ele>4.0</ele><time>2026-05-01T07:12:34.821Z</time></trkpt><trkpt lat="42.4984797" lon="14.1765604"><ele>3.9999999999999996</ele><time>2026-05-01T07:12:35.82Z</time></trkpt><trkpt lat="42.498555" lon="14.1766498"><ele>4.0</ele><time>2026-05-01T07:12:36.813Z</time></trkpt><trkpt lat="42.4986233" lon="14.1767586"><ele>4.2</ele><time>2026-05-01T07:12:37.822Z</time></trkpt><trkpt lat="42.498684" lon="14.1768573"><ele>4.4</ele><time>2026-05-01T07:12:38.82Z</time></trkpt><trkpt lat="42.498738" lon="14.1769511"><ele>4.6</ele><time>2026-05-01T07:12:39.831Z</time></trkpt><trkpt lat="42.4987955" lon="14.1770516"><ele>4.8</ele><time>2026-05-01T07:12:40.816Z</time></trkpt><trkpt lat="42.4988569" lon="14.1771446"><ele>5.0</ele><time>2026-05-01T07:12:41.808Z</time></trkpt><trkpt lat="42.4989125" lon="14.177233"><ele>5.0</ele><time>2026-05-01T07:12:42.825Z</time></trkpt><trkpt lat="42.4989661" lon="14.1773186"><ele>5.0</ele><time>2026-05-01T07:12:43.817Z</time></trkpt><trkpt lat="42.499018" lon="14.1774075"><ele>5.0</ele><time>2026-05-01T07:12:44.817Z</time></trkpt><trkpt lat="42.4990768" lon="14.1774872"><ele>5.0</ele><time>2026-05-01T07:12:45.821Z</time></trkpt><trkpt lat="42.499132" lon="14.1775732"><ele>5.0</ele><time>2026-05-01T07:12:46.818Z</time></trkpt><trkpt lat="42.4991903" lon="14.1776587"><ele>5.0</ele><time>2026-05-01T07:12:47.822Z</time></trkpt><trkpt lat="42.4992514" lon="14.1777454"><ele>5.0</ele><time>2026-05-01T07:12:48.815Z</time></trkpt><trkpt lat="42.499313" lon="14.1778366"><ele>5.0</ele><time>2026-05-01T07:12:49.802Z</time></trkpt><trkpt lat="42.4993703" lon="14.1779363"><ele>5.0</ele><time>2026-05-01T07:12:50.816Z</time></trkpt><trkpt lat="42.4994247" lon="14.1780325"><ele>5.0</ele><time>2026-05-01T07:12:51.813Z</time></trkpt><trkpt lat="42.4994865" lon="14.1781153"><ele>5.0</ele><time>2026-05-01T07:12:52.815Z</time></trkpt><trkpt lat="42.4995381" lon="14.1781879"><ele>5.0</ele><time>2026-05-01T07:12:53.828Z</time></trkpt><trkpt lat="42.4995874" lon="14.1782639"><ele>4.5</ele><time>2026-05-01T07:12:54.815Z</time></trkpt><trkpt lat="42.4996376" lon="14.1783416"><ele>4.0</ele><time>2026-05-01T07:12:55.817Z</time></trkpt><trkpt lat="42.4996809" lon="14.1784159"><ele>3.5</ele><time>2026-05-01T07:12:56.813Z</time></trkpt><trkpt lat="42.499738" lon="14.1785231"><ele>3.0</ele><time>2026-05-01T07:12:58.819Z</time></trkpt><trkpt lat="42.4997602" lon="14.1786192"><ele>2.5</ele><time>2026-05-01T07:13:00.816Z</time></trkpt><trkpt lat="42.4997116" lon="14.1787565"><ele>2.0</ele><time>2026-05-01T07:13:02.81Z</time></trkpt><trkpt lat="42.4996543" lon="14.1788341"><ele>2.5</ele><time>2026-05-01T07:13:03.815Z</time></trkpt><trkpt lat="42.4995791" lon="14.1789168"><ele>3.0</ele><time>2026-05-01T07:13:04.809Z</time></trkpt><trkpt lat="42.4994911" lon="14.1790058"><ele>3.5</ele><time>2026-05-01T07:13:05.83Z</time></trkpt><trkpt lat="42.4993925" lon="14.179102"><ele>4.0</ele><time>2026-05-01T07:13:06.81Z</time></trkpt><trkpt lat="42.4992886" lon="14.1792052"><ele>4.0</ele><time>2026-05-01T07:13:07.831Z</time></trkpt><trkpt lat="42.4991786" lon="14.1793131"><ele>4.0</ele><time>2026-05-01T07:13:08.807Z</time></trkpt><trkpt lat="42.4990684" lon="14.1794244"><ele>4.0</ele><time>2026-05-01T07:13:09.809Z</time></trkpt><trkpt lat="42.4989587" lon="14.17954"><ele>4.0</ele><time>2026-05-01T07:13:10.808Z</time></trkpt><trkpt lat="42.4988522" lon="14.1796527"><ele>4.25</ele><time>2026-05-01T07:13:11.812Z</time></trkpt><trkpt lat="42.4987496" lon="14.1797546"><ele>4.5</ele><time>2026-05-01T07:13:12.813Z</time></trkpt><trkpt lat="42.4986554" lon="14.1798571"><ele>4.75</ele><time>2026-05-01T07:13:13.813Z</time></trkpt><trkpt lat="42.4985568" lon="14.1799596"><ele>5.0</ele><time>2026-05-01T07:13:14.821Z</time></trkpt><trkpt lat="42.498453" lon="14.1800692"><ele>5.0</ele><time>2026-05-01T07:13:15.828Z</time></trkpt><trkpt lat="42.4983444" lon="14.1801776"><ele>5.0</ele><time>2026-05-01T07:13:16.812Z</time></trkpt><trkpt lat="42.4982361" lon="14.1802877"><ele>5.0</ele><time>2026-05-01T07:13:17.813Z</time></trkpt><trkpt lat="42.4981338" lon="14.1803983"><ele>5.0</ele><time>2026-05-01T07:13:18.811Z</time></trkpt><trkpt lat="42.498034" lon="14.180504"><ele>5.0</ele><time>2026-05-01T07:13:19.808Z</time></trkpt><trkpt lat="42.4979354" lon="14.180607"><ele>5.0</ele><time>2026-05-01T07:13:20.808Z</time></trkpt><trkpt lat="42.4978383" lon="14.1807091"><ele>5.0</ele><time>2026-05-01T07:13:21.814Z</time></trkpt><trkpt lat="42.4977359" lon="14.1808117"><ele>5.0</ele><time>2026-05-01T07:13:22.815Z</time></trkpt><trkpt lat="42.4976341" lon="14.1809183"><ele>5.25</ele><time>2026-05-01T07:13:23.81Z</time></trkpt><trkpt lat="42.4975285" lon="14.1810242"><ele>5.5</ele><time>2026-05-01T07:13:24.822Z</time></trkpt><trkpt lat="42.4974239" lon="14.1811306"><ele>5.75</ele><time>2026-05-01T07:13:25.818Z</time></trkpt><trkpt lat="42.4973174" lon="14.1812423"><ele>6.0</ele><time>2026-05-01T07:13:26.816Z</time></trkpt><trkpt lat="42.4972025" lon="14.1813531"><ele>6.0</ele><time>2026-05-01T07:13:27.809Z</time></trkpt><trkpt lat="42.4970929" lon="14.1814659"><ele>6.0</ele><time>2026-05-01T07:13:28.808Z</time></trkpt><trkpt lat="42.4969878" lon="14.1815781"><ele>6.0</ele><time>2026-05-01T07:13:29.814Z</time></trkpt><trkpt lat="42.4968832" lon="14.1816912"><ele>6.0</ele><time>2026-05-01T07:13:30.814Z</time></trkpt><trkpt lat="42.49678" lon="14.1817929"><ele>5.75</ele><time>2026-05-01T07:13:31.812Z</time></trkpt><trkpt lat="42.4966793" lon="14.1818951"><ele>5.5</ele><time>2026-05-01T07:13:32.815Z</time></trkpt><trkpt lat="42.4965773" lon="14.1819906"><ele>5.25</ele><time>2026-05-01T07:13:33.814Z</time></trkpt><trkpt lat="42.4964848" lon="14.1820791"><ele>5.0</ele><time>2026-05-01T07:13:34.816Z</time></trkpt><trkpt lat="42.4963931" lon="14.1821637"><ele>5.0</ele><time>2026-05-01T07:13:35.822Z</time></trkpt><trkpt lat="42.4963057" lon="14.1822501"><ele>5.0</ele><time>2026-05-01T07:13:36.82Z</time></trkpt><trkpt lat="42.4962128" lon="14.1823419"><ele>5.0</ele><time>2026-05-01T07:13:37.818Z</time></trkpt><trkpt lat="42.496122" lon="14.1824383"><ele>5.0</ele><time>2026-05-01T07:13:38.822Z</time></trkpt><trkpt lat="42.4960399" lon="14.1825377"><ele>5.0</ele><time>2026-05-01T07:13:39.813Z</time></trkpt><trkpt lat="42.4959603" lon="14.1826304"><ele>4.4</ele><time>2026-05-01T07:13:40.82Z</time></trkpt><trkpt lat="42.4958832" lon="14.1827147"><ele>3.8</ele><time>2026-05-01T07:13:41.811Z</time></trkpt><trkpt lat="42.4958036" lon="14.1827958"><ele>3.2</ele><time>2026-05-01T07:13:42.837Z</time></trkpt><trkpt lat="42.4957208" lon="14.1828785"><ele>2.6</ele><time>2026-05-01T07:13:43.823Z</time></trkpt><trkpt lat="42.4956315" lon="14.182958"><ele>2.0</ele><time>2026-05-01T07:13:44.81Z</time></trkpt><trkpt lat="42.4955411" lon="14.1830495"><ele>2.0</ele><time>2026-05-01T07:13:45.824Z</time></trkpt><trkpt lat="42.4954471" lon="14.1831447"><ele>2.0</ele><time>2026-05-01T07:13:46.819Z</time></trkpt><trkpt lat="42.495352" lon="14.1832421"><ele>2.0</ele><time>2026-05-01T07:13:47.842Z</time></trkpt><trkpt lat="42.4952487" lon="14.1833488"><ele>2.0</ele><time>2026-05-01T07:13:48.822Z</time></trkpt><trkpt lat="42.4951439" lon="14.1834592"><ele>2.75</ele><time>2026-05-01T07:13:49.813Z</time></trkpt><trkpt lat="42.4950403" lon="14.183567"><ele>3.5</ele><time>2026-05-01T07:13:50.819Z</time></trkpt><trkpt lat="42.494932" lon="14.1836765"><ele>4.25</ele><time>2026-05-01T07:13:51.828Z</time></trkpt><trkpt lat="42.4948218" lon="14.1837901"><ele>5.0</ele><time>2026-05-01T07:13:52.822Z</time></trkpt><trkpt lat="42.4947165" lon="14.1838969"><ele>5.0</ele><time>2026-05-01T07:13:53.822Z</time></trkpt><trkpt lat="42.4946147" lon="14.1839981"><ele>5.0</ele><time>2026-05-01T07:13:54.812Z</time></trkpt><trkpt lat="42.4945167" lon="14.1841008"><ele>5.0</ele><time>2026-05-01T07:13:55.809Z</time></trkpt><trkpt lat="42.4944167" lon="14.184203"><ele>5.0</ele><time>2026-05-01T07:13:56.812Z</time></trkpt><trkpt lat="42.4943232" lon="14.184307"><ele>5.0</ele><time>2026-05-01T07:13:57.818Z</time></trkpt><trkpt lat="42.4942321" lon="14.1844024"><ele>5.0</ele><time>2026-05-01T07:13:58.811Z</time></trkpt><trkpt lat="42.4941443" lon="14.1844931"><ele>5.0</ele><time>2026-05-01T07:13:59.808Z</time></trkpt><trkpt lat="42.4940498" lon="14.184584"><ele>5.0</ele><time>2026-05-01T07:14:00.816Z</time></trkpt><trkpt lat="42.4939586" lon="14.1846731"><ele>5.0</ele><time>2026-05-01T07:14:01.814Z</time></trkpt><trkpt lat="42.4938666" lon="14.1847675"><ele>5.0</ele><time>2026-05-01T07:14:02.814Z</time></trkpt><trkpt lat="42.4937752" lon="14.184871"><ele>5.0</ele><time>2026-05-01T07:14:03.812Z</time></trkpt><trkpt lat="42.4936801" lon="14.1849745"><ele>5.0</ele><time>2026-05-01T07:14:04.821Z</time></trkpt><trkpt lat="42.4935881" lon="14.1850818"><ele>4.75</ele><time>2026-05-01T07:14:05.821Z</time></trkpt><trkpt lat="42.4934947" lon="14.1851895"><ele>4.5</ele><time>2026-05-01T07:14:06.818Z</time></trkpt><trkpt lat="42.4934002" lon="14.18529"><ele>4.25</ele><time>2026-05-01T07:14:07.818Z</time></trkpt><trkpt lat="42.4933071" lon="14.1853876"><ele>4.0</ele><time>2026-05-01T07:14:08.812Z</time></trkpt><trkpt lat="42.4932141" lon="14.18549"><ele>4.0</ele><time>2026-05-01T07:14:09.836Z</time></trkpt><trkpt lat="42.4931199" lon="14.1856033"><ele>4.0</ele><time>2026-05-01T07:14:10.808Z</time></trkpt><trkpt lat="42.4930276" lon="14.185711"><ele>4.0</ele><time>2026-05-01T07:14:11.823Z</time></trkpt><trkpt lat="42.4929347" lon="14.1858179"><ele>4.0</ele><time>2026-05-01T07:14:12.809Z</time></trkpt><trkpt lat="42.4928534" lon="14.1859175"><ele>4.5</ele><time>2026-05-01T07:14:13.822Z</time></trkpt><trkpt lat="42.4927678" lon="14.1860189"><ele>5.0</ele><time>2026-05-01T07:14:14.808Z</time></trkpt><trkpt lat="42.4926773" lon="14.186121"><ele>5.5</ele><time>2026-05-01T07:14:15.812Z</time></trkpt><trkpt lat="42.4925765" lon="14.1862221"><ele>6.0</ele><time>2026-05-01T07:14:16.813Z</time></trkpt><trkpt lat="42.4924733" lon="14.1863329"><ele>6.0</ele><time>2026-05-01T07:14:17.818Z</time></trkpt><trkpt lat="42.4923722" lon="14.1864484"><ele>6.0</ele><time>2026-05-01T07:14:18.82Z</time></trkpt><trkpt lat="42.4922727" lon="14.1865539"><ele>6.0</ele><time>2026-05-01T07:14:19.817Z</time></trkpt><trkpt lat="42.4921769" lon="14.186652"><ele>6.0</ele><time>2026-05-01T07:14:20.817Z</time></trkpt><trkpt lat="42.4920879" lon="14.1867497"><ele>5.5</ele><time>2026-05-01T07:14:21.833Z</time></trkpt><trkpt lat="42.4920057" lon="14.1868429"><ele>5.0</ele><time>2026-05-01T07:14:22.81Z</time></trkpt><trkpt lat="42.4919207" lon="14.1869404"><ele>4.5</ele><time>2026-05-01T07:14:23.824Z</time></trkpt><trkpt lat="42.4918313" lon="14.1870397"><ele>4.0</ele><time>2026-05-01T07:14:24.815Z</time></trkpt><trkpt lat="42.4917374" lon="14.1871384"><ele>4.0</ele><time>2026-05-01T07:14:25.821Z</time></trkpt><trkpt lat="42.491642" lon="14.1872368"><ele>4.0</ele><time>2026-05-01T07:14:26.821Z</time></trkpt><trkpt lat="42.4915474" lon="14.187336"><ele>4.0</ele><time>2026-05-01T07:14:27.818Z</time></trkpt><trkpt lat="42.491458" lon="14.1874373"><ele>4.0</ele><time>2026-05-01T07:14:28.818Z</time></trkpt><trkpt lat="42.4913623" lon="14.1875411"><ele>4.0</ele><time>2026-05-01T07:14:29.83Z</time></trkpt><trkpt lat="42.4912676" lon="14.1876416"><ele>4.0</ele><time>2026-05-01T07:14:30.808Z</time></trkpt><trkpt lat="42.4911685" lon="14.1877518"><ele>4.0</ele><time>2026-05-01T07:14:31.832Z</time></trkpt><trkpt lat="42.4910648" lon="14.1878614"><ele>4.0</ele><time>2026-05-01T07:14:32.816Z</time></trkpt><trkpt lat="42.4909573" lon="14.1879811"><ele>4.25</ele><time>2026-05-01T07:14:33.821Z</time></trkpt><trkpt lat="42.4908488" lon="14.1881042"><ele>4.5</ele><time>2026-05-01T07:14:34.822Z</time></trkpt><trkpt lat="42.4907379" lon="14.1882314"><ele>4.75</ele><time>2026-05-01T07:14:35.818Z</time></trkpt><trkpt lat="42.4906204" lon="14.1883576"><ele>5.0</ele><time>2026-05-01T07:14:36.813Z</time></trkpt><trkpt lat="42.4905042" lon="14.1884862"><ele>5.333333333333334</ele><time>2026-05-01T07:14:37.823Z</time></trkpt><trkpt lat="42.4903845" lon="14.1886171"><ele>5.666666666666667</ele><time>2026-05-01T07:14:38.815Z</time></trkpt><trkpt lat="42.4902639" lon="14.1887472"><ele>6.0</ele><time>2026-05-01T07:14:39.82Z</time></trkpt><trkpt lat="42.4901456" lon="14.1888821"><ele>5.0</ele><time>2026-05-01T07:14:40.813Z</time></trkpt><trkpt lat="42.49003" lon="14.1890155"><ele>4.0</ele><time>2026-05-01T07:14:41.815Z</time></trkpt><trkpt lat="42.4899134" lon="14.1891397"><ele>3.0</ele><time>2026-05-01T07:14:42.821Z</time></trkpt><trkpt lat="42.4897967" lon="14.1892692"><ele>3.0</ele><time>2026-05-01T07:14:43.815Z</time></trkpt><trkpt lat="42.4896789" lon="14.1893891"><ele>3.0</ele><time>2026-05-01T07:14:44.816Z</time></trkpt><trkpt lat="42.4895656" lon="14.1895194"><ele>3.0</ele><time>2026-05-01T07:14:45.813Z</time></trkpt><trkpt lat="42.4894521" lon="14.1896451"><ele>3.0</ele><time>2026-05-01T07:14:46.815Z</time></trkpt><trkpt lat="42.4893367" lon="14.1897732"><ele>2.75</ele><time>2026-05-01T07:14:47.808Z</time></trkpt><trkpt lat="42.4892284" lon="14.1898914"><ele>2.5</ele><time>2026-05-01T07:14:48.804Z</time></trkpt><trkpt lat="42.4891261" lon="14.1900106"><ele>2.25</ele><time>2026-05-01T07:14:49.823Z</time></trkpt><trkpt lat="42.4890245" lon="14.1901298"><ele>2.0</ele><time>2026-05-01T07:14:50.82Z</time></trkpt><trkpt lat="42.488919" lon="14.1902417"><ele>2.0</ele><time>2026-05-01T07:14:51.814Z</time></trkpt><trkpt lat="42.488814" lon="14.1903599"><ele>2.0</ele><time>2026-05-01T07:14:52.817Z</time></trkpt><trkpt lat="42.4886997" lon="14.1904722"><ele>2.0</ele><time>2026-05-01T07:14:53.816Z</time></trkpt><trkpt lat="42.4885894" lon="14.1905953"><ele>2.0</ele><time>2026-05-01T07:14:54.823Z</time></trkpt><trkpt lat="42.4884828" lon="14.1907158"><ele>2.75</ele><time>2026-05-01T07:14:55.812Z</time></trkpt><trkpt lat="42.48838" lon="14.190826"><ele>3.5</ele><time>2026-05-01T07:14:56.826Z</time></trkpt><trkpt lat="42.4882825" lon="14.1909324"><ele>4.25</ele><time>2026-05-01T07:14:57.821Z</time></trkpt><trkpt lat="42.4881844" lon="14.1910451"><ele>5.0</ele><time>2026-05-01T07:14:58.826Z</time></trkpt><trkpt lat="42.4880863" lon="14.1911587"><ele>5.0</ele><time>2026-05-01T07:14:59.811Z</time></trkpt><trkpt lat="42.4879849" lon="14.1912661"><ele>5.0</ele><time>2026-05-01T07:15:00.814Z</time></trkpt><trkpt lat="42.4878822" lon="14.1913705"><ele>5.0</ele><time>2026-05-01T07:15:01.819Z</time></trkpt><trkpt lat="42.4877793" lon="14.1914826"><ele>5.0</ele><time>2026-05-01T07:15:02.815Z</time></trkpt><trkpt lat="42.4876806" lon="14.1915903"><ele>5.25</ele><time>2026-05-01T07:15:03.818Z</time></trkpt><trkpt lat="42.4875863" lon="14.1916978"><ele>5.5</ele><time>2026-05-01T07:15:04.813Z</time></trkpt><trkpt lat="42.4874935" lon="14.1918007"><ele>5.75</ele><time>2026-05-01T07:15:05.814Z</time></trkpt><trkpt lat="42.4873958" lon="14.1919049"><ele>6.0</ele><time>2026-05-01T07:15:06.819Z</time></trkpt><trkpt lat="42.4872929" lon="14.1920107"><ele>6.0</ele><time>2026-05-01T07:15:07.837Z</time></trkpt><trkpt lat="42.4871916" lon="14.1921188"><ele>6.0</ele><time>2026-05-01T07:15:08.818Z</time></trkpt><trkpt lat="42.4871008" lon="14.1922231"><ele>6.0</ele><time>2026-05-01T07:15:09.809Z</time></trkpt><trkpt lat="42.4870043" lon="14.1923209"><ele>6.0</ele><time>2026-05-01T07:15:10.814Z</time></trkpt><trkpt lat="42.4869129" lon="14.1924157"><ele>5.25</ele><time>2026-05-01T07:15:11.819Z</time></trkpt><trkpt lat="42.4868213" lon="14.1925182"><ele>4.5</ele><time>2026-05-01T07:15:12.821Z</time></trkpt><trkpt lat="42.4867306" lon="14.1926167"><ele>3.75</ele><time>2026-05-01T07:15:13.824Z</time></trkpt><trkpt lat="42.4866419" lon="14.1927106"><ele>3.0</ele><time>2026-05-01T07:15:14.83Z</time></trkpt><trkpt lat="42.4865599" lon="14.1927989"><ele>3.0</ele><time>2026-05-01T07:15:15.828Z</time></trkpt><trkpt lat="42.4864727" lon="14.1928958"><ele>3.0</ele><time>2026-05-01T07:15:16.818Z</time></trkpt><trkpt lat="42.4863871" lon="14.1929839"><ele>3.0</ele><time>2026-05-01T07:15:17.817Z</time></trkpt><trkpt lat="42.4863034" lon="14.1930738"><ele>3.0</ele><time>2026-05-01T07:15:18.814Z</time></trkpt><trkpt lat="42.4862224" lon="14.193159"><ele>3.0</ele><time>2026-05-01T07:15:19.819Z</time></trkpt><trkpt lat="42.4861384" lon="14.1932398"><ele>3.2</ele><time>2026-05-01T07:15:20.817Z</time></trkpt><trkpt lat="42.4860566" lon="14.193325"><ele>3.4</ele><time>2026-05-01T07:15:21.815Z</time></trkpt><trkpt lat="42.4859728" lon="14.1934117"><ele>3.6000000000000005</ele><time>2026-05-01T07:15:22.82Z</time></trkpt><trkpt lat="42.4858883" lon="14.1934944"><ele>3.8000000000000003</ele><time>2026-05-01T07:15:23.812Z</time></trkpt><trkpt lat="42.4858082" lon="14.1935768"><ele>4.0</ele><time>2026-05-01T07:15:24.824Z</time></trkpt><trkpt lat="42.4857263" lon="14.1936636"><ele>4.0</ele><time>2026-05-01T07:15:25.819Z</time></trkpt><trkpt lat="42.4856489" lon="14.1937566"><ele>4.0</ele><time>2026-05-01T07:15:26.829Z</time></trkpt><trkpt lat="42.4855749" lon="14.1938482"><ele>4.0</ele><time>2026-05-01T07:15:27.845Z</time></trkpt><trkpt lat="42.4855005" lon="14.1939348"><ele>4.0</ele><time>2026-05-01T07:15:28.825Z</time></trkpt><trkpt lat="42.4854254" lon="14.1940234"><ele>4.0</ele><time>2026-05-01T07:15:29.823Z</time></trkpt><trkpt lat="42.4853583" lon="14.1941074"><ele>3.8000000000000003</ele><time>2026-05-01T07:15:30.829Z</time></trkpt><trkpt lat="42.4852917" lon="14.1941976"><ele>3.6000000000000005</ele><time>2026-05-01T07:15:31.827Z</time></trkpt><trkpt lat="42.4852245" lon="14.1942809"><ele>3.4</ele><time>2026-05-01T07:15:32.825Z</time></trkpt><trkpt lat="42.485156" lon="14.1943633"><ele>3.2</ele><time>2026-05-01T07:15:33.821Z</time></trkpt><trkpt lat="42.4850839" lon="14.1944513"><ele>3.0</ele><time>2026-05-01T07:15:34.822Z</time></trkpt><trkpt lat="42.4850113" lon="14.1945327"><ele>3.0</ele><time>2026-05-01T07:15:35.816Z</time></trkpt><trkpt lat="42.4849449" lon="14.1946181"><ele>3.0</ele><time>2026-05-01T07:15:36.816Z</time></trkpt><trkpt lat="42.4848795" lon="14.1947089"><ele>3.0</ele><time>2026-05-01T07:15:37.832Z</time></trkpt><trkpt lat="42.4848111" lon="14.1947998"><ele>3.0</ele><time>2026-05-01T07:15:38.823Z</time></trkpt><trkpt lat="42.4847373" lon="14.1948835"><ele>3.0</ele><time>2026-05-01T07:15:39.818Z</time></trkpt><trkpt lat="42.4846663" lon="14.1949744"><ele>2.8</ele><time>2026-05-01T07:15:40.822Z</time></trkpt><trkpt lat="42.4845949" lon="14.1950649"><ele>2.5999999999999996</ele><time>2026-05-01T07:15:41.824Z</time></trkpt><trkpt lat="42.4845233" lon="14.1951588"><ele>2.4000000000000004</ele><time>2026-05-01T07:15:42.826Z</time></trkpt><trkpt lat="42.4844547" lon="14.1952446"><ele>2.2</ele><time>2026-05-01T07:15:43.828Z</time></trkpt><trkpt lat="42.4843833" lon="14.195333"><ele>2.0</ele><time>2026-05-01T07:15:44.82Z</time></trkpt><trkpt lat="42.4843113" lon="14.1954284"><ele>2.0</ele><time>2026-05-01T07:15:45.817Z</time></trkpt><trkpt lat="42.4842413" lon="14.1955266"><ele>2.0</ele><time>2026-05-01T07:15:46.815Z</time></trkpt><trkpt lat="42.4841768" lon="14.1956237"><ele>2.0</ele><time>2026-05-01T07:15:47.826Z</time></trkpt><trkpt lat="42.4841028" lon="14.1957244"><ele>2.0</ele><time>2026-05-01T07:15:48.825Z</time></trkpt><trkpt lat="42.4840244" lon="14.1958226"><ele>2.0</ele><time>2026-05-01T07:15:49.814Z</time></trkpt><trkpt lat="42.4839517" lon="14.1959286"><ele>1.8</ele><time>2026-05-01T07:15:50.823Z</time></trkpt><trkpt lat="42.4838771" lon="14.196034"><ele>1.6</ele><time>2026-05-01T07:15:51.824Z</time></trkpt><trkpt lat="42.4838019" lon="14.1961353"><ele>1.4000000000000001</ele><time>2026-05-01T07:15:52.824Z</time></trkpt><trkpt lat="42.4837348" lon="14.1962312"><ele>1.2000000000000002</ele><time>2026-05-01T07:15:53.823Z</time></trkpt><trkpt lat="42.4836651" lon="14.1963283"><ele>1.0</ele><time>2026-05-01T07:15:54.82Z</time></trkpt><trkpt lat="42.4836034" lon="14.1964198"><ele>2.0</ele><time>2026-05-01T07:15:55.821Z</time></trkpt><trkpt lat="42.4835415" lon="14.1965102"><ele>3.0</ele><time>2026-05-01T07:15:56.821Z</time></trkpt><trkpt lat="42.4834717" lon="14.1966029"><ele>3.9999999999999996</ele><time>2026-05-01T07:15:57.828Z</time></trkpt><trkpt lat="42.483409" lon="14.1967001"><ele>5.0</ele><time>2026-05-01T07:15:58.825Z</time></trkpt><trkpt lat="42.4833455" lon="14.1967923"><ele>6.0</ele><time>2026-05-01T07:15:59.81Z</time></trkpt><trkpt lat="42.4832851" lon="14.1968896"><ele>6.0</ele><time>2026-05-01T07:16:00.819Z</time></trkpt><trkpt lat="42.4832222" lon="14.1969793"><ele>6.0</ele><time>2026-05-01T07:16:01.819Z</time></trkpt><trkpt lat="42.4831541" lon="14.1970746"><ele>6.0</ele><time>2026-05-01T07:16:02.814Z</time></trkpt><trkpt lat="42.4830874" lon="14.1971743"><ele>6.0</ele><time>2026-05-01T07:16:03.822Z</time></trkpt><trkpt lat="42.483017" lon="14.1972696"><ele>6.0</ele><time>2026-05-01T07:16:04.822Z</time></trkpt><trkpt lat="42.4829479" lon="14.1973628"><ele>6.199999999999999</ele><time>2026-05-01T07:16:05.821Z</time></trkpt><trkpt lat="42.4828821" lon="14.1974649"><ele>6.3999999999999995</ele><time>2026-05-01T07:16:06.816Z</time></trkpt><trkpt lat="42.4828122" lon="14.1975553"><ele>6.6</ele><time>2026-05-01T07:16:07.823Z</time></trkpt><trkpt lat="42.4827459" lon="14.1976562"><ele>6.8</ele><time>2026-05-01T07:16:08.811Z</time></trkpt><trkpt lat="42.4826724" lon="14.1977662"><ele>7.0</ele><time>2026-05-01T07:16:09.812Z</time></trkpt><trkpt lat="42.4826018" lon="14.1978652"><ele>7.0</ele><time>2026-05-01T07:16:10.815Z</time></trkpt><trkpt lat="42.4825319" lon="14.197969"><ele>6.999999999999999</ele><time>2026-05-01T07:16:11.818Z</time></trkpt><trkpt lat="42.4824585" lon="14.1980683"><ele>6.999999999999999</ele><time>2026-05-01T07:16:12.848Z</time></trkpt><trkpt lat="42.4823865" lon="14.1981694"><ele>7.0</ele><time>2026-05-01T07:16:13.817Z</time></trkpt><trkpt lat="42.4823144" lon="14.1982663"><ele>7.0</ele><time>2026-05-01T07:16:14.814Z</time></trkpt><trkpt lat="42.482237" lon="14.1983783"><ele>6.25</ele><time>2026-05-01T07:16:15.815Z</time></trkpt><trkpt lat="42.4821571" lon="14.1985002"><ele>5.5</ele><time>2026-05-01T07:16:16.809Z</time></trkpt><trkpt lat="42.4820711" lon="14.1986329"><ele>4.75</ele><time>2026-05-01T07:16:17.817Z</time></trkpt><trkpt lat="42.4819775" lon="14.1987623"><ele>4.0</ele><time>2026-05-01T07:16:18.802Z</time></trkpt><trkpt lat="42.481889" lon="14.1988944"><ele>5.0</ele><time>2026-05-01T07:16:19.818Z</time></trkpt><trkpt lat="42.4817899" lon="14.1990338"><ele>6.0</ele><time>2026-05-01T07:16:20.812Z</time></trkpt><trkpt lat="42.4816846" lon="14.1991827"><ele>7.0</ele><time>2026-05-01T07:16:21.825Z</time></trkpt><trkpt lat="42.4815787" lon="14.1993405"><ele>7.0</ele><time>2026-05-01T07:16:22.817Z</time></trkpt><trkpt lat="42.4814722" lon="14.1994955"><ele>7.0</ele><time>2026-05-01T07:16:23.813Z</time></trkpt><trkpt lat="42.4813691" lon="14.199648"><ele>7.0</ele><time>2026-05-01T07:16:24.805Z</time></trkpt><trkpt lat="42.4812695" lon="14.1997972"><ele>6.0</ele><time>2026-05-01T07:16:25.827Z</time></trkpt><trkpt lat="42.4811733" lon="14.1999385"><ele>5.0</ele><time>2026-05-01T07:16:26.81Z</time></trkpt><trkpt lat="42.4810772" lon="14.2000794"><ele>4.0</ele><time>2026-05-01T07:16:27.813Z</time></trkpt><trkpt lat="42.4809817" lon="14.2002213"><ele>3.0</ele><time>2026-05-01T07:16:28.816Z</time></trkpt><trkpt lat="42.4808832" lon="14.2003613"><ele>3.0</ele><time>2026-05-01T07:16:29.822Z</time></trkpt><trkpt lat="42.4807886" lon="14.2005085"><ele>3.0</ele><time>2026-05-01T07:16:30.81Z</time></trkpt><trkpt lat="42.4806912" lon="14.2006524"><ele>3.0</ele><time>2026-05-01T07:16:31.815Z</time></trkpt><trkpt lat="42.4805962" lon="14.2007855"><ele>3.0</ele><time>2026-05-01T07:16:32.818Z</time></trkpt><trkpt lat="42.4805055" lon="14.2009225"><ele>3.75</ele><time>2026-05-01T07:16:33.812Z</time></trkpt><trkpt lat="42.4804199" lon="14.2010456"><ele>4.5</ele><time>2026-05-01T07:16:34.819Z</time></trkpt><trkpt lat="42.4803344" lon="14.2011755"><ele>5.25</ele><time>2026-05-01T07:16:35.814Z</time></trkpt><trkpt lat="42.4802541" lon="14.2013018"><ele>6.0</ele><time>2026-05-01T07:16:36.851Z</time></trkpt><trkpt lat="42.480171" lon="14.201427"><ele>5.75</ele><time>2026-05-01T07:16:37.819Z</time></trkpt><trkpt lat="42.4800868" lon="14.2015459"><ele>5.5</ele><time>2026-05-01T07:16:38.811Z</time></trkpt><trkpt lat="42.4800019" lon="14.2016663"><ele>5.25</ele><time>2026-05-01T07:16:39.815Z</time></trkpt><trkpt lat="42.4799109" lon="14.2017906"><ele>5.0</ele><time>2026-05-01T07:16:40.819Z</time></trkpt><trkpt lat="42.4798182" lon="14.2019175"><ele>5.0</ele><time>2026-05-01T07:16:41.82Z</time></trkpt><trkpt lat="42.4797358" lon="14.2020407"><ele>5.0</ele><time>2026-05-01T07:16:42.817Z</time></trkpt><trkpt lat="42.4796594" lon="14.202151"><ele>5.0</ele><time>2026-05-01T07:16:43.815Z</time></trkpt><trkpt lat="42.479585" lon="14.202264"><ele>5.0</ele><time>2026-05-01T07:16:44.817Z</time></trkpt><trkpt lat="42.4795053" lon="14.2023863"><ele>4.75</ele><time>2026-05-01T07:16:45.814Z</time></trkpt><trkpt lat="42.479419" lon="14.202505"><ele>4.5</ele><time>2026-05-01T07:16:46.816Z</time></trkpt><trkpt lat="42.4793323" lon="14.2026298"><ele>4.25</ele><time>2026-05-01T07:16:47.816Z</time></trkpt><trkpt lat="42.4792496" lon="14.2027513"><ele>4.0</ele><time>2026-05-01T07:16:48.815Z</time></trkpt><trkpt lat="42.4791774" lon="14.2028652"><ele>4.0</ele><time>2026-05-01T07:16:49.82Z</time></trkpt><trkpt lat="42.4791063" lon="14.2029784"><ele>4.0</ele><time>2026-05-01T07:16:50.822Z</time></trkpt><trkpt lat="42.4790341" lon="14.2030948"><ele>4.0</ele><time>2026-05-01T07:16:51.816Z</time></trkpt><trkpt lat="42.4789516" lon="14.2032141"><ele>4.0</ele><time>2026-05-01T07:16:52.817Z</time></trkpt><trkpt lat="42.4788665" lon="14.2033337"><ele>3.5</ele><time>2026-05-01T07:16:53.822Z</time></trkpt><trkpt lat="42.4787772" lon="14.2034616"><ele>3.0</ele><time>2026-05-01T07:16:54.821Z</time></trkpt><trkpt lat="42.4786825" lon="14.2035889"><ele>2.5</ele><time>2026-05-01T07:16:55.806Z</time></trkpt><trkpt lat="42.4785891" lon="14.2037274"><ele>2.0</ele><time>2026-05-01T07:16:56.816Z</time></trkpt><trkpt lat="42.4784915" lon="14.2038714"><ele>2.5</ele><time>2026-05-01T07:16:57.818Z</time></trkpt><trkpt lat="42.4783878" lon="14.2040191"><ele>3.0</ele><time>2026-05-01T07:16:58.813Z</time></trkpt><trkpt lat="42.4782883" lon="14.2041676"><ele>3.5</ele><time>2026-05-01T07:16:59.823Z</time></trkpt><trkpt lat="42.4781892" lon="14.2043188"><ele>4.0</ele><time>2026-05-01T07:17:00.817Z</time></trkpt><trkpt lat="42.4780898" lon="14.2044688"><ele>4.0</ele><time>2026-05-01T07:17:01.815Z</time></trkpt><trkpt lat="42.4779807" lon="14.2046176"><ele>4.0</ele><time>2026-05-01T07:17:02.83Z</time></trkpt><trkpt lat="42.4778733" lon="14.2047696"><ele>4.0</ele><time>2026-05-01T07:17:03.819Z</time></trkpt><trkpt lat="42.4777734" lon="14.2049134"><ele>4.5</ele><time>2026-05-01T07:17:04.819Z</time></trkpt><trkpt lat="42.4776737" lon="14.2050459"><ele>5.0</ele><time>2026-05-01T07:17:05.82Z</time></trkpt><trkpt lat="42.4775811" lon="14.2051772"><ele>5.5</ele><time>2026-05-01T07:17:06.82Z</time></trkpt><trkpt lat="42.4774882" lon="14.2053108"><ele>6.0</ele><time>2026-05-01T07:17:07.821Z</time></trkpt><trkpt lat="42.4773973" lon="14.2054461"><ele>6.0</ele><time>2026-05-01T07:17:08.818Z</time></trkpt><trkpt lat="42.4773067" lon="14.2055872"><ele>6.0</ele><time>2026-05-01T07:17:09.821Z</time></trkpt><trkpt lat="42.4772106" lon="14.2057306"><ele>6.0</ele><time>2026-05-01T07:17:10.826Z</time></trkpt><trkpt lat="42.4771195" lon="14.2058717"><ele>6.0</ele><time>2026-05-01T07:17:11.811Z</time></trkpt><trkpt lat="42.4770375" lon="14.206004"><ele>5.75</ele><time>2026-05-01T07:17:12.811Z</time></trkpt><trkpt lat="42.4769503" lon="14.2061295"><ele>5.5</ele><time>2026-05-01T07:17:13.805Z</time></trkpt><trkpt lat="42.4768621" lon="14.2062594"><ele>5.25</ele><time>2026-05-01T07:17:14.818Z</time></trkpt><trkpt lat="42.4767691" lon="14.2063948"><ele>5.0</ele><time>2026-05-01T07:17:15.812Z</time></trkpt><trkpt lat="42.4766754" lon="14.2065302"><ele>4.0</ele><time>2026-05-01T07:17:16.82Z</time></trkpt><trkpt lat="42.4765825" lon="14.206658"><ele>3.0</ele><time>2026-05-01T07:17:17.823Z</time></trkpt><trkpt lat="42.4764887" lon="14.2067922"><ele>2.0</ele><time>2026-05-01T07:17:18.818Z</time></trkpt><trkpt lat="42.4763978" lon="14.2069255"><ele>1.0</ele><time>2026-05-01T07:17:19.814Z</time></trkpt><trkpt lat="42.4763087" lon="14.207056"><ele>1.75</ele><time>2026-05-01T07:17:20.82Z</time></trkpt><trkpt lat="42.4762199" lon="14.2071865"><ele>2.5</ele><time>2026-05-01T07:17:21.813Z</time></trkpt><trkpt lat="42.4761277" lon="14.2073107"><ele>3.25</ele><time>2026-05-01T07:17:22.814Z</time></trkpt><trkpt lat="42.4760407" lon="14.2074338"><ele>4.0</ele><time>2026-05-01T07:17:23.834Z</time></trkpt><trkpt lat="42.4759595" lon="14.2075607"><ele>4.0</ele><time>2026-05-01T07:17:24.813Z</time></trkpt><trkpt lat="42.4758818" lon="14.2076795"><ele>4.0</ele><time>2026-05-01T07:17:25.819Z</time></trkpt><trkpt lat="42.4757987" lon="14.2077979"><ele>4.0</ele><time>2026-05-01T07:17:26.813Z</time></trkpt><trkpt lat="42.4757128" lon="14.2079176"><ele>4.0</ele><time>2026-05-01T07:17:27.81Z</time></trkpt><trkpt lat="42.4756275" lon="14.2080344"><ele>4.0</ele><time>2026-05-01T07:17:28.81Z</time></trkpt><trkpt lat="42.4755442" lon="14.2081554"><ele>4.0</ele><time>2026-05-01T07:17:29.806Z</time></trkpt><trkpt lat="42.4754633" lon="14.2082731"><ele>4.0</ele><time>2026-05-01T07:17:30.817Z</time></trkpt><trkpt lat="42.4753891" lon="14.2083907"><ele>4.0</ele><time>2026-05-01T07:17:31.846Z</time></trkpt><trkpt lat="42.4753152" lon="14.2085063"><ele>4.25</ele><time>2026-05-01T07:17:32.809Z</time></trkpt><trkpt lat="42.4752415" lon="14.2086216"><ele>4.5</ele><time>2026-05-01T07:17:33.814Z</time></trkpt><trkpt lat="42.4751678" lon="14.2087393"><ele>4.75</ele><time>2026-05-01T07:17:34.814Z</time></trkpt><trkpt lat="42.4750906" lon="14.2088531"><ele>5.0</ele><time>2026-05-01T07:17:35.809Z</time></trkpt><trkpt lat="42.4750105" lon="14.2089726"><ele>3.75</ele><time>2026-05-01T07:17:36.822Z</time></trkpt><trkpt lat="42.4749262" lon="14.2090943"><ele>2.5</ele><time>2026-05-01T07:17:37.814Z</time></trkpt><trkpt lat="42.4748413" lon="14.2092095"><ele>1.25</ele><time>2026-05-01T07:17:38.813Z</time></trkpt><trkpt lat="42.4747604" lon="14.2093286"><ele>0.0</ele><time>2026-05-01T07:17:39.818Z</time></trkpt><trkpt lat="42.4746811" lon="14.2094455"><ele>0.5</ele><time>2026-05-01T07:17:40.811Z</time></trkpt><trkpt lat="42.4746007" lon="14.2095588"><ele>1.0</ele><time>2026-05-01T07:17:41.819Z</time></trkpt><trkpt lat="42.4745197" lon="14.2096738"><ele>1.5</ele><time>2026-05-01T07:17:42.811Z</time></trkpt><trkpt lat="42.4744338" lon="14.2097904"><ele>2.0</ele><time>2026-05-01T07:17:43.823Z</time></trkpt><trkpt lat="42.4743542" lon="14.2099063"><ele>2.0</ele><time>2026-05-01T07:17:44.815Z</time></trkpt><trkpt lat="42.4742809" lon="14.2100166"><ele>2.0</ele><time>2026-05-01T07:17:45.815Z</time></trkpt><trkpt lat="42.4742071" lon="14.2101301"><ele>2.0</ele><time>2026-05-01T07:17:46.816Z</time></trkpt><trkpt lat="42.4741243" lon="14.21024"><ele>2.0</ele><time>2026-05-01T07:17:47.826Z</time></trkpt><trkpt lat="42.4740464" lon="14.2103577"><ele>2.0</ele><time>2026-05-01T07:17:48.822Z</time></trkpt><trkpt lat="42.4739694" lon="14.21047"><ele>2.0</ele><time>2026-05-01T07:17:49.812Z</time></trkpt><trkpt lat="42.473894" lon="14.2105783"><ele>2.0</ele><time>2026-05-01T07:17:50.811Z</time></trkpt><trkpt lat="42.4738285" lon="14.2106816"><ele>2.0</ele><time>2026-05-01T07:17:51.815Z</time></trkpt><trkpt lat="42.4737707" lon="14.210775"><ele>2.0</ele><time>2026-05-01T07:17:52.811Z</time></trkpt><trkpt lat="42.4737152" lon="14.2108578"><ele>2.5</ele><time>2026-05-01T07:17:53.813Z</time></trkpt><trkpt lat="42.4736616" lon="14.2109364"><ele>3.0</ele><time>2026-05-01T07:17:54.815Z</time></trkpt><trkpt lat="42.4736091" lon="14.2110268"><ele>3.5</ele><time>2026-05-01T07:17:55.81Z</time></trkpt><trkpt lat="42.4735563" lon="14.2111153"><ele>4.0</ele><time>2026-05-01T07:17:56.817Z</time></trkpt><trkpt lat="42.4735036" lon="14.2112011"><ele>4.5</ele><time>2026-05-01T07:17:57.818Z</time></trkpt><trkpt lat="42.4734551" lon="14.2112855"><ele>5.0</ele><time>2026-05-01T07:17:58.812Z</time></trkpt><trkpt lat="42.4734117" lon="14.2113649"><ele>5.0</ele><time>2026-05-01T07:17:59.838Z</time></trkpt><trkpt lat="42.4733669" lon="14.211428"><ele>5.0</ele><time>2026-05-01T07:18:00.81Z</time></trkpt><trkpt lat="42.4733111" lon="14.2114955"><ele>5.0</ele><time>2026-05-01T07:18:01.821Z</time></trkpt><trkpt lat="42.4732567" lon="14.2115819"><ele>5.0</ele><time>2026-05-01T07:18:02.815Z</time></trkpt><trkpt lat="42.473198" lon="14.2116798"><ele>5.0</ele><time>2026-05-01T07:18:03.825Z</time></trkpt><trkpt lat="42.4731424" lon="14.2117869"><ele>5.0</ele><time>2026-05-01T07:18:04.81Z</time></trkpt><trkpt lat="42.4730795" lon="14.2118995"><ele>5.0</ele><time>2026-05-01T07:18:05.815Z</time></trkpt><trkpt lat="42.4730122" lon="14.2120156"><ele>5.0</ele><time>2026-05-01T07:18:06.821Z</time></trkpt><trkpt lat="42.4729383" lon="14.2121368"><ele>5.0</ele><time>2026-05-01T07:18:07.817Z</time></trkpt><trkpt lat="42.4728639" lon="14.2122627"><ele>5.0</ele><time>2026-05-01T07:18:08.815Z</time></trkpt><trkpt lat="42.4727926" lon="14.2123856"><ele>4.6</ele><time>2026-05-01T07:18:09.825Z</time></trkpt><trkpt lat="42.4727237" lon="14.2125044"><ele>4.2</ele><time>2026-05-01T07:18:10.821Z</time></trkpt><trkpt lat="42.4726568" lon="14.2126136"><ele>3.8</ele><time>2026-05-01T07:18:11.816Z</time></trkpt><trkpt lat="42.4725916" lon="14.2127252"><ele>3.4</ele><time>2026-05-01T07:18:12.815Z</time></trkpt><trkpt lat="42.4725229" lon="14.2128401"><ele>3.0</ele><time>2026-05-01T07:18:13.819Z</time></trkpt><trkpt lat="42.4724509" lon="14.2129583"><ele>3.0</ele><time>2026-05-01T07:18:14.817Z</time></trkpt><trkpt lat="42.4723792" lon="14.2130778"><ele>3.0</ele><time>2026-05-01T07:18:15.814Z</time></trkpt><trkpt lat="42.472311" lon="14.2131943"><ele>3.0</ele><time>2026-05-01T07:18:16.813Z</time></trkpt><trkpt lat="42.4722465" lon="14.2133038"><ele>3.0</ele><time>2026-05-01T07:18:17.813Z</time></trkpt><trkpt lat="42.4721805" lon="14.2134127"><ele>3.0</ele><time>2026-05-01T07:18:18.813Z</time></trkpt><trkpt lat="42.4721116" lon="14.2135349"><ele>3.75</ele><time>2026-05-01T07:18:19.815Z</time></trkpt><trkpt lat="42.4720421" lon="14.2136601"><ele>4.5</ele><time>2026-05-01T07:18:20.814Z</time></trkpt><trkpt lat="42.4719665" lon="14.2137887"><ele>5.25</ele><time>2026-05-01T07:18:21.817Z</time></trkpt><trkpt lat="42.4718867" lon="14.2139303"><ele>6.0</ele><time>2026-05-01T07:18:22.814Z</time></trkpt><trkpt lat="42.471798" lon="14.2140762"><ele>6.0</ele><time>2026-05-01T07:18:23.814Z</time></trkpt><trkpt lat="42.4717111" lon="14.2142246"><ele>6.0</ele><time>2026-05-01T07:18:24.81Z</time></trkpt><trkpt lat="42.4716371" lon="14.2143689"><ele>6.0</ele><time>2026-05-01T07:18:25.813Z</time></trkpt><trkpt lat="42.4715652" lon="14.214497"><ele>6.0</ele><time>2026-05-01T07:18:26.82Z</time></trkpt><trkpt lat="42.4714945" lon="14.214619"><ele>6.0</ele><time>2026-05-01T07:18:27.811Z</time></trkpt><trkpt lat="42.4714237" lon="14.2147444"><ele>6.0</ele><time>2026-05-01T07:18:28.816Z</time></trkpt><trkpt lat="42.4713537" lon="14.2148599"><ele>6.0</ele><time>2026-05-01T07:18:29.809Z</time></trkpt><trkpt lat="42.4712867" lon="14.2149742"><ele>6.0</ele><time>2026-05-01T07:18:30.819Z</time></trkpt><trkpt lat="42.4712193" lon="14.2150839"><ele>6.0</ele><time>2026-05-01T07:18:31.819Z</time></trkpt><trkpt lat="42.4711522" lon="14.2151933"><ele>6.0</ele><time>2026-05-01T07:18:32.818Z</time></trkpt><trkpt lat="42.4710851" lon="14.2153043"><ele>6.0</ele><time>2026-05-01T07:18:33.825Z</time></trkpt><trkpt lat="42.4710158" lon="14.2154154"><ele>6.0</ele><time>2026-05-01T07:18:34.818Z</time></trkpt><trkpt lat="42.4709428" lon="14.2155339"><ele>6.0</ele><time>2026-05-01T07:18:35.818Z</time></trkpt><trkpt lat="42.4708744" lon="14.2156501"><ele>6.0</ele><time>2026-05-01T07:18:36.821Z</time></trkpt><trkpt lat="42.4708067" lon="14.2157597"><ele>6.4</ele><time>2026-05-01T07:18:37.853Z</time></trkpt><trkpt lat="42.4707428" lon="14.2158711"><ele>6.8</ele><time>2026-05-01T07:18:38.814Z</time></trkpt><trkpt lat="42.4706839" lon="14.2159769"><ele>7.200000000000001</ele><time>2026-05-01T07:18:39.815Z</time></trkpt><trkpt lat="42.4706253" lon="14.2160776"><ele>7.6000000000000005</ele><time>2026-05-01T07:18:40.811Z</time></trkpt><trkpt lat="42.4705702" lon="14.2161779"><ele>8.0</ele><time>2026-05-01T07:18:41.812Z</time></trkpt><trkpt lat="42.4705124" lon="14.2162779"><ele>8.0</ele><time>2026-05-01T07:18:42.822Z</time></trkpt><trkpt lat="42.470454" lon="14.2163839"><ele>8.0</ele><time>2026-05-01T07:18:43.81Z</time></trkpt><trkpt lat="42.4703851" lon="14.2164985"><ele>8.0</ele><time>2026-05-01T07:18:44.827Z</time></trkpt><trkpt lat="42.4703167" lon="14.2166086"><ele>8.0</ele><time>2026-05-01T07:18:45.813Z</time></trkpt><trkpt lat="42.470248" lon="14.2167248"><ele>8.0</ele><time>2026-05-01T07:18:46.826Z</time></trkpt><trkpt lat="42.4701812" lon="14.216843"><ele>7.2</ele><time>2026-05-01T07:18:47.82Z</time></trkpt><trkpt lat="42.4701125" lon="14.2169603"><ele>6.4</ele><time>2026-05-01T07:18:48.83Z</time></trkpt><trkpt lat="42.4700465" lon="14.2170677"><ele>5.6000000000000005</ele><time>2026-05-01T07:18:49.82Z</time></trkpt><trkpt lat="42.4699962" lon="14.2171614"><ele>4.800000000000001</ele><time>2026-05-01T07:18:50.809Z</time></trkpt><trkpt lat="42.4699425" lon="14.2172428"><ele>4.0</ele><time>2026-05-01T07:18:51.817Z</time></trkpt><trkpt lat="42.4698874" lon="14.2173297"><ele>3.9999999999999996</ele><time>2026-05-01T07:18:52.811Z</time></trkpt><trkpt lat="42.4698345" lon="14.2174105"><ele>4.0</ele><time>2026-05-01T07:18:53.816Z</time></trkpt><trkpt lat="42.4697819" lon="14.2174934"><ele>4.0</ele><time>2026-05-01T07:18:54.816Z</time></trkpt><trkpt lat="42.4697326" lon="14.2175745"><ele>4.0</ele><time>2026-05-01T07:18:55.845Z</time></trkpt><trkpt lat="42.4696915" lon="14.2176567"><ele>3.9999999999999996</ele><time>2026-05-01T07:18:56.816Z</time></trkpt><trkpt lat="42.4696456" lon="14.2177382"><ele>4.0</ele><time>2026-05-01T07:18:57.811Z</time></trkpt><trkpt lat="42.4695994" lon="14.2178201"><ele>3.9999999999999996</ele><time>2026-05-01T07:18:58.815Z</time></trkpt><trkpt lat="42.469558" lon="14.2178995"><ele>4.0</ele><time>2026-05-01T07:18:59.822Z</time></trkpt><trkpt lat="42.4695115" lon="14.2179781"><ele>4.0</ele><time>2026-05-01T07:19:00.816Z</time></trkpt><trkpt lat="42.4694614" lon="14.2180632"><ele>4.0</ele><time>2026-05-01T07:19:01.854Z</time></trkpt><trkpt lat="42.4694182" lon="14.2181503"><ele>3.9999999999999996</ele><time>2026-05-01T07:19:02.813Z</time></trkpt><trkpt lat="42.4693721" lon="14.2182349"><ele>4.0</ele><time>2026-05-01T07:19:03.814Z</time></trkpt><trkpt lat="42.4693228" lon="14.2183142"><ele>3.9999999999999996</ele><time>2026-05-01T07:19:04.823Z</time></trkpt><trkpt lat="42.4692724" lon="14.2183931"><ele>4.0</ele><time>2026-05-01T07:19:05.819Z</time></trkpt><trkpt lat="42.4692236" lon="14.2184772"><ele>4.0</ele><time>2026-05-01T07:19:06.834Z</time></trkpt><trkpt lat="42.46917" lon="14.2185587"><ele>4.0</ele><time>2026-05-01T07:19:07.814Z</time></trkpt><trkpt lat="42.4691196" lon="14.2186439"><ele>3.9999999999999996</ele><time>2026-05-01T07:19:08.821Z</time></trkpt><trkpt lat="42.4690705" lon="14.2187267"><ele>4.0</ele><time>2026-05-01T07:19:09.816Z</time></trkpt><trkpt lat="42.4690156" lon="14.218817"><ele>3.9999999999999996</ele><time>2026-05-01T07:19:10.808Z</time></trkpt><trkpt lat="42.468965" lon="14.2189078"><ele>4.0</ele><time>2026-05-01T07:19:11.833Z</time></trkpt><trkpt lat="42.4689136" lon="14.2189954"><ele>4.0</ele><time>2026-05-01T07:19:12.808Z</time></trkpt><trkpt lat="42.4688622" lon="14.2190843"><ele>4.0</ele><time>2026-05-01T07:19:13.818Z</time></trkpt><trkpt lat="42.4688098" lon="14.2191651"><ele>3.9999999999999996</ele><time>2026-05-01T07:19:14.812Z</time></trkpt><trkpt lat="42.468756" lon="14.2192537"><ele>4.0</ele><time>2026-05-01T07:19:15.826Z</time></trkpt><trkpt lat="42.4687067" lon="14.2193443"><ele>4.166666666666666</ele><time>2026-05-01T07:19:16.811Z</time></trkpt><trkpt lat="42.4686564" lon="14.2194375"><ele>4.333333333333333</ele><time>2026-05-01T07:19:17.809Z</time></trkpt><trkpt lat="42.4686086" lon="14.2195246"><ele>4.5</ele><time>2026-05-01T07:19:18.809Z</time></trkpt><trkpt lat="42.4685581" lon="14.2196099"><ele>4.666666666666667</ele><time>2026-05-01T07:19:19.813Z</time></trkpt><trkpt lat="42.4685152" lon="14.2196958"><ele>4.833333333333334</ele><time>2026-05-01T07:19:20.817Z</time></trkpt><trkpt lat="42.4684684" lon="14.2197812"><ele>5.0</ele><time>2026-05-01T07:19:21.818Z</time></trkpt><trkpt lat="42.468422" lon="14.2198654"><ele>4.666666666666667</ele><time>2026-05-01T07:19:22.86Z</time></trkpt><trkpt lat="42.4683737" lon="14.2199452"><ele>4.333333333333334</ele><time>2026-05-01T07:19:23.823Z</time></trkpt><trkpt lat="42.4683233" lon="14.2200283"><ele>4.0</ele><time>2026-05-01T07:19:24.806Z</time></trkpt><trkpt lat="42.4682767" lon="14.2201099"><ele>3.666666666666667</ele><time>2026-05-01T07:19:25.82Z</time></trkpt><trkpt lat="42.4682262" lon="14.2201894"><ele>3.3333333333333335</ele><time>2026-05-01T07:19:26.813Z</time></trkpt><trkpt lat="42.4681818" lon="14.2202715"><ele>3.0</ele><time>2026-05-01T07:19:27.816Z</time></trkpt><trkpt lat="42.468134" lon="14.2203495"><ele>3.0</ele><time>2026-05-01T07:19:28.808Z</time></trkpt><trkpt lat="42.468091" lon="14.2204321"><ele>3.0</ele><time>2026-05-01T07:19:29.812Z</time></trkpt><trkpt lat="42.4680479" lon="14.2205137"><ele>3.0</ele><time>2026-05-01T07:19:30.81Z</time></trkpt><trkpt lat="42.4680039" lon="14.2205959"><ele>3.0</ele><time>2026-05-01T07:19:31.809Z</time></trkpt><trkpt lat="42.4679542" lon="14.2206752"><ele>3.0</ele><time>2026-05-01T07:19:32.806Z</time></trkpt><trkpt lat="42.4679051" lon="14.2207545"><ele>3.0</ele><time>2026-05-01T07:19:33.813Z</time></trkpt><trkpt lat="42.4678553" lon="14.2208301"><ele>2.8333333333333335</ele><time>2026-05-01T07:19:34.808Z</time></trkpt><trkpt lat="42.4678071" lon="14.22091"><ele>2.6666666666666665</ele><time>2026-05-01T07:19:35.851Z</time></trkpt><trkpt lat="42.4677647" lon="14.2209899"><ele>2.5</ele><time>2026-05-01T07:19:36.807Z</time></trkpt><trkpt lat="42.4677237" lon="14.2210618"><ele>2.333333333333333</ele><time>2026-05-01T07:19:37.811Z</time></trkpt><trkpt lat="42.4676551" lon="14.2211674"><ele>2.1666666666666665</ele><time>2026-05-01T07:19:39.812Z</time></trkpt><trkpt lat="42.4675897" lon="14.2212737"><ele>2.0</ele><time>2026-05-01T07:19:41.808Z</time></trkpt><trkpt lat="42.4675218" lon="14.2214046"><ele>1.9999999999999998</ele><time>2026-05-01T07:19:43.81Z</time></trkpt><trkpt lat="42.4674759" lon="14.2214754"><ele>2.0</ele><time>2026-05-01T07:19:44.816Z</time></trkpt><trkpt lat="42.4674292" lon="14.2215537"><ele>2.0</ele><time>2026-05-01T07:19:45.813Z</time></trkpt><trkpt lat="42.4673813" lon="14.2216347"><ele>2.0</ele><time>2026-05-01T07:19:46.831Z</time></trkpt><trkpt lat="42.4673302" lon="14.2217273"><ele>1.9999999999999998</ele><time>2026-05-01T07:19:47.815Z</time></trkpt><trkpt lat="42.4672729" lon="14.2218183"><ele>2.0</ele><time>2026-05-01T07:19:48.807Z</time></trkpt><trkpt lat="42.4672069" lon="14.2219091"><ele>1.8</ele><time>2026-05-01T07:19:49.805Z</time></trkpt><trkpt lat="42.4671364" lon="14.221992"><ele>1.6</ele><time>2026-05-01T07:19:50.816Z</time></trkpt><trkpt lat="42.4670555" lon="14.2220585"><ele>1.4000000000000001</ele><time>2026-05-01T07:19:51.82Z</time></trkpt><trkpt lat="42.4669587" lon="14.2220997"><ele>1.2000000000000002</ele><time>2026-05-01T07:19:52.822Z</time></trkpt><trkpt lat="42.4668538" lon="14.2221092"><ele>1.0</ele><time>2026-05-01T07:19:53.823Z</time></trkpt><trkpt lat="42.4667446" lon="14.2220851"><ele>1.75</ele><time>2026-05-01T07:19:54.822Z</time></trkpt><trkpt lat="42.4666356" lon="14.2220407"><ele>2.5</ele><time>2026-05-01T07:19:55.817Z</time></trkpt><trkpt lat="42.466528" lon="14.2219807"><ele>3.25</ele><time>2026-05-01T07:19:56.812Z</time></trkpt><trkpt lat="42.4664238" lon="14.2219064"><ele>4.0</ele><time>2026-05-01T07:19:57.811Z</time></trkpt><trkpt lat="42.4663204" lon="14.2218255"><ele>3.75</ele><time>2026-05-01T07:19:58.816Z</time></trkpt><trkpt lat="42.4662159" lon="14.2217422"><ele>3.5</ele><time>2026-05-01T07:19:59.811Z</time></trkpt><trkpt lat="42.4661084" lon="14.2216517"><ele>3.25</ele><time>2026-05-01T07:20:00.818Z</time></trkpt><trkpt lat="42.4660055" lon="14.2215445"><ele>3.0</ele><time>2026-05-01T07:20:01.808Z</time></trkpt><trkpt lat="42.4659167" lon="14.2214099"><ele>4.0</ele><time>2026-05-01T07:20:02.818Z</time></trkpt><trkpt lat="42.465851" lon="14.2212481"><ele>5.0</ele><time>2026-05-01T07:20:03.819Z</time></trkpt><trkpt lat="42.4658052" lon="14.2210725"><ele>6.0</ele><time>2026-05-01T07:20:04.812Z</time></trkpt><trkpt lat="42.4657654" lon="14.2208949"><ele>7.0</ele><time>2026-05-01T07:20:05.821Z</time></trkpt><trkpt lat="42.4657198" lon="14.2207185"><ele>8.5</ele><time>2026-05-01T07:20:06.815Z</time></trkpt><trkpt lat="42.4656739" lon="14.2205372"><ele>10.0</ele><time>2026-05-01T07:20:07.819Z</time></trkpt><trkpt lat="42.4656311" lon="14.2203595"><ele>11.5</ele><time>2026-05-01T07:20:08.827Z</time></trkpt><trkpt lat="42.4655895" lon="14.2201826"><ele>13.0</ele><time>2026-05-01T07:20:09.82Z</time></trkpt><trkpt lat="42.4655448" lon="14.2200032"><ele>13.0</ele><time>2026-05-01T07:20:10.819Z</time></trkpt><trkpt lat="42.4655004" lon="14.219824"><ele>13.0</ele><time>2026-05-01T07:20:11.82Z</time></trkpt><trkpt lat="42.4654533" lon="14.2196459"><ele>13.0</ele><time>2026-05-01T07:20:12.812Z</time></trkpt><trkpt lat="42.4654147" lon="14.2194862"><ele>13.0</ele><time>2026-05-01T07:20:13.817Z</time></trkpt><trkpt lat="42.4653751" lon="14.219339"><ele>11.200000000000001</ele><time>2026-05-01T07:20:14.814Z</time></trkpt><trkpt lat="42.4653409" lon="14.2192007"><ele>9.4</ele><time>2026-05-01T07:20:15.812Z</time></trkpt><trkpt lat="42.465308" lon="14.2190716"><ele>7.6000000000000005</ele><time>2026-05-01T07:20:16.803Z</time></trkpt><trkpt lat="42.4652888" lon="14.2189505"><ele>5.800000000000001</ele><time>2026-05-01T07:20:17.802Z</time></trkpt><trkpt lat="42.4652719" lon="14.2188396"><ele>4.0</ele><time>2026-05-01T07:20:18.812Z</time></trkpt><trkpt lat="42.4652546" lon="14.2187373"><ele>3.833333333333333</ele><time>2026-05-01T07:20:19.809Z</time></trkpt><trkpt lat="42.4652321" lon="14.218646"><ele>3.6666666666666665</ele><time>2026-05-01T07:20:20.804Z</time></trkpt><trkpt lat="42.4651512" lon="14.2185708"><ele>3.5</ele><time>2026-05-01T07:20:22.809Z</time></trkpt><trkpt lat="42.4650919" lon="14.2186043"><ele>3.333333333333333</ele><time>2026-05-01T07:20:23.811Z</time></trkpt><trkpt lat="42.4649821" lon="14.2185803"><ele>3.1666666666666665</ele><time>2026-05-01T07:20:25.817Z</time></trkpt><trkpt lat="42.4649275" lon="14.218486"><ele>3.0</ele><time>2026-05-01T07:20:26.806Z</time></trkpt><trkpt lat="42.4648931" lon="14.2183555"><ele>3.0</ele><time>2026-05-01T07:20:27.819Z</time></trkpt><trkpt lat="42.4648534" lon="14.2182218"><ele>3.0</ele><time>2026-05-01T07:20:28.811Z</time></trkpt><trkpt lat="42.464817" lon="14.2180785"><ele>3.0</ele><time>2026-05-01T07:20:29.814Z</time></trkpt><trkpt lat="42.4647766" lon="14.2179291"><ele>3.0</ele><time>2026-05-01T07:20:30.81Z</time></trkpt><trkpt lat="42.4647371" lon="14.2177685"><ele>3.25</ele><time>2026-05-01T07:20:31.815Z</time></trkpt><trkpt lat="42.4646975" lon="14.2176081"><ele>3.5</ele><time>2026-05-01T07:20:32.813Z</time></trkpt><trkpt lat="42.4646581" lon="14.2174419"><ele>3.75</ele><time>2026-05-01T07:20:33.81Z</time></trkpt><trkpt lat="42.464621" lon="14.2172968"><ele>4.0</ele><time>2026-05-01T07:20:34.808Z</time></trkpt><trkpt lat="42.4645869" lon="14.2171693"><ele>4.0</ele><time>2026-05-01T07:20:35.817Z</time></trkpt><trkpt lat="42.4645532" lon="14.2170448"><ele>4.0</ele><time>2026-05-01T07:20:36.808Z</time></trkpt><trkpt lat="42.4645112" lon="14.2169289"><ele>4.0</ele><time>2026-05-01T07:20:37.815Z</time></trkpt><trkpt lat="42.4644649" lon="14.2168175"><ele>4.0</ele><time>2026-05-01T07:20:38.809Z</time></trkpt><trkpt lat="42.464406" lon="14.2167025"><ele>4.0</ele><time>2026-05-01T07:20:39.812Z</time></trkpt><trkpt lat="42.464352" lon="14.2165842"><ele>4.0</ele><time>2026-05-01T07:20:40.819Z</time></trkpt><trkpt lat="42.4643045" lon="14.2164626"><ele>4.0</ele><time>2026-05-01T07:20:41.82Z</time></trkpt><trkpt lat="42.4642563" lon="14.216335"><ele>4.0</ele><time>2026-05-01T07:20:42.826Z</time></trkpt><trkpt lat="42.4642055" lon="14.2162076"><ele>4.0</ele><time>2026-05-01T07:20:43.824Z</time></trkpt><trkpt lat="42.4641612" lon="14.2160754"><ele>4.0</ele><time>2026-05-01T07:20:44.812Z</time></trkpt><trkpt lat="42.4641106" lon="14.2159297"><ele>4.0</ele><time>2026-05-01T07:20:45.818Z</time></trkpt><trkpt lat="42.46406" lon="14.2157893"><ele>4.0</ele><time>2026-05-01T07:20:46.815Z</time></trkpt><trkpt lat="42.4640137" lon="14.2156495"><ele>4.0</ele><time>2026-05-01T07:20:47.811Z</time></trkpt><trkpt lat="42.4639578" lon="14.2155062"><ele>4.0</ele><time>2026-05-01T07:20:48.82Z</time></trkpt><trkpt lat="42.4639056" lon="14.2153651"><ele>4.75</ele><time>2026-05-01T07:20:49.818Z</time></trkpt><trkpt lat="42.4638578" lon="14.2152203"><ele>5.5</ele><time>2026-05-01T07:20:50.823Z</time></trkpt><trkpt lat="42.4638042" lon="14.2150776"><ele>6.25</ele><time>2026-05-01T07:20:51.82Z</time></trkpt><trkpt lat="42.4637512" lon="14.2149365"><ele>7.0</ele><time>2026-05-01T07:20:52.823Z</time></trkpt><trkpt lat="42.4636978" lon="14.2148043"><ele>7.5</ele><time>2026-05-01T07:20:53.809Z</time></trkpt><trkpt lat="42.4636445" lon="14.2146719"><ele>8.0</ele><time>2026-05-01T07:20:54.807Z</time></trkpt><trkpt lat="42.4635895" lon="14.2145337"><ele>8.5</ele><time>2026-05-01T07:20:55.82Z</time></trkpt><trkpt lat="42.4635339" lon="14.2143896"><ele>9.0</ele><time>2026-05-01T07:20:56.81Z</time></trkpt><trkpt lat="42.4634684" lon="14.2142465"><ele>9.0</ele><time>2026-05-01T07:20:57.823Z</time></trkpt><trkpt lat="42.4633992" lon="14.2141008"><ele>9.0</ele><time>2026-05-01T07:20:58.809Z</time></trkpt><trkpt lat="42.4633335" lon="14.2139343"><ele>9.0</ele><time>2026-05-01T07:20:59.818Z</time></trkpt><trkpt lat="42.4632757" lon="14.2137993"><ele>9.0</ele><time>2026-05-01T07:21:00.811Z</time></trkpt><trkpt lat="42.4632069" lon="14.2136516"><ele>8.75</ele><time>2026-05-01T07:21:01.816Z</time></trkpt><trkpt lat="42.4631468" lon="14.2134978"><ele>8.5</ele><time>2026-05-01T07:21:02.815Z</time></trkpt><trkpt lat="42.4630829" lon="14.2133428"><ele>8.25</ele><time>2026-05-01T07:21:03.827Z</time></trkpt><trkpt lat="42.4630169" lon="14.2131986"><ele>8.0</ele><time>2026-05-01T07:21:04.822Z</time></trkpt><trkpt lat="42.4629521" lon="14.2130482"><ele>7.75</ele><time>2026-05-01T07:21:05.818Z</time></trkpt><trkpt lat="42.462884" lon="14.2128982"><ele>7.5</ele><time>2026-05-01T07:21:06.852Z</time></trkpt><trkpt lat="42.4628182" lon="14.2127497"><ele>7.25</ele><time>2026-05-01T07:21:07.81Z</time></trkpt><trkpt lat="42.462751" lon="14.2125998"><ele>7.0</ele><time>2026-05-01T07:21:08.823Z</time></trkpt><trkpt lat="42.4626841" lon="14.2124461"><ele>6.25</ele><time>2026-05-01T07:21:09.812Z</time></trkpt><trkpt lat="42.4626142" lon="14.2122962"><ele>5.5</ele><time>2026-05-01T07:21:10.822Z</time></trkpt><trkpt lat="42.4625463" lon="14.2121529"><ele>4.75</ele><time>2026-05-01T07:21:11.817Z</time></trkpt><trkpt lat="42.4624767" lon="14.2120016"><ele>4.0</ele><time>2026-05-01T07:21:12.817Z</time></trkpt><trkpt lat="42.4624066" lon="14.2118561"><ele>4.0</ele><time>2026-05-01T07:21:13.812Z</time></trkpt><trkpt lat="42.4623385" lon="14.2117094"><ele>4.0</ele><time>2026-05-01T07:21:14.817Z</time></trkpt><trkpt lat="42.4622698" lon="14.2115574"><ele>4.0</ele><time>2026-05-01T07:21:15.812Z</time></trkpt><trkpt lat="42.462203" lon="14.2114083"><ele>4.0</ele><time>2026-05-01T07:21:16.815Z</time></trkpt><trkpt lat="42.462138" lon="14.2112562"><ele>4.25</ele><time>2026-05-01T07:21:17.818Z</time></trkpt><trkpt lat="42.4620728" lon="14.211105"><ele>4.5</ele><time>2026-05-01T07:21:18.817Z</time></trkpt><trkpt lat="42.4620077" lon="14.2109565"><ele>4.75</ele><time>2026-05-01T07:21:19.862Z</time></trkpt><trkpt lat="42.461953" lon="14.2108051"><ele>5.0</ele><time>2026-05-01T07:21:20.819Z</time></trkpt><trkpt lat="42.4619012" lon="14.2106611"><ele>4.8</ele><time>2026-05-01T07:21:21.821Z</time></trkpt><trkpt lat="42.4618648" lon="14.2105364"><ele>4.6</ele><time>2026-05-01T07:21:22.817Z</time></trkpt><trkpt lat="42.4618251" lon="14.2104059"><ele>4.4</ele><time>2026-05-01T07:21:23.818Z</time></trkpt><trkpt lat="42.4617928" lon="14.2102662"><ele>4.2</ele><time>2026-05-01T07:21:24.817Z</time></trkpt><trkpt lat="42.4617835" lon="14.2101321"><ele>4.0</ele><time>2026-05-01T07:21:25.809Z</time></trkpt><trkpt lat="42.4617768" lon="14.2099777"><ele>4.2</ele><time>2026-05-01T07:21:26.819Z</time></trkpt><trkpt lat="42.4617807" lon="14.2098249"><ele>4.4</ele><time>2026-05-01T07:21:27.822Z</time></trkpt><trkpt lat="42.461779" lon="14.2096653"><ele>4.6</ele><time>2026-05-01T07:21:28.813Z</time></trkpt><trkpt lat="42.4617957" lon="14.209556"><ele>4.8</ele><time>2026-05-01T07:21:29.815Z</time></trkpt><trkpt lat="42.4618523" lon="14.2094882"><ele>5.0</ele><time>2026-05-01T07:21:30.819Z</time></trkpt><trkpt lat="42.4619214" lon="14.2094162"><ele>5.0</ele><time>2026-05-01T07:21:31.81Z</time></trkpt><trkpt lat="42.4619765" lon="14.2093172"><ele>5.0</ele><time>2026-05-01T07:21:32.823Z</time></trkpt><trkpt lat="42.4620174" lon="14.2092056"><ele>5.0</ele><time>2026-05-01T07:21:33.817Z</time></trkpt><trkpt lat="42.4620419" lon="14.2090819"><ele>5.0</ele><time>2026-05-01T07:21:34.826Z</time></trkpt><trkpt lat="42.4620657" lon="14.2089658"><ele>5.0</ele><time>2026-05-01T07:21:35.822Z</time></trkpt><trkpt lat="42.4620975" lon="14.2088636"><ele>5.0</ele><time>2026-05-01T07:21:36.812Z</time></trkpt><trkpt lat="42.4621306" lon="14.2087834"><ele>4.666666666666667</ele><time>2026-05-01T07:21:37.814Z</time></trkpt><trkpt lat="42.4621928" lon="14.2086544"><ele>4.333333333333334</ele><time>2026-05-01T07:21:39.816Z</time></trkpt><trkpt lat="42.4622515" lon="14.2085582"><ele>4.0</ele><time>2026-05-01T07:21:41.82Z</time></trkpt><trkpt lat="42.4622934" lon="14.2084769"><ele>3.666666666666667</ele><time>2026-05-01T07:21:42.823Z</time></trkpt><trkpt lat="42.4623135" lon="14.2083811"><ele>3.3333333333333335</ele><time>2026-05-01T07:21:43.811Z</time></trkpt><trkpt lat="42.4623128" lon="14.2082913"><ele>3.0</ele><time>2026-05-01T07:21:44.814Z</time></trkpt><trkpt lat="42.4622065" lon="14.2081892"><ele>3.0</ele><time>2026-05-01T07:21:46.814Z</time></trkpt><trkpt lat="42.4621205" lon="14.208172"><ele>3.0</ele><time>2026-05-01T07:21:47.824Z</time></trkpt><trkpt lat="42.4620263" lon="14.2081622"><ele>3.0</ele><time>2026-05-01T07:21:48.819Z</time></trkpt><trkpt lat="42.461918" lon="14.2081677"><ele>3.0</ele><time>2026-05-01T07:21:49.818Z</time></trkpt><trkpt lat="42.4618104" lon="14.2081399"><ele>3.0</ele><time>2026-05-01T07:21:50.84Z</time></trkpt><trkpt lat="42.4617026" lon="14.2081061"><ele>3.4</ele><time>2026-05-01T07:21:51.811Z</time></trkpt><trkpt lat="42.4615918" lon="14.2080768"><ele>3.8</ele><time>2026-05-01T07:21:52.814Z</time></trkpt><trkpt lat="42.4614935" lon="14.2080507"><ele>4.2</ele><time>2026-05-01T07:21:53.818Z</time></trkpt><trkpt lat="42.4614037" lon="14.2080213"><ele>4.6</ele><time>2026-05-01T07:21:54.821Z</time></trkpt><trkpt lat="42.4613205" lon="14.2080062"><ele>5.0</ele><time>2026-05-01T07:21:55.849Z</time></trkpt><trkpt lat="42.4612569" lon="14.2079864"><ele>5.2</ele><time>2026-05-01T07:21:56.816Z</time></trkpt><trkpt lat="42.461167" lon="14.2079589"><ele>5.4</ele><time>2026-05-01T07:21:58.812Z</time></trkpt><trkpt lat="42.4611098" lon="14.2079129"><ele>5.6</ele><time>2026-05-01T07:22:01.857Z</time></trkpt><trkpt lat="42.4610385" lon="14.2077995"><ele>5.8</ele><time>2026-05-01T07:22:03.824Z</time></trkpt><trkpt lat="42.4609114" lon="14.2077365"><ele>6.0</ele><time>2026-05-01T07:22:05.816Z</time></trkpt><trkpt lat="42.4608433" lon="14.2077524"><ele>6.0</ele><time>2026-05-01T07:22:06.819Z</time></trkpt><trkpt lat="42.4607554" lon="14.2078923"><ele>6.0</ele><time>2026-05-01T07:22:08.821Z</time></trkpt><trkpt lat="42.4607465" lon="14.2079865"><ele>6.0</ele><time>2026-05-01T07:22:09.825Z</time></trkpt><trkpt lat="42.4607776" lon="14.2080748"><ele>6.0</ele><time>2026-05-01T07:22:10.807Z</time></trkpt><trkpt lat="42.4608018" lon="14.2082595"><ele>6.0</ele><time>2026-05-01T07:22:12.811Z</time></trkpt><trkpt lat="42.4607971" lon="14.2083592"><ele>6.0</ele><time>2026-05-01T07:22:13.815Z</time></trkpt><trkpt lat="42.4607848" lon="14.2084506"><ele>6.0</ele><time>2026-05-01T07:22:14.811Z</time></trkpt><trkpt lat="42.4607331" lon="14.2085636"><ele>6.0</ele><time>2026-05-01T07:22:16.813Z</time></trkpt><trkpt lat="42.4606622" lon="14.2086181"><ele>6.0</ele><time>2026-05-01T07:22:19.822Z</time></trkpt><trkpt lat="42.4605981" lon="14.2086721"><ele>6.0</ele><time>2026-05-01T07:22:21.816Z</time></trkpt><trkpt lat="42.4605441" lon="14.2087231"><ele>6.0</ele><time>2026-05-01T07:22:22.819Z</time></trkpt><trkpt lat="42.4604779" lon="14.2087683"><ele>5.666666666666667</ele><time>2026-05-01T07:22:23.819Z</time></trkpt><trkpt lat="42.4604139" lon="14.2088081"><ele>5.333333333333333</ele><time>2026-05-01T07:22:24.815Z</time></trkpt><trkpt lat="42.4603498" lon="14.2088495"><ele>5.0</ele><time>2026-05-01T07:22:25.821Z</time></trkpt><trkpt lat="42.460269" lon="14.2088987"><ele>4.666666666666666</ele><time>2026-05-01T07:22:26.817Z</time></trkpt><trkpt lat="42.4601794" lon="14.2089396"><ele>4.333333333333333</ele><time>2026-05-01T07:22:27.821Z</time></trkpt><trkpt lat="42.460085" lon="14.208996"><ele>4.0</ele><time>2026-05-01T07:22:28.817Z</time></trkpt><trkpt lat="42.4599968" lon="14.2090574"><ele>3.8000000000000003</ele><time>2026-05-01T07:22:29.813Z</time></trkpt><trkpt lat="42.4599023" lon="14.2091011"><ele>3.6000000000000005</ele><time>2026-05-01T07:22:30.811Z</time></trkpt><trkpt lat="42.4598251" lon="14.209161"><ele>3.4</ele><time>2026-05-01T07:22:31.811Z</time></trkpt><trkpt lat="42.4597607" lon="14.209215"><ele>3.2</ele><time>2026-05-01T07:22:32.812Z</time></trkpt><trkpt lat="42.4597037" lon="14.2092611"><ele>3.0</ele><time>2026-05-01T07:22:33.814Z</time></trkpt><trkpt lat="42.4595964" lon="14.2093333"><ele>3.3333333333333335</ele><time>2026-05-01T07:22:35.815Z</time></trkpt><trkpt lat="42.45953" lon="14.2093613"><ele>3.666666666666667</ele><time>2026-05-01T07:22:36.817Z</time></trkpt><trkpt lat="42.4594582" lon="14.2094061"><ele>4.0</ele><time>2026-05-01T07:22:37.807Z</time></trkpt><trkpt lat="42.4593791" lon="14.2094589"><ele>4.333333333333334</ele><time>2026-05-01T07:22:38.811Z</time></trkpt><trkpt lat="42.4592938" lon="14.2095177"><ele>4.666666666666667</ele><time>2026-05-01T07:22:39.81Z</time></trkpt><trkpt lat="42.4592008" lon="14.2095853"><ele>5.0</ele><time>2026-05-01T07:22:40.81Z</time></trkpt><trkpt lat="42.4590977" lon="14.2096543"><ele>5.0</ele><time>2026-05-01T07:22:41.81Z</time></trkpt><trkpt lat="42.4589833" lon="14.2097143"><ele>5.0</ele><time>2026-05-01T07:22:42.816Z</time></trkpt><trkpt lat="42.458876" lon="14.2097819"><ele>5.0</ele><time>2026-05-01T07:22:43.807Z</time></trkpt><trkpt lat="42.4587698" lon="14.2098516"><ele>5.0</ele><time>2026-05-01T07:22:44.814Z</time></trkpt><trkpt lat="42.4586721" lon="14.209915"><ele>5.166666666666667</ele><time>2026-05-01T07:22:45.806Z</time></trkpt><trkpt lat="42.4585827" lon="14.2099684"><ele>5.333333333333334</ele><time>2026-05-01T07:22:46.805Z</time></trkpt><trkpt lat="42.4585077" lon="14.2100202"><ele>5.5</ele><time>2026-05-01T07:22:47.821Z</time></trkpt><trkpt lat="42.4584442" lon="14.2100646"><ele>5.666666666666667</ele><time>2026-05-01T07:22:48.811Z</time></trkpt><trkpt lat="42.4583844" lon="14.2101048"><ele>5.833333333333333</ele><time>2026-05-01T07:22:49.829Z</time></trkpt><trkpt lat="42.4583278" lon="14.2101605"><ele>6.0</ele><time>2026-05-01T07:22:51.829Z</time></trkpt><trkpt lat="42.4582863" lon="14.2102734"><ele>6.0</ele><time>2026-05-01T07:22:55.822Z</time></trkpt><trkpt lat="42.4582714" lon="14.2104035"><ele>6.0</ele><time>2026-05-01T07:22:57.815Z</time></trkpt><trkpt lat="42.4583097" lon="14.2105423"><ele>6.0</ele><time>2026-05-01T07:22:59.827Z</time></trkpt><trkpt lat="42.4583824" lon="14.2106212"><ele>6.0</ele><time>2026-05-01T07:23:00.826Z</time></trkpt><trkpt lat="42.4584557" lon="14.2107175"><ele>6.0</ele><time>2026-05-01T07:23:01.819Z</time></trkpt><trkpt lat="42.4585276" lon="14.2108096"><ele>6.166666666666667</ele><time>2026-05-01T07:23:02.835Z</time></trkpt><trkpt lat="42.4585663" lon="14.2109078"><ele>6.333333333333334</ele><time>2026-05-01T07:23:03.825Z</time></trkpt><trkpt lat="42.4585655" lon="14.2110044"><ele>6.5</ele><time>2026-05-01T07:23:04.823Z</time></trkpt><trkpt lat="42.458536" lon="14.2110899"><ele>6.666666666666667</ele><time>2026-05-01T07:23:05.821Z</time></trkpt><trkpt lat="42.4584725" lon="14.2111463"><ele>6.833333333333334</ele><time>2026-05-01T07:23:06.814Z</time></trkpt><trkpt lat="42.4583763" lon="14.211205"><ele>7.0</ele><time>2026-05-01T07:23:07.812Z</time></trkpt><trkpt lat="42.458264" lon="14.2112533"><ele>7.0</ele><time>2026-05-01T07:23:08.826Z</time></trkpt><trkpt lat="42.4581465" lon="14.2113188"><ele>7.0</ele><time>2026-05-01T07:23:09.817Z</time></trkpt><trkpt lat="42.4580191" lon="14.2113909"><ele>7.0</ele><time>2026-05-01T07:23:10.823Z</time></trkpt><trkpt lat="42.4578845" lon="14.2114738"><ele>7.0</ele><time>2026-05-01T07:23:11.824Z</time></trkpt><trkpt lat="42.4577471" lon="14.2115657"><ele>6.0</ele><time>2026-05-01T07:23:12.82Z</time></trkpt><trkpt lat="42.4576093" lon="14.2116542"><ele>5.0</ele><time>2026-05-01T07:23:13.811Z</time></trkpt><trkpt lat="42.4574635" lon="14.2117524"><ele>4.0</ele><time>2026-05-01T07:23:14.816Z</time></trkpt><trkpt lat="42.4573138" lon="14.2118494"><ele>4.0</ele><time>2026-05-01T07:23:15.819Z</time></trkpt><trkpt lat="42.4571614" lon="14.211943"><ele>4.0</ele><time>2026-05-01T07:23:16.815Z</time></trkpt><trkpt lat="42.4570074" lon="14.2120231"><ele>4.0</ele><time>2026-05-01T07:23:17.815Z</time></trkpt><trkpt lat="42.4568518" lon="14.2121057"><ele>4.0</ele><time>2026-05-01T07:23:18.822Z</time></trkpt><trkpt lat="42.4566961" lon="14.2121797"><ele>4.0</ele><time>2026-05-01T07:23:19.812Z</time></trkpt><trkpt lat="42.4565317" lon="14.2122517"><ele>4.0</ele><time>2026-05-01T07:23:20.818Z</time></trkpt><trkpt lat="42.4563754" lon="14.2123307"><ele>3.6666666666666665</ele><time>2026-05-01T07:23:21.822Z</time></trkpt><trkpt lat="42.4562177" lon="14.2124045"><ele>3.333333333333333</ele><time>2026-05-01T07:23:22.819Z</time></trkpt><trkpt lat="42.456062" lon="14.2124675"><ele>3.0</ele><time>2026-05-01T07:23:23.814Z</time></trkpt><trkpt lat="42.4559065" lon="14.2125177"><ele>3.0</ele><time>2026-05-01T07:23:24.824Z</time></trkpt><trkpt lat="42.4557531" lon="14.2125392"><ele>3.0</ele><time>2026-05-01T07:23:25.824Z</time></trkpt><trkpt lat="42.4556117" lon="14.212553"><ele>3.0</ele><time>2026-05-01T07:23:26.82Z</time></trkpt><trkpt lat="42.4554714" lon="14.2125522"><ele>3.0</ele><time>2026-05-01T07:23:27.813Z</time></trkpt><trkpt lat="42.4553358" lon="14.212552"><ele>3.0</ele><time>2026-05-01T07:23:28.816Z</time></trkpt><trkpt lat="42.455206" lon="14.212561"><ele>3.0</ele><time>2026-05-01T07:23:29.824Z</time></trkpt><trkpt lat="42.4550845" lon="14.2125706"><ele>3.0</ele><time>2026-05-01T07:23:30.817Z</time></trkpt><trkpt lat="42.4549754" lon="14.2125812"><ele>3.0</ele><time>2026-05-01T07:23:31.821Z</time></trkpt><trkpt lat="42.4548779" lon="14.2125923"><ele>3.0</ele><time>2026-05-01T07:23:32.823Z</time></trkpt><trkpt lat="42.454791" lon="14.2126081"><ele>3.0</ele><time>2026-05-01T07:23:33.823Z</time></trkpt><trkpt lat="42.4547325" lon="14.2126452"><ele>3.0</ele><time>2026-05-01T07:23:34.818Z</time></trkpt><trkpt lat="42.4546851" lon="14.2127082"><ele>3.0</ele><time>2026-05-01T07:23:35.813Z</time></trkpt><trkpt lat="42.4546675" lon="14.2127947"><ele>3.0</ele><time>2026-05-01T07:23:36.814Z</time></trkpt><trkpt lat="42.4546546" lon="14.2129048"><ele>3.0</ele><time>2026-05-01T07:23:37.814Z</time></trkpt><trkpt lat="42.4546388" lon="14.2130146"><ele>3.0</ele><time>2026-05-01T07:23:38.817Z</time></trkpt><trkpt lat="42.4545962" lon="14.2131126"><ele>3.0</ele><time>2026-05-01T07:23:39.816Z</time></trkpt><trkpt lat="42.4545345" lon="14.2131849"><ele>3.0</ele><time>2026-05-01T07:23:40.81Z</time></trkpt><trkpt lat="42.4544621" lon="14.2132244"><ele>3.0</ele><time>2026-05-01T07:23:41.823Z</time></trkpt><trkpt lat="42.4543627" lon="14.2132654"><ele>3.0</ele><time>2026-05-01T07:23:42.82Z</time></trkpt><trkpt lat="42.4542563" lon="14.2133188"><ele>3.0</ele><time>2026-05-01T07:23:43.81Z</time></trkpt><trkpt lat="42.4541422" lon="14.213374"><ele>3.0</ele><time>2026-05-01T07:23:44.824Z</time></trkpt><trkpt lat="42.4540207" lon="14.2134364"><ele>3.0</ele><time>2026-05-01T07:23:45.819Z</time></trkpt><trkpt lat="42.4539006" lon="14.2134925"><ele>3.0</ele><time>2026-05-01T07:23:46.811Z</time></trkpt><trkpt lat="42.4537836" lon="14.2135519"><ele>2.75</ele><time>2026-05-01T07:23:47.81Z</time></trkpt><trkpt lat="42.4536618" lon="14.2136103"><ele>2.5</ele><time>2026-05-01T07:23:48.823Z</time></trkpt><trkpt lat="42.4535363" lon="14.2136706"><ele>2.25</ele><time>2026-05-01T07:23:49.817Z</time></trkpt><trkpt lat="42.453411" lon="14.2137306"><ele>2.0</ele><time>2026-05-01T07:23:50.866Z</time></trkpt><trkpt lat="42.4532884" lon="14.2137866"><ele>2.0</ele><time>2026-05-01T07:23:51.815Z</time></trkpt><trkpt lat="42.4531704" lon="14.2138405"><ele>2.0</ele><time>2026-05-01T07:23:52.827Z</time></trkpt><trkpt lat="42.4530522" lon="14.2139081"><ele>2.0</ele><time>2026-05-01T07:23:53.829Z</time></trkpt><trkpt lat="42.4529325" lon="14.2139587"><ele>2.0</ele><time>2026-05-01T07:23:54.826Z</time></trkpt><trkpt lat="42.4528163" lon="14.2140177"><ele>1.5</ele><time>2026-05-01T07:23:55.815Z</time></trkpt><trkpt lat="42.4526942" lon="14.2140741"><ele>1.0</ele><time>2026-05-01T07:23:56.815Z</time></trkpt><trkpt lat="42.4525717" lon="14.2141336"><ele>0.5</ele><time>2026-05-01T07:23:57.819Z</time></trkpt><trkpt lat="42.4524505" lon="14.214193"><ele>0.0</ele><time>2026-05-01T07:23:58.815Z</time></trkpt><trkpt lat="42.4523284" lon="14.21426"><ele>0.0</ele><time>2026-05-01T07:23:59.826Z</time></trkpt><trkpt lat="42.4522044" lon="14.2143179"><ele>0.0</ele><time>2026-05-01T07:24:00.813Z</time></trkpt><trkpt lat="42.4520896" lon="14.2143816"><ele>0.0</ele><time>2026-05-01T07:24:01.838Z</time></trkpt><trkpt lat="42.4519876" lon="14.2144709"><ele>0.0</ele><time>2026-05-01T07:24:02.815Z</time></trkpt><trkpt lat="42.451891" lon="14.2145714"><ele>0.25</ele><time>2026-05-01T07:24:03.818Z</time></trkpt><trkpt lat="42.4517964" lon="14.2146911"><ele>0.5</ele><time>2026-05-01T07:24:04.816Z</time></trkpt><trkpt lat="42.4517118" lon="14.214825"><ele>0.75</ele><time>2026-05-01T07:24:05.815Z</time></trkpt><trkpt lat="42.4516328" lon="14.2149692"><ele>1.0</ele><time>2026-05-01T07:24:06.817Z</time></trkpt><trkpt lat="42.4515542" lon="14.2151224"><ele>1.0</ele><time>2026-05-01T07:24:07.822Z</time></trkpt><trkpt lat="42.4514705" lon="14.2152777"><ele>1.0</ele><time>2026-05-01T07:24:08.811Z</time></trkpt><trkpt lat="42.4513849" lon="14.2154329"><ele>1.0</ele><time>2026-05-01T07:24:09.819Z</time></trkpt><trkpt lat="42.451299" lon="14.215594"><ele>1.0</ele><time>2026-05-01T07:24:10.821Z</time></trkpt><trkpt lat="42.4512152" lon="14.2157588"><ele>1.5</ele><time>2026-05-01T07:24:11.837Z</time></trkpt><trkpt lat="42.451132" lon="14.2159139"><ele>2.0</ele><time>2026-05-01T07:24:12.816Z</time></trkpt><trkpt lat="42.4510548" lon="14.2160632"><ele>2.5</ele><time>2026-05-01T07:24:13.806Z</time></trkpt><trkpt lat="42.4509726" lon="14.216209"><ele>3.0</ele><time>2026-05-01T07:24:14.805Z</time></trkpt><trkpt lat="42.4508915" lon="14.2163538"><ele>3.2</ele><time>2026-05-01T07:24:15.813Z</time></trkpt><trkpt lat="42.4508126" lon="14.2164947"><ele>3.4</ele><time>2026-05-01T07:24:16.838Z</time></trkpt><trkpt lat="42.4507463" lon="14.2166185"><ele>3.6000000000000005</ele><time>2026-05-01T07:24:17.822Z</time></trkpt><trkpt lat="42.4506812" lon="14.216723"><ele>3.8000000000000003</ele><time>2026-05-01T07:24:18.81Z</time></trkpt><trkpt lat="42.4506289" lon="14.2168095"><ele>4.0</ele><time>2026-05-01T07:24:19.819Z</time></trkpt><trkpt lat="42.4505563" lon="14.2168908"><ele>4.0</ele><time>2026-05-01T07:24:21.822Z</time></trkpt><trkpt lat="42.4504579" lon="14.2168853"><ele>4.0</ele><time>2026-05-01T07:24:23.821Z</time></trkpt><trkpt lat="42.4503857" lon="14.2168282"><ele>4.0</ele><time>2026-05-01T07:24:24.822Z</time></trkpt><trkpt lat="42.450317" lon="14.2167414"><ele>4.0</ele><time>2026-05-01T07:24:25.811Z</time></trkpt><trkpt lat="42.4502396" lon="14.2166277"><ele>4.0</ele><time>2026-05-01T07:24:26.808Z</time></trkpt><trkpt lat="42.4501551" lon="14.2165083"><ele>4.0</ele><time>2026-05-01T07:24:27.818Z</time></trkpt><trkpt lat="42.4500665" lon="14.2163732"><ele>4.0</ele><time>2026-05-01T07:24:28.822Z</time></trkpt><trkpt lat="42.4499774" lon="14.2162344"><ele>4.0</ele><time>2026-05-01T07:24:29.82Z</time></trkpt><trkpt lat="42.4498891" lon="14.2160998"><ele>4.0</ele><time>2026-05-01T07:24:30.814Z</time></trkpt><trkpt lat="42.4498071" lon="14.2159704"><ele>4.0</ele><time>2026-05-01T07:24:31.821Z</time></trkpt><trkpt lat="42.4497339" lon="14.2158492"><ele>4.0</ele><time>2026-05-01T07:24:32.814Z</time></trkpt><trkpt lat="42.4496658" lon="14.2157472"><ele>4.0</ele><time>2026-05-01T07:24:33.825Z</time></trkpt><trkpt lat="42.4496143" lon="14.2156572"><ele>4.0</ele><time>2026-05-01T07:24:34.818Z</time></trkpt><trkpt lat="42.4495801" lon="14.2155784"><ele>4.0</ele><time>2026-05-01T07:24:35.814Z</time></trkpt><trkpt lat="42.4495092" lon="14.215446"><ele>4.0</ele><time>2026-05-01T07:24:37.82Z</time></trkpt><trkpt lat="42.4494066" lon="14.215422"><ele>4.0</ele><time>2026-05-01T07:24:39.814Z</time></trkpt><trkpt lat="42.4493469" lon="14.2154778"><ele>4.0</ele><time>2026-05-01T07:24:40.816Z</time></trkpt><trkpt lat="42.449281" lon="14.2155624"><ele>4.0</ele><time>2026-05-01T07:24:41.813Z</time></trkpt><trkpt lat="42.4491904" lon="14.2156431"><ele>4.0</ele><time>2026-05-01T07:24:42.823Z</time></trkpt><trkpt lat="42.4490829" lon="14.215712"><ele>4.0</ele><time>2026-05-01T07:24:43.816Z</time></trkpt><trkpt lat="42.4489557" lon="14.2157794"><ele>4.0</ele><time>2026-05-01T07:24:44.812Z</time></trkpt><trkpt lat="42.4488165" lon="14.2158535"><ele>4.0</ele><time>2026-05-01T07:24:45.811Z</time></trkpt><trkpt lat="42.4486608" lon="14.2159244"><ele>4.75</ele><time>2026-05-01T07:24:46.808Z</time></trkpt><trkpt lat="42.4485133" lon="14.2160161"><ele>5.5</ele><time>2026-05-01T07:24:47.803Z</time></trkpt><trkpt lat="42.4483802" lon="14.2160983"><ele>6.25</ele><time>2026-05-01T07:24:48.837Z</time></trkpt><trkpt lat="42.4482543" lon="14.2161736"><ele>7.0</ele><time>2026-05-01T07:24:49.812Z</time></trkpt><trkpt lat="42.448133" lon="14.2162347"><ele>7.0</ele><time>2026-05-01T07:24:50.809Z</time></trkpt><trkpt lat="42.4480141" lon="14.2163056"><ele>7.0</ele><time>2026-05-01T07:24:51.832Z</time></trkpt><trkpt lat="42.447884" lon="14.2163788"><ele>7.0</ele><time>2026-05-01T07:24:52.821Z</time></trkpt><trkpt lat="42.4477591" lon="14.216459"><ele>7.0</ele><time>2026-05-01T07:24:53.844Z</time></trkpt><trkpt lat="42.4476346" lon="14.2165374"><ele>7.0</ele><time>2026-05-01T07:24:54.815Z</time></trkpt><trkpt lat="42.4475053" lon="14.216615"><ele>7.0</ele><time>2026-05-01T07:24:55.815Z</time></trkpt><trkpt lat="42.4473757" lon="14.2166898"><ele>7.0</ele><time>2026-05-01T07:24:56.809Z</time></trkpt><trkpt lat="42.4472441" lon="14.2167677"><ele>7.0</ele><time>2026-05-01T07:24:57.815Z</time></trkpt><trkpt lat="42.4471063" lon="14.2168426"><ele>7.25</ele><time>2026-05-01T07:24:58.823Z</time></trkpt><trkpt lat="42.446979" lon="14.2169154"><ele>7.5</ele><time>2026-05-01T07:24:59.81Z</time></trkpt><trkpt lat="42.4468574" lon="14.2169875"><ele>7.75</ele><time>2026-05-01T07:25:00.82Z</time></trkpt><trkpt lat="42.4467502" lon="14.2170491"><ele>8.0</ele><time>2026-05-01T07:25:01.819Z</time></trkpt><trkpt lat="42.4466565" lon="14.2170993"><ele>7.999999999999999</ele><time>2026-05-01T07:25:02.809Z</time></trkpt><trkpt lat="42.4465824" lon="14.2171268"><ele>8.0</ele><time>2026-05-01T07:25:03.821Z</time></trkpt><trkpt lat="42.4465185" lon="14.2171688"><ele>8.0</ele><time>2026-05-01T07:25:04.825Z</time></trkpt><trkpt lat="42.4464536" lon="14.2172147"><ele>8.0</ele><time>2026-05-01T07:25:05.812Z</time></trkpt><trkpt lat="42.4463915" lon="14.2172466"><ele>7.999999999999999</ele><time>2026-05-01T07:25:06.819Z</time></trkpt><trkpt lat="42.4463324" lon="14.2172815"><ele>8.0</ele><time>2026-05-01T07:25:07.815Z</time></trkpt><trkpt lat="42.4462415" lon="14.217347"><ele>7.4</ele><time>2026-05-01T07:25:09.815Z</time></trkpt><trkpt lat="42.4461471" lon="14.2173199"><ele>6.800000000000001</ele><time>2026-05-01T07:25:11.808Z</time></trkpt><trkpt lat="42.4461" lon="14.2172213"><ele>6.2</ele><time>2026-05-01T07:25:12.811Z</time></trkpt><trkpt lat="42.4460405" lon="14.2171194"><ele>5.6</ele><time>2026-05-01T07:25:13.815Z</time></trkpt><trkpt lat="42.4459655" lon="14.2170283"><ele>5.0</ele><time>2026-05-01T07:25:14.82Z</time></trkpt><trkpt lat="42.4458748" lon="14.2169435"><ele>4.75</ele><time>2026-05-01T07:25:15.811Z</time></trkpt><trkpt lat="42.4457729" lon="14.216847"><ele>4.5</ele><time>2026-05-01T07:25:16.818Z</time></trkpt><trkpt lat="42.4456756" lon="14.2167483"><ele>4.25</ele><time>2026-05-01T07:25:17.84Z</time></trkpt><trkpt lat="42.4455791" lon="14.2166552"><ele>4.0</ele><time>2026-05-01T07:25:18.813Z</time></trkpt><trkpt lat="42.4454852" lon="14.216573"><ele>4.5</ele><time>2026-05-01T07:25:19.831Z</time></trkpt><trkpt lat="42.4453965" lon="14.2164909"><ele>5.0</ele><time>2026-05-01T07:25:20.818Z</time></trkpt><trkpt lat="42.4453091" lon="14.2164078"><ele>5.5</ele><time>2026-05-01T07:25:21.817Z</time></trkpt><trkpt lat="42.4452118" lon="14.216317"><ele>6.0</ele><time>2026-05-01T07:25:22.819Z</time></trkpt><trkpt lat="42.4451149" lon="14.2162193"><ele>6.5</ele><time>2026-05-01T07:25:23.819Z</time></trkpt><trkpt lat="42.4450043" lon="14.2161131"><ele>7.0</ele><time>2026-05-01T07:25:24.813Z</time></trkpt><trkpt lat="42.4448902" lon="14.2160014"><ele>7.5</ele><time>2026-05-01T07:25:25.82Z</time></trkpt><trkpt lat="42.4447745" lon="14.2158956"><ele>8.0</ele><time>2026-05-01T07:25:26.819Z</time></trkpt><trkpt lat="42.4446588" lon="14.2157809"><ele>7.5</ele><time>2026-05-01T07:25:27.81Z</time></trkpt><trkpt lat="42.4445423" lon="14.2156616"><ele>7.0</ele><time>2026-05-01T07:25:28.813Z</time></trkpt><trkpt lat="42.4444244" lon="14.2155402"><ele>6.5</ele><time>2026-05-01T07:25:29.822Z</time></trkpt><trkpt lat="42.4442983" lon="14.2154226"><ele>6.0</ele><time>2026-05-01T07:25:30.811Z</time></trkpt><trkpt lat="42.4441736" lon="14.215304"><ele>6.0</ele><time>2026-05-01T07:25:31.819Z</time></trkpt><trkpt lat="42.4440589" lon="14.2151895"><ele>6.0</ele><time>2026-05-01T07:25:32.808Z</time></trkpt><trkpt lat="42.4439536" lon="14.215086"><ele>6.0</ele><time>2026-05-01T07:25:33.82Z</time></trkpt><trkpt lat="42.4438522" lon="14.2149922"><ele>6.0</ele><time>2026-05-01T07:25:34.813Z</time></trkpt><trkpt lat="42.4437554" lon="14.2149071"><ele>6.199999999999999</ele><time>2026-05-01T07:25:35.822Z</time></trkpt><trkpt lat="42.4436665" lon="14.2148205"><ele>6.3999999999999995</ele><time>2026-05-01T07:25:36.819Z</time></trkpt><trkpt lat="42.4435839" lon="14.2147392"><ele>6.6</ele><time>2026-05-01T07:25:37.818Z</time></trkpt><trkpt lat="42.4435037" lon="14.2146539"><ele>6.8</ele><time>2026-05-01T07:25:38.813Z</time></trkpt><trkpt lat="42.4434182" lon="14.2145571"><ele>7.0</ele><time>2026-05-01T07:25:39.812Z</time></trkpt><trkpt lat="42.4433433" lon="14.2144516"><ele>7.0</ele><time>2026-05-01T07:25:40.821Z</time></trkpt><trkpt lat="42.4432782" lon="14.214344"><ele>6.999999999999999</ele><time>2026-05-01T07:25:41.823Z</time></trkpt><trkpt lat="42.4432205" lon="14.2142292"><ele>6.999999999999999</ele><time>2026-05-01T07:25:42.819Z</time></trkpt><trkpt lat="42.4431628" lon="14.2141167"><ele>7.0</ele><time>2026-05-01T07:25:43.807Z</time></trkpt><trkpt lat="42.4431159" lon="14.2140117"><ele>7.0</ele><time>2026-05-01T07:25:44.809Z</time></trkpt><trkpt lat="42.4430742" lon="14.2139404"><ele>7.3999999999999995</ele><time>2026-05-01T07:25:45.815Z</time></trkpt><trkpt lat="42.4429554" lon="14.2138924"><ele>7.799999999999999</ele><time>2026-05-01T07:25:47.808Z</time></trkpt><trkpt lat="42.4428781" lon="14.2138946"><ele>8.2</ele><time>2026-05-01T07:25:48.823Z</time></trkpt><trkpt lat="42.4427848" lon="14.2138882"><ele>8.6</ele><time>2026-05-01T07:25:49.816Z</time></trkpt><trkpt lat="42.4426844" lon="14.2138737"><ele>9.0</ele><time>2026-05-01T07:25:50.812Z</time></trkpt><trkpt lat="42.4425785" lon="14.2138646"><ele>9.0</ele><time>2026-05-01T07:25:51.818Z</time></trkpt><trkpt lat="42.4424576" lon="14.2138587"><ele>9.0</ele><time>2026-05-01T07:25:52.819Z</time></trkpt><trkpt lat="42.4423436" lon="14.2138459"><ele>9.0</ele><time>2026-05-01T07:25:53.823Z</time></trkpt><trkpt lat="42.4422398" lon="14.2138448"><ele>9.0</ele><time>2026-05-01T07:25:54.813Z</time></trkpt><trkpt lat="42.4421428" lon="14.2138409"><ele>9.0</ele><time>2026-05-01T07:25:55.81Z</time></trkpt><trkpt lat="42.442045" lon="14.2138385"><ele>8.75</ele><time>2026-05-01T07:25:56.813Z</time></trkpt><trkpt lat="42.4419434" lon="14.2138417"><ele>8.5</ele><time>2026-05-01T07:25:57.809Z</time></trkpt><trkpt lat="42.4418288" lon="14.2138372"><ele>8.25</ele><time>2026-05-01T07:25:58.812Z</time></trkpt><trkpt lat="42.4417038" lon="14.2138363"><ele>8.0</ele><time>2026-05-01T07:25:59.825Z</time></trkpt><trkpt lat="42.4415712" lon="14.2138327"><ele>8.0</ele><time>2026-05-01T07:26:00.816Z</time></trkpt><trkpt lat="42.4414298" lon="14.2138233"><ele>8.0</ele><time>2026-05-01T07:26:01.815Z</time></trkpt><trkpt lat="42.4412933" lon="14.2138"><ele>8.0</ele><time>2026-05-01T07:26:02.811Z</time></trkpt><trkpt lat="42.4411534" lon="14.2137836"><ele>8.0</ele><time>2026-05-01T07:26:03.814Z</time></trkpt><trkpt lat="42.4410111" lon="14.2137607"><ele>11.0</ele><time>2026-05-01T07:26:04.804Z</time></trkpt><trkpt lat="42.4408705" lon="14.2137417"><ele>14.0</ele><time>2026-05-01T07:26:05.818Z</time></trkpt><trkpt lat="42.4407373" lon="14.2137148"><ele>17.0</ele><time>2026-05-01T07:26:06.815Z</time></trkpt><trkpt lat="42.4406012" lon="14.2137013"><ele>20.0</ele><time>2026-05-01T07:26:07.811Z</time></trkpt><trkpt lat="42.4404586" lon="14.2137139"><ele>20.25</ele><time>2026-05-01T07:26:08.82Z</time></trkpt><trkpt lat="42.4403302" lon="14.2137523"><ele>20.5</ele><time>2026-05-01T07:26:09.812Z</time></trkpt><trkpt lat="42.4402112" lon="14.2138222"><ele>20.75</ele><time>2026-05-01T07:26:10.82Z</time></trkpt><trkpt lat="42.4400977" lon="14.2139167"><ele>21.0</ele><time>2026-05-01T07:26:11.813Z</time></trkpt><trkpt lat="42.4399807" lon="14.2140162"><ele>21.0</ele><time>2026-05-01T07:26:12.813Z</time></trkpt><trkpt lat="42.4398539" lon="14.214112"><ele>21.0</ele><time>2026-05-01T07:26:13.812Z</time></trkpt><trkpt lat="42.4397216" lon="14.2141966"><ele>21.0</ele><time>2026-05-01T07:26:14.811Z</time></trkpt><trkpt lat="42.43958" lon="14.2142823"><ele>21.0</ele><time>2026-05-01T07:26:15.827Z</time></trkpt><trkpt lat="42.4394378" lon="14.2143743"><ele>24.0</ele><time>2026-05-01T07:26:16.809Z</time></trkpt><trkpt lat="42.4393035" lon="14.2144657"><ele>27.0</ele><time>2026-05-01T07:26:17.808Z</time></trkpt><trkpt lat="42.4391734" lon="14.2145664"><ele>30.0</ele><time>2026-05-01T07:26:18.806Z</time></trkpt><trkpt lat="42.4390316" lon="14.2146677"><ele>30.0</ele><time>2026-05-01T07:26:19.809Z</time></trkpt><trkpt lat="42.4388901" lon="14.2147734"><ele>30.0</ele><time>2026-05-01T07:26:20.806Z</time></trkpt><trkpt lat="42.4387484" lon="14.214875"><ele>30.0</ele><time>2026-05-01T07:26:21.823Z</time></trkpt><trkpt lat="42.4386013" lon="14.2149522"><ele>34.333333333333336</ele><time>2026-05-01T07:26:22.814Z</time></trkpt><trkpt lat="42.4384515" lon="14.2150055"><ele>38.66666666666667</ele><time>2026-05-01T07:26:23.813Z</time></trkpt><trkpt lat="42.4383039" lon="14.2150418"><ele>43.0</ele><time>2026-05-01T07:26:24.809Z</time></trkpt><trkpt lat="42.4381525" lon="14.2150626"><ele>43.0</ele><time>2026-05-01T07:26:25.816Z</time></trkpt><trkpt lat="42.4380008" lon="14.2150615"><ele>43.0</ele><time>2026-05-01T07:26:26.812Z</time></trkpt><trkpt lat="42.4378462" lon="14.2150373"><ele>43.0</ele><time>2026-05-01T07:26:27.813Z</time></trkpt><trkpt lat="42.4376855" lon="14.2150007"><ele>43.5</ele><time>2026-05-01T07:26:28.811Z</time></trkpt><trkpt lat="42.4375382" lon="14.2149929"><ele>44.0</ele><time>2026-05-01T07:26:29.812Z</time></trkpt><trkpt lat="42.4373928" lon="14.2150034"><ele>44.5</ele><time>2026-05-01T07:26:30.826Z</time></trkpt><trkpt lat="42.4372645" lon="14.215051"><ele>45.0</ele><time>2026-05-01T07:26:31.801Z</time></trkpt><trkpt lat="42.4371471" lon="14.2151117"><ele>44.25</ele><time>2026-05-01T07:26:32.813Z</time></trkpt><trkpt lat="42.437036" lon="14.2151923"><ele>43.5</ele><time>2026-05-01T07:26:33.806Z</time></trkpt><trkpt lat="42.4369239" lon="14.2152977"><ele>42.75</ele><time>2026-05-01T07:26:34.817Z</time></trkpt><trkpt lat="42.4368212" lon="14.2154429"><ele>42.0</ele><time>2026-05-01T07:26:35.809Z</time></trkpt><trkpt lat="42.4367184" lon="14.2156038"><ele>44.5</ele><time>2026-05-01T07:26:36.81Z</time></trkpt><trkpt lat="42.4366174" lon="14.2157614"><ele>47.0</ele><time>2026-05-01T07:26:37.815Z</time></trkpt><trkpt lat="42.4365198" lon="14.2159181"><ele>49.5</ele><time>2026-05-01T07:26:38.812Z</time></trkpt><trkpt lat="42.436428" lon="14.2160674"><ele>52.0</ele><time>2026-05-01T07:26:39.799Z</time></trkpt><trkpt lat="42.4363467" lon="14.2161989"><ele>52.400000000000006</ele><time>2026-05-01T07:26:40.814Z</time></trkpt><trkpt lat="42.4362645" lon="14.2163142"><ele>52.800000000000004</ele><time>2026-05-01T07:26:41.813Z</time></trkpt><trkpt lat="42.4361911" lon="14.2164076"><ele>53.2</ele><time>2026-05-01T07:26:42.823Z</time></trkpt><trkpt lat="42.4361173" lon="14.2164958"><ele>53.6</ele><time>2026-05-01T07:26:43.816Z</time></trkpt><trkpt lat="42.4360383" lon="14.216588"><ele>54.0</ele><time>2026-05-01T07:26:44.809Z</time></trkpt><trkpt lat="42.4359644" lon="14.2166589"><ele>54.0</ele><time>2026-05-01T07:26:45.808Z</time></trkpt><trkpt lat="42.4358933" lon="14.2167061"><ele>54.00000000000001</ele><time>2026-05-01T07:26:46.82Z</time></trkpt><trkpt lat="42.4357966" lon="14.2167694"><ele>54.00000000000001</ele><time>2026-05-01T07:26:48.82Z</time></trkpt><trkpt lat="42.4357296" lon="14.2167945"><ele>54.0</ele><time>2026-05-01T07:26:49.809Z</time></trkpt><trkpt lat="42.4356422" lon="14.2168043"><ele>54.0</ele><time>2026-05-01T07:26:50.806Z</time></trkpt><trkpt lat="42.4355401" lon="14.2167658"><ele>54.5</ele><time>2026-05-01T07:26:51.811Z</time></trkpt><trkpt lat="42.4354402" lon="14.2167351"><ele>55.0</ele><time>2026-05-01T07:26:52.815Z</time></trkpt><trkpt lat="42.4353528" lon="14.2166973"><ele>55.5</ele><time>2026-05-01T07:26:53.813Z</time></trkpt><trkpt lat="42.435283" lon="14.2166696"><ele>56.0</ele><time>2026-05-01T07:26:54.809Z</time></trkpt><trkpt lat="42.4352254" lon="14.2166182"><ele>56.5</ele><time>2026-05-01T07:26:55.814Z</time></trkpt><trkpt lat="42.4351394" lon="14.2165332"><ele>57.0</ele><time>2026-05-01T07:26:57.821Z</time></trkpt><trkpt lat="42.4350959" lon="14.2164643"><ele>57.0</ele><time>2026-05-01T07:27:00.81Z</time></trkpt><trkpt lat="42.4351241" lon="14.2165528"><ele>57.0</ele><time>2026-05-01T07:27:29.802Z</time></trkpt><trkpt lat="42.4351806" lon="14.2166222"><ele>57.0</ele><time>2026-05-01T07:27:32.795Z</time></trkpt><trkpt lat="42.4352641" lon="14.2166941"><ele>57.0</ele><time>2026-05-01T07:27:35.806Z</time></trkpt><trkpt lat="42.4353362" lon="14.2167205"><ele>57.0</ele><time>2026-05-01T07:27:36.805Z</time></trkpt><trkpt lat="42.4354257" lon="14.2167496"><ele>57.0</ele><time>2026-05-01T07:27:37.807Z</time></trkpt><trkpt lat="42.4355285" lon="14.2167672"><ele>56.5</ele><time>2026-05-01T07:27:38.808Z</time></trkpt><trkpt lat="42.4356182" lon="14.2167823"><ele>56.0</ele><time>2026-05-01T07:27:39.817Z</time></trkpt><trkpt lat="42.4356941" lon="14.2168063"><ele>55.5</ele><time>2026-05-01T07:27:40.795Z</time></trkpt><trkpt lat="42.4357659" lon="14.2168217"><ele>55.0</ele><time>2026-05-01T07:27:41.817Z</time></trkpt><trkpt lat="42.4358396" lon="14.2168461"><ele>54.5</ele><time>2026-05-01T07:27:42.812Z</time></trkpt><trkpt lat="42.4359311" lon="14.2169026"><ele>54.0</ele><time>2026-05-01T07:27:43.818Z</time></trkpt><trkpt lat="42.4360338" lon="14.2169657"><ele>54.0</ele><time>2026-05-01T07:27:44.815Z</time></trkpt><trkpt lat="42.4361311" lon="14.2170247"><ele>54.00000000000001</ele><time>2026-05-01T07:27:45.813Z</time></trkpt><trkpt lat="42.4362206" lon="14.2170925"><ele>54.00000000000001</ele><time>2026-05-01T07:27:46.803Z</time></trkpt><trkpt lat="42.4363077" lon="14.2171737"><ele>54.0</ele><time>2026-05-01T07:27:47.812Z</time></trkpt><trkpt lat="42.4363911" lon="14.2172713"><ele>54.0</ele><time>2026-05-01T07:27:48.811Z</time></trkpt><trkpt lat="42.4364739" lon="14.2173697"><ele>55.0</ele><time>2026-05-01T07:27:49.813Z</time></trkpt><trkpt lat="42.4365561" lon="14.217457"><ele>56.00000000000001</ele><time>2026-05-01T07:27:50.818Z</time></trkpt><trkpt lat="42.436633" lon="14.2175503"><ele>57.00000000000001</ele><time>2026-05-01T07:27:51.815Z</time></trkpt><trkpt lat="42.4367158" lon="14.2176451"><ele>58.0</ele><time>2026-05-01T07:27:52.81Z</time></trkpt><trkpt lat="42.4368081" lon="14.217752"><ele>59.0</ele><time>2026-05-01T07:27:53.816Z</time></trkpt><trkpt lat="42.4369012" lon="14.2178529"><ele>59.0</ele><time>2026-05-01T07:27:54.813Z</time></trkpt><trkpt lat="42.4369993" lon="14.2179536"><ele>59.0</ele><time>2026-05-01T07:27:55.822Z</time></trkpt><trkpt lat="42.4371021" lon="14.21806"><ele>59.0</ele><time>2026-05-01T07:27:56.805Z</time></trkpt><trkpt lat="42.4372073" lon="14.2181737"><ele>59.0</ele><time>2026-05-01T07:27:57.813Z</time></trkpt><trkpt lat="42.4373138" lon="14.2182816"><ele>59.5</ele><time>2026-05-01T07:27:58.816Z</time></trkpt><trkpt lat="42.4374121" lon="14.2183979"><ele>60.0</ele><time>2026-05-01T07:27:59.807Z</time></trkpt><trkpt lat="42.4375094" lon="14.2185176"><ele>60.5</ele><time>2026-05-01T07:28:00.812Z</time></trkpt><trkpt lat="42.4376039" lon="14.2186382"><ele>61.0</ele><time>2026-05-01T07:28:01.806Z</time></trkpt><trkpt lat="42.4376903" lon="14.2187486"><ele>61.0</ele><time>2026-05-01T07:28:02.811Z</time></trkpt><trkpt lat="42.4377765" lon="14.2188591"><ele>61.0</ele><time>2026-05-01T07:28:03.809Z</time></trkpt><trkpt lat="42.4378736" lon="14.218969"><ele>61.0</ele><time>2026-05-01T07:28:04.818Z</time></trkpt><trkpt lat="42.4379752" lon="14.2190843"><ele>61.0</ele><time>2026-05-01T07:28:05.819Z</time></trkpt><trkpt lat="42.4380749" lon="14.2191916"><ele>59.75</ele><time>2026-05-01T07:28:06.803Z</time></trkpt><trkpt lat="42.4381746" lon="14.2192835"><ele>58.5</ele><time>2026-05-01T07:28:07.811Z</time></trkpt><trkpt lat="42.4382791" lon="14.2193689"><ele>57.25</ele><time>2026-05-01T07:28:08.81Z</time></trkpt><trkpt lat="42.4383768" lon="14.2194557"><ele>56.0</ele><time>2026-05-01T07:28:09.811Z</time></trkpt><trkpt lat="42.4384633" lon="14.2195381"><ele>56.0</ele><time>2026-05-01T07:28:10.815Z</time></trkpt><trkpt lat="42.4385401" lon="14.2196085"><ele>55.99999999999999</ele><time>2026-05-01T07:28:11.807Z</time></trkpt><trkpt lat="42.438613" lon="14.2196859"><ele>55.99999999999999</ele><time>2026-05-01T07:28:12.815Z</time></trkpt><trkpt lat="42.4386826" lon="14.2197808"><ele>56.0</ele><time>2026-05-01T07:28:13.807Z</time></trkpt><trkpt lat="42.4387519" lon="14.2199002"><ele>56.0</ele><time>2026-05-01T07:28:14.825Z</time></trkpt><trkpt lat="42.438821" lon="14.2200241"><ele>56.25</ele><time>2026-05-01T07:28:15.815Z</time></trkpt><trkpt lat="42.4388799" lon="14.2201569"><ele>56.5</ele><time>2026-05-01T07:28:16.808Z</time></trkpt><trkpt lat="42.438941" lon="14.2202821"><ele>56.75</ele><time>2026-05-01T07:28:17.816Z</time></trkpt><trkpt lat="42.438997" lon="14.2204069"><ele>57.0</ele><time>2026-05-01T07:28:18.812Z</time></trkpt><trkpt lat="42.4390462" lon="14.2205559"><ele>56.75</ele><time>2026-05-01T07:28:19.813Z</time></trkpt><trkpt lat="42.4390797" lon="14.2207098"><ele>56.5</ele><time>2026-05-01T07:28:20.81Z</time></trkpt><trkpt lat="42.4390978" lon="14.2208545"><ele>56.25</ele><time>2026-05-01T07:28:21.813Z</time></trkpt><trkpt lat="42.4391018" lon="14.2210067"><ele>56.0</ele><time>2026-05-01T07:28:22.802Z</time></trkpt><trkpt lat="42.4390842" lon="14.2211563"><ele>56.0</ele><time>2026-05-01T07:28:23.816Z</time></trkpt><trkpt lat="42.439056" lon="14.221307"><ele>56.0</ele><time>2026-05-01T07:28:24.809Z</time></trkpt><trkpt lat="42.4390262" lon="14.2214595"><ele>56.0</ele><time>2026-05-01T07:28:25.809Z</time></trkpt><trkpt lat="42.439002" lon="14.2216082"><ele>56.0</ele><time>2026-05-01T07:28:26.814Z</time></trkpt><trkpt lat="42.4389827" lon="14.2217594"><ele>55.4</ele><time>2026-05-01T07:28:27.819Z</time></trkpt><trkpt lat="42.4389795" lon="14.2218948"><ele>54.8</ele><time>2026-05-01T07:28:28.815Z</time></trkpt><trkpt lat="42.4389905" lon="14.2220263"><ele>54.199999999999996</ele><time>2026-05-01T07:28:29.813Z</time></trkpt><trkpt lat="42.439008" lon="14.2221395"><ele>53.599999999999994</ele><time>2026-05-01T07:28:30.81Z</time></trkpt><trkpt lat="42.4390273" lon="14.2222369"><ele>53.0</ele><time>2026-05-01T07:28:31.814Z</time></trkpt><trkpt lat="42.4390404" lon="14.2223893"><ele>52.00000000000001</ele><time>2026-05-01T07:28:33.807Z</time></trkpt><trkpt lat="42.4390121" lon="14.2224737"><ele>51.0</ele><time>2026-05-01T07:28:34.811Z</time></trkpt><trkpt lat="42.4389532" lon="14.2225528"><ele>50.0</ele><time>2026-05-01T07:28:35.816Z</time></trkpt><trkpt lat="42.4388761" lon="14.2226208"><ele>49.0</ele><time>2026-05-01T07:28:36.821Z</time></trkpt><trkpt lat="42.4387913" lon="14.2226793"><ele>48.0</ele><time>2026-05-01T07:28:37.84Z</time></trkpt><trkpt lat="42.4386984" lon="14.2227075"><ele>47.0</ele><time>2026-05-01T07:28:38.81Z</time></trkpt><trkpt lat="42.4386042" lon="14.2227004"><ele>45.8</ele><time>2026-05-01T07:28:39.817Z</time></trkpt><trkpt lat="42.4385122" lon="14.2226478"><ele>44.6</ele><time>2026-05-01T07:28:40.816Z</time></trkpt><trkpt lat="42.4384308" lon="14.2225452"><ele>43.4</ele><time>2026-05-01T07:28:41.825Z</time></trkpt><trkpt lat="42.4383619" lon="14.222417"><ele>42.199999999999996</ele><time>2026-05-01T07:28:42.806Z</time></trkpt><trkpt lat="42.4383056" lon="14.2222742"><ele>41.0</ele><time>2026-05-01T07:28:43.81Z</time></trkpt><trkpt lat="42.4382648" lon="14.2221363"><ele>41.0</ele><time>2026-05-01T07:28:44.822Z</time></trkpt><trkpt lat="42.43823" lon="14.2220072"><ele>41.0</ele><time>2026-05-01T07:28:45.811Z</time></trkpt><trkpt lat="42.4382023" lon="14.2218964"><ele>41.0</ele><time>2026-05-01T07:28:46.814Z</time></trkpt><trkpt lat="42.4381775" lon="14.2217939"><ele>41.0</ele><time>2026-05-01T07:28:47.81Z</time></trkpt><trkpt lat="42.4381483" lon="14.2217128"><ele>41.0</ele><time>2026-05-01T07:28:48.821Z</time></trkpt><trkpt lat="42.4381026" lon="14.2216492"><ele>41.0</ele><time>2026-05-01T07:28:49.804Z</time></trkpt><trkpt lat="42.4379833" lon="14.2215765"><ele>41.166666666666664</ele><time>2026-05-01T07:28:51.805Z</time></trkpt><trkpt lat="42.4379032" lon="14.2215814"><ele>41.33333333333333</ele><time>2026-05-01T07:28:52.821Z</time></trkpt><trkpt lat="42.4378395" lon="14.2216104"><ele>41.5</ele><time>2026-05-01T07:28:53.822Z</time></trkpt><trkpt lat="42.4377726" lon="14.2216571"><ele>41.666666666666664</ele><time>2026-05-01T07:28:54.821Z</time></trkpt><trkpt lat="42.4377138" lon="14.2217236"><ele>41.833333333333336</ele><time>2026-05-01T07:28:55.811Z</time></trkpt><trkpt lat="42.4376761" lon="14.2218189"><ele>42.0</ele><time>2026-05-01T07:28:56.811Z</time></trkpt><trkpt lat="42.4376992" lon="14.221928"><ele>42.0</ele><time>2026-05-01T07:28:57.809Z</time></trkpt><trkpt lat="42.4377384" lon="14.2220674"><ele>42.0</ele><time>2026-05-01T07:28:58.819Z</time></trkpt><trkpt lat="42.437819" lon="14.2222265"><ele>42.0</ele><time>2026-05-01T07:28:59.817Z</time></trkpt><trkpt lat="42.4378807" lon="14.2223918"><ele>42.0</ele><time>2026-05-01T07:29:00.809Z</time></trkpt><trkpt lat="42.4379221" lon="14.2225855"><ele>41.666666666666664</ele><time>2026-05-01T07:29:01.804Z</time></trkpt><trkpt lat="42.4379587" lon="14.2228"><ele>41.33333333333333</ele><time>2026-05-01T07:29:02.806Z</time></trkpt><trkpt lat="42.4379925" lon="14.2230213"><ele>41.0</ele><time>2026-05-01T07:29:03.805Z</time></trkpt><trkpt lat="42.4380301" lon="14.2232535"><ele>38.666666666666664</ele><time>2026-05-01T07:29:04.81Z</time></trkpt><trkpt lat="42.4380637" lon="14.2234912"><ele>36.333333333333336</ele><time>2026-05-01T07:29:05.805Z</time></trkpt><trkpt lat="42.4380908" lon="14.2237298"><ele>34.0</ele><time>2026-05-01T07:29:06.818Z</time></trkpt><trkpt lat="42.4381126" lon="14.2239623"><ele>32.333333333333336</ele><time>2026-05-01T07:29:07.801Z</time></trkpt><trkpt lat="42.438129" lon="14.2241895"><ele>30.666666666666664</ele><time>2026-05-01T07:29:08.819Z</time></trkpt><trkpt lat="42.4381505" lon="14.2244145"><ele>29.0</ele><time>2026-05-01T07:29:09.812Z</time></trkpt><trkpt lat="42.4381702" lon="14.2246299"><ele>28.25</ele><time>2026-05-01T07:29:10.81Z</time></trkpt><trkpt lat="42.4381913" lon="14.2248377"><ele>27.5</ele><time>2026-05-01T07:29:11.806Z</time></trkpt><trkpt lat="42.4382132" lon="14.2250258"><ele>26.75</ele><time>2026-05-01T07:29:12.814Z</time></trkpt><trkpt lat="42.4382252" lon="14.225202"><ele>26.0</ele><time>2026-05-01T07:29:13.802Z</time></trkpt><trkpt lat="42.4382207" lon="14.2253639"><ele>26.0</ele><time>2026-05-01T07:29:14.812Z</time></trkpt><trkpt lat="42.4381967" lon="14.2255192"><ele>26.0</ele><time>2026-05-01T07:29:15.811Z</time></trkpt><trkpt lat="42.4381513" lon="14.2256754"><ele>26.0</ele><time>2026-05-01T07:29:16.816Z</time></trkpt><trkpt lat="42.4380827" lon="14.2258205"><ele>26.0</ele><time>2026-05-01T07:29:17.813Z</time></trkpt><trkpt lat="42.438001" lon="14.2259597"><ele>28.0</ele><time>2026-05-01T07:29:18.808Z</time></trkpt><trkpt lat="42.4379081" lon="14.2260744"><ele>30.0</ele><time>2026-05-01T07:29:19.814Z</time></trkpt><trkpt lat="42.4378047" lon="14.2261236"><ele>32.0</ele><time>2026-05-01T07:29:20.808Z</time></trkpt><trkpt lat="42.4377051" lon="14.2261084"><ele>34.0</ele><time>2026-05-01T07:29:21.816Z</time></trkpt><trkpt lat="42.4376056" lon="14.2260651"><ele>36.0</ele><time>2026-05-01T07:29:22.809Z</time></trkpt><trkpt lat="42.4375197" lon="14.2259959"><ele>36.0</ele><time>2026-05-01T07:29:23.816Z</time></trkpt><trkpt lat="42.4374343" lon="14.2259099"><ele>36.0</ele><time>2026-05-01T07:29:24.813Z</time></trkpt><trkpt lat="42.4373409" lon="14.2258271"><ele>36.0</ele><time>2026-05-01T07:29:25.815Z</time></trkpt><trkpt lat="42.4372463" lon="14.2257294"><ele>36.0</ele><time>2026-05-01T07:29:26.809Z</time></trkpt><trkpt lat="42.437149" lon="14.225628"><ele>37.0</ele><time>2026-05-01T07:29:27.826Z</time></trkpt><trkpt lat="42.4370492" lon="14.2255366"><ele>38.0</ele><time>2026-05-01T07:29:28.81Z</time></trkpt><trkpt lat="42.4369412" lon="14.225467"><ele>39.0</ele><time>2026-05-01T07:29:29.817Z</time></trkpt><trkpt lat="42.4368133" lon="14.2254226"><ele>40.0</ele><time>2026-05-01T07:29:30.812Z</time></trkpt><trkpt lat="42.4366679" lon="14.2253916"><ele>40.0</ele><time>2026-05-01T07:29:31.81Z</time></trkpt><trkpt lat="42.4365307" lon="14.2253568"><ele>40.0</ele><time>2026-05-01T07:29:32.809Z</time></trkpt><trkpt lat="42.4364022" lon="14.2253273"><ele>40.0</ele><time>2026-05-01T07:29:33.811Z</time></trkpt><trkpt lat="42.4362758" lon="14.2252968"><ele>40.0</ele><time>2026-05-01T07:29:34.817Z</time></trkpt><trkpt lat="42.4361398" lon="14.2252682"><ele>42.0</ele><time>2026-05-01T07:29:35.808Z</time></trkpt><trkpt lat="42.436006" lon="14.225244"><ele>44.0</ele><time>2026-05-01T07:29:36.812Z</time></trkpt><trkpt lat="42.435877" lon="14.2252244"><ele>46.0</ele><time>2026-05-01T07:29:37.817Z</time></trkpt><trkpt lat="42.4357571" lon="14.2252062"><ele>48.0</ele><time>2026-05-01T07:29:38.825Z</time></trkpt><trkpt lat="42.4356374" lon="14.2251936"><ele>48.0</ele><time>2026-05-01T07:29:39.832Z</time></trkpt><trkpt lat="42.4355269" lon="14.2252022"><ele>48.0</ele><time>2026-05-01T07:29:40.805Z</time></trkpt><trkpt lat="42.4354356" lon="14.2252438"><ele>48.0</ele><time>2026-05-01T07:29:41.817Z</time></trkpt><trkpt lat="42.4353608" lon="14.2253043"><ele>48.0</ele><time>2026-05-01T07:29:42.816Z</time></trkpt><trkpt lat="42.4352953" lon="14.2253933"><ele>48.0</ele><time>2026-05-01T07:29:43.804Z</time></trkpt><trkpt lat="42.4352426" lon="14.2254904"><ele>48.0</ele><time>2026-05-01T07:29:44.833Z</time></trkpt><trkpt lat="42.4351885" lon="14.225605"><ele>48.0</ele><time>2026-05-01T07:29:45.819Z</time></trkpt><trkpt lat="42.43514" lon="14.2257131"><ele>48.0</ele><time>2026-05-01T07:29:46.819Z</time></trkpt><trkpt lat="42.4350956" lon="14.2258177"><ele>48.0</ele><time>2026-05-01T07:29:47.808Z</time></trkpt><trkpt lat="42.435057" lon="14.2259243"><ele>48.0</ele><time>2026-05-01T07:29:48.807Z</time></trkpt><trkpt lat="42.4350332" lon="14.2260334"><ele>50.833333333333336</ele><time>2026-05-01T07:29:49.814Z</time></trkpt><trkpt lat="42.4350494" lon="14.2261374"><ele>53.66666666666667</ele><time>2026-05-01T07:29:50.809Z</time></trkpt><trkpt lat="42.4350809" lon="14.2262344"><ele>56.5</ele><time>2026-05-01T07:29:51.809Z</time></trkpt><trkpt lat="42.4351365" lon="14.2263266"><ele>59.333333333333336</ele><time>2026-05-01T07:29:52.809Z</time></trkpt><trkpt lat="42.4352124" lon="14.226385"><ele>62.16666666666667</ele><time>2026-05-01T07:29:53.812Z</time></trkpt><trkpt lat="42.4353011" lon="14.2264318"><ele>65.0</ele><time>2026-05-01T07:29:54.824Z</time></trkpt><trkpt lat="42.4354027" lon="14.2264602"><ele>66.16666666666667</ele><time>2026-05-01T07:29:55.82Z</time></trkpt><trkpt lat="42.4354976" lon="14.2265004"><ele>67.33333333333334</ele><time>2026-05-01T07:29:56.811Z</time></trkpt><trkpt lat="42.435569" lon="14.2265546"><ele>68.5</ele><time>2026-05-01T07:29:57.807Z</time></trkpt><trkpt lat="42.4356223" lon="14.226626"><ele>69.66666666666667</ele><time>2026-05-01T07:29:58.816Z</time></trkpt><trkpt lat="42.4356421" lon="14.226718"><ele>70.83333333333333</ele><time>2026-05-01T07:29:59.839Z</time></trkpt><trkpt lat="42.4356189" lon="14.226817"><ele>72.0</ele><time>2026-05-01T07:30:00.827Z</time></trkpt><trkpt lat="42.435565" lon="14.2269261"><ele>72.0</ele><time>2026-05-01T07:30:01.836Z</time></trkpt><trkpt lat="42.4354835" lon="14.2270407"><ele>72.0</ele><time>2026-05-01T07:30:02.835Z</time></trkpt><trkpt lat="42.4354163" lon="14.2271668"><ele>72.0</ele><time>2026-05-01T07:30:03.813Z</time></trkpt><trkpt lat="42.4353556" lon="14.227302"><ele>72.0</ele><time>2026-05-01T07:30:04.81Z</time></trkpt><trkpt lat="42.435301" lon="14.2274375"><ele>74.25</ele><time>2026-05-01T07:30:05.802Z</time></trkpt><trkpt lat="42.4352402" lon="14.2275815"><ele>76.5</ele><time>2026-05-01T07:30:06.833Z</time></trkpt><trkpt lat="42.4351934" lon="14.227733"><ele>78.75</ele><time>2026-05-01T07:30:07.812Z</time></trkpt><trkpt lat="42.4351512" lon="14.2278948"><ele>81.0</ele><time>2026-05-01T07:30:08.814Z</time></trkpt><trkpt lat="42.4351083" lon="14.2280599"><ele>82.5</ele><time>2026-05-01T07:30:09.825Z</time></trkpt><trkpt lat="42.4350764" lon="14.2282285"><ele>84.0</ele><time>2026-05-01T07:30:10.825Z</time></trkpt><trkpt lat="42.4350455" lon="14.2284052"><ele>85.5</ele><time>2026-05-01T07:30:11.821Z</time></trkpt><trkpt lat="42.435021" lon="14.2285897"><ele>87.0</ele><time>2026-05-01T07:30:12.813Z</time></trkpt><trkpt lat="42.4350036" lon="14.228774"><ele>87.0</ele><time>2026-05-01T07:30:13.803Z</time></trkpt><trkpt lat="42.4349858" lon="14.2289517"><ele>87.0</ele><time>2026-05-01T07:30:14.81Z</time></trkpt><trkpt lat="42.4349683" lon="14.2291338"><ele>87.0</ele><time>2026-05-01T07:30:15.804Z</time></trkpt><trkpt lat="42.4349493" lon="14.2293126"><ele>87.0</ele><time>2026-05-01T07:30:16.815Z</time></trkpt><trkpt lat="42.4349335" lon="14.2294919"><ele>88.25</ele><time>2026-05-01T07:30:17.812Z</time></trkpt><trkpt lat="42.4349165" lon="14.2296689"><ele>89.5</ele><time>2026-05-01T07:30:18.819Z</time></trkpt><trkpt lat="42.4349139" lon="14.2298457"><ele>90.75</ele><time>2026-05-01T07:30:19.826Z</time></trkpt><trkpt lat="42.4349298" lon="14.2300258"><ele>92.0</ele><time>2026-05-01T07:30:20.819Z</time></trkpt><trkpt lat="42.4349749" lon="14.2301925"><ele>94.5</ele><time>2026-05-01T07:30:21.812Z</time></trkpt><trkpt lat="42.4350321" lon="14.2303539"><ele>97.0</ele><time>2026-05-01T07:30:22.811Z</time></trkpt><trkpt lat="42.4350936" lon="14.2305161"><ele>99.5</ele><time>2026-05-01T07:30:23.809Z</time></trkpt><trkpt lat="42.4351511" lon="14.2306836"><ele>102.0</ele><time>2026-05-01T07:30:24.81Z</time></trkpt><trkpt lat="42.4352084" lon="14.2308565"><ele>107.25</ele><time>2026-05-01T07:30:25.814Z</time></trkpt><trkpt lat="42.4352637" lon="14.231026"><ele>112.5</ele><time>2026-05-01T07:30:26.796Z</time></trkpt><trkpt lat="42.4353205" lon="14.2311939"><ele>117.75</ele><time>2026-05-01T07:30:27.811Z</time></trkpt><trkpt lat="42.4353886" lon="14.231353"><ele>123.0</ele><time>2026-05-01T07:30:28.816Z</time></trkpt><trkpt lat="42.4354741" lon="14.2314927"><ele>123.0</ele><time>2026-05-01T07:30:29.806Z</time></trkpt><trkpt lat="42.435578" lon="14.2316042"><ele>123.0</ele><time>2026-05-01T07:30:30.805Z</time></trkpt><trkpt lat="42.4356988" lon="14.2316671"><ele>123.0</ele><time>2026-05-01T07:30:31.801Z</time></trkpt><trkpt lat="42.4358419" lon="14.2316716"><ele>123.0</ele><time>2026-05-01T07:30:32.802Z</time></trkpt><trkpt lat="42.4359428" lon="14.231659"><ele>123.0</ele><time>2026-05-01T07:30:33.803Z</time></trkpt><trkpt lat="42.4360613" lon="14.2316768"><ele>123.00000000000001</ele><time>2026-05-01T07:30:35.817Z</time></trkpt><trkpt lat="42.4361243" lon="14.2317818"><ele>123.00000000000001</ele><time>2026-05-01T07:30:37.818Z</time></trkpt><trkpt lat="42.436063" lon="14.23192"><ele>123.0</ele><time>2026-05-01T07:30:39.812Z</time></trkpt><trkpt lat="42.4359883" lon="14.2319748"><ele>123.0</ele><time>2026-05-01T07:30:40.819Z</time></trkpt><trkpt lat="42.4358973" lon="14.2320126"><ele>123.0</ele><time>2026-05-01T07:30:41.826Z</time></trkpt><trkpt lat="42.4357945" lon="14.2320499"><ele>123.0</ele><time>2026-05-01T07:30:42.817Z</time></trkpt><trkpt lat="42.435685" lon="14.2320787"><ele>123.0</ele><time>2026-05-01T07:30:43.816Z</time></trkpt><trkpt lat="42.4355634" lon="14.2320888"><ele>123.0</ele><time>2026-05-01T07:30:44.818Z</time></trkpt><trkpt lat="42.4354384" lon="14.2320836"><ele>127.75</ele><time>2026-05-01T07:30:45.806Z</time></trkpt><trkpt lat="42.4353056" lon="14.2320688"><ele>132.5</ele><time>2026-05-01T07:30:46.818Z</time></trkpt><trkpt lat="42.4351669" lon="14.2320609"><ele>137.25</ele><time>2026-05-01T07:30:47.832Z</time></trkpt><trkpt lat="42.4350158" lon="14.2320599"><ele>142.0</ele><time>2026-05-01T07:30:48.809Z</time></trkpt><trkpt lat="42.4348614" lon="14.2320611"><ele>142.0</ele><time>2026-05-01T07:30:49.836Z</time></trkpt><trkpt lat="42.4347106" lon="14.2320618"><ele>142.0</ele><time>2026-05-01T07:30:50.816Z</time></trkpt><trkpt lat="42.4345589" lon="14.232067"><ele>142.0</ele><time>2026-05-01T07:30:51.818Z</time></trkpt><trkpt lat="42.4344047" lon="14.2321016"><ele>142.33333333333334</ele><time>2026-05-01T07:30:52.837Z</time></trkpt><trkpt lat="42.4342632" lon="14.2321872"><ele>142.66666666666666</ele><time>2026-05-01T07:30:53.821Z</time></trkpt><trkpt lat="42.4341241" lon="14.2323159"><ele>143.0</ele><time>2026-05-01T07:30:54.814Z</time></trkpt><trkpt lat="42.4339842" lon="14.2324434"><ele>143.0</ele><time>2026-05-01T07:30:55.813Z</time></trkpt><trkpt lat="42.4338573" lon="14.2325755"><ele>143.0</ele><time>2026-05-01T07:30:56.827Z</time></trkpt><trkpt lat="42.4337518" lon="14.2327014"><ele>143.0</ele><time>2026-05-01T07:30:57.813Z</time></trkpt><trkpt lat="42.4336541" lon="14.2328385"><ele>143.0</ele><time>2026-05-01T07:30:58.818Z</time></trkpt><trkpt lat="42.4335859" lon="14.2330027"><ele>146.0</ele><time>2026-05-01T07:30:59.806Z</time></trkpt><trkpt lat="42.4335478" lon="14.2331836"><ele>149.0</ele><time>2026-05-01T07:31:00.815Z</time></trkpt><trkpt lat="42.4335377" lon="14.2333785"><ele>152.0</ele><time>2026-05-01T07:31:01.804Z</time></trkpt><trkpt lat="42.4335368" lon="14.2335559"><ele>155.0</ele><time>2026-05-01T07:31:02.808Z</time></trkpt><trkpt lat="42.4335385" lon="14.2337128"><ele>155.0</ele><time>2026-05-01T07:31:03.804Z</time></trkpt><trkpt lat="42.4335346" lon="14.2338608"><ele>155.0</ele><time>2026-05-01T07:31:04.811Z</time></trkpt><trkpt lat="42.4335123" lon="14.2340074"><ele>155.0</ele><time>2026-05-01T07:31:05.823Z</time></trkpt><trkpt lat="42.4334684" lon="14.2341745"><ele>155.0</ele><time>2026-05-01T07:31:06.811Z</time></trkpt><trkpt lat="42.4334241" lon="14.2343567"><ele>154.75</ele><time>2026-05-01T07:31:07.808Z</time></trkpt><trkpt lat="42.4333791" lon="14.2345536"><ele>154.5</ele><time>2026-05-01T07:31:08.823Z</time></trkpt><trkpt lat="42.4333266" lon="14.2347362"><ele>154.25</ele><time>2026-05-01T07:31:09.813Z</time></trkpt><trkpt lat="42.4332779" lon="14.2349002"><ele>154.0</ele><time>2026-05-01T07:31:10.824Z</time></trkpt><trkpt lat="42.433246" lon="14.2350629"><ele>153.4</ele><time>2026-05-01T07:31:11.8Z</time></trkpt><trkpt lat="42.4332272" lon="14.235222"><ele>152.8</ele><time>2026-05-01T07:31:12.812Z</time></trkpt><trkpt lat="42.4332267" lon="14.2353655"><ele>152.2</ele><time>2026-05-01T07:31:13.808Z</time></trkpt><trkpt lat="42.4332322" lon="14.2355093"><ele>151.6</ele><time>2026-05-01T07:31:14.818Z</time></trkpt><trkpt lat="42.433237" lon="14.2356433"><ele>151.0</ele><time>2026-05-01T07:31:15.835Z</time></trkpt><trkpt lat="42.4332456" lon="14.23576"><ele>150.4</ele><time>2026-05-01T07:31:16.821Z</time></trkpt><trkpt lat="42.4332488" lon="14.2358747"><ele>149.8</ele><time>2026-05-01T07:31:17.831Z</time></trkpt><trkpt lat="42.4332514" lon="14.2359725"><ele>149.20000000000002</ele><time>2026-05-01T07:31:18.829Z</time></trkpt><trkpt lat="42.4332573" lon="14.236131"><ele>148.6</ele><time>2026-05-01T07:31:20.826Z</time></trkpt><trkpt lat="42.4332432" lon="14.2362479"><ele>148.0</ele><time>2026-05-01T07:31:22.831Z</time></trkpt><trkpt lat="42.4331792" lon="14.2363555"><ele>148.0</ele><time>2026-05-01T07:31:24.82Z</time></trkpt><trkpt lat="42.433109" lon="14.2363846"><ele>148.0</ele><time>2026-05-01T07:31:25.826Z</time></trkpt><trkpt lat="42.4330042" lon="14.2363862"><ele>148.0</ele><time>2026-05-01T07:31:26.81Z</time></trkpt><trkpt lat="42.4328883" lon="14.2363726"><ele>148.0</ele><time>2026-05-01T07:31:27.804Z</time></trkpt><trkpt lat="42.4327671" lon="14.2363619"><ele>148.0</ele><time>2026-05-01T07:31:28.814Z</time></trkpt><trkpt lat="42.4326368" lon="14.2363504"><ele>148.0</ele><time>2026-05-01T07:31:29.809Z</time></trkpt><trkpt lat="42.4325027" lon="14.2363386"><ele>148.0</ele><time>2026-05-01T07:31:30.813Z</time></trkpt><trkpt lat="42.4323758" lon="14.2363356"><ele>148.0</ele><time>2026-05-01T07:31:31.84Z</time></trkpt><trkpt lat="42.4322609" lon="14.2363266"><ele>148.0</ele><time>2026-05-01T07:31:32.812Z</time></trkpt><trkpt lat="42.4321442" lon="14.2363222"><ele>148.5</ele><time>2026-05-01T07:31:33.813Z</time></trkpt><trkpt lat="42.4320268" lon="14.23631"><ele>149.0</ele><time>2026-05-01T07:31:34.831Z</time></trkpt><trkpt lat="42.431911" lon="14.2362978"><ele>149.5</ele><time>2026-05-01T07:31:35.811Z</time></trkpt><trkpt lat="42.431793" lon="14.2362902"><ele>150.0</ele><time>2026-05-01T07:31:36.83Z</time></trkpt><trkpt lat="42.4316689" lon="14.2362883"><ele>150.0</ele><time>2026-05-01T07:31:37.806Z</time></trkpt><trkpt lat="42.4315363" lon="14.2362828"><ele>150.0</ele><time>2026-05-01T07:31:38.807Z</time></trkpt><trkpt lat="42.4313928" lon="14.2362756"><ele>150.0</ele><time>2026-05-01T07:31:39.825Z</time></trkpt><trkpt lat="42.4312417" lon="14.2362679"><ele>150.0</ele><time>2026-05-01T07:31:40.814Z</time></trkpt><trkpt lat="42.4310893" lon="14.2362558"><ele>150.25</ele><time>2026-05-01T07:31:41.826Z</time></trkpt><trkpt lat="42.4309385" lon="14.2362503"><ele>150.5</ele><time>2026-05-01T07:31:42.81Z</time></trkpt><trkpt lat="42.4308032" lon="14.2362491"><ele>150.75</ele><time>2026-05-01T07:31:43.821Z</time></trkpt><trkpt lat="42.4306745" lon="14.2362437"><ele>151.0</ele><time>2026-05-01T07:31:44.818Z</time></trkpt><trkpt lat="42.430563" lon="14.2362406"><ele>151.25</ele><time>2026-05-01T07:31:45.818Z</time></trkpt><trkpt lat="42.4304463" lon="14.2362275"><ele>151.5</ele><time>2026-05-01T07:31:46.823Z</time></trkpt><trkpt lat="42.4303286" lon="14.2362194"><ele>151.75</ele><time>2026-05-01T07:31:47.812Z</time></trkpt><trkpt lat="42.4302092" lon="14.2362163"><ele>152.0</ele><time>2026-05-01T07:31:48.848Z</time></trkpt><trkpt lat="42.4300861" lon="14.2362072"><ele>152.0</ele><time>2026-05-01T07:31:49.817Z</time></trkpt><trkpt lat="42.4299579" lon="14.2361951"><ele>152.0</ele><time>2026-05-01T07:31:50.807Z</time></trkpt><trkpt lat="42.4298341" lon="14.2361842"><ele>152.0</ele><time>2026-05-01T07:31:51.811Z</time></trkpt><trkpt lat="42.4297087" lon="14.2361755"><ele>152.0</ele><time>2026-05-01T07:31:52.808Z</time></trkpt><trkpt lat="42.4295933" lon="14.2361657"><ele>152.4</ele><time>2026-05-01T07:31:53.811Z</time></trkpt><trkpt lat="42.4294936" lon="14.2361314"><ele>152.79999999999998</ele><time>2026-05-01T07:31:54.822Z</time></trkpt><trkpt lat="42.4294119" lon="14.2360712"><ele>153.2</ele><time>2026-05-01T07:31:55.817Z</time></trkpt><trkpt lat="42.4293513" lon="14.2359859"><ele>153.6</ele><time>2026-05-01T07:31:56.818Z</time></trkpt><trkpt lat="42.429313" lon="14.235845"><ele>154.0</ele><time>2026-05-01T07:31:57.819Z</time></trkpt><trkpt lat="42.4292884" lon="14.2356676"><ele>154.0</ele><time>2026-05-01T07:31:58.811Z</time></trkpt><trkpt lat="42.4292687" lon="14.2354908"><ele>154.0</ele><time>2026-05-01T07:31:59.821Z</time></trkpt><trkpt lat="42.4292612" lon="14.2353227"><ele>154.0</ele><time>2026-05-01T07:32:00.812Z</time></trkpt><trkpt lat="42.4292464" lon="14.235153"><ele>154.0</ele><time>2026-05-01T07:32:01.817Z</time></trkpt><trkpt lat="42.429229" lon="14.2349981"><ele>154.0</ele><time>2026-05-01T07:32:02.809Z</time></trkpt><trkpt lat="42.4292195" lon="14.2348445"><ele>154.0</ele><time>2026-05-01T07:32:03.809Z</time></trkpt><trkpt lat="42.4292026" lon="14.2346839"><ele>154.0</ele><time>2026-05-01T07:32:04.814Z</time></trkpt><trkpt lat="42.429191" lon="14.2345205"><ele>154.0</ele><time>2026-05-01T07:32:05.826Z</time></trkpt><trkpt lat="42.4291648" lon="14.2343731"><ele>154.0</ele><time>2026-05-01T07:32:06.812Z</time></trkpt><trkpt lat="42.4291194" lon="14.2342429"><ele>154.0</ele><time>2026-05-01T07:32:07.817Z</time></trkpt><trkpt lat="42.4290436" lon="14.2341333"><ele>154.0</ele><time>2026-05-01T07:32:08.819Z</time></trkpt><trkpt lat="42.4289437" lon="14.2340522"><ele>154.0</ele><time>2026-05-01T07:32:09.819Z</time></trkpt><trkpt lat="42.4288186" lon="14.2339873"><ele>153.5</ele><time>2026-05-01T07:32:10.818Z</time></trkpt><trkpt lat="42.4286945" lon="14.233927"><ele>153.0</ele><time>2026-05-01T07:32:11.815Z</time></trkpt><trkpt lat="42.4285624" lon="14.2338603"><ele>152.5</ele><time>2026-05-01T07:32:12.81Z</time></trkpt><trkpt lat="42.4284215" lon="14.2337947"><ele>152.0</ele><time>2026-05-01T07:32:13.816Z</time></trkpt><trkpt lat="42.4282775" lon="14.2337231"><ele>152.0</ele><time>2026-05-01T07:32:14.821Z</time></trkpt><trkpt lat="42.4281371" lon="14.2336513"><ele>152.0</ele><time>2026-05-01T07:32:15.831Z</time></trkpt><trkpt lat="42.427999" lon="14.2335892"><ele>152.0</ele><time>2026-05-01T07:32:16.809Z</time></trkpt><trkpt lat="42.4278702" lon="14.2335334"><ele>152.0</ele><time>2026-05-01T07:32:17.807Z</time></trkpt><trkpt lat="42.4277491" lon="14.2334755"><ele>152.0</ele><time>2026-05-01T07:32:18.817Z</time></trkpt><trkpt lat="42.4276363" lon="14.2334209"><ele>152.0</ele><time>2026-05-01T07:32:19.816Z</time></trkpt><trkpt lat="42.427537" lon="14.2333678"><ele>152.0</ele><time>2026-05-01T07:32:20.815Z</time></trkpt><trkpt lat="42.42744" lon="14.233312"><ele>152.0</ele><time>2026-05-01T07:32:21.825Z</time></trkpt><trkpt lat="42.4273495" lon="14.2332527"><ele>152.0</ele><time>2026-05-01T07:32:22.811Z</time></trkpt><trkpt lat="42.4272578" lon="14.2331681"><ele>152.0</ele><time>2026-05-01T07:32:23.82Z</time></trkpt><trkpt lat="42.4271609" lon="14.2330607"><ele>152.0</ele><time>2026-05-01T07:32:24.82Z</time></trkpt><trkpt lat="42.4270612" lon="14.2329416"><ele>152.0</ele><time>2026-05-01T07:32:25.838Z</time></trkpt><trkpt lat="42.4269748" lon="14.232809"><ele>152.0</ele><time>2026-05-01T07:32:26.805Z</time></trkpt><trkpt lat="42.426886" lon="14.232672"><ele>151.5</ele><time>2026-05-01T07:32:27.831Z</time></trkpt><trkpt lat="42.4267825" lon="14.2325383"><ele>151.0</ele><time>2026-05-01T07:32:28.815Z</time></trkpt><trkpt lat="42.4266543" lon="14.2324343"><ele>150.5</ele><time>2026-05-01T07:32:29.822Z</time></trkpt><trkpt lat="42.4265114" lon="14.2323485"><ele>150.0</ele><time>2026-05-01T07:32:30.812Z</time></trkpt><trkpt lat="42.4263574" lon="14.2322726"><ele>148.66666666666666</ele><time>2026-05-01T07:32:31.822Z</time></trkpt><trkpt lat="42.4262074" lon="14.2321956"><ele>147.33333333333331</ele><time>2026-05-01T07:32:32.82Z</time></trkpt><trkpt lat="42.4260644" lon="14.2321201"><ele>146.0</ele><time>2026-05-01T07:32:33.811Z</time></trkpt><trkpt lat="42.4259245" lon="14.2320452"><ele>146.0</ele><time>2026-05-01T07:32:34.818Z</time></trkpt><trkpt lat="42.4257871" lon="14.2319674"><ele>146.0</ele><time>2026-05-01T07:32:35.83Z</time></trkpt><trkpt lat="42.4256524" lon="14.2318852"><ele>146.0</ele><time>2026-05-01T07:32:36.819Z</time></trkpt><trkpt lat="42.4255274" lon="14.2318123"><ele>146.0</ele><time>2026-05-01T07:32:37.827Z</time></trkpt><trkpt lat="42.4254126" lon="14.2317556"><ele>148.2</ele><time>2026-05-01T07:32:38.832Z</time></trkpt><trkpt lat="42.4253027" lon="14.2317237"><ele>150.39999999999998</ele><time>2026-05-01T07:32:39.818Z</time></trkpt><trkpt lat="42.4251931" lon="14.2317185"><ele>152.6</ele><time>2026-05-01T07:32:40.831Z</time></trkpt><trkpt lat="42.4250794" lon="14.2317446"><ele>154.79999999999998</ele><time>2026-05-01T07:32:41.804Z</time></trkpt><trkpt lat="42.424984" lon="14.2318187"><ele>157.0</ele><time>2026-05-01T07:32:42.814Z</time></trkpt><trkpt lat="42.4248988" lon="14.2319162"><ele>157.0</ele><time>2026-05-01T07:32:43.817Z</time></trkpt><trkpt lat="42.4248175" lon="14.2319934"><ele>157.0</ele><time>2026-05-01T07:32:44.811Z</time></trkpt><trkpt lat="42.4247198" lon="14.2320523"><ele>157.0</ele><time>2026-05-01T07:32:45.848Z</time></trkpt><trkpt lat="42.4245987" lon="14.2320846"><ele>157.0</ele><time>2026-05-01T07:32:46.814Z</time></trkpt><trkpt lat="42.4244734" lon="14.2320827"><ele>158.25</ele><time>2026-05-01T07:32:47.812Z</time></trkpt><trkpt lat="42.4243507" lon="14.2320564"><ele>159.5</ele><time>2026-05-01T07:32:48.817Z</time></trkpt><trkpt lat="42.4242212" lon="14.232036"><ele>160.75</ele><time>2026-05-01T07:32:49.819Z</time></trkpt><trkpt lat="42.4240912" lon="14.2320017"><ele>162.0</ele><time>2026-05-01T07:32:50.813Z</time></trkpt><trkpt lat="42.4239664" lon="14.2319592"><ele>162.0</ele><time>2026-05-01T07:32:51.827Z</time></trkpt><trkpt lat="42.4238445" lon="14.2319128"><ele>162.0</ele><time>2026-05-01T07:32:52.841Z</time></trkpt><trkpt lat="42.4237213" lon="14.2318623"><ele>162.0</ele><time>2026-05-01T07:32:53.821Z</time></trkpt><trkpt lat="42.4236002" lon="14.2318078"><ele>162.0</ele><time>2026-05-01T07:32:54.85Z</time></trkpt><trkpt lat="42.4234751" lon="14.2317516"><ele>162.25</ele><time>2026-05-01T07:32:55.813Z</time></trkpt><trkpt lat="42.4233491" lon="14.2316854"><ele>162.5</ele><time>2026-05-01T07:32:56.823Z</time></trkpt><trkpt lat="42.4232242" lon="14.2316173"><ele>162.75</ele><time>2026-05-01T07:32:57.826Z</time></trkpt><trkpt lat="42.4230977" lon="14.2315513"><ele>163.0</ele><time>2026-05-01T07:32:58.807Z</time></trkpt><trkpt lat="42.422964" lon="14.2314952"><ele>163.0</ele><time>2026-05-01T07:32:59.859Z</time></trkpt><trkpt lat="42.4228272" lon="14.2314414"><ele>163.0</ele><time>2026-05-01T07:33:00.821Z</time></trkpt><trkpt lat="42.4226877" lon="14.2313922"><ele>163.0</ele><time>2026-05-01T07:33:01.815Z</time></trkpt><trkpt lat="42.422545" lon="14.2313514"><ele>163.0</ele><time>2026-05-01T07:33:02.815Z</time></trkpt><trkpt lat="42.4223993" lon="14.2313146"><ele>163.0</ele><time>2026-05-01T07:33:03.807Z</time></trkpt><trkpt lat="42.4222502" lon="14.2312824"><ele>163.0</ele><time>2026-05-01T07:33:04.812Z</time></trkpt><trkpt lat="42.4221022" lon="14.2312532"><ele>163.0</ele><time>2026-05-01T07:33:05.815Z</time></trkpt><trkpt lat="42.4219562" lon="14.2312245"><ele>163.0</ele><time>2026-05-01T07:33:06.822Z</time></trkpt><trkpt lat="42.421811" lon="14.2311942"><ele>163.25</ele><time>2026-05-01T07:33:07.802Z</time></trkpt><trkpt lat="42.4216635" lon="14.2311598"><ele>163.5</ele><time>2026-05-01T07:33:08.813Z</time></trkpt><trkpt lat="42.4215217" lon="14.2311261"><ele>163.75</ele><time>2026-05-01T07:33:09.813Z</time></trkpt><trkpt lat="42.421394" lon="14.2310767"><ele>164.0</ele><time>2026-05-01T07:33:10.848Z</time></trkpt><trkpt lat="42.4212689" lon="14.2310198"><ele>164.0</ele><time>2026-05-01T07:33:11.809Z</time></trkpt><trkpt lat="42.421151" lon="14.2309717"><ele>164.0</ele><time>2026-05-01T07:33:12.809Z</time></trkpt><trkpt lat="42.4210299" lon="14.2309193"><ele>164.0</ele><time>2026-05-01T07:33:13.803Z</time></trkpt><trkpt lat="42.4209106" lon="14.2308681"><ele>164.0</ele><time>2026-05-01T07:33:14.823Z</time></trkpt><trkpt lat="42.4207834" lon="14.2308197"><ele>164.0</ele><time>2026-05-01T07:33:15.811Z</time></trkpt><trkpt lat="42.4206474" lon="14.2307665"><ele>164.0</ele><time>2026-05-01T07:33:16.809Z</time></trkpt><trkpt lat="42.4205074" lon="14.2307112"><ele>164.0</ele><time>2026-05-01T07:33:17.814Z</time></trkpt><trkpt lat="42.4203621" lon="14.2306504"><ele>164.0</ele><time>2026-05-01T07:33:18.809Z</time></trkpt><trkpt lat="42.4202109" lon="14.2305952"><ele>161.0</ele><time>2026-05-01T07:33:19.858Z</time></trkpt><trkpt lat="42.4200581" lon="14.2305562"><ele>158.0</ele><time>2026-05-01T07:33:20.819Z</time></trkpt><trkpt lat="42.4199036" lon="14.2305365"><ele>155.0</ele><time>2026-05-01T07:33:21.81Z</time></trkpt><trkpt lat="42.4197439" lon="14.230533"><ele>155.0</ele><time>2026-05-01T07:33:22.808Z</time></trkpt><trkpt lat="42.4195795" lon="14.2305287"><ele>155.0</ele><time>2026-05-01T07:33:23.816Z</time></trkpt><trkpt lat="42.4194154" lon="14.2305159"><ele>155.0</ele><time>2026-05-01T07:33:24.862Z</time></trkpt><trkpt lat="42.4192585" lon="14.2305097"><ele>155.0</ele><time>2026-05-01T07:33:25.803Z</time></trkpt><trkpt lat="42.4191" lon="14.2305075"><ele>155.0</ele><time>2026-05-01T07:33:26.809Z</time></trkpt><trkpt lat="42.4189459" lon="14.230502"><ele>155.0</ele><time>2026-05-01T07:33:27.817Z</time></trkpt><trkpt lat="42.4187907" lon="14.2304965"><ele>153.66666666666666</ele><time>2026-05-01T07:33:28.817Z</time></trkpt><trkpt lat="42.4186342" lon="14.230488"><ele>152.33333333333334</ele><time>2026-05-01T07:33:29.83Z</time></trkpt><trkpt lat="42.4184773" lon="14.2304808"><ele>151.0</ele><time>2026-05-01T07:33:30.807Z</time></trkpt><trkpt lat="42.4183211" lon="14.2304727"><ele>151.0</ele><time>2026-05-01T07:33:31.823Z</time></trkpt><trkpt lat="42.4181691" lon="14.230458"><ele>151.0</ele><time>2026-05-01T07:33:32.806Z</time></trkpt><trkpt lat="42.4180189" lon="14.2304545"><ele>151.0</ele><time>2026-05-01T07:33:33.814Z</time></trkpt><trkpt lat="42.4178716" lon="14.2304473"><ele>153.0</ele><time>2026-05-01T07:33:34.815Z</time></trkpt><trkpt lat="42.4177178" lon="14.2304383"><ele>155.0</ele><time>2026-05-01T07:33:35.816Z</time></trkpt><trkpt lat="42.4175706" lon="14.2304286"><ele>157.0</ele><time>2026-05-01T07:33:36.819Z</time></trkpt><trkpt lat="42.4174256" lon="14.2304261"><ele>159.0</ele><time>2026-05-01T07:33:37.823Z</time></trkpt><trkpt lat="42.4172976" lon="14.2304264"><ele>159.0</ele><time>2026-05-01T07:33:38.822Z</time></trkpt><trkpt lat="42.4171706" lon="14.2304243"><ele>159.0</ele><time>2026-05-01T07:33:39.811Z</time></trkpt><trkpt lat="42.4170658" lon="14.2304157"><ele>159.0</ele><time>2026-05-01T07:33:40.815Z</time></trkpt><trkpt lat="42.416994" lon="14.2304094"><ele>159.0</ele><time>2026-05-01T07:33:41.819Z</time></trkpt><trkpt lat="42.416888" lon="14.2304607"><ele>159.0</ele><time>2026-05-01T07:33:43.819Z</time></trkpt><trkpt lat="42.4168176" lon="14.2305647"><ele>160.5</ele><time>2026-05-01T07:33:45.82Z</time></trkpt><trkpt lat="42.4167858" lon="14.2306537"><ele>162.0</ele><time>2026-05-01T07:33:47.822Z</time></trkpt><trkpt lat="42.4167852" lon="14.2307422"><ele>163.5</ele><time>2026-05-01T07:33:49.818Z</time></trkpt><trkpt lat="42.4168117" lon="14.2308235"><ele>165.0</ele><time>2026-05-01T07:33:50.814Z</time></trkpt><trkpt lat="42.4168592" lon="14.2309165"><ele>166.5</ele><time>2026-05-01T07:33:51.805Z</time></trkpt><trkpt lat="42.4169153" lon="14.2310248"><ele>168.0</ele><time>2026-05-01T07:33:52.819Z</time></trkpt><trkpt lat="42.4169873" lon="14.2311549"><ele>168.0</ele><time>2026-05-01T07:33:53.807Z</time></trkpt><trkpt lat="42.4170602" lon="14.2313089"><ele>168.0</ele><time>2026-05-01T07:33:54.812Z</time></trkpt><trkpt lat="42.417146" lon="14.2314837"><ele>168.0</ele><time>2026-05-01T07:33:55.823Z</time></trkpt><trkpt lat="42.4172275" lon="14.2316774"><ele>167.66666666666666</ele><time>2026-05-01T07:33:56.816Z</time></trkpt><trkpt lat="42.4173189" lon="14.2318798"><ele>167.33333333333331</ele><time>2026-05-01T07:33:57.824Z</time></trkpt><trkpt lat="42.4174091" lon="14.2320897"><ele>167.0</ele><time>2026-05-01T07:33:58.809Z</time></trkpt><trkpt lat="42.417504" lon="14.2323034"><ele>166.33333333333331</ele><time>2026-05-01T07:33:59.825Z</time></trkpt><trkpt lat="42.4176" lon="14.2325239"><ele>165.66666666666666</ele><time>2026-05-01T07:34:00.825Z</time></trkpt><trkpt lat="42.4176973" lon="14.2327536"><ele>165.0</ele><time>2026-05-01T07:34:01.811Z</time></trkpt><trkpt lat="42.417791" lon="14.2329935"><ele>165.0</ele><time>2026-05-01T07:34:02.806Z</time></trkpt><trkpt lat="42.4178945" lon="14.2332267"><ele>165.0</ele><time>2026-05-01T07:34:03.801Z</time></trkpt><trkpt lat="42.4179911" lon="14.2334684"><ele>165.0</ele><time>2026-05-01T07:34:04.825Z</time></trkpt><trkpt lat="42.4180912" lon="14.2337083"><ele>165.0</ele><time>2026-05-01T07:34:05.811Z</time></trkpt><trkpt lat="42.4181885" lon="14.233954"><ele>165.0</ele><time>2026-05-01T07:34:06.816Z</time></trkpt><trkpt lat="42.4182848" lon="14.2341968"><ele>165.0</ele><time>2026-05-01T07:34:07.808Z</time></trkpt><trkpt lat="42.4183765" lon="14.2344319"><ele>164.66666666666666</ele><time>2026-05-01T07:34:08.813Z</time></trkpt><trkpt lat="42.4184679" lon="14.234664"><ele>164.33333333333331</ele><time>2026-05-01T07:34:09.813Z</time></trkpt><trkpt lat="42.4185563" lon="14.2348925"><ele>164.0</ele><time>2026-05-01T07:34:10.811Z</time></trkpt><trkpt lat="42.418649" lon="14.2351166"><ele>163.0</ele><time>2026-05-01T07:34:11.818Z</time></trkpt><trkpt lat="42.418743" lon="14.2353453"><ele>162.0</ele><time>2026-05-01T07:34:12.814Z</time></trkpt><trkpt lat="42.4188336" lon="14.2355673"><ele>161.0</ele><time>2026-05-01T07:34:13.808Z</time></trkpt><trkpt lat="42.4189197" lon="14.2357877"><ele>160.66666666666666</ele><time>2026-05-01T07:34:14.806Z</time></trkpt><trkpt lat="42.4189977" lon="14.2360152"><ele>160.33333333333334</ele><time>2026-05-01T07:34:15.805Z</time></trkpt><trkpt lat="42.4190806" lon="14.236246"><ele>160.0</ele><time>2026-05-01T07:34:16.812Z</time></trkpt><trkpt lat="42.4191551" lon="14.2364758"><ele>158.66666666666669</ele><time>2026-05-01T07:34:17.812Z</time></trkpt><trkpt lat="42.4192241" lon="14.2367089"><ele>157.33333333333334</ele><time>2026-05-01T07:34:18.809Z</time></trkpt><trkpt lat="42.4192842" lon="14.2369446"><ele>156.0</ele><time>2026-05-01T07:34:19.818Z</time></trkpt><trkpt lat="42.4193511" lon="14.2371662"><ele>154.0</ele><time>2026-05-01T07:34:20.813Z</time></trkpt><trkpt lat="42.4194098" lon="14.2373772"><ele>152.0</ele><time>2026-05-01T07:34:21.812Z</time></trkpt><trkpt lat="42.4194695" lon="14.237584"><ele>150.0</ele><time>2026-05-01T07:34:22.808Z</time></trkpt><trkpt lat="42.4195261" lon="14.2377788"><ele>150.0</ele><time>2026-05-01T07:34:23.819Z</time></trkpt><trkpt lat="42.4195787" lon="14.2379751"><ele>150.0</ele><time>2026-05-01T07:34:24.809Z</time></trkpt><trkpt lat="42.4196335" lon="14.2381707"><ele>150.0</ele><time>2026-05-01T07:34:25.808Z</time></trkpt><trkpt lat="42.4196986" lon="14.2383542"><ele>150.75</ele><time>2026-05-01T07:34:26.813Z</time></trkpt><trkpt lat="42.4197772" lon="14.2385195"><ele>151.5</ele><time>2026-05-01T07:34:27.808Z</time></trkpt><trkpt lat="42.4198676" lon="14.2386551"><ele>152.25</ele><time>2026-05-01T07:34:28.819Z</time></trkpt><trkpt lat="42.4199717" lon="14.2387847"><ele>153.0</ele><time>2026-05-01T07:34:29.825Z</time></trkpt><trkpt lat="42.4200761" lon="14.2389086"><ele>152.0</ele><time>2026-05-01T07:34:30.816Z</time></trkpt><trkpt lat="42.4201667" lon="14.2390547"><ele>151.0</ele><time>2026-05-01T07:34:31.823Z</time></trkpt><trkpt lat="42.4202515" lon="14.2392204"><ele>150.0</ele><time>2026-05-01T07:34:32.814Z</time></trkpt><trkpt lat="42.4203257" lon="14.2393963"><ele>149.0</ele><time>2026-05-01T07:34:33.821Z</time></trkpt><trkpt lat="42.4204034" lon="14.2395835"><ele>149.0</ele><time>2026-05-01T07:34:34.814Z</time></trkpt><trkpt lat="42.4204803" lon="14.2397797"><ele>149.0</ele><time>2026-05-01T07:34:35.818Z</time></trkpt><trkpt lat="42.4205544" lon="14.2399797"><ele>149.0</ele><time>2026-05-01T07:34:36.804Z</time></trkpt><trkpt lat="42.4206259" lon="14.2401913"><ele>149.0</ele><time>2026-05-01T07:34:37.817Z</time></trkpt><trkpt lat="42.4206952" lon="14.2404119"><ele>149.0</ele><time>2026-05-01T07:34:38.808Z</time></trkpt><trkpt lat="42.4207625" lon="14.2406354"><ele>149.0</ele><time>2026-05-01T07:34:39.815Z</time></trkpt><trkpt lat="42.4208191" lon="14.2408669"><ele>147.0</ele><time>2026-05-01T07:34:40.814Z</time></trkpt><trkpt lat="42.4208721" lon="14.2410832"><ele>145.0</ele><time>2026-05-01T07:34:41.814Z</time></trkpt><trkpt lat="42.4209207" lon="14.2412805"><ele>143.0</ele><time>2026-05-01T07:34:42.805Z</time></trkpt><trkpt lat="42.4209642" lon="14.2414597"><ele>141.25</ele><time>2026-05-01T07:34:43.813Z</time></trkpt><trkpt lat="42.4210038" lon="14.2416416"><ele>139.5</ele><time>2026-05-01T07:34:44.813Z</time></trkpt><trkpt lat="42.4210314" lon="14.241824"><ele>137.75</ele><time>2026-05-01T07:34:45.806Z</time></trkpt><trkpt lat="42.4210416" lon="14.242003"><ele>136.0</ele><time>2026-05-01T07:34:46.806Z</time></trkpt><trkpt lat="42.4210353" lon="14.2421832"><ele>135.0</ele><time>2026-05-01T07:34:47.8Z</time></trkpt><trkpt lat="42.4209986" lon="14.2423535"><ele>134.0</ele><time>2026-05-01T07:34:48.826Z</time></trkpt><trkpt lat="42.4209159" lon="14.2424981"><ele>133.0</ele><time>2026-05-01T07:34:49.813Z</time></trkpt><trkpt lat="42.4208199" lon="14.2425839"><ele>132.0</ele><time>2026-05-01T07:34:50.811Z</time></trkpt><trkpt lat="42.4207089" lon="14.2426516"><ele>132.0</ele><time>2026-05-01T07:34:51.81Z</time></trkpt><trkpt lat="42.4205984" lon="14.2427203"><ele>132.0</ele><time>2026-05-01T07:34:52.805Z</time></trkpt><trkpt lat="42.4205091" lon="14.2428299"><ele>132.0</ele><time>2026-05-01T07:34:53.814Z</time></trkpt><trkpt lat="42.4204308" lon="14.242985"><ele>132.0</ele><time>2026-05-01T07:34:54.813Z</time></trkpt><trkpt lat="42.4203645" lon="14.243152"><ele>127.0</ele><time>2026-05-01T07:34:55.819Z</time></trkpt><trkpt lat="42.4203033" lon="14.2433382"><ele>122.0</ele><time>2026-05-01T07:34:56.814Z</time></trkpt><trkpt lat="42.4202373" lon="14.2435387"><ele>117.0</ele><time>2026-05-01T07:34:57.817Z</time></trkpt><trkpt lat="42.420181" lon="14.2437421"><ele>117.0</ele><time>2026-05-01T07:34:58.809Z</time></trkpt><trkpt lat="42.4201162" lon="14.243954"><ele>117.0</ele><time>2026-05-01T07:34:59.809Z</time></trkpt><trkpt lat="42.4200674" lon="14.2441736"><ele>117.0</ele><time>2026-05-01T07:35:00.81Z</time></trkpt><trkpt lat="42.4200373" lon="14.2443932"><ele>116.66666666666666</ele><time>2026-05-01T07:35:01.823Z</time></trkpt><trkpt lat="42.4200225" lon="14.2446203"><ele>116.33333333333333</ele><time>2026-05-01T07:35:02.803Z</time></trkpt><trkpt lat="42.4200059" lon="14.2448583"><ele>116.0</ele><time>2026-05-01T07:35:03.811Z</time></trkpt><trkpt lat="42.4199968" lon="14.2451027"><ele>116.0</ele><time>2026-05-01T07:35:04.813Z</time></trkpt><trkpt lat="42.419984" lon="14.2453513"><ele>116.0</ele><time>2026-05-01T07:35:05.812Z</time></trkpt><trkpt lat="42.4199738" lon="14.2456075"><ele>116.0</ele><time>2026-05-01T07:35:06.799Z</time></trkpt><trkpt lat="42.4199601" lon="14.245866"><ele>115.66666666666666</ele><time>2026-05-01T07:35:07.802Z</time></trkpt><trkpt lat="42.4199477" lon="14.2461236"><ele>115.33333333333334</ele><time>2026-05-01T07:35:08.812Z</time></trkpt><trkpt lat="42.4199318" lon="14.2463705"><ele>115.0</ele><time>2026-05-01T07:35:09.806Z</time></trkpt><trkpt lat="42.419922" lon="14.2466084"><ele>115.0</ele><time>2026-05-01T07:35:10.805Z</time></trkpt><trkpt lat="42.4199109" lon="14.2468373"><ele>115.0</ele><time>2026-05-01T07:35:11.802Z</time></trkpt><trkpt lat="42.4199148" lon="14.2470679"><ele>115.0</ele><time>2026-05-01T07:35:12.815Z</time></trkpt><trkpt lat="42.4199285" lon="14.2472941"><ele>113.66666666666667</ele><time>2026-05-01T07:35:13.805Z</time></trkpt><trkpt lat="42.4199518" lon="14.2475202"><ele>112.33333333333334</ele><time>2026-05-01T07:35:14.834Z</time></trkpt><trkpt lat="42.419981" lon="14.2477393"><ele>111.0</ele><time>2026-05-01T07:35:15.816Z</time></trkpt><trkpt lat="42.4200149" lon="14.247938"><ele>111.0</ele><time>2026-05-01T07:35:16.813Z</time></trkpt><trkpt lat="42.4200484" lon="14.2481074"><ele>111.0</ele><time>2026-05-01T07:35:17.81Z</time></trkpt><trkpt lat="42.4200697" lon="14.2482518"><ele>111.0</ele><time>2026-05-01T07:35:18.833Z</time></trkpt><trkpt lat="42.4200945" lon="14.2483735"><ele>111.0</ele><time>2026-05-01T07:35:19.809Z</time></trkpt><trkpt lat="42.4201126" lon="14.248485"><ele>111.0</ele><time>2026-05-01T07:35:20.808Z</time></trkpt><trkpt lat="42.4201322" lon="14.2485785"><ele>110.0</ele><time>2026-05-01T07:35:21.817Z</time></trkpt><trkpt lat="42.4201639" lon="14.2487126"><ele>109.0</ele><time>2026-05-01T07:35:23.805Z</time></trkpt><trkpt lat="42.4201573" lon="14.2488146"><ele>108.0</ele><time>2026-05-01T07:35:25.813Z</time></trkpt><trkpt lat="42.4200813" lon="14.2489057"><ele>107.0</ele><time>2026-05-01T07:35:27.812Z</time></trkpt><trkpt lat="42.4200248" lon="14.2489564"><ele>106.0</ele><time>2026-05-01T07:35:28.811Z</time></trkpt><trkpt lat="42.4199668" lon="14.2490129"><ele>105.0</ele><time>2026-05-01T07:35:29.859Z</time></trkpt><trkpt lat="42.4199104" lon="14.2490577"><ele>104.0</ele><time>2026-05-01T07:35:30.809Z</time></trkpt><trkpt lat="42.4198555" lon="14.2491156"><ele>103.0</ele><time>2026-05-01T07:35:31.811Z</time></trkpt><trkpt lat="42.4198044" lon="14.2491707"><ele>102.0</ele><time>2026-05-01T07:35:32.81Z</time></trkpt><trkpt lat="42.4197284" lon="14.2492591"><ele>101.0</ele><time>2026-05-01T07:35:34.84Z</time></trkpt><trkpt lat="42.4196668" lon="14.2493194"><ele>100.0</ele><time>2026-05-01T07:35:36.831Z</time></trkpt><trkpt lat="42.4195668" lon="14.249304"><ele>99.0</ele><time>2026-05-01T07:35:38.82Z</time></trkpt><trkpt lat="42.4195065" lon="14.2492751"><ele>96.5</ele><time>2026-05-01T07:35:39.809Z</time></trkpt><trkpt lat="42.4194452" lon="14.2492396"><ele>94.0</ele><time>2026-05-01T07:35:40.828Z</time></trkpt><trkpt lat="42.4193798" lon="14.2492108"><ele>91.5</ele><time>2026-05-01T07:35:41.82Z</time></trkpt><trkpt lat="42.4193008" lon="14.2491864"><ele>89.0</ele><time>2026-05-01T07:35:42.815Z</time></trkpt><trkpt lat="42.4192187" lon="14.2491648"><ele>86.5</ele><time>2026-05-01T07:35:43.815Z</time></trkpt><trkpt lat="42.4191332" lon="14.2491403"><ele>84.0</ele><time>2026-05-01T07:35:44.807Z</time></trkpt><trkpt lat="42.4190561" lon="14.2491148"><ele>84.0</ele><time>2026-05-01T07:35:45.808Z</time></trkpt><trkpt lat="42.4189792" lon="14.2490992"><ele>84.0</ele><time>2026-05-01T07:35:46.825Z</time></trkpt><trkpt lat="42.4189014" lon="14.2490819"><ele>84.0</ele><time>2026-05-01T07:35:47.803Z</time></trkpt><trkpt lat="42.4188311" lon="14.2490666"><ele>84.0</ele><time>2026-05-01T07:35:48.827Z</time></trkpt><trkpt lat="42.4187674" lon="14.2490574"><ele>84.0</ele><time>2026-05-01T07:35:49.806Z</time></trkpt><trkpt lat="42.4187007" lon="14.2490391"><ele>84.0</ele><time>2026-05-01T07:35:50.813Z</time></trkpt><trkpt lat="42.4186358" lon="14.2490171"><ele>84.0</ele><time>2026-05-01T07:35:51.809Z</time></trkpt><trkpt lat="42.4185712" lon="14.2489994"><ele>81.2</ele><time>2026-05-01T07:35:52.831Z</time></trkpt><trkpt lat="42.4185053" lon="14.248979"><ele>78.4</ele><time>2026-05-01T07:35:53.821Z</time></trkpt><trkpt lat="42.418435" lon="14.2489587"><ele>75.6</ele><time>2026-05-01T07:35:54.815Z</time></trkpt><trkpt lat="42.4183439" lon="14.248941"><ele>72.8</ele><time>2026-05-01T07:35:55.803Z</time></trkpt><trkpt lat="42.418153" lon="14.2489005"><ele>70.0</ele><time>2026-05-01T07:35:57.82Z</time></trkpt><trkpt lat="42.4180567" lon="14.2489069"><ele>66.6</ele><time>2026-05-01T07:35:58.801Z</time></trkpt><trkpt lat="42.4179427" lon="14.2488826"><ele>63.2</ele><time>2026-05-01T07:36:00.809Z</time></trkpt><trkpt lat="42.4178825" lon="14.2488387"><ele>59.8</ele><time>2026-05-01T07:36:01.814Z</time></trkpt><trkpt lat="42.4178097" lon="14.2487497"><ele>56.4</ele><time>2026-05-01T07:36:03.821Z</time></trkpt><trkpt lat="42.4177295" lon="14.2486652"><ele>53.0</ele><time>2026-05-01T07:36:05.807Z</time></trkpt><trkpt lat="42.4176434" lon="14.248619"><ele>53.00000000000001</ele><time>2026-05-01T07:36:07.806Z</time></trkpt><trkpt lat="42.4175533" lon="14.2485811"><ele>53.0</ele><time>2026-05-01T07:36:09.819Z</time></trkpt><trkpt lat="42.4174563" lon="14.2485396"><ele>53.0</ele><time>2026-05-01T07:36:11.816Z</time></trkpt><trkpt lat="42.417369" lon="14.2484884"><ele>53.0</ele><time>2026-05-01T07:36:13.815Z</time></trkpt><trkpt lat="42.4173153" lon="14.2484239"><ele>53.00000000000001</ele><time>2026-05-01T07:36:15.806Z</time></trkpt><trkpt lat="42.4172735" lon="14.2483429"><ele>53.0</ele><time>2026-05-01T07:36:17.81Z</time></trkpt><trkpt lat="42.4172405" lon="14.2481961"><ele>53.16666666666667</ele><time>2026-05-01T07:36:19.818Z</time></trkpt><trkpt lat="42.417238" lon="14.2481065"><ele>53.333333333333336</ele><time>2026-05-01T07:36:20.804Z</time></trkpt><trkpt lat="42.4172436" lon="14.2480107"><ele>53.5</ele><time>2026-05-01T07:36:21.819Z</time></trkpt><trkpt lat="42.4172422" lon="14.2478838"><ele>53.66666666666667</ele><time>2026-05-01T07:36:23.803Z</time></trkpt><trkpt lat="42.4172405" lon="14.2477449"><ele>53.833333333333336</ele><time>2026-05-01T07:36:25.813Z</time></trkpt><trkpt lat="42.4172463" lon="14.2476495"><ele>54.0</ele><time>2026-05-01T07:36:26.804Z</time></trkpt><trkpt lat="42.4172493" lon="14.2475543"><ele>54.0</ele><time>2026-05-01T07:36:27.81Z</time></trkpt><trkpt lat="42.4172534" lon="14.2474687"><ele>54.0</ele><time>2026-05-01T07:36:28.809Z</time></trkpt><trkpt lat="42.4172388" lon="14.2473599"><ele>54.0</ele><time>2026-05-01T07:36:31.846Z</time></trkpt><trkpt lat="42.4172061" lon="14.2472579"><ele>54.0</ele><time>2026-05-01T07:36:34.808Z</time></trkpt><trkpt lat="42.4171528" lon="14.2473331"><ele>54.0</ele><time>2026-05-01T07:36:37.82Z</time></trkpt><trkpt lat="42.4172047" lon="14.2473936"><ele>54.0</ele><time>2026-05-01T07:36:39.807Z</time></trkpt><trkpt lat="42.4172353" lon="14.247487"><ele>54.0</ele><time>2026-05-01T07:36:41.807Z</time></trkpt><trkpt lat="42.4172387" lon="14.2476109"><ele>54.0</ele><time>2026-05-01T07:36:43.802Z</time></trkpt><trkpt lat="42.4172384" lon="14.2477203"><ele>54.0</ele><time>2026-05-01T07:36:45.814Z</time></trkpt><trkpt lat="42.417241" lon="14.2478206"><ele>54.0</ele><time>2026-05-01T07:36:47.847Z</time></trkpt><trkpt lat="42.4172388" lon="14.2479289"><ele>54.0</ele><time>2026-05-01T07:36:50.812Z</time></trkpt><trkpt lat="42.4171524" lon="14.2479097"><ele>54.0</ele><time>2026-05-01T07:36:53.807Z</time></trkpt><trkpt lat="42.4170422" lon="14.2478862"><ele>54.0</ele><time>2026-05-01T07:36:55.821Z</time></trkpt><trkpt lat="42.4169451" lon="14.2478721"><ele>52.166666666666664</ele><time>2026-05-01T07:36:57.814Z</time></trkpt><trkpt lat="42.4168733" lon="14.2478423"><ele>50.333333333333336</ele><time>2026-05-01T07:36:59.817Z</time></trkpt><trkpt lat="42.4168079" lon="14.2478238"><ele>48.5</ele><time>2026-05-01T07:37:01.803Z</time></trkpt><trkpt lat="42.4167142" lon="14.2477923"><ele>46.66666666666667</ele><time>2026-05-01T07:37:05.829Z</time></trkpt><trkpt lat="42.4165893" lon="14.2477824"><ele>44.833333333333336</ele><time>2026-05-01T07:37:07.806Z</time></trkpt><trkpt lat="42.4165259" lon="14.24779"><ele>43.0</ele><time>2026-05-01T07:37:08.81Z</time></trkpt><trkpt lat="42.4164512" lon="14.2478393"><ele>43.0</ele><time>2026-05-01T07:37:10.816Z</time></trkpt><trkpt lat="42.4163602" lon="14.2479806"><ele>43.0</ele><time>2026-05-01T07:37:12.832Z</time></trkpt><trkpt lat="42.4163038" lon="14.2480651"><ele>43.0</ele><time>2026-05-01T07:37:13.797Z</time></trkpt><trkpt lat="42.4162551" lon="14.2481427"><ele>43.0</ele><time>2026-05-01T07:37:14.806Z</time></trkpt><trkpt lat="42.4162043" lon="14.2482117"><ele>43.0</ele><time>2026-05-01T07:37:15.801Z</time></trkpt><trkpt lat="42.4161471" lon="14.2482849"><ele>43.0</ele><time>2026-05-01T07:37:16.81Z</time></trkpt><trkpt lat="42.4160878" lon="14.2483635"><ele>44.57142857142858</ele><time>2026-05-01T07:37:17.821Z</time></trkpt><trkpt lat="42.4160273" lon="14.2484353"><ele>46.142857142857146</ele><time>2026-05-01T07:37:18.818Z</time></trkpt><trkpt lat="42.4159703" lon="14.2485078"><ele>47.714285714285715</ele><time>2026-05-01T07:37:19.802Z</time></trkpt><trkpt lat="42.4159117" lon="14.248576"><ele>49.28571428571429</ele><time>2026-05-01T07:37:20.816Z</time></trkpt><trkpt lat="42.4158565" lon="14.2486408"><ele>50.857142857142854</ele><time>2026-05-01T07:37:21.8Z</time></trkpt><trkpt lat="42.4158019" lon="14.2486983"><ele>52.42857142857143</ele><time>2026-05-01T07:37:22.812Z</time></trkpt><trkpt lat="42.4157511" lon="14.2487529"><ele>54.0</ele><time>2026-05-01T07:37:23.792Z</time></trkpt><trkpt lat="42.4156946" lon="14.2488109"><ele>54.0</ele><time>2026-05-01T07:37:24.811Z</time></trkpt><trkpt lat="42.415631" lon="14.2488718"><ele>54.0</ele><time>2026-05-01T07:37:25.818Z</time></trkpt><trkpt lat="42.4155566" lon="14.2489415"><ele>54.0</ele><time>2026-05-01T07:37:26.807Z</time></trkpt><trkpt lat="42.4154801" lon="14.2490191"><ele>54.0</ele><time>2026-05-01T07:37:27.823Z</time></trkpt><trkpt lat="42.4154169" lon="14.2491002"><ele>54.0</ele><time>2026-05-01T07:37:28.81Z</time></trkpt><trkpt lat="42.415368" lon="14.2491852"><ele>54.0</ele><time>2026-05-01T07:37:29.805Z</time></trkpt><trkpt lat="42.4153272" lon="14.2492605"><ele>57.14285714285714</ele><time>2026-05-01T07:37:30.811Z</time></trkpt><trkpt lat="42.4152849" lon="14.2493341"><ele>60.285714285714285</ele><time>2026-05-01T07:37:31.815Z</time></trkpt><trkpt lat="42.4152381" lon="14.2494101"><ele>63.42857142857143</ele><time>2026-05-01T07:37:32.816Z</time></trkpt><trkpt lat="42.4151814" lon="14.2494782"><ele>66.57142857142857</ele><time>2026-05-01T07:37:33.816Z</time></trkpt><trkpt lat="42.4151311" lon="14.2495416"><ele>69.71428571428572</ele><time>2026-05-01T07:37:34.808Z</time></trkpt><trkpt lat="42.4150844" lon="14.2496006"><ele>72.85714285714285</ele><time>2026-05-01T07:37:35.812Z</time></trkpt><trkpt lat="42.4150297" lon="14.2496556"><ele>76.0</ele><time>2026-05-01T07:37:36.809Z</time></trkpt><trkpt lat="42.4149663" lon="14.2497054"><ele>76.0</ele><time>2026-05-01T07:37:37.815Z</time></trkpt><trkpt lat="42.4148965" lon="14.2497558"><ele>76.0</ele><time>2026-05-01T07:37:38.818Z</time></trkpt><trkpt lat="42.4148209" lon="14.2498147"><ele>76.0</ele><time>2026-05-01T07:37:39.804Z</time></trkpt><trkpt lat="42.4147441" lon="14.2498829"><ele>76.0</ele><time>2026-05-01T07:37:40.805Z</time></trkpt><trkpt lat="42.4146673" lon="14.2499614"><ele>76.0</ele><time>2026-05-01T07:37:41.811Z</time></trkpt><trkpt lat="42.4145885" lon="14.2500308"><ele>76.0</ele><time>2026-05-01T07:37:42.805Z</time></trkpt><trkpt lat="42.4145144" lon="14.2501069"><ele>78.0</ele><time>2026-05-01T07:37:43.816Z</time></trkpt><trkpt lat="42.4144438" lon="14.2501699"><ele>80.0</ele><time>2026-05-01T07:37:44.81Z</time></trkpt><trkpt lat="42.4143813" lon="14.2502251"><ele>82.0</ele><time>2026-05-01T07:37:45.814Z</time></trkpt><trkpt lat="42.4142856" lon="14.2502543"><ele>84.0</ele><time>2026-05-01T07:37:47.813Z</time></trkpt><trkpt lat="42.4142008" lon="14.2501325"><ele>86.0</ele><time>2026-05-01T07:37:49.812Z</time></trkpt><trkpt lat="42.4141581" lon="14.2500502"><ele>86.0</ele><time>2026-05-01T07:37:50.806Z</time></trkpt><trkpt lat="42.4141001" lon="14.2499711"><ele>86.0</ele><time>2026-05-01T07:37:51.815Z</time></trkpt><trkpt lat="42.4140186" lon="14.2498976"><ele>86.0</ele><time>2026-05-01T07:37:52.822Z</time></trkpt><trkpt lat="42.4139301" lon="14.2498303"><ele>86.0</ele><time>2026-05-01T07:37:53.805Z</time></trkpt><trkpt lat="42.413839" lon="14.2497868"><ele>86.0</ele><time>2026-05-01T07:37:54.816Z</time></trkpt><trkpt lat="42.4137385" lon="14.249764"><ele>86.6</ele><time>2026-05-01T07:37:55.818Z</time></trkpt><trkpt lat="42.4136341" lon="14.2497517"><ele>87.19999999999999</ele><time>2026-05-01T07:37:56.805Z</time></trkpt><trkpt lat="42.413528" lon="14.2497631"><ele>87.80000000000001</ele><time>2026-05-01T07:37:57.818Z</time></trkpt><trkpt lat="42.4134278" lon="14.2497899"><ele>88.4</ele><time>2026-05-01T07:37:58.813Z</time></trkpt><trkpt lat="42.4133545" lon="14.2498145"><ele>89.0</ele><time>2026-05-01T07:37:59.806Z</time></trkpt><trkpt lat="42.4132719" lon="14.2498652"><ele>89.0</ele><time>2026-05-01T07:38:01.813Z</time></trkpt><trkpt lat="42.4132019" lon="14.2498878"><ele>89.0</ele><time>2026-05-01T07:38:04.809Z</time></trkpt><trkpt lat="42.413157" lon="14.2498056"><ele>89.0</ele><time>2026-05-01T07:38:06.817Z</time></trkpt><trkpt lat="42.4131478" lon="14.2497142"><ele>89.0</ele><time>2026-05-01T07:38:07.808Z</time></trkpt><trkpt lat="42.4131452" lon="14.2495927"><ele>89.0</ele><time>2026-05-01T07:38:08.805Z</time></trkpt><trkpt lat="42.4131337" lon="14.2494401"><ele>89.0</ele><time>2026-05-01T07:38:09.805Z</time></trkpt><trkpt lat="42.4131133" lon="14.2492608"><ele>90.25</ele><time>2026-05-01T07:38:10.807Z</time></trkpt><trkpt lat="42.4130872" lon="14.2490794"><ele>91.5</ele><time>2026-05-01T07:38:11.823Z</time></trkpt><trkpt lat="42.4130587" lon="14.2489008"><ele>92.75</ele><time>2026-05-01T07:38:12.812Z</time></trkpt><trkpt lat="42.4130306" lon="14.2487256"><ele>94.0</ele><time>2026-05-01T07:38:13.809Z</time></trkpt><trkpt lat="42.4130049" lon="14.2485611"><ele>94.75</ele><time>2026-05-01T07:38:14.809Z</time></trkpt><trkpt lat="42.4129812" lon="14.2484129"><ele>95.5</ele><time>2026-05-01T07:38:15.81Z</time></trkpt><trkpt lat="42.4129579" lon="14.2482529"><ele>96.25</ele><time>2026-05-01T07:38:16.813Z</time></trkpt><trkpt lat="42.4129287" lon="14.2480821"><ele>97.0</ele><time>2026-05-01T07:38:17.819Z</time></trkpt><trkpt lat="42.4129032" lon="14.2479172"><ele>97.0</ele><time>2026-05-01T07:38:18.806Z</time></trkpt><trkpt lat="42.4128722" lon="14.2477502"><ele>97.0</ele><time>2026-05-01T07:38:19.84Z</time></trkpt><trkpt lat="42.412843" lon="14.2475977"><ele>97.0</ele><time>2026-05-01T07:38:20.809Z</time></trkpt><trkpt lat="42.4128204" lon="14.2474614"><ele>97.0</ele><time>2026-05-01T07:38:21.807Z</time></trkpt><trkpt lat="42.412798" lon="14.2473594"><ele>97.0</ele><time>2026-05-01T07:38:22.818Z</time></trkpt><trkpt lat="42.412773" lon="14.2472354"><ele>98.8</ele><time>2026-05-01T07:38:24.826Z</time></trkpt><trkpt lat="42.412811" lon="14.2471378"><ele>100.6</ele><time>2026-05-01T07:38:27.811Z</time></trkpt><trkpt lat="42.4129308" lon="14.2471019"><ele>102.39999999999999</ele><time>2026-05-01T07:38:29.804Z</time></trkpt><trkpt lat="42.4130205" lon="14.2470589"><ele>104.19999999999999</ele><time>2026-05-01T07:38:30.801Z</time></trkpt><trkpt lat="42.413121" lon="14.2469849"><ele>106.0</ele><time>2026-05-01T07:38:31.814Z</time></trkpt><trkpt lat="42.413234" lon="14.2469248"><ele>106.6</ele><time>2026-05-01T07:38:32.803Z</time></trkpt><trkpt lat="42.4133303" lon="14.2468634"><ele>107.19999999999999</ele><time>2026-05-01T07:38:33.81Z</time></trkpt><trkpt lat="42.4134174" lon="14.2468125"><ele>107.80000000000001</ele><time>2026-05-01T07:38:34.812Z</time></trkpt><trkpt lat="42.4134977" lon="14.2467688"><ele>108.4</ele><time>2026-05-01T07:38:35.806Z</time></trkpt><trkpt lat="42.4135722" lon="14.2467347"><ele>109.0</ele><time>2026-05-01T07:38:36.814Z</time></trkpt><trkpt lat="42.4136531" lon="14.2466696"><ele>109.0</ele><time>2026-05-01T07:38:38.816Z</time></trkpt><trkpt lat="42.4136935" lon="14.2465206"><ele>109.0</ele><time>2026-05-01T07:38:40.812Z</time></trkpt><trkpt lat="42.4137244" lon="14.2463733"><ele>109.0</ele><time>2026-05-01T07:38:41.807Z</time></trkpt><trkpt lat="42.4137813" lon="14.2462431"><ele>109.0</ele><time>2026-05-01T07:38:42.819Z</time></trkpt><trkpt lat="42.4138228" lon="14.2461397"><ele>109.0</ele><time>2026-05-01T07:38:43.804Z</time></trkpt><trkpt lat="42.4138624" lon="14.2460322"><ele>106.33333333333334</ele><time>2026-05-01T07:38:44.809Z</time></trkpt><trkpt lat="42.4139009" lon="14.2459067"><ele>103.66666666666667</ele><time>2026-05-01T07:38:45.812Z</time></trkpt><trkpt lat="42.4139172" lon="14.2457763"><ele>101.0</ele><time>2026-05-01T07:38:46.814Z</time></trkpt><trkpt lat="42.4139215" lon="14.2456619"><ele>98.33333333333334</ele><time>2026-05-01T07:38:47.814Z</time></trkpt><trkpt lat="42.4139068" lon="14.2455593"><ele>95.66666666666667</ele><time>2026-05-01T07:38:49.806Z</time></trkpt><trkpt lat="42.4139132" lon="14.245451"><ele>93.0</ele><time>2026-05-01T07:38:53.814Z</time></trkpt><trkpt lat="42.4139081" lon="14.2453594"><ele>93.0</ele><time>2026-05-01T07:38:56.814Z</time></trkpt><trkpt lat="42.4138877" lon="14.2452715"><ele>93.0</ele><time>2026-05-01T07:39:00.815Z</time></trkpt><trkpt lat="42.4138987" lon="14.2451858"><ele>93.0</ele><time>2026-05-01T07:39:21.804Z</time></trkpt><trkpt lat="42.4139031" lon="14.2453363"><ele>93.0</ele><time>2026-05-01T07:39:35.809Z</time></trkpt><trkpt lat="42.4139125" lon="14.2454473"><ele>93.0</ele><time>2026-05-01T07:39:37.808Z</time></trkpt><trkpt lat="42.4139221" lon="14.2455893"><ele>93.0</ele><time>2026-05-01T07:39:39.807Z</time></trkpt><trkpt lat="42.4139294" lon="14.2457411"><ele>93.0</ele><time>2026-05-01T07:39:41.844Z</time></trkpt><trkpt lat="42.4139257" lon="14.2458444"><ele>93.0</ele><time>2026-05-01T07:39:43.811Z</time></trkpt><trkpt lat="42.4139131" lon="14.2459444"><ele>93.0</ele><time>2026-05-01T07:39:45.819Z</time></trkpt><trkpt lat="42.4138652" lon="14.2460773"><ele>93.0</ele><time>2026-05-01T07:39:47.811Z</time></trkpt><trkpt lat="42.4138336" lon="14.246175"><ele>93.0</ele><time>2026-05-01T07:39:49.809Z</time></trkpt><trkpt lat="42.4137743" lon="14.246099"><ele>93.0</ele><time>2026-05-01T07:39:53.806Z</time></trkpt><trkpt lat="42.4137872" lon="14.2459357"><ele>97.60000000000001</ele><time>2026-05-01T07:39:55.797Z</time></trkpt><trkpt lat="42.4137858" lon="14.245799"><ele>102.2</ele><time>2026-05-01T07:39:56.803Z</time></trkpt><trkpt lat="42.4137704" lon="14.2456637"><ele>106.8</ele><time>2026-05-01T07:39:57.808Z</time></trkpt><trkpt lat="42.4137381" lon="14.245551"><ele>111.4</ele><time>2026-05-01T07:39:58.804Z</time></trkpt><trkpt lat="42.4137012" lon="14.2454407"><ele>116.0</ele><time>2026-05-01T07:39:59.804Z</time></trkpt><trkpt lat="42.4136636" lon="14.2453363"><ele>116.83333333333333</ele><time>2026-05-01T07:40:00.807Z</time></trkpt><trkpt lat="42.4136321" lon="14.2452522"><ele>117.66666666666666</ele><time>2026-05-01T07:40:01.804Z</time></trkpt><trkpt lat="42.4135953" lon="14.2451777"><ele>118.5</ele><time>2026-05-01T07:40:02.8Z</time></trkpt><trkpt lat="42.4135628" lon="14.2451009"><ele>119.33333333333334</ele><time>2026-05-01T07:40:03.811Z</time></trkpt><trkpt lat="42.4135329" lon="14.2449554"><ele>120.16666666666667</ele><time>2026-05-01T07:40:05.812Z</time></trkpt><trkpt lat="42.4135365" lon="14.2447735"><ele>121.0</ele><time>2026-05-01T07:40:07.8Z</time></trkpt><trkpt lat="42.4135356" lon="14.2446725"><ele>121.33333333333334</ele><time>2026-05-01T07:40:08.811Z</time></trkpt><trkpt lat="42.4135174" lon="14.2445651"><ele>121.66666666666667</ele><time>2026-05-01T07:40:09.808Z</time></trkpt><trkpt lat="42.4134782" lon="14.2444689"><ele>122.0</ele><time>2026-05-01T07:40:10.814Z</time></trkpt><trkpt lat="42.4134422" lon="14.2443687"><ele>122.33333333333334</ele><time>2026-05-01T07:40:11.818Z</time></trkpt><trkpt lat="42.4133953" lon="14.2442689"><ele>122.66666666666667</ele><time>2026-05-01T07:40:12.815Z</time></trkpt><trkpt lat="42.413352" lon="14.2441587"><ele>123.0</ele><time>2026-05-01T07:40:13.804Z</time></trkpt><trkpt lat="42.4133042" lon="14.2440477"><ele>121.80000000000001</ele><time>2026-05-01T07:40:14.812Z</time></trkpt><trkpt lat="42.4132513" lon="14.2439322"><ele>120.60000000000001</ele><time>2026-05-01T07:40:15.819Z</time></trkpt><trkpt lat="42.4131984" lon="14.2438461"><ele>119.39999999999999</ele><time>2026-05-01T07:40:16.815Z</time></trkpt><trkpt lat="42.4131546" lon="14.2437463"><ele>118.19999999999999</ele><time>2026-05-01T07:40:17.825Z</time></trkpt><trkpt lat="42.413105" lon="14.2436061"><ele>117.0</ele><time>2026-05-01T07:40:18.811Z</time></trkpt><trkpt lat="42.4130633" lon="14.2434427"><ele>117.0</ele><time>2026-05-01T07:40:19.815Z</time></trkpt><trkpt lat="42.4130418" lon="14.2432641"><ele>117.0</ele><time>2026-05-01T07:40:20.821Z</time></trkpt><trkpt lat="42.4130435" lon="14.2430861"><ele>117.0</ele><time>2026-05-01T07:40:21.814Z</time></trkpt><trkpt lat="42.4130535" lon="14.2428999"><ele>117.0</ele><time>2026-05-01T07:40:22.821Z</time></trkpt><trkpt lat="42.4130608" lon="14.2427231"><ele>115.75</ele><time>2026-05-01T07:40:23.805Z</time></trkpt><trkpt lat="42.413049" lon="14.2425658"><ele>114.5</ele><time>2026-05-01T07:40:24.816Z</time></trkpt><trkpt lat="42.4130228" lon="14.2424107"><ele>113.25</ele><time>2026-05-01T07:40:25.812Z</time></trkpt><trkpt lat="42.4129635" lon="14.2422621"><ele>112.0</ele><time>2026-05-01T07:40:26.817Z</time></trkpt><trkpt lat="42.4128972" lon="14.2420981"><ele>113.5</ele><time>2026-05-01T07:40:27.819Z</time></trkpt><trkpt lat="42.4128267" lon="14.2419263"><ele>115.0</ele><time>2026-05-01T07:40:28.818Z</time></trkpt><trkpt lat="42.4127691" lon="14.2417602"><ele>116.5</ele><time>2026-05-01T07:40:29.819Z</time></trkpt><trkpt lat="42.4127291" lon="14.2416084"><ele>118.0</ele><time>2026-05-01T07:40:30.811Z</time></trkpt><trkpt lat="42.4126922" lon="14.241453"><ele>118.0</ele><time>2026-05-01T07:40:31.806Z</time></trkpt><trkpt lat="42.4126426" lon="14.2413028"><ele>118.0</ele><time>2026-05-01T07:40:32.806Z</time></trkpt><trkpt lat="42.4125784" lon="14.2411653"><ele>118.0</ele><time>2026-05-01T07:40:33.818Z</time></trkpt><trkpt lat="42.4125165" lon="14.2410441"><ele>118.0</ele><time>2026-05-01T07:40:34.819Z</time></trkpt><trkpt lat="42.412444" lon="14.2409402"><ele>118.0</ele><time>2026-05-01T07:40:35.811Z</time></trkpt><trkpt lat="42.412363" lon="14.2408442"><ele>118.00000000000001</ele><time>2026-05-01T07:40:36.801Z</time></trkpt><trkpt lat="42.412276" lon="14.2407428"><ele>118.00000000000001</ele><time>2026-05-01T07:40:37.808Z</time></trkpt><trkpt lat="42.4122016" lon="14.2406409"><ele>118.0</ele><time>2026-05-01T07:40:38.804Z</time></trkpt><trkpt lat="42.4121362" lon="14.2405546"><ele>118.0</ele><time>2026-05-01T07:40:39.815Z</time></trkpt><trkpt lat="42.4120684" lon="14.2404823"><ele>119.4</ele><time>2026-05-01T07:40:40.807Z</time></trkpt><trkpt lat="42.412002" lon="14.2404246"><ele>120.80000000000001</ele><time>2026-05-01T07:40:41.804Z</time></trkpt><trkpt lat="42.411903" lon="14.2403733"><ele>122.2</ele><time>2026-05-01T07:40:43.819Z</time></trkpt><trkpt lat="42.4118479" lon="14.2402682"><ele>123.6</ele><time>2026-05-01T07:40:45.811Z</time></trkpt><trkpt lat="42.4117976" lon="14.2401534"><ele>125.0</ele><time>2026-05-01T07:40:47.811Z</time></trkpt><trkpt lat="42.4117371" lon="14.2400223"><ele>124.99999999999999</ele><time>2026-05-01T07:40:49.821Z</time></trkpt><trkpt lat="42.4117034" lon="14.2399415"><ele>125.0</ele><time>2026-05-01T07:40:50.809Z</time></trkpt><trkpt lat="42.4116672" lon="14.2398441"><ele>125.0</ele><time>2026-05-01T07:40:51.839Z</time></trkpt><trkpt lat="42.4116263" lon="14.2397473"><ele>125.0</ele><time>2026-05-01T07:40:52.81Z</time></trkpt><trkpt lat="42.411591" lon="14.2396495"><ele>124.99999999999999</ele><time>2026-05-01T07:40:53.806Z</time></trkpt><trkpt lat="42.4115564" lon="14.2395486"><ele>125.0</ele><time>2026-05-01T07:40:54.81Z</time></trkpt><trkpt lat="42.4115142" lon="14.2394234"><ele>123.4</ele><time>2026-05-01T07:40:55.834Z</time></trkpt><trkpt lat="42.4114703" lon="14.2392983"><ele>121.8</ele><time>2026-05-01T07:40:56.806Z</time></trkpt><trkpt lat="42.4114279" lon="14.2391874"><ele>120.19999999999999</ele><time>2026-05-01T07:40:57.808Z</time></trkpt><trkpt lat="42.4113791" lon="14.2390761"><ele>118.6</ele><time>2026-05-01T07:40:58.819Z</time></trkpt><trkpt lat="42.411322" lon="14.2389443"><ele>117.0</ele><time>2026-05-01T07:40:59.803Z</time></trkpt><trkpt lat="42.4112611" lon="14.2387977"><ele>123.25</ele><time>2026-05-01T07:41:00.839Z</time></trkpt><trkpt lat="42.4112069" lon="14.2386563"><ele>129.5</ele><time>2026-05-01T07:41:01.806Z</time></trkpt><trkpt lat="42.4111441" lon="14.238523"><ele>135.75</ele><time>2026-05-01T07:41:02.802Z</time></trkpt><trkpt lat="42.411079" lon="14.238393"><ele>142.0</ele><time>2026-05-01T07:41:03.799Z</time></trkpt><trkpt lat="42.4110145" lon="14.2382515"><ele>142.0</ele><time>2026-05-01T07:41:04.803Z</time></trkpt><trkpt lat="42.4109598" lon="14.2381111"><ele>142.0</ele><time>2026-05-01T07:41:05.811Z</time></trkpt><trkpt lat="42.4109071" lon="14.2379735"><ele>142.0</ele><time>2026-05-01T07:41:06.806Z</time></trkpt><trkpt lat="42.4108624" lon="14.2378287"><ele>142.0</ele><time>2026-05-01T07:41:07.812Z</time></trkpt><trkpt lat="42.4108184" lon="14.2377042"><ele>142.0</ele><time>2026-05-01T07:41:08.814Z</time></trkpt><trkpt lat="42.4107926" lon="14.2376055"><ele>142.0</ele><time>2026-05-01T07:41:09.799Z</time></trkpt><trkpt lat="42.4107576" lon="14.2375175"><ele>142.0</ele><time>2026-05-01T07:41:10.802Z</time></trkpt><trkpt lat="42.4107137" lon="14.237435"><ele>142.0</ele><time>2026-05-01T07:41:11.806Z</time></trkpt><trkpt lat="42.4106536" lon="14.2373386"><ele>142.0</ele><time>2026-05-01T07:41:12.809Z</time></trkpt><trkpt lat="42.4105894" lon="14.2372342"><ele>142.0</ele><time>2026-05-01T07:41:13.837Z</time></trkpt><trkpt lat="42.4105254" lon="14.2371338"><ele>142.0</ele><time>2026-05-01T07:41:14.805Z</time></trkpt><trkpt lat="42.410474" lon="14.2370569"><ele>143.2</ele><time>2026-05-01T07:41:15.811Z</time></trkpt><trkpt lat="42.4104013" lon="14.2369236"><ele>144.39999999999998</ele><time>2026-05-01T07:41:17.81Z</time></trkpt><trkpt lat="42.4103717" lon="14.2368174"><ele>145.60000000000002</ele><time>2026-05-01T07:41:18.823Z</time></trkpt><trkpt lat="42.410336" lon="14.2366864"><ele>146.8</ele><time>2026-05-01T07:41:19.809Z</time></trkpt><trkpt lat="42.4102982" lon="14.2365568"><ele>148.0</ele><time>2026-05-01T07:41:20.811Z</time></trkpt><trkpt lat="42.4102496" lon="14.2364515"><ele>148.0</ele><time>2026-05-01T07:41:21.821Z</time></trkpt><trkpt lat="42.4101981" lon="14.2363536"><ele>148.0</ele><time>2026-05-01T07:41:22.813Z</time></trkpt><trkpt lat="42.4101436" lon="14.23627"><ele>148.0</ele><time>2026-05-01T07:41:23.815Z</time></trkpt><trkpt lat="42.4100822" lon="14.2361874"><ele>148.0</ele><time>2026-05-01T07:41:24.813Z</time></trkpt><trkpt lat="42.4099952" lon="14.2360942"><ele>148.0</ele><time>2026-05-01T07:41:25.809Z</time></trkpt><trkpt lat="42.4098927" lon="14.2359815"><ele>148.0</ele><time>2026-05-01T07:41:26.8Z</time></trkpt><trkpt lat="42.4097965" lon="14.2358807"><ele>148.0</ele><time>2026-05-01T07:41:27.823Z</time></trkpt><trkpt lat="42.4097132" lon="14.2357834"><ele>148.0</ele><time>2026-05-01T07:41:28.828Z</time></trkpt><trkpt lat="42.4096218" lon="14.2356709"><ele>148.0</ele><time>2026-05-01T07:41:29.813Z</time></trkpt><trkpt lat="42.4095335" lon="14.2355441"><ele>148.0</ele><time>2026-05-01T07:41:30.817Z</time></trkpt><trkpt lat="42.4094354" lon="14.2354151"><ele>148.0</ele><time>2026-05-01T07:41:31.809Z</time></trkpt><trkpt lat="42.4093398" lon="14.2352977"><ele>148.0</ele><time>2026-05-01T07:41:32.817Z</time></trkpt><trkpt lat="42.4092633" lon="14.2351907"><ele>148.0</ele><time>2026-05-01T07:41:33.808Z</time></trkpt><trkpt lat="42.4091955" lon="14.2351199"><ele>148.0</ele><time>2026-05-01T07:41:34.809Z</time></trkpt><trkpt lat="42.4091446" lon="14.2350652"><ele>148.0</ele><time>2026-05-01T07:41:35.812Z</time></trkpt><trkpt lat="42.4090922" lon="14.2350079"><ele>148.0</ele><time>2026-05-01T07:41:36.823Z</time></trkpt><trkpt lat="42.4090476" lon="14.2349446"><ele>148.0</ele><time>2026-05-01T07:41:37.814Z</time></trkpt><trkpt lat="42.4090112" lon="14.2347946"><ele>148.0</ele><time>2026-05-01T07:41:39.81Z</time></trkpt><trkpt lat="42.4089854" lon="14.2346922"><ele>148.0</ele><time>2026-05-01T07:41:41.818Z</time></trkpt><trkpt lat="42.4089054" lon="14.234612"><ele>149.6</ele><time>2026-05-01T07:41:43.825Z</time></trkpt><trkpt lat="42.4088527" lon="14.2345624"><ele>151.20000000000002</ele><time>2026-05-01T07:41:44.803Z</time></trkpt><trkpt lat="42.4087672" lon="14.2344769"><ele>152.8</ele><time>2026-05-01T07:41:45.816Z</time></trkpt><trkpt lat="42.4086685" lon="14.2343812"><ele>154.4</ele><time>2026-05-01T07:41:46.804Z</time></trkpt><trkpt lat="42.4085583" lon="14.2342547"><ele>156.0</ele><time>2026-05-01T07:41:47.803Z</time></trkpt><trkpt lat="42.4084561" lon="14.2341263"><ele>156.0</ele><time>2026-05-01T07:41:48.804Z</time></trkpt><trkpt lat="42.4083723" lon="14.2340079"><ele>156.0</ele><time>2026-05-01T07:41:49.816Z</time></trkpt><trkpt lat="42.4083047" lon="14.2338946"><ele>156.0</ele><time>2026-05-01T07:41:50.815Z</time></trkpt><trkpt lat="42.4082509" lon="14.2337544"><ele>156.0</ele><time>2026-05-01T07:41:51.814Z</time></trkpt><trkpt lat="42.4081969" lon="14.2335848"><ele>154.5</ele><time>2026-05-01T07:41:52.807Z</time></trkpt><trkpt lat="42.4081391" lon="14.2334035"><ele>153.0</ele><time>2026-05-01T07:41:53.809Z</time></trkpt><trkpt lat="42.4080712" lon="14.2332236"><ele>151.5</ele><time>2026-05-01T07:41:54.818Z</time></trkpt><trkpt lat="42.408003" lon="14.2330547"><ele>150.0</ele><time>2026-05-01T07:41:55.814Z</time></trkpt><trkpt lat="42.4079496" lon="14.2329458"><ele>153.25</ele><time>2026-05-01T07:41:56.816Z</time></trkpt><trkpt lat="42.407902" lon="14.2328592"><ele>156.5</ele><time>2026-05-01T07:41:57.801Z</time></trkpt><trkpt lat="42.4078222" lon="14.2327596"><ele>159.75</ele><time>2026-05-01T07:41:58.814Z</time></trkpt><trkpt lat="42.4077223" lon="14.2326308"><ele>163.0</ele><time>2026-05-01T07:41:59.818Z</time></trkpt><trkpt lat="42.4076121" lon="14.232494"><ele>163.0</ele><time>2026-05-01T07:42:00.815Z</time></trkpt><trkpt lat="42.4074973" lon="14.2323205"><ele>163.0</ele><time>2026-05-01T07:42:01.817Z</time></trkpt><trkpt lat="42.4073868" lon="14.2321544"><ele>163.0</ele><time>2026-05-01T07:42:02.821Z</time></trkpt><trkpt lat="42.4072921" lon="14.2319988"><ele>163.60000000000002</ele><time>2026-05-01T07:42:03.811Z</time></trkpt><trkpt lat="42.4072129" lon="14.2318516"><ele>164.20000000000002</ele><time>2026-05-01T07:42:04.812Z</time></trkpt><trkpt lat="42.40716" lon="14.2317235"><ele>164.8</ele><time>2026-05-01T07:42:05.818Z</time></trkpt><trkpt lat="42.4071244" lon="14.231621"><ele>165.4</ele><time>2026-05-01T07:42:06.816Z</time></trkpt><trkpt lat="42.4070998" lon="14.2315027"><ele>166.0</ele><time>2026-05-01T07:42:07.813Z</time></trkpt><trkpt lat="42.4070735" lon="14.2313718"><ele>166.0</ele><time>2026-05-01T07:42:08.818Z</time></trkpt><trkpt lat="42.4070352" lon="14.2312449"><ele>166.0</ele><time>2026-05-01T07:42:09.807Z</time></trkpt><trkpt lat="42.4069941" lon="14.2311346"><ele>166.0</ele><time>2026-05-01T07:42:10.817Z</time></trkpt><trkpt lat="42.4069244" lon="14.2310283"><ele>166.0</ele><time>2026-05-01T07:42:11.824Z</time></trkpt><trkpt lat="42.4068489" lon="14.2309303"><ele>166.0</ele><time>2026-05-01T07:42:12.812Z</time></trkpt><trkpt lat="42.4067555" lon="14.2308355"><ele>166.0</ele><time>2026-05-01T07:42:13.827Z</time></trkpt><trkpt lat="42.406656" lon="14.2307233"><ele>166.0</ele><time>2026-05-01T07:42:14.824Z</time></trkpt><trkpt lat="42.4065493" lon="14.2306034"><ele>166.0</ele><time>2026-05-01T07:42:15.803Z</time></trkpt><trkpt lat="42.4064394" lon="14.2304761"><ele>166.0</ele><time>2026-05-01T07:42:16.818Z</time></trkpt><trkpt lat="42.4063346" lon="14.2303342"><ele>167.0</ele><time>2026-05-01T07:42:17.814Z</time></trkpt><trkpt lat="42.4062271" lon="14.2301811"><ele>168.0</ele><time>2026-05-01T07:42:18.808Z</time></trkpt><trkpt lat="42.4061275" lon="14.2300322"><ele>169.0</ele><time>2026-05-01T07:42:19.812Z</time></trkpt><trkpt lat="42.406053" lon="14.2299097"><ele>170.0</ele><time>2026-05-01T07:42:20.819Z</time></trkpt><trkpt lat="42.4059999" lon="14.2298134"><ele>167.66666666666666</ele><time>2026-05-01T07:42:21.822Z</time></trkpt><trkpt lat="42.405956" lon="14.2297496"><ele>165.33333333333331</ele><time>2026-05-01T07:42:22.823Z</time></trkpt><trkpt lat="42.4058399" lon="14.2296807"><ele>163.0</ele><time>2026-05-01T07:42:24.802Z</time></trkpt><trkpt lat="42.4057651" lon="14.2296446"><ele>160.66666666666666</ele><time>2026-05-01T07:42:25.808Z</time></trkpt><trkpt lat="42.405686" lon="14.2296092"><ele>158.33333333333334</ele><time>2026-05-01T07:42:26.808Z</time></trkpt><trkpt lat="42.4056205" lon="14.22958"><ele>156.0</ele><time>2026-05-01T07:42:27.825Z</time></trkpt><trkpt lat="42.4055584" lon="14.2295471"><ele>158.83333333333334</ele><time>2026-05-01T07:42:28.807Z</time></trkpt><trkpt lat="42.4054947" lon="14.2295041"><ele>161.66666666666666</ele><time>2026-05-01T07:42:29.803Z</time></trkpt><trkpt lat="42.4054277" lon="14.2294358"><ele>164.5</ele><time>2026-05-01T07:42:30.821Z</time></trkpt><trkpt lat="42.4053676" lon="14.2293559"><ele>167.33333333333331</ele><time>2026-05-01T07:42:31.812Z</time></trkpt><trkpt lat="42.4053101" lon="14.2292665"><ele>170.16666666666666</ele><time>2026-05-01T07:42:32.818Z</time></trkpt><trkpt lat="42.4052557" lon="14.2291633"><ele>173.0</ele><time>2026-05-01T07:42:33.821Z</time></trkpt><trkpt lat="42.405195" lon="14.2290506"><ele>170.25</ele><time>2026-05-01T07:42:34.818Z</time></trkpt><trkpt lat="42.4051392" lon="14.2289321"><ele>167.5</ele><time>2026-05-01T07:42:35.803Z</time></trkpt><trkpt lat="42.4050541" lon="14.2287949"><ele>164.75</ele><time>2026-05-01T07:42:36.806Z</time></trkpt><trkpt lat="42.4049544" lon="14.2286359"><ele>162.0</ele><time>2026-05-01T07:42:37.813Z</time></trkpt><trkpt lat="42.4048925" lon="14.2284935"><ele>162.0</ele><time>2026-05-01T07:42:38.803Z</time></trkpt><trkpt lat="42.4048417" lon="14.2283858"><ele>162.0</ele><time>2026-05-01T07:42:39.813Z</time></trkpt><trkpt lat="42.4048158" lon="14.2282704"><ele>162.0</ele><time>2026-05-01T07:42:41.817Z</time></trkpt><trkpt lat="42.4047981" lon="14.228126"><ele>162.0</ele><time>2026-05-01T07:42:44.802Z</time></trkpt><trkpt lat="42.4047579" lon="14.2280363"><ele>162.0</ele><time>2026-05-01T07:42:45.813Z</time></trkpt><trkpt lat="42.4047172" lon="14.2279151"><ele>160.75</ele><time>2026-05-01T07:42:46.807Z</time></trkpt><trkpt lat="42.4046768" lon="14.2277724"><ele>159.5</ele><time>2026-05-01T07:42:47.82Z</time></trkpt><trkpt lat="42.4046378" lon="14.2276117"><ele>158.25</ele><time>2026-05-01T07:42:48.81Z</time></trkpt><trkpt lat="42.4045803" lon="14.2274606"><ele>157.0</ele><time>2026-05-01T07:42:49.807Z</time></trkpt><trkpt lat="42.4045073" lon="14.2273105"><ele>157.0</ele><time>2026-05-01T07:42:50.803Z</time></trkpt><trkpt lat="42.404429" lon="14.2271508"><ele>157.0</ele><time>2026-05-01T07:42:51.817Z</time></trkpt><trkpt lat="42.4043673" lon="14.227027"><ele>157.0</ele><time>2026-05-01T07:42:52.816Z</time></trkpt><trkpt lat="42.4043324" lon="14.226914"><ele>157.0</ele><time>2026-05-01T07:42:53.812Z</time></trkpt><trkpt lat="42.4043174" lon="14.2267905"><ele>157.0</ele><time>2026-05-01T07:42:54.825Z</time></trkpt><trkpt lat="42.404312" lon="14.2266695"><ele>157.0</ele><time>2026-05-01T07:42:55.803Z</time></trkpt><trkpt lat="42.4043016" lon="14.2265655"><ele>157.0</ele><time>2026-05-01T07:42:56.801Z</time></trkpt><trkpt lat="42.4042804" lon="14.2264817"><ele>157.0</ele><time>2026-05-01T07:42:57.81Z</time></trkpt><trkpt lat="42.4041902" lon="14.2264041"><ele>157.0</ele><time>2026-05-01T07:42:59.834Z</time></trkpt><trkpt lat="42.4040992" lon="14.2263484"><ele>157.0</ele><time>2026-05-01T07:43:00.814Z</time></trkpt><trkpt lat="42.4039997" lon="14.2262831"><ele>155.0</ele><time>2026-05-01T07:43:01.802Z</time></trkpt><trkpt lat="42.4039087" lon="14.2261874"><ele>153.0</ele><time>2026-05-01T07:43:02.829Z</time></trkpt><trkpt lat="42.4038232" lon="14.2260662"><ele>151.0</ele><time>2026-05-01T07:43:03.809Z</time></trkpt><trkpt lat="42.4037477" lon="14.2259531"><ele>149.0</ele><time>2026-05-01T07:43:04.825Z</time></trkpt><trkpt lat="42.4036807" lon="14.2258517"><ele>153.4</ele><time>2026-05-01T07:43:05.811Z</time></trkpt><trkpt lat="42.4036287" lon="14.2257325"><ele>157.8</ele><time>2026-05-01T07:43:06.811Z</time></trkpt><trkpt lat="42.4035862" lon="14.2255969"><ele>162.20000000000002</ele><time>2026-05-01T07:43:07.808Z</time></trkpt><trkpt lat="42.4035531" lon="14.2254585"><ele>166.60000000000002</ele><time>2026-05-01T07:43:08.808Z</time></trkpt><trkpt lat="42.4035101" lon="14.2253079"><ele>171.0</ele><time>2026-05-01T07:43:09.806Z</time></trkpt><trkpt lat="42.403493" lon="14.2251344"><ele>171.0</ele><time>2026-05-01T07:43:10.806Z</time></trkpt><trkpt lat="42.4034858" lon="14.2249624"><ele>171.0</ele><time>2026-05-01T07:43:11.812Z</time></trkpt><trkpt lat="42.4034826" lon="14.2248073"><ele>171.0</ele><time>2026-05-01T07:43:12.811Z</time></trkpt><trkpt lat="42.4034616" lon="14.2246793"><ele>171.0</ele><time>2026-05-01T07:43:13.811Z</time></trkpt><trkpt lat="42.4034206" lon="14.2245872"><ele>171.0</ele><time>2026-05-01T07:43:14.815Z</time></trkpt><trkpt lat="42.4033484" lon="14.2244857"><ele>169.0</ele><time>2026-05-01T07:43:15.819Z</time></trkpt><trkpt lat="42.4032832" lon="14.2243795"><ele>167.0</ele><time>2026-05-01T07:43:16.812Z</time></trkpt><trkpt lat="42.4032365" lon="14.2242898"><ele>165.0</ele><time>2026-05-01T07:43:17.812Z</time></trkpt><trkpt lat="42.4031793" lon="14.224176"><ele>163.0</ele><time>2026-05-01T07:43:18.812Z</time></trkpt><trkpt lat="42.403118" lon="14.2240656"><ele>161.0</ele><time>2026-05-01T07:43:19.808Z</time></trkpt><trkpt lat="42.4030794" lon="14.2239885"><ele>162.20000000000002</ele><time>2026-05-01T07:43:20.823Z</time></trkpt><trkpt lat="42.4029642" lon="14.2238908"><ele>163.4</ele><time>2026-05-01T07:43:22.809Z</time></trkpt><trkpt lat="42.4028822" lon="14.2238589"><ele>164.6</ele><time>2026-05-01T07:43:23.812Z</time></trkpt><trkpt lat="42.4027917" lon="14.2238345"><ele>165.8</ele><time>2026-05-01T07:43:24.804Z</time></trkpt><trkpt lat="42.4027013" lon="14.2238086"><ele>167.0</ele><time>2026-05-01T07:43:25.811Z</time></trkpt><trkpt lat="42.4026119" lon="14.2237692"><ele>167.0</ele><time>2026-05-01T07:43:26.812Z</time></trkpt><trkpt lat="42.4025245" lon="14.2236859"><ele>167.0</ele><time>2026-05-01T07:43:27.801Z</time></trkpt><trkpt lat="42.4024161" lon="14.2235729"><ele>167.0</ele><time>2026-05-01T07:43:28.806Z</time></trkpt><trkpt lat="42.4023203" lon="14.2234745"><ele>167.0</ele><time>2026-05-01T07:43:29.811Z</time></trkpt><trkpt lat="42.4022483" lon="14.2233903"><ele>170.5</ele><time>2026-05-01T07:43:30.814Z</time></trkpt><trkpt lat="42.4021122" lon="14.2234061"><ele>174.0</ele><time>2026-05-01T07:43:32.804Z</time></trkpt><trkpt lat="42.4020079" lon="14.2234654"><ele>177.5</ele><time>2026-05-01T07:43:33.811Z</time></trkpt><trkpt lat="42.4018632" lon="14.2235516"><ele>181.0</ele><time>2026-05-01T07:43:34.804Z</time></trkpt><trkpt lat="42.4017129" lon="14.2236428"><ele>181.0</ele><time>2026-05-01T07:43:35.791Z</time></trkpt><trkpt lat="42.4015776" lon="14.2237193"><ele>181.0</ele><time>2026-05-01T07:43:36.816Z</time></trkpt><trkpt lat="42.401457" lon="14.2237874"><ele>181.0</ele><time>2026-05-01T07:43:37.818Z</time></trkpt><trkpt lat="42.4013517" lon="14.2238459"><ele>181.0</ele><time>2026-05-01T07:43:38.813Z</time></trkpt><trkpt lat="42.401279" lon="14.2238966"><ele>182.33333333333334</ele><time>2026-05-01T07:43:39.814Z</time></trkpt><trkpt lat="42.4012111" lon="14.2239329"><ele>183.66666666666669</ele><time>2026-05-01T07:43:40.802Z</time></trkpt><trkpt lat="42.4011413" lon="14.2239845"><ele>185.0</ele><time>2026-05-01T07:43:41.795Z</time></trkpt><trkpt lat="42.4010644" lon="14.2240527"><ele>186.33333333333334</ele><time>2026-05-01T07:43:42.794Z</time></trkpt><trkpt lat="42.4009807" lon="14.2241218"><ele>187.66666666666666</ele><time>2026-05-01T07:43:43.812Z</time></trkpt><trkpt lat="42.4008971" lon="14.2241766"><ele>189.0</ele><time>2026-05-01T07:43:44.813Z</time></trkpt><trkpt lat="42.4008235" lon="14.2242368"><ele>189.5</ele><time>2026-05-01T07:43:45.806Z</time></trkpt><trkpt lat="42.4007588" lon="14.2242988"><ele>190.0</ele><time>2026-05-01T07:43:46.811Z</time></trkpt><trkpt lat="42.4006954" lon="14.2243447"><ele>190.5</ele><time>2026-05-01T07:43:47.804Z</time></trkpt><trkpt lat="42.4006212" lon="14.2244011"><ele>191.0</ele><time>2026-05-01T07:43:49.814Z</time></trkpt><trkpt lat="42.4005476" lon="14.22433"><ele>191.5</ele><time>2026-05-01T07:43:52.81Z</time></trkpt><trkpt lat="42.4005153" lon="14.2242475"><ele>192.0</ele><time>2026-05-01T07:43:53.812Z</time></trkpt><trkpt lat="42.4004699" lon="14.2241483"><ele>192.0</ele><time>2026-05-01T07:43:54.803Z</time></trkpt><trkpt lat="42.4004177" lon="14.2240431"><ele>192.0</ele><time>2026-05-01T07:43:55.811Z</time></trkpt><trkpt lat="42.4003585" lon="14.2239308"><ele>192.0</ele><time>2026-05-01T07:43:56.816Z</time></trkpt><trkpt lat="42.4002825" lon="14.2238097"><ele>192.0</ele><time>2026-05-01T07:43:57.809Z</time></trkpt><trkpt lat="42.4001996" lon="14.2236746"><ele>192.0</ele><time>2026-05-01T07:43:58.814Z</time></trkpt><trkpt lat="42.400108" lon="14.2235386"><ele>191.75</ele><time>2026-05-01T07:43:59.795Z</time></trkpt><trkpt lat="42.4000091" lon="14.2234132"><ele>191.5</ele><time>2026-05-01T07:44:00.799Z</time></trkpt><trkpt lat="42.399909" lon="14.2232971"><ele>191.25</ele><time>2026-05-01T07:44:01.8Z</time></trkpt><trkpt lat="42.3998031" lon="14.2231829"><ele>191.0</ele><time>2026-05-01T07:44:02.812Z</time></trkpt><trkpt lat="42.3997033" lon="14.2230796"><ele>191.60000000000002</ele><time>2026-05-01T07:44:03.806Z</time></trkpt><trkpt lat="42.3996181" lon="14.2229803"><ele>192.2</ele><time>2026-05-01T07:44:04.8Z</time></trkpt><trkpt lat="42.3995509" lon="14.2229"><ele>192.8</ele><time>2026-05-01T07:44:05.803Z</time></trkpt><trkpt lat="42.3994907" lon="14.2228223"><ele>193.39999999999998</ele><time>2026-05-01T07:44:06.809Z</time></trkpt><trkpt lat="42.3994273" lon="14.2227466"><ele>194.0</ele><time>2026-05-01T07:44:07.808Z</time></trkpt><trkpt lat="42.399359" lon="14.2226742"><ele>194.00000000000003</ele><time>2026-05-01T07:44:08.805Z</time></trkpt><trkpt lat="42.3992981" lon="14.2226093"><ele>194.0</ele><time>2026-05-01T07:44:09.8Z</time></trkpt><trkpt lat="42.3992382" lon="14.222543"><ele>194.0</ele><time>2026-05-01T07:44:10.808Z</time></trkpt><trkpt lat="42.3991716" lon="14.2224769"><ele>194.0</ele><time>2026-05-01T07:44:11.807Z</time></trkpt><trkpt lat="42.3991129" lon="14.2224079"><ele>194.00000000000003</ele><time>2026-05-01T07:44:12.807Z</time></trkpt><trkpt lat="42.3990588" lon="14.2223355"><ele>194.0</ele><time>2026-05-01T07:44:13.809Z</time></trkpt><trkpt lat="42.3989961" lon="14.2222654"><ele>194.2</ele><time>2026-05-01T07:44:14.801Z</time></trkpt><trkpt lat="42.3989312" lon="14.2221908"><ele>194.39999999999998</ele><time>2026-05-01T07:44:15.808Z</time></trkpt><trkpt lat="42.398866" lon="14.2221075"><ele>194.6</ele><time>2026-05-01T07:44:16.807Z</time></trkpt><trkpt lat="42.3987973" lon="14.2220204"><ele>194.8</ele><time>2026-05-01T07:44:17.813Z</time></trkpt><trkpt lat="42.3987333" lon="14.2219339"><ele>195.0</ele><time>2026-05-01T07:44:18.803Z</time></trkpt><trkpt lat="42.3986676" lon="14.2218412"><ele>195.0</ele><time>2026-05-01T07:44:19.802Z</time></trkpt><trkpt lat="42.3985958" lon="14.2217324"><ele>195.0</ele><time>2026-05-01T07:44:20.807Z</time></trkpt><trkpt lat="42.3985263" lon="14.2216189"><ele>195.0</ele><time>2026-05-01T07:44:21.801Z</time></trkpt><trkpt lat="42.3984679" lon="14.221506"><ele>195.0</ele><time>2026-05-01T07:44:22.821Z</time></trkpt><trkpt lat="42.3984204" lon="14.2213983"><ele>195.0</ele><time>2026-05-01T07:44:23.802Z</time></trkpt><trkpt lat="42.3983745" lon="14.2213019"><ele>195.66666666666666</ele><time>2026-05-01T07:44:24.816Z</time></trkpt><trkpt lat="42.3983261" lon="14.2212029"><ele>196.33333333333331</ele><time>2026-05-01T07:44:25.827Z</time></trkpt><trkpt lat="42.3982748" lon="14.221108"><ele>197.0</ele><time>2026-05-01T07:44:26.81Z</time></trkpt><trkpt lat="42.3982286" lon="14.2210214"><ele>197.66666666666666</ele><time>2026-05-01T07:44:27.806Z</time></trkpt><trkpt lat="42.3981924" lon="14.2209464"><ele>198.33333333333331</ele><time>2026-05-01T07:44:28.811Z</time></trkpt><trkpt lat="42.3981272" lon="14.220822"><ele>199.0</ele><time>2026-05-01T07:44:30.823Z</time></trkpt><trkpt lat="42.3980433" lon="14.2207951"><ele>199.0</ele><time>2026-05-01T07:44:32.805Z</time></trkpt><trkpt lat="42.3979609" lon="14.2209065"><ele>199.0</ele><time>2026-05-01T07:44:34.816Z</time></trkpt><trkpt lat="42.3979025" lon="14.2209907"><ele>199.0</ele><time>2026-05-01T07:44:35.815Z</time></trkpt><trkpt lat="42.3978314" lon="14.2210849"><ele>199.0</ele><time>2026-05-01T07:44:36.822Z</time></trkpt><trkpt lat="42.3977418" lon="14.221172"><ele>199.0</ele><time>2026-05-01T07:44:37.826Z</time></trkpt><trkpt lat="42.3976522" lon="14.2212768"><ele>199.0</ele><time>2026-05-01T07:44:38.801Z</time></trkpt><trkpt lat="42.3975556" lon="14.2213845"><ele>199.0</ele><time>2026-05-01T07:44:39.813Z</time></trkpt><trkpt lat="42.3974547" lon="14.2214975"><ele>199.0</ele><time>2026-05-01T07:44:40.802Z</time></trkpt><trkpt lat="42.3973532" lon="14.2216046"><ele>199.0</ele><time>2026-05-01T07:44:41.811Z</time></trkpt><trkpt lat="42.3972542" lon="14.2216972"><ele>198.2</ele><time>2026-05-01T07:44:42.805Z</time></trkpt><trkpt lat="42.3971775" lon="14.2217881"><ele>197.39999999999998</ele><time>2026-05-01T07:44:43.8Z</time></trkpt><trkpt lat="42.3971235" lon="14.2218842"><ele>196.6</ele><time>2026-05-01T07:44:44.799Z</time></trkpt><trkpt lat="42.3970995" lon="14.2219878"><ele>195.8</ele><time>2026-05-01T07:44:45.811Z</time></trkpt><trkpt lat="42.3971095" lon="14.2220859"><ele>195.0</ele><time>2026-05-01T07:44:46.807Z</time></trkpt><trkpt lat="42.3971539" lon="14.2222197"><ele>194.5</ele><time>2026-05-01T07:44:47.814Z</time></trkpt><trkpt lat="42.3972218" lon="14.2223758"><ele>194.0</ele><time>2026-05-01T07:44:48.827Z</time></trkpt><trkpt lat="42.3973042" lon="14.2225171"><ele>193.5</ele><time>2026-05-01T07:44:49.809Z</time></trkpt><trkpt lat="42.397377" lon="14.2226507"><ele>193.0</ele><time>2026-05-01T07:44:50.816Z</time></trkpt><trkpt lat="42.3974303" lon="14.2227538"><ele>193.0</ele><time>2026-05-01T07:44:51.804Z</time></trkpt><trkpt lat="42.397474" lon="14.2228504"><ele>193.0</ele><time>2026-05-01T07:44:53.807Z</time></trkpt><trkpt lat="42.3975367" lon="14.223"><ele>193.0</ele><time>2026-05-01T07:44:56.808Z</time></trkpt><trkpt lat="42.3975805" lon="14.2230937"><ele>193.0</ele><time>2026-05-01T07:44:57.805Z</time></trkpt><trkpt lat="42.397626" lon="14.2231934"><ele>193.0</ele><time>2026-05-01T07:44:58.807Z</time></trkpt><trkpt lat="42.3976671" lon="14.2232807"><ele>192.4</ele><time>2026-05-01T07:44:59.811Z</time></trkpt><trkpt lat="42.3977003" lon="14.2233708"><ele>191.8</ele><time>2026-05-01T07:45:00.807Z</time></trkpt><trkpt lat="42.3977069" lon="14.2234718"><ele>191.2</ele><time>2026-05-01T07:45:01.815Z</time></trkpt><trkpt lat="42.3976911" lon="14.2235978"><ele>190.6</ele><time>2026-05-01T07:45:02.808Z</time></trkpt><trkpt lat="42.3976631" lon="14.2237492"><ele>190.0</ele><time>2026-05-01T07:45:03.81Z</time></trkpt><trkpt lat="42.3976278" lon="14.2239222"><ele>188.25</ele><time>2026-05-01T07:45:04.798Z</time></trkpt><trkpt lat="42.3975973" lon="14.2240879"><ele>186.5</ele><time>2026-05-01T07:45:05.8Z</time></trkpt><trkpt lat="42.397576" lon="14.2242444"><ele>184.75</ele><time>2026-05-01T07:45:06.817Z</time></trkpt><trkpt lat="42.3975541" lon="14.2244061"><ele>183.0</ele><time>2026-05-01T07:45:07.809Z</time></trkpt><trkpt lat="42.3975181" lon="14.224575"><ele>183.0</ele><time>2026-05-01T07:45:08.81Z</time></trkpt><trkpt lat="42.3974939" lon="14.2247355"><ele>183.0</ele><time>2026-05-01T07:45:09.815Z</time></trkpt><trkpt lat="42.3974741" lon="14.2248825"><ele>183.0</ele><time>2026-05-01T07:45:10.807Z</time></trkpt><trkpt lat="42.3974775" lon="14.2250388"><ele>183.0</ele><time>2026-05-01T07:45:11.811Z</time></trkpt><trkpt lat="42.3974988" lon="14.2252085"><ele>181.4</ele><time>2026-05-01T07:45:12.805Z</time></trkpt><trkpt lat="42.3975334" lon="14.2253767"><ele>179.8</ele><time>2026-05-01T07:45:13.809Z</time></trkpt><trkpt lat="42.397562" lon="14.2255144"><ele>178.2</ele><time>2026-05-01T07:45:14.799Z</time></trkpt><trkpt lat="42.3975743" lon="14.2256236"><ele>176.6</ele><time>2026-05-01T07:45:15.802Z</time></trkpt><trkpt lat="42.397582" lon="14.2257265"><ele>175.0</ele><time>2026-05-01T07:45:16.813Z</time></trkpt><trkpt lat="42.3975605" lon="14.2258648"><ele>175.0</ele><time>2026-05-01T07:45:18.816Z</time></trkpt><trkpt lat="42.3974864" lon="14.2259258"><ele>175.0</ele><time>2026-05-01T07:45:20.81Z</time></trkpt><trkpt lat="42.3974009" lon="14.2258478"><ele>175.0</ele><time>2026-05-01T07:45:22.806Z</time></trkpt><trkpt lat="42.3973633" lon="14.2257512"><ele>175.0</ele><time>2026-05-01T07:45:23.802Z</time></trkpt><trkpt lat="42.3973187" lon="14.2256646"><ele>175.0</ele><time>2026-05-01T07:45:24.809Z</time></trkpt><trkpt lat="42.3972685" lon="14.2255865"><ele>175.0</ele><time>2026-05-01T07:45:25.82Z</time></trkpt><trkpt lat="42.397218" lon="14.2255216"><ele>172.16666666666669</ele><time>2026-05-01T07:45:26.817Z</time></trkpt><trkpt lat="42.3971337" lon="14.2254271"><ele>169.33333333333334</ele><time>2026-05-01T07:45:28.809Z</time></trkpt><trkpt lat="42.3970809" lon="14.225377"><ele>166.5</ele><time>2026-05-01T07:45:29.801Z</time></trkpt><trkpt lat="42.3969773" lon="14.2252866"><ele>163.66666666666666</ele><time>2026-05-01T07:45:31.804Z</time></trkpt><trkpt lat="42.3969077" lon="14.2252636"><ele>160.83333333333331</ele><time>2026-05-01T07:45:32.815Z</time></trkpt><trkpt lat="42.3968381" lon="14.2252542"><ele>158.0</ele><time>2026-05-01T07:45:33.804Z</time></trkpt><trkpt lat="42.3967713" lon="14.2252559"><ele>158.0</ele><time>2026-05-01T07:45:34.806Z</time></trkpt><trkpt lat="42.3966371" lon="14.2252546"><ele>158.0</ele><time>2026-05-01T07:45:36.81Z</time></trkpt><trkpt lat="42.3965653" lon="14.2252688"><ele>158.0</ele><time>2026-05-01T07:45:37.802Z</time></trkpt><trkpt lat="42.396503" lon="14.2252813"><ele>158.0</ele><time>2026-05-01T07:45:38.806Z</time></trkpt><trkpt lat="42.396431" lon="14.2252635"><ele>158.0</ele><time>2026-05-01T07:45:39.804Z</time></trkpt><trkpt lat="42.3963493" lon="14.2252247"><ele>158.0</ele><time>2026-05-01T07:45:40.807Z</time></trkpt><trkpt lat="42.3962709" lon="14.2251861"><ele>153.83333333333331</ele><time>2026-05-01T07:45:41.805Z</time></trkpt><trkpt lat="42.3961958" lon="14.2251521"><ele>149.66666666666666</ele><time>2026-05-01T07:45:42.812Z</time></trkpt><trkpt lat="42.3961209" lon="14.225107"><ele>145.5</ele><time>2026-05-01T07:45:43.804Z</time></trkpt><trkpt lat="42.3960422" lon="14.2250714"><ele>141.33333333333334</ele><time>2026-05-01T07:45:44.809Z</time></trkpt><trkpt lat="42.3959477" lon="14.2250333"><ele>137.16666666666669</ele><time>2026-05-01T07:45:45.798Z</time></trkpt><trkpt lat="42.3958523" lon="14.2249969"><ele>133.0</ele><time>2026-05-01T07:45:46.807Z</time></trkpt><trkpt lat="42.3957603" lon="14.224958"><ele>133.0</ele><time>2026-05-01T07:45:47.803Z</time></trkpt><trkpt lat="42.3956746" lon="14.2249201"><ele>133.0</ele><time>2026-05-01T07:45:48.803Z</time></trkpt><trkpt lat="42.3955918" lon="14.2248783"><ele>133.0</ele><time>2026-05-01T07:45:49.814Z</time></trkpt><trkpt lat="42.3955131" lon="14.2248344"><ele>133.0</ele><time>2026-05-01T07:45:50.802Z</time></trkpt><trkpt lat="42.3954396" lon="14.2247892"><ele>133.0</ele><time>2026-05-01T07:45:51.808Z</time></trkpt><trkpt lat="42.3953579" lon="14.2247505"><ele>133.0</ele><time>2026-05-01T07:45:52.796Z</time></trkpt><trkpt lat="42.3952791" lon="14.2247164"><ele>130.5</ele><time>2026-05-01T07:45:53.815Z</time></trkpt><trkpt lat="42.3952038" lon="14.2246923"><ele>128.0</ele><time>2026-05-01T07:45:54.792Z</time></trkpt><trkpt lat="42.3951243" lon="14.2246826"><ele>125.5</ele><time>2026-05-01T07:45:55.795Z</time></trkpt><trkpt lat="42.3950432" lon="14.2246798"><ele>123.0</ele><time>2026-05-01T07:45:56.802Z</time></trkpt><trkpt lat="42.3949632" lon="14.2246793"><ele>120.50000000000001</ele><time>2026-05-01T07:45:57.793Z</time></trkpt><trkpt lat="42.3948805" lon="14.2246683"><ele>118.0</ele><time>2026-05-01T07:45:58.798Z</time></trkpt><trkpt lat="42.3947888" lon="14.2246449"><ele>118.00000000000001</ele><time>2026-05-01T07:45:59.813Z</time></trkpt><trkpt lat="42.3946898" lon="14.2246082"><ele>118.0</ele><time>2026-05-01T07:46:00.797Z</time></trkpt><trkpt lat="42.3946067" lon="14.2245685"><ele>118.0</ele><time>2026-05-01T07:46:01.795Z</time></trkpt><trkpt lat="42.3945289" lon="14.224515"><ele>118.0</ele><time>2026-05-01T07:46:02.806Z</time></trkpt><trkpt lat="42.3944535" lon="14.2244609"><ele>118.00000000000001</ele><time>2026-05-01T07:46:03.792Z</time></trkpt><trkpt lat="42.3943875" lon="14.2243984"><ele>118.0</ele><time>2026-05-01T07:46:04.799Z</time></trkpt><trkpt lat="42.394329" lon="14.2243211"><ele>115.83333333333334</ele><time>2026-05-01T07:46:05.798Z</time></trkpt><trkpt lat="42.394279" lon="14.2242349"><ele>113.66666666666667</ele><time>2026-05-01T07:46:06.802Z</time></trkpt><trkpt lat="42.3942333" lon="14.2241496"><ele>111.5</ele><time>2026-05-01T07:46:07.792Z</time></trkpt><trkpt lat="42.3941904" lon="14.2240711"><ele>109.33333333333334</ele><time>2026-05-01T07:46:08.802Z</time></trkpt><trkpt lat="42.3941325" lon="14.2239889"><ele>107.16666666666667</ele><time>2026-05-01T07:46:09.8Z</time></trkpt><trkpt lat="42.3940689" lon="14.2239106"><ele>105.0</ele><time>2026-05-01T07:46:10.851Z</time></trkpt><trkpt lat="42.3940114" lon="14.2238505"><ele>105.0</ele><time>2026-05-01T07:46:11.804Z</time></trkpt><trkpt lat="42.3939599" lon="14.2237935"><ele>105.0</ele><time>2026-05-01T07:46:13.807Z</time></trkpt><trkpt lat="42.3938755" lon="14.2238461"><ele>105.0</ele><time>2026-05-01T07:46:16.803Z</time></trkpt><trkpt lat="42.3937803" lon="14.2238806"><ele>105.0</ele><time>2026-05-01T07:46:18.805Z</time></trkpt><trkpt lat="42.3936989" lon="14.2238991"><ele>105.0</ele><time>2026-05-01T07:46:19.832Z</time></trkpt><trkpt lat="42.393608" lon="14.2238922"><ele>105.0</ele><time>2026-05-01T07:46:20.809Z</time></trkpt><trkpt lat="42.3935243" lon="14.2238826"><ele>105.4</ele><time>2026-05-01T07:46:22.805Z</time></trkpt><trkpt lat="42.393549" lon="14.2239817"><ele>105.8</ele><time>2026-05-01T07:46:24.831Z</time></trkpt><trkpt lat="42.3935718" lon="14.2240686"><ele>106.19999999999999</ele><time>2026-05-01T07:46:25.807Z</time></trkpt><trkpt lat="42.3936239" lon="14.2241817"><ele>106.6</ele><time>2026-05-01T07:46:26.809Z</time></trkpt><trkpt lat="42.3936726" lon="14.2243369"><ele>107.0</ele><time>2026-05-01T07:46:27.807Z</time></trkpt><trkpt lat="42.3937207" lon="14.2245423"><ele>107.0</ele><time>2026-05-01T07:46:28.806Z</time></trkpt><trkpt lat="42.3937689" lon="14.2247824"><ele>107.0</ele><time>2026-05-01T07:46:29.801Z</time></trkpt><trkpt lat="42.3938505" lon="14.2250687"><ele>107.0</ele><time>2026-05-01T07:46:30.81Z</time></trkpt><trkpt lat="42.3939487" lon="14.2253782"><ele>103.0</ele><time>2026-05-01T07:46:31.802Z</time></trkpt><trkpt lat="42.3940402" lon="14.2256627"><ele>99.0</ele><time>2026-05-01T07:46:32.8Z</time></trkpt><trkpt lat="42.3941179" lon="14.2259377"><ele>95.0</ele><time>2026-05-01T07:46:33.81Z</time></trkpt><trkpt lat="42.3942015" lon="14.2261771"><ele>95.0</ele><time>2026-05-01T07:46:34.808Z</time></trkpt><trkpt lat="42.3942836" lon="14.2264086"><ele>95.0</ele><time>2026-05-01T07:46:35.811Z</time></trkpt><trkpt lat="42.3943492" lon="14.2266168"><ele>95.0</ele><time>2026-05-01T07:46:36.801Z</time></trkpt><trkpt lat="42.3944124" lon="14.226805"><ele>95.66666666666667</ele><time>2026-05-01T07:46:37.815Z</time></trkpt><trkpt lat="42.3944775" lon="14.2269962"><ele>96.33333333333334</ele><time>2026-05-01T07:46:38.8Z</time></trkpt><trkpt lat="42.3945482" lon="14.2272107"><ele>97.0</ele><time>2026-05-01T07:46:39.797Z</time></trkpt><trkpt lat="42.394611" lon="14.2274479"><ele>95.33333333333334</ele><time>2026-05-01T07:46:40.81Z</time></trkpt><trkpt lat="42.394678" lon="14.2277184"><ele>93.66666666666667</ele><time>2026-05-01T07:46:41.805Z</time></trkpt><trkpt lat="42.3947561" lon="14.2279896"><ele>92.0</ele><time>2026-05-01T07:46:42.84Z</time></trkpt><trkpt lat="42.3948286" lon="14.2282205"><ele>91.33333333333334</ele><time>2026-05-01T07:46:43.804Z</time></trkpt><trkpt lat="42.3949113" lon="14.2284339"><ele>90.66666666666667</ele><time>2026-05-01T07:46:44.81Z</time></trkpt><trkpt lat="42.3950121" lon="14.228683"><ele>90.0</ele><time>2026-05-01T07:46:45.797Z</time></trkpt><trkpt lat="42.3951103" lon="14.2289255"><ele>91.33333333333333</ele><time>2026-05-01T07:46:46.812Z</time></trkpt><trkpt lat="42.3951974" lon="14.2291317"><ele>92.66666666666666</ele><time>2026-05-01T07:46:47.811Z</time></trkpt><trkpt lat="42.3952702" lon="14.2293359"><ele>94.0</ele><time>2026-05-01T07:46:48.803Z</time></trkpt><trkpt lat="42.395344" lon="14.2295372"><ele>94.0</ele><time>2026-05-01T07:46:49.809Z</time></trkpt><trkpt lat="42.3954132" lon="14.2297492"><ele>94.0</ele><time>2026-05-01T07:46:50.808Z</time></trkpt><trkpt lat="42.3954828" lon="14.2299757"><ele>94.0</ele><time>2026-05-01T07:46:51.796Z</time></trkpt><trkpt lat="42.3955608" lon="14.2302016"><ele>90.33333333333333</ele><time>2026-05-01T07:46:52.83Z</time></trkpt><trkpt lat="42.3956387" lon="14.2304277"><ele>86.66666666666667</ele><time>2026-05-01T07:46:53.805Z</time></trkpt><trkpt lat="42.3957149" lon="14.2306432"><ele>83.0</ele><time>2026-05-01T07:46:54.804Z</time></trkpt><trkpt lat="42.395784" lon="14.2308562"><ele>82.66666666666667</ele><time>2026-05-01T07:46:55.814Z</time></trkpt><trkpt lat="42.3958556" lon="14.2310814"><ele>82.33333333333333</ele><time>2026-05-01T07:46:56.81Z</time></trkpt><trkpt lat="42.3959213" lon="14.231302"><ele>82.0</ele><time>2026-05-01T07:46:57.831Z</time></trkpt><trkpt lat="42.3959928" lon="14.2315183"><ele>82.0</ele><time>2026-05-01T07:46:58.803Z</time></trkpt><trkpt lat="42.3960683" lon="14.2317351"><ele>82.0</ele><time>2026-05-01T07:46:59.807Z</time></trkpt><trkpt lat="42.3961313" lon="14.2319376"><ele>82.0</ele><time>2026-05-01T07:47:00.802Z</time></trkpt><trkpt lat="42.3961852" lon="14.2321169"><ele>82.0</ele><time>2026-05-01T07:47:01.815Z</time></trkpt><trkpt lat="42.3962194" lon="14.2322908"><ele>82.0</ele><time>2026-05-01T07:47:02.803Z</time></trkpt><trkpt lat="42.3962408" lon="14.2324694"><ele>82.0</ele><time>2026-05-01T07:47:03.808Z</time></trkpt><trkpt lat="42.3962462" lon="14.2326678"><ele>82.0</ele><time>2026-05-01T07:47:04.796Z</time></trkpt><trkpt lat="42.39624" lon="14.2328855"><ele>82.33333333333333</ele><time>2026-05-01T07:47:05.803Z</time></trkpt><trkpt lat="42.3962235" lon="14.2331163"><ele>82.66666666666667</ele><time>2026-05-01T07:47:06.803Z</time></trkpt><trkpt lat="42.3962042" lon="14.2333257"><ele>83.0</ele><time>2026-05-01T07:47:07.81Z</time></trkpt><trkpt lat="42.3961899" lon="14.2335213"><ele>82.25</ele><time>2026-05-01T07:47:08.813Z</time></trkpt><trkpt lat="42.3961814" lon="14.2337103"><ele>81.5</ele><time>2026-05-01T07:47:09.811Z</time></trkpt><trkpt lat="42.3961687" lon="14.233894"><ele>80.75</ele><time>2026-05-01T07:47:10.802Z</time></trkpt><trkpt lat="42.3961558" lon="14.2340641"><ele>80.0</ele><time>2026-05-01T07:47:11.815Z</time></trkpt><trkpt lat="42.3961498" lon="14.2342261"><ele>80.0</ele><time>2026-05-01T07:47:12.789Z</time></trkpt><trkpt lat="42.3961488" lon="14.2343707"><ele>80.0</ele><time>2026-05-01T07:47:13.814Z</time></trkpt><trkpt lat="42.3961575" lon="14.2344824"><ele>80.0</ele><time>2026-05-01T07:47:14.812Z</time></trkpt><trkpt lat="42.3961864" lon="14.2345795"><ele>80.0</ele><time>2026-05-01T07:47:15.812Z</time></trkpt><trkpt lat="42.3962391" lon="14.2347013"><ele>80.0</ele><time>2026-05-01T07:47:17.795Z</time></trkpt><trkpt lat="42.3961977" lon="14.2347778"><ele>80.0</ele><time>2026-05-01T07:47:20.809Z</time></trkpt><trkpt lat="42.3961184" lon="14.2347907"><ele>80.0</ele><time>2026-05-01T07:47:22.808Z</time></trkpt><trkpt lat="42.3960153" lon="14.2347839"><ele>80.0</ele><time>2026-05-01T07:47:24.807Z</time></trkpt><trkpt lat="42.3959519" lon="14.2347877"><ele>80.0</ele><time>2026-05-01T07:47:25.804Z</time></trkpt><trkpt lat="42.3958796" lon="14.2347919"><ele>80.0</ele><time>2026-05-01T07:47:26.799Z</time></trkpt><trkpt lat="42.3958048" lon="14.2347932"><ele>80.0</ele><time>2026-05-01T07:47:28.801Z</time></trkpt><trkpt lat="42.3957336" lon="14.2347865"><ele>80.0</ele><time>2026-05-01T07:47:43.798Z</time></trkpt><trkpt lat="42.3956576" lon="14.2347326"><ele>80.0</ele><time>2026-05-01T07:47:45.805Z</time></trkpt><trkpt lat="42.3955943" lon="14.2346901"><ele>80.0</ele><time>2026-05-01T07:47:46.814Z</time></trkpt><trkpt lat="42.3955393" lon="14.2346373"><ele>80.0</ele><time>2026-05-01T07:47:47.82Z</time></trkpt><trkpt lat="42.3954696" lon="14.2345133"><ele>80.0</ele><time>2026-05-01T07:47:49.797Z</time></trkpt><trkpt lat="42.3954319" lon="14.234378"><ele>80.0</ele><time>2026-05-01T07:47:51.801Z</time></trkpt><trkpt lat="42.3954057" lon="14.2342986"><ele>80.0</ele><time>2026-05-01T07:47:52.819Z</time></trkpt><trkpt lat="42.3953759" lon="14.2342073"><ele>83.6</ele><time>2026-05-01T07:47:53.817Z</time></trkpt><trkpt lat="42.3953446" lon="14.2340914"><ele>87.2</ele><time>2026-05-01T07:47:54.803Z</time></trkpt><trkpt lat="42.3953166" lon="14.2339812"><ele>90.80000000000001</ele><time>2026-05-01T07:47:55.813Z</time></trkpt><trkpt lat="42.3952843" lon="14.2338583"><ele>94.4</ele><time>2026-05-01T07:47:56.81Z</time></trkpt><trkpt lat="42.3952469" lon="14.2337416"><ele>98.0</ele><time>2026-05-01T07:47:57.813Z</time></trkpt><trkpt lat="42.3952001" lon="14.2336062"><ele>98.0</ele><time>2026-05-01T07:47:58.811Z</time></trkpt><trkpt lat="42.3951446" lon="14.2334659"><ele>98.0</ele><time>2026-05-01T07:47:59.819Z</time></trkpt><trkpt lat="42.3950966" lon="14.2333638"><ele>98.0</ele><time>2026-05-01T07:48:00.816Z</time></trkpt><trkpt lat="42.3950511" lon="14.2332247"><ele>98.0</ele><time>2026-05-01T07:48:02.817Z</time></trkpt><trkpt lat="42.3950113" lon="14.2330795"><ele>98.0</ele><time>2026-05-01T07:48:04.834Z</time></trkpt><trkpt lat="42.3949836" lon="14.2329721"><ele>97.60000000000001</ele><time>2026-05-01T07:48:05.802Z</time></trkpt><trkpt lat="42.3949427" lon="14.2328774"><ele>97.2</ele><time>2026-05-01T07:48:06.806Z</time></trkpt><trkpt lat="42.394904" lon="14.2327933"><ele>96.8</ele><time>2026-05-01T07:48:07.813Z</time></trkpt><trkpt lat="42.3948663" lon="14.2326821"><ele>96.4</ele><time>2026-05-01T07:48:08.809Z</time></trkpt><trkpt lat="42.3948359" lon="14.2325385"><ele>96.0</ele><time>2026-05-01T07:48:09.819Z</time></trkpt><trkpt lat="42.3947974" lon="14.2324025"><ele>96.5</ele><time>2026-05-01T07:48:10.82Z</time></trkpt><trkpt lat="42.3947484" lon="14.2322716"><ele>97.0</ele><time>2026-05-01T07:48:11.806Z</time></trkpt><trkpt lat="42.3946952" lon="14.2321312"><ele>97.5</ele><time>2026-05-01T07:48:12.814Z</time></trkpt><trkpt lat="42.3946523" lon="14.2319931"><ele>98.0</ele><time>2026-05-01T07:48:13.806Z</time></trkpt><trkpt lat="42.394603" lon="14.2318525"><ele>101.75</ele><time>2026-05-01T07:48:14.841Z</time></trkpt><trkpt lat="42.3945451" lon="14.2317129"><ele>105.5</ele><time>2026-05-01T07:48:15.802Z</time></trkpt><trkpt lat="42.3944762" lon="14.2315843"><ele>109.25</ele><time>2026-05-01T07:48:16.816Z</time></trkpt><trkpt lat="42.3944006" lon="14.2314583"><ele>113.0</ele><time>2026-05-01T07:48:17.809Z</time></trkpt><trkpt lat="42.394335" lon="14.2313483"><ele>113.0</ele><time>2026-05-01T07:48:18.804Z</time></trkpt><trkpt lat="42.3942848" lon="14.2312624"><ele>113.00000000000001</ele><time>2026-05-01T07:48:19.82Z</time></trkpt><trkpt lat="42.394221" lon="14.2311553"><ele>113.00000000000001</ele><time>2026-05-01T07:48:20.8Z</time></trkpt><trkpt lat="42.3941481" lon="14.2310276"><ele>113.0</ele><time>2026-05-01T07:48:21.811Z</time></trkpt><trkpt lat="42.3940758" lon="14.2308794"><ele>113.0</ele><time>2026-05-01T07:48:22.791Z</time></trkpt><trkpt lat="42.3939955" lon="14.2307362"><ele>113.0</ele><time>2026-05-01T07:48:23.823Z</time></trkpt><trkpt lat="42.393916" lon="14.2305882"><ele>113.0</ele><time>2026-05-01T07:48:24.812Z</time></trkpt><trkpt lat="42.3938443" lon="14.2304453"><ele>113.0</ele><time>2026-05-01T07:48:25.812Z</time></trkpt><trkpt lat="42.3937749" lon="14.2302962"><ele>113.0</ele><time>2026-05-01T07:48:26.802Z</time></trkpt><trkpt lat="42.393705" lon="14.2301786"><ele>116.16666666666666</ele><time>2026-05-01T07:48:27.813Z</time></trkpt><trkpt lat="42.3936488" lon="14.2300898"><ele>119.33333333333333</ele><time>2026-05-01T07:48:28.813Z</time></trkpt><trkpt lat="42.3935852" lon="14.2300086"><ele>122.5</ele><time>2026-05-01T07:48:29.805Z</time></trkpt><trkpt lat="42.393511" lon="14.229939"><ele>125.66666666666666</ele><time>2026-05-01T07:48:30.813Z</time></trkpt><trkpt lat="42.3934342" lon="14.2298861"><ele>128.83333333333334</ele><time>2026-05-01T07:48:31.82Z</time></trkpt><trkpt lat="42.3933507" lon="14.2298416"><ele>132.0</ele><time>2026-05-01T07:48:32.801Z</time></trkpt><trkpt lat="42.3932758" lon="14.2298292"><ele>132.0</ele><time>2026-05-01T07:48:33.808Z</time></trkpt><trkpt lat="42.3931715" lon="14.2298846"><ele>132.0</ele><time>2026-05-01T07:48:35.821Z</time></trkpt><trkpt lat="42.3931369" lon="14.2299927"><ele>132.0</ele><time>2026-05-01T07:48:37.803Z</time></trkpt><trkpt lat="42.3931369" lon="14.230133"><ele>132.0</ele><time>2026-05-01T07:48:39.806Z</time></trkpt><trkpt lat="42.393165" lon="14.230212"><ele>132.0</ele><time>2026-05-01T07:58:03.807Z</time></trkpt><trkpt lat="42.3931699" lon="14.2303303"><ele>132.0</ele><time>2026-05-01T07:58:05.81Z</time></trkpt><trkpt lat="42.3931729" lon="14.230437"><ele>132.0</ele><time>2026-05-01T07:58:41.81Z</time></trkpt><trkpt lat="42.3931785" lon="14.2305691"><ele>132.0</ele><time>2026-05-01T07:58:49.812Z</time></trkpt><trkpt lat="42.3931741" lon="14.2306633"><ele>132.0</ele><time>2026-05-01T07:58:51.817Z</time></trkpt><trkpt lat="42.3931572" lon="14.2307504"><ele>132.0</ele><time>2026-05-01T07:59:48.809Z</time></trkpt><trkpt lat="42.3931419" lon="14.2309045"><ele>132.0</ele><time>2026-05-01T07:59:50.813Z</time></trkpt><trkpt lat="42.3931165" lon="14.2309865"><ele>132.5</ele><time>2026-05-01T07:59:52.819Z</time></trkpt><trkpt lat="42.3930526" lon="14.2310555"><ele>133.0</ele><time>2026-05-01T08:00:37.806Z</time></trkpt><trkpt lat="42.3929797" lon="14.2309271"><ele>133.5</ele><time>2026-05-01T08:00:39.809Z</time></trkpt><trkpt lat="42.3929455" lon="14.2308367"><ele>134.0</ele><time>2026-05-01T08:00:40.818Z</time></trkpt><trkpt lat="42.3929087" lon="14.2307394"><ele>134.5</ele><time>2026-05-01T08:00:41.801Z</time></trkpt><trkpt lat="42.3928723" lon="14.2306339"><ele>135.0</ele><time>2026-05-01T08:00:42.814Z</time></trkpt><trkpt lat="42.3928353" lon="14.2305322"><ele>138.4</ele><time>2026-05-01T08:00:43.822Z</time></trkpt><trkpt lat="42.3928044" lon="14.2304312"><ele>141.8</ele><time>2026-05-01T08:00:44.802Z</time></trkpt><trkpt lat="42.3927646" lon="14.2303248"><ele>145.2</ele><time>2026-05-01T08:00:45.829Z</time></trkpt><trkpt lat="42.392695" lon="14.2302059"><ele>148.6</ele><time>2026-05-01T08:00:46.8Z</time></trkpt><trkpt lat="42.392615" lon="14.2300695"><ele>152.0</ele><time>2026-05-01T08:00:47.81Z</time></trkpt><trkpt lat="42.392543" lon="14.2299225"><ele>151.79999999999998</ele><time>2026-05-01T08:00:48.812Z</time></trkpt><trkpt lat="42.3924948" lon="14.2298035"><ele>151.6</ele><time>2026-05-01T08:00:49.814Z</time></trkpt><trkpt lat="42.3924453" lon="14.2296944"><ele>151.39999999999998</ele><time>2026-05-01T08:00:50.814Z</time></trkpt><trkpt lat="42.3924045" lon="14.2295875"><ele>151.2</ele><time>2026-05-01T08:00:51.808Z</time></trkpt><trkpt lat="42.3923605" lon="14.229475"><ele>151.0</ele><time>2026-05-01T08:00:52.833Z</time></trkpt><trkpt lat="42.3923206" lon="14.2293629"><ele>151.0</ele><time>2026-05-01T08:00:53.811Z</time></trkpt><trkpt lat="42.392296" lon="14.2292547"><ele>151.0</ele><time>2026-05-01T08:00:54.806Z</time></trkpt><trkpt lat="42.3922674" lon="14.2291327"><ele>151.0</ele><time>2026-05-01T08:00:55.806Z</time></trkpt><trkpt lat="42.3922292" lon="14.2289858"><ele>151.0</ele><time>2026-05-01T08:00:56.811Z</time></trkpt><trkpt lat="42.3922001" lon="14.22884"><ele>151.0</ele><time>2026-05-01T08:00:57.837Z</time></trkpt><trkpt lat="42.3921777" lon="14.2287004"><ele>153.2</ele><time>2026-05-01T08:00:58.815Z</time></trkpt><trkpt lat="42.3921574" lon="14.2285834"><ele>155.39999999999998</ele><time>2026-05-01T08:00:59.812Z</time></trkpt><trkpt lat="42.3921391" lon="14.2284572"><ele>157.6</ele><time>2026-05-01T08:01:00.81Z</time></trkpt><trkpt lat="42.3920958" lon="14.2283425"><ele>159.79999999999998</ele><time>2026-05-01T08:01:01.803Z</time></trkpt><trkpt lat="42.3920311" lon="14.2282249"><ele>162.0</ele><time>2026-05-01T08:01:02.822Z</time></trkpt><trkpt lat="42.3919659" lon="14.2281225"><ele>162.0</ele><time>2026-05-01T08:01:03.809Z</time></trkpt><trkpt lat="42.3918936" lon="14.2280208"><ele>162.0</ele><time>2026-05-01T08:01:04.796Z</time></trkpt><trkpt lat="42.391812" lon="14.2278806"><ele>162.0</ele><time>2026-05-01T08:01:05.807Z</time></trkpt><trkpt lat="42.3917451" lon="14.2277719"><ele>162.0</ele><time>2026-05-01T08:01:06.808Z</time></trkpt><trkpt lat="42.391678" lon="14.2276937"><ele>162.0</ele><time>2026-05-01T08:01:08.8Z</time></trkpt><trkpt lat="42.3916151" lon="14.2276563"><ele>162.0</ele><time>2026-05-01T08:01:19.823Z</time></trkpt><trkpt lat="42.3916061" lon="14.2277612"><ele>162.0</ele><time>2026-05-01T08:01:21.814Z</time></trkpt><trkpt lat="42.3916203" lon="14.2278916"><ele>162.0</ele><time>2026-05-01T08:01:22.805Z</time></trkpt><trkpt lat="42.3916265" lon="14.2280651"><ele>162.0</ele><time>2026-05-01T08:01:23.799Z</time></trkpt><trkpt lat="42.391612" lon="14.2282297"><ele>162.0</ele><time>2026-05-01T08:01:24.805Z</time></trkpt><trkpt lat="42.3915895" lon="14.2284076"><ele>162.0</ele><time>2026-05-01T08:01:25.815Z</time></trkpt><trkpt lat="42.391563" lon="14.2286149"><ele>162.0</ele><time>2026-05-01T08:01:26.81Z</time></trkpt><trkpt lat="42.3915325" lon="14.2288438"><ele>162.0</ele><time>2026-05-01T08:01:27.81Z</time></trkpt><trkpt lat="42.3914901" lon="14.2290684"><ele>160.33333333333334</ele><time>2026-05-01T08:01:28.795Z</time></trkpt><trkpt lat="42.3914494" lon="14.2292813"><ele>158.66666666666669</ele><time>2026-05-01T08:01:29.809Z</time></trkpt><trkpt lat="42.3914115" lon="14.2294901"><ele>157.0</ele><time>2026-05-01T08:01:30.805Z</time></trkpt><trkpt lat="42.3913697" lon="14.2296892"><ele>153.66666666666669</ele><time>2026-05-01T08:01:31.807Z</time></trkpt><trkpt lat="42.3913321" lon="14.2298881"><ele>150.33333333333334</ele><time>2026-05-01T08:01:32.81Z</time></trkpt><trkpt lat="42.3912965" lon="14.2300869"><ele>147.0</ele><time>2026-05-01T08:01:33.818Z</time></trkpt><trkpt lat="42.3912622" lon="14.2302866"><ele>147.0</ele><time>2026-05-01T08:01:34.8Z</time></trkpt><trkpt lat="42.3912267" lon="14.2304847"><ele>147.0</ele><time>2026-05-01T08:01:35.811Z</time></trkpt><trkpt lat="42.3911894" lon="14.230673"><ele>147.0</ele><time>2026-05-01T08:01:36.806Z</time></trkpt><trkpt lat="42.3911441" lon="14.2308579"><ele>147.0</ele><time>2026-05-01T08:01:37.805Z</time></trkpt><trkpt lat="42.3910883" lon="14.2310453"><ele>144.75</ele><time>2026-05-01T08:01:38.809Z</time></trkpt><trkpt lat="42.3910292" lon="14.2312382"><ele>142.5</ele><time>2026-05-01T08:01:39.802Z</time></trkpt><trkpt lat="42.3909717" lon="14.2314301"><ele>140.25</ele><time>2026-05-01T08:01:40.84Z</time></trkpt><trkpt lat="42.3909223" lon="14.2315826"><ele>138.0</ele><time>2026-05-01T08:01:41.795Z</time></trkpt><trkpt lat="42.3908799" lon="14.2316858"><ele>137.16666666666666</ele><time>2026-05-01T08:01:42.81Z</time></trkpt><trkpt lat="42.3908369" lon="14.2317565"><ele>136.33333333333334</ele><time>2026-05-01T08:01:43.802Z</time></trkpt><trkpt lat="42.3907804" lon="14.2317958"><ele>135.5</ele><time>2026-05-01T08:01:45.805Z</time></trkpt><trkpt lat="42.3907124" lon="14.2317724"><ele>134.66666666666669</ele><time>2026-05-01T08:01:50.798Z</time></trkpt><trkpt lat="42.3906431" lon="14.2317362"><ele>133.83333333333334</ele><time>2026-05-01T08:01:51.81Z</time></trkpt><trkpt lat="42.3905529" lon="14.2316523"><ele>133.0</ele><time>2026-05-01T08:01:52.802Z</time></trkpt><trkpt lat="42.3904605" lon="14.2315611"><ele>134.5</ele><time>2026-05-01T08:01:53.807Z</time></trkpt><trkpt lat="42.3903564" lon="14.2314586"><ele>136.0</ele><time>2026-05-01T08:01:54.803Z</time></trkpt><trkpt lat="42.3902276" lon="14.2313477"><ele>137.5</ele><time>2026-05-01T08:01:55.806Z</time></trkpt><trkpt lat="42.3900872" lon="14.2312265"><ele>139.0</ele><time>2026-05-01T08:01:56.803Z</time></trkpt><trkpt lat="42.3899479" lon="14.2311027"><ele>139.0</ele><time>2026-05-01T08:01:57.809Z</time></trkpt><trkpt lat="42.3898117" lon="14.2309793"><ele>139.0</ele><time>2026-05-01T08:01:58.804Z</time></trkpt><trkpt lat="42.3896809" lon="14.2308875"><ele>139.0</ele><time>2026-05-01T08:01:59.792Z</time></trkpt><trkpt lat="42.3895469" lon="14.2308262"><ele>139.25</ele><time>2026-05-01T08:02:00.804Z</time></trkpt><trkpt lat="42.3894015" lon="14.2308026"><ele>139.5</ele><time>2026-05-01T08:02:01.814Z</time></trkpt><trkpt lat="42.3892534" lon="14.2307968"><ele>139.75</ele><time>2026-05-01T08:02:02.805Z</time></trkpt><trkpt lat="42.3891177" lon="14.2307936"><ele>140.0</ele><time>2026-05-01T08:02:03.823Z</time></trkpt><trkpt lat="42.3889923" lon="14.2307913"><ele>140.0</ele><time>2026-05-01T08:02:04.807Z</time></trkpt><trkpt lat="42.3888774" lon="14.230784"><ele>140.0</ele><time>2026-05-01T08:02:05.807Z</time></trkpt><trkpt lat="42.3887696" lon="14.2307679"><ele>140.0</ele><time>2026-05-01T08:02:06.807Z</time></trkpt><trkpt lat="42.3886622" lon="14.2307283"><ele>140.0</ele><time>2026-05-01T08:02:07.808Z</time></trkpt><trkpt lat="42.3885656" lon="14.230663"><ele>140.0</ele><time>2026-05-01T08:02:08.804Z</time></trkpt><trkpt lat="42.3884749" lon="14.2305824"><ele>140.8</ele><time>2026-05-01T08:02:09.815Z</time></trkpt><trkpt lat="42.3883917" lon="14.2304867"><ele>141.6</ele><time>2026-05-01T08:02:10.796Z</time></trkpt><trkpt lat="42.3883116" lon="14.2303877"><ele>142.4</ele><time>2026-05-01T08:02:11.83Z</time></trkpt><trkpt lat="42.3882288" lon="14.2302923"><ele>143.2</ele><time>2026-05-01T08:02:12.803Z</time></trkpt><trkpt lat="42.3881529" lon="14.2302137"><ele>144.0</ele><time>2026-05-01T08:02:13.799Z</time></trkpt><trkpt lat="42.3880551" lon="14.2302022"><ele>144.0</ele><time>2026-05-01T08:02:15.815Z</time></trkpt><trkpt lat="42.3880119" lon="14.2303868"><ele>144.0</ele><time>2026-05-01T08:02:17.8Z</time></trkpt><trkpt lat="42.3879824" lon="14.2305619"><ele>144.0</ele><time>2026-05-01T08:02:18.822Z</time></trkpt><trkpt lat="42.3879341" lon="14.2307514"><ele>144.0</ele><time>2026-05-01T08:02:19.802Z</time></trkpt><trkpt lat="42.387866" lon="14.2309535"><ele>142.0</ele><time>2026-05-01T08:02:20.807Z</time></trkpt><trkpt lat="42.3877913" lon="14.2311643"><ele>140.0</ele><time>2026-05-01T08:02:21.801Z</time></trkpt><trkpt lat="42.387716" lon="14.231397"><ele>138.0</ele><time>2026-05-01T08:02:22.807Z</time></trkpt><trkpt lat="42.3876486" lon="14.2316184"><ele>137.25</ele><time>2026-05-01T08:02:23.808Z</time></trkpt><trkpt lat="42.3876087" lon="14.231809"><ele>136.5</ele><time>2026-05-01T08:02:24.809Z</time></trkpt><trkpt lat="42.3876068" lon="14.2320104"><ele>135.75</ele><time>2026-05-01T08:02:25.821Z</time></trkpt><trkpt lat="42.3876332" lon="14.2322097"><ele>135.0</ele><time>2026-05-01T08:02:26.805Z</time></trkpt><trkpt lat="42.3876739" lon="14.2324101"><ele>134.5</ele><time>2026-05-01T08:02:27.805Z</time></trkpt><trkpt lat="42.3877085" lon="14.2326127"><ele>134.0</ele><time>2026-05-01T08:02:28.801Z</time></trkpt><trkpt lat="42.3877411" lon="14.2328065"><ele>133.5</ele><time>2026-05-01T08:02:29.817Z</time></trkpt><trkpt lat="42.3877731" lon="14.2329836"><ele>133.0</ele><time>2026-05-01T08:02:30.806Z</time></trkpt><trkpt lat="42.387805" lon="14.2331508"><ele>132.25</ele><time>2026-05-01T08:02:31.8Z</time></trkpt><trkpt lat="42.3878408" lon="14.2333144"><ele>131.5</ele><time>2026-05-01T08:02:32.81Z</time></trkpt><trkpt lat="42.3878738" lon="14.233499"><ele>130.75</ele><time>2026-05-01T08:02:33.798Z</time></trkpt><trkpt lat="42.3879055" lon="14.233683"><ele>130.0</ele><time>2026-05-01T08:02:34.804Z</time></trkpt><trkpt lat="42.387941" lon="14.2338792"><ele>130.0</ele><time>2026-05-01T08:02:35.808Z</time></trkpt><trkpt lat="42.3879726" lon="14.2340816"><ele>130.0</ele><time>2026-05-01T08:02:36.812Z</time></trkpt><trkpt lat="42.38801" lon="14.2342827"><ele>130.0</ele><time>2026-05-01T08:02:37.809Z</time></trkpt><trkpt lat="42.388052" lon="14.2344883"><ele>130.0</ele><time>2026-05-01T08:02:38.797Z</time></trkpt><trkpt lat="42.3880877" lon="14.2346877"><ele>130.0</ele><time>2026-05-01T08:02:39.799Z</time></trkpt><trkpt lat="42.3881228" lon="14.2348807"><ele>130.0</ele><time>2026-05-01T08:02:40.811Z</time></trkpt><trkpt lat="42.3881562" lon="14.2350478"><ele>130.0</ele><time>2026-05-01T08:02:41.8Z</time></trkpt><trkpt lat="42.3881821" lon="14.2351682"><ele>129.8</ele><time>2026-05-01T08:02:42.804Z</time></trkpt><trkpt lat="42.3881681" lon="14.235297"><ele>129.6</ele><time>2026-05-01T08:02:44.811Z</time></trkpt><trkpt lat="42.388074" lon="14.2353494"><ele>129.4</ele><time>2026-05-01T08:02:46.799Z</time></trkpt><trkpt lat="42.3879866" lon="14.2353361"><ele>129.2</ele><time>2026-05-01T08:02:47.807Z</time></trkpt><trkpt lat="42.3878892" lon="14.235319"><ele>129.0</ele><time>2026-05-01T08:02:48.802Z</time></trkpt><trkpt lat="42.3877846" lon="14.2353011"><ele>128.83333333333334</ele><time>2026-05-01T08:02:49.807Z</time></trkpt><trkpt lat="42.3876841" lon="14.235292"><ele>128.66666666666666</ele><time>2026-05-01T08:02:50.81Z</time></trkpt><trkpt lat="42.3875985" lon="14.235277"><ele>128.5</ele><time>2026-05-01T08:02:51.798Z</time></trkpt><trkpt lat="42.3875254" lon="14.2352554"><ele>128.33333333333331</ele><time>2026-05-01T08:02:52.809Z</time></trkpt><trkpt lat="42.3874511" lon="14.2351918"><ele>128.16666666666666</ele><time>2026-05-01T08:02:54.801Z</time></trkpt><trkpt lat="42.387424" lon="14.2351091"><ele>128.0</ele><time>2026-05-01T08:02:58.8Z</time></trkpt><trkpt lat="42.3874778" lon="14.2352049"><ele>128.0</ele><time>2026-05-01T08:03:05.794Z</time></trkpt><trkpt lat="42.3875323" lon="14.2352592"><ele>127.99999999999999</ele><time>2026-05-01T08:03:06.796Z</time></trkpt><trkpt lat="42.3875927" lon="14.2353018"><ele>128.0</ele><time>2026-05-01T08:03:07.798Z</time></trkpt><trkpt lat="42.3876697" lon="14.2353181"><ele>128.0</ele><time>2026-05-01T08:03:08.802Z</time></trkpt><trkpt lat="42.3877521" lon="14.2353291"><ele>127.99999999999999</ele><time>2026-05-01T08:03:09.807Z</time></trkpt><trkpt lat="42.3878305" lon="14.2353373"><ele>128.0</ele><time>2026-05-01T08:03:10.796Z</time></trkpt><trkpt lat="42.3878947" lon="14.2353334"><ele>128.0</ele><time>2026-05-01T08:03:11.796Z</time></trkpt><trkpt lat="42.3879657" lon="14.2353409"><ele>128.16666666666666</ele><time>2026-05-01T08:03:13.793Z</time></trkpt><trkpt lat="42.3880496" lon="14.2353697"><ele>128.33333333333331</ele><time>2026-05-01T08:03:21.807Z</time></trkpt><trkpt lat="42.3881498" lon="14.2353541"><ele>128.5</ele><time>2026-05-01T08:03:23.792Z</time></trkpt><trkpt lat="42.3881863" lon="14.2354341"><ele>128.66666666666666</ele><time>2026-05-01T08:03:26.795Z</time></trkpt><trkpt lat="42.3881181" lon="14.2355244"><ele>128.83333333333334</ele><time>2026-05-01T08:03:28.792Z</time></trkpt><trkpt lat="42.3880571" lon="14.2355985"><ele>129.0</ele><time>2026-05-01T08:03:29.807Z</time></trkpt><trkpt lat="42.3879764" lon="14.2356979"><ele>128.4</ele><time>2026-05-01T08:03:30.804Z</time></trkpt><trkpt lat="42.3878903" lon="14.2358037"><ele>127.80000000000001</ele><time>2026-05-01T08:03:31.809Z</time></trkpt><trkpt lat="42.3878103" lon="14.2359014"><ele>127.19999999999999</ele><time>2026-05-01T08:03:32.823Z</time></trkpt><trkpt lat="42.387733" lon="14.2360009"><ele>126.6</ele><time>2026-05-01T08:03:33.8Z</time></trkpt><trkpt lat="42.3876525" lon="14.2360971"><ele>126.0</ele><time>2026-05-01T08:03:34.8Z</time></trkpt><trkpt lat="42.3875653" lon="14.2361937"><ele>126.0</ele><time>2026-05-01T08:03:35.805Z</time></trkpt><trkpt lat="42.3874965" lon="14.2362802"><ele>126.0</ele><time>2026-05-01T08:03:36.805Z</time></trkpt><trkpt lat="42.3874374" lon="14.2363601"><ele>126.0</ele><time>2026-05-01T08:03:37.803Z</time></trkpt><trkpt lat="42.3873768" lon="14.2364454"><ele>126.0</ele><time>2026-05-01T08:03:38.798Z</time></trkpt><trkpt lat="42.3873095" lon="14.2365365"><ele>126.0</ele><time>2026-05-01T08:03:39.808Z</time></trkpt><trkpt lat="42.3872392" lon="14.2366231"><ele>122.8</ele><time>2026-05-01T08:03:40.803Z</time></trkpt><trkpt lat="42.3871711" lon="14.2367075"><ele>119.6</ele><time>2026-05-01T08:03:41.818Z</time></trkpt><trkpt lat="42.3870889" lon="14.2367904"><ele>116.4</ele><time>2026-05-01T08:03:42.801Z</time></trkpt><trkpt lat="42.3870045" lon="14.2368754"><ele>113.2</ele><time>2026-05-01T08:03:43.807Z</time></trkpt><trkpt lat="42.386914" lon="14.2369771"><ele>110.0</ele><time>2026-05-01T08:03:44.809Z</time></trkpt><trkpt lat="42.3868212" lon="14.2370934"><ele>110.0</ele><time>2026-05-01T08:03:45.805Z</time></trkpt><trkpt lat="42.3867327" lon="14.2372027"><ele>110.0</ele><time>2026-05-01T08:03:46.797Z</time></trkpt><trkpt lat="42.3866497" lon="14.2373083"><ele>110.0</ele><time>2026-05-01T08:03:47.808Z</time></trkpt><trkpt lat="42.3865651" lon="14.237415"><ele>110.0</ele><time>2026-05-01T08:03:48.816Z</time></trkpt><trkpt lat="42.3864806" lon="14.2375213"><ele>109.2</ele><time>2026-05-01T08:03:49.799Z</time></trkpt><trkpt lat="42.3863918" lon="14.2376209"><ele>108.4</ele><time>2026-05-01T08:03:50.814Z</time></trkpt><trkpt lat="42.3863077" lon="14.237718"><ele>107.6</ele><time>2026-05-01T08:03:51.805Z</time></trkpt><trkpt lat="42.3862302" lon="14.2378161"><ele>106.8</ele><time>2026-05-01T08:03:52.806Z</time></trkpt><trkpt lat="42.3861571" lon="14.2379029"><ele>106.0</ele><time>2026-05-01T08:03:53.816Z</time></trkpt><trkpt lat="42.3860991" lon="14.2379759"><ele>104.83333333333334</ele><time>2026-05-01T08:03:54.797Z</time></trkpt><trkpt lat="42.3860502" lon="14.2380447"><ele>103.66666666666667</ele><time>2026-05-01T08:03:55.821Z</time></trkpt><trkpt lat="42.3860003" lon="14.2381076"><ele>102.5</ele><time>2026-05-01T08:03:56.8Z</time></trkpt><trkpt lat="42.3859426" lon="14.2381714"><ele>101.33333333333334</ele><time>2026-05-01T08:03:57.815Z</time></trkpt><trkpt lat="42.3858914" lon="14.2382307"><ele>100.16666666666667</ele><time>2026-05-01T08:03:58.807Z</time></trkpt><trkpt lat="42.3858028" lon="14.238328"><ele>99.0</ele><time>2026-05-01T08:04:00.8Z</time></trkpt><trkpt lat="42.3857517" lon="14.2383963"><ele>98.16666666666667</ele><time>2026-05-01T08:04:01.794Z</time></trkpt><trkpt lat="42.3856865" lon="14.2384671"><ele>97.33333333333333</ele><time>2026-05-01T08:04:02.811Z</time></trkpt><trkpt lat="42.385617" lon="14.2385368"><ele>96.5</ele><time>2026-05-01T08:04:03.791Z</time></trkpt><trkpt lat="42.3855411" lon="14.2386092"><ele>95.66666666666666</ele><time>2026-05-01T08:04:04.802Z</time></trkpt><trkpt lat="42.3854626" lon="14.2386835"><ele>94.83333333333333</ele><time>2026-05-01T08:04:05.802Z</time></trkpt><trkpt lat="42.3853934" lon="14.2387562"><ele>94.0</ele><time>2026-05-01T08:04:06.794Z</time></trkpt><trkpt lat="42.3853202" lon="14.2388403"><ele>93.6</ele><time>2026-05-01T08:04:07.811Z</time></trkpt><trkpt lat="42.3852437" lon="14.2389405"><ele>93.2</ele><time>2026-05-01T08:04:08.799Z</time></trkpt><trkpt lat="42.3851643" lon="14.2390427"><ele>92.8</ele><time>2026-05-01T08:04:09.802Z</time></trkpt><trkpt lat="42.3850877" lon="14.2391453"><ele>92.39999999999999</ele><time>2026-05-01T08:04:10.804Z</time></trkpt><trkpt lat="42.3850102" lon="14.2392449"><ele>92.0</ele><time>2026-05-01T08:04:11.809Z</time></trkpt><trkpt lat="42.3849317" lon="14.2393414"><ele>90.6</ele><time>2026-05-01T08:04:12.816Z</time></trkpt><trkpt lat="42.384855" lon="14.2394318"><ele>89.19999999999999</ele><time>2026-05-01T08:04:13.82Z</time></trkpt><trkpt lat="42.3847819" lon="14.2395223"><ele>87.8</ele><time>2026-05-01T08:04:14.807Z</time></trkpt><trkpt lat="42.384702" lon="14.2396115"><ele>86.4</ele><time>2026-05-01T08:04:15.819Z</time></trkpt><trkpt lat="42.3846204" lon="14.2396995"><ele>85.0</ele><time>2026-05-01T08:04:16.803Z</time></trkpt><trkpt lat="42.3845459" lon="14.2397845"><ele>82.6</ele><time>2026-05-01T08:04:17.799Z</time></trkpt><trkpt lat="42.3844782" lon="14.23987"><ele>80.2</ele><time>2026-05-01T08:04:18.8Z</time></trkpt><trkpt lat="42.3844073" lon="14.2399504"><ele>77.8</ele><time>2026-05-01T08:04:19.808Z</time></trkpt><trkpt lat="42.3843339" lon="14.2400399"><ele>75.4</ele><time>2026-05-01T08:04:20.802Z</time></trkpt><trkpt lat="42.3842578" lon="14.240125"><ele>73.0</ele><time>2026-05-01T08:04:21.81Z</time></trkpt><trkpt lat="42.3841871" lon="14.2402059"><ele>73.0</ele><time>2026-05-01T08:04:22.799Z</time></trkpt><trkpt lat="42.3841184" lon="14.2402794"><ele>73.0</ele><time>2026-05-01T08:04:23.804Z</time></trkpt><trkpt lat="42.3840477" lon="14.240357"><ele>73.0</ele><time>2026-05-01T08:04:24.806Z</time></trkpt><trkpt lat="42.3839882" lon="14.2404336"><ele>73.0</ele><time>2026-05-01T08:04:25.802Z</time></trkpt><trkpt lat="42.3839304" lon="14.2405044"><ele>73.0</ele><time>2026-05-01T08:04:26.789Z</time></trkpt><trkpt lat="42.3838766" lon="14.240563"><ele>73.0</ele><time>2026-05-01T08:04:27.802Z</time></trkpt><trkpt lat="42.3838014" lon="14.240663"><ele>70.5</ele><time>2026-05-01T08:04:29.793Z</time></trkpt><trkpt lat="42.3837438" lon="14.2407237"><ele>68.0</ele><time>2026-05-01T08:04:32.795Z</time></trkpt><trkpt lat="42.3836729" lon="14.2408047"><ele>65.5</ele><time>2026-05-01T08:04:35.804Z</time></trkpt><trkpt lat="42.3836215" lon="14.2408573"><ele>63.0</ele><time>2026-05-01T08:04:42.809Z</time></trkpt><trkpt lat="42.3835712" lon="14.2409102"><ele>60.49999999999999</ele><time>2026-05-01T08:06:05.806Z</time></trkpt><trkpt lat="42.3834873" lon="14.2410249"><ele>58.0</ele><time>2026-05-01T08:06:07.804Z</time></trkpt><trkpt lat="42.383395" lon="14.2411136"><ele>58.0</ele><time>2026-05-01T08:06:09.798Z</time></trkpt><trkpt lat="42.3833086" lon="14.2412063"><ele>58.0</ele><time>2026-05-01T08:06:11.794Z</time></trkpt><trkpt lat="42.3832182" lon="14.2413152"><ele>58.0</ele><time>2026-05-01T08:06:13.802Z</time></trkpt><trkpt lat="42.3831241" lon="14.2414139"><ele>58.0</ele><time>2026-05-01T08:06:15.799Z</time></trkpt><trkpt lat="42.3830385" lon="14.2415173"><ele>55.99999999999999</ele><time>2026-05-01T08:06:17.812Z</time></trkpt><trkpt lat="42.3829594" lon="14.2416086"><ele>54.0</ele><time>2026-05-01T08:06:19.806Z</time></trkpt><trkpt lat="42.3828979" lon="14.2416902"><ele>52.0</ele><time>2026-05-01T08:06:21.802Z</time></trkpt><trkpt lat="42.3828487" lon="14.2417599"><ele>50.0</ele><time>2026-05-01T08:06:23.797Z</time></trkpt><trkpt lat="42.382782" lon="14.2418193"><ele>48.0</ele><time>2026-05-01T08:06:27.81Z</time></trkpt><trkpt lat="42.3827252" lon="14.2417773"><ele>46.0</ele><time>2026-05-01T08:06:29.811Z</time></trkpt><trkpt lat="42.3826614" lon="14.2417008"><ele>46.0</ele><time>2026-05-01T08:06:31.799Z</time></trkpt><trkpt lat="42.3825948" lon="14.241642"><ele>46.0</ele><time>2026-05-01T08:06:32.8Z</time></trkpt><trkpt lat="42.3825108" lon="14.2415589"><ele>46.0</ele><time>2026-05-01T08:06:33.8Z</time></trkpt><trkpt lat="42.38243" lon="14.2414792"><ele>46.0</ele><time>2026-05-01T08:06:34.803Z</time></trkpt><trkpt lat="42.3823553" lon="14.2414046"><ele>46.0</ele><time>2026-05-01T08:06:35.801Z</time></trkpt><trkpt lat="42.3822935" lon="14.2413525"><ele>46.0</ele><time>2026-05-01T08:06:36.796Z</time></trkpt><trkpt lat="42.3822232" lon="14.2412962"><ele>46.4</ele><time>2026-05-01T08:06:37.791Z</time></trkpt><trkpt lat="42.3821415" lon="14.2412244"><ele>46.8</ele><time>2026-05-01T08:06:38.813Z</time></trkpt><trkpt lat="42.3820526" lon="14.2411392"><ele>47.199999999999996</ele><time>2026-05-01T08:06:39.812Z</time></trkpt><trkpt lat="42.3819594" lon="14.2410459"><ele>47.599999999999994</ele><time>2026-05-01T08:06:40.806Z</time></trkpt><trkpt lat="42.381861" lon="14.2409553"><ele>48.0</ele><time>2026-05-01T08:06:41.806Z</time></trkpt><trkpt lat="42.3817645" lon="14.2408618"><ele>48.0</ele><time>2026-05-01T08:06:42.8Z</time></trkpt><trkpt lat="42.3816725" lon="14.240775"><ele>48.0</ele><time>2026-05-01T08:06:43.811Z</time></trkpt><trkpt lat="42.3815762" lon="14.240698"><ele>48.0</ele><time>2026-05-01T08:06:44.793Z</time></trkpt><trkpt lat="42.3814846" lon="14.2406212"><ele>48.0</ele><time>2026-05-01T08:06:45.812Z</time></trkpt><trkpt lat="42.3813865" lon="14.2405363"><ele>48.0</ele><time>2026-05-01T08:06:46.801Z</time></trkpt><trkpt lat="42.3812865" lon="14.2404522"><ele>49.75</ele><time>2026-05-01T08:06:47.821Z</time></trkpt><trkpt lat="42.3811822" lon="14.2403676"><ele>51.5</ele><time>2026-05-01T08:06:48.806Z</time></trkpt><trkpt lat="42.3810765" lon="14.2402764"><ele>53.25</ele><time>2026-05-01T08:06:49.818Z</time></trkpt><trkpt lat="42.3809613" lon="14.2401785"><ele>55.0</ele><time>2026-05-01T08:06:50.796Z</time></trkpt><trkpt lat="42.3808442" lon="14.2400839"><ele>55.0</ele><time>2026-05-01T08:06:51.794Z</time></trkpt><trkpt lat="42.3807297" lon="14.2399876"><ele>55.0</ele><time>2026-05-01T08:06:52.804Z</time></trkpt><trkpt lat="42.3806268" lon="14.2398841"><ele>55.0</ele><time>2026-05-01T08:06:53.803Z</time></trkpt><trkpt lat="42.3805268" lon="14.239781"><ele>55.0</ele><time>2026-05-01T08:06:54.803Z</time></trkpt><trkpt lat="42.3804307" lon="14.2396622"><ele>55.4</ele><time>2026-05-01T08:06:55.795Z</time></trkpt><trkpt lat="42.3803517" lon="14.2395427"><ele>55.8</ele><time>2026-05-01T08:06:56.804Z</time></trkpt><trkpt lat="42.3802842" lon="14.2394385"><ele>56.2</ele><time>2026-05-01T08:06:57.809Z</time></trkpt><trkpt lat="42.3802238" lon="14.2393495"><ele>56.6</ele><time>2026-05-01T08:06:58.796Z</time></trkpt><trkpt lat="42.3801725" lon="14.2392735"><ele>57.0</ele><time>2026-05-01T08:06:59.81Z</time></trkpt><trkpt lat="42.3801052" lon="14.2391324"><ele>57.0</ele><time>2026-05-01T08:07:01.796Z</time></trkpt><trkpt lat="42.3800806" lon="14.239026"><ele>57.0</ele><time>2026-05-01T08:07:03.805Z</time></trkpt><trkpt lat="42.3800603" lon="14.2389275"><ele>57.0</ele><time>2026-05-01T08:07:06.793Z</time></trkpt><trkpt lat="42.3800096" lon="14.2390081"><ele>57.0</ele><time>2026-05-01T08:07:10.801Z</time></trkpt><trkpt lat="42.3799591" lon="14.239119"><ele>57.0</ele><time>2026-05-01T08:07:12.811Z</time></trkpt><trkpt lat="42.3798738" lon="14.2392499"><ele>57.0</ele><time>2026-05-01T08:07:14.802Z</time></trkpt><trkpt lat="42.3798169" lon="14.239318"><ele>57.0</ele><time>2026-05-01T08:07:15.803Z</time></trkpt><trkpt lat="42.3797533" lon="14.2393668"><ele>57.0</ele><time>2026-05-01T08:07:16.836Z</time></trkpt><trkpt lat="42.3796909" lon="14.2394164"><ele>57.0</ele><time>2026-05-01T08:07:17.799Z</time></trkpt><trkpt lat="42.3796193" lon="14.2394724"><ele>57.0</ele><time>2026-05-01T08:07:18.793Z</time></trkpt><trkpt lat="42.3795385" lon="14.239526"><ele>57.0</ele><time>2026-05-01T08:07:19.803Z</time></trkpt><trkpt lat="42.3794524" lon="14.2395648"><ele>56.333333333333336</ele><time>2026-05-01T08:07:20.807Z</time></trkpt><trkpt lat="42.3793717" lon="14.239597"><ele>55.66666666666667</ele><time>2026-05-01T08:07:21.83Z</time></trkpt><trkpt lat="42.379283" lon="14.2396276"><ele>55.0</ele><time>2026-05-01T08:07:22.807Z</time></trkpt><trkpt lat="42.3791992" lon="14.2396589"><ele>54.333333333333336</ele><time>2026-05-01T08:07:23.807Z</time></trkpt><trkpt lat="42.379134" lon="14.2396854"><ele>53.66666666666667</ele><time>2026-05-01T08:07:24.806Z</time></trkpt><trkpt lat="42.3790687" lon="14.2397263"><ele>53.0</ele><time>2026-05-01T08:07:27.804Z</time></trkpt><trkpt lat="42.379002" lon="14.2398545"><ele>53.00000000000001</ele><time>2026-05-01T08:07:51.8Z</time></trkpt><trkpt lat="42.378939" lon="14.2399116"><ele>53.0</ele><time>2026-05-01T08:07:53.802Z</time></trkpt><trkpt lat="42.3788876" lon="14.2399996"><ele>53.0</ele><time>2026-05-01T08:07:56.8Z</time></trkpt><trkpt lat="42.378951" lon="14.2400036"><ele>53.0</ele><time>2026-05-01T08:07:59.816Z</time></trkpt><trkpt lat="42.3790005" lon="14.2398854"><ele>53.00000000000001</ele><time>2026-05-01T08:08:01.796Z</time></trkpt><trkpt lat="42.3790325" lon="14.2398066"><ele>53.0</ele><time>2026-05-01T08:08:03.801Z</time></trkpt><trkpt lat="42.3790334" lon="14.2397208"><ele>53.00000000000001</ele><time>2026-05-01T08:08:05.8Z</time></trkpt><trkpt lat="42.3790159" lon="14.2395752"><ele>53.0</ele><time>2026-05-01T08:08:07.795Z</time></trkpt><trkpt lat="42.379015" lon="14.2394867"><ele>53.0</ele><time>2026-05-01T08:08:08.816Z</time></trkpt><trkpt lat="42.3790211" lon="14.2393964"><ele>53.0</ele><time>2026-05-01T08:08:10.802Z</time></trkpt><trkpt lat="42.3790127" lon="14.2392935"><ele>53.00000000000001</ele><time>2026-05-01T08:08:12.81Z</time></trkpt><trkpt lat="42.379006" lon="14.2391431"><ele>53.0</ele><time>2026-05-01T08:08:14.813Z</time></trkpt><trkpt lat="42.3790066" lon="14.2389832"><ele>53.4</ele><time>2026-05-01T08:08:16.8Z</time></trkpt><trkpt lat="42.3789896" lon="14.2388449"><ele>53.8</ele><time>2026-05-01T08:08:18.827Z</time></trkpt><trkpt lat="42.3789722" lon="14.2387262"><ele>54.2</ele><time>2026-05-01T08:08:20.806Z</time></trkpt><trkpt lat="42.3789528" lon="14.2386003"><ele>54.6</ele><time>2026-05-01T08:08:22.805Z</time></trkpt><trkpt lat="42.3789407" lon="14.2384641"><ele>55.0</ele><time>2026-05-01T08:08:24.816Z</time></trkpt><trkpt lat="42.3789342" lon="14.2383362"><ele>54.99999999999999</ele><time>2026-05-01T08:08:26.807Z</time></trkpt><trkpt lat="42.3789039" lon="14.2382241"><ele>55.0</ele><time>2026-05-01T08:08:28.806Z</time></trkpt><trkpt lat="42.3788722" lon="14.2381475"><ele>55.0</ele><time>2026-05-01T08:08:31.812Z</time></trkpt><trkpt lat="42.3788268" lon="14.2380807"><ele>55.0</ele><time>2026-05-01T08:08:41.811Z</time></trkpt><trkpt lat="42.3787808" lon="14.2380025"><ele>55.0</ele><time>2026-05-01T08:08:46.802Z</time></trkpt><trkpt lat="42.3787229" lon="14.2379149"><ele>54.99999999999999</ele><time>2026-05-01T08:08:49.805Z</time></trkpt><trkpt lat="42.3786822" lon="14.2378435"><ele>55.0</ele><time>2026-05-01T08:08:51.807Z</time></trkpt><trkpt lat="42.3785981" lon="14.2377303"><ele>57.33333333333333</ele><time>2026-05-01T08:08:53.812Z</time></trkpt><trkpt lat="42.3785566" lon="14.2376594"><ele>59.666666666666664</ele><time>2026-05-01T08:08:54.797Z</time></trkpt><trkpt lat="42.3785107" lon="14.2375917"><ele>62.0</ele><time>2026-05-01T08:08:55.804Z</time></trkpt><trkpt lat="42.3784478" lon="14.2374972"><ele>64.33333333333333</ele><time>2026-05-01T08:08:57.806Z</time></trkpt><trkpt lat="42.3783956" lon="14.2374296"><ele>66.66666666666667</ele><time>2026-05-01T08:09:00.796Z</time></trkpt><trkpt lat="42.3783444" lon="14.2373354"><ele>69.0</ele><time>2026-05-01T08:09:02.807Z</time></trkpt><trkpt lat="42.3782858" lon="14.2372239"><ele>70.8</ele><time>2026-05-01T08:09:04.807Z</time></trkpt><trkpt lat="42.3782356" lon="14.2370923"><ele>72.60000000000001</ele><time>2026-05-01T08:09:06.805Z</time></trkpt><trkpt lat="42.3781785" lon="14.2369661"><ele>74.4</ele><time>2026-05-01T08:09:08.791Z</time></trkpt><trkpt lat="42.3781188" lon="14.2368289"><ele>76.2</ele><time>2026-05-01T08:09:10.811Z</time></trkpt><trkpt lat="42.3780852" lon="14.2367564"><ele>78.0</ele><time>2026-05-01T08:09:11.8Z</time></trkpt><trkpt lat="42.3780567" lon="14.2366758"><ele>78.0</ele><time>2026-05-01T08:09:12.843Z</time></trkpt><trkpt lat="42.3780247" lon="14.2365883"><ele>78.0</ele><time>2026-05-01T08:09:13.806Z</time></trkpt><trkpt lat="42.3780011" lon="14.2365042"><ele>78.0</ele><time>2026-05-01T08:09:14.798Z</time></trkpt><trkpt lat="42.3779492" lon="14.2363768"><ele>78.0</ele><time>2026-05-01T08:09:16.816Z</time></trkpt><trkpt lat="42.3779035" lon="14.2362557"><ele>78.0</ele><time>2026-05-01T08:09:18.806Z</time></trkpt><trkpt lat="42.3778833" lon="14.2361689"><ele>78.0</ele><time>2026-05-01T08:09:20.801Z</time></trkpt><trkpt lat="42.3778388" lon="14.2360477"><ele>80.5</ele><time>2026-05-01T08:09:22.803Z</time></trkpt><trkpt lat="42.3777919" lon="14.2359161"><ele>83.0</ele><time>2026-05-01T08:09:24.8Z</time></trkpt><trkpt lat="42.3777604" lon="14.2358161"><ele>85.5</ele><time>2026-05-01T08:09:26.809Z</time></trkpt><trkpt lat="42.377731" lon="14.2357224"><ele>88.0</ele><time>2026-05-01T08:09:28.807Z</time></trkpt><trkpt lat="42.3777073" lon="14.2356257"><ele>90.5</ele><time>2026-05-01T08:09:30.816Z</time></trkpt><trkpt lat="42.3776637" lon="14.2355068"><ele>93.0</ele><time>2026-05-01T08:09:32.808Z</time></trkpt><trkpt lat="42.3776286" lon="14.2353593"><ele>94.16666666666667</ele><time>2026-05-01T08:09:34.806Z</time></trkpt><trkpt lat="42.377591" lon="14.2352333"><ele>95.33333333333334</ele><time>2026-05-01T08:09:36.803Z</time></trkpt><trkpt lat="42.3775287" lon="14.2350674"><ele>96.5</ele><time>2026-05-01T08:09:38.805Z</time></trkpt><trkpt lat="42.3774995" lon="14.2349849"><ele>97.66666666666667</ele><time>2026-05-01T08:09:39.812Z</time></trkpt><trkpt lat="42.3774709" lon="14.2349054"><ele>98.83333333333334</ele><time>2026-05-01T08:09:40.808Z</time></trkpt><trkpt lat="42.377446" lon="14.2348165"><ele>100.0</ele><time>2026-05-01T08:09:41.809Z</time></trkpt><trkpt lat="42.3774209" lon="14.2347285"><ele>100.66666666666667</ele><time>2026-05-01T08:09:42.79Z</time></trkpt><trkpt lat="42.3773934" lon="14.2346279"><ele>101.33333333333334</ele><time>2026-05-01T08:09:43.807Z</time></trkpt><trkpt lat="42.3773678" lon="14.2345215"><ele>102.0</ele><time>2026-05-01T08:09:44.816Z</time></trkpt><trkpt lat="42.3773428" lon="14.2344116"><ele>102.66666666666666</ele><time>2026-05-01T08:09:45.823Z</time></trkpt><trkpt lat="42.3773152" lon="14.2342915"><ele>103.33333333333333</ele><time>2026-05-01T08:09:46.807Z</time></trkpt><trkpt lat="42.3772739" lon="14.23416"><ele>104.0</ele><time>2026-05-01T08:09:47.802Z</time></trkpt><trkpt lat="42.3772276" lon="14.2340297"><ele>106.25</ele><time>2026-05-01T08:09:48.801Z</time></trkpt><trkpt lat="42.3771722" lon="14.2338906"><ele>108.5</ele><time>2026-05-01T08:09:49.803Z</time></trkpt><trkpt lat="42.3770973" lon="14.233752"><ele>110.75</ele><time>2026-05-01T08:09:50.805Z</time></trkpt><trkpt lat="42.3770277" lon="14.2336146"><ele>113.0</ele><time>2026-05-01T08:09:51.803Z</time></trkpt><trkpt lat="42.3769663" lon="14.2334985"><ele>113.0</ele><time>2026-05-01T08:09:52.808Z</time></trkpt><trkpt lat="42.3769108" lon="14.2333905"><ele>113.00000000000001</ele><time>2026-05-01T08:09:53.804Z</time></trkpt><trkpt lat="42.3768394" lon="14.2332695"><ele>113.00000000000001</ele><time>2026-05-01T08:09:54.838Z</time></trkpt><trkpt lat="42.3767684" lon="14.2331561"><ele>113.0</ele><time>2026-05-01T08:09:55.803Z</time></trkpt><trkpt lat="42.3767142" lon="14.2330414"><ele>113.0</ele><time>2026-05-01T08:09:56.806Z</time></trkpt><trkpt lat="42.3766781" lon="14.2329061"><ele>112.75</ele><time>2026-05-01T08:09:57.81Z</time></trkpt><trkpt lat="42.3766345" lon="14.2327554"><ele>112.5</ele><time>2026-05-01T08:09:58.795Z</time></trkpt><trkpt lat="42.376589" lon="14.2325907"><ele>112.25</ele><time>2026-05-01T08:09:59.833Z</time></trkpt><trkpt lat="42.3765446" lon="14.2324347"><ele>112.0</ele><time>2026-05-01T08:10:00.8Z</time></trkpt><trkpt lat="42.3764994" lon="14.2322895"><ele>111.25</ele><time>2026-05-01T08:10:01.8Z</time></trkpt><trkpt lat="42.3764336" lon="14.2321146"><ele>110.5</ele><time>2026-05-01T08:10:02.816Z</time></trkpt><trkpt lat="42.3763736" lon="14.2319561"><ele>109.75</ele><time>2026-05-01T08:10:03.801Z</time></trkpt><trkpt lat="42.3763369" lon="14.2318373"><ele>109.0</ele><time>2026-05-01T08:10:04.822Z</time></trkpt><trkpt lat="42.3763023" lon="14.2317172"><ele>110.4</ele><time>2026-05-01T08:10:05.803Z</time></trkpt><trkpt lat="42.3762673" lon="14.2315906"><ele>111.80000000000001</ele><time>2026-05-01T08:10:06.813Z</time></trkpt><trkpt lat="42.3762326" lon="14.2314597"><ele>113.19999999999999</ele><time>2026-05-01T08:10:07.81Z</time></trkpt><trkpt lat="42.3761954" lon="14.2313241"><ele>114.6</ele><time>2026-05-01T08:10:08.804Z</time></trkpt><trkpt lat="42.3761482" lon="14.2311787"><ele>116.0</ele><time>2026-05-01T08:10:09.804Z</time></trkpt><trkpt lat="42.3760937" lon="14.2310051"><ele>116.25</ele><time>2026-05-01T08:10:10.807Z</time></trkpt><trkpt lat="42.3760412" lon="14.2308353"><ele>116.5</ele><time>2026-05-01T08:10:11.809Z</time></trkpt><trkpt lat="42.3759949" lon="14.2306735"><ele>116.75</ele><time>2026-05-01T08:10:12.811Z</time></trkpt><trkpt lat="42.3759456" lon="14.2305007"><ele>117.0</ele><time>2026-05-01T08:10:13.809Z</time></trkpt><trkpt lat="42.3758922" lon="14.2303234"><ele>117.75</ele><time>2026-05-01T08:10:14.814Z</time></trkpt><trkpt lat="42.3758441" lon="14.2301482"><ele>118.5</ele><time>2026-05-01T08:10:15.796Z</time></trkpt><trkpt lat="42.3758002" lon="14.2299887"><ele>119.25</ele><time>2026-05-01T08:10:16.814Z</time></trkpt><trkpt lat="42.3757688" lon="14.229822"><ele>120.0</ele><time>2026-05-01T08:10:17.81Z</time></trkpt><trkpt lat="42.375749" lon="14.2296486"><ele>120.16666666666667</ele><time>2026-05-01T08:10:18.81Z</time></trkpt><trkpt lat="42.3757277" lon="14.2294941"><ele>120.33333333333334</ele><time>2026-05-01T08:10:19.796Z</time></trkpt><trkpt lat="42.3757189" lon="14.2293789"><ele>120.5</ele><time>2026-05-01T08:10:20.807Z</time></trkpt><trkpt lat="42.3757007" lon="14.2292945"><ele>120.66666666666667</ele><time>2026-05-01T08:10:21.807Z</time></trkpt><trkpt lat="42.3756464" lon="14.2292478"><ele>120.83333333333334</ele><time>2026-05-01T08:10:23.81Z</time></trkpt><trkpt lat="42.3756076" lon="14.2293986"><ele>121.0</ele><time>2026-05-01T08:10:25.813Z</time></trkpt><trkpt lat="42.3755744" lon="14.2295301"><ele>121.6</ele><time>2026-05-01T08:10:26.809Z</time></trkpt><trkpt lat="42.3755139" lon="14.229637"><ele>122.19999999999999</ele><time>2026-05-01T08:10:27.815Z</time></trkpt><trkpt lat="42.3754568" lon="14.2297208"><ele>122.80000000000001</ele><time>2026-05-01T08:10:28.81Z</time></trkpt><trkpt lat="42.3754066" lon="14.229811"><ele>123.4</ele><time>2026-05-01T08:10:29.81Z</time></trkpt><trkpt lat="42.3753478" lon="14.2299589"><ele>124.0</ele><time>2026-05-01T08:10:30.815Z</time></trkpt><trkpt lat="42.3752837" lon="14.2301215"><ele>124.0</ele><time>2026-05-01T08:10:31.802Z</time></trkpt><trkpt lat="42.3752206" lon="14.2302707"><ele>124.0</ele><time>2026-05-01T08:10:32.82Z</time></trkpt><trkpt lat="42.3751628" lon="14.2304007"><ele>124.0</ele><time>2026-05-01T08:10:33.807Z</time></trkpt><trkpt lat="42.3751093" lon="14.2305235"><ele>124.0</ele><time>2026-05-01T08:10:34.809Z</time></trkpt><trkpt lat="42.3750893" lon="14.2306485"><ele>124.0</ele><time>2026-05-01T08:10:35.803Z</time></trkpt><trkpt lat="42.3750842" lon="14.2307692"><ele>123.0</ele><time>2026-05-01T08:10:36.815Z</time></trkpt><trkpt lat="42.3751093" lon="14.2309"><ele>122.0</ele><time>2026-05-01T08:10:37.797Z</time></trkpt><trkpt lat="42.3751379" lon="14.2310396"><ele>121.0</ele><time>2026-05-01T08:10:38.806Z</time></trkpt><trkpt lat="42.3751699" lon="14.2311765"><ele>120.0</ele><time>2026-05-01T08:10:39.799Z</time></trkpt><trkpt lat="42.3751981" lon="14.2313109"><ele>119.0</ele><time>2026-05-01T08:10:40.803Z</time></trkpt><trkpt lat="42.3752346" lon="14.231435"><ele>117.0</ele><time>2026-05-01T08:10:41.812Z</time></trkpt><trkpt lat="42.3752851" lon="14.2315593"><ele>115.0</ele><time>2026-05-01T08:10:42.82Z</time></trkpt><trkpt lat="42.3753352" lon="14.2317004"><ele>113.0</ele><time>2026-05-01T08:10:43.815Z</time></trkpt><trkpt lat="42.3753669" lon="14.2318513"><ele>111.0</ele><time>2026-05-01T08:10:44.823Z</time></trkpt><trkpt lat="42.3753774" lon="14.2319997"><ele>109.0</ele><time>2026-05-01T08:10:45.804Z</time></trkpt><trkpt lat="42.3753641" lon="14.2321507"><ele>109.0</ele><time>2026-05-01T08:10:46.797Z</time></trkpt><trkpt lat="42.3753309" lon="14.232301"><ele>109.0</ele><time>2026-05-01T08:10:47.81Z</time></trkpt><trkpt lat="42.3752636" lon="14.2324286"><ele>109.0</ele><time>2026-05-01T08:10:48.808Z</time></trkpt><trkpt lat="42.3751676" lon="14.2325546"><ele>109.0</ele><time>2026-05-01T08:10:49.801Z</time></trkpt><trkpt lat="42.3750667" lon="14.2326533"><ele>108.25</ele><time>2026-05-01T08:10:50.823Z</time></trkpt><trkpt lat="42.3749577" lon="14.2327269"><ele>107.5</ele><time>2026-05-01T08:10:51.816Z</time></trkpt><trkpt lat="42.3748294" lon="14.2327572"><ele>106.75</ele><time>2026-05-01T08:10:52.813Z</time></trkpt><trkpt lat="42.3746885" lon="14.2327645"><ele>106.0</ele><time>2026-05-01T08:10:53.819Z</time></trkpt><trkpt lat="42.3745414" lon="14.2327594"><ele>104.75</ele><time>2026-05-01T08:10:54.795Z</time></trkpt><trkpt lat="42.374397" lon="14.2327526"><ele>103.5</ele><time>2026-05-01T08:10:55.817Z</time></trkpt><trkpt lat="42.3742522" lon="14.2327689"><ele>102.25</ele><time>2026-05-01T08:10:56.813Z</time></trkpt><trkpt lat="42.3741042" lon="14.232797"><ele>101.0</ele><time>2026-05-01T08:10:57.797Z</time></trkpt><trkpt lat="42.3739534" lon="14.2328432"><ele>100.75</ele><time>2026-05-01T08:10:58.805Z</time></trkpt><trkpt lat="42.3738078" lon="14.2328799"><ele>100.5</ele><time>2026-05-01T08:10:59.801Z</time></trkpt><trkpt lat="42.3736703" lon="14.2329026"><ele>100.25</ele><time>2026-05-01T08:11:00.807Z</time></trkpt><trkpt lat="42.3735347" lon="14.2329073"><ele>100.0</ele><time>2026-05-01T08:11:01.803Z</time></trkpt><trkpt lat="42.3734028" lon="14.2329002"><ele>100.0</ele><time>2026-05-01T08:11:02.803Z</time></trkpt><trkpt lat="42.3732638" lon="14.232889"><ele>100.0</ele><time>2026-05-01T08:11:03.818Z</time></trkpt><trkpt lat="42.37313" lon="14.232862"><ele>100.0</ele><time>2026-05-01T08:11:04.808Z</time></trkpt><trkpt lat="42.3730062" lon="14.2328169"><ele>100.0</ele><time>2026-05-01T08:11:05.813Z</time></trkpt><trkpt lat="42.3728958" lon="14.2327877"><ele>98.2</ele><time>2026-05-01T08:11:06.802Z</time></trkpt><trkpt lat="42.3727948" lon="14.2328055"><ele>96.4</ele><time>2026-05-01T08:11:07.806Z</time></trkpt><trkpt lat="42.3726893" lon="14.2328717"><ele>94.6</ele><time>2026-05-01T08:11:08.805Z</time></trkpt><trkpt lat="42.3726059" lon="14.2329861"><ele>92.8</ele><time>2026-05-01T08:11:09.796Z</time></trkpt><trkpt lat="42.3725665" lon="14.2331223"><ele>91.0</ele><time>2026-05-01T08:11:10.805Z</time></trkpt><trkpt lat="42.3725675" lon="14.2332457"><ele>88.6</ele><time>2026-05-01T08:11:11.806Z</time></trkpt><trkpt lat="42.3725928" lon="14.2333843"><ele>86.19999999999999</ele><time>2026-05-01T08:11:12.803Z</time></trkpt><trkpt lat="42.3726512" lon="14.2335072"><ele>83.80000000000001</ele><time>2026-05-01T08:11:13.819Z</time></trkpt><trkpt lat="42.372738" lon="14.2335888"><ele>81.4</ele><time>2026-05-01T08:11:14.806Z</time></trkpt><trkpt lat="42.372845" lon="14.2336149"><ele>79.0</ele><time>2026-05-01T08:11:15.803Z</time></trkpt><trkpt lat="42.3729629" lon="14.233615"><ele>81.25</ele><time>2026-05-01T08:11:16.804Z</time></trkpt><trkpt lat="42.3730872" lon="14.2335992"><ele>83.5</ele><time>2026-05-01T08:11:17.816Z</time></trkpt><trkpt lat="42.3732142" lon="14.2335894"><ele>85.75</ele><time>2026-05-01T08:11:18.806Z</time></trkpt><trkpt lat="42.3733236" lon="14.2335834"><ele>88.0</ele><time>2026-05-01T08:11:19.812Z</time></trkpt><trkpt lat="42.3734184" lon="14.2335859"><ele>88.0</ele><time>2026-05-01T08:11:20.815Z</time></trkpt><trkpt lat="42.3735095" lon="14.2336089"><ele>88.0</ele><time>2026-05-01T08:11:21.8Z</time></trkpt><trkpt lat="42.3735974" lon="14.233664"><ele>88.0</ele><time>2026-05-01T08:11:22.806Z</time></trkpt><trkpt lat="42.3736557" lon="14.2337548"><ele>88.0</ele><time>2026-05-01T08:11:23.805Z</time></trkpt><trkpt lat="42.3736806" lon="14.2338507"><ele>88.0</ele><time>2026-05-01T08:11:24.816Z</time></trkpt><trkpt lat="42.3736819" lon="14.2339509"><ele>88.0</ele><time>2026-05-01T08:11:25.804Z</time></trkpt><trkpt lat="42.3736567" lon="14.2340634"><ele>85.4</ele><time>2026-05-01T08:11:26.8Z</time></trkpt><trkpt lat="42.3736091" lon="14.2341619"><ele>82.80000000000001</ele><time>2026-05-01T08:11:27.808Z</time></trkpt><trkpt lat="42.3735474" lon="14.2342797"><ele>80.2</ele><time>2026-05-01T08:11:28.809Z</time></trkpt><trkpt lat="42.3734901" lon="14.2344104"><ele>77.6</ele><time>2026-05-01T08:11:29.804Z</time></trkpt><trkpt lat="42.3734451" lon="14.2345408"><ele>75.0</ele><time>2026-05-01T08:11:30.812Z</time></trkpt><trkpt lat="42.3734226" lon="14.2346732"><ele>73.6</ele><time>2026-05-01T08:11:31.801Z</time></trkpt><trkpt lat="42.3734369" lon="14.2348146"><ele>72.2</ele><time>2026-05-01T08:11:32.81Z</time></trkpt><trkpt lat="42.3734689" lon="14.2349339"><ele>70.8</ele><time>2026-05-01T08:11:33.803Z</time></trkpt><trkpt lat="42.3735083" lon="14.2350451"><ele>69.4</ele><time>2026-05-01T08:11:34.797Z</time></trkpt><trkpt lat="42.3735389" lon="14.2351447"><ele>68.0</ele><time>2026-05-01T08:11:35.808Z</time></trkpt><trkpt lat="42.3735413" lon="14.235253"><ele>68.0</ele><time>2026-05-01T08:11:36.815Z</time></trkpt><trkpt lat="42.3734936" lon="14.2353406"><ele>68.0</ele><time>2026-05-01T08:11:37.812Z</time></trkpt><trkpt lat="42.3734248" lon="14.2353849"><ele>68.0</ele><time>2026-05-01T08:11:38.804Z</time></trkpt><trkpt lat="42.3733208" lon="14.235383"><ele>68.0</ele><time>2026-05-01T08:11:39.806Z</time></trkpt><trkpt lat="42.3732244" lon="14.2353258"><ele>68.0</ele><time>2026-05-01T08:11:40.803Z</time></trkpt><trkpt lat="42.3731133" lon="14.2352369"><ele>65.66666666666667</ele><time>2026-05-01T08:11:41.817Z</time></trkpt><trkpt lat="42.3729971" lon="14.235129"><ele>63.33333333333333</ele><time>2026-05-01T08:11:42.799Z</time></trkpt><trkpt lat="42.3728663" lon="14.2350251"><ele>61.0</ele><time>2026-05-01T08:11:43.802Z</time></trkpt><trkpt lat="42.3727237" lon="14.2349228"><ele>61.0</ele><time>2026-05-01T08:11:44.801Z</time></trkpt><trkpt lat="42.3725754" lon="14.234842"><ele>61.0</ele><time>2026-05-01T08:11:45.805Z</time></trkpt><trkpt lat="42.3724303" lon="14.2348054"><ele>61.0</ele><time>2026-05-01T08:11:46.801Z</time></trkpt><trkpt lat="42.3722806" lon="14.2348111"><ele>59.75</ele><time>2026-05-01T08:11:47.807Z</time></trkpt><trkpt lat="42.3721409" lon="14.2348131"><ele>58.5</ele><time>2026-05-01T08:11:48.797Z</time></trkpt><trkpt lat="42.3720033" lon="14.234806"><ele>57.25</ele><time>2026-05-01T08:11:49.79Z</time></trkpt><trkpt lat="42.3718734" lon="14.2347795"><ele>56.0</ele><time>2026-05-01T08:11:50.807Z</time></trkpt><trkpt lat="42.3717401" lon="14.234727"><ele>56.0</ele><time>2026-05-01T08:11:51.803Z</time></trkpt><trkpt lat="42.3716039" lon="14.2346376"><ele>56.0</ele><time>2026-05-01T08:11:52.807Z</time></trkpt><trkpt lat="42.3714729" lon="14.2345168"><ele>56.0</ele><time>2026-05-01T08:11:53.8Z</time></trkpt><trkpt lat="42.3713435" lon="14.2343882"><ele>54.333333333333336</ele><time>2026-05-01T08:11:54.798Z</time></trkpt><trkpt lat="42.3712139" lon="14.2342731"><ele>52.66666666666667</ele><time>2026-05-01T08:11:55.795Z</time></trkpt><trkpt lat="42.3710724" lon="14.2342014"><ele>51.0</ele><time>2026-05-01T08:11:56.801Z</time></trkpt><trkpt lat="42.3709307" lon="14.2341544"><ele>51.0</ele><time>2026-05-01T08:11:57.793Z</time></trkpt><trkpt lat="42.3707764" lon="14.2341347"><ele>51.0</ele><time>2026-05-01T08:11:58.801Z</time></trkpt><trkpt lat="42.3706159" lon="14.2341535"><ele>51.0</ele><time>2026-05-01T08:11:59.805Z</time></trkpt><trkpt lat="42.3704481" lon="14.2341817"><ele>49.333333333333336</ele><time>2026-05-01T08:12:00.805Z</time></trkpt><trkpt lat="42.370282" lon="14.2342019"><ele>47.66666666666667</ele><time>2026-05-01T08:12:01.807Z</time></trkpt><trkpt lat="42.3701137" lon="14.2342192"><ele>46.0</ele><time>2026-05-01T08:12:02.814Z</time></trkpt><trkpt lat="42.3699434" lon="14.2342427"><ele>46.0</ele><time>2026-05-01T08:12:03.811Z</time></trkpt><trkpt lat="42.3697699" lon="14.2342712"><ele>46.0</ele><time>2026-05-01T08:12:04.809Z</time></trkpt><trkpt lat="42.3695934" lon="14.2342975"><ele>46.0</ele><time>2026-05-01T08:12:05.806Z</time></trkpt><trkpt lat="42.3694127" lon="14.2343356"><ele>47.333333333333336</ele><time>2026-05-01T08:12:06.814Z</time></trkpt><trkpt lat="42.3692324" lon="14.234361"><ele>48.66666666666667</ele><time>2026-05-01T08:12:07.802Z</time></trkpt><trkpt lat="42.3690493" lon="14.2343863"><ele>50.0</ele><time>2026-05-01T08:12:08.812Z</time></trkpt><trkpt lat="42.368871" lon="14.234408"><ele>50.8</ele><time>2026-05-01T08:12:09.806Z</time></trkpt><trkpt lat="42.3687206" lon="14.2344131"><ele>51.6</ele><time>2026-05-01T08:12:10.808Z</time></trkpt><trkpt lat="42.36862" lon="14.2344207"><ele>52.400000000000006</ele><time>2026-05-01T08:12:11.801Z</time></trkpt><trkpt lat="42.3685327" lon="14.2344208"><ele>53.2</ele><time>2026-05-01T08:12:12.802Z</time></trkpt><trkpt lat="42.368431" lon="14.2344585"><ele>54.0</ele><time>2026-05-01T08:12:14.805Z</time></trkpt><trkpt lat="42.368473" lon="14.2345436"><ele>54.0</ele><time>2026-05-01T08:12:17.806Z</time></trkpt><trkpt lat="42.3685604" lon="14.2344993"><ele>54.00000000000001</ele><time>2026-05-01T08:12:19.794Z</time></trkpt><trkpt lat="42.3686613" lon="14.2344592"><ele>54.00000000000001</ele><time>2026-05-01T08:12:21.797Z</time></trkpt><trkpt lat="42.3687777" lon="14.2344482"><ele>54.0</ele><time>2026-05-01T08:12:23.805Z</time></trkpt><trkpt lat="42.3688448" lon="14.2344461"><ele>54.0</ele><time>2026-05-01T08:12:24.807Z</time></trkpt><trkpt lat="42.3689388" lon="14.23444"><ele>53.2</ele><time>2026-05-01T08:12:26.802Z</time></trkpt><trkpt lat="42.369037" lon="14.2345054"><ele>52.400000000000006</ele><time>2026-05-01T08:13:05.806Z</time></trkpt><trkpt lat="42.369127" lon="14.2345486"><ele>51.6</ele><time>2026-05-01T08:13:06.815Z</time></trkpt><trkpt lat="42.3692281" lon="14.2345802"><ele>50.8</ele><time>2026-05-01T08:13:07.815Z</time></trkpt><trkpt lat="42.36933" lon="14.2346105"><ele>50.0</ele><time>2026-05-01T08:13:08.812Z</time></trkpt><trkpt lat="42.3694336" lon="14.2346198"><ele>50.0</ele><time>2026-05-01T08:13:09.809Z</time></trkpt><trkpt lat="42.3695369" lon="14.2346391"><ele>50.0</ele><time>2026-05-01T08:13:10.809Z</time></trkpt><trkpt lat="42.3696364" lon="14.2346523"><ele>50.0</ele><time>2026-05-01T08:13:11.811Z</time></trkpt><trkpt lat="42.3697396" lon="14.2346614"><ele>50.0</ele><time>2026-05-01T08:13:12.842Z</time></trkpt><trkpt lat="42.3698249" lon="14.23466"><ele>50.0</ele><time>2026-05-01T08:13:13.803Z</time></trkpt><trkpt lat="42.3699006" lon="14.2346802"><ele>49.2</ele><time>2026-05-01T08:13:14.801Z</time></trkpt><trkpt lat="42.3699541" lon="14.2347261"><ele>48.4</ele><time>2026-05-01T08:13:15.815Z</time></trkpt><trkpt lat="42.3699984" lon="14.2349086"><ele>47.599999999999994</ele><time>2026-05-01T08:13:17.827Z</time></trkpt><trkpt lat="42.3699835" lon="14.2350718"><ele>46.8</ele><time>2026-05-01T08:13:18.797Z</time></trkpt><trkpt lat="42.3699916" lon="14.2352368"><ele>46.0</ele><time>2026-05-01T08:13:19.801Z</time></trkpt><trkpt lat="42.3700305" lon="14.2354265"><ele>45.199999999999996</ele><time>2026-05-01T08:13:20.8Z</time></trkpt><trkpt lat="42.370075" lon="14.2355969"><ele>44.4</ele><time>2026-05-01T08:13:21.8Z</time></trkpt><trkpt lat="42.3700931" lon="14.23573"><ele>43.6</ele><time>2026-05-01T08:13:22.797Z</time></trkpt><trkpt lat="42.3700995" lon="14.2358274"><ele>42.8</ele><time>2026-05-01T08:13:23.796Z</time></trkpt><trkpt lat="42.3700746" lon="14.2359857"><ele>42.0</ele><time>2026-05-01T08:13:25.815Z</time></trkpt><trkpt lat="42.3700552" lon="14.2360986"><ele>42.0</ele><time>2026-05-01T08:13:26.811Z</time></trkpt><trkpt lat="42.3700224" lon="14.2362854"><ele>42.0</ele><time>2026-05-01T08:13:27.803Z</time></trkpt><trkpt lat="42.3699736" lon="14.2364735"><ele>42.0</ele><time>2026-05-01T08:13:28.816Z</time></trkpt><trkpt lat="42.3699465" lon="14.2366164"><ele>42.0</ele><time>2026-05-01T08:13:29.807Z</time></trkpt><trkpt lat="42.369934" lon="14.2367512"><ele>42.0</ele><time>2026-05-01T08:13:30.812Z</time></trkpt><trkpt lat="42.3699441" lon="14.2368929"><ele>42.0</ele><time>2026-05-01T08:13:31.817Z</time></trkpt><trkpt lat="42.3699706" lon="14.2370426"><ele>42.0</ele><time>2026-05-01T08:13:32.804Z</time></trkpt><trkpt lat="42.3700246" lon="14.237149"><ele>42.0</ele><time>2026-05-01T08:13:33.81Z</time></trkpt><trkpt lat="42.3700953" lon="14.2372443"><ele>42.0</ele><time>2026-05-01T08:13:34.81Z</time></trkpt><trkpt lat="42.3701876" lon="14.2373364"><ele>42.0</ele><time>2026-05-01T08:13:35.812Z</time></trkpt><trkpt lat="42.3702963" lon="14.2374226"><ele>42.0</ele><time>2026-05-01T08:13:36.808Z</time></trkpt><trkpt lat="42.3704224" lon="14.237515"><ele>42.0</ele><time>2026-05-01T08:13:37.801Z</time></trkpt><trkpt lat="42.3705728" lon="14.2376363"><ele>42.0</ele><time>2026-05-01T08:13:38.807Z</time></trkpt><trkpt lat="42.3707405" lon="14.2377788"><ele>42.0</ele><time>2026-05-01T08:13:39.807Z</time></trkpt><trkpt lat="42.3708944" lon="14.2379188"><ele>42.0</ele><time>2026-05-01T08:13:40.809Z</time></trkpt><trkpt lat="42.371037" lon="14.2380291"><ele>42.0</ele><time>2026-05-01T08:13:41.808Z</time></trkpt><trkpt lat="42.3711847" lon="14.2381427"><ele>42.333333333333336</ele><time>2026-05-01T08:13:42.813Z</time></trkpt><trkpt lat="42.3713374" lon="14.238265"><ele>42.66666666666667</ele><time>2026-05-01T08:13:43.809Z</time></trkpt><trkpt lat="42.3714829" lon="14.2383746"><ele>43.0</ele><time>2026-05-01T08:13:44.811Z</time></trkpt><trkpt lat="42.3715964" lon="14.2384792"><ele>43.0</ele><time>2026-05-01T08:13:45.823Z</time></trkpt><trkpt lat="42.3716907" lon="14.2385767"><ele>43.0</ele><time>2026-05-01T08:13:46.809Z</time></trkpt><trkpt lat="42.3718007" lon="14.238722"><ele>43.0</ele><time>2026-05-01T08:13:47.825Z</time></trkpt><trkpt lat="42.3719307" lon="14.2389038"><ele>42.5</ele><time>2026-05-01T08:13:48.808Z</time></trkpt><trkpt lat="42.3720483" lon="14.2390739"><ele>42.0</ele><time>2026-05-01T08:13:49.811Z</time></trkpt><trkpt lat="42.3721402" lon="14.2392123"><ele>41.5</ele><time>2026-05-01T08:13:50.799Z</time></trkpt><trkpt lat="42.3722077" lon="14.2393329"><ele>41.0</ele><time>2026-05-01T08:13:51.8Z</time></trkpt><trkpt lat="42.3722894" lon="14.2394372"><ele>41.0</ele><time>2026-05-01T08:13:52.816Z</time></trkpt><trkpt lat="42.3723619" lon="14.2395225"><ele>41.0</ele><time>2026-05-01T08:13:53.803Z</time></trkpt><trkpt lat="42.3724361" lon="14.2395993"><ele>41.0</ele><time>2026-05-01T08:13:54.814Z</time></trkpt><trkpt lat="42.3725118" lon="14.2396819"><ele>41.0</ele><time>2026-05-01T08:13:55.812Z</time></trkpt><trkpt lat="42.3726013" lon="14.2397602"><ele>41.0</ele><time>2026-05-01T08:13:56.798Z</time></trkpt><trkpt lat="42.372689" lon="14.2398399"><ele>41.166666666666664</ele><time>2026-05-01T08:13:57.806Z</time></trkpt><trkpt lat="42.3727708" lon="14.2399099"><ele>41.33333333333333</ele><time>2026-05-01T08:13:58.793Z</time></trkpt><trkpt lat="42.3728448" lon="14.2399719"><ele>41.5</ele><time>2026-05-01T08:13:59.815Z</time></trkpt><trkpt lat="42.3728929" lon="14.2400301"><ele>41.666666666666664</ele><time>2026-05-01T08:14:00.805Z</time></trkpt><trkpt lat="42.3729528" lon="14.2400894"><ele>41.833333333333336</ele><time>2026-05-01T08:14:01.822Z</time></trkpt><trkpt lat="42.3730235" lon="14.2401534"><ele>42.0</ele><time>2026-05-01T08:14:02.799Z</time></trkpt><trkpt lat="42.3731103" lon="14.240211"><ele>41.2</ele><time>2026-05-01T08:14:03.807Z</time></trkpt><trkpt lat="42.3731985" lon="14.2402639"><ele>40.400000000000006</ele><time>2026-05-01T08:14:04.795Z</time></trkpt><trkpt lat="42.3732812" lon="14.2403046"><ele>39.599999999999994</ele><time>2026-05-01T08:14:05.815Z</time></trkpt><trkpt lat="42.3733757" lon="14.2403652"><ele>38.8</ele><time>2026-05-01T08:14:06.813Z</time></trkpt><trkpt lat="42.3734651" lon="14.2404666"><ele>38.0</ele><time>2026-05-01T08:14:07.807Z</time></trkpt><trkpt lat="42.3735578" lon="14.2405754"><ele>37.5</ele><time>2026-05-01T08:14:08.804Z</time></trkpt><trkpt lat="42.3736563" lon="14.2406878"><ele>37.0</ele><time>2026-05-01T08:14:09.806Z</time></trkpt><trkpt lat="42.3737558" lon="14.2408036"><ele>36.5</ele><time>2026-05-01T08:14:10.814Z</time></trkpt><trkpt lat="42.3738432" lon="14.2409076"><ele>36.0</ele><time>2026-05-01T08:14:11.803Z</time></trkpt><trkpt lat="42.3739323" lon="14.2410154"><ele>36.0</ele><time>2026-05-01T08:14:12.797Z</time></trkpt><trkpt lat="42.3740328" lon="14.2411061"><ele>36.0</ele><time>2026-05-01T08:14:13.798Z</time></trkpt><trkpt lat="42.3741484" lon="14.2411912"><ele>36.0</ele><time>2026-05-01T08:14:14.8Z</time></trkpt><trkpt lat="42.3742685" lon="14.2412794"><ele>36.0</ele><time>2026-05-01T08:14:15.809Z</time></trkpt><trkpt lat="42.3743868" lon="14.2413688"><ele>35.5</ele><time>2026-05-01T08:14:16.794Z</time></trkpt><trkpt lat="42.3745004" lon="14.2414672"><ele>35.0</ele><time>2026-05-01T08:14:17.814Z</time></trkpt><trkpt lat="42.3746153" lon="14.2415929"><ele>34.5</ele><time>2026-05-01T08:14:18.796Z</time></trkpt><trkpt lat="42.3747327" lon="14.2417296"><ele>34.0</ele><time>2026-05-01T08:14:19.801Z</time></trkpt><trkpt lat="42.3748422" lon="14.2418689"><ele>34.0</ele><time>2026-05-01T08:14:20.811Z</time></trkpt><trkpt lat="42.3749509" lon="14.2420037"><ele>34.0</ele><time>2026-05-01T08:14:21.797Z</time></trkpt><trkpt lat="42.3750491" lon="14.2421357"><ele>34.0</ele><time>2026-05-01T08:14:22.799Z</time></trkpt><trkpt lat="42.3751316" lon="14.2422439"><ele>34.0</ele><time>2026-05-01T08:14:23.8Z</time></trkpt><trkpt lat="42.3751978" lon="14.2423424"><ele>35.0</ele><time>2026-05-01T08:14:24.803Z</time></trkpt><trkpt lat="42.3752353" lon="14.2424346"><ele>36.0</ele><time>2026-05-01T08:14:25.808Z</time></trkpt><trkpt lat="42.375253" lon="14.2425447"><ele>37.0</ele><time>2026-05-01T08:14:26.801Z</time></trkpt><trkpt lat="42.3752532" lon="14.2426741"><ele>38.0</ele><time>2026-05-01T08:14:27.809Z</time></trkpt><trkpt lat="42.3752223" lon="14.242829"><ele>39.0</ele><time>2026-05-01T08:14:28.809Z</time></trkpt><trkpt lat="42.3751665" lon="14.2430029"><ele>41.0</ele><time>2026-05-01T08:14:29.818Z</time></trkpt><trkpt lat="42.3750952" lon="14.243218"><ele>43.0</ele><time>2026-05-01T08:14:30.808Z</time></trkpt><trkpt lat="42.3750245" lon="14.2434593"><ele>45.0</ele><time>2026-05-01T08:14:31.798Z</time></trkpt><trkpt lat="42.3749503" lon="14.2437077"><ele>45.0</ele><time>2026-05-01T08:14:32.812Z</time></trkpt><trkpt lat="42.3748805" lon="14.2439236"><ele>45.0</ele><time>2026-05-01T08:14:33.807Z</time></trkpt><trkpt lat="42.3748183" lon="14.2441214"><ele>45.0</ele><time>2026-05-01T08:14:34.805Z</time></trkpt><trkpt lat="42.3747419" lon="14.2443328"><ele>51.33333333333333</ele><time>2026-05-01T08:14:35.811Z</time></trkpt><trkpt lat="42.3746592" lon="14.2445532"><ele>57.666666666666664</ele><time>2026-05-01T08:14:36.803Z</time></trkpt><trkpt lat="42.374582" lon="14.2447929"><ele>64.0</ele><time>2026-05-01T08:14:37.809Z</time></trkpt><trkpt lat="42.3745323" lon="14.2450439"><ele>65.0</ele><time>2026-05-01T08:14:38.802Z</time></trkpt><trkpt lat="42.3744783" lon="14.2453174"><ele>66.0</ele><time>2026-05-01T08:14:39.81Z</time></trkpt><trkpt lat="42.3744241" lon="14.2456"><ele>67.0</ele><time>2026-05-01T08:14:40.799Z</time></trkpt><trkpt lat="42.3743638" lon="14.2458736"><ele>69.0</ele><time>2026-05-01T08:14:41.803Z</time></trkpt><trkpt lat="42.3742944" lon="14.246112"><ele>71.0</ele><time>2026-05-01T08:14:42.801Z</time></trkpt><trkpt lat="42.3742207" lon="14.2463068"><ele>73.0</ele><time>2026-05-01T08:14:43.805Z</time></trkpt><trkpt lat="42.3741364" lon="14.2464794"><ele>73.4</ele><time>2026-05-01T08:14:44.797Z</time></trkpt><trkpt lat="42.37405" lon="14.2466429"><ele>73.8</ele><time>2026-05-01T08:14:45.809Z</time></trkpt><trkpt lat="42.3739946" lon="14.2467719"><ele>74.2</ele><time>2026-05-01T08:14:46.813Z</time></trkpt><trkpt lat="42.3739748" lon="14.2468845"><ele>74.6</ele><time>2026-05-01T08:14:47.803Z</time></trkpt><trkpt lat="42.3739853" lon="14.2470071"><ele>75.0</ele><time>2026-05-01T08:14:48.798Z</time></trkpt><trkpt lat="42.3739946" lon="14.2471519"><ele>76.5</ele><time>2026-05-01T08:14:49.804Z</time></trkpt><trkpt lat="42.373981" lon="14.2473075"><ele>78.0</ele><time>2026-05-01T08:14:50.801Z</time></trkpt><trkpt lat="42.3739368" lon="14.2474872"><ele>79.5</ele><time>2026-05-01T08:14:51.835Z</time></trkpt><trkpt lat="42.3738819" lon="14.2476633"><ele>81.0</ele><time>2026-05-01T08:14:52.804Z</time></trkpt><trkpt lat="42.3738449" lon="14.247822"><ele>84.75</ele><time>2026-05-01T08:14:53.798Z</time></trkpt><trkpt lat="42.3738277" lon="14.2479851"><ele>88.5</ele><time>2026-05-01T08:14:54.802Z</time></trkpt><trkpt lat="42.3738282" lon="14.2481694"><ele>92.25</ele><time>2026-05-01T08:14:55.804Z</time></trkpt><trkpt lat="42.3738316" lon="14.2483789"><ele>96.0</ele><time>2026-05-01T08:14:56.815Z</time></trkpt><trkpt lat="42.3738274" lon="14.2486043"><ele>97.66666666666666</ele><time>2026-05-01T08:14:57.807Z</time></trkpt><trkpt lat="42.3738066" lon="14.2488172"><ele>99.33333333333333</ele><time>2026-05-01T08:14:58.812Z</time></trkpt><trkpt lat="42.3737738" lon="14.249028"><ele>101.0</ele><time>2026-05-01T08:14:59.791Z</time></trkpt><trkpt lat="42.3737266" lon="14.2492512"><ele>103.0</ele><time>2026-05-01T08:15:00.805Z</time></trkpt><trkpt lat="42.3736769" lon="14.24949"><ele>105.0</ele><time>2026-05-01T08:15:01.804Z</time></trkpt><trkpt lat="42.3736311" lon="14.2497256"><ele>107.0</ele><time>2026-05-01T08:15:02.788Z</time></trkpt><trkpt lat="42.3735814" lon="14.2499229"><ele>107.6</ele><time>2026-05-01T08:15:03.81Z</time></trkpt><trkpt lat="42.3735376" lon="14.2500774"><ele>108.19999999999999</ele><time>2026-05-01T08:15:04.794Z</time></trkpt><trkpt lat="42.3735072" lon="14.2501893"><ele>108.8</ele><time>2026-05-01T08:15:05.819Z</time></trkpt><trkpt lat="42.3735154" lon="14.2502744"><ele>109.4</ele><time>2026-05-01T08:15:06.814Z</time></trkpt><trkpt lat="42.3735597" lon="14.2503555"><ele>110.0</ele><time>2026-05-01T08:15:07.82Z</time></trkpt><trkpt lat="42.3736513" lon="14.2504298"><ele>110.0</ele><time>2026-05-01T08:15:08.807Z</time></trkpt><trkpt lat="42.3737754" lon="14.2505058"><ele>110.0</ele><time>2026-05-01T08:15:09.8Z</time></trkpt><trkpt lat="42.3738775" lon="14.2506016"><ele>110.0</ele><time>2026-05-01T08:15:10.8Z</time></trkpt><trkpt lat="42.3739676" lon="14.2507322"><ele>110.0</ele><time>2026-05-01T08:15:11.816Z</time></trkpt><trkpt lat="42.3740408" lon="14.2509024"><ele>110.0</ele><time>2026-05-01T08:15:12.807Z</time></trkpt><trkpt lat="42.3740846" lon="14.2510452"><ele>110.0</ele><time>2026-05-01T08:15:13.793Z</time></trkpt><trkpt lat="42.3740881" lon="14.2512044"><ele>110.0</ele><time>2026-05-01T08:15:14.816Z</time></trkpt><trkpt lat="42.3740759" lon="14.2513885"><ele>110.0</ele><time>2026-05-01T08:15:15.794Z</time></trkpt><trkpt lat="42.3740331" lon="14.2516076"><ele>113.0</ele><time>2026-05-01T08:15:16.806Z</time></trkpt><trkpt lat="42.3739801" lon="14.2518293"><ele>116.0</ele><time>2026-05-01T08:15:17.797Z</time></trkpt><trkpt lat="42.3739239" lon="14.2520662"><ele>119.0</ele><time>2026-05-01T08:15:18.805Z</time></trkpt><trkpt lat="42.373863" lon="14.2523276"><ele>127.0</ele><time>2026-05-01T08:15:19.806Z</time></trkpt><trkpt lat="42.3738123" lon="14.252601"><ele>135.0</ele><time>2026-05-01T08:15:20.804Z</time></trkpt><trkpt lat="42.3737744" lon="14.2528702"><ele>143.0</ele><time>2026-05-01T08:15:21.815Z</time></trkpt><trkpt lat="42.373767" lon="14.2531432"><ele>149.0</ele><time>2026-05-01T08:15:22.794Z</time></trkpt><trkpt lat="42.3737756" lon="14.2534025"><ele>155.0</ele><time>2026-05-01T08:15:23.8Z</time></trkpt><trkpt lat="42.3737897" lon="14.2536603"><ele>161.0</ele><time>2026-05-01T08:15:24.799Z</time></trkpt><trkpt lat="42.3738161" lon="14.253899"><ele>159.75</ele><time>2026-05-01T08:15:25.79Z</time></trkpt><trkpt lat="42.3738499" lon="14.2541018"><ele>158.5</ele><time>2026-05-01T08:15:26.79Z</time></trkpt><trkpt lat="42.373895" lon="14.2542952"><ele>157.25</ele><time>2026-05-01T08:15:27.801Z</time></trkpt><trkpt lat="42.3739512" lon="14.2544753"><ele>156.0</ele><time>2026-05-01T08:15:28.789Z</time></trkpt><trkpt lat="42.3740196" lon="14.2546493"><ele>158.66666666666666</ele><time>2026-05-01T08:15:29.795Z</time></trkpt><trkpt lat="42.3741012" lon="14.2548248"><ele>161.33333333333331</ele><time>2026-05-01T08:15:30.796Z</time></trkpt><trkpt lat="42.3742011" lon="14.2550033"><ele>164.0</ele><time>2026-05-01T08:15:31.791Z</time></trkpt><trkpt lat="42.3742743" lon="14.2551883"><ele>164.0</ele><time>2026-05-01T08:15:32.796Z</time></trkpt><trkpt lat="42.3743321" lon="14.255374"><ele>164.0</ele><time>2026-05-01T08:15:33.804Z</time></trkpt><trkpt lat="42.3743636" lon="14.2555361"><ele>164.0</ele><time>2026-05-01T08:15:34.802Z</time></trkpt><trkpt lat="42.3743939" lon="14.255675"><ele>164.0</ele><time>2026-05-01T08:15:35.81Z</time></trkpt><trkpt lat="42.3744015" lon="14.2557937"><ele>164.39999999999998</ele><time>2026-05-01T08:15:36.8Z</time></trkpt><trkpt lat="42.3743783" lon="14.255918"><ele>164.8</ele><time>2026-05-01T08:15:38.802Z</time></trkpt><trkpt lat="42.3743482" lon="14.256"><ele>165.2</ele><time>2026-05-01T08:15:45.817Z</time></trkpt><trkpt lat="42.3744283" lon="14.2561136"><ele>165.60000000000002</ele><time>2026-05-01T08:15:47.802Z</time></trkpt><trkpt lat="42.374512" lon="14.2561794"><ele>166.0</ele><time>2026-05-01T08:15:48.795Z</time></trkpt><trkpt lat="42.3747204" lon="14.2563629"><ele>166.66666666666669</ele><time>2026-05-01T08:15:50.803Z</time></trkpt><trkpt lat="42.374843" lon="14.2564808"><ele>167.33333333333334</ele><time>2026-05-01T08:15:51.81Z</time></trkpt><trkpt lat="42.3749761" lon="14.2566094"><ele>168.0</ele><time>2026-05-01T08:15:52.815Z</time></trkpt><trkpt lat="42.3751177" lon="14.2567729"><ele>168.0</ele><time>2026-05-01T08:15:53.811Z</time></trkpt><trkpt lat="42.3752678" lon="14.2569669"><ele>168.0</ele><time>2026-05-01T08:15:54.814Z</time></trkpt><trkpt lat="42.3754093" lon="14.2571746"><ele>168.0</ele><time>2026-05-01T08:15:55.8Z</time></trkpt><trkpt lat="42.3755459" lon="14.2573877"><ele>168.66666666666666</ele><time>2026-05-01T08:15:56.795Z</time></trkpt><trkpt lat="42.3756858" lon="14.257616"><ele>169.33333333333331</ele><time>2026-05-01T08:15:57.803Z</time></trkpt><trkpt lat="42.3758264" lon="14.2578574"><ele>170.0</ele><time>2026-05-01T08:15:58.806Z</time></trkpt><trkpt lat="42.3759746" lon="14.2580959"><ele>166.5</ele><time>2026-05-01T08:15:59.806Z</time></trkpt><trkpt lat="42.3761219" lon="14.258335"><ele>163.0</ele><time>2026-05-01T08:16:00.791Z</time></trkpt><trkpt lat="42.3762693" lon="14.2585745"><ele>166.66666666666669</ele><time>2026-05-01T08:16:01.81Z</time></trkpt><trkpt lat="42.3764154" lon="14.2588162"><ele>170.33333333333334</ele><time>2026-05-01T08:16:02.803Z</time></trkpt><trkpt lat="42.3765547" lon="14.2590382"><ele>174.0</ele><time>2026-05-01T08:16:03.799Z</time></trkpt><trkpt lat="42.3766703" lon="14.2592166"><ele>174.0</ele><time>2026-05-01T08:16:04.805Z</time></trkpt><trkpt lat="42.376752" lon="14.2593367"><ele>174.0</ele><time>2026-05-01T08:16:05.808Z</time></trkpt><trkpt lat="42.3767872" lon="14.2594568"><ele>174.0</ele><time>2026-05-01T08:16:07.806Z</time></trkpt><trkpt lat="42.3767474" lon="14.2595368"><ele>174.0</ele><time>2026-05-01T08:16:10.8Z</time></trkpt><trkpt lat="42.3767422" lon="14.2596974"><ele>174.0</ele><time>2026-05-01T08:16:30.804Z</time></trkpt><trkpt lat="42.3767454" lon="14.2598105"><ele>173.0</ele><time>2026-05-01T08:16:31.802Z</time></trkpt><trkpt lat="42.3767577" lon="14.2599522"><ele>172.0</ele><time>2026-05-01T08:16:32.816Z</time></trkpt><trkpt lat="42.3767694" lon="14.2601044"><ele>171.0</ele><time>2026-05-01T08:16:33.8Z</time></trkpt><trkpt lat="42.3767777" lon="14.2602577"><ele>170.0</ele><time>2026-05-01T08:16:34.803Z</time></trkpt><trkpt lat="42.3767841" lon="14.2604072"><ele>169.0</ele><time>2026-05-01T08:16:35.817Z</time></trkpt><trkpt lat="42.3767806" lon="14.2605525"><ele>167.75</ele><time>2026-05-01T08:16:36.82Z</time></trkpt><trkpt lat="42.3767735" lon="14.2607066"><ele>166.5</ele><time>2026-05-01T08:16:37.822Z</time></trkpt><trkpt lat="42.3767575" lon="14.2608616"><ele>165.25</ele><time>2026-05-01T08:16:38.804Z</time></trkpt><trkpt lat="42.3767333" lon="14.2610146"><ele>164.0</ele><time>2026-05-01T08:16:39.805Z</time></trkpt><trkpt lat="42.3767084" lon="14.2611607"><ele>164.0</ele><time>2026-05-01T08:16:40.806Z</time></trkpt><trkpt lat="42.376685" lon="14.2612909"><ele>164.0</ele><time>2026-05-01T08:16:41.805Z</time></trkpt><trkpt lat="42.376669" lon="14.2614093"><ele>164.0</ele><time>2026-05-01T08:16:42.811Z</time></trkpt><trkpt lat="42.3766606" lon="14.2615304"><ele>164.0</ele><time>2026-05-01T08:16:43.804Z</time></trkpt><trkpt lat="42.3766663" lon="14.2616663"><ele>164.0</ele><time>2026-05-01T08:16:44.809Z</time></trkpt><trkpt lat="42.376678" lon="14.2618153"><ele>163.0</ele><time>2026-05-01T08:16:45.804Z</time></trkpt><trkpt lat="42.3766986" lon="14.2619781"><ele>162.0</ele><time>2026-05-01T08:16:46.801Z</time></trkpt><trkpt lat="42.3767272" lon="14.2621622"><ele>161.0</ele><time>2026-05-01T08:16:47.815Z</time></trkpt><trkpt lat="42.376752" lon="14.2623477"><ele>160.0</ele><time>2026-05-01T08:16:48.798Z</time></trkpt><trkpt lat="42.3767734" lon="14.2625257"><ele>157.5</ele><time>2026-05-01T08:16:49.804Z</time></trkpt><trkpt lat="42.3767984" lon="14.2626986"><ele>155.0</ele><time>2026-05-01T08:16:50.822Z</time></trkpt><trkpt lat="42.376836" lon="14.2628869"><ele>152.5</ele><time>2026-05-01T08:16:51.801Z</time></trkpt><trkpt lat="42.3769002" lon="14.2630884"><ele>150.0</ele><time>2026-05-01T08:16:52.839Z</time></trkpt><trkpt lat="42.376977" lon="14.2632988"><ele>147.66666666666666</ele><time>2026-05-01T08:16:53.803Z</time></trkpt><trkpt lat="42.3770593" lon="14.263523"><ele>145.33333333333331</ele><time>2026-05-01T08:16:54.805Z</time></trkpt><trkpt lat="42.3771413" lon="14.2637585"><ele>143.0</ele><time>2026-05-01T08:16:55.818Z</time></trkpt><trkpt lat="42.3772248" lon="14.2639987"><ele>143.0</ele><time>2026-05-01T08:16:56.801Z</time></trkpt><trkpt lat="42.3773072" lon="14.2642218"><ele>143.0</ele><time>2026-05-01T08:16:57.852Z</time></trkpt><trkpt lat="42.3773915" lon="14.2644214"><ele>143.0</ele><time>2026-05-01T08:16:58.805Z</time></trkpt><trkpt lat="42.3774728" lon="14.2645986"><ele>143.0</ele><time>2026-05-01T08:16:59.813Z</time></trkpt><trkpt lat="42.3775452" lon="14.2647555"><ele>143.0</ele><time>2026-05-01T08:17:00.809Z</time></trkpt><trkpt lat="42.3776029" lon="14.2649137"><ele>143.0</ele><time>2026-05-01T08:17:01.806Z</time></trkpt><trkpt lat="42.3776366" lon="14.2650872"><ele>143.0</ele><time>2026-05-01T08:17:02.796Z</time></trkpt><trkpt lat="42.3776422" lon="14.2652675"><ele>141.0</ele><time>2026-05-01T08:17:03.802Z</time></trkpt><trkpt lat="42.3776426" lon="14.265453"><ele>139.0</ele><time>2026-05-01T08:17:04.807Z</time></trkpt><trkpt lat="42.3776444" lon="14.2656494"><ele>137.0</ele><time>2026-05-01T08:17:05.814Z</time></trkpt><trkpt lat="42.3776509" lon="14.265815"><ele>135.0</ele><time>2026-05-01T08:17:06.803Z</time></trkpt><trkpt lat="42.3776602" lon="14.2659643"><ele>133.8</ele><time>2026-05-01T08:17:07.798Z</time></trkpt><trkpt lat="42.3776698" lon="14.2661153"><ele>132.6</ele><time>2026-05-01T08:17:08.816Z</time></trkpt><trkpt lat="42.3776719" lon="14.2662621"><ele>131.4</ele><time>2026-05-01T08:17:09.802Z</time></trkpt><trkpt lat="42.3776625" lon="14.2664062"><ele>130.2</ele><time>2026-05-01T08:17:10.816Z</time></trkpt><trkpt lat="42.3776563" lon="14.2665412"><ele>129.0</ele><time>2026-05-01T08:17:11.799Z</time></trkpt><trkpt lat="42.3776583" lon="14.2666725"><ele>127.66666666666667</ele><time>2026-05-01T08:17:12.796Z</time></trkpt><trkpt lat="42.3776611" lon="14.2668006"><ele>126.33333333333334</ele><time>2026-05-01T08:17:13.803Z</time></trkpt><trkpt lat="42.3776703" lon="14.2669167"><ele>125.0</ele><time>2026-05-01T08:17:14.809Z</time></trkpt><trkpt lat="42.3776835" lon="14.267017"><ele>123.66666666666667</ele><time>2026-05-01T08:17:15.814Z</time></trkpt><trkpt lat="42.3776873" lon="14.2671077"><ele>122.33333333333334</ele><time>2026-05-01T08:17:16.802Z</time></trkpt><trkpt lat="42.3776447" lon="14.2672247"><ele>121.0</ele><time>2026-05-01T08:17:18.809Z</time></trkpt><trkpt lat="42.3775711" lon="14.2672613"><ele>120.0</ele><time>2026-05-01T08:17:19.795Z</time></trkpt><trkpt lat="42.377479" lon="14.2672889"><ele>119.0</ele><time>2026-05-01T08:17:20.818Z</time></trkpt><trkpt lat="42.3773778" lon="14.2673149"><ele>118.0</ele><time>2026-05-01T08:17:21.81Z</time></trkpt><trkpt lat="42.3772638" lon="14.2673463"><ele>117.0</ele><time>2026-05-01T08:17:22.803Z</time></trkpt><trkpt lat="42.3771234" lon="14.2673738"><ele>115.25</ele><time>2026-05-01T08:17:23.804Z</time></trkpt><trkpt lat="42.3769702" lon="14.2674049"><ele>113.5</ele><time>2026-05-01T08:17:24.795Z</time></trkpt><trkpt lat="42.3768283" lon="14.2674285"><ele>111.75</ele><time>2026-05-01T08:17:25.802Z</time></trkpt><trkpt lat="42.3766999" lon="14.2674487"><ele>110.0</ele><time>2026-05-01T08:17:26.808Z</time></trkpt><trkpt lat="42.3765933" lon="14.26747"><ele>109.99999999999999</ele><time>2026-05-01T08:17:27.82Z</time></trkpt><trkpt lat="42.3765032" lon="14.2675027"><ele>110.0</ele><time>2026-05-01T08:17:28.809Z</time></trkpt><trkpt lat="42.3764288" lon="14.2675548"><ele>110.0</ele><time>2026-05-01T08:17:29.813Z</time></trkpt><trkpt lat="42.3763712" lon="14.2676372"><ele>110.0</ele><time>2026-05-01T08:17:30.811Z</time></trkpt><trkpt lat="42.3763109" lon="14.2677315"><ele>109.99999999999999</ele><time>2026-05-01T08:17:31.807Z</time></trkpt><trkpt lat="42.3762705" lon="14.2678268"><ele>110.0</ele><time>2026-05-01T08:17:32.795Z</time></trkpt><trkpt lat="42.3762302" lon="14.2679474"><ele>114.75</ele><time>2026-05-01T08:17:33.809Z</time></trkpt><trkpt lat="42.3761901" lon="14.2681024"><ele>119.5</ele><time>2026-05-01T08:17:34.795Z</time></trkpt><trkpt lat="42.376148" lon="14.2682637"><ele>124.25</ele><time>2026-05-01T08:17:35.794Z</time></trkpt><trkpt lat="42.3761012" lon="14.2684511"><ele>129.0</ele><time>2026-05-01T08:17:36.806Z</time></trkpt><trkpt lat="42.3760507" lon="14.2686619"><ele>129.0</ele><time>2026-05-01T08:17:37.796Z</time></trkpt><trkpt lat="42.3759929" lon="14.2688615"><ele>129.0</ele><time>2026-05-01T08:17:38.792Z</time></trkpt><trkpt lat="42.3759295" lon="14.2690591"><ele>129.0</ele><time>2026-05-01T08:17:39.791Z</time></trkpt><trkpt lat="42.3758639" lon="14.2692586"><ele>128.25</ele><time>2026-05-01T08:17:40.805Z</time></trkpt><trkpt lat="42.3757991" lon="14.2694617"><ele>127.5</ele><time>2026-05-01T08:17:41.799Z</time></trkpt><trkpt lat="42.3757396" lon="14.2696479"><ele>126.75</ele><time>2026-05-01T08:17:42.801Z</time></trkpt><trkpt lat="42.3756725" lon="14.2698009"><ele>126.0</ele><time>2026-05-01T08:17:43.813Z</time></trkpt><trkpt lat="42.3756091" lon="14.2699421"><ele>124.75</ele><time>2026-05-01T08:17:44.793Z</time></trkpt><trkpt lat="42.375547" lon="14.2700855"><ele>123.5</ele><time>2026-05-01T08:17:45.803Z</time></trkpt><trkpt lat="42.3754785" lon="14.2702457"><ele>122.25</ele><time>2026-05-01T08:17:46.797Z</time></trkpt><trkpt lat="42.3754163" lon="14.2704144"><ele>121.0</ele><time>2026-05-01T08:17:47.841Z</time></trkpt><trkpt lat="42.3753465" lon="14.270571"><ele>126.75</ele><time>2026-05-01T08:17:48.788Z</time></trkpt><trkpt lat="42.3752658" lon="14.2707106"><ele>132.5</ele><time>2026-05-01T08:17:49.811Z</time></trkpt><trkpt lat="42.3751852" lon="14.2708246"><ele>138.25</ele><time>2026-05-01T08:17:50.795Z</time></trkpt><trkpt lat="42.3751307" lon="14.2708931"><ele>144.0</ele><time>2026-05-01T08:17:51.797Z</time></trkpt><trkpt lat="42.3750052" lon="14.2709564"><ele>144.0</ele><time>2026-05-01T08:17:53.8Z</time></trkpt><trkpt lat="42.3749078" lon="14.2709931"><ele>144.0</ele><time>2026-05-01T08:17:54.803Z</time></trkpt><trkpt lat="42.3748076" lon="14.2709819"><ele>144.0</ele><time>2026-05-01T08:17:55.795Z</time></trkpt><trkpt lat="42.3746983" lon="14.2709423"><ele>144.0</ele><time>2026-05-01T08:17:56.821Z</time></trkpt><trkpt lat="42.3745684" lon="14.2708973"><ele>144.0</ele><time>2026-05-01T08:17:57.799Z</time></trkpt><trkpt lat="42.3744453" lon="14.2708879"><ele>146.0</ele><time>2026-05-01T08:17:58.798Z</time></trkpt><trkpt lat="42.3743687" lon="14.2708927"><ele>148.0</ele><time>2026-05-01T08:17:59.808Z</time></trkpt><trkpt lat="42.3742802" lon="14.2709426"><ele>150.0</ele><time>2026-05-01T08:18:01.802Z</time></trkpt><trkpt lat="42.3741786" lon="14.2709941"><ele>152.0</ele><time>2026-05-01T08:18:03.798Z</time></trkpt><trkpt lat="42.3740971" lon="14.2711153"><ele>154.0</ele><time>2026-05-01T08:18:05.796Z</time></trkpt><trkpt lat="42.3740509" lon="14.2712661"><ele>154.0</ele><time>2026-05-01T08:18:07.805Z</time></trkpt><trkpt lat="42.3739934" lon="14.2714195"><ele>154.0</ele><time>2026-05-01T08:18:09.793Z</time></trkpt><trkpt lat="42.3739465" lon="14.2715078"><ele>154.0</ele><time>2026-05-01T08:18:10.799Z</time></trkpt><trkpt lat="42.3738727" lon="14.2715924"><ele>154.0</ele><time>2026-05-01T08:18:11.8Z</time></trkpt><trkpt lat="42.3737844" lon="14.2716825"><ele>154.0</ele><time>2026-05-01T08:18:12.806Z</time></trkpt><trkpt lat="42.3736778" lon="14.2717617"><ele>150.4</ele><time>2026-05-01T08:18:13.8Z</time></trkpt><trkpt lat="42.3735772" lon="14.2718282"><ele>146.8</ele><time>2026-05-01T08:18:14.793Z</time></trkpt><trkpt lat="42.3734772" lon="14.2718877"><ele>143.2</ele><time>2026-05-01T08:18:15.796Z</time></trkpt><trkpt lat="42.3733773" lon="14.2719452"><ele>139.6</ele><time>2026-05-01T08:18:16.792Z</time></trkpt><trkpt lat="42.3732665" lon="14.2719668"><ele>136.0</ele><time>2026-05-01T08:18:17.805Z</time></trkpt><trkpt lat="42.3731525" lon="14.2719685"><ele>133.5</ele><time>2026-05-01T08:18:18.803Z</time></trkpt><trkpt lat="42.3730154" lon="14.2719696"><ele>131.0</ele><time>2026-05-01T08:18:19.795Z</time></trkpt><trkpt lat="42.3728764" lon="14.2719713"><ele>128.5</ele><time>2026-05-01T08:18:20.808Z</time></trkpt><trkpt lat="42.3727442" lon="14.2719783"><ele>126.0</ele><time>2026-05-01T08:18:21.789Z</time></trkpt><trkpt lat="42.3726118" lon="14.2719884"><ele>126.0</ele><time>2026-05-01T08:18:22.807Z</time></trkpt><trkpt lat="42.3724789" lon="14.2719975"><ele>126.0</ele><time>2026-05-01T08:18:23.804Z</time></trkpt><trkpt lat="42.3723638" lon="14.27201"><ele>126.0</ele><time>2026-05-01T08:18:24.797Z</time></trkpt><trkpt lat="42.3722722" lon="14.2720186"><ele>126.0</ele><time>2026-05-01T08:18:25.806Z</time></trkpt><trkpt lat="42.3721943" lon="14.2720147"><ele>126.0</ele><time>2026-05-01T08:18:26.799Z</time></trkpt><trkpt lat="42.3721245" lon="14.272034"><ele>121.5</ele><time>2026-05-01T08:18:27.803Z</time></trkpt><trkpt lat="42.3720465" lon="14.2720907"><ele>117.0</ele><time>2026-05-01T08:18:28.8Z</time></trkpt><trkpt lat="42.3719735" lon="14.2721886"><ele>112.5</ele><time>2026-05-01T08:18:29.799Z</time></trkpt><trkpt lat="42.3718977" lon="14.2723251"><ele>108.0</ele><time>2026-05-01T08:18:30.799Z</time></trkpt><trkpt lat="42.371824" lon="14.2724823"><ele>107.5</ele><time>2026-05-01T08:18:31.799Z</time></trkpt><trkpt lat="42.3717594" lon="14.2726464"><ele>107.0</ele><time>2026-05-01T08:18:32.806Z</time></trkpt><trkpt lat="42.371702" lon="14.2728173"><ele>106.5</ele><time>2026-05-01T08:18:33.799Z</time></trkpt><trkpt lat="42.3716409" lon="14.2729852"><ele>106.0</ele><time>2026-05-01T08:18:34.806Z</time></trkpt><trkpt lat="42.371577" lon="14.2731609"><ele>104.75</ele><time>2026-05-01T08:18:35.8Z</time></trkpt><trkpt lat="42.3715169" lon="14.2733364"><ele>103.5</ele><time>2026-05-01T08:18:36.806Z</time></trkpt><trkpt lat="42.3714558" lon="14.273511"><ele>102.25</ele><time>2026-05-01T08:18:37.811Z</time></trkpt><trkpt lat="42.3714027" lon="14.2736656"><ele>101.0</ele><time>2026-05-01T08:18:38.802Z</time></trkpt><trkpt lat="42.3713526" lon="14.2738236"><ele>96.25</ele><time>2026-05-01T08:18:39.804Z</time></trkpt><trkpt lat="42.3713145" lon="14.2739871"><ele>91.5</ele><time>2026-05-01T08:18:40.799Z</time></trkpt><trkpt lat="42.3712866" lon="14.2741413"><ele>86.75</ele><time>2026-05-01T08:18:41.805Z</time></trkpt><trkpt lat="42.3712603" lon="14.2742983"><ele>82.0</ele><time>2026-05-01T08:18:42.798Z</time></trkpt><trkpt lat="42.3712441" lon="14.2744606"><ele>82.0</ele><time>2026-05-01T08:18:43.805Z</time></trkpt><trkpt lat="42.371252" lon="14.274631"><ele>82.0</ele><time>2026-05-01T08:18:44.813Z</time></trkpt><trkpt lat="42.3712652" lon="14.274801"><ele>82.0</ele><time>2026-05-01T08:18:45.803Z</time></trkpt><trkpt lat="42.3712804" lon="14.2749661"><ele>82.0</ele><time>2026-05-01T08:18:46.803Z</time></trkpt><trkpt lat="42.3712761" lon="14.2751364"><ele>81.25</ele><time>2026-05-01T08:18:47.798Z</time></trkpt><trkpt lat="42.3712648" lon="14.2753082"><ele>80.5</ele><time>2026-05-01T08:18:48.807Z</time></trkpt><trkpt lat="42.3712423" lon="14.2754889"><ele>79.75</ele><time>2026-05-01T08:18:49.799Z</time></trkpt><trkpt lat="42.3712096" lon="14.275675"><ele>79.0</ele><time>2026-05-01T08:18:50.797Z</time></trkpt><trkpt lat="42.3711686" lon="14.27587"><ele>79.0</ele><time>2026-05-01T08:18:51.796Z</time></trkpt><trkpt lat="42.3711232" lon="14.2760628"><ele>79.0</ele><time>2026-05-01T08:18:52.801Z</time></trkpt><trkpt lat="42.3710748" lon="14.2762649"><ele>79.0</ele><time>2026-05-01T08:18:53.804Z</time></trkpt><trkpt lat="42.3710267" lon="14.2764695"><ele>78.33333333333333</ele><time>2026-05-01T08:18:54.802Z</time></trkpt><trkpt lat="42.370977" lon="14.2766774"><ele>77.66666666666667</ele><time>2026-05-01T08:18:55.799Z</time></trkpt><trkpt lat="42.3709299" lon="14.2768839"><ele>77.0</ele><time>2026-05-01T08:18:56.81Z</time></trkpt><trkpt lat="42.3708851" lon="14.2770946"><ele>77.0</ele><time>2026-05-01T08:18:57.803Z</time></trkpt><trkpt lat="42.3708368" lon="14.2772984"><ele>77.0</ele><time>2026-05-01T08:18:58.799Z</time></trkpt><trkpt lat="42.3707925" lon="14.2774986"><ele>77.0</ele><time>2026-05-01T08:18:59.812Z</time></trkpt><trkpt lat="42.3707465" lon="14.2776951"><ele>77.0</ele><time>2026-05-01T08:19:00.794Z</time></trkpt><trkpt lat="42.3706996" lon="14.2778853"><ele>77.0</ele><time>2026-05-01T08:19:01.81Z</time></trkpt><trkpt lat="42.3706365" lon="14.2780719"><ele>77.0</ele><time>2026-05-01T08:19:02.811Z</time></trkpt><trkpt lat="42.3705637" lon="14.2782457"><ele>77.0</ele><time>2026-05-01T08:19:03.801Z</time></trkpt><trkpt lat="42.3704938" lon="14.2784008"><ele>75.0</ele><time>2026-05-01T08:19:04.81Z</time></trkpt><trkpt lat="42.3704206" lon="14.2785412"><ele>73.0</ele><time>2026-05-01T08:19:05.8Z</time></trkpt><trkpt lat="42.3703435" lon="14.2786674"><ele>71.0</ele><time>2026-05-01T08:19:06.809Z</time></trkpt><trkpt lat="42.3702531" lon="14.2787853"><ele>69.0</ele><time>2026-05-01T08:19:07.808Z</time></trkpt><trkpt lat="42.3701518" lon="14.2789017"><ele>68.5</ele><time>2026-05-01T08:19:08.799Z</time></trkpt><trkpt lat="42.3700514" lon="14.278998"><ele>68.0</ele><time>2026-05-01T08:19:09.797Z</time></trkpt><trkpt lat="42.3699468" lon="14.2790791"><ele>67.5</ele><time>2026-05-01T08:19:10.806Z</time></trkpt><trkpt lat="42.369853" lon="14.2791571"><ele>67.0</ele><time>2026-05-01T08:19:11.808Z</time></trkpt><trkpt lat="42.3697683" lon="14.2792279"><ele>67.0</ele><time>2026-05-01T08:19:12.81Z</time></trkpt><trkpt lat="42.3697008" lon="14.279316"><ele>67.0</ele><time>2026-05-01T08:19:13.81Z</time></trkpt><trkpt lat="42.3696647" lon="14.2794216"><ele>67.0</ele><time>2026-05-01T08:19:14.81Z</time></trkpt><trkpt lat="42.369648" lon="14.2795562"><ele>67.0</ele><time>2026-05-01T08:19:15.803Z</time></trkpt><trkpt lat="42.3696596" lon="14.2797161"><ele>67.0</ele><time>2026-05-01T08:19:16.811Z</time></trkpt><trkpt lat="42.3696757" lon="14.2798978"><ele>66.75</ele><time>2026-05-01T08:19:17.808Z</time></trkpt><trkpt lat="42.3696806" lon="14.2800928"><ele>66.5</ele><time>2026-05-01T08:19:18.824Z</time></trkpt><trkpt lat="42.369688" lon="14.280295"><ele>66.25</ele><time>2026-05-01T08:19:19.803Z</time></trkpt><trkpt lat="42.3696954" lon="14.2804906"><ele>66.0</ele><time>2026-05-01T08:19:20.816Z</time></trkpt><trkpt lat="42.3696993" lon="14.2806754"><ele>65.25</ele><time>2026-05-01T08:19:21.802Z</time></trkpt><trkpt lat="42.3696948" lon="14.2808538"><ele>64.5</ele><time>2026-05-01T08:19:22.819Z</time></trkpt><trkpt lat="42.3696956" lon="14.2810263"><ele>63.75</ele><time>2026-05-01T08:19:23.81Z</time></trkpt><trkpt lat="42.369698" lon="14.2812075"><ele>63.0</ele><time>2026-05-01T08:19:24.814Z</time></trkpt><trkpt lat="42.3696998" lon="14.2813937"><ele>62.75</ele><time>2026-05-01T08:19:25.812Z</time></trkpt><trkpt lat="42.3697001" lon="14.2815793"><ele>62.5</ele><time>2026-05-01T08:19:26.809Z</time></trkpt><trkpt lat="42.3697044" lon="14.2817563"><ele>62.25</ele><time>2026-05-01T08:19:27.805Z</time></trkpt><trkpt lat="42.3697063" lon="14.2819202"><ele>62.0</ele><time>2026-05-01T08:19:28.821Z</time></trkpt><trkpt lat="42.3696909" lon="14.2820754"><ele>62.0</ele><time>2026-05-01T08:19:29.808Z</time></trkpt><trkpt lat="42.3696689" lon="14.2821926"><ele>62.0</ele><time>2026-05-01T08:19:30.809Z</time></trkpt><trkpt lat="42.3695963" lon="14.2822598"><ele>62.0</ele><time>2026-05-01T08:19:32.81Z</time></trkpt><trkpt lat="42.3695035" lon="14.2821889"><ele>62.0</ele><time>2026-05-01T08:19:34.821Z</time></trkpt><trkpt lat="42.3694569" lon="14.2820925"><ele>62.0</ele><time>2026-05-01T08:19:35.814Z</time></trkpt><trkpt lat="42.3693864" lon="14.2819514"><ele>62.0</ele><time>2026-05-01T08:19:36.812Z</time></trkpt><trkpt lat="42.3692945" lon="14.2817848"><ele>62.0</ele><time>2026-05-01T08:19:37.809Z</time></trkpt><trkpt lat="42.3691889" lon="14.2816024"><ele>62.0</ele><time>2026-05-01T08:19:38.818Z</time></trkpt><trkpt lat="42.3690816" lon="14.2814099"><ele>62.333333333333336</ele><time>2026-05-01T08:19:39.797Z</time></trkpt><trkpt lat="42.3689561" lon="14.281199"><ele>62.66666666666667</ele><time>2026-05-01T08:19:40.806Z</time></trkpt><trkpt lat="42.3688275" lon="14.2809799"><ele>63.0</ele><time>2026-05-01T08:19:41.801Z</time></trkpt><trkpt lat="42.3687174" lon="14.2807837"><ele>63.0</ele><time>2026-05-01T08:19:42.808Z</time></trkpt><trkpt lat="42.3686238" lon="14.2806117"><ele>63.0</ele><time>2026-05-01T08:19:43.794Z</time></trkpt><trkpt lat="42.3685446" lon="14.2804703"><ele>63.0</ele><time>2026-05-01T08:19:44.79Z</time></trkpt><trkpt lat="42.3684709" lon="14.2803447"><ele>63.0</ele><time>2026-05-01T08:19:45.796Z</time></trkpt><trkpt lat="42.3684064" lon="14.2802362"><ele>62.599999999999994</ele><time>2026-05-01T08:19:46.808Z</time></trkpt><trkpt lat="42.36833" lon="14.2801635"><ele>62.199999999999996</ele><time>2026-05-01T08:19:47.798Z</time></trkpt><trkpt lat="42.3682352" lon="14.2801488"><ele>61.8</ele><time>2026-05-01T08:19:48.8Z</time></trkpt><trkpt lat="42.3681356" lon="14.2801745"><ele>61.4</ele><time>2026-05-01T08:19:49.82Z</time></trkpt><trkpt lat="42.3680146" lon="14.2802423"><ele>61.0</ele><time>2026-05-01T08:19:50.805Z</time></trkpt><trkpt lat="42.3678779" lon="14.2803353"><ele>59.0</ele><time>2026-05-01T08:19:51.808Z</time></trkpt><trkpt lat="42.3677206" lon="14.2804445"><ele>57.0</ele><time>2026-05-01T08:19:52.815Z</time></trkpt><trkpt lat="42.3675459" lon="14.2805554"><ele>55.0</ele><time>2026-05-01T08:19:53.806Z</time></trkpt><trkpt lat="42.3673631" lon="14.2806557"><ele>53.0</ele><time>2026-05-01T08:19:54.801Z</time></trkpt><trkpt lat="42.3671692" lon="14.2807264"><ele>51.0</ele><time>2026-05-01T08:19:55.797Z</time></trkpt><trkpt lat="42.3669792" lon="14.2807793"><ele>49.0</ele><time>2026-05-01T08:19:56.801Z</time></trkpt><trkpt lat="42.3667928" lon="14.2808171"><ele>49.0</ele><time>2026-05-01T08:19:57.809Z</time></trkpt><trkpt lat="42.3666113" lon="14.2808618"><ele>49.0</ele><time>2026-05-01T08:19:58.8Z</time></trkpt><trkpt lat="42.3664163" lon="14.2809042"><ele>49.0</ele><time>2026-05-01T08:19:59.803Z</time></trkpt><trkpt lat="42.3662289" lon="14.2809523"><ele>47.666666666666664</ele><time>2026-05-01T08:20:00.809Z</time></trkpt><trkpt lat="42.3660551" lon="14.2809974"><ele>46.33333333333333</ele><time>2026-05-01T08:20:01.808Z</time></trkpt><trkpt lat="42.3659028" lon="14.2810322"><ele>45.0</ele><time>2026-05-01T08:20:02.804Z</time></trkpt><trkpt lat="42.3657744" lon="14.2810549"><ele>45.0</ele><time>2026-05-01T08:20:03.813Z</time></trkpt><trkpt lat="42.3656637" lon="14.2810724"><ele>45.0</ele><time>2026-05-01T08:20:04.803Z</time></trkpt><trkpt lat="42.3655797" lon="14.2810748"><ele>45.0</ele><time>2026-05-01T08:20:05.815Z</time></trkpt><trkpt lat="42.3654647" lon="14.2810196"><ele>45.0</ele><time>2026-05-01T08:20:07.8Z</time></trkpt><trkpt lat="42.3654094" lon="14.2809359"><ele>45.0</ele><time>2026-05-01T08:20:08.799Z</time></trkpt><trkpt lat="42.3653433" lon="14.2808146"><ele>45.0</ele><time>2026-05-01T08:20:09.8Z</time></trkpt><trkpt lat="42.3652785" lon="14.2806747"><ele>45.0</ele><time>2026-05-01T08:20:10.809Z</time></trkpt><trkpt lat="42.3651779" lon="14.2804875"><ele>45.0</ele><time>2026-05-01T08:20:11.801Z</time></trkpt><trkpt lat="42.3650547" lon="14.2802366"><ele>45.0</ele><time>2026-05-01T08:20:12.841Z</time></trkpt><trkpt lat="42.3649243" lon="14.2799725"><ele>45.0</ele><time>2026-05-01T08:20:13.795Z</time></trkpt><trkpt lat="42.3648056" lon="14.2797406"><ele>45.0</ele><time>2026-05-01T08:20:14.803Z</time></trkpt><trkpt lat="42.3647015" lon="14.2795387"><ele>45.333333333333336</ele><time>2026-05-01T08:20:15.81Z</time></trkpt><trkpt lat="42.3645986" lon="14.279323"><ele>45.66666666666667</ele><time>2026-05-01T08:20:16.803Z</time></trkpt><trkpt lat="42.3644833" lon="14.2791169"><ele>46.0</ele><time>2026-05-01T08:20:17.807Z</time></trkpt><trkpt lat="42.3643641" lon="14.2789234"><ele>47.0</ele><time>2026-05-01T08:20:18.815Z</time></trkpt><trkpt lat="42.364222" lon="14.2787567"><ele>48.0</ele><time>2026-05-01T08:20:19.82Z</time></trkpt><trkpt lat="42.3640665" lon="14.2786234"><ele>49.0</ele><time>2026-05-01T08:20:20.812Z</time></trkpt><trkpt lat="42.3639159" lon="14.2784985"><ele>48.33333333333333</ele><time>2026-05-01T08:20:21.805Z</time></trkpt><trkpt lat="42.3637662" lon="14.2783728"><ele>47.666666666666664</ele><time>2026-05-01T08:20:22.806Z</time></trkpt><trkpt lat="42.3636241" lon="14.2782416"><ele>47.0</ele><time>2026-05-01T08:20:23.813Z</time></trkpt><trkpt lat="42.3634843" lon="14.2781147"><ele>48.0</ele><time>2026-05-01T08:20:24.811Z</time></trkpt><trkpt lat="42.3633364" lon="14.2779955"><ele>49.0</ele><time>2026-05-01T08:20:25.821Z</time></trkpt><trkpt lat="42.3631854" lon="14.2778895"><ele>50.0</ele><time>2026-05-01T08:20:26.804Z</time></trkpt><trkpt lat="42.3630446" lon="14.2777937"><ele>50.0</ele><time>2026-05-01T08:20:27.801Z</time></trkpt><trkpt lat="42.3629009" lon="14.2777271"><ele>50.0</ele><time>2026-05-01T08:20:28.806Z</time></trkpt><trkpt lat="42.3627473" lon="14.277695"><ele>50.0</ele><time>2026-05-01T08:20:29.8Z</time></trkpt><trkpt lat="42.3625739" lon="14.277678"><ele>50.0</ele><time>2026-05-01T08:20:30.819Z</time></trkpt><trkpt lat="42.3623784" lon="14.2776923"><ele>50.0</ele><time>2026-05-01T08:20:31.821Z</time></trkpt><trkpt lat="42.3621807" lon="14.2777142"><ele>50.0</ele><time>2026-05-01T08:20:32.804Z</time></trkpt><trkpt lat="42.361973" lon="14.2777331"><ele>50.0</ele><time>2026-05-01T08:20:33.8Z</time></trkpt><trkpt lat="42.3617653" lon="14.2777581"><ele>50.0</ele><time>2026-05-01T08:20:34.811Z</time></trkpt><trkpt lat="42.3615514" lon="14.277778"><ele>50.0</ele><time>2026-05-01T08:20:35.803Z</time></trkpt><trkpt lat="42.3613337" lon="14.2777956"><ele>50.0</ele><time>2026-05-01T08:20:36.802Z</time></trkpt><trkpt lat="42.3611159" lon="14.2778195"><ele>50.0</ele><time>2026-05-01T08:20:37.808Z</time></trkpt><trkpt lat="42.3609061" lon="14.2778427"><ele>50.0</ele><time>2026-05-01T08:20:38.808Z</time></trkpt><trkpt lat="42.3607033" lon="14.2778611"><ele>50.333333333333336</ele><time>2026-05-01T08:20:39.81Z</time></trkpt><trkpt lat="42.3605152" lon="14.2778706"><ele>50.66666666666667</ele><time>2026-05-01T08:20:40.817Z</time></trkpt><trkpt lat="42.3603487" lon="14.2778692"><ele>51.0</ele><time>2026-05-01T08:20:41.8Z</time></trkpt><trkpt lat="42.3602096" lon="14.2778526"><ele>51.0</ele><time>2026-05-01T08:20:42.813Z</time></trkpt><trkpt lat="42.3600807" lon="14.2778063"><ele>51.0</ele><time>2026-05-01T08:20:43.804Z</time></trkpt><trkpt lat="42.3599618" lon="14.2777201"><ele>51.0</ele><time>2026-05-01T08:20:44.81Z</time></trkpt><trkpt lat="42.3598778" lon="14.2776095"><ele>51.0</ele><time>2026-05-01T08:20:45.801Z</time></trkpt><trkpt lat="42.3598163" lon="14.2774817"><ele>51.0</ele><time>2026-05-01T08:20:46.8Z</time></trkpt><trkpt lat="42.3597781" lon="14.2773551"><ele>51.0</ele><time>2026-05-01T08:20:47.806Z</time></trkpt><trkpt lat="42.3597507" lon="14.2772369"><ele>51.0</ele><time>2026-05-01T08:20:48.821Z</time></trkpt><trkpt lat="42.3597304" lon="14.2771343"><ele>51.0</ele><time>2026-05-01T08:20:49.817Z</time></trkpt><trkpt lat="42.3597064" lon="14.2770507"><ele>51.0</ele><time>2026-05-01T08:20:50.816Z</time></trkpt><trkpt lat="42.3596288" lon="14.2769512"><ele>51.0</ele><time>2026-05-01T08:20:52.814Z</time></trkpt><trkpt lat="42.3595405" lon="14.2770471"><ele>50.75</ele><time>2026-05-01T08:20:54.817Z</time></trkpt><trkpt lat="42.3595229" lon="14.2771543"><ele>50.5</ele><time>2026-05-01T08:20:55.8Z</time></trkpt><trkpt lat="42.3595024" lon="14.2772783"><ele>50.25</ele><time>2026-05-01T08:20:56.813Z</time></trkpt><trkpt lat="42.3595016" lon="14.2774549"><ele>50.0</ele><time>2026-05-01T08:20:57.811Z</time></trkpt><trkpt lat="42.3595254" lon="14.2776515"><ele>50.0</ele><time>2026-05-01T08:20:58.806Z</time></trkpt><trkpt lat="42.3595544" lon="14.2778482"><ele>50.0</ele><time>2026-05-01T08:20:59.81Z</time></trkpt><trkpt lat="42.3595864" lon="14.2780492"><ele>50.0</ele><time>2026-05-01T08:21:00.811Z</time></trkpt><trkpt lat="42.359611" lon="14.2782304"><ele>50.0</ele><time>2026-05-01T08:21:01.818Z</time></trkpt><trkpt lat="42.3596133" lon="14.2784176"><ele>48.66666666666667</ele><time>2026-05-01T08:21:02.805Z</time></trkpt><trkpt lat="42.3595917" lon="14.2786115"><ele>47.333333333333336</ele><time>2026-05-01T08:21:03.81Z</time></trkpt><trkpt lat="42.3595365" lon="14.2788066"><ele>46.0</ele><time>2026-05-01T08:21:04.808Z</time></trkpt><trkpt lat="42.3594637" lon="14.2790066"><ele>45.333333333333336</ele><time>2026-05-01T08:21:05.81Z</time></trkpt><trkpt lat="42.3593913" lon="14.2791977"><ele>44.666666666666664</ele><time>2026-05-01T08:21:06.809Z</time></trkpt><trkpt lat="42.35931" lon="14.2794097"><ele>44.0</ele><time>2026-05-01T08:21:07.801Z</time></trkpt><trkpt lat="42.3592301" lon="14.2796211"><ele>43.33333333333333</ele><time>2026-05-01T08:21:08.808Z</time></trkpt><trkpt lat="42.3591476" lon="14.2798328"><ele>42.666666666666664</ele><time>2026-05-01T08:21:09.812Z</time></trkpt><trkpt lat="42.3590645" lon="14.2800418"><ele>42.0</ele><time>2026-05-01T08:21:10.802Z</time></trkpt><trkpt lat="42.358975" lon="14.2802247"><ele>42.0</ele><time>2026-05-01T08:21:11.813Z</time></trkpt><trkpt lat="42.3588616" lon="14.280387"><ele>42.0</ele><time>2026-05-01T08:21:12.804Z</time></trkpt><trkpt lat="42.3587356" lon="14.2805252"><ele>42.0</ele><time>2026-05-01T08:21:13.8Z</time></trkpt><trkpt lat="42.3585953" lon="14.2806535"><ele>41.8</ele><time>2026-05-01T08:21:14.825Z</time></trkpt><trkpt lat="42.3584876" lon="14.2807393"><ele>41.6</ele><time>2026-05-01T08:21:15.809Z</time></trkpt><trkpt lat="42.35842" lon="14.2807991"><ele>41.4</ele><time>2026-05-01T08:21:16.805Z</time></trkpt><trkpt lat="42.358356" lon="14.2808767"><ele>41.199999999999996</ele><time>2026-05-01T08:21:18.808Z</time></trkpt><trkpt lat="42.3584126" lon="14.2809171"><ele>41.0</ele><time>2026-05-01T08:21:20.808Z</time></trkpt><trkpt lat="42.3585288" lon="14.2808427"><ele>41.0</ele><time>2026-05-01T08:21:22.804Z</time></trkpt><trkpt lat="42.3586189" lon="14.2807892"><ele>41.0</ele><time>2026-05-01T08:21:23.799Z</time></trkpt><trkpt lat="42.3586996" lon="14.2807209"><ele>41.0</ele><time>2026-05-01T08:21:24.819Z</time></trkpt><trkpt lat="42.3587696" lon="14.2806771"><ele>41.0</ele><time>2026-05-01T08:21:25.811Z</time></trkpt><trkpt lat="42.3588455" lon="14.2806017"><ele>41.0</ele><time>2026-05-01T08:21:27.796Z</time></trkpt><trkpt lat="42.3589213" lon="14.2805282"><ele>41.166666666666664</ele><time>2026-05-01T08:21:29.801Z</time></trkpt><trkpt lat="42.3589956" lon="14.2804415"><ele>41.33333333333333</ele><time>2026-05-01T08:21:31.808Z</time></trkpt><trkpt lat="42.3590567" lon="14.2803734"><ele>41.5</ele><time>2026-05-01T08:21:33.815Z</time></trkpt><trkpt lat="42.3591033" lon="14.2803161"><ele>41.666666666666664</ele><time>2026-05-01T08:21:35.844Z</time></trkpt><trkpt lat="42.3591597" lon="14.2802267"><ele>41.833333333333336</ele><time>2026-05-01T08:21:37.812Z</time></trkpt><trkpt lat="42.3591989" lon="14.2801587"><ele>42.0</ele><time>2026-05-01T08:21:38.808Z</time></trkpt><trkpt lat="42.3592337" lon="14.2800734"><ele>42.0</ele><time>2026-05-01T08:21:39.795Z</time></trkpt><trkpt lat="42.3592657" lon="14.2799827"><ele>42.0</ele><time>2026-05-01T08:21:40.804Z</time></trkpt><trkpt lat="42.3593096" lon="14.2799133"><ele>42.0</ele><time>2026-05-01T08:21:41.803Z</time></trkpt><trkpt lat="42.3594322" lon="14.2798718"><ele>42.0</ele><time>2026-05-01T08:21:43.809Z</time></trkpt><trkpt lat="42.3595456" lon="14.279857"><ele>42.0</ele><time>2026-05-01T08:21:44.815Z</time></trkpt><trkpt lat="42.3596614" lon="14.27984"><ele>41.75</ele><time>2026-05-01T08:21:45.803Z</time></trkpt><trkpt lat="42.3597653" lon="14.2798515"><ele>41.5</ele><time>2026-05-01T08:21:46.809Z</time></trkpt><trkpt lat="42.3598634" lon="14.2798763"><ele>41.25</ele><time>2026-05-01T08:21:47.813Z</time></trkpt><trkpt lat="42.3599807" lon="14.279903"><ele>41.0</ele><time>2026-05-01T08:21:48.806Z</time></trkpt><trkpt lat="42.3601172" lon="14.2799445"><ele>41.0</ele><time>2026-05-01T08:21:49.798Z</time></trkpt><trkpt lat="42.3602796" lon="14.27998"><ele>41.0</ele><time>2026-05-01T08:21:50.804Z</time></trkpt><trkpt lat="42.3604548" lon="14.2800166"><ele>41.0</ele><time>2026-05-01T08:21:51.797Z</time></trkpt><trkpt lat="42.3606403" lon="14.2800515"><ele>41.5</ele><time>2026-05-01T08:21:52.8Z</time></trkpt><trkpt lat="42.3608036" lon="14.2800924"><ele>42.0</ele><time>2026-05-01T08:21:53.802Z</time></trkpt><trkpt lat="42.3609257" lon="14.2801188"><ele>42.5</ele><time>2026-05-01T08:21:54.798Z</time></trkpt><trkpt lat="42.3610181" lon="14.2801354"><ele>43.0</ele><time>2026-05-01T08:21:55.803Z</time></trkpt><trkpt lat="42.3610855" lon="14.280113"><ele>43.0</ele><time>2026-05-01T08:21:56.802Z</time></trkpt><trkpt lat="42.3611678" lon="14.2800542"><ele>43.0</ele><time>2026-05-01T08:21:57.8Z</time></trkpt><trkpt lat="42.3612556" lon="14.2799803"><ele>43.0</ele><time>2026-05-01T08:21:58.802Z</time></trkpt><trkpt lat="42.3613322" lon="14.2799026"><ele>43.0</ele><time>2026-05-01T08:21:59.807Z</time></trkpt><trkpt lat="42.3614167" lon="14.279819"><ele>43.0</ele><time>2026-05-01T08:22:00.804Z</time></trkpt><trkpt lat="42.3615068" lon="14.2797683"><ele>43.0</ele><time>2026-05-01T08:22:01.791Z</time></trkpt><trkpt lat="42.3616261" lon="14.2797226"><ele>43.0</ele><time>2026-05-01T08:22:02.804Z</time></trkpt><trkpt lat="42.3617741" lon="14.2796671"><ele>43.0</ele><time>2026-05-01T08:22:03.798Z</time></trkpt><trkpt lat="42.3619199" lon="14.2795969"><ele>43.0</ele><time>2026-05-01T08:22:04.796Z</time></trkpt><trkpt lat="42.3620388" lon="14.2795211"><ele>43.0</ele><time>2026-05-01T08:22:05.803Z</time></trkpt><trkpt lat="42.3621548" lon="14.2794934"><ele>43.0</ele><time>2026-05-01T08:22:06.801Z</time></trkpt><trkpt lat="42.3622553" lon="14.279464"><ele>43.0</ele><time>2026-05-01T08:22:07.805Z</time></trkpt><trkpt lat="42.3623356" lon="14.2794646"><ele>43.0</ele><time>2026-05-01T08:22:08.806Z</time></trkpt><trkpt lat="42.362399" lon="14.2794959"><ele>43.0</ele><time>2026-05-01T08:22:09.801Z</time></trkpt><trkpt lat="42.3624752" lon="14.2795365"><ele>43.0</ele><time>2026-05-01T08:22:10.82Z</time></trkpt><trkpt lat="42.3625775" lon="14.2796094"><ele>43.0</ele><time>2026-05-01T08:22:11.823Z</time></trkpt><trkpt lat="42.3627022" lon="14.2797088"><ele>43.0</ele><time>2026-05-01T08:22:12.806Z</time></trkpt><trkpt lat="42.3628358" lon="14.279807"><ele>43.0</ele><time>2026-05-01T08:22:13.794Z</time></trkpt><trkpt lat="42.3629807" lon="14.2798991"><ele>42.66666666666667</ele><time>2026-05-01T08:22:14.806Z</time></trkpt><trkpt lat="42.3631287" lon="14.2799897"><ele>42.333333333333336</ele><time>2026-05-01T08:22:15.803Z</time></trkpt><trkpt lat="42.3632937" lon="14.2800676"><ele>42.0</ele><time>2026-05-01T08:22:16.823Z</time></trkpt><trkpt lat="42.3634494" lon="14.2801477"><ele>42.0</ele><time>2026-05-01T08:22:17.806Z</time></trkpt><trkpt lat="42.3635871" lon="14.2802213"><ele>42.0</ele><time>2026-05-01T08:22:18.804Z</time></trkpt><trkpt lat="42.3637182" lon="14.2802931"><ele>42.0</ele><time>2026-05-01T08:22:19.8Z</time></trkpt><trkpt lat="42.3638197" lon="14.2803675"><ele>42.0</ele><time>2026-05-01T08:22:20.81Z</time></trkpt><trkpt lat="42.3639047" lon="14.2804713"><ele>40.666666666666664</ele><time>2026-05-01T08:22:21.802Z</time></trkpt><trkpt lat="42.3639962" lon="14.2806176"><ele>39.33333333333333</ele><time>2026-05-01T08:22:22.796Z</time></trkpt><trkpt lat="42.3640962" lon="14.2808073"><ele>38.0</ele><time>2026-05-01T08:22:23.807Z</time></trkpt><trkpt lat="42.3641882" lon="14.2810032"><ele>38.0</ele><time>2026-05-01T08:22:24.797Z</time></trkpt><trkpt lat="42.3642559" lon="14.28116"><ele>38.0</ele><time>2026-05-01T08:22:25.806Z</time></trkpt><trkpt lat="42.364306" lon="14.2813116"><ele>38.0</ele><time>2026-05-01T08:22:26.804Z</time></trkpt><trkpt lat="42.3643244" lon="14.2814429"><ele>38.0</ele><time>2026-05-01T08:22:27.815Z</time></trkpt><trkpt lat="42.3643342" lon="14.2815667"><ele>38.0</ele><time>2026-05-01T08:22:28.805Z</time></trkpt><trkpt lat="42.3643217" lon="14.2817174"><ele>37.666666666666664</ele><time>2026-05-01T08:22:29.81Z</time></trkpt><trkpt lat="42.3642935" lon="14.2818671"><ele>37.33333333333333</ele><time>2026-05-01T08:22:30.795Z</time></trkpt><trkpt lat="42.3642682" lon="14.2819748"><ele>37.0</ele><time>2026-05-01T08:22:31.812Z</time></trkpt><trkpt lat="42.3642341" lon="14.2820726"><ele>36.666666666666664</ele><time>2026-05-01T08:22:32.807Z</time></trkpt><trkpt lat="42.3641922" lon="14.2821691"><ele>36.333333333333336</ele><time>2026-05-01T08:22:33.807Z</time></trkpt><trkpt lat="42.3641497" lon="14.2822556"><ele>36.0</ele><time>2026-05-01T08:22:34.796Z</time></trkpt><trkpt lat="42.3641155" lon="14.2823493"><ele>36.0</ele><time>2026-05-01T08:22:35.801Z</time></trkpt><trkpt lat="42.3640935" lon="14.2824323"><ele>36.0</ele><time>2026-05-01T08:22:36.803Z</time></trkpt><trkpt lat="42.3640958" lon="14.2825794"><ele>36.0</ele><time>2026-05-01T08:22:37.807Z</time></trkpt><trkpt lat="42.3641148" lon="14.2827491"><ele>36.0</ele><time>2026-05-01T08:22:38.809Z</time></trkpt><trkpt lat="42.3641349" lon="14.2828792"><ele>36.0</ele><time>2026-05-01T08:22:39.801Z</time></trkpt><trkpt lat="42.3641613" lon="14.2830042"><ele>36.0</ele><time>2026-05-01T08:22:41.81Z</time></trkpt><trkpt lat="42.364186" lon="14.2830894"><ele>36.0</ele><time>2026-05-01T08:22:42.804Z</time></trkpt><trkpt lat="42.3642236" lon="14.283178"><ele>36.0</ele><time>2026-05-01T08:22:43.81Z</time></trkpt><trkpt lat="42.3642591" lon="14.2832673"><ele>36.0</ele><time>2026-05-01T08:22:44.806Z</time></trkpt><trkpt lat="42.3642608" lon="14.2833857"><ele>36.0</ele><time>2026-05-01T08:22:45.805Z</time></trkpt><trkpt lat="42.3642634" lon="14.2835237"><ele>36.0</ele><time>2026-05-01T08:22:46.8Z</time></trkpt><trkpt lat="42.3642687" lon="14.2836703"><ele>35.75</ele><time>2026-05-01T08:22:47.806Z</time></trkpt><trkpt lat="42.36427" lon="14.2838155"><ele>35.5</ele><time>2026-05-01T08:22:48.799Z</time></trkpt><trkpt lat="42.364265" lon="14.2839781"><ele>35.25</ele><time>2026-05-01T08:22:49.804Z</time></trkpt><trkpt lat="42.3642535" lon="14.2841816"><ele>35.0</ele><time>2026-05-01T08:22:50.802Z</time></trkpt><trkpt lat="42.3642407" lon="14.2843947"><ele>34.5</ele><time>2026-05-01T08:22:51.805Z</time></trkpt><trkpt lat="42.3642229" lon="14.2845823"><ele>34.0</ele><time>2026-05-01T08:22:52.798Z</time></trkpt><trkpt lat="42.3642141" lon="14.2847476"><ele>33.5</ele><time>2026-05-01T08:22:53.804Z</time></trkpt><trkpt lat="42.3642015" lon="14.2849058"><ele>33.0</ele><time>2026-05-01T08:22:54.803Z</time></trkpt><trkpt lat="42.3641914" lon="14.2850578"><ele>33.0</ele><time>2026-05-01T08:22:55.798Z</time></trkpt><trkpt lat="42.3641872" lon="14.2852077"><ele>33.0</ele><time>2026-05-01T08:22:56.808Z</time></trkpt><trkpt lat="42.3641884" lon="14.2853416"><ele>33.0</ele><time>2026-05-01T08:22:57.802Z</time></trkpt><trkpt lat="42.3642077" lon="14.2854787"><ele>33.0</ele><time>2026-05-01T08:22:58.797Z</time></trkpt><trkpt lat="42.3642342" lon="14.285631"><ele>33.0</ele><time>2026-05-01T08:22:59.804Z</time></trkpt><trkpt lat="42.3642615" lon="14.2857887"><ele>33.75</ele><time>2026-05-01T08:23:00.797Z</time></trkpt><trkpt lat="42.364292" lon="14.2859393"><ele>34.5</ele><time>2026-05-01T08:23:01.836Z</time></trkpt><trkpt lat="42.3643353" lon="14.2860888"><ele>35.25</ele><time>2026-05-01T08:23:02.805Z</time></trkpt><trkpt lat="42.3644051" lon="14.286252"><ele>36.0</ele><time>2026-05-01T08:23:03.801Z</time></trkpt><trkpt lat="42.3644944" lon="14.2864058"><ele>35.666666666666664</ele><time>2026-05-01T08:23:04.798Z</time></trkpt><trkpt lat="42.3645936" lon="14.286531"><ele>35.33333333333333</ele><time>2026-05-01T08:23:05.802Z</time></trkpt><trkpt lat="42.3647338" lon="14.2866551"><ele>35.0</ele><time>2026-05-01T08:23:06.802Z</time></trkpt><trkpt lat="42.3649004" lon="14.2868065"><ele>35.0</ele><time>2026-05-01T08:23:07.798Z</time></trkpt><trkpt lat="42.3650572" lon="14.286963"><ele>35.0</ele><time>2026-05-01T08:23:08.818Z</time></trkpt><trkpt lat="42.3651948" lon="14.2870935"><ele>35.0</ele><time>2026-05-01T08:23:09.801Z</time></trkpt><trkpt lat="42.3653096" lon="14.2872058"><ele>35.2</ele><time>2026-05-01T08:23:10.794Z</time></trkpt><trkpt lat="42.3654126" lon="14.2872919"><ele>35.4</ele><time>2026-05-01T08:23:11.8Z</time></trkpt><trkpt lat="42.3655058" lon="14.2873493"><ele>35.6</ele><time>2026-05-01T08:23:12.808Z</time></trkpt><trkpt lat="42.365611" lon="14.2873733"><ele>35.8</ele><time>2026-05-01T08:23:13.807Z</time></trkpt><trkpt lat="42.3657212" lon="14.2873913"><ele>36.0</ele><time>2026-05-01T08:23:14.81Z</time></trkpt><trkpt lat="42.3658021" lon="14.287395"><ele>35.6</ele><time>2026-05-01T08:23:15.799Z</time></trkpt><trkpt lat="42.3659089" lon="14.2873762"><ele>35.2</ele><time>2026-05-01T08:23:17.801Z</time></trkpt><trkpt lat="42.3659936" lon="14.2873534"><ele>34.8</ele><time>2026-05-01T08:23:18.803Z</time></trkpt><trkpt lat="42.3660775" lon="14.2873079"><ele>34.4</ele><time>2026-05-01T08:23:19.806Z</time></trkpt><trkpt lat="42.3661678" lon="14.2872536"><ele>34.0</ele><time>2026-05-01T08:23:20.813Z</time></trkpt><trkpt lat="42.366262" lon="14.2872041"><ele>34.0</ele><time>2026-05-01T08:23:21.792Z</time></trkpt><trkpt lat="42.3663581" lon="14.2871811"><ele>34.0</ele><time>2026-05-01T08:23:22.805Z</time></trkpt><trkpt lat="42.3664462" lon="14.2872047"><ele>34.0</ele><time>2026-05-01T08:23:23.808Z</time></trkpt><trkpt lat="42.3665067" lon="14.287255"><ele>34.0</ele><time>2026-05-01T08:23:24.806Z</time></trkpt><trkpt lat="42.3665622" lon="14.2873167"><ele>34.0</ele><time>2026-05-01T08:23:25.816Z</time></trkpt><trkpt lat="42.3666038" lon="14.2874348"><ele>34.0</ele><time>2026-05-01T08:23:26.806Z</time></trkpt><trkpt lat="42.3666111" lon="14.2876323"><ele>34.0</ele><time>2026-05-01T08:23:27.81Z</time></trkpt><trkpt lat="42.3666409" lon="14.2878319"><ele>34.0</ele><time>2026-05-01T08:23:28.799Z</time></trkpt><trkpt lat="42.366683" lon="14.2880206"><ele>34.0</ele><time>2026-05-01T08:23:29.797Z</time></trkpt><trkpt lat="42.3667268" lon="14.2882114"><ele>34.0</ele><time>2026-05-01T08:23:30.805Z</time></trkpt><trkpt lat="42.3667762" lon="14.2884068"><ele>34.0</ele><time>2026-05-01T08:23:31.803Z</time></trkpt><trkpt lat="42.3668127" lon="14.2885595"><ele>34.0</ele><time>2026-05-01T08:23:32.802Z</time></trkpt><trkpt lat="42.366851" lon="14.2887014"><ele>34.0</ele><time>2026-05-01T08:23:33.807Z</time></trkpt><trkpt lat="42.366876" lon="14.2888572"><ele>34.0</ele><time>2026-05-01T08:23:34.799Z</time></trkpt><trkpt lat="42.3669027" lon="14.289022"><ele>33.75</ele><time>2026-05-01T08:23:35.804Z</time></trkpt><trkpt lat="42.3669202" lon="14.2892125"><ele>33.5</ele><time>2026-05-01T08:23:36.806Z</time></trkpt><trkpt lat="42.3669315" lon="14.2894192"><ele>33.25</ele><time>2026-05-01T08:23:37.808Z</time></trkpt><trkpt lat="42.3669373" lon="14.2896263"><ele>33.0</ele><time>2026-05-01T08:23:38.812Z</time></trkpt><trkpt lat="42.3669526" lon="14.2898245"><ele>33.0</ele><time>2026-05-01T08:23:39.805Z</time></trkpt><trkpt lat="42.3669713" lon="14.29002"><ele>33.0</ele><time>2026-05-01T08:23:40.803Z</time></trkpt><trkpt lat="42.366992" lon="14.290201"><ele>33.0</ele><time>2026-05-01T08:23:41.806Z</time></trkpt><trkpt lat="42.3670251" lon="14.2903472"><ele>33.0</ele><time>2026-05-01T08:23:42.796Z</time></trkpt><trkpt lat="42.367062" lon="14.2904657"><ele>32.8</ele><time>2026-05-01T08:23:43.798Z</time></trkpt><trkpt lat="42.3671218" lon="14.2905991"><ele>32.599999999999994</ele><time>2026-05-01T08:23:44.806Z</time></trkpt><trkpt lat="42.3671838" lon="14.2907151"><ele>32.400000000000006</ele><time>2026-05-01T08:23:45.803Z</time></trkpt><trkpt lat="42.3672531" lon="14.2908101"><ele>32.2</ele><time>2026-05-01T08:23:46.797Z</time></trkpt><trkpt lat="42.3673484" lon="14.290928"><ele>32.0</ele><time>2026-05-01T08:23:47.799Z</time></trkpt><trkpt lat="42.3674563" lon="14.2910583"><ele>32.5</ele><time>2026-05-01T08:23:48.807Z</time></trkpt><trkpt lat="42.367553" lon="14.2911813"><ele>33.0</ele><time>2026-05-01T08:23:49.792Z</time></trkpt><trkpt lat="42.3676457" lon="14.2913186"><ele>33.5</ele><time>2026-05-01T08:23:50.8Z</time></trkpt><trkpt lat="42.3677287" lon="14.2914606"><ele>34.0</ele><time>2026-05-01T08:23:51.802Z</time></trkpt><trkpt lat="42.3677995" lon="14.2916073"><ele>33.0</ele><time>2026-05-01T08:23:52.796Z</time></trkpt><trkpt lat="42.3678639" lon="14.2917357"><ele>32.0</ele><time>2026-05-01T08:23:53.806Z</time></trkpt><trkpt lat="42.367926" lon="14.2918617"><ele>31.0</ele><time>2026-05-01T08:23:54.811Z</time></trkpt><trkpt lat="42.367983" lon="14.2920069"><ele>30.0</ele><time>2026-05-01T08:23:55.793Z</time></trkpt><trkpt lat="42.3680324" lon="14.2921526"><ele>30.0</ele><time>2026-05-01T08:23:56.805Z</time></trkpt><trkpt lat="42.3680748" lon="14.2922983"><ele>30.0</ele><time>2026-05-01T08:23:57.803Z</time></trkpt><trkpt lat="42.3681075" lon="14.2924483"><ele>30.0</ele><time>2026-05-01T08:23:58.796Z</time></trkpt><trkpt lat="42.3681394" lon="14.2925863"><ele>30.0</ele><time>2026-05-01T08:23:59.806Z</time></trkpt><trkpt lat="42.3681687" lon="14.2927327"><ele>30.0</ele><time>2026-05-01T08:24:00.801Z</time></trkpt><trkpt lat="42.3682041" lon="14.2928904"><ele>30.0</ele><time>2026-05-01T08:24:01.811Z</time></trkpt><trkpt lat="42.3682464" lon="14.2930775"><ele>30.0</ele><time>2026-05-01T08:24:02.806Z</time></trkpt><trkpt lat="42.368288" lon="14.2932644"><ele>30.0</ele><time>2026-05-01T08:24:03.799Z</time></trkpt><trkpt lat="42.3683312" lon="14.2934335"><ele>30.0</ele><time>2026-05-01T08:24:04.802Z</time></trkpt><trkpt lat="42.3683681" lon="14.2935928"><ele>30.0</ele><time>2026-05-01T08:24:05.798Z</time></trkpt><trkpt lat="42.3683951" lon="14.2937299"><ele>30.0</ele><time>2026-05-01T08:24:06.817Z</time></trkpt><trkpt lat="42.3684152" lon="14.2938414"><ele>30.0</ele><time>2026-05-01T08:24:07.805Z</time></trkpt><trkpt lat="42.3684386" lon="14.2939335"><ele>30.0</ele><time>2026-05-01T08:24:08.801Z</time></trkpt><trkpt lat="42.368463" lon="14.2940168"><ele>29.833333333333332</ele><time>2026-05-01T08:24:09.794Z</time></trkpt><trkpt lat="42.3684768" lon="14.2941227"><ele>29.666666666666664</ele><time>2026-05-01T08:24:10.803Z</time></trkpt><trkpt lat="42.3684885" lon="14.2942419"><ele>29.5</ele><time>2026-05-01T08:24:11.812Z</time></trkpt><trkpt lat="42.3685005" lon="14.2943808"><ele>29.333333333333332</ele><time>2026-05-01T08:24:12.799Z</time></trkpt><trkpt lat="42.3685214" lon="14.2944985"><ele>29.166666666666664</ele><time>2026-05-01T08:24:13.804Z</time></trkpt><trkpt lat="42.3685442" lon="14.2946008"><ele>29.0</ele><time>2026-05-01T08:24:14.806Z</time></trkpt><trkpt lat="42.3685512" lon="14.2946894"><ele>29.0</ele><time>2026-05-01T08:24:15.814Z</time></trkpt><trkpt lat="42.3685487" lon="14.2948503"><ele>29.0</ele><time>2026-05-01T08:24:17.795Z</time></trkpt><trkpt lat="42.3685275" lon="14.2950001"><ele>29.0</ele><time>2026-05-01T08:24:19.808Z</time></trkpt><trkpt lat="42.3685155" lon="14.2951061"><ele>29.0</ele><time>2026-05-01T08:24:21.82Z</time></trkpt><trkpt lat="42.3685486" lon="14.2952359"><ele>29.0</ele><time>2026-05-01T08:24:24.814Z</time></trkpt><trkpt lat="42.3685725" lon="14.2953274"><ele>29.0</ele><time>2026-05-01T08:24:25.808Z</time></trkpt><trkpt lat="42.3686269" lon="14.2954472"><ele>29.0</ele><time>2026-05-01T08:24:26.797Z</time></trkpt><trkpt lat="42.3686861" lon="14.2955802"><ele>29.0</ele><time>2026-05-01T08:24:27.811Z</time></trkpt><trkpt lat="42.3687463" lon="14.2957401"><ele>29.0</ele><time>2026-05-01T08:24:28.81Z</time></trkpt><trkpt lat="42.368792" lon="14.2958775"><ele>29.0</ele><time>2026-05-01T08:24:29.8Z</time></trkpt><trkpt lat="42.3688516" lon="14.2960093"><ele>29.0</ele><time>2026-05-01T08:24:30.828Z</time></trkpt><trkpt lat="42.3689171" lon="14.2961549"><ele>29.0</ele><time>2026-05-01T08:24:31.795Z</time></trkpt><trkpt lat="42.3690035" lon="14.2963153"><ele>29.0</ele><time>2026-05-01T08:24:32.8Z</time></trkpt><trkpt lat="42.3690648" lon="14.2964542"><ele>29.166666666666664</ele><time>2026-05-01T08:24:33.802Z</time></trkpt><trkpt lat="42.3691002" lon="14.2965565"><ele>29.333333333333332</ele><time>2026-05-01T08:24:34.801Z</time></trkpt><trkpt lat="42.3691351" lon="14.2966351"><ele>29.5</ele><time>2026-05-01T08:24:35.816Z</time></trkpt><trkpt lat="42.3691864" lon="14.2967106"><ele>29.666666666666664</ele><time>2026-05-01T08:24:36.804Z</time></trkpt><trkpt lat="42.3692387" lon="14.2967969"><ele>29.833333333333332</ele><time>2026-05-01T08:24:37.801Z</time></trkpt><trkpt lat="42.3692869" lon="14.296905"><ele>30.0</ele><time>2026-05-01T08:24:38.8Z</time></trkpt><trkpt lat="42.3693381" lon="14.2970345"><ele>30.0</ele><time>2026-05-01T08:24:39.804Z</time></trkpt><trkpt lat="42.369405" lon="14.2971858"><ele>30.0</ele><time>2026-05-01T08:24:40.802Z</time></trkpt><trkpt lat="42.3694827" lon="14.2973337"><ele>30.0</ele><time>2026-05-01T08:24:41.834Z</time></trkpt><trkpt lat="42.3695556" lon="14.2975071"><ele>30.0</ele><time>2026-05-01T08:24:42.799Z</time></trkpt><trkpt lat="42.3696229" lon="14.2976602"><ele>30.0</ele><time>2026-05-01T08:24:43.8Z</time></trkpt><trkpt lat="42.3696893" lon="14.2978047"><ele>30.0</ele><time>2026-05-01T08:24:44.807Z</time></trkpt><trkpt lat="42.369743" lon="14.2979532"><ele>30.0</ele><time>2026-05-01T08:24:45.806Z</time></trkpt><trkpt lat="42.3698103" lon="14.2980869"><ele>30.0</ele><time>2026-05-01T08:24:46.845Z</time></trkpt><trkpt lat="42.3698791" lon="14.2981946"><ele>29.8</ele><time>2026-05-01T08:24:47.8Z</time></trkpt><trkpt lat="42.3699448" lon="14.2982912"><ele>29.6</ele><time>2026-05-01T08:24:48.807Z</time></trkpt><trkpt lat="42.3699989" lon="14.2983768"><ele>29.4</ele><time>2026-05-01T08:24:49.805Z</time></trkpt><trkpt lat="42.3700672" lon="14.298447"><ele>29.2</ele><time>2026-05-01T08:24:50.822Z</time></trkpt><trkpt lat="42.3701413" lon="14.2985274"><ele>29.0</ele><time>2026-05-01T08:24:51.801Z</time></trkpt><trkpt lat="42.3702293" lon="14.2986327"><ele>29.0</ele><time>2026-05-01T08:24:52.825Z</time></trkpt><trkpt lat="42.3703483" lon="14.2987355"><ele>29.0</ele><time>2026-05-01T08:24:53.804Z</time></trkpt><trkpt lat="42.3704879" lon="14.2988645"><ele>29.0</ele><time>2026-05-01T08:24:54.802Z</time></trkpt><trkpt lat="42.3706371" lon="14.2990125"><ele>28.5</ele><time>2026-05-01T08:24:55.804Z</time></trkpt><trkpt lat="42.3707621" lon="14.2991639"><ele>28.0</ele><time>2026-05-01T08:24:56.798Z</time></trkpt><trkpt lat="42.3708795" lon="14.2992864"><ele>27.5</ele><time>2026-05-01T08:24:57.806Z</time></trkpt><trkpt lat="42.3709804" lon="14.2993725"><ele>27.0</ele><time>2026-05-01T08:24:58.808Z</time></trkpt><trkpt lat="42.3710734" lon="14.2994212"><ele>27.0</ele><time>2026-05-01T08:24:59.799Z</time></trkpt><trkpt lat="42.3711581" lon="14.2994453"><ele>27.000000000000004</ele><time>2026-05-01T08:25:00.799Z</time></trkpt><trkpt lat="42.37125" lon="14.2994551"><ele>27.000000000000004</ele><time>2026-05-01T08:25:01.809Z</time></trkpt><trkpt lat="42.3713424" lon="14.299457"><ele>27.0</ele><time>2026-05-01T08:25:02.804Z</time></trkpt><trkpt lat="42.3714583" lon="14.2994386"><ele>27.0</ele><time>2026-05-01T08:25:03.801Z</time></trkpt><trkpt lat="42.37159" lon="14.2994252"><ele>26.8</ele><time>2026-05-01T08:25:04.801Z</time></trkpt><trkpt lat="42.371721" lon="14.2994282"><ele>26.6</ele><time>2026-05-01T08:25:05.796Z</time></trkpt><trkpt lat="42.371846" lon="14.2994366"><ele>26.400000000000002</ele><time>2026-05-01T08:25:06.806Z</time></trkpt><trkpt lat="42.3719412" lon="14.2994689"><ele>26.200000000000003</ele><time>2026-05-01T08:25:07.8Z</time></trkpt><trkpt lat="42.3720214" lon="14.2995168"><ele>26.0</ele><time>2026-05-01T08:25:08.809Z</time></trkpt><trkpt lat="42.3720856" lon="14.2995804"><ele>26.0</ele><time>2026-05-01T08:25:09.798Z</time></trkpt><trkpt lat="42.3721462" lon="14.299669"><ele>26.0</ele><time>2026-05-01T08:25:10.798Z</time></trkpt><trkpt lat="42.3722059" lon="14.2997633"><ele>26.0</ele><time>2026-05-01T08:25:11.807Z</time></trkpt><trkpt lat="42.3722668" lon="14.2998741"><ele>26.0</ele><time>2026-05-01T08:25:12.808Z</time></trkpt><trkpt lat="42.3723304" lon="14.3000125"><ele>26.0</ele><time>2026-05-01T08:25:13.808Z</time></trkpt><trkpt lat="42.3723944" lon="14.3001612"><ele>25.75</ele><time>2026-05-01T08:25:14.808Z</time></trkpt><trkpt lat="42.3724628" lon="14.3003316"><ele>25.5</ele><time>2026-05-01T08:25:15.799Z</time></trkpt><trkpt lat="42.3725411" lon="14.3005123"><ele>25.25</ele><time>2026-05-01T08:25:16.803Z</time></trkpt><trkpt lat="42.3726099" lon="14.3006616"><ele>25.0</ele><time>2026-05-01T08:25:17.803Z</time></trkpt><trkpt lat="42.3726775" lon="14.3007906"><ele>24.666666666666668</ele><time>2026-05-01T08:25:18.795Z</time></trkpt><trkpt lat="42.3727454" lon="14.3008905"><ele>24.333333333333336</ele><time>2026-05-01T08:25:19.82Z</time></trkpt><trkpt lat="42.3728189" lon="14.3009553"><ele>24.0</ele><time>2026-05-01T08:25:20.802Z</time></trkpt><trkpt lat="42.3728987" lon="14.3009911"><ele>23.666666666666668</ele><time>2026-05-01T08:25:21.805Z</time></trkpt><trkpt lat="42.3729834" lon="14.3010063"><ele>23.333333333333336</ele><time>2026-05-01T08:25:22.798Z</time></trkpt><trkpt lat="42.3730579" lon="14.301027"><ele>23.0</ele><time>2026-05-01T08:25:23.804Z</time></trkpt><trkpt lat="42.3731315" lon="14.3010397"><ele>23.0</ele><time>2026-05-01T08:25:24.796Z</time></trkpt><trkpt lat="42.3732138" lon="14.3010396"><ele>23.0</ele><time>2026-05-01T08:25:25.8Z</time></trkpt><trkpt lat="42.3733127" lon="14.3010169"><ele>23.0</ele><time>2026-05-01T08:25:26.804Z</time></trkpt><trkpt lat="42.3734381" lon="14.3009623"><ele>23.0</ele><time>2026-05-01T08:25:27.794Z</time></trkpt><trkpt lat="42.3735707" lon="14.3008961"><ele>23.0</ele><time>2026-05-01T08:25:28.805Z</time></trkpt><trkpt lat="42.3737003" lon="14.3008291"><ele>23.0</ele><time>2026-05-01T08:25:29.799Z</time></trkpt><trkpt lat="42.3738194" lon="14.3007644"><ele>23.0</ele><time>2026-05-01T08:25:30.806Z</time></trkpt><trkpt lat="42.373944" lon="14.3007008"><ele>23.0</ele><time>2026-05-01T08:25:31.811Z</time></trkpt><trkpt lat="42.3740819" lon="14.3006304"><ele>22.5</ele><time>2026-05-01T08:25:32.812Z</time></trkpt><trkpt lat="42.3742308" lon="14.3005563"><ele>22.0</ele><time>2026-05-01T08:25:33.795Z</time></trkpt><trkpt lat="42.3743535" lon="14.3004958"><ele>21.5</ele><time>2026-05-01T08:25:34.827Z</time></trkpt><trkpt lat="42.3744521" lon="14.3004686"><ele>21.0</ele><time>2026-05-01T08:25:35.807Z</time></trkpt><trkpt lat="42.3745495" lon="14.3004699"><ele>21.0</ele><time>2026-05-01T08:25:36.816Z</time></trkpt><trkpt lat="42.3746433" lon="14.3005017"><ele>21.0</ele><time>2026-05-01T08:25:37.801Z</time></trkpt><trkpt lat="42.3747453" lon="14.3005588"><ele>21.0</ele><time>2026-05-01T08:25:38.801Z</time></trkpt><trkpt lat="42.3748359" lon="14.30065"><ele>21.0</ele><time>2026-05-01T08:25:39.815Z</time></trkpt><trkpt lat="42.3749048" lon="14.3007788"><ele>21.0</ele><time>2026-05-01T08:25:40.807Z</time></trkpt><trkpt lat="42.3749421" lon="14.3009268"><ele>21.0</ele><time>2026-05-01T08:25:41.808Z</time></trkpt><trkpt lat="42.3749474" lon="14.3011148"><ele>21.0</ele><time>2026-05-01T08:25:42.801Z</time></trkpt><trkpt lat="42.374936" lon="14.3013165"><ele>21.0</ele><time>2026-05-01T08:25:43.808Z</time></trkpt><trkpt lat="42.3749268" lon="14.3015152"><ele>21.0</ele><time>2026-05-01T08:25:44.806Z</time></trkpt><trkpt lat="42.3749151" lon="14.3016804"><ele>21.0</ele><time>2026-05-01T08:25:45.807Z</time></trkpt><trkpt lat="42.3749067" lon="14.3018098"><ele>21.0</ele><time>2026-05-01T08:25:46.805Z</time></trkpt><trkpt lat="42.3749048" lon="14.3019379"><ele>21.0</ele><time>2026-05-01T08:25:47.795Z</time></trkpt><trkpt lat="42.3749096" lon="14.3020875"><ele>21.0</ele><time>2026-05-01T08:25:48.803Z</time></trkpt><trkpt lat="42.3749361" lon="14.3022368"><ele>21.0</ele><time>2026-05-01T08:25:49.801Z</time></trkpt><trkpt lat="42.3749657" lon="14.3023509"><ele>21.6</ele><time>2026-05-01T08:25:50.806Z</time></trkpt><trkpt lat="42.3749961" lon="14.3024268"><ele>22.200000000000003</ele><time>2026-05-01T08:25:51.799Z</time></trkpt><trkpt lat="42.3750365" lon="14.3025074"><ele>22.799999999999997</ele><time>2026-05-01T08:25:52.806Z</time></trkpt><trkpt lat="42.3750997" lon="14.3025995"><ele>23.4</ele><time>2026-05-01T08:25:53.806Z</time></trkpt><trkpt lat="42.3751814" lon="14.3027031"><ele>24.0</ele><time>2026-05-01T08:25:54.799Z</time></trkpt><trkpt lat="42.3752705" lon="14.302798"><ele>24.0</ele><time>2026-05-01T08:25:55.807Z</time></trkpt><trkpt lat="42.3753817" lon="14.3028864"><ele>24.0</ele><time>2026-05-01T08:25:56.798Z</time></trkpt><trkpt lat="42.3755211" lon="14.302986"><ele>24.0</ele><time>2026-05-01T08:25:57.83Z</time></trkpt><trkpt lat="42.3756547" lon="14.3030625"><ele>24.0</ele><time>2026-05-01T08:25:58.799Z</time></trkpt><trkpt lat="42.3757854" lon="14.3031392"><ele>23.6</ele><time>2026-05-01T08:25:59.795Z</time></trkpt><trkpt lat="42.3758972" lon="14.303206"><ele>23.2</ele><time>2026-05-01T08:26:00.809Z</time></trkpt><trkpt lat="42.3759875" lon="14.3032832"><ele>22.8</ele><time>2026-05-01T08:26:01.803Z</time></trkpt><trkpt lat="42.3760747" lon="14.3033628"><ele>22.400000000000002</ele><time>2026-05-01T08:26:02.815Z</time></trkpt><trkpt lat="42.3761427" lon="14.3034018"><ele>22.0</ele><time>2026-05-01T08:26:03.799Z</time></trkpt><trkpt lat="42.3762341" lon="14.303372"><ele>22.0</ele><time>2026-05-01T08:26:05.831Z</time></trkpt><trkpt lat="42.376273" lon="14.3032139"><ele>22.0</ele><time>2026-05-01T08:26:07.806Z</time></trkpt><trkpt lat="42.3762806" lon="14.3031281"><ele>22.0</ele><time>2026-05-01T08:26:08.805Z</time></trkpt><trkpt lat="42.376295" lon="14.303016"><ele>22.0</ele><time>2026-05-01T08:26:10.806Z</time></trkpt><trkpt lat="42.3762632" lon="14.3032212"><ele>22.0</ele><time>2026-05-01T08:26:28.796Z</time></trkpt><trkpt lat="42.3762329" lon="14.3033178"><ele>22.0</ele><time>2026-05-01T08:26:30.807Z</time></trkpt><trkpt lat="42.3762518" lon="14.3034211"><ele>22.0</ele><time>2026-05-01T08:26:39.794Z</time></trkpt><trkpt lat="42.3763331" lon="14.3034323"><ele>22.0</ele><time>2026-05-01T08:26:42.794Z</time></trkpt><trkpt lat="42.376608" lon="14.303372"><ele>22.0</ele><time>2026-05-01T08:26:46.805Z</time></trkpt><trkpt lat="42.3766822" lon="14.3033911"><ele>21.833333333333332</ele><time>2026-05-01T08:26:47.799Z</time></trkpt><trkpt lat="42.3767479" lon="14.3034119"><ele>21.666666666666664</ele><time>2026-05-01T08:26:48.8Z</time></trkpt><trkpt lat="42.3768624" lon="14.3034262"><ele>21.5</ele><time>2026-05-01T08:26:50.801Z</time></trkpt><trkpt lat="42.3769293" lon="14.3034319"><ele>21.333333333333332</ele><time>2026-05-01T08:26:51.815Z</time></trkpt><trkpt lat="42.3770357" lon="14.3034672"><ele>21.166666666666668</ele><time>2026-05-01T08:26:53.792Z</time></trkpt><trkpt lat="42.3769488" lon="14.3034427"><ele>21.0</ele><time>2026-05-01T08:27:01.793Z</time></trkpt><trkpt lat="42.3768474" lon="14.3034367"><ele>21.0</ele><time>2026-05-01T08:27:02.799Z</time></trkpt><trkpt lat="42.3767632" lon="14.3034186"><ele>21.0</ele><time>2026-05-01T08:27:03.791Z</time></trkpt><trkpt lat="42.3766929" lon="14.3034063"><ele>21.0</ele><time>2026-05-01T08:27:04.804Z</time></trkpt><trkpt lat="42.3766234" lon="14.303388"><ele>21.0</ele><time>2026-05-01T08:27:05.796Z</time></trkpt><trkpt lat="42.3765518" lon="14.3033785"><ele>21.0</ele><time>2026-05-01T08:27:06.802Z</time></trkpt><trkpt lat="42.376468" lon="14.3033888"><ele>21.0</ele><time>2026-05-01T08:27:07.804Z</time></trkpt><trkpt lat="42.3763752" lon="14.303408"><ele>21.0</ele><time>2026-05-01T08:27:08.812Z</time></trkpt><trkpt lat="42.3762976" lon="14.3034132"><ele>21.0</ele><time>2026-05-01T08:27:09.805Z</time></trkpt><trkpt lat="42.3762445" lon="14.3033654"><ele>21.0</ele><time>2026-05-01T08:27:11.805Z</time></trkpt><trkpt lat="42.3762615" lon="14.3032248"><ele>21.0</ele><time>2026-05-01T08:27:13.817Z</time></trkpt><trkpt lat="42.3762909" lon="14.3030828"><ele>21.0</ele><time>2026-05-01T08:27:14.808Z</time></trkpt><trkpt lat="42.376318" lon="14.3028228"><ele>21.0</ele><time>2026-05-01T08:27:16.833Z</time></trkpt><trkpt lat="42.3762885" lon="14.3026984"><ele>21.0</ele><time>2026-05-01T08:27:18.808Z</time></trkpt><trkpt lat="42.3762229" lon="14.3026679"><ele>21.0</ele><time>2026-05-01T08:27:19.814Z</time></trkpt><trkpt lat="42.3761282" lon="14.3026546"><ele>21.0</ele><time>2026-05-01T08:27:20.806Z</time></trkpt><trkpt lat="42.3760092" lon="14.3026625"><ele>21.0</ele><time>2026-05-01T08:27:21.806Z</time></trkpt><trkpt lat="42.3759041" lon="14.3026694"><ele>21.0</ele><time>2026-05-01T08:27:22.808Z</time></trkpt><trkpt lat="42.375801" lon="14.302624"><ele>21.0</ele><time>2026-05-01T08:27:24.822Z</time></trkpt><trkpt lat="42.3758238" lon="14.3024944"><ele>21.0</ele><time>2026-05-01T08:27:30.827Z</time></trkpt><trkpt lat="42.3758354" lon="14.3023992"><ele>21.0</ele><time>2026-05-01T08:27:31.808Z</time></trkpt><trkpt lat="42.3758891" lon="14.3021393"><ele>22.0</ele><time>2026-05-01T08:27:33.824Z</time></trkpt><trkpt lat="42.3759165" lon="14.3019896"><ele>23.0</ele><time>2026-05-01T08:27:34.814Z</time></trkpt><trkpt lat="42.3759453" lon="14.3018473"><ele>24.0</ele><time>2026-05-01T08:27:35.836Z</time></trkpt><trkpt lat="42.3759829" lon="14.3017044"><ele>25.0</ele><time>2026-05-01T08:27:36.807Z</time></trkpt><trkpt lat="42.3760372" lon="14.301538"><ele>26.333333333333336</ele><time>2026-05-01T08:27:37.813Z</time></trkpt><trkpt lat="42.3761064" lon="14.3013549"><ele>27.666666666666664</ele><time>2026-05-01T08:27:38.808Z</time></trkpt><trkpt lat="42.3761765" lon="14.3011653"><ele>29.0</ele><time>2026-05-01T08:27:39.806Z</time></trkpt><trkpt lat="42.37625" lon="14.3009705"><ele>29.0</ele><time>2026-05-01T08:27:40.811Z</time></trkpt><trkpt lat="42.3763214" lon="14.3007777"><ele>29.0</ele><time>2026-05-01T08:27:41.823Z</time></trkpt><trkpt lat="42.3763797" lon="14.3006107"><ele>29.0</ele><time>2026-05-01T08:27:42.798Z</time></trkpt><trkpt lat="42.3764243" lon="14.3004778"><ele>29.0</ele><time>2026-05-01T08:27:43.805Z</time></trkpt><trkpt lat="42.3764599" lon="14.3004024"><ele>29.5</ele><time>2026-05-01T08:27:44.801Z</time></trkpt><trkpt lat="42.3765169" lon="14.300329"><ele>30.0</ele><time>2026-05-01T08:27:47.809Z</time></trkpt><trkpt lat="42.3766294" lon="14.300422"><ele>30.5</ele><time>2026-05-01T08:27:49.802Z</time></trkpt><trkpt lat="42.3767162" lon="14.3005264"><ele>31.0</ele><time>2026-05-01T08:27:50.808Z</time></trkpt><trkpt lat="42.3768073" lon="14.3006499"><ele>31.0</ele><time>2026-05-01T08:27:51.807Z</time></trkpt><trkpt lat="42.3769348" lon="14.3007708"><ele>31.0</ele><time>2026-05-01T08:27:52.822Z</time></trkpt><trkpt lat="42.3770743" lon="14.3008947"><ele>31.0</ele><time>2026-05-01T08:27:53.8Z</time></trkpt><trkpt lat="42.3772366" lon="14.3009948"><ele>30.666666666666668</ele><time>2026-05-01T08:27:54.798Z</time></trkpt><trkpt lat="42.3774099" lon="14.3010733"><ele>30.333333333333336</ele><time>2026-05-01T08:27:55.808Z</time></trkpt><trkpt lat="42.3775872" lon="14.3011367"><ele>30.0</ele><time>2026-05-01T08:27:56.802Z</time></trkpt><trkpt lat="42.3777736" lon="14.3011921"><ele>30.0</ele><time>2026-05-01T08:27:57.809Z</time></trkpt><trkpt lat="42.3779649" lon="14.3012473"><ele>30.0</ele><time>2026-05-01T08:27:58.804Z</time></trkpt><trkpt lat="42.3781565" lon="14.3013046"><ele>30.0</ele><time>2026-05-01T08:27:59.795Z</time></trkpt><trkpt lat="42.3783477" lon="14.3013655"><ele>29.0</ele><time>2026-05-01T08:28:00.809Z</time></trkpt><trkpt lat="42.3785379" lon="14.3014283"><ele>28.0</ele><time>2026-05-01T08:28:01.804Z</time></trkpt><trkpt lat="42.3787223" lon="14.3014841"><ele>27.0</ele><time>2026-05-01T08:28:02.836Z</time></trkpt><trkpt lat="42.3789041" lon="14.3015411"><ele>26.666666666666664</ele><time>2026-05-01T08:28:03.801Z</time></trkpt><trkpt lat="42.3790898" lon="14.301599"><ele>26.333333333333332</ele><time>2026-05-01T08:28:04.803Z</time></trkpt><trkpt lat="42.3792749" lon="14.3016562"><ele>26.0</ele><time>2026-05-01T08:28:05.807Z</time></trkpt><trkpt lat="42.3794621" lon="14.3017017"><ele>26.0</ele><time>2026-05-01T08:28:06.809Z</time></trkpt><trkpt lat="42.3796378" lon="14.3017476"><ele>26.0</ele><time>2026-05-01T08:28:07.793Z</time></trkpt><trkpt lat="42.3798012" lon="14.3017953"><ele>26.0</ele><time>2026-05-01T08:28:08.813Z</time></trkpt><trkpt lat="42.379961" lon="14.3018544"><ele>26.0</ele><time>2026-05-01T08:28:09.801Z</time></trkpt><trkpt lat="42.3801252" lon="14.3019065"><ele>26.0</ele><time>2026-05-01T08:28:10.809Z</time></trkpt><trkpt lat="42.38029" lon="14.301964"><ele>26.0</ele><time>2026-05-01T08:28:11.806Z</time></trkpt><trkpt lat="42.3804602" lon="14.3020149"><ele>25.666666666666664</ele><time>2026-05-01T08:28:12.804Z</time></trkpt><trkpt lat="42.3806327" lon="14.3020617"><ele>25.333333333333336</ele><time>2026-05-01T08:28:13.801Z</time></trkpt><trkpt lat="42.380806" lon="14.302111"><ele>25.0</ele><time>2026-05-01T08:28:14.806Z</time></trkpt><trkpt lat="42.380981" lon="14.3021624"><ele>25.0</ele><time>2026-05-01T08:28:15.802Z</time></trkpt><trkpt lat="42.381151" lon="14.3022166"><ele>25.0</ele><time>2026-05-01T08:28:16.813Z</time></trkpt><trkpt lat="42.3813203" lon="14.3022767"><ele>25.0</ele><time>2026-05-01T08:28:17.809Z</time></trkpt><trkpt lat="42.3814906" lon="14.3023465"><ele>24.0</ele><time>2026-05-01T08:28:18.808Z</time></trkpt><trkpt lat="42.3816602" lon="14.302424"><ele>23.0</ele><time>2026-05-01T08:28:19.804Z</time></trkpt><trkpt lat="42.3818094" lon="14.3025052"><ele>22.0</ele><time>2026-05-01T08:28:20.806Z</time></trkpt><trkpt lat="42.3819486" lon="14.3025917"><ele>22.0</ele><time>2026-05-01T08:28:21.812Z</time></trkpt><trkpt lat="42.3820719" lon="14.3026649"><ele>22.0</ele><time>2026-05-01T08:28:22.8Z</time></trkpt><trkpt lat="42.3821742" lon="14.3027305"><ele>22.0</ele><time>2026-05-01T08:28:23.809Z</time></trkpt><trkpt lat="42.3822672" lon="14.3027963"><ele>22.0</ele><time>2026-05-01T08:28:24.805Z</time></trkpt><trkpt lat="42.3823592" lon="14.3028623"><ele>22.0</ele><time>2026-05-01T08:28:25.808Z</time></trkpt><trkpt lat="42.38244" lon="14.3029304"><ele>22.0</ele><time>2026-05-01T08:28:26.807Z</time></trkpt><trkpt lat="42.3824968" lon="14.3029971"><ele>22.0</ele><time>2026-05-01T08:28:27.811Z</time></trkpt><trkpt lat="42.3825252" lon="14.3030807"><ele>22.0</ele><time>2026-05-01T08:28:28.814Z</time></trkpt><trkpt lat="42.3825386" lon="14.3031773"><ele>22.0</ele><time>2026-05-01T08:28:29.797Z</time></trkpt><trkpt lat="42.3825277" lon="14.3032961"><ele>22.0</ele><time>2026-05-01T08:28:30.807Z</time></trkpt><trkpt lat="42.382494" lon="14.3034437"><ele>22.0</ele><time>2026-05-01T08:28:31.799Z</time></trkpt><trkpt lat="42.3824642" lon="14.3036071"><ele>22.0</ele><time>2026-05-01T08:28:32.817Z</time></trkpt><trkpt lat="42.3824329" lon="14.3037835"><ele>22.0</ele><time>2026-05-01T08:28:33.802Z</time></trkpt><trkpt lat="42.3824003" lon="14.3039927"><ele>22.0</ele><time>2026-05-01T08:28:34.809Z</time></trkpt><trkpt lat="42.3823684" lon="14.3042046"><ele>21.666666666666664</ele><time>2026-05-01T08:28:35.804Z</time></trkpt><trkpt lat="42.3823414" lon="14.3044244"><ele>21.333333333333332</ele><time>2026-05-01T08:28:36.8Z</time></trkpt><trkpt lat="42.3823217" lon="14.3046565"><ele>21.0</ele><time>2026-05-01T08:28:37.817Z</time></trkpt><trkpt lat="42.3822957" lon="14.3048907"><ele>20.333333333333332</ele><time>2026-05-01T08:28:38.803Z</time></trkpt><trkpt lat="42.3822662" lon="14.3051278"><ele>19.666666666666664</ele><time>2026-05-01T08:28:39.803Z</time></trkpt><trkpt lat="42.3822404" lon="14.3053646"><ele>19.0</ele><time>2026-05-01T08:28:40.81Z</time></trkpt><trkpt lat="42.3822134" lon="14.3055764"><ele>19.0</ele><time>2026-05-01T08:28:41.801Z</time></trkpt><trkpt lat="42.382185" lon="14.3057724"><ele>19.0</ele><time>2026-05-01T08:28:42.822Z</time></trkpt><trkpt lat="42.3821604" lon="14.3059483"><ele>19.0</ele><time>2026-05-01T08:28:43.807Z</time></trkpt><trkpt lat="42.3821313" lon="14.3060865"><ele>19.0</ele><time>2026-05-01T08:28:44.806Z</time></trkpt><trkpt lat="42.3820988" lon="14.3061922"><ele>18.8</ele><time>2026-05-01T08:28:45.796Z</time></trkpt><trkpt lat="42.3820728" lon="14.3062765"><ele>18.599999999999998</ele><time>2026-05-01T08:28:46.805Z</time></trkpt><trkpt lat="42.3820625" lon="14.3064172"><ele>18.4</ele><time>2026-05-01T08:28:48.807Z</time></trkpt><trkpt lat="42.3821" lon="14.3065073"><ele>18.2</ele><time>2026-05-01T08:28:49.787Z</time></trkpt><trkpt lat="42.3821643" lon="14.3066067"><ele>18.0</ele><time>2026-05-01T08:28:50.808Z</time></trkpt><trkpt lat="42.382246" lon="14.306719"><ele>17.75</ele><time>2026-05-01T08:28:51.805Z</time></trkpt><trkpt lat="42.3823313" lon="14.3068593"><ele>17.5</ele><time>2026-05-01T08:28:52.808Z</time></trkpt><trkpt lat="42.382407" lon="14.3070327"><ele>17.25</ele><time>2026-05-01T08:28:53.809Z</time></trkpt><trkpt lat="42.3824861" lon="14.3072065"><ele>17.0</ele><time>2026-05-01T08:28:54.804Z</time></trkpt><trkpt lat="42.3825725" lon="14.3073947"><ele>16.666666666666668</ele><time>2026-05-01T08:28:55.807Z</time></trkpt><trkpt lat="42.3826663" lon="14.3075902"><ele>16.333333333333332</ele><time>2026-05-01T08:28:56.808Z</time></trkpt><trkpt lat="42.3827603" lon="14.3077978"><ele>16.0</ele><time>2026-05-01T08:28:57.802Z</time></trkpt><trkpt lat="42.3828571" lon="14.3080147"><ele>16.0</ele><time>2026-05-01T08:28:58.811Z</time></trkpt><trkpt lat="42.3829581" lon="14.3082415"><ele>16.0</ele><time>2026-05-01T08:28:59.805Z</time></trkpt><trkpt lat="42.3830604" lon="14.3084711"><ele>16.0</ele><time>2026-05-01T08:29:00.8Z</time></trkpt><trkpt lat="42.3831664" lon="14.3087052"><ele>15.333333333333332</ele><time>2026-05-01T08:29:01.802Z</time></trkpt><trkpt lat="42.3832744" lon="14.3089419"><ele>14.666666666666668</ele><time>2026-05-01T08:29:02.806Z</time></trkpt><trkpt lat="42.3833869" lon="14.3091839"><ele>14.0</ele><time>2026-05-01T08:29:03.805Z</time></trkpt><trkpt lat="42.3835005" lon="14.3094318"><ele>14.0</ele><time>2026-05-01T08:29:04.808Z</time></trkpt><trkpt lat="42.3836088" lon="14.309677"><ele>14.0</ele><time>2026-05-01T08:29:05.792Z</time></trkpt><trkpt lat="42.3837178" lon="14.309923"><ele>14.0</ele><time>2026-05-01T08:29:06.854Z</time></trkpt><trkpt lat="42.3838244" lon="14.3101658"><ele>14.333333333333334</ele><time>2026-05-01T08:29:07.815Z</time></trkpt><trkpt lat="42.3839331" lon="14.3103884"><ele>14.666666666666668</ele><time>2026-05-01T08:29:08.802Z</time></trkpt><trkpt lat="42.3840532" lon="14.3105652"><ele>15.0</ele><time>2026-05-01T08:29:09.809Z</time></trkpt><trkpt lat="42.3841939" lon="14.3107072"><ele>15.0</ele><time>2026-05-01T08:29:10.801Z</time></trkpt><trkpt lat="42.3843588" lon="14.3108249"><ele>15.0</ele><time>2026-05-01T08:29:11.816Z</time></trkpt><trkpt lat="42.3845448" lon="14.3109233"><ele>15.0</ele><time>2026-05-01T08:29:12.807Z</time></trkpt><trkpt lat="42.3847358" lon="14.3110218"><ele>14.666666666666668</ele><time>2026-05-01T08:29:13.796Z</time></trkpt><trkpt lat="42.3849311" lon="14.3111238"><ele>14.333333333333334</ele><time>2026-05-01T08:29:14.797Z</time></trkpt><trkpt lat="42.3851299" lon="14.3112331"><ele>14.0</ele><time>2026-05-01T08:29:15.801Z</time></trkpt><trkpt lat="42.3853376" lon="14.3113428"><ele>14.0</ele><time>2026-05-01T08:29:16.8Z</time></trkpt><trkpt lat="42.3855491" lon="14.3114538"><ele>14.0</ele><time>2026-05-01T08:29:17.803Z</time></trkpt><trkpt lat="42.3857578" lon="14.31156"><ele>14.0</ele><time>2026-05-01T08:29:18.801Z</time></trkpt><trkpt lat="42.3859454" lon="14.3116535"><ele>14.0</ele><time>2026-05-01T08:29:19.802Z</time></trkpt><trkpt lat="42.3861142" lon="14.3117411"><ele>14.0</ele><time>2026-05-01T08:29:20.817Z</time></trkpt><trkpt lat="42.3862428" lon="14.3118085"><ele>14.0</ele><time>2026-05-01T08:29:21.806Z</time></trkpt><trkpt lat="42.3863479" lon="14.311865"><ele>13.999999999999998</ele><time>2026-05-01T08:29:22.797Z</time></trkpt><trkpt lat="42.3864162" lon="14.3119236"><ele>13.999999999999998</ele><time>2026-05-01T08:29:23.798Z</time></trkpt><trkpt lat="42.3864139" lon="14.3120621"><ele>14.0</ele><time>2026-05-01T08:29:25.801Z</time></trkpt><trkpt lat="42.3863999" lon="14.3121902"><ele>14.0</ele><time>2026-05-01T08:29:26.802Z</time></trkpt><trkpt lat="42.38636" lon="14.3123426"><ele>13.75</ele><time>2026-05-01T08:29:27.808Z</time></trkpt><trkpt lat="42.3863257" lon="14.3125079"><ele>13.5</ele><time>2026-05-01T08:29:28.803Z</time></trkpt><trkpt lat="42.3862902" lon="14.3126789"><ele>13.25</ele><time>2026-05-01T08:29:29.8Z</time></trkpt><trkpt lat="42.3862505" lon="14.3128519"><ele>13.0</ele><time>2026-05-01T08:29:30.805Z</time></trkpt><trkpt lat="42.3862049" lon="14.3130438"><ele>13.0</ele><time>2026-05-01T08:29:31.796Z</time></trkpt><trkpt lat="42.3861541" lon="14.3132484"><ele>13.0</ele><time>2026-05-01T08:29:32.802Z</time></trkpt><trkpt lat="42.3861072" lon="14.313456"><ele>13.0</ele><time>2026-05-01T08:29:33.811Z</time></trkpt><trkpt lat="42.3860551" lon="14.3136678"><ele>13.0</ele><time>2026-05-01T08:29:34.803Z</time></trkpt><trkpt lat="42.3860103" lon="14.3138792"><ele>13.0</ele><time>2026-05-01T08:29:35.795Z</time></trkpt><trkpt lat="42.3859578" lon="14.314093"><ele>13.0</ele><time>2026-05-01T08:29:36.825Z</time></trkpt><trkpt lat="42.385903" lon="14.3143177"><ele>13.0</ele><time>2026-05-01T08:29:37.817Z</time></trkpt><trkpt lat="42.3858524" lon="14.3145375"><ele>13.0</ele><time>2026-05-01T08:29:38.837Z</time></trkpt><trkpt lat="42.3858033" lon="14.3147653"><ele>13.0</ele><time>2026-05-01T08:29:39.807Z</time></trkpt><trkpt lat="42.385751" lon="14.3150059"><ele>12.25</ele><time>2026-05-01T08:29:40.822Z</time></trkpt><trkpt lat="42.3856937" lon="14.3152396"><ele>11.5</ele><time>2026-05-01T08:29:41.806Z</time></trkpt><trkpt lat="42.3856496" lon="14.3154316"><ele>10.75</ele><time>2026-05-01T08:29:42.823Z</time></trkpt><trkpt lat="42.385623" lon="14.3155823"><ele>10.0</ele><time>2026-05-01T08:29:43.797Z</time></trkpt><trkpt lat="42.3855873" lon="14.3157226"><ele>9.6</ele><time>2026-05-01T08:29:44.81Z</time></trkpt><trkpt lat="42.3855667" lon="14.3158437"><ele>9.2</ele><time>2026-05-01T08:29:45.802Z</time></trkpt><trkpt lat="42.3855365" lon="14.3159734"><ele>8.8</ele><time>2026-05-01T08:29:47.804Z</time></trkpt><trkpt lat="42.3855251" lon="14.3160636"><ele>8.4</ele><time>2026-05-01T08:29:49.807Z</time></trkpt><trkpt lat="42.3856286" lon="14.3161193"><ele>8.0</ele><time>2026-05-01T08:29:51.801Z</time></trkpt><trkpt lat="42.3857224" lon="14.3161612"><ele>8.0</ele><time>2026-05-01T08:29:52.804Z</time></trkpt><trkpt lat="42.3858203" lon="14.3162138"><ele>8.0</ele><time>2026-05-01T08:29:53.82Z</time></trkpt><trkpt lat="42.385895" lon="14.3162636"><ele>8.0</ele><time>2026-05-01T08:29:54.811Z</time></trkpt><trkpt lat="42.3859414" lon="14.3163348"><ele>8.0</ele><time>2026-05-01T08:29:56.807Z</time></trkpt><trkpt lat="42.3859082" lon="14.3164834"><ele>8.0</ele><time>2026-05-01T08:29:58.806Z</time></trkpt><trkpt lat="42.3858721" lon="14.3166016"><ele>7.800000000000001</ele><time>2026-05-01T08:29:59.79Z</time></trkpt><trkpt lat="42.3858316" lon="14.3167465"><ele>7.6000000000000005</ele><time>2026-05-01T08:30:00.804Z</time></trkpt><trkpt lat="42.3857831" lon="14.3168804"><ele>7.3999999999999995</ele><time>2026-05-01T08:30:01.819Z</time></trkpt><trkpt lat="42.3857398" lon="14.3170103"><ele>7.199999999999999</ele><time>2026-05-01T08:30:02.809Z</time></trkpt><trkpt lat="42.3857056" lon="14.3171139"><ele>7.0</ele><time>2026-05-01T08:30:03.801Z</time></trkpt><trkpt lat="42.3856776" lon="14.3171963"><ele>7.142857142857142</ele><time>2026-05-01T08:30:04.802Z</time></trkpt><trkpt lat="42.3856462" lon="14.3172791"><ele>7.285714285714286</ele><time>2026-05-01T08:30:05.817Z</time></trkpt><trkpt lat="42.385615" lon="14.3173668"><ele>7.428571428571429</ele><time>2026-05-01T08:30:06.801Z</time></trkpt><trkpt lat="42.3855796" lon="14.3174536"><ele>7.571428571428571</ele><time>2026-05-01T08:30:07.818Z</time></trkpt><trkpt lat="42.3855562" lon="14.3175348"><ele>7.7142857142857135</ele><time>2026-05-01T08:30:08.817Z</time></trkpt><trkpt lat="42.3855281" lon="14.3176183"><ele>7.857142857142857</ele><time>2026-05-01T08:30:09.816Z</time></trkpt><trkpt lat="42.3854939" lon="14.3177226"><ele>8.0</ele><time>2026-05-01T08:30:10.802Z</time></trkpt><trkpt lat="42.3854567" lon="14.3178208"><ele>7.999999999999999</ele><time>2026-05-01T08:30:11.802Z</time></trkpt><trkpt lat="42.3854257" lon="14.3178992"><ele>8.0</ele><time>2026-05-01T08:30:12.806Z</time></trkpt><trkpt lat="42.385384" lon="14.318063"><ele>8.0</ele><time>2026-05-01T08:30:14.817Z</time></trkpt><trkpt lat="42.3853646" lon="14.3181588"><ele>8.0</ele><time>2026-05-01T08:30:15.803Z</time></trkpt><trkpt lat="42.385328" lon="14.3182863"><ele>7.999999999999999</ele><time>2026-05-01T08:30:17.805Z</time></trkpt><trkpt lat="42.3853682" lon="14.3183773"><ele>8.0</ele><time>2026-05-01T08:30:19.818Z</time></trkpt><trkpt lat="42.3855034" lon="14.3183917"><ele>8.75</ele><time>2026-05-01T08:30:21.813Z</time></trkpt><trkpt lat="42.3856119" lon="14.3183458"><ele>9.5</ele><time>2026-05-01T08:30:22.797Z</time></trkpt><trkpt lat="42.3857324" lon="14.3182734"><ele>10.25</ele><time>2026-05-01T08:30:23.803Z</time></trkpt><trkpt lat="42.3858787" lon="14.3181884"><ele>11.0</ele><time>2026-05-01T08:30:24.799Z</time></trkpt><trkpt lat="42.3860185" lon="14.3181252"><ele>11.0</ele><time>2026-05-01T08:30:25.797Z</time></trkpt><trkpt lat="42.386161" lon="14.3180989"><ele>11.0</ele><time>2026-05-01T08:30:26.814Z</time></trkpt><trkpt lat="42.3863064" lon="14.3180812"><ele>11.0</ele><time>2026-05-01T08:30:27.803Z</time></trkpt><trkpt lat="42.3864283" lon="14.3180689"><ele>11.0</ele><time>2026-05-01T08:30:28.802Z</time></trkpt><trkpt lat="42.3865487" lon="14.3180372"><ele>10.8</ele><time>2026-05-01T08:30:29.806Z</time></trkpt><trkpt lat="42.3866597" lon="14.3179849"><ele>10.600000000000001</ele><time>2026-05-01T08:30:30.803Z</time></trkpt><trkpt lat="42.3867594" lon="14.3179711"><ele>10.4</ele><time>2026-05-01T08:30:31.81Z</time></trkpt><trkpt lat="42.3868369" lon="14.3179995"><ele>10.2</ele><time>2026-05-01T08:30:32.799Z</time></trkpt><trkpt lat="42.3868925" lon="14.3180948"><ele>10.0</ele><time>2026-05-01T08:30:34.799Z</time></trkpt><trkpt lat="42.3868503" lon="14.3182868"><ele>10.0</ele><time>2026-05-01T08:30:36.815Z</time></trkpt><trkpt lat="42.3868034" lon="14.3184186"><ele>10.0</ele><time>2026-05-01T08:30:37.8Z</time></trkpt><trkpt lat="42.3867641" lon="14.318565"><ele>10.0</ele><time>2026-05-01T08:30:38.811Z</time></trkpt><trkpt lat="42.3867336" lon="14.3187048"><ele>10.0</ele><time>2026-05-01T08:30:39.806Z</time></trkpt><trkpt lat="42.3867119" lon="14.3188203"><ele>10.0</ele><time>2026-05-01T08:30:40.805Z</time></trkpt><trkpt lat="42.3866949" lon="14.3189116"><ele>9.6</ele><time>2026-05-01T08:30:41.801Z</time></trkpt><trkpt lat="42.3866845" lon="14.3190404"><ele>9.2</ele><time>2026-05-01T08:30:43.8Z</time></trkpt><trkpt lat="42.3866406" lon="14.31915"><ele>8.8</ele><time>2026-05-01T08:30:45.815Z</time></trkpt><trkpt lat="42.3865588" lon="14.3191578"><ele>8.4</ele><time>2026-05-01T08:30:47.814Z</time></trkpt><trkpt lat="42.3864322" lon="14.3190863"><ele>8.0</ele><time>2026-05-01T08:30:49.816Z</time></trkpt><trkpt lat="42.3863509" lon="14.3190508"><ele>8.200000000000001</ele><time>2026-05-01T08:30:50.806Z</time></trkpt><trkpt lat="42.3862612" lon="14.3190281"><ele>8.4</ele><time>2026-05-01T08:30:51.82Z</time></trkpt><trkpt lat="42.3861666" lon="14.3190156"><ele>8.600000000000001</ele><time>2026-05-01T08:30:52.818Z</time></trkpt><trkpt lat="42.3860802" lon="14.319017"><ele>8.8</ele><time>2026-05-01T08:30:53.813Z</time></trkpt><trkpt lat="42.3859943" lon="14.3190309"><ele>9.0</ele><time>2026-05-01T08:30:54.803Z</time></trkpt><trkpt lat="42.3858913" lon="14.3190566"><ele>9.0</ele><time>2026-05-01T08:30:55.822Z</time></trkpt><trkpt lat="42.3857866" lon="14.3190921"><ele>9.0</ele><time>2026-05-01T08:30:56.799Z</time></trkpt><trkpt lat="42.3856697" lon="14.3191316"><ele>9.0</ele><time>2026-05-01T08:30:57.809Z</time></trkpt><trkpt lat="42.3855461" lon="14.3191625"><ele>9.0</ele><time>2026-05-01T08:30:58.81Z</time></trkpt><trkpt lat="42.3854223" lon="14.3191827"><ele>9.25</ele><time>2026-05-01T08:30:59.794Z</time></trkpt><trkpt lat="42.3853018" lon="14.3191884"><ele>9.5</ele><time>2026-05-01T08:31:00.807Z</time></trkpt><trkpt lat="42.3851826" lon="14.3191781"><ele>9.75</ele><time>2026-05-01T08:31:01.804Z</time></trkpt><trkpt lat="42.3850666" lon="14.3191519"><ele>10.0</ele><time>2026-05-01T08:31:02.808Z</time></trkpt><trkpt lat="42.3849566" lon="14.3191153"><ele>10.0</ele><time>2026-05-01T08:31:03.802Z</time></trkpt><trkpt lat="42.3848519" lon="14.3190661"><ele>10.0</ele><time>2026-05-01T08:31:04.805Z</time></trkpt><trkpt lat="42.3847436" lon="14.319009"><ele>10.0</ele><time>2026-05-01T08:31:05.837Z</time></trkpt><trkpt lat="42.3846317" lon="14.3189497"><ele>10.0</ele><time>2026-05-01T08:31:06.807Z</time></trkpt><trkpt lat="42.384524" lon="14.3188847"><ele>10.0</ele><time>2026-05-01T08:31:07.805Z</time></trkpt><trkpt lat="42.3844292" lon="14.3188002"><ele>10.0</ele><time>2026-05-01T08:31:08.799Z</time></trkpt><trkpt lat="42.3843572" lon="14.3187008"><ele>10.0</ele><time>2026-05-01T08:31:09.798Z</time></trkpt><trkpt lat="42.384297" lon="14.3185765"><ele>10.0</ele><time>2026-05-01T08:31:10.818Z</time></trkpt><trkpt lat="42.3842299" lon="14.3184355"><ele>10.0</ele><time>2026-05-01T08:31:11.806Z</time></trkpt><trkpt lat="42.3841686" lon="14.3182804"><ele>10.0</ele><time>2026-05-01T08:31:12.82Z</time></trkpt><trkpt lat="42.3841042" lon="14.3181195"><ele>10.0</ele><time>2026-05-01T08:31:13.804Z</time></trkpt><trkpt lat="42.3840363" lon="14.3179532"><ele>10.0</ele><time>2026-05-01T08:31:14.8Z</time></trkpt><trkpt lat="42.38398" lon="14.3177951"><ele>10.0</ele><time>2026-05-01T08:31:15.802Z</time></trkpt><trkpt lat="42.3839483" lon="14.3176466"><ele>10.0</ele><time>2026-05-01T08:31:16.81Z</time></trkpt><trkpt lat="42.3839365" lon="14.3174735"><ele>10.0</ele><time>2026-05-01T08:31:17.808Z</time></trkpt><trkpt lat="42.3839306" lon="14.3172911"><ele>10.0</ele><time>2026-05-01T08:31:18.809Z</time></trkpt><trkpt lat="42.3839336" lon="14.3171011"><ele>10.0</ele><time>2026-05-01T08:31:19.794Z</time></trkpt><trkpt lat="42.3839314" lon="14.3169084"><ele>10.0</ele><time>2026-05-01T08:31:20.799Z</time></trkpt><trkpt lat="42.3839324" lon="14.3167289"><ele>10.0</ele><time>2026-05-01T08:31:21.808Z</time></trkpt><trkpt lat="42.3839297" lon="14.3165792"><ele>10.0</ele><time>2026-05-01T08:31:22.802Z</time></trkpt><trkpt lat="42.3839218" lon="14.3164743"><ele>10.0</ele><time>2026-05-01T08:31:23.848Z</time></trkpt><trkpt lat="42.3839069" lon="14.3163692"><ele>10.0</ele><time>2026-05-01T08:31:24.805Z</time></trkpt><trkpt lat="42.3838694" lon="14.3162477"><ele>10.0</ele><time>2026-05-01T08:31:25.803Z</time></trkpt><trkpt lat="42.3838313" lon="14.3160993"><ele>10.0</ele><time>2026-05-01T08:31:26.797Z</time></trkpt><trkpt lat="42.3837773" lon="14.3159574"><ele>10.0</ele><time>2026-05-01T08:31:27.812Z</time></trkpt><trkpt lat="42.3837103" lon="14.3158293"><ele>10.0</ele><time>2026-05-01T08:31:28.804Z</time></trkpt><trkpt lat="42.3836285" lon="14.3157075"><ele>10.0</ele><time>2026-05-01T08:31:29.8Z</time></trkpt><trkpt lat="42.3835434" lon="14.3155873"><ele>10.0</ele><time>2026-05-01T08:31:30.805Z</time></trkpt><trkpt lat="42.383452" lon="14.3154653"><ele>10.0</ele><time>2026-05-01T08:31:31.812Z</time></trkpt><trkpt lat="42.3833547" lon="14.3153383"><ele>10.0</ele><time>2026-05-01T08:31:32.811Z</time></trkpt><trkpt lat="42.3832548" lon="14.3152068"><ele>10.0</ele><time>2026-05-01T08:31:33.797Z</time></trkpt><trkpt lat="42.3831603" lon="14.3150757"><ele>10.0</ele><time>2026-05-01T08:31:34.798Z</time></trkpt><trkpt lat="42.3830657" lon="14.3149446"><ele>10.0</ele><time>2026-05-01T08:31:35.803Z</time></trkpt><trkpt lat="42.3829846" lon="14.3148214"><ele>10.0</ele><time>2026-05-01T08:31:36.8Z</time></trkpt><trkpt lat="42.3829143" lon="14.3147049"><ele>10.0</ele><time>2026-05-01T08:31:37.817Z</time></trkpt><trkpt lat="42.3828547" lon="14.3145785"><ele>10.0</ele><time>2026-05-01T08:31:38.801Z</time></trkpt><trkpt lat="42.3828126" lon="14.3144542"><ele>10.0</ele><time>2026-05-01T08:31:39.799Z</time></trkpt><trkpt lat="42.3827746" lon="14.3143237"><ele>10.0</ele><time>2026-05-01T08:31:40.808Z</time></trkpt><trkpt lat="42.3827343" lon="14.3141757"><ele>10.0</ele><time>2026-05-01T08:31:41.801Z</time></trkpt><trkpt lat="42.3827052" lon="14.3140142"><ele>10.0</ele><time>2026-05-01T08:31:42.804Z</time></trkpt><trkpt lat="42.3826955" lon="14.3138261"><ele>10.0</ele><time>2026-05-01T08:31:43.814Z</time></trkpt><trkpt lat="42.3826947" lon="14.3136137"><ele>10.0</ele><time>2026-05-01T08:31:44.816Z</time></trkpt><trkpt lat="42.3826994" lon="14.3133912"><ele>10.333333333333334</ele><time>2026-05-01T08:31:45.812Z</time></trkpt><trkpt lat="42.3826952" lon="14.3131541"><ele>10.666666666666666</ele><time>2026-05-01T08:31:46.806Z</time></trkpt><trkpt lat="42.3826903" lon="14.3128898"><ele>11.0</ele><time>2026-05-01T08:31:47.817Z</time></trkpt><trkpt lat="42.382687" lon="14.3126421"><ele>11.0</ele><time>2026-05-01T08:31:48.811Z</time></trkpt><trkpt lat="42.3826822" lon="14.3124105"><ele>11.0</ele><time>2026-05-01T08:31:49.829Z</time></trkpt><trkpt lat="42.382685" lon="14.312191"><ele>11.0</ele><time>2026-05-01T08:31:50.805Z</time></trkpt><trkpt lat="42.3826872" lon="14.3120056"><ele>11.166666666666666</ele><time>2026-05-01T08:31:51.805Z</time></trkpt><trkpt lat="42.3826771" lon="14.3118694"><ele>11.333333333333332</ele><time>2026-05-01T08:31:52.816Z</time></trkpt><trkpt lat="42.3826562" lon="14.311764"><ele>11.5</ele><time>2026-05-01T08:31:53.816Z</time></trkpt><trkpt lat="42.3826124" lon="14.3116678"><ele>11.666666666666666</ele><time>2026-05-01T08:31:54.804Z</time></trkpt><trkpt lat="42.3825504" lon="14.311578"><ele>11.833333333333334</ele><time>2026-05-01T08:31:55.813Z</time></trkpt><trkpt lat="42.3824858" lon="14.3115215"><ele>12.0</ele><time>2026-05-01T08:31:56.8Z</time></trkpt><trkpt lat="42.382417" lon="14.311517"><ele>12.0</ele><time>2026-05-01T08:31:57.821Z</time></trkpt><trkpt lat="42.3823273" lon="14.3115123"><ele>12.0</ele><time>2026-05-01T08:31:58.804Z</time></trkpt><trkpt lat="42.3822423" lon="14.311521"><ele>12.0</ele><time>2026-05-01T08:31:59.803Z</time></trkpt><trkpt lat="42.3821268" lon="14.3115836"><ele>12.0</ele><time>2026-05-01T08:32:01.81Z</time></trkpt><trkpt lat="42.3820766" lon="14.3116692"><ele>12.0</ele><time>2026-05-01T08:32:02.81Z</time></trkpt><trkpt lat="42.3820148" lon="14.3118013"><ele>12.0</ele><time>2026-05-01T08:32:03.816Z</time></trkpt><trkpt lat="42.3819286" lon="14.3119512"><ele>12.0</ele><time>2026-05-01T08:32:04.814Z</time></trkpt><trkpt lat="42.3818149" lon="14.3121115"><ele>12.0</ele><time>2026-05-01T08:32:05.799Z</time></trkpt><trkpt lat="42.381718" lon="14.3122559"><ele>12.0</ele><time>2026-05-01T08:32:06.804Z</time></trkpt><trkpt lat="42.3816346" lon="14.3123423"><ele>12.0</ele><time>2026-05-01T08:32:07.807Z</time></trkpt><trkpt lat="42.381558" lon="14.3124087"><ele>12.0</ele><time>2026-05-01T08:32:08.806Z</time></trkpt><trkpt lat="42.3814664" lon="14.3124207"><ele>12.0</ele><time>2026-05-01T08:32:09.818Z</time></trkpt><trkpt lat="42.3813694" lon="14.3124016"><ele>12.0</ele><time>2026-05-01T08:32:10.813Z</time></trkpt><trkpt lat="42.3812655" lon="14.3123525"><ele>12.0</ele><time>2026-05-01T08:32:11.793Z</time></trkpt><trkpt lat="42.3811459" lon="14.3122878"><ele>12.5</ele><time>2026-05-01T08:32:12.812Z</time></trkpt><trkpt lat="42.3809982" lon="14.3122259"><ele>13.0</ele><time>2026-05-01T08:32:13.801Z</time></trkpt><trkpt lat="42.3808464" lon="14.3121807"><ele>13.5</ele><time>2026-05-01T08:32:14.809Z</time></trkpt><trkpt lat="42.3807157" lon="14.3121616"><ele>14.0</ele><time>2026-05-01T08:32:15.806Z</time></trkpt><trkpt lat="42.3806074" lon="14.3121538"><ele>14.0</ele><time>2026-05-01T08:32:16.808Z</time></trkpt><trkpt lat="42.3805166" lon="14.3121266"><ele>13.999999999999998</ele><time>2026-05-01T08:32:17.807Z</time></trkpt><trkpt lat="42.3804094" lon="14.3120735"><ele>13.999999999999998</ele><time>2026-05-01T08:32:18.802Z</time></trkpt><trkpt lat="42.380301" lon="14.3119891"><ele>14.0</ele><time>2026-05-01T08:32:19.819Z</time></trkpt><trkpt lat="42.3802157" lon="14.3119147"><ele>14.0</ele><time>2026-05-01T08:32:20.834Z</time></trkpt><trkpt lat="42.3801522" lon="14.3118598"><ele>14.000000000000002</ele><time>2026-05-01T08:32:21.805Z</time></trkpt><trkpt lat="42.3800912" lon="14.3117989"><ele>14.0</ele><time>2026-05-01T08:32:22.803Z</time></trkpt><trkpt lat="42.3800322" lon="14.311735"><ele>14.0</ele><time>2026-05-01T08:32:23.803Z</time></trkpt><trkpt lat="42.3799579" lon="14.3116779"><ele>14.0</ele><time>2026-05-01T08:32:24.815Z</time></trkpt><trkpt lat="42.3798836" lon="14.3116203"><ele>14.000000000000002</ele><time>2026-05-01T08:32:25.803Z</time></trkpt><trkpt lat="42.3798054" lon="14.3115698"><ele>14.0</ele><time>2026-05-01T08:32:26.802Z</time></trkpt><trkpt lat="42.3797225" lon="14.3115276"><ele>14.0</ele><time>2026-05-01T08:32:27.799Z</time></trkpt><trkpt lat="42.3796457" lon="14.3115041"><ele>13.999999999999998</ele><time>2026-05-01T08:32:28.796Z</time></trkpt><trkpt lat="42.3795827" lon="14.3114925"><ele>13.999999999999998</ele><time>2026-05-01T08:32:29.823Z</time></trkpt><trkpt lat="42.3794371" lon="14.311521"><ele>14.0</ele><time>2026-05-01T08:32:31.795Z</time></trkpt><trkpt lat="42.3793397" lon="14.3115306"><ele>14.0</ele><time>2026-05-01T08:32:32.797Z</time></trkpt><trkpt lat="42.3792254" lon="14.311499"><ele>14.0</ele><time>2026-05-01T08:32:33.798Z</time></trkpt><trkpt lat="42.3791083" lon="14.3114875"><ele>13.999999999999998</ele><time>2026-05-01T08:32:34.811Z</time></trkpt><trkpt lat="42.3789955" lon="14.3114848"><ele>13.999999999999998</ele><time>2026-05-01T08:32:35.804Z</time></trkpt><trkpt lat="42.3788897" lon="14.3114922"><ele>14.0</ele><time>2026-05-01T08:32:36.797Z</time></trkpt><trkpt lat="42.3787875" lon="14.3115075"><ele>14.0</ele><time>2026-05-01T08:32:37.83Z</time></trkpt><trkpt lat="42.3786936" lon="14.3115106"><ele>14.25</ele><time>2026-05-01T08:32:38.807Z</time></trkpt><trkpt lat="42.3786074" lon="14.3115051"><ele>14.5</ele><time>2026-05-01T08:32:39.816Z</time></trkpt><trkpt lat="42.3785096" lon="14.3114641"><ele>14.75</ele><time>2026-05-01T08:32:40.811Z</time></trkpt><trkpt lat="42.3783864" lon="14.3113815"><ele>15.0</ele><time>2026-05-01T08:32:41.811Z</time></trkpt><trkpt lat="42.3782689" lon="14.3113079"><ele>15.0</ele><time>2026-05-01T08:32:42.82Z</time></trkpt><trkpt lat="42.3781724" lon="14.3112622"><ele>15.0</ele><time>2026-05-01T08:32:43.801Z</time></trkpt><trkpt lat="42.3780749" lon="14.3112231"><ele>15.0</ele><time>2026-05-01T08:32:44.81Z</time></trkpt><trkpt lat="42.3779651" lon="14.3111805"><ele>15.0</ele><time>2026-05-01T08:32:45.81Z</time></trkpt><trkpt lat="42.3778627" lon="14.3111271"><ele>15.0</ele><time>2026-05-01T08:32:46.809Z</time></trkpt><trkpt lat="42.3777603" lon="14.3110522"><ele>15.166666666666666</ele><time>2026-05-01T08:32:47.819Z</time></trkpt><trkpt lat="42.3776605" lon="14.3109743"><ele>15.333333333333332</ele><time>2026-05-01T08:32:48.801Z</time></trkpt><trkpt lat="42.3775765" lon="14.3109018"><ele>15.5</ele><time>2026-05-01T08:32:49.813Z</time></trkpt><trkpt lat="42.3775021" lon="14.310856"><ele>15.666666666666666</ele><time>2026-05-01T08:32:50.807Z</time></trkpt><trkpt lat="42.3774379" lon="14.3108368"><ele>15.833333333333332</ele><time>2026-05-01T08:32:51.806Z</time></trkpt><trkpt lat="42.3773715" lon="14.3108165"><ele>16.0</ele><time>2026-05-01T08:32:52.8Z</time></trkpt><trkpt lat="42.3772928" lon="14.3107833"><ele>15.999999999999998</ele><time>2026-05-01T08:32:53.795Z</time></trkpt><trkpt lat="42.3772086" lon="14.3107581"><ele>16.0</ele><time>2026-05-01T08:32:54.819Z</time></trkpt><trkpt lat="42.3771334" lon="14.310737"><ele>16.0</ele><time>2026-05-01T08:32:55.803Z</time></trkpt><trkpt lat="42.3770461" lon="14.3107172"><ele>16.0</ele><time>2026-05-01T08:32:56.841Z</time></trkpt><trkpt lat="42.3769498" lon="14.3106918"><ele>15.999999999999998</ele><time>2026-05-01T08:32:57.802Z</time></trkpt><trkpt lat="42.3768568" lon="14.3106747"><ele>16.0</ele><time>2026-05-01T08:32:58.8Z</time></trkpt><trkpt lat="42.3767676" lon="14.3106757"><ele>16.400000000000002</ele><time>2026-05-01T08:32:59.817Z</time></trkpt><trkpt lat="42.3766712" lon="14.31068"><ele>16.8</ele><time>2026-05-01T08:33:00.81Z</time></trkpt><trkpt lat="42.376576" lon="14.3106803"><ele>17.200000000000003</ele><time>2026-05-01T08:33:01.807Z</time></trkpt><trkpt lat="42.3764944" lon="14.3106714"><ele>17.6</ele><time>2026-05-01T08:33:02.792Z</time></trkpt><trkpt lat="42.3763963" lon="14.3106653"><ele>18.0</ele><time>2026-05-01T08:33:03.81Z</time></trkpt><trkpt lat="42.3762824" lon="14.3106509"><ele>17.6</ele><time>2026-05-01T08:33:04.814Z</time></trkpt><trkpt lat="42.3761696" lon="14.3106277"><ele>17.200000000000003</ele><time>2026-05-01T08:33:05.806Z</time></trkpt><trkpt lat="42.376064" lon="14.3105939"><ele>16.8</ele><time>2026-05-01T08:33:06.805Z</time></trkpt><trkpt lat="42.3759606" lon="14.3105662"><ele>16.400000000000002</ele><time>2026-05-01T08:33:07.793Z</time></trkpt><trkpt lat="42.3758532" lon="14.3105514"><ele>16.0</ele><time>2026-05-01T08:33:08.813Z</time></trkpt><trkpt lat="42.3757366" lon="14.3105334"><ele>16.0</ele><time>2026-05-01T08:33:09.809Z</time></trkpt><trkpt lat="42.3756143" lon="14.3104859"><ele>16.0</ele><time>2026-05-01T08:33:10.821Z</time></trkpt><trkpt lat="42.3755018" lon="14.3104319"><ele>16.0</ele><time>2026-05-01T08:33:11.807Z</time></trkpt><trkpt lat="42.3754038" lon="14.3103761"><ele>16.0</ele><time>2026-05-01T08:33:12.804Z</time></trkpt><trkpt lat="42.3753125" lon="14.3103165"><ele>17.0</ele><time>2026-05-01T08:33:13.801Z</time></trkpt><trkpt lat="42.3752126" lon="14.3102484"><ele>18.0</ele><time>2026-05-01T08:33:14.803Z</time></trkpt><trkpt lat="42.3751127" lon="14.310165"><ele>19.0</ele><time>2026-05-01T08:33:15.819Z</time></trkpt><trkpt lat="42.3750204" lon="14.310083"><ele>20.0</ele><time>2026-05-01T08:33:16.802Z</time></trkpt><trkpt lat="42.3749328" lon="14.3100068"><ele>21.0</ele><time>2026-05-01T08:33:17.804Z</time></trkpt><trkpt lat="42.3748696" lon="14.3099592"><ele>21.0</ele><time>2026-05-01T08:33:18.807Z</time></trkpt><trkpt lat="42.374759" lon="14.309935"><ele>21.0</ele><time>2026-05-01T08:33:20.798Z</time></trkpt><trkpt lat="42.3746686" lon="14.3099885"><ele>21.0</ele><time>2026-05-01T08:33:21.796Z</time></trkpt><trkpt lat="42.3745578" lon="14.3100731"><ele>21.0</ele><time>2026-05-01T08:33:22.805Z</time></trkpt><trkpt lat="42.3744535" lon="14.310142"><ele>21.200000000000003</ele><time>2026-05-01T08:33:23.808Z</time></trkpt><trkpt lat="42.3743716" lon="14.3101421"><ele>21.400000000000002</ele><time>2026-05-01T08:33:24.802Z</time></trkpt><trkpt lat="42.3742843" lon="14.3101037"><ele>21.6</ele><time>2026-05-01T08:33:25.809Z</time></trkpt><trkpt lat="42.374185" lon="14.3100378"><ele>21.8</ele><time>2026-05-01T08:33:26.811Z</time></trkpt><trkpt lat="42.3740661" lon="14.3099343"><ele>22.0</ele><time>2026-05-01T08:33:27.798Z</time></trkpt><trkpt lat="42.3739575" lon="14.3098257"><ele>21.25</ele><time>2026-05-01T08:33:28.8Z</time></trkpt><trkpt lat="42.3738701" lon="14.3097252"><ele>20.5</ele><time>2026-05-01T08:33:29.787Z</time></trkpt><trkpt lat="42.3737833" lon="14.3096358"><ele>19.75</ele><time>2026-05-01T08:33:30.797Z</time></trkpt><trkpt lat="42.3736761" lon="14.3095402"><ele>19.0</ele><time>2026-05-01T08:33:31.799Z</time></trkpt><trkpt lat="42.3735474" lon="14.3094342"><ele>23.0</ele><time>2026-05-01T08:33:32.802Z</time></trkpt><trkpt lat="42.3734051" lon="14.3093381"><ele>27.0</ele><time>2026-05-01T08:33:33.834Z</time></trkpt><trkpt lat="42.3732729" lon="14.3092336"><ele>31.0</ele><time>2026-05-01T08:33:34.796Z</time></trkpt><trkpt lat="42.3731335" lon="14.3091305"><ele>31.75</ele><time>2026-05-01T08:33:35.794Z</time></trkpt><trkpt lat="42.3730072" lon="14.3090632"><ele>32.5</ele><time>2026-05-01T08:33:36.811Z</time></trkpt><trkpt lat="42.3728963" lon="14.3090221"><ele>33.25</ele><time>2026-05-01T08:33:37.803Z</time></trkpt><trkpt lat="42.3727885" lon="14.309001"><ele>34.0</ele><time>2026-05-01T08:33:38.823Z</time></trkpt><trkpt lat="42.3726794" lon="14.3089879"><ele>34.0</ele><time>2026-05-01T08:33:39.788Z</time></trkpt><trkpt lat="42.3725723" lon="14.3089527"><ele>34.0</ele><time>2026-05-01T08:33:40.798Z</time></trkpt><trkpt lat="42.3724565" lon="14.3088903"><ele>34.0</ele><time>2026-05-01T08:33:41.8Z</time></trkpt><trkpt lat="42.3723232" lon="14.3088047"><ele>34.0</ele><time>2026-05-01T08:33:42.826Z</time></trkpt><trkpt lat="42.3721849" lon="14.3087129"><ele>33.333333333333336</ele><time>2026-05-01T08:33:43.798Z</time></trkpt><trkpt lat="42.3720325" lon="14.3086024"><ele>32.666666666666664</ele><time>2026-05-01T08:33:44.805Z</time></trkpt><trkpt lat="42.3718731" lon="14.3084789"><ele>32.0</ele><time>2026-05-01T08:33:45.802Z</time></trkpt><trkpt lat="42.371704" lon="14.3083374"><ele>32.0</ele><time>2026-05-01T08:33:46.813Z</time></trkpt><trkpt lat="42.3715242" lon="14.308193"><ele>32.0</ele><time>2026-05-01T08:33:47.804Z</time></trkpt><trkpt lat="42.3713447" lon="14.308045"><ele>32.0</ele><time>2026-05-01T08:33:48.802Z</time></trkpt><trkpt lat="42.3711879" lon="14.307923"><ele>31.5</ele><time>2026-05-01T08:33:49.802Z</time></trkpt><trkpt lat="42.371048" lon="14.3078116"><ele>31.0</ele><time>2026-05-01T08:33:50.797Z</time></trkpt><trkpt lat="42.3709312" lon="14.3077221"><ele>30.5</ele><time>2026-05-01T08:33:51.819Z</time></trkpt><trkpt lat="42.3708263" lon="14.3076411"><ele>30.0</ele><time>2026-05-01T08:33:52.81Z</time></trkpt><trkpt lat="42.3707239" lon="14.3075582"><ele>30.0</ele><time>2026-05-01T08:33:53.801Z</time></trkpt><trkpt lat="42.3706119" lon="14.3074704"><ele>30.0</ele><time>2026-05-01T08:33:54.799Z</time></trkpt><trkpt lat="42.3704958" lon="14.3073884"><ele>30.0</ele><time>2026-05-01T08:33:55.8Z</time></trkpt><trkpt lat="42.3703793" lon="14.3073033"><ele>30.0</ele><time>2026-05-01T08:33:56.803Z</time></trkpt><trkpt lat="42.3702594" lon="14.3072304"><ele>29.5</ele><time>2026-05-01T08:33:57.811Z</time></trkpt><trkpt lat="42.3701299" lon="14.3071605"><ele>29.0</ele><time>2026-05-01T08:33:58.793Z</time></trkpt><trkpt lat="42.369989" lon="14.3070813"><ele>28.5</ele><time>2026-05-01T08:33:59.797Z</time></trkpt><trkpt lat="42.3698497" lon="14.3069994"><ele>28.0</ele><time>2026-05-01T08:34:00.824Z</time></trkpt><trkpt lat="42.3697153" lon="14.3069237"><ele>28.4</ele><time>2026-05-01T08:34:01.799Z</time></trkpt><trkpt lat="42.3695966" lon="14.306845"><ele>28.799999999999997</ele><time>2026-05-01T08:34:02.809Z</time></trkpt><trkpt lat="42.3694974" lon="14.3067578"><ele>29.2</ele><time>2026-05-01T08:34:03.805Z</time></trkpt><trkpt lat="42.3694342" lon="14.3066522"><ele>29.6</ele><time>2026-05-01T08:34:04.836Z</time></trkpt><trkpt lat="42.3693988" lon="14.3065374"><ele>30.0</ele><time>2026-05-01T08:34:05.805Z</time></trkpt><trkpt lat="42.3693858" lon="14.3064439"><ele>29.4</ele><time>2026-05-01T08:34:06.805Z</time></trkpt><trkpt lat="42.3693178" lon="14.306355"><ele>28.8</ele><time>2026-05-01T08:34:08.812Z</time></trkpt><trkpt lat="42.3692282" lon="14.3062921"><ele>28.200000000000003</ele><time>2026-05-01T08:34:09.813Z</time></trkpt><trkpt lat="42.369126" lon="14.3062006"><ele>27.6</ele><time>2026-05-01T08:34:10.807Z</time></trkpt><trkpt lat="42.3690155" lon="14.3061064"><ele>27.0</ele><time>2026-05-01T08:34:11.803Z</time></trkpt><trkpt lat="42.3689006" lon="14.3060019"><ele>27.5</ele><time>2026-05-01T08:34:12.8Z</time></trkpt><trkpt lat="42.3687802" lon="14.3058914"><ele>28.0</ele><time>2026-05-01T08:34:13.814Z</time></trkpt><trkpt lat="42.3686656" lon="14.3057754"><ele>28.5</ele><time>2026-05-01T08:34:14.802Z</time></trkpt><trkpt lat="42.3685646" lon="14.3056748"><ele>29.0</ele><time>2026-05-01T08:34:15.8Z</time></trkpt><trkpt lat="42.3684867" lon="14.305592"><ele>28.999999999999996</ele><time>2026-05-01T08:34:16.809Z</time></trkpt><trkpt lat="42.3684269" lon="14.3055234"><ele>29.0</ele><time>2026-05-01T08:34:17.818Z</time></trkpt><trkpt lat="42.3683551" lon="14.3054767"><ele>29.0</ele><time>2026-05-01T08:34:19.8Z</time></trkpt><trkpt lat="42.3682793" lon="14.3055231"><ele>29.0</ele><time>2026-05-01T08:34:21.801Z</time></trkpt><trkpt lat="42.3682227" lon="14.3056206"><ele>28.999999999999996</ele><time>2026-05-01T08:34:22.805Z</time></trkpt><trkpt lat="42.3681597" lon="14.305735"><ele>29.0</ele><time>2026-05-01T08:34:23.808Z</time></trkpt><trkpt lat="42.3680814" lon="14.305835"><ele>29.0</ele><time>2026-05-01T08:34:24.797Z</time></trkpt><trkpt lat="42.368006" lon="14.3059173"><ele>29.0</ele><time>2026-05-01T08:34:25.812Z</time></trkpt><trkpt lat="42.3679247" lon="14.3060058"><ele>29.0</ele><time>2026-05-01T08:34:26.805Z</time></trkpt><trkpt lat="42.3678407" lon="14.3060605"><ele>29.0</ele><time>2026-05-01T08:34:27.815Z</time></trkpt><trkpt lat="42.367737" lon="14.3060891"><ele>29.0</ele><time>2026-05-01T08:34:28.802Z</time></trkpt><trkpt lat="42.3676108" lon="14.3061013"><ele>29.0</ele><time>2026-05-01T08:34:29.809Z</time></trkpt><trkpt lat="42.3674753" lon="14.3061148"><ele>29.0</ele><time>2026-05-01T08:34:30.804Z</time></trkpt><trkpt lat="42.3673493" lon="14.3061215"><ele>29.0</ele><time>2026-05-01T08:34:31.797Z</time></trkpt><trkpt lat="42.3672302" lon="14.3061093"><ele>29.0</ele><time>2026-05-01T08:34:32.795Z</time></trkpt><trkpt lat="42.3671327" lon="14.3060677"><ele>30.6</ele><time>2026-05-01T08:34:33.8Z</time></trkpt><trkpt lat="42.3670454" lon="14.3060087"><ele>32.2</ele><time>2026-05-01T08:34:34.793Z</time></trkpt><trkpt lat="42.3669549" lon="14.3059423"><ele>33.800000000000004</ele><time>2026-05-01T08:34:35.816Z</time></trkpt><trkpt lat="42.3668568" lon="14.3059128"><ele>35.4</ele><time>2026-05-01T08:34:36.805Z</time></trkpt><trkpt lat="42.3667553" lon="14.3059251"><ele>37.0</ele><time>2026-05-01T08:34:37.794Z</time></trkpt><trkpt lat="42.3666263" lon="14.3059705"><ele>37.0</ele><time>2026-05-01T08:34:38.799Z</time></trkpt><trkpt lat="42.3664978" lon="14.3060111"><ele>37.0</ele><time>2026-05-01T08:34:39.804Z</time></trkpt><trkpt lat="42.3663924" lon="14.3060318"><ele>37.0</ele><time>2026-05-01T08:34:40.799Z</time></trkpt><trkpt lat="42.3662989" lon="14.3060446"><ele>37.0</ele><time>2026-05-01T08:34:41.822Z</time></trkpt><trkpt lat="42.3662191" lon="14.3060694"><ele>37.0</ele><time>2026-05-01T08:34:42.796Z</time></trkpt><trkpt lat="42.3661367" lon="14.3061271"><ele>37.0</ele><time>2026-05-01T08:34:43.8Z</time></trkpt><trkpt lat="42.3660409" lon="14.3061883"><ele>37.0</ele><time>2026-05-01T08:34:44.803Z</time></trkpt><trkpt lat="42.365943" lon="14.3062326"><ele>37.0</ele><time>2026-05-01T08:34:45.804Z</time></trkpt><trkpt lat="42.3658387" lon="14.3062497"><ele>37.0</ele><time>2026-05-01T08:34:46.812Z</time></trkpt><trkpt lat="42.3657157" lon="14.3062566"><ele>37.0</ele><time>2026-05-01T08:34:47.798Z</time></trkpt><trkpt lat="42.3656218" lon="14.3062426"><ele>37.4</ele><time>2026-05-01T08:34:48.802Z</time></trkpt><trkpt lat="42.3654945" lon="14.3062303"><ele>37.800000000000004</ele><time>2026-05-01T08:34:50.796Z</time></trkpt><trkpt lat="42.3654167" lon="14.3062365"><ele>38.2</ele><time>2026-05-01T08:34:51.791Z</time></trkpt><trkpt lat="42.3653359" lon="14.3062234"><ele>38.6</ele><time>2026-05-01T08:34:52.806Z</time></trkpt><trkpt lat="42.3652474" lon="14.3061913"><ele>39.0</ele><time>2026-05-01T08:34:53.802Z</time></trkpt><trkpt lat="42.3651664" lon="14.3061598"><ele>39.0</ele><time>2026-05-01T08:34:54.809Z</time></trkpt><trkpt lat="42.3650857" lon="14.306144"><ele>39.0</ele><time>2026-05-01T08:34:55.802Z</time></trkpt><trkpt lat="42.3649991" lon="14.3061433"><ele>39.0</ele><time>2026-05-01T08:34:56.831Z</time></trkpt><trkpt lat="42.3648979" lon="14.3061587"><ele>39.0</ele><time>2026-05-01T08:34:57.808Z</time></trkpt><trkpt lat="42.364795" lon="14.3061973"><ele>39.0</ele><time>2026-05-01T08:34:58.809Z</time></trkpt><trkpt lat="42.3646915" lon="14.3062457"><ele>38.8</ele><time>2026-05-01T08:34:59.801Z</time></trkpt><trkpt lat="42.3645949" lon="14.3063029"><ele>38.599999999999994</ele><time>2026-05-01T08:35:00.799Z</time></trkpt><trkpt lat="42.3644973" lon="14.3063618"><ele>38.4</ele><time>2026-05-01T08:35:01.811Z</time></trkpt><trkpt lat="42.3644082" lon="14.3064312"><ele>38.199999999999996</ele><time>2026-05-01T08:35:02.805Z</time></trkpt><trkpt lat="42.3643288" lon="14.3065049"><ele>38.0</ele><time>2026-05-01T08:35:03.793Z</time></trkpt><trkpt lat="42.3642574" lon="14.306581"><ele>38.166666666666664</ele><time>2026-05-01T08:35:04.803Z</time></trkpt><trkpt lat="42.3641881" lon="14.3066515"><ele>38.33333333333333</ele><time>2026-05-01T08:35:05.806Z</time></trkpt><trkpt lat="42.3641127" lon="14.3067292"><ele>38.5</ele><time>2026-05-01T08:35:06.847Z</time></trkpt><trkpt lat="42.3640363" lon="14.3068005"><ele>38.666666666666664</ele><time>2026-05-01T08:35:07.794Z</time></trkpt><trkpt lat="42.3639712" lon="14.306853"><ele>38.833333333333336</ele><time>2026-05-01T08:35:08.801Z</time></trkpt><trkpt lat="42.3638987" lon="14.3068909"><ele>39.0</ele><time>2026-05-01T08:35:09.799Z</time></trkpt><trkpt lat="42.3638261" lon="14.3069294"><ele>39.0</ele><time>2026-05-01T08:35:10.801Z</time></trkpt><trkpt lat="42.3637456" lon="14.3069605"><ele>39.0</ele><time>2026-05-01T08:35:11.797Z</time></trkpt><trkpt lat="42.3636386" lon="14.3069958"><ele>39.0</ele><time>2026-05-01T08:35:12.799Z</time></trkpt><trkpt lat="42.3635127" lon="14.3070266"><ele>39.0</ele><time>2026-05-01T08:35:13.799Z</time></trkpt><trkpt lat="42.3633853" lon="14.3070465"><ele>39.0</ele><time>2026-05-01T08:35:14.809Z</time></trkpt><trkpt lat="42.3632681" lon="14.3070455"><ele>39.0</ele><time>2026-05-01T08:35:15.83Z</time></trkpt><trkpt lat="42.3631635" lon="14.3070434"><ele>39.0</ele><time>2026-05-01T08:35:16.8Z</time></trkpt><trkpt lat="42.3630618" lon="14.3070388"><ele>39.0</ele><time>2026-05-01T08:35:17.797Z</time></trkpt><trkpt lat="42.3629533" lon="14.3070312"><ele>39.0</ele><time>2026-05-01T08:35:18.806Z</time></trkpt><trkpt lat="42.3628332" lon="14.3070066"><ele>38.75</ele><time>2026-05-01T08:35:19.807Z</time></trkpt><trkpt lat="42.3627089" lon="14.3069839"><ele>38.5</ele><time>2026-05-01T08:35:20.805Z</time></trkpt><trkpt lat="42.3625915" lon="14.3069663"><ele>38.25</ele><time>2026-05-01T08:35:21.803Z</time></trkpt><trkpt lat="42.3624711" lon="14.3069562"><ele>38.0</ele><time>2026-05-01T08:35:22.807Z</time></trkpt><trkpt lat="42.3623354" lon="14.3069536"><ele>37.75</ele><time>2026-05-01T08:35:23.801Z</time></trkpt><trkpt lat="42.3621833" lon="14.3069461"><ele>37.5</ele><time>2026-05-01T08:35:24.793Z</time></trkpt><trkpt lat="42.362035" lon="14.3069448"><ele>37.25</ele><time>2026-05-01T08:35:25.793Z</time></trkpt><trkpt lat="42.361913" lon="14.3069411"><ele>37.0</ele><time>2026-05-01T08:35:26.792Z</time></trkpt><trkpt lat="42.3618078" lon="14.3069287"><ele>37.0</ele><time>2026-05-01T08:35:27.797Z</time></trkpt><trkpt lat="42.3617078" lon="14.306915"><ele>37.0</ele><time>2026-05-01T08:35:28.811Z</time></trkpt><trkpt lat="42.3616115" lon="14.3068873"><ele>37.0</ele><time>2026-05-01T08:35:29.798Z</time></trkpt><trkpt lat="42.3615316" lon="14.3068432"><ele>37.0</ele><time>2026-05-01T08:35:30.806Z</time></trkpt><trkpt lat="42.3614502" lon="14.3067723"><ele>37.0</ele><time>2026-05-01T08:35:31.795Z</time></trkpt><trkpt lat="42.3613723" lon="14.3066896"><ele>37.0</ele><time>2026-05-01T08:35:32.8Z</time></trkpt><trkpt lat="42.3612954" lon="14.3066058"><ele>37.0</ele><time>2026-05-01T08:35:33.816Z</time></trkpt><trkpt lat="42.3612103" lon="14.3065401"><ele>37.0</ele><time>2026-05-01T08:35:34.798Z</time></trkpt><trkpt lat="42.3611122" lon="14.3064973"><ele>37.0</ele><time>2026-05-01T08:35:35.814Z</time></trkpt><trkpt lat="42.3610077" lon="14.3064734"><ele>37.0</ele><time>2026-05-01T08:35:36.81Z</time></trkpt><trkpt lat="42.3608811" lon="14.3064358"><ele>35.25</ele><time>2026-05-01T08:35:37.801Z</time></trkpt><trkpt lat="42.3607373" lon="14.3063949"><ele>33.5</ele><time>2026-05-01T08:35:38.796Z</time></trkpt><trkpt lat="42.3605879" lon="14.3063447"><ele>31.75</ele><time>2026-05-01T08:35:39.799Z</time></trkpt><trkpt lat="42.3604508" lon="14.3062762"><ele>30.0</ele><time>2026-05-01T08:35:40.814Z</time></trkpt><trkpt lat="42.3603229" lon="14.3062084"><ele>29.4</ele><time>2026-05-01T08:35:41.808Z</time></trkpt><trkpt lat="42.3602066" lon="14.3061657"><ele>28.8</ele><time>2026-05-01T08:35:42.811Z</time></trkpt><trkpt lat="42.360105" lon="14.3061327"><ele>28.200000000000003</ele><time>2026-05-01T08:35:43.796Z</time></trkpt><trkpt lat="42.3600152" lon="14.306122"><ele>27.6</ele><time>2026-05-01T08:35:44.794Z</time></trkpt><trkpt lat="42.3599243" lon="14.3061362"><ele>27.0</ele><time>2026-05-01T08:35:45.802Z</time></trkpt><trkpt lat="42.3598432" lon="14.3061709"><ele>27.0</ele><time>2026-05-01T08:35:46.807Z</time></trkpt><trkpt lat="42.3597597" lon="14.3062145"><ele>27.000000000000004</ele><time>2026-05-01T08:35:47.801Z</time></trkpt><trkpt lat="42.3596712" lon="14.3062557"><ele>27.000000000000004</ele><time>2026-05-01T08:35:48.801Z</time></trkpt><trkpt lat="42.3595754" lon="14.3062866"><ele>27.0</ele><time>2026-05-01T08:35:49.799Z</time></trkpt><trkpt lat="42.3594731" lon="14.3063196"><ele>27.0</ele><time>2026-05-01T08:35:50.801Z</time></trkpt><trkpt lat="42.3593695" lon="14.3063493"><ele>28.0</ele><time>2026-05-01T08:35:51.814Z</time></trkpt><trkpt lat="42.3592796" lon="14.3063792"><ele>29.000000000000004</ele><time>2026-05-01T08:35:52.798Z</time></trkpt><trkpt lat="42.3591887" lon="14.306419"><ele>30.000000000000004</ele><time>2026-05-01T08:35:53.803Z</time></trkpt><trkpt lat="42.3591136" lon="14.3064775"><ele>31.0</ele><time>2026-05-01T08:35:54.801Z</time></trkpt><trkpt lat="42.3590524" lon="14.3065514"><ele>32.0</ele><time>2026-05-01T08:35:55.799Z</time></trkpt><trkpt lat="42.3589818" lon="14.3066625"><ele>32.25</ele><time>2026-05-01T08:35:56.811Z</time></trkpt><trkpt lat="42.3589019" lon="14.306796"><ele>32.5</ele><time>2026-05-01T08:35:57.806Z</time></trkpt><trkpt lat="42.3588176" lon="14.3069241"><ele>32.75</ele><time>2026-05-01T08:35:58.809Z</time></trkpt><trkpt lat="42.358733" lon="14.3070248"><ele>33.0</ele><time>2026-05-01T08:35:59.801Z</time></trkpt><trkpt lat="42.3586538" lon="14.3070862"><ele>32.666666666666664</ele><time>2026-05-01T08:36:00.804Z</time></trkpt><trkpt lat="42.3585801" lon="14.3071206"><ele>32.333333333333336</ele><time>2026-05-01T08:36:01.79Z</time></trkpt><trkpt lat="42.3585038" lon="14.3071408"><ele>32.0</ele><time>2026-05-01T08:36:02.795Z</time></trkpt><trkpt lat="42.3584334" lon="14.3071444"><ele>31.666666666666668</ele><time>2026-05-01T08:36:03.805Z</time></trkpt><trkpt lat="42.3583536" lon="14.3071208"><ele>31.333333333333336</ele><time>2026-05-01T08:36:04.8Z</time></trkpt><trkpt lat="42.3582414" lon="14.3070565"><ele>31.0</ele><time>2026-05-01T08:36:05.818Z</time></trkpt><trkpt lat="42.3581084" lon="14.3069837"><ele>31.25</ele><time>2026-05-01T08:36:06.8Z</time></trkpt><trkpt lat="42.3579818" lon="14.3069155"><ele>31.5</ele><time>2026-05-01T08:36:07.801Z</time></trkpt><trkpt lat="42.3578435" lon="14.306858"><ele>31.75</ele><time>2026-05-01T08:36:08.819Z</time></trkpt><trkpt lat="42.3577201" lon="14.3067972"><ele>32.0</ele><time>2026-05-01T08:36:09.802Z</time></trkpt><trkpt lat="42.3576031" lon="14.3067372"><ele>32.0</ele><time>2026-05-01T08:36:10.806Z</time></trkpt><trkpt lat="42.357482" lon="14.3066854"><ele>32.0</ele><time>2026-05-01T08:36:11.8Z</time></trkpt><trkpt lat="42.3573625" lon="14.3066305"><ele>32.0</ele><time>2026-05-01T08:36:12.8Z</time></trkpt><trkpt lat="42.3572429" lon="14.3065722"><ele>32.0</ele><time>2026-05-01T08:36:13.797Z</time></trkpt><trkpt lat="42.3571304" lon="14.3065143"><ele>32.2</ele><time>2026-05-01T08:36:14.793Z</time></trkpt><trkpt lat="42.3570317" lon="14.3064693"><ele>32.400000000000006</ele><time>2026-05-01T08:36:15.801Z</time></trkpt><trkpt lat="42.3569336" lon="14.3064331"><ele>32.599999999999994</ele><time>2026-05-01T08:36:16.799Z</time></trkpt><trkpt lat="42.3568339" lon="14.3064009"><ele>32.8</ele><time>2026-05-01T08:36:17.83Z</time></trkpt><trkpt lat="42.3567293" lon="14.3063875"><ele>33.0</ele><time>2026-05-01T08:36:18.801Z</time></trkpt><trkpt lat="42.3566284" lon="14.3063741"><ele>33.0</ele><time>2026-05-01T08:36:19.811Z</time></trkpt><trkpt lat="42.3565306" lon="14.3063678"><ele>33.0</ele><time>2026-05-01T08:36:20.801Z</time></trkpt><trkpt lat="42.3564487" lon="14.3063691"><ele>33.0</ele><time>2026-05-01T08:36:21.8Z</time></trkpt><trkpt lat="42.3563779" lon="14.3063742"><ele>33.0</ele><time>2026-05-01T08:36:22.802Z</time></trkpt><trkpt lat="42.3562555" lon="14.3063989"><ele>33.0</ele><time>2026-05-01T08:36:24.797Z</time></trkpt><trkpt lat="42.3561835" lon="14.306409"><ele>33.0</ele><time>2026-05-01T08:36:25.797Z</time></trkpt><trkpt lat="42.3561066" lon="14.3064189"><ele>33.8</ele><time>2026-05-01T08:36:26.811Z</time></trkpt><trkpt lat="42.356032" lon="14.3064356"><ele>34.599999999999994</ele><time>2026-05-01T08:36:27.808Z</time></trkpt><trkpt lat="42.3559554" lon="14.3064586"><ele>35.400000000000006</ele><time>2026-05-01T08:36:28.799Z</time></trkpt><trkpt lat="42.3558611" lon="14.3064871"><ele>36.2</ele><time>2026-05-01T08:36:29.799Z</time></trkpt><trkpt lat="42.3557569" lon="14.3065239"><ele>37.0</ele><time>2026-05-01T08:36:30.8Z</time></trkpt><trkpt lat="42.3556455" lon="14.3065574"><ele>36.6</ele><time>2026-05-01T08:36:31.801Z</time></trkpt><trkpt lat="42.3555282" lon="14.3065869"><ele>36.2</ele><time>2026-05-01T08:36:32.801Z</time></trkpt><trkpt lat="42.3554246" lon="14.3066313"><ele>35.8</ele><time>2026-05-01T08:36:33.801Z</time></trkpt><trkpt lat="42.3553347" lon="14.3066779"><ele>35.4</ele><time>2026-05-01T08:36:34.799Z</time></trkpt><trkpt lat="42.3552485" lon="14.3067233"><ele>35.0</ele><time>2026-05-01T08:36:35.804Z</time></trkpt><trkpt lat="42.3551568" lon="14.3067632"><ele>35.0</ele><time>2026-05-01T08:36:36.801Z</time></trkpt><trkpt lat="42.3550548" lon="14.3067989"><ele>35.0</ele><time>2026-05-01T08:36:37.806Z</time></trkpt><trkpt lat="42.3549537" lon="14.3068324"><ele>35.0</ele><time>2026-05-01T08:36:38.805Z</time></trkpt><trkpt lat="42.354854" lon="14.3068678"><ele>35.0</ele><time>2026-05-01T08:36:39.791Z</time></trkpt><trkpt lat="42.3547518" lon="14.3069139"><ele>35.0</ele><time>2026-05-01T08:36:40.795Z</time></trkpt><trkpt lat="42.3546556" lon="14.306956"><ele>35.0</ele><time>2026-05-01T08:36:41.814Z</time></trkpt><trkpt lat="42.3545572" lon="14.3069959"><ele>35.0</ele><time>2026-05-01T08:36:42.804Z</time></trkpt><trkpt lat="42.3544614" lon="14.30704"><ele>35.0</ele><time>2026-05-01T08:36:43.805Z</time></trkpt><trkpt lat="42.3543639" lon="14.3070818"><ele>35.0</ele><time>2026-05-01T08:36:44.817Z</time></trkpt><trkpt lat="42.3542704" lon="14.3071261"><ele>35.0</ele><time>2026-05-01T08:36:45.795Z</time></trkpt><trkpt lat="42.3541788" lon="14.3071817"><ele>35.0</ele><time>2026-05-01T08:36:46.801Z</time></trkpt><trkpt lat="42.3540982" lon="14.3072395"><ele>35.0</ele><time>2026-05-01T08:36:47.792Z</time></trkpt><trkpt lat="42.3540225" lon="14.3072928"><ele>35.0</ele><time>2026-05-01T08:36:48.803Z</time></trkpt><trkpt lat="42.3539472" lon="14.3073496"><ele>35.0</ele><time>2026-05-01T08:36:49.804Z</time></trkpt><trkpt lat="42.3538685" lon="14.3074076"><ele>35.0</ele><time>2026-05-01T08:36:50.8Z</time></trkpt><trkpt lat="42.3537875" lon="14.3074575"><ele>35.0</ele><time>2026-05-01T08:36:51.809Z</time></trkpt><trkpt lat="42.3536962" lon="14.3074645"><ele>36.0</ele><time>2026-05-01T08:36:52.802Z</time></trkpt><trkpt lat="42.3535941" lon="14.3074347"><ele>37.0</ele><time>2026-05-01T08:36:53.792Z</time></trkpt><trkpt lat="42.3534856" lon="14.3074111"><ele>38.0</ele><time>2026-05-01T08:36:54.791Z</time></trkpt><trkpt lat="42.3534093" lon="14.3074211"><ele>39.0</ele><time>2026-05-01T08:36:55.802Z</time></trkpt><trkpt lat="42.3533334" lon="14.3074503"><ele>40.0</ele><time>2026-05-01T08:36:56.799Z</time></trkpt><trkpt lat="42.353258" lon="14.3075221"><ele>40.0</ele><time>2026-05-01T08:36:57.801Z</time></trkpt><trkpt lat="42.353185" lon="14.3076077"><ele>40.0</ele><time>2026-05-01T08:36:58.802Z</time></trkpt><trkpt lat="42.3531027" lon="14.3076781"><ele>40.0</ele><time>2026-05-01T08:36:59.806Z</time></trkpt><trkpt lat="42.3530169" lon="14.3077348"><ele>40.0</ele><time>2026-05-01T08:37:00.806Z</time></trkpt><trkpt lat="42.3529376" lon="14.3077707"><ele>40.0</ele><time>2026-05-01T08:37:01.804Z</time></trkpt><trkpt lat="42.3528563" lon="14.3077806"><ele>39.66666666666667</ele><time>2026-05-01T08:37:02.81Z</time></trkpt><trkpt lat="42.3527726" lon="14.3077536"><ele>39.333333333333336</ele><time>2026-05-01T08:37:03.8Z</time></trkpt><trkpt lat="42.3526871" lon="14.3076862"><ele>39.0</ele><time>2026-05-01T08:37:04.807Z</time></trkpt><trkpt lat="42.3526009" lon="14.3076374"><ele>38.666666666666664</ele><time>2026-05-01T08:37:05.803Z</time></trkpt><trkpt lat="42.3525173" lon="14.3075983"><ele>38.33333333333333</ele><time>2026-05-01T08:37:06.797Z</time></trkpt><trkpt lat="42.3524467" lon="14.3075781"><ele>38.0</ele><time>2026-05-01T08:37:07.801Z</time></trkpt><trkpt lat="42.3523541" lon="14.3075874"><ele>38.0</ele><time>2026-05-01T08:37:08.805Z</time></trkpt><trkpt lat="42.3522387" lon="14.3076094"><ele>38.0</ele><time>2026-05-01T08:37:09.797Z</time></trkpt><trkpt lat="42.3521011" lon="14.3076322"><ele>38.0</ele><time>2026-05-01T08:37:10.793Z</time></trkpt><trkpt lat="42.3519641" lon="14.3076575"><ele>38.0</ele><time>2026-05-01T08:37:11.814Z</time></trkpt><trkpt lat="42.3518299" lon="14.3076798"><ele>38.199999999999996</ele><time>2026-05-01T08:37:12.808Z</time></trkpt><trkpt lat="42.3517029" lon="14.3077027"><ele>38.4</ele><time>2026-05-01T08:37:13.799Z</time></trkpt><trkpt lat="42.3515951" lon="14.3077225"><ele>38.599999999999994</ele><time>2026-05-01T08:37:14.808Z</time></trkpt><trkpt lat="42.3514963" lon="14.3077403"><ele>38.8</ele><time>2026-05-01T08:37:15.805Z</time></trkpt><trkpt lat="42.3514053" lon="14.3077508"><ele>39.0</ele><time>2026-05-01T08:37:16.805Z</time></trkpt><trkpt lat="42.3513039" lon="14.307763"><ele>39.8</ele><time>2026-05-01T08:37:17.794Z</time></trkpt><trkpt lat="42.3511945" lon="14.3077773"><ele>40.599999999999994</ele><time>2026-05-01T08:37:18.805Z</time></trkpt><trkpt lat="42.3510841" lon="14.3077987"><ele>41.4</ele><time>2026-05-01T08:37:19.806Z</time></trkpt><trkpt lat="42.3509783" lon="14.3078154"><ele>42.199999999999996</ele><time>2026-05-01T08:37:20.811Z</time></trkpt><trkpt lat="42.3508643" lon="14.3078278"><ele>43.0</ele><time>2026-05-01T08:37:21.801Z</time></trkpt><trkpt lat="42.3507472" lon="14.3078375"><ele>43.0</ele><time>2026-05-01T08:37:22.815Z</time></trkpt><trkpt lat="42.3506262" lon="14.3078439"><ele>43.0</ele><time>2026-05-01T08:37:23.804Z</time></trkpt><trkpt lat="42.3505019" lon="14.3078607"><ele>43.0</ele><time>2026-05-01T08:37:24.803Z</time></trkpt><trkpt lat="42.3503736" lon="14.3078933"><ele>43.0</ele><time>2026-05-01T08:37:25.803Z</time></trkpt><trkpt lat="42.3502413" lon="14.3079496"><ele>43.25</ele><time>2026-05-01T08:37:26.8Z</time></trkpt><trkpt lat="42.3501133" lon="14.3080101"><ele>43.5</ele><time>2026-05-01T08:37:27.805Z</time></trkpt><trkpt lat="42.3499933" lon="14.3080733"><ele>43.75</ele><time>2026-05-01T08:37:28.81Z</time></trkpt><trkpt lat="42.3498769" lon="14.3081268"><ele>44.0</ele><time>2026-05-01T08:37:29.801Z</time></trkpt><trkpt lat="42.3497702" lon="14.308182"><ele>43.800000000000004</ele><time>2026-05-01T08:37:30.809Z</time></trkpt><trkpt lat="42.349671" lon="14.3082328"><ele>43.6</ele><time>2026-05-01T08:37:31.798Z</time></trkpt><trkpt lat="42.3495731" lon="14.3082802"><ele>43.4</ele><time>2026-05-01T08:37:32.821Z</time></trkpt><trkpt lat="42.3494786" lon="14.3083399"><ele>43.2</ele><time>2026-05-01T08:37:33.802Z</time></trkpt><trkpt lat="42.3493914" lon="14.3083888"><ele>43.0</ele><time>2026-05-01T08:37:34.803Z</time></trkpt><trkpt lat="42.3493213" lon="14.3083812"><ele>43.0</ele><time>2026-05-01T08:37:35.8Z</time></trkpt><trkpt lat="42.3492672" lon="14.3083296"><ele>43.0</ele><time>2026-05-01T08:37:36.808Z</time></trkpt><trkpt lat="42.3492294" lon="14.308242"><ele>43.0</ele><time>2026-05-01T08:37:37.801Z</time></trkpt><trkpt lat="42.3492091" lon="14.3081127"><ele>43.0</ele><time>2026-05-01T08:37:38.804Z</time></trkpt><trkpt lat="42.3491949" lon="14.307982"><ele>43.0</ele><time>2026-05-01T08:37:39.801Z</time></trkpt><trkpt lat="42.3491612" lon="14.307908"><ele>43.0</ele><time>2026-05-01T08:37:40.8Z</time></trkpt><trkpt lat="42.3491043" lon="14.3078637"><ele>42.833333333333336</ele><time>2026-05-01T08:37:41.803Z</time></trkpt><trkpt lat="42.3490296" lon="14.3078641"><ele>42.66666666666667</ele><time>2026-05-01T08:37:42.804Z</time></trkpt><trkpt lat="42.3489637" lon="14.3078604"><ele>42.5</ele><time>2026-05-01T08:37:43.805Z</time></trkpt><trkpt lat="42.3489137" lon="14.307788"><ele>42.333333333333336</ele><time>2026-05-01T08:37:44.796Z</time></trkpt><trkpt lat="42.3488779" lon="14.3076762"><ele>42.166666666666664</ele><time>2026-05-01T08:37:45.819Z</time></trkpt><trkpt lat="42.3488552" lon="14.3075412"><ele>42.0</ele><time>2026-05-01T08:37:46.806Z</time></trkpt><trkpt lat="42.3488375" lon="14.3074049"><ele>42.0</ele><time>2026-05-01T08:37:47.807Z</time></trkpt><trkpt lat="42.3488081" lon="14.3072754"><ele>42.0</ele><time>2026-05-01T08:37:48.798Z</time></trkpt><trkpt lat="42.3487847" lon="14.3071437"><ele>42.0</ele><time>2026-05-01T08:37:49.802Z</time></trkpt><trkpt lat="42.3487521" lon="14.3070132"><ele>42.0</ele><time>2026-05-01T08:37:50.802Z</time></trkpt><trkpt lat="42.3487171" lon="14.3068801"><ele>42.0</ele><time>2026-05-01T08:37:51.806Z</time></trkpt><trkpt lat="42.3486739" lon="14.3067562"><ele>42.0</ele><time>2026-05-01T08:37:52.801Z</time></trkpt><trkpt lat="42.3486337" lon="14.3066474"><ele>42.0</ele><time>2026-05-01T08:37:53.809Z</time></trkpt><trkpt lat="42.3486011" lon="14.3065567"><ele>42.0</ele><time>2026-05-01T08:37:54.8Z</time></trkpt><trkpt lat="42.3485824" lon="14.3064605"><ele>42.0</ele><time>2026-05-01T08:37:55.803Z</time></trkpt><trkpt lat="42.348583" lon="14.3063715"><ele>42.0</ele><time>2026-05-01T08:37:56.817Z</time></trkpt><trkpt lat="42.3486202" lon="14.3062685"><ele>42.0</ele><time>2026-05-01T08:37:57.801Z</time></trkpt><trkpt lat="42.3486783" lon="14.3061701"><ele>42.0</ele><time>2026-05-01T08:37:58.85Z</time></trkpt><trkpt lat="42.3487377" lon="14.3060792"><ele>42.0</ele><time>2026-05-01T08:37:59.8Z</time></trkpt><trkpt lat="42.3487934" lon="14.3059863"><ele>42.0</ele><time>2026-05-01T08:38:00.799Z</time></trkpt><trkpt lat="42.3488424" lon="14.3058824"><ele>42.0</ele><time>2026-05-01T08:38:01.813Z</time></trkpt><trkpt lat="42.3488771" lon="14.305784"><ele>42.0</ele><time>2026-05-01T08:38:02.798Z</time></trkpt><trkpt lat="42.3488773" lon="14.3056863"><ele>42.0</ele><time>2026-05-01T08:38:03.831Z</time></trkpt><trkpt lat="42.3488509" lon="14.3055874"><ele>44.6</ele><time>2026-05-01T08:38:04.805Z</time></trkpt><trkpt lat="42.3487415" lon="14.3054731"><ele>47.2</ele><time>2026-05-01T08:38:06.816Z</time></trkpt><trkpt lat="42.3486605" lon="14.3054208"><ele>49.8</ele><time>2026-05-01T08:38:07.797Z</time></trkpt><trkpt lat="42.3485944" lon="14.3054008"><ele>52.4</ele><time>2026-05-01T08:38:08.813Z</time></trkpt><trkpt lat="42.3485192" lon="14.3054148"><ele>55.0</ele><time>2026-05-01T08:38:10.802Z</time></trkpt><trkpt lat="42.3484048" lon="14.3054545"><ele>55.0</ele><time>2026-05-01T08:38:12.798Z</time></trkpt><trkpt lat="42.3483307" lon="14.3055259"><ele>55.0</ele><time>2026-05-01T08:38:13.803Z</time></trkpt><trkpt lat="42.3482476" lon="14.3056101"><ele>55.0</ele><time>2026-05-01T08:38:14.802Z</time></trkpt><trkpt lat="42.3481545" lon="14.3057135"><ele>55.0</ele><time>2026-05-01T08:38:15.798Z</time></trkpt><trkpt lat="42.3480577" lon="14.305829"><ele>55.0</ele><time>2026-05-01T08:38:16.835Z</time></trkpt><trkpt lat="42.3479642" lon="14.3059296"><ele>55.0</ele><time>2026-05-01T08:38:17.805Z</time></trkpt><trkpt lat="42.3478734" lon="14.3060152"><ele>55.0</ele><time>2026-05-01T08:38:18.811Z</time></trkpt><trkpt lat="42.3477858" lon="14.3061065"><ele>55.0</ele><time>2026-05-01T08:38:19.807Z</time></trkpt><trkpt lat="42.3476951" lon="14.3062053"><ele>55.0</ele><time>2026-05-01T08:38:20.813Z</time></trkpt><trkpt lat="42.3476034" lon="14.3063014"><ele>55.0</ele><time>2026-05-01T08:38:21.799Z</time></trkpt><trkpt lat="42.3475129" lon="14.3063856"><ele>55.0</ele><time>2026-05-01T08:38:22.8Z</time></trkpt><trkpt lat="42.3474212" lon="14.3064597"><ele>55.0</ele><time>2026-05-01T08:38:23.82Z</time></trkpt><trkpt lat="42.3473253" lon="14.3065219"><ele>55.0</ele><time>2026-05-01T08:38:24.802Z</time></trkpt><trkpt lat="42.34722" lon="14.3065831"><ele>55.0</ele><time>2026-05-01T08:38:25.803Z</time></trkpt><trkpt lat="42.3471015" lon="14.3066456"><ele>54.25</ele><time>2026-05-01T08:38:26.801Z</time></trkpt><trkpt lat="42.3469813" lon="14.3067057"><ele>53.5</ele><time>2026-05-01T08:38:27.799Z</time></trkpt><trkpt lat="42.3468575" lon="14.3067732"><ele>52.75</ele><time>2026-05-01T08:38:28.797Z</time></trkpt><trkpt lat="42.3467283" lon="14.3068434"><ele>52.0</ele><time>2026-05-01T08:38:29.8Z</time></trkpt><trkpt lat="42.3465993" lon="14.3069157"><ele>52.0</ele><time>2026-05-01T08:38:30.81Z</time></trkpt><trkpt lat="42.3464638" lon="14.3069875"><ele>52.0</ele><time>2026-05-01T08:38:31.809Z</time></trkpt><trkpt lat="42.3463206" lon="14.3070587"><ele>52.0</ele><time>2026-05-01T08:38:32.816Z</time></trkpt><trkpt lat="42.3461928" lon="14.3071299"><ele>52.0</ele><time>2026-05-01T08:38:33.807Z</time></trkpt><trkpt lat="42.3460906" lon="14.307165"><ele>52.25</ele><time>2026-05-01T08:38:34.797Z</time></trkpt><trkpt lat="42.3459962" lon="14.3072078"><ele>52.5</ele><time>2026-05-01T08:38:35.806Z</time></trkpt><trkpt lat="42.3458873" lon="14.3072606"><ele>52.75</ele><time>2026-05-01T08:38:36.805Z</time></trkpt><trkpt lat="42.3457682" lon="14.3073288"><ele>53.0</ele><time>2026-05-01T08:38:37.821Z</time></trkpt><trkpt lat="42.3456354" lon="14.3073967"><ele>51.333333333333336</ele><time>2026-05-01T08:38:38.809Z</time></trkpt><trkpt lat="42.3454944" lon="14.3074782"><ele>49.66666666666667</ele><time>2026-05-01T08:38:39.806Z</time></trkpt><trkpt lat="42.3453381" lon="14.3075691"><ele>48.0</ele><time>2026-05-01T08:38:40.808Z</time></trkpt><trkpt lat="42.3451724" lon="14.3076671"><ele>48.0</ele><time>2026-05-01T08:38:41.807Z</time></trkpt><trkpt lat="42.3450025" lon="14.30777"><ele>48.0</ele><time>2026-05-01T08:38:42.805Z</time></trkpt><trkpt lat="42.3448293" lon="14.3078729"><ele>48.0</ele><time>2026-05-01T08:38:43.809Z</time></trkpt><trkpt lat="42.3446565" lon="14.3079778"><ele>46.333333333333336</ele><time>2026-05-01T08:38:44.801Z</time></trkpt><trkpt lat="42.3444985" lon="14.3080796"><ele>44.66666666666667</ele><time>2026-05-01T08:38:45.815Z</time></trkpt><trkpt lat="42.3443478" lon="14.3081754"><ele>43.0</ele><time>2026-05-01T08:38:46.804Z</time></trkpt><trkpt lat="42.3442044" lon="14.3082724"><ele>43.0</ele><time>2026-05-01T08:38:47.801Z</time></trkpt><trkpt lat="42.3440693" lon="14.3083625"><ele>43.0</ele><time>2026-05-01T08:38:48.806Z</time></trkpt><trkpt lat="42.3439364" lon="14.3084353"><ele>43.0</ele><time>2026-05-01T08:38:49.796Z</time></trkpt><trkpt lat="42.3438142" lon="14.308485"><ele>43.0</ele><time>2026-05-01T08:38:50.806Z</time></trkpt><trkpt lat="42.3437036" lon="14.3085229"><ele>43.0</ele><time>2026-05-01T08:38:51.808Z</time></trkpt><trkpt lat="42.3436225" lon="14.3085312"><ele>43.0</ele><time>2026-05-01T08:38:52.803Z</time></trkpt><trkpt lat="42.3435587" lon="14.3085454"><ele>43.0</ele><time>2026-05-01T08:38:53.805Z</time></trkpt><trkpt lat="42.3434966" lon="14.308562"><ele>43.0</ele><time>2026-05-01T08:38:54.805Z</time></trkpt><trkpt lat="42.3433948" lon="14.3085581"><ele>43.0</ele><time>2026-05-01T08:38:56.805Z</time></trkpt><trkpt lat="42.3432803" lon="14.3085212"><ele>43.0</ele><time>2026-05-01T08:38:58.813Z</time></trkpt><trkpt lat="42.3432035" lon="14.3084742"><ele>43.0</ele><time>2026-05-01T08:38:59.802Z</time></trkpt><trkpt lat="42.3431408" lon="14.3084188"><ele>43.0</ele><time>2026-05-01T08:39:00.802Z</time></trkpt><trkpt lat="42.3430799" lon="14.3083601"><ele>43.0</ele><time>2026-05-01T08:39:01.801Z</time></trkpt><trkpt lat="42.3430238" lon="14.3083104"><ele>43.0</ele><time>2026-05-01T08:39:02.803Z</time></trkpt><trkpt lat="42.3429588" lon="14.3082502"><ele>43.0</ele><time>2026-05-01T08:39:03.802Z</time></trkpt><trkpt lat="42.3428801" lon="14.3081658"><ele>43.0</ele><time>2026-05-01T08:39:04.809Z</time></trkpt><trkpt lat="42.3427963" lon="14.3080783"><ele>44.0</ele><time>2026-05-01T08:39:05.809Z</time></trkpt><trkpt lat="42.3427186" lon="14.307992"><ele>45.0</ele><time>2026-05-01T08:39:06.8Z</time></trkpt><trkpt lat="42.3426392" lon="14.30792"><ele>46.0</ele><time>2026-05-01T08:39:07.796Z</time></trkpt><trkpt lat="42.3425601" lon="14.307865"><ele>47.0</ele><time>2026-05-01T08:39:08.817Z</time></trkpt><trkpt lat="42.3424831" lon="14.3078409"><ele>48.0</ele><time>2026-05-01T08:39:09.812Z</time></trkpt><trkpt lat="42.3423954" lon="14.3078288"><ele>48.0</ele><time>2026-05-01T08:39:10.8Z</time></trkpt><trkpt lat="42.342305" lon="14.3078431"><ele>48.0</ele><time>2026-05-01T08:39:11.804Z</time></trkpt><trkpt lat="42.3422115" lon="14.3078692"><ele>48.0</ele><time>2026-05-01T08:39:12.8Z</time></trkpt><trkpt lat="42.342119" lon="14.3079107"><ele>48.0</ele><time>2026-05-01T08:39:13.8Z</time></trkpt><trkpt lat="42.3420204" lon="14.3079567"><ele>48.0</ele><time>2026-05-01T08:39:14.796Z</time></trkpt><trkpt lat="42.3419307" lon="14.3080018"><ele>47.833333333333336</ele><time>2026-05-01T08:39:15.799Z</time></trkpt><trkpt lat="42.341846" lon="14.3080489"><ele>47.666666666666664</ele><time>2026-05-01T08:39:16.811Z</time></trkpt><trkpt lat="42.3417763" lon="14.3081041"><ele>47.5</ele><time>2026-05-01T08:39:17.809Z</time></trkpt><trkpt lat="42.3417099" lon="14.3081479"><ele>47.33333333333333</ele><time>2026-05-01T08:39:18.809Z</time></trkpt><trkpt lat="42.3416357" lon="14.3081916"><ele>47.166666666666664</ele><time>2026-05-01T08:39:19.798Z</time></trkpt><trkpt lat="42.3415374" lon="14.3082426"><ele>47.0</ele><time>2026-05-01T08:39:20.813Z</time></trkpt><trkpt lat="42.3414362" lon="14.3082971"><ele>46.5</ele><time>2026-05-01T08:39:21.808Z</time></trkpt><trkpt lat="42.3413486" lon="14.3083545"><ele>46.0</ele><time>2026-05-01T08:39:22.801Z</time></trkpt><trkpt lat="42.3412723" lon="14.3083922"><ele>45.5</ele><time>2026-05-01T08:39:23.805Z</time></trkpt><trkpt lat="42.3412052" lon="14.3084147"><ele>45.0</ele><time>2026-05-01T08:39:24.807Z</time></trkpt><trkpt lat="42.3411304" lon="14.3084458"><ele>44.5</ele><time>2026-05-01T08:39:25.796Z</time></trkpt><trkpt lat="42.3410587" lon="14.3084706"><ele>44.0</ele><time>2026-05-01T08:39:26.808Z</time></trkpt><trkpt lat="42.3409778" lon="14.3084974"><ele>44.0</ele><time>2026-05-01T08:39:28.805Z</time></trkpt><trkpt lat="42.3408625" lon="14.3085228"><ele>44.0</ele><time>2026-05-01T08:39:30.813Z</time></trkpt><trkpt lat="42.3407991" lon="14.3085415"><ele>44.0</ele><time>2026-05-01T08:39:31.808Z</time></trkpt><trkpt lat="42.3406809" lon="14.3085788"><ele>44.0</ele><time>2026-05-01T08:39:33.807Z</time></trkpt><trkpt lat="42.3406121" lon="14.3085904"><ele>44.0</ele><time>2026-05-01T08:39:34.798Z</time></trkpt><trkpt lat="42.3405254" lon="14.3085954"><ele>44.400000000000006</ele><time>2026-05-01T08:39:35.798Z</time></trkpt><trkpt lat="42.3404277" lon="14.308605"><ele>44.8</ele><time>2026-05-01T08:39:36.802Z</time></trkpt><trkpt lat="42.3403567" lon="14.3085912"><ele>45.2</ele><time>2026-05-01T08:39:37.81Z</time></trkpt><trkpt lat="42.3402544" lon="14.308597"><ele>45.599999999999994</ele><time>2026-05-01T08:39:39.801Z</time></trkpt><trkpt lat="42.3401324" lon="14.3086117"><ele>46.0</ele><time>2026-05-01T08:39:41.808Z</time></trkpt><trkpt lat="42.3400612" lon="14.308626"><ele>46.0</ele><time>2026-05-01T08:39:42.802Z</time></trkpt><trkpt lat="42.3399905" lon="14.3086298"><ele>46.0</ele><time>2026-05-01T08:39:43.796Z</time></trkpt><trkpt lat="42.3399248" lon="14.3086297"><ele>46.0</ele><time>2026-05-01T08:39:44.791Z</time></trkpt><trkpt lat="42.3398564" lon="14.308612"><ele>46.0</ele><time>2026-05-01T08:39:45.807Z</time></trkpt><trkpt lat="42.3397751" lon="14.3085783"><ele>46.0</ele><time>2026-05-01T08:39:46.802Z</time></trkpt><trkpt lat="42.339688" lon="14.3085302"><ele>46.0</ele><time>2026-05-01T08:39:47.811Z</time></trkpt><trkpt lat="42.3396048" lon="14.3084851"><ele>45.833333333333336</ele><time>2026-05-01T08:39:48.795Z</time></trkpt><trkpt lat="42.3395197" lon="14.3084372"><ele>45.66666666666667</ele><time>2026-05-01T08:39:49.802Z</time></trkpt><trkpt lat="42.3394379" lon="14.3083789"><ele>45.5</ele><time>2026-05-01T08:39:50.8Z</time></trkpt><trkpt lat="42.3393686" lon="14.308324"><ele>45.333333333333336</ele><time>2026-05-01T08:39:51.803Z</time></trkpt><trkpt lat="42.3393019" lon="14.3082717"><ele>45.166666666666664</ele><time>2026-05-01T08:39:52.802Z</time></trkpt><trkpt lat="42.3392352" lon="14.3082098"><ele>45.0</ele><time>2026-05-01T08:39:53.801Z</time></trkpt><trkpt lat="42.3391749" lon="14.3081213"><ele>45.6</ele><time>2026-05-01T08:39:54.796Z</time></trkpt><trkpt lat="42.3391123" lon="14.3080194"><ele>46.2</ele><time>2026-05-01T08:39:55.802Z</time></trkpt><trkpt lat="42.3390527" lon="14.3079105"><ele>46.8</ele><time>2026-05-01T08:39:56.808Z</time></trkpt><trkpt lat="42.338996" lon="14.3078084"><ele>47.4</ele><time>2026-05-01T08:39:57.799Z</time></trkpt><trkpt lat="42.3389416" lon="14.3077074"><ele>48.0</ele><time>2026-05-01T08:39:58.8Z</time></trkpt><trkpt lat="42.3388861" lon="14.3076056"><ele>47.833333333333336</ele><time>2026-05-01T08:39:59.792Z</time></trkpt><trkpt lat="42.3388336" lon="14.3075172"><ele>47.666666666666664</ele><time>2026-05-01T08:40:00.794Z</time></trkpt><trkpt lat="42.3387877" lon="14.3074438"><ele>47.5</ele><time>2026-05-01T08:40:01.799Z</time></trkpt><trkpt lat="42.3387304" lon="14.3073417"><ele>47.33333333333333</ele><time>2026-05-01T08:40:03.802Z</time></trkpt><trkpt lat="42.3386713" lon="14.3072771"><ele>47.166666666666664</ele><time>2026-05-01T08:40:05.795Z</time></trkpt><trkpt lat="42.3385766" lon="14.3071901"><ele>47.0</ele><time>2026-05-01T08:40:07.806Z</time></trkpt><trkpt lat="42.3385161" lon="14.3071317"><ele>47.714285714285715</ele><time>2026-05-01T08:40:08.829Z</time></trkpt><trkpt lat="42.3384388" lon="14.307061"><ele>48.42857142857143</ele><time>2026-05-01T08:40:09.815Z</time></trkpt><trkpt lat="42.338371" lon="14.3070049"><ele>49.14285714285714</ele><time>2026-05-01T08:40:10.797Z</time></trkpt><trkpt lat="42.3383124" lon="14.3069568"><ele>49.85714285714286</ele><time>2026-05-01T08:40:11.816Z</time></trkpt><trkpt lat="42.3382565" lon="14.3069098"><ele>50.57142857142858</ele><time>2026-05-01T08:40:12.805Z</time></trkpt><trkpt lat="42.3382021" lon="14.306859"><ele>51.285714285714285</ele><time>2026-05-01T08:40:13.808Z</time></trkpt><trkpt lat="42.338148" lon="14.3067994"><ele>52.0</ele><time>2026-05-01T08:40:14.807Z</time></trkpt><trkpt lat="42.3380534" lon="14.3067144"><ele>51.49999999999999</ele><time>2026-05-01T08:40:16.811Z</time></trkpt><trkpt lat="42.3379458" lon="14.3066612"><ele>51.0</ele><time>2026-05-01T08:40:18.837Z</time></trkpt><trkpt lat="42.3378789" lon="14.3066591"><ele>50.5</ele><time>2026-05-01T08:40:19.803Z</time></trkpt><trkpt lat="42.3377746" lon="14.3066627"><ele>50.0</ele><time>2026-05-01T08:40:21.807Z</time></trkpt><trkpt lat="42.3377052" lon="14.3066572"><ele>49.49999999999999</ele><time>2026-05-01T08:40:25.803Z</time></trkpt><trkpt lat="42.3376403" lon="14.3066881"><ele>49.0</ele><time>2026-05-01T08:40:27.798Z</time></trkpt><trkpt lat="42.3375583" lon="14.3067179"><ele>48.99999999999999</ele><time>2026-05-01T08:40:29.795Z</time></trkpt><trkpt lat="42.337476" lon="14.3067196"><ele>49.0</ele><time>2026-05-01T08:40:31.797Z</time></trkpt><trkpt lat="42.3374065" lon="14.3067212"><ele>49.0</ele><time>2026-05-01T08:40:32.803Z</time></trkpt><trkpt lat="42.3373305" lon="14.3067267"><ele>49.0</ele><time>2026-05-01T08:40:33.796Z</time></trkpt><trkpt lat="42.337244" lon="14.3067264"><ele>48.99999999999999</ele><time>2026-05-01T08:40:34.803Z</time></trkpt><trkpt lat="42.3371531" lon="14.3067202"><ele>49.0</ele><time>2026-05-01T08:40:35.799Z</time></trkpt><trkpt lat="42.3370684" lon="14.3066944"><ele>49.33333333333333</ele><time>2026-05-01T08:40:36.803Z</time></trkpt><trkpt lat="42.3369817" lon="14.3066736"><ele>49.666666666666664</ele><time>2026-05-01T08:40:37.803Z</time></trkpt><trkpt lat="42.336899" lon="14.3066508"><ele>50.0</ele><time>2026-05-01T08:40:38.812Z</time></trkpt><trkpt lat="42.3368126" lon="14.3066267"><ele>50.33333333333333</ele><time>2026-05-01T08:40:39.796Z</time></trkpt><trkpt lat="42.336733" lon="14.3066084"><ele>50.666666666666664</ele><time>2026-05-01T08:40:40.808Z</time></trkpt><trkpt lat="42.3366677" lon="14.3066004"><ele>51.0</ele><time>2026-05-01T08:40:41.805Z</time></trkpt><trkpt lat="42.3365739" lon="14.3065683"><ele>51.0</ele><time>2026-05-01T08:40:43.802Z</time></trkpt><trkpt lat="42.3364671" lon="14.3065446"><ele>51.0</ele><time>2026-05-01T08:40:45.798Z</time></trkpt><trkpt lat="42.3363679" lon="14.3065165"><ele>51.0</ele><time>2026-05-01T08:40:47.8Z</time></trkpt><trkpt lat="42.3362814" lon="14.306495"><ele>51.0</ele><time>2026-05-01T08:40:49.802Z</time></trkpt><trkpt lat="42.3362105" lon="14.3064549"><ele>51.0</ele><time>2026-05-01T08:40:51.804Z</time></trkpt><trkpt lat="42.3361605" lon="14.3064"><ele>51.0</ele><time>2026-05-01T08:41:03.796Z</time></trkpt><trkpt lat="42.3360983" lon="14.3063313"><ele>51.833333333333336</ele><time>2026-05-01T08:41:10.802Z</time></trkpt><trkpt lat="42.3360372" lon="14.3062848"><ele>52.66666666666667</ele><time>2026-05-01T08:41:54.807Z</time></trkpt><trkpt lat="42.3359622" lon="14.3062043"><ele>53.5</ele><time>2026-05-01T08:41:56.8Z</time></trkpt><trkpt lat="42.3358939" lon="14.306087"><ele>54.333333333333336</ele><time>2026-05-01T08:41:58.82Z</time></trkpt><trkpt lat="42.3358511" lon="14.3060101"><ele>55.16666666666667</ele><time>2026-05-01T08:41:59.811Z</time></trkpt><trkpt lat="42.3358019" lon="14.3059432"><ele>56.0</ele><time>2026-05-01T08:42:00.803Z</time></trkpt><trkpt lat="42.335711" lon="14.3058675"><ele>56.00000000000001</ele><time>2026-05-01T08:42:02.807Z</time></trkpt><trkpt lat="42.3356458" lon="14.3058246"><ele>56.0</ele><time>2026-05-01T08:42:04.816Z</time></trkpt><trkpt lat="42.3355962" lon="14.3057694"><ele>56.0</ele><time>2026-05-01T08:42:08.799Z</time></trkpt><trkpt lat="42.3356335" lon="14.3056482"><ele>56.0</ele><time>2026-05-01T08:42:11.8Z</time></trkpt><trkpt lat="42.3356567" lon="14.3055648"><ele>56.00000000000001</ele><time>2026-05-01T08:42:12.806Z</time></trkpt><trkpt lat="42.3356917" lon="14.3054738"><ele>56.0</ele><time>2026-05-01T08:42:13.796Z</time></trkpt><trkpt lat="42.335737" lon="14.3053544"><ele>57.16666666666667</ele><time>2026-05-01T08:42:14.807Z</time></trkpt><trkpt lat="42.3357798" lon="14.3052356"><ele>58.333333333333336</ele><time>2026-05-01T08:42:15.794Z</time></trkpt><trkpt lat="42.3358102" lon="14.3051418"><ele>59.5</ele><time>2026-05-01T08:42:16.828Z</time></trkpt><trkpt lat="42.3358345" lon="14.3050505"><ele>60.66666666666667</ele><time>2026-05-01T08:42:17.806Z</time></trkpt><trkpt lat="42.3358476" lon="14.3049512"><ele>61.833333333333336</ele><time>2026-05-01T08:42:18.809Z</time></trkpt><trkpt lat="42.3358348" lon="14.3048528"><ele>63.0</ele><time>2026-05-01T08:42:19.804Z</time></trkpt><trkpt lat="42.3358015" lon="14.3047464"><ele>64.4</ele><time>2026-05-01T08:42:20.812Z</time></trkpt><trkpt lat="42.3357508" lon="14.3046223"><ele>65.8</ele><time>2026-05-01T08:42:21.811Z</time></trkpt><trkpt lat="42.3356996" lon="14.3045026"><ele>67.2</ele><time>2026-05-01T08:42:22.817Z</time></trkpt><trkpt lat="42.3356365" lon="14.3044021"><ele>68.6</ele><time>2026-05-01T08:42:23.809Z</time></trkpt><trkpt lat="42.3355615" lon="14.3043299"><ele>70.0</ele><time>2026-05-01T08:42:24.826Z</time></trkpt><trkpt lat="42.3354921" lon="14.3042827"><ele>70.0</ele><time>2026-05-01T08:42:25.805Z</time></trkpt><trkpt lat="42.3354114" lon="14.304197"><ele>70.0</ele><time>2026-05-01T08:42:27.811Z</time></trkpt><trkpt lat="42.3353864" lon="14.3041168"><ele>70.0</ele><time>2026-05-01T08:42:28.805Z</time></trkpt><trkpt lat="42.3353649" lon="14.3040024"><ele>70.0</ele><time>2026-05-01T08:42:29.818Z</time></trkpt><trkpt lat="42.3353453" lon="14.3038991"><ele>70.0</ele><time>2026-05-01T08:42:30.802Z</time></trkpt><trkpt lat="42.3353045" lon="14.3038142"><ele>70.0</ele><time>2026-05-01T08:42:31.812Z</time></trkpt><trkpt lat="42.3352331" lon="14.303729"><ele>72.8</ele><time>2026-05-01T08:42:33.815Z</time></trkpt><trkpt lat="42.335233" lon="14.3036362"><ele>75.6</ele><time>2026-05-01T08:42:35.8Z</time></trkpt><trkpt lat="42.3352069" lon="14.3035578"><ele>78.4</ele><time>2026-05-01T08:42:38.813Z</time></trkpt><trkpt lat="42.3350743" lon="14.3035536"><ele>81.2</ele><time>2026-05-01T08:42:40.798Z</time></trkpt><trkpt lat="42.3349627" lon="14.3035365"><ele>84.0</ele><time>2026-05-01T08:42:41.823Z</time></trkpt><trkpt lat="42.3348411" lon="14.3034775"><ele>84.0</ele><time>2026-05-01T08:42:42.8Z</time></trkpt><trkpt lat="42.3347218" lon="14.3033838"><ele>84.0</ele><time>2026-05-01T08:42:43.812Z</time></trkpt><trkpt lat="42.334615" lon="14.3032768"><ele>84.0</ele><time>2026-05-01T08:42:44.803Z</time></trkpt><trkpt lat="42.3345124" lon="14.3031847"><ele>84.0</ele><time>2026-05-01T08:42:45.799Z</time></trkpt><trkpt lat="42.3344307" lon="14.3030736"><ele>82.8</ele><time>2026-05-01T08:42:46.813Z</time></trkpt><trkpt lat="42.3343606" lon="14.3029538"><ele>81.60000000000001</ele><time>2026-05-01T08:42:47.803Z</time></trkpt><trkpt lat="42.3342965" lon="14.3028367"><ele>80.4</ele><time>2026-05-01T08:42:48.813Z</time></trkpt><trkpt lat="42.3342463" lon="14.3027367"><ele>79.2</ele><time>2026-05-01T08:42:49.801Z</time></trkpt><trkpt lat="42.3341931" lon="14.3026431"><ele>78.0</ele><time>2026-05-01T08:42:50.824Z</time></trkpt><trkpt lat="42.3341418" lon="14.3025435"><ele>78.0</ele><time>2026-05-01T08:42:51.8Z</time></trkpt><trkpt lat="42.3340808" lon="14.3024274"><ele>78.0</ele><time>2026-05-01T08:42:52.809Z</time></trkpt><trkpt lat="42.3339836" lon="14.3023159"><ele>78.0</ele><time>2026-05-01T08:42:53.799Z</time></trkpt><trkpt lat="42.3338816" lon="14.3021976"><ele>78.0</ele><time>2026-05-01T08:42:54.805Z</time></trkpt><trkpt lat="42.3337751" lon="14.3020794"><ele>76.6</ele><time>2026-05-01T08:42:55.807Z</time></trkpt><trkpt lat="42.3336928" lon="14.3019488"><ele>75.19999999999999</ele><time>2026-05-01T08:42:56.803Z</time></trkpt><trkpt lat="42.3336418" lon="14.30182"><ele>73.8</ele><time>2026-05-01T08:42:57.808Z</time></trkpt><trkpt lat="42.3335777" lon="14.3017048"><ele>72.39999999999999</ele><time>2026-05-01T08:42:58.801Z</time></trkpt><trkpt lat="42.3335128" lon="14.3016105"><ele>71.0</ele><time>2026-05-01T08:42:59.817Z</time></trkpt><trkpt lat="42.3334484" lon="14.3015681"><ele>71.0</ele><time>2026-05-01T08:43:00.805Z</time></trkpt><trkpt lat="42.3333769" lon="14.301546"><ele>71.0</ele><time>2026-05-01T08:43:01.79Z</time></trkpt><trkpt lat="42.3333074" lon="14.3015491"><ele>71.0</ele><time>2026-05-01T08:43:02.791Z</time></trkpt><trkpt lat="42.3332222" lon="14.3015994"><ele>71.0</ele><time>2026-05-01T08:43:03.794Z</time></trkpt><trkpt lat="42.333125" lon="14.3016746"><ele>71.0</ele><time>2026-05-01T08:43:04.798Z</time></trkpt><trkpt lat="42.3330196" lon="14.3017538"><ele>70.0</ele><time>2026-05-01T08:43:05.789Z</time></trkpt><trkpt lat="42.332909" lon="14.3018192"><ele>69.0</ele><time>2026-05-01T08:43:06.797Z</time></trkpt><trkpt lat="42.3327896" lon="14.3018476"><ele>68.0</ele><time>2026-05-01T08:43:07.806Z</time></trkpt><trkpt lat="42.3326537" lon="14.3018419"><ele>67.0</ele><time>2026-05-01T08:43:08.805Z</time></trkpt><trkpt lat="42.332506" lon="14.3017808"><ele>67.0</ele><time>2026-05-01T08:43:09.814Z</time></trkpt><trkpt lat="42.3323593" lon="14.3017103"><ele>67.0</ele><time>2026-05-01T08:43:10.798Z</time></trkpt><trkpt lat="42.3322064" lon="14.30164"><ele>67.0</ele><time>2026-05-01T08:43:11.836Z</time></trkpt><trkpt lat="42.332059" lon="14.3015681"><ele>64.0</ele><time>2026-05-01T08:43:12.804Z</time></trkpt><trkpt lat="42.3319165" lon="14.3014831"><ele>61.0</ele><time>2026-05-01T08:43:13.81Z</time></trkpt><trkpt lat="42.3317844" lon="14.3013969"><ele>58.0</ele><time>2026-05-01T08:43:14.807Z</time></trkpt><trkpt lat="42.3316505" lon="14.3013127"><ele>59.75</ele><time>2026-05-01T08:43:15.805Z</time></trkpt><trkpt lat="42.3315076" lon="14.3012293"><ele>61.5</ele><time>2026-05-01T08:43:16.8Z</time></trkpt><trkpt lat="42.3313742" lon="14.301152"><ele>63.25</ele><time>2026-05-01T08:43:17.797Z</time></trkpt><trkpt lat="42.331251" lon="14.3010837"><ele>65.0</ele><time>2026-05-01T08:43:18.811Z</time></trkpt><trkpt lat="42.3311278" lon="14.3009983"><ele>65.0</ele><time>2026-05-01T08:43:19.804Z</time></trkpt><trkpt lat="42.331003" lon="14.3009118"><ele>65.0</ele><time>2026-05-01T08:43:20.806Z</time></trkpt><trkpt lat="42.330878" lon="14.3008136"><ele>65.0</ele><time>2026-05-01T08:43:21.802Z</time></trkpt><trkpt lat="42.3307546" lon="14.300723"><ele>65.0</ele><time>2026-05-01T08:43:22.808Z</time></trkpt><trkpt lat="42.330628" lon="14.3006467"><ele>64.75</ele><time>2026-05-01T08:43:23.811Z</time></trkpt><trkpt lat="42.3304868" lon="14.3005859"><ele>64.5</ele><time>2026-05-01T08:43:24.807Z</time></trkpt><trkpt lat="42.330354" lon="14.3005327"><ele>64.25</ele><time>2026-05-01T08:43:25.8Z</time></trkpt><trkpt lat="42.330227" lon="14.3004928"><ele>64.0</ele><time>2026-05-01T08:43:26.795Z</time></trkpt><trkpt lat="42.3301036" lon="14.3004541"><ele>64.0</ele><time>2026-05-01T08:43:27.823Z</time></trkpt><trkpt lat="42.3299806" lon="14.3004238"><ele>64.0</ele><time>2026-05-01T08:43:28.8Z</time></trkpt><trkpt lat="42.3298526" lon="14.300399"><ele>64.0</ele><time>2026-05-01T08:43:29.798Z</time></trkpt><trkpt lat="42.3297148" lon="14.300363"><ele>64.0</ele><time>2026-05-01T08:43:30.803Z</time></trkpt><trkpt lat="42.3295795" lon="14.3003254"><ele>64.0</ele><time>2026-05-01T08:43:31.795Z</time></trkpt><trkpt lat="42.3294423" lon="14.3002861"><ele>64.0</ele><time>2026-05-01T08:43:32.804Z</time></trkpt><trkpt lat="42.3293041" lon="14.300256"><ele>64.0</ele><time>2026-05-01T08:43:33.79Z</time></trkpt><trkpt lat="42.3291554" lon="14.3002272"><ele>64.0</ele><time>2026-05-01T08:43:34.798Z</time></trkpt><trkpt lat="42.3290006" lon="14.3001842"><ele>63.33333333333333</ele><time>2026-05-01T08:43:35.796Z</time></trkpt><trkpt lat="42.328843" lon="14.3001353"><ele>62.66666666666667</ele><time>2026-05-01T08:43:36.803Z</time></trkpt><trkpt lat="42.3286885" lon="14.3000887"><ele>62.0</ele><time>2026-05-01T08:43:37.802Z</time></trkpt><trkpt lat="42.3285483" lon="14.3000382"><ele>62.0</ele><time>2026-05-01T08:43:38.81Z</time></trkpt><trkpt lat="42.3284182" lon="14.2999848"><ele>62.0</ele><time>2026-05-01T08:43:39.827Z</time></trkpt><trkpt lat="42.3282911" lon="14.2999218"><ele>62.0</ele><time>2026-05-01T08:43:40.799Z</time></trkpt><trkpt lat="42.3281529" lon="14.2998561"><ele>62.0</ele><time>2026-05-01T08:43:41.803Z</time></trkpt><trkpt lat="42.3280081" lon="14.2997846"><ele>63.66666666666667</ele><time>2026-05-01T08:43:42.807Z</time></trkpt><trkpt lat="42.3278648" lon="14.2997103"><ele>65.33333333333333</ele><time>2026-05-01T08:43:43.809Z</time></trkpt><trkpt lat="42.3277131" lon="14.2996334"><ele>67.0</ele><time>2026-05-01T08:43:44.814Z</time></trkpt><trkpt lat="42.3275639" lon="14.2995444"><ele>67.0</ele><time>2026-05-01T08:43:45.794Z</time></trkpt><trkpt lat="42.3274106" lon="14.2994445"><ele>67.0</ele><time>2026-05-01T08:43:46.816Z</time></trkpt><trkpt lat="42.3272505" lon="14.2993427"><ele>67.0</ele><time>2026-05-01T08:43:47.8Z</time></trkpt><trkpt lat="42.3270843" lon="14.2992406"><ele>66.33333333333333</ele><time>2026-05-01T08:43:48.798Z</time></trkpt><trkpt lat="42.3269102" lon="14.2991419"><ele>65.66666666666667</ele><time>2026-05-01T08:43:49.807Z</time></trkpt><trkpt lat="42.3267392" lon="14.299042"><ele>65.0</ele><time>2026-05-01T08:43:50.809Z</time></trkpt><trkpt lat="42.3265687" lon="14.2989309"><ele>66.5</ele><time>2026-05-01T08:43:51.812Z</time></trkpt><trkpt lat="42.3264138" lon="14.2988273"><ele>68.0</ele><time>2026-05-01T08:43:52.817Z</time></trkpt><trkpt lat="42.3262823" lon="14.2987415"><ele>69.5</ele><time>2026-05-01T08:43:53.812Z</time></trkpt><trkpt lat="42.3261801" lon="14.2986577"><ele>71.0</ele><time>2026-05-01T08:43:54.804Z</time></trkpt><trkpt lat="42.326103" lon="14.2985626"><ele>71.0</ele><time>2026-05-01T08:43:55.815Z</time></trkpt><trkpt lat="42.3260484" lon="14.2984497"><ele>71.0</ele><time>2026-05-01T08:43:56.805Z</time></trkpt><trkpt lat="42.3260027" lon="14.2982988"><ele>71.0</ele><time>2026-05-01T08:43:57.829Z</time></trkpt><trkpt lat="42.3259675" lon="14.2981677"><ele>71.0</ele><time>2026-05-01T08:43:58.792Z</time></trkpt><trkpt lat="42.3259183" lon="14.298081"><ele>71.0</ele><time>2026-05-01T08:43:59.82Z</time></trkpt><trkpt lat="42.3258356" lon="14.298009"><ele>72.25</ele><time>2026-05-01T08:44:00.811Z</time></trkpt><trkpt lat="42.325725" lon="14.2979889"><ele>73.5</ele><time>2026-05-01T08:44:01.802Z</time></trkpt><trkpt lat="42.3256034" lon="14.2980135"><ele>74.75</ele><time>2026-05-01T08:44:02.8Z</time></trkpt><trkpt lat="42.3254804" lon="14.2980671"><ele>76.0</ele><time>2026-05-01T08:44:03.806Z</time></trkpt><trkpt lat="42.3253579" lon="14.2981332"><ele>76.0</ele><time>2026-05-01T08:44:04.798Z</time></trkpt><trkpt lat="42.3252251" lon="14.2982001"><ele>76.0</ele><time>2026-05-01T08:44:05.803Z</time></trkpt><trkpt lat="42.32511" lon="14.2982611"><ele>76.0</ele><time>2026-05-01T08:44:06.805Z</time></trkpt><trkpt lat="42.3250124" lon="14.2983125"><ele>76.0</ele><time>2026-05-01T08:44:07.82Z</time></trkpt><trkpt lat="42.3249238" lon="14.2983629"><ele>76.0</ele><time>2026-05-01T08:44:08.803Z</time></trkpt><trkpt lat="42.3248395" lon="14.2983988"><ele>76.0</ele><time>2026-05-01T08:44:09.804Z</time></trkpt><trkpt lat="42.3247453" lon="14.2984091"><ele>76.0</ele><time>2026-05-01T08:44:10.808Z</time></trkpt><trkpt lat="42.3246399" lon="14.2983752"><ele>76.0</ele><time>2026-05-01T08:44:11.803Z</time></trkpt><trkpt lat="42.3245309" lon="14.2983216"><ele>76.0</ele><time>2026-05-01T08:44:12.808Z</time></trkpt><trkpt lat="42.3244245" lon="14.2982488"><ele>77.0</ele><time>2026-05-01T08:44:13.807Z</time></trkpt><trkpt lat="42.3243176" lon="14.2981693"><ele>78.0</ele><time>2026-05-01T08:44:14.809Z</time></trkpt><trkpt lat="42.3242136" lon="14.2980878"><ele>79.0</ele><time>2026-05-01T08:44:15.813Z</time></trkpt><trkpt lat="42.3241065" lon="14.2979943"><ele>80.0</ele><time>2026-05-01T08:44:16.801Z</time></trkpt><trkpt lat="42.3239994" lon="14.297894"><ele>82.0</ele><time>2026-05-01T08:44:17.812Z</time></trkpt><trkpt lat="42.3238957" lon="14.2977821"><ele>84.0</ele><time>2026-05-01T08:44:18.792Z</time></trkpt><trkpt lat="42.3237892" lon="14.2976733"><ele>86.0</ele><time>2026-05-01T08:44:19.807Z</time></trkpt><trkpt lat="42.3236709" lon="14.297575"><ele>88.0</ele><time>2026-05-01T08:44:20.806Z</time></trkpt><trkpt lat="42.3235406" lon="14.2974872"><ele>88.0</ele><time>2026-05-01T08:44:21.806Z</time></trkpt><trkpt lat="42.3234028" lon="14.2974066"><ele>88.0</ele><time>2026-05-01T08:44:22.807Z</time></trkpt><trkpt lat="42.3232656" lon="14.2973351"><ele>88.0</ele><time>2026-05-01T08:44:23.809Z</time></trkpt><trkpt lat="42.3231329" lon="14.2972691"><ele>88.0</ele><time>2026-05-01T08:44:24.804Z</time></trkpt><trkpt lat="42.3230031" lon="14.2971956"><ele>91.75</ele><time>2026-05-01T08:44:25.807Z</time></trkpt><trkpt lat="42.322878" lon="14.2971278"><ele>95.5</ele><time>2026-05-01T08:44:26.8Z</time></trkpt><trkpt lat="42.3227457" lon="14.2970561"><ele>99.25</ele><time>2026-05-01T08:44:27.806Z</time></trkpt><trkpt lat="42.3226073" lon="14.2969925"><ele>103.0</ele><time>2026-05-01T08:44:28.807Z</time></trkpt><trkpt lat="42.3224482" lon="14.2969381"><ele>103.0</ele><time>2026-05-01T08:44:29.819Z</time></trkpt><trkpt lat="42.3222959" lon="14.2968989"><ele>103.0</ele><time>2026-05-01T08:44:30.804Z</time></trkpt><trkpt lat="42.3221594" lon="14.2968591"><ele>103.0</ele><time>2026-05-01T08:44:31.802Z</time></trkpt><trkpt lat="42.3220298" lon="14.296813"><ele>103.0</ele><time>2026-05-01T08:44:32.802Z</time></trkpt><trkpt lat="42.3218948" lon="14.2967675"><ele>102.25</ele><time>2026-05-01T08:44:33.806Z</time></trkpt><trkpt lat="42.3217621" lon="14.296715"><ele>101.5</ele><time>2026-05-01T08:44:34.807Z</time></trkpt><trkpt lat="42.3216466" lon="14.2966496"><ele>100.75</ele><time>2026-05-01T08:44:35.805Z</time></trkpt><trkpt lat="42.3215333" lon="14.2965788"><ele>100.0</ele><time>2026-05-01T08:44:36.854Z</time></trkpt><trkpt lat="42.3214169" lon="14.2964979"><ele>100.5</ele><time>2026-05-01T08:44:37.809Z</time></trkpt><trkpt lat="42.3213131" lon="14.2963966"><ele>101.0</ele><time>2026-05-01T08:44:38.807Z</time></trkpt><trkpt lat="42.3212158" lon="14.2962714"><ele>101.5</ele><time>2026-05-01T08:44:39.802Z</time></trkpt><trkpt lat="42.3211165" lon="14.2961362"><ele>102.0</ele><time>2026-05-01T08:44:40.808Z</time></trkpt><trkpt lat="42.321017" lon="14.2960098"><ele>102.0</ele><time>2026-05-01T08:44:41.801Z</time></trkpt><trkpt lat="42.3208929" lon="14.2959096"><ele>102.0</ele><time>2026-05-01T08:44:42.809Z</time></trkpt><trkpt lat="42.3207591" lon="14.2958234"><ele>102.0</ele><time>2026-05-01T08:44:43.821Z</time></trkpt><trkpt lat="42.3206224" lon="14.2957453"><ele>102.0</ele><time>2026-05-01T08:44:44.801Z</time></trkpt><trkpt lat="42.3204965" lon="14.2956717"><ele>101.0</ele><time>2026-05-01T08:44:45.814Z</time></trkpt><trkpt lat="42.3203867" lon="14.2956112"><ele>100.0</ele><time>2026-05-01T08:44:46.8Z</time></trkpt><trkpt lat="42.3202837" lon="14.2955615"><ele>99.0</ele><time>2026-05-01T08:44:47.819Z</time></trkpt><trkpt lat="42.3201779" lon="14.2955093"><ele>98.0</ele><time>2026-05-01T08:44:48.822Z</time></trkpt><trkpt lat="42.3200777" lon="14.2954584"><ele>97.0</ele><time>2026-05-01T08:44:49.83Z</time></trkpt><trkpt lat="42.3199809" lon="14.2954127"><ele>99.16666666666667</ele><time>2026-05-01T08:44:50.819Z</time></trkpt><trkpt lat="42.3198958" lon="14.2953709"><ele>101.33333333333334</ele><time>2026-05-01T08:44:51.809Z</time></trkpt><trkpt lat="42.3198245" lon="14.2953271"><ele>103.5</ele><time>2026-05-01T08:44:52.826Z</time></trkpt><trkpt lat="42.3197809" lon="14.2952475"><ele>105.66666666666666</ele><time>2026-05-01T08:44:53.803Z</time></trkpt><trkpt lat="42.3197694" lon="14.2951414"><ele>107.83333333333333</ele><time>2026-05-01T08:44:54.808Z</time></trkpt><trkpt lat="42.3197799" lon="14.2950058"><ele>110.0</ele><time>2026-05-01T08:44:55.803Z</time></trkpt><trkpt lat="42.3197982" lon="14.2948795"><ele>110.0</ele><time>2026-05-01T08:44:56.806Z</time></trkpt><trkpt lat="42.319779" lon="14.2947748"><ele>110.0</ele><time>2026-05-01T08:44:57.809Z</time></trkpt><trkpt lat="42.319666" lon="14.2947322"><ele>110.0</ele><time>2026-05-01T08:44:59.819Z</time></trkpt><trkpt lat="42.3196" lon="14.2947952"><ele>110.0</ele><time>2026-05-01T08:45:00.804Z</time></trkpt><trkpt lat="42.3195225" lon="14.2948683"><ele>110.0</ele><time>2026-05-01T08:45:01.801Z</time></trkpt><trkpt lat="42.3194053" lon="14.2949065"><ele>110.0</ele><time>2026-05-01T08:45:03.814Z</time></trkpt><trkpt lat="42.3193265" lon="14.2948104"><ele>110.0</ele><time>2026-05-01T08:45:04.805Z</time></trkpt><trkpt lat="42.3192494" lon="14.2946775"><ele>110.0</ele><time>2026-05-01T08:45:05.807Z</time></trkpt><trkpt lat="42.3191825" lon="14.2945536"><ele>110.0</ele><time>2026-05-01T08:45:06.81Z</time></trkpt><trkpt lat="42.3191126" lon="14.2944496"><ele>110.0</ele><time>2026-05-01T08:45:07.805Z</time></trkpt><trkpt lat="42.3190338" lon="14.2943518"><ele>110.0</ele><time>2026-05-01T08:45:08.815Z</time></trkpt><trkpt lat="42.3189466" lon="14.2942399"><ele>110.0</ele><time>2026-05-01T08:45:09.811Z</time></trkpt><trkpt lat="42.3188626" lon="14.2941041"><ele>110.0</ele><time>2026-05-01T08:45:10.8Z</time></trkpt><trkpt lat="42.3187786" lon="14.2939525"><ele>110.0</ele><time>2026-05-01T08:45:11.813Z</time></trkpt><trkpt lat="42.3187062" lon="14.2937964"><ele>109.5</ele><time>2026-05-01T08:45:12.81Z</time></trkpt><trkpt lat="42.3186333" lon="14.2936409"><ele>109.0</ele><time>2026-05-01T08:45:13.799Z</time></trkpt><trkpt lat="42.3185702" lon="14.293482"><ele>108.5</ele><time>2026-05-01T08:45:14.811Z</time></trkpt><trkpt lat="42.3185013" lon="14.2933572"><ele>108.0</ele><time>2026-05-01T08:45:15.806Z</time></trkpt><trkpt lat="42.318412" lon="14.2932546"><ele>108.0</ele><time>2026-05-01T08:45:16.803Z</time></trkpt><trkpt lat="42.3183092" lon="14.2931735"><ele>108.00000000000001</ele><time>2026-05-01T08:45:17.798Z</time></trkpt><trkpt lat="42.3182073" lon="14.2931144"><ele>108.00000000000001</ele><time>2026-05-01T08:45:18.81Z</time></trkpt><trkpt lat="42.3181144" lon="14.2930639"><ele>108.0</ele><time>2026-05-01T08:45:19.8Z</time></trkpt><trkpt lat="42.3180375" lon="14.293018"><ele>108.0</ele><time>2026-05-01T08:45:20.802Z</time></trkpt><trkpt lat="42.3179543" lon="14.2929589"><ele>108.4</ele><time>2026-05-01T08:45:21.812Z</time></trkpt><trkpt lat="42.3178611" lon="14.2929043"><ele>108.80000000000001</ele><time>2026-05-01T08:45:22.806Z</time></trkpt><trkpt lat="42.3177607" lon="14.2928463"><ele>109.2</ele><time>2026-05-01T08:45:23.801Z</time></trkpt><trkpt lat="42.3176536" lon="14.2927898"><ele>109.6</ele><time>2026-05-01T08:45:24.803Z</time></trkpt><trkpt lat="42.3175435" lon="14.2927269"><ele>110.0</ele><time>2026-05-01T08:45:25.811Z</time></trkpt><trkpt lat="42.317441" lon="14.2926571"><ele>110.0</ele><time>2026-05-01T08:45:26.808Z</time></trkpt><trkpt lat="42.3173579" lon="14.2926042"><ele>110.0</ele><time>2026-05-01T08:45:27.801Z</time></trkpt><trkpt lat="42.3172669" lon="14.2925804"><ele>110.0</ele><time>2026-05-01T08:45:28.802Z</time></trkpt><trkpt lat="42.317154" lon="14.2925879"><ele>110.0</ele><time>2026-05-01T08:45:29.8Z</time></trkpt><trkpt lat="42.3170241" lon="14.2926252"><ele>110.0</ele><time>2026-05-01T08:45:30.805Z</time></trkpt><trkpt lat="42.3168917" lon="14.2926499"><ele>107.5</ele><time>2026-05-01T08:45:31.813Z</time></trkpt><trkpt lat="42.3167575" lon="14.2926461"><ele>105.0</ele><time>2026-05-01T08:45:32.806Z</time></trkpt><trkpt lat="42.3166117" lon="14.2926207"><ele>102.5</ele><time>2026-05-01T08:45:33.803Z</time></trkpt><trkpt lat="42.3164768" lon="14.292591"><ele>100.0</ele><time>2026-05-01T08:45:34.804Z</time></trkpt><trkpt lat="42.3163511" lon="14.2925452"><ele>100.5</ele><time>2026-05-01T08:45:35.803Z</time></trkpt><trkpt lat="42.316227" lon="14.2924523"><ele>101.0</ele><time>2026-05-01T08:45:36.807Z</time></trkpt><trkpt lat="42.3161072" lon="14.2923401"><ele>101.5</ele><time>2026-05-01T08:45:37.803Z</time></trkpt><trkpt lat="42.3159921" lon="14.2922398"><ele>102.0</ele><time>2026-05-01T08:45:38.81Z</time></trkpt><trkpt lat="42.3158732" lon="14.2921641"><ele>102.0</ele><time>2026-05-01T08:45:39.812Z</time></trkpt><trkpt lat="42.3157502" lon="14.2921042"><ele>102.0</ele><time>2026-05-01T08:45:40.802Z</time></trkpt><trkpt lat="42.3156145" lon="14.2920543"><ele>102.0</ele><time>2026-05-01T08:45:41.812Z</time></trkpt><trkpt lat="42.3154779" lon="14.2920121"><ele>102.0</ele><time>2026-05-01T08:45:42.81Z</time></trkpt><trkpt lat="42.3153317" lon="14.2919757"><ele>98.5</ele><time>2026-05-01T08:45:43.809Z</time></trkpt><trkpt lat="42.3151885" lon="14.2919431"><ele>95.0</ele><time>2026-05-01T08:45:44.799Z</time></trkpt><trkpt lat="42.3150525" lon="14.2919052"><ele>91.5</ele><time>2026-05-01T08:45:45.81Z</time></trkpt><trkpt lat="42.3149201" lon="14.2918683"><ele>88.0</ele><time>2026-05-01T08:45:46.804Z</time></trkpt><trkpt lat="42.3147861" lon="14.2918333"><ele>87.0</ele><time>2026-05-01T08:45:47.799Z</time></trkpt><trkpt lat="42.3146449" lon="14.2918"><ele>86.0</ele><time>2026-05-01T08:45:48.819Z</time></trkpt><trkpt lat="42.3144941" lon="14.2917699"><ele>85.0</ele><time>2026-05-01T08:45:49.803Z</time></trkpt><trkpt lat="42.3143397" lon="14.291746"><ele>85.0</ele><time>2026-05-01T08:45:50.817Z</time></trkpt><trkpt lat="42.3141843" lon="14.2917208"><ele>85.0</ele><time>2026-05-01T08:45:51.811Z</time></trkpt><trkpt lat="42.3140348" lon="14.2917062"><ele>85.0</ele><time>2026-05-01T08:45:52.811Z</time></trkpt><trkpt lat="42.3139024" lon="14.2917005"><ele>85.0</ele><time>2026-05-01T08:45:53.801Z</time></trkpt><trkpt lat="42.3137978" lon="14.2916969"><ele>85.4</ele><time>2026-05-01T08:45:54.805Z</time></trkpt><trkpt lat="42.3137036" lon="14.2916814"><ele>85.8</ele><time>2026-05-01T08:45:55.798Z</time></trkpt><trkpt lat="42.3136097" lon="14.2916341"><ele>86.19999999999999</ele><time>2026-05-01T08:45:56.804Z</time></trkpt><trkpt lat="42.3135044" lon="14.2915558"><ele>86.6</ele><time>2026-05-01T08:45:57.801Z</time></trkpt><trkpt lat="42.3134073" lon="14.2914424"><ele>87.0</ele><time>2026-05-01T08:45:58.801Z</time></trkpt><trkpt lat="42.3133251" lon="14.2913198"><ele>88.8</ele><time>2026-05-01T08:45:59.83Z</time></trkpt><trkpt lat="42.3132675" lon="14.2912245"><ele>90.6</ele><time>2026-05-01T08:46:00.813Z</time></trkpt><trkpt lat="42.3132173" lon="14.2911012"><ele>92.39999999999999</ele><time>2026-05-01T08:46:02.813Z</time></trkpt><trkpt lat="42.3132344" lon="14.2912076"><ele>94.19999999999999</ele><time>2026-05-01T08:46:13.803Z</time></trkpt><trkpt lat="42.3132951" lon="14.2912998"><ele>96.0</ele><time>2026-05-01T08:46:14.802Z</time></trkpt><trkpt lat="42.3133634" lon="14.2913992"><ele>94.5</ele><time>2026-05-01T08:46:15.796Z</time></trkpt><trkpt lat="42.3134353" lon="14.2914873"><ele>93.0</ele><time>2026-05-01T08:46:16.806Z</time></trkpt><trkpt lat="42.3135031" lon="14.2915581"><ele>91.5</ele><time>2026-05-01T08:46:17.802Z</time></trkpt><trkpt lat="42.3135719" lon="14.2916129"><ele>90.0</ele><time>2026-05-01T08:46:18.808Z</time></trkpt><trkpt lat="42.3136369" lon="14.291645"><ele>88.5</ele><time>2026-05-01T08:46:19.803Z</time></trkpt><trkpt lat="42.3137027" lon="14.2917092"><ele>87.0</ele><time>2026-05-01T08:46:21.802Z</time></trkpt><trkpt lat="42.3136534" lon="14.291789"><ele>87.0</ele><time>2026-05-01T08:46:24.798Z</time></trkpt><trkpt lat="42.3135887" lon="14.2918077"><ele>87.0</ele><time>2026-05-01T08:46:53.805Z</time></trkpt><trkpt lat="42.3134952" lon="14.2918182"><ele>87.0</ele><time>2026-05-01T08:46:55.812Z</time></trkpt><trkpt lat="42.3134279" lon="14.2918124"><ele>87.0</ele><time>2026-05-01T08:46:56.802Z</time></trkpt><trkpt lat="42.3133542" lon="14.2918044"><ele>87.0</ele><time>2026-05-01T08:46:57.802Z</time></trkpt><trkpt lat="42.3132282" lon="14.2918072"><ele>87.0</ele><time>2026-05-01T08:46:59.8Z</time></trkpt><trkpt lat="42.3131574" lon="14.2918243"><ele>87.0</ele><time>2026-05-01T08:47:00.822Z</time></trkpt><trkpt lat="42.313083" lon="14.2918393"><ele>87.0</ele><time>2026-05-01T08:47:01.808Z</time></trkpt><trkpt lat="42.3130195" lon="14.2918304"><ele>87.0</ele><time>2026-05-01T08:47:02.792Z</time></trkpt><trkpt lat="42.3129184" lon="14.2917661"><ele>87.0</ele><time>2026-05-01T08:47:04.802Z</time></trkpt><trkpt lat="42.3128436" lon="14.2916412"><ele>87.0</ele><time>2026-05-01T08:47:06.807Z</time></trkpt><trkpt lat="42.3128385" lon="14.2915545"><ele>87.0</ele><time>2026-05-01T08:47:07.8Z</time></trkpt><trkpt lat="42.3128306" lon="14.2914596"><ele>88.16666666666667</ele><time>2026-05-01T08:47:08.796Z</time></trkpt><trkpt lat="42.3128134" lon="14.2913636"><ele>89.33333333333333</ele><time>2026-05-01T08:47:09.795Z</time></trkpt><trkpt lat="42.3127821" lon="14.2912723"><ele>90.5</ele><time>2026-05-01T08:47:10.799Z</time></trkpt><trkpt lat="42.3127254" lon="14.2911921"><ele>91.66666666666666</ele><time>2026-05-01T08:47:11.802Z</time></trkpt><trkpt lat="42.3126595" lon="14.2911195"><ele>92.83333333333333</ele><time>2026-05-01T08:47:12.799Z</time></trkpt><trkpt lat="42.3125926" lon="14.291068"><ele>94.0</ele><time>2026-05-01T08:47:13.807Z</time></trkpt><trkpt lat="42.3125344" lon="14.2910331"><ele>94.0</ele><time>2026-05-01T08:47:14.806Z</time></trkpt><trkpt lat="42.3124102" lon="14.2910288"><ele>94.0</ele><time>2026-05-01T08:47:16.803Z</time></trkpt><trkpt lat="42.3123192" lon="14.2910621"><ele>94.0</ele><time>2026-05-01T08:47:17.813Z</time></trkpt><trkpt lat="42.3122275" lon="14.2911129"><ele>94.0</ele><time>2026-05-01T08:47:18.808Z</time></trkpt><trkpt lat="42.3121432" lon="14.291162"><ele>94.0</ele><time>2026-05-01T08:47:19.796Z</time></trkpt><trkpt lat="42.3120804" lon="14.291202"><ele>94.16666666666666</ele><time>2026-05-01T08:47:20.801Z</time></trkpt><trkpt lat="42.3119718" lon="14.2912573"><ele>94.33333333333333</ele><time>2026-05-01T08:47:22.799Z</time></trkpt><trkpt lat="42.311906" lon="14.2912612"><ele>94.5</ele><time>2026-05-01T08:47:23.813Z</time></trkpt><trkpt lat="42.311801" lon="14.2912506"><ele>94.66666666666667</ele><time>2026-05-01T08:47:25.805Z</time></trkpt><trkpt lat="42.3117356" lon="14.2912503"><ele>94.83333333333334</ele><time>2026-05-01T08:47:27.811Z</time></trkpt><trkpt lat="42.3116701" lon="14.2912496"><ele>95.0</ele><time>2026-05-01T08:47:29.815Z</time></trkpt><trkpt lat="42.3115651" lon="14.291327"><ele>95.0</ele><time>2026-05-01T08:47:31.813Z</time></trkpt><trkpt lat="42.3115073" lon="14.2913741"><ele>95.0</ele><time>2026-05-01T08:47:32.82Z</time></trkpt><trkpt lat="42.3114319" lon="14.2914119"><ele>95.0</ele><time>2026-05-01T08:47:33.797Z</time></trkpt><trkpt lat="42.3113529" lon="14.2914403"><ele>95.0</ele><time>2026-05-01T08:47:34.809Z</time></trkpt><trkpt lat="42.3112809" lon="14.2914346"><ele>95.0</ele><time>2026-05-01T08:47:35.8Z</time></trkpt><trkpt lat="42.3111993" lon="14.2913824"><ele>95.0</ele><time>2026-05-01T08:47:36.802Z</time></trkpt><trkpt lat="42.3111298" lon="14.2912975"><ele>95.6</ele><time>2026-05-01T08:47:37.806Z</time></trkpt><trkpt lat="42.3110596" lon="14.291197"><ele>96.2</ele><time>2026-05-01T08:47:38.814Z</time></trkpt><trkpt lat="42.3109968" lon="14.2911004"><ele>96.80000000000001</ele><time>2026-05-01T08:47:39.813Z</time></trkpt><trkpt lat="42.3109315" lon="14.2910105"><ele>97.4</ele><time>2026-05-01T08:47:40.803Z</time></trkpt><trkpt lat="42.3108493" lon="14.290935"><ele>98.0</ele><time>2026-05-01T08:47:41.811Z</time></trkpt><trkpt lat="42.3107578" lon="14.2908775"><ele>98.0</ele><time>2026-05-01T08:47:42.802Z</time></trkpt><trkpt lat="42.310663" lon="14.2908279"><ele>98.0</ele><time>2026-05-01T08:47:43.804Z</time></trkpt><trkpt lat="42.3105709" lon="14.2907783"><ele>98.0</ele><time>2026-05-01T08:47:44.802Z</time></trkpt><trkpt lat="42.3104859" lon="14.2907399"><ele>98.0</ele><time>2026-05-01T08:47:45.821Z</time></trkpt><trkpt lat="42.3103967" lon="14.2907157"><ele>98.0</ele><time>2026-05-01T08:47:46.797Z</time></trkpt><trkpt lat="42.3102991" lon="14.2907028"><ele>100.0</ele><time>2026-05-01T08:47:47.807Z</time></trkpt><trkpt lat="42.3101956" lon="14.2906975"><ele>102.0</ele><time>2026-05-01T08:47:48.818Z</time></trkpt><trkpt lat="42.3100845" lon="14.2906948"><ele>104.00000000000001</ele><time>2026-05-01T08:47:49.807Z</time></trkpt><trkpt lat="42.3099774" lon="14.2906835"><ele>106.0</ele><time>2026-05-01T08:47:50.812Z</time></trkpt><trkpt lat="42.3098724" lon="14.2906702"><ele>108.0</ele><time>2026-05-01T08:47:51.803Z</time></trkpt><trkpt lat="42.3097724" lon="14.2906502"><ele>109.4</ele><time>2026-05-01T08:47:52.808Z</time></trkpt><trkpt lat="42.3097024" lon="14.2906263"><ele>110.80000000000001</ele><time>2026-05-01T08:47:53.806Z</time></trkpt><trkpt lat="42.3096207" lon="14.2905996"><ele>112.2</ele><time>2026-05-01T08:47:55.809Z</time></trkpt><trkpt lat="42.3095292" lon="14.2906587"><ele>113.6</ele><time>2026-05-01T08:47:57.813Z</time></trkpt><trkpt lat="42.3094481" lon="14.2907581"><ele>115.0</ele><time>2026-05-01T08:47:58.801Z</time></trkpt><trkpt lat="42.3093599" lon="14.290873"><ele>115.0</ele><time>2026-05-01T08:47:59.805Z</time></trkpt><trkpt lat="42.3092728" lon="14.2909854"><ele>115.0</ele><time>2026-05-01T08:48:00.799Z</time></trkpt><trkpt lat="42.3091674" lon="14.2910851"><ele>115.0</ele><time>2026-05-01T08:48:01.805Z</time></trkpt><trkpt lat="42.3090506" lon="14.2911769"><ele>115.0</ele><time>2026-05-01T08:48:02.807Z</time></trkpt><trkpt lat="42.308935" lon="14.2912431"><ele>114.6</ele><time>2026-05-01T08:48:03.802Z</time></trkpt><trkpt lat="42.3088214" lon="14.2912988"><ele>114.2</ele><time>2026-05-01T08:48:04.818Z</time></trkpt><trkpt lat="42.3087193" lon="14.2913459"><ele>113.80000000000001</ele><time>2026-05-01T08:48:05.791Z</time></trkpt><trkpt lat="42.3086379" lon="14.2913828"><ele>113.4</ele><time>2026-05-01T08:48:06.804Z</time></trkpt><trkpt lat="42.3085842" lon="14.2914291"><ele>113.0</ele><time>2026-05-01T08:48:07.807Z</time></trkpt><trkpt lat="42.3085276" lon="14.2914903"><ele>113.0</ele><time>2026-05-01T08:48:08.814Z</time></trkpt><trkpt lat="42.3084636" lon="14.2915636"><ele>113.00000000000001</ele><time>2026-05-01T08:48:09.81Z</time></trkpt><trkpt lat="42.3083883" lon="14.2916403"><ele>113.00000000000001</ele><time>2026-05-01T08:48:10.803Z</time></trkpt><trkpt lat="42.3083061" lon="14.291749"><ele>113.0</ele><time>2026-05-01T08:48:11.803Z</time></trkpt><trkpt lat="42.3082075" lon="14.2918649"><ele>113.0</ele><time>2026-05-01T08:48:12.809Z</time></trkpt><trkpt lat="42.3080909" lon="14.2919601"><ele>115.75</ele><time>2026-05-01T08:48:13.815Z</time></trkpt><trkpt lat="42.3079676" lon="14.2920338"><ele>118.5</ele><time>2026-05-01T08:48:14.803Z</time></trkpt><trkpt lat="42.3078474" lon="14.2920881"><ele>121.25</ele><time>2026-05-01T08:48:15.817Z</time></trkpt><trkpt lat="42.3077226" lon="14.292134"><ele>124.0</ele><time>2026-05-01T08:48:16.806Z</time></trkpt><trkpt lat="42.3075886" lon="14.2921949"><ele>121.75</ele><time>2026-05-01T08:48:17.807Z</time></trkpt><trkpt lat="42.3074644" lon="14.2922584"><ele>119.5</ele><time>2026-05-01T08:48:18.804Z</time></trkpt><trkpt lat="42.307339" lon="14.2923129"><ele>117.25</ele><time>2026-05-01T08:48:19.822Z</time></trkpt><trkpt lat="42.3072028" lon="14.2923489"><ele>115.0</ele><time>2026-05-01T08:48:20.81Z</time></trkpt><trkpt lat="42.3070617" lon="14.292367"><ele>115.0</ele><time>2026-05-01T08:48:21.805Z</time></trkpt><trkpt lat="42.3069266" lon="14.292386"><ele>115.0</ele><time>2026-05-01T08:48:22.807Z</time></trkpt><trkpt lat="42.3068094" lon="14.292414"><ele>115.0</ele><time>2026-05-01T08:48:23.8Z</time></trkpt><trkpt lat="42.3066857" lon="14.2924667"><ele>115.0</ele><time>2026-05-01T08:48:24.799Z</time></trkpt><trkpt lat="42.3065492" lon="14.2925327"><ele>116.0</ele><time>2026-05-01T08:48:25.792Z</time></trkpt><trkpt lat="42.3064086" lon="14.2925931"><ele>117.0</ele><time>2026-05-01T08:48:26.801Z</time></trkpt><trkpt lat="42.3062813" lon="14.2926328"><ele>118.0</ele><time>2026-05-01T08:48:27.8Z</time></trkpt><trkpt lat="42.3061614" lon="14.2926379"><ele>119.0</ele><time>2026-05-01T08:48:28.815Z</time></trkpt><trkpt lat="42.306039" lon="14.2926298"><ele>119.0</ele><time>2026-05-01T08:48:29.799Z</time></trkpt><trkpt lat="42.3059187" lon="14.2926118"><ele>119.0</ele><time>2026-05-01T08:48:30.838Z</time></trkpt><trkpt lat="42.3057972" lon="14.2926008"><ele>119.0</ele><time>2026-05-01T08:48:31.805Z</time></trkpt><trkpt lat="42.3056654" lon="14.2925871"><ele>119.0</ele><time>2026-05-01T08:48:32.804Z</time></trkpt><trkpt lat="42.3055405" lon="14.2925677"><ele>119.6</ele><time>2026-05-01T08:48:33.815Z</time></trkpt><trkpt lat="42.3054222" lon="14.2925495"><ele>120.2</ele><time>2026-05-01T08:48:34.818Z</time></trkpt><trkpt lat="42.3053075" lon="14.2925243"><ele>120.79999999999998</ele><time>2026-05-01T08:48:35.835Z</time></trkpt><trkpt lat="42.3051986" lon="14.292509"><ele>121.39999999999999</ele><time>2026-05-01T08:48:36.801Z</time></trkpt><trkpt lat="42.3051118" lon="14.2925133"><ele>122.0</ele><time>2026-05-01T08:48:37.812Z</time></trkpt><trkpt lat="42.3050361" lon="14.2925235"><ele>121.99999999999999</ele><time>2026-05-01T08:48:38.794Z</time></trkpt><trkpt lat="42.3049716" lon="14.2925323"><ele>122.0</ele><time>2026-05-01T08:48:39.801Z</time></trkpt><trkpt lat="42.3048583" lon="14.2925826"><ele>122.0</ele><time>2026-05-01T08:48:41.809Z</time></trkpt><trkpt lat="42.3048063" lon="14.2926387"><ele>122.0</ele><time>2026-05-01T08:48:42.841Z</time></trkpt><trkpt lat="42.3047455" lon="14.2927077"><ele>121.99999999999999</ele><time>2026-05-01T08:48:43.803Z</time></trkpt><trkpt lat="42.3046679" lon="14.2927875"><ele>122.0</ele><time>2026-05-01T08:48:44.811Z</time></trkpt><trkpt lat="42.3045796" lon="14.2928562"><ele>121.75</ele><time>2026-05-01T08:48:45.813Z</time></trkpt><trkpt lat="42.304486" lon="14.2929339"><ele>121.5</ele><time>2026-05-01T08:48:46.801Z</time></trkpt><trkpt lat="42.3043704" lon="14.2929924"><ele>121.25</ele><time>2026-05-01T08:48:47.809Z</time></trkpt><trkpt lat="42.3042506" lon="14.2930211"><ele>121.0</ele><time>2026-05-01T08:48:48.816Z</time></trkpt><trkpt lat="42.3041417" lon="14.2930281"><ele>121.0</ele><time>2026-05-01T08:48:49.804Z</time></trkpt><trkpt lat="42.3040253" lon="14.2930452"><ele>121.0</ele><time>2026-05-01T08:48:50.81Z</time></trkpt><trkpt lat="42.3039067" lon="14.293052"><ele>121.0</ele><time>2026-05-01T08:48:51.813Z</time></trkpt><trkpt lat="42.3037854" lon="14.2930507"><ele>121.0</ele><time>2026-05-01T08:48:52.805Z</time></trkpt><trkpt lat="42.3036609" lon="14.2930396"><ele>120.0</ele><time>2026-05-01T08:48:53.802Z</time></trkpt><trkpt lat="42.3035462" lon="14.2930257"><ele>119.0</ele><time>2026-05-01T08:48:54.799Z</time></trkpt><trkpt lat="42.303443" lon="14.2930114"><ele>118.0</ele><time>2026-05-01T08:48:55.8Z</time></trkpt><trkpt lat="42.3033571" lon="14.2929976"><ele>117.0</ele><time>2026-05-01T08:48:56.803Z</time></trkpt><trkpt lat="42.3032739" lon="14.2929937"><ele>116.0</ele><time>2026-05-01T08:48:57.809Z</time></trkpt><trkpt lat="42.303176" lon="14.2929911"><ele>116.0</ele><time>2026-05-01T08:48:58.806Z</time></trkpt><trkpt lat="42.3030703" lon="14.2929761"><ele>116.0</ele><time>2026-05-01T08:48:59.805Z</time></trkpt><trkpt lat="42.3029612" lon="14.2929572"><ele>116.0</ele><time>2026-05-01T08:49:00.798Z</time></trkpt><trkpt lat="42.3028481" lon="14.2929386"><ele>116.0</ele><time>2026-05-01T08:49:01.798Z</time></trkpt><trkpt lat="42.3027163" lon="14.2929189"><ele>116.0</ele><time>2026-05-01T08:49:02.795Z</time></trkpt><trkpt lat="42.3025735" lon="14.2928969"><ele>116.0</ele><time>2026-05-01T08:49:03.801Z</time></trkpt><trkpt lat="42.3024285" lon="14.2928772"><ele>116.0</ele><time>2026-05-01T08:49:04.811Z</time></trkpt><trkpt lat="42.3022907" lon="14.292852"><ele>116.0</ele><time>2026-05-01T08:49:05.83Z</time></trkpt><trkpt lat="42.3021543" lon="14.2928282"><ele>116.25</ele><time>2026-05-01T08:49:06.801Z</time></trkpt><trkpt lat="42.3020168" lon="14.2928062"><ele>116.5</ele><time>2026-05-01T08:49:07.819Z</time></trkpt><trkpt lat="42.301888" lon="14.2927883"><ele>116.75</ele><time>2026-05-01T08:49:08.806Z</time></trkpt><trkpt lat="42.3017655" lon="14.2927751"><ele>117.0</ele><time>2026-05-01T08:49:09.8Z</time></trkpt><trkpt lat="42.3016461" lon="14.2927607"><ele>117.0</ele><time>2026-05-01T08:49:10.806Z</time></trkpt><trkpt lat="42.3015153" lon="14.2927324"><ele>117.0</ele><time>2026-05-01T08:49:11.801Z</time></trkpt><trkpt lat="42.3013772" lon="14.2926989"><ele>117.0</ele><time>2026-05-01T08:49:12.823Z</time></trkpt><trkpt lat="42.3012396" lon="14.2926653"><ele>117.0</ele><time>2026-05-01T08:49:13.811Z</time></trkpt><trkpt lat="42.3011184" lon="14.292636"><ele>117.75</ele><time>2026-05-01T08:49:14.808Z</time></trkpt><trkpt lat="42.3009987" lon="14.2926003"><ele>118.5</ele><time>2026-05-01T08:49:15.817Z</time></trkpt><trkpt lat="42.3008737" lon="14.2925677"><ele>119.25</ele><time>2026-05-01T08:49:16.798Z</time></trkpt><trkpt lat="42.3007462" lon="14.2925656"><ele>120.0</ele><time>2026-05-01T08:49:17.805Z</time></trkpt><trkpt lat="42.300609" lon="14.2925749"><ele>120.2</ele><time>2026-05-01T08:49:18.8Z</time></trkpt><trkpt lat="42.3004849" lon="14.2925749"><ele>120.4</ele><time>2026-05-01T08:49:19.812Z</time></trkpt><trkpt lat="42.3003827" lon="14.2925615"><ele>120.6</ele><time>2026-05-01T08:49:20.802Z</time></trkpt><trkpt lat="42.300291" lon="14.2925257"><ele>120.8</ele><time>2026-05-01T08:49:21.828Z</time></trkpt><trkpt lat="42.3001968" lon="14.2924584"><ele>121.0</ele><time>2026-05-01T08:49:22.811Z</time></trkpt><trkpt lat="42.300102" lon="14.2923749"><ele>121.0</ele><time>2026-05-01T08:49:23.814Z</time></trkpt><trkpt lat="42.300005" lon="14.2922941"><ele>121.0</ele><time>2026-05-01T08:49:24.814Z</time></trkpt><trkpt lat="42.2999238" lon="14.2922174"><ele>121.0</ele><time>2026-05-01T08:49:25.813Z</time></trkpt><trkpt lat="42.299864" lon="14.2921674"><ele>121.0</ele><time>2026-05-01T08:49:26.809Z</time></trkpt><trkpt lat="42.2997914" lon="14.2921182"><ele>121.0</ele><time>2026-05-01T08:49:28.804Z</time></trkpt><trkpt lat="42.2996539" lon="14.2921265"><ele>123.4</ele><time>2026-05-01T08:49:30.811Z</time></trkpt><trkpt lat="42.2995681" lon="14.2921561"><ele>125.8</ele><time>2026-05-01T08:49:31.803Z</time></trkpt><trkpt lat="42.2994741" lon="14.2921774"><ele>128.20000000000002</ele><time>2026-05-01T08:49:32.817Z</time></trkpt><trkpt lat="42.2993716" lon="14.2921827"><ele>130.6</ele><time>2026-05-01T08:49:33.793Z</time></trkpt><trkpt lat="42.299263" lon="14.2921588"><ele>133.0</ele><time>2026-05-01T08:49:34.81Z</time></trkpt><trkpt lat="42.2991467" lon="14.2921306"><ele>133.0</ele><time>2026-05-01T08:49:35.795Z</time></trkpt><trkpt lat="42.2990188" lon="14.2921235"><ele>133.0</ele><time>2026-05-01T08:49:36.812Z</time></trkpt><trkpt lat="42.2988802" lon="14.2921259"><ele>133.0</ele><time>2026-05-01T08:49:37.821Z</time></trkpt><trkpt lat="42.2987474" lon="14.2921389"><ele>133.0</ele><time>2026-05-01T08:49:38.812Z</time></trkpt><trkpt lat="42.2986266" lon="14.2921481"><ele>133.25</ele><time>2026-05-01T08:49:39.816Z</time></trkpt><trkpt lat="42.298508" lon="14.2921524"><ele>133.5</ele><time>2026-05-01T08:49:40.808Z</time></trkpt><trkpt lat="42.2983864" lon="14.2921566"><ele>133.75</ele><time>2026-05-01T08:49:41.826Z</time></trkpt><trkpt lat="42.2982644" lon="14.2921656"><ele>134.0</ele><time>2026-05-01T08:49:42.814Z</time></trkpt><trkpt lat="42.2981497" lon="14.2921837"><ele>134.0</ele><time>2026-05-01T08:49:43.8Z</time></trkpt><trkpt lat="42.2980554" lon="14.2922167"><ele>134.0</ele><time>2026-05-01T08:49:44.809Z</time></trkpt><trkpt lat="42.2979878" lon="14.2922692"><ele>134.0</ele><time>2026-05-01T08:49:45.816Z</time></trkpt><trkpt lat="42.2979481" lon="14.29237"><ele>134.0</ele><time>2026-05-01T08:49:46.804Z</time></trkpt><trkpt lat="42.2979242" lon="14.2925087"><ele>134.0</ele><time>2026-05-01T08:49:47.8Z</time></trkpt><trkpt lat="42.2979195" lon="14.2926664"><ele>131.66666666666666</ele><time>2026-05-01T08:49:48.796Z</time></trkpt><trkpt lat="42.2979153" lon="14.2927878"><ele>129.33333333333331</ele><time>2026-05-01T08:49:49.807Z</time></trkpt><trkpt lat="42.2979107" lon="14.2928819"><ele>127.0</ele><time>2026-05-01T08:49:50.81Z</time></trkpt><trkpt lat="42.2979156" lon="14.2929705"><ele>124.66666666666666</ele><time>2026-05-01T08:49:52.807Z</time></trkpt><trkpt lat="42.2978489" lon="14.293031"><ele>122.33333333333333</ele><time>2026-05-01T08:50:00.82Z</time></trkpt><trkpt lat="42.2977628" lon="14.2929465"><ele>120.0</ele><time>2026-05-01T08:50:02.818Z</time></trkpt><trkpt lat="42.297649" lon="14.2928234"><ele>120.0</ele><time>2026-05-01T08:50:04.825Z</time></trkpt><trkpt lat="42.2975662" lon="14.2927353"><ele>120.0</ele><time>2026-05-01T08:50:05.81Z</time></trkpt><trkpt lat="42.2974735" lon="14.2926337"><ele>120.0</ele><time>2026-05-01T08:50:06.812Z</time></trkpt><trkpt lat="42.2973706" lon="14.2925339"><ele>120.0</ele><time>2026-05-01T08:50:07.821Z</time></trkpt><trkpt lat="42.297278" lon="14.2924428"><ele>119.4</ele><time>2026-05-01T08:50:08.813Z</time></trkpt><trkpt lat="42.2971856" lon="14.2923624"><ele>118.8</ele><time>2026-05-01T08:50:09.83Z</time></trkpt><trkpt lat="42.2970959" lon="14.292281"><ele>118.19999999999999</ele><time>2026-05-01T08:50:10.801Z</time></trkpt><trkpt lat="42.2970067" lon="14.2921959"><ele>117.6</ele><time>2026-05-01T08:50:11.798Z</time></trkpt><trkpt lat="42.2969205" lon="14.2921055"><ele>117.0</ele><time>2026-05-01T08:50:12.81Z</time></trkpt><trkpt lat="42.2968275" lon="14.2920154"><ele>118.39999999999999</ele><time>2026-05-01T08:50:13.801Z</time></trkpt><trkpt lat="42.2967277" lon="14.2919358"><ele>119.79999999999998</ele><time>2026-05-01T08:50:14.808Z</time></trkpt><trkpt lat="42.2966351" lon="14.2918725"><ele>121.2</ele><time>2026-05-01T08:50:15.817Z</time></trkpt><trkpt lat="42.296545" lon="14.2918187"><ele>122.6</ele><time>2026-05-01T08:50:16.806Z</time></trkpt><trkpt lat="42.2964593" lon="14.2917618"><ele>124.0</ele><time>2026-05-01T08:50:17.807Z</time></trkpt><trkpt lat="42.296384" lon="14.2917119"><ele>124.00000000000001</ele><time>2026-05-01T08:50:18.803Z</time></trkpt><trkpt lat="42.2963154" lon="14.2916708"><ele>124.0</ele><time>2026-05-01T08:50:19.802Z</time></trkpt><trkpt lat="42.2962321" lon="14.2915973"><ele>124.0</ele><time>2026-05-01T08:50:21.808Z</time></trkpt><trkpt lat="42.2962279" lon="14.2915081"><ele>124.0</ele><time>2026-05-01T08:50:23.811Z</time></trkpt><trkpt lat="42.296265" lon="14.2913588"><ele>124.00000000000001</ele><time>2026-05-01T08:50:25.812Z</time></trkpt><trkpt lat="42.2962909" lon="14.2912662"><ele>124.0</ele><time>2026-05-01T08:50:26.807Z</time></trkpt><trkpt lat="42.2963235" lon="14.291161"><ele>125.80000000000001</ele><time>2026-05-01T08:50:27.801Z</time></trkpt><trkpt lat="42.2963645" lon="14.2910261"><ele>127.60000000000001</ele><time>2026-05-01T08:50:28.845Z</time></trkpt><trkpt lat="42.2964036" lon="14.2908991"><ele>129.4</ele><time>2026-05-01T08:50:29.801Z</time></trkpt><trkpt lat="42.2964325" lon="14.2907805"><ele>131.20000000000002</ele><time>2026-05-01T08:50:30.799Z</time></trkpt><trkpt lat="42.2964614" lon="14.29068"><ele>133.0</ele><time>2026-05-01T08:50:31.805Z</time></trkpt><trkpt lat="42.2965025" lon="14.290581"><ele>138.0</ele><time>2026-05-01T08:50:32.803Z</time></trkpt><trkpt lat="42.2965498" lon="14.29049"><ele>143.0</ele><time>2026-05-01T08:50:33.815Z</time></trkpt><trkpt lat="42.2966017" lon="14.2903965"><ele>148.0</ele><time>2026-05-01T08:50:34.806Z</time></trkpt><trkpt lat="42.2966523" lon="14.2903154"><ele>153.0</ele><time>2026-05-01T08:50:35.815Z</time></trkpt><trkpt lat="42.2967009" lon="14.290233"><ele>158.0</ele><time>2026-05-01T08:50:36.811Z</time></trkpt><trkpt lat="42.2967426" lon="14.2901457"><ele>163.0</ele><time>2026-05-01T08:50:37.811Z</time></trkpt><trkpt lat="42.2967733" lon="14.2900574"><ele>163.0</ele><time>2026-05-01T08:50:38.805Z</time></trkpt><trkpt lat="42.2968333" lon="14.2899238"><ele>163.0</ele><time>2026-05-01T08:50:40.81Z</time></trkpt><trkpt lat="42.2969077" lon="14.2898099"><ele>163.0</ele><time>2026-05-01T08:50:42.837Z</time></trkpt><trkpt lat="42.296986" lon="14.2896812"><ele>163.0</ele><time>2026-05-01T08:50:44.798Z</time></trkpt><trkpt lat="42.2970242" lon="14.2896024"><ele>163.0</ele><time>2026-05-01T08:50:45.81Z</time></trkpt><trkpt lat="42.2970782" lon="14.2894726"><ele>165.16666666666669</ele><time>2026-05-01T08:50:47.822Z</time></trkpt><trkpt lat="42.297141" lon="14.2893388"><ele>167.33333333333334</ele><time>2026-05-01T08:50:49.802Z</time></trkpt><trkpt lat="42.2971764" lon="14.2892523"><ele>169.5</ele><time>2026-05-01T08:50:50.809Z</time></trkpt><trkpt lat="42.2972287" lon="14.2891669"><ele>171.66666666666666</ele><time>2026-05-01T08:50:51.803Z</time></trkpt><trkpt lat="42.2972777" lon="14.2891033"><ele>173.83333333333331</ele><time>2026-05-01T08:50:52.799Z</time></trkpt><trkpt lat="42.2973854" lon="14.2890811"><ele>176.0</ele><time>2026-05-01T08:50:54.801Z</time></trkpt><trkpt lat="42.2974814" lon="14.2891115"><ele>176.0</ele><time>2026-05-01T08:50:56.801Z</time></trkpt><trkpt lat="42.2974761" lon="14.2890215"><ele>176.0</ele><time>2026-05-01T08:50:59.807Z</time></trkpt><trkpt lat="42.2973416" lon="14.2890004"><ele>176.0</ele><time>2026-05-01T08:51:01.803Z</time></trkpt><trkpt lat="42.2972482" lon="14.2889486"><ele>176.0</ele><time>2026-05-01T08:51:02.81Z</time></trkpt><trkpt lat="42.2971182" lon="14.2888775"><ele>176.0</ele><time>2026-05-01T08:51:03.806Z</time></trkpt><trkpt lat="42.2969389" lon="14.2888073"><ele>180.33333333333331</ele><time>2026-05-01T08:51:04.803Z</time></trkpt><trkpt lat="42.2967565" lon="14.2887581"><ele>184.66666666666666</ele><time>2026-05-01T08:51:05.823Z</time></trkpt><trkpt lat="42.2965965" lon="14.2887103"><ele>189.0</ele><time>2026-05-01T08:51:06.813Z</time></trkpt><trkpt lat="42.2964508" lon="14.2886827"><ele>184.25</ele><time>2026-05-01T08:51:07.811Z</time></trkpt><trkpt lat="42.2963176" lon="14.2886616"><ele>179.5</ele><time>2026-05-01T08:51:08.804Z</time></trkpt><trkpt lat="42.2961899" lon="14.2886377"><ele>174.75</ele><time>2026-05-01T08:51:09.798Z</time></trkpt><trkpt lat="42.2960736" lon="14.2885976"><ele>170.0</ele><time>2026-05-01T08:51:10.797Z</time></trkpt><trkpt lat="42.295978" lon="14.288522"><ele>170.0</ele><time>2026-05-01T08:51:11.796Z</time></trkpt><trkpt lat="42.2958788" lon="14.2884111"><ele>170.0</ele><time>2026-05-01T08:51:12.839Z</time></trkpt><trkpt lat="42.2957959" lon="14.2882729"><ele>170.0</ele><time>2026-05-01T08:51:13.792Z</time></trkpt><trkpt lat="42.2957171" lon="14.2881174"><ele>170.0</ele><time>2026-05-01T08:51:14.793Z</time></trkpt><trkpt lat="42.2956382" lon="14.2879715"><ele>166.0</ele><time>2026-05-01T08:51:15.81Z</time></trkpt><trkpt lat="42.2955533" lon="14.2878599"><ele>162.0</ele><time>2026-05-01T08:51:16.8Z</time></trkpt><trkpt lat="42.2954419" lon="14.2877942"><ele>158.0</ele><time>2026-05-01T08:51:17.822Z</time></trkpt><trkpt lat="42.2953361" lon="14.2877259"><ele>154.0</ele><time>2026-05-01T08:51:18.801Z</time></trkpt><trkpt lat="42.2952391" lon="14.2875965"><ele>154.0</ele><time>2026-05-01T08:51:19.791Z</time></trkpt><trkpt lat="42.2951439" lon="14.2874476"><ele>154.0</ele><time>2026-05-01T08:51:20.809Z</time></trkpt><trkpt lat="42.2950398" lon="14.2873052"><ele>154.0</ele><time>2026-05-01T08:51:21.803Z</time></trkpt><trkpt lat="42.2949344" lon="14.2871576"><ele>154.0</ele><time>2026-05-01T08:51:22.844Z</time></trkpt><trkpt lat="42.2948531" lon="14.2869715"><ele>152.33333333333334</ele><time>2026-05-01T08:51:23.804Z</time></trkpt><trkpt lat="42.2947822" lon="14.2867692"><ele>150.66666666666666</ele><time>2026-05-01T08:51:24.802Z</time></trkpt><trkpt lat="42.2947039" lon="14.2865681"><ele>149.0</ele><time>2026-05-01T08:51:25.804Z</time></trkpt><trkpt lat="42.2946177" lon="14.2863785"><ele>149.0</ele><time>2026-05-01T08:51:26.801Z</time></trkpt><trkpt lat="42.2945302" lon="14.2862238"><ele>149.0</ele><time>2026-05-01T08:51:27.802Z</time></trkpt><trkpt lat="42.2944429" lon="14.2861091"><ele>149.0</ele><time>2026-05-01T08:51:28.814Z</time></trkpt><trkpt lat="42.2943241" lon="14.2860085"><ele>149.0</ele><time>2026-05-01T08:51:29.803Z</time></trkpt><trkpt lat="42.2941911" lon="14.2859036"><ele>149.0</ele><time>2026-05-01T08:51:30.8Z</time></trkpt><trkpt lat="42.2940739" lon="14.2858284"><ele>149.0</ele><time>2026-05-01T08:51:31.799Z</time></trkpt><trkpt lat="42.2939789" lon="14.2857625"><ele>149.0</ele><time>2026-05-01T08:51:32.806Z</time></trkpt><trkpt lat="42.2939029" lon="14.2857128"><ele>149.0</ele><time>2026-05-01T08:51:33.798Z</time></trkpt><trkpt lat="42.2938295" lon="14.2856516"><ele>149.0</ele><time>2026-05-01T08:51:34.81Z</time></trkpt><trkpt lat="42.2937531" lon="14.2855836"><ele>147.8</ele><time>2026-05-01T08:51:35.799Z</time></trkpt><trkpt lat="42.293672" lon="14.2855051"><ele>146.60000000000002</ele><time>2026-05-01T08:51:36.805Z</time></trkpt><trkpt lat="42.2935862" lon="14.2854165"><ele>145.4</ele><time>2026-05-01T08:51:37.804Z</time></trkpt><trkpt lat="42.2935005" lon="14.285333"><ele>144.20000000000002</ele><time>2026-05-01T08:51:38.802Z</time></trkpt><trkpt lat="42.2934122" lon="14.2852242"><ele>143.0</ele><time>2026-05-01T08:51:39.818Z</time></trkpt><trkpt lat="42.2933223" lon="14.2851156"><ele>143.0</ele><time>2026-05-01T08:51:40.788Z</time></trkpt><trkpt lat="42.2932422" lon="14.2850399"><ele>143.0</ele><time>2026-05-01T08:51:41.799Z</time></trkpt><trkpt lat="42.2931619" lon="14.2849777"><ele>143.0</ele><time>2026-05-01T08:51:42.787Z</time></trkpt><trkpt lat="42.2930712" lon="14.28492"><ele>143.0</ele><time>2026-05-01T08:51:43.798Z</time></trkpt><trkpt lat="42.292972" lon="14.2848631"><ele>143.0</ele><time>2026-05-01T08:51:44.792Z</time></trkpt><trkpt lat="42.2928664" lon="14.2847928"><ele>141.4</ele><time>2026-05-01T08:51:45.816Z</time></trkpt><trkpt lat="42.2927608" lon="14.2847302"><ele>139.8</ele><time>2026-05-01T08:51:46.794Z</time></trkpt><trkpt lat="42.2926679" lon="14.2846577"><ele>138.2</ele><time>2026-05-01T08:51:47.789Z</time></trkpt><trkpt lat="42.2925913" lon="14.2845909"><ele>136.6</ele><time>2026-05-01T08:51:48.795Z</time></trkpt><trkpt lat="42.292515" lon="14.2844944"><ele>135.0</ele><time>2026-05-01T08:51:49.789Z</time></trkpt><trkpt lat="42.2924426" lon="14.2843852"><ele>135.0</ele><time>2026-05-01T08:51:50.807Z</time></trkpt><trkpt lat="42.2923575" lon="14.2842754"><ele>135.0</ele><time>2026-05-01T08:51:51.799Z</time></trkpt><trkpt lat="42.2922754" lon="14.2841653"><ele>135.0</ele><time>2026-05-01T08:51:52.812Z</time></trkpt><trkpt lat="42.2922034" lon="14.2840622"><ele>135.0</ele><time>2026-05-01T08:51:53.794Z</time></trkpt><trkpt lat="42.2921378" lon="14.2839584"><ele>135.0</ele><time>2026-05-01T08:51:54.797Z</time></trkpt><trkpt lat="42.2920611" lon="14.2838504"><ele>137.2</ele><time>2026-05-01T08:51:55.798Z</time></trkpt><trkpt lat="42.2919853" lon="14.283759"><ele>139.4</ele><time>2026-05-01T08:51:56.797Z</time></trkpt><trkpt lat="42.2919033" lon="14.2836817"><ele>141.6</ele><time>2026-05-01T08:51:57.795Z</time></trkpt><trkpt lat="42.2918256" lon="14.2835968"><ele>143.8</ele><time>2026-05-01T08:51:58.798Z</time></trkpt><trkpt lat="42.2917416" lon="14.2835153"><ele>146.0</ele><time>2026-05-01T08:51:59.815Z</time></trkpt><trkpt lat="42.2916493" lon="14.2834272"><ele>146.0</ele><time>2026-05-01T08:52:00.803Z</time></trkpt><trkpt lat="42.2915375" lon="14.2833333"><ele>146.0</ele><time>2026-05-01T08:52:01.818Z</time></trkpt><trkpt lat="42.2914185" lon="14.2832347"><ele>146.0</ele><time>2026-05-01T08:52:02.796Z</time></trkpt><trkpt lat="42.2913109" lon="14.2831292"><ele>146.0</ele><time>2026-05-01T08:52:03.804Z</time></trkpt><trkpt lat="42.2912271" lon="14.2830184"><ele>146.8</ele><time>2026-05-01T08:52:04.803Z</time></trkpt><trkpt lat="42.2911609" lon="14.2828981"><ele>147.6</ele><time>2026-05-01T08:52:05.801Z</time></trkpt><trkpt lat="42.2911277" lon="14.2827605"><ele>148.4</ele><time>2026-05-01T08:52:06.799Z</time></trkpt><trkpt lat="42.2911178" lon="14.2826253"><ele>149.2</ele><time>2026-05-01T08:52:07.796Z</time></trkpt><trkpt lat="42.2911069" lon="14.2824792"><ele>150.0</ele><time>2026-05-01T08:52:08.804Z</time></trkpt><trkpt lat="42.291087" lon="14.2823639"><ele>153.2</ele><time>2026-05-01T08:52:09.806Z</time></trkpt><trkpt lat="42.2910366" lon="14.2822209"><ele>156.4</ele><time>2026-05-01T08:52:11.809Z</time></trkpt><trkpt lat="42.29099" lon="14.2821495"><ele>159.60000000000002</ele><time>2026-05-01T08:52:12.801Z</time></trkpt><trkpt lat="42.2909331" lon="14.2820509"><ele>162.8</ele><time>2026-05-01T08:52:13.799Z</time></trkpt><trkpt lat="42.2908838" lon="14.2819147"><ele>166.0</ele><time>2026-05-01T08:52:14.792Z</time></trkpt><trkpt lat="42.2908342" lon="14.2817613"><ele>166.0</ele><time>2026-05-01T08:52:15.795Z</time></trkpt><trkpt lat="42.2908002" lon="14.2815993"><ele>166.0</ele><time>2026-05-01T08:52:16.805Z</time></trkpt><trkpt lat="42.2907973" lon="14.281428"><ele>166.0</ele><time>2026-05-01T08:52:17.798Z</time></trkpt><trkpt lat="42.2908129" lon="14.281257"><ele>166.0</ele><time>2026-05-01T08:52:18.805Z</time></trkpt><trkpt lat="42.2908159" lon="14.2810839"><ele>169.25</ele><time>2026-05-01T08:52:19.797Z</time></trkpt><trkpt lat="42.2908179" lon="14.2808914"><ele>172.5</ele><time>2026-05-01T08:52:20.804Z</time></trkpt><trkpt lat="42.2908119" lon="14.2806954"><ele>175.75</ele><time>2026-05-01T08:52:21.8Z</time></trkpt><trkpt lat="42.2907977" lon="14.2805276"><ele>179.0</ele><time>2026-05-01T08:52:22.818Z</time></trkpt><trkpt lat="42.2907731" lon="14.2804086"><ele>178.0</ele><time>2026-05-01T08:52:23.808Z</time></trkpt><trkpt lat="42.2907423" lon="14.2803178"><ele>177.0</ele><time>2026-05-01T08:52:24.817Z</time></trkpt><trkpt lat="42.2906969" lon="14.2802131"><ele>176.0</ele><time>2026-05-01T08:52:25.807Z</time></trkpt><trkpt lat="42.290639" lon="14.2800962"><ele>175.0</ele><time>2026-05-01T08:52:26.803Z</time></trkpt><trkpt lat="42.2905769" lon="14.2799668"><ele>174.0</ele><time>2026-05-01T08:52:27.807Z</time></trkpt><trkpt lat="42.2905254" lon="14.2798494"><ele>177.16666666666666</ele><time>2026-05-01T08:52:28.807Z</time></trkpt><trkpt lat="42.2904987" lon="14.2797428"><ele>180.33333333333331</ele><time>2026-05-01T08:52:29.817Z</time></trkpt><trkpt lat="42.2904731" lon="14.2796202"><ele>183.5</ele><time>2026-05-01T08:52:30.806Z</time></trkpt><trkpt lat="42.2904496" lon="14.2794955"><ele>186.66666666666666</ele><time>2026-05-01T08:52:31.821Z</time></trkpt><trkpt lat="42.2904252" lon="14.2793952"><ele>189.83333333333331</ele><time>2026-05-01T08:52:32.81Z</time></trkpt><trkpt lat="42.2904047" lon="14.2792937"><ele>193.0</ele><time>2026-05-01T08:52:33.801Z</time></trkpt><trkpt lat="42.290373" lon="14.2792108"><ele>193.0</ele><time>2026-05-01T08:52:34.811Z</time></trkpt><trkpt lat="42.2902552" lon="14.2790981"><ele>193.0</ele><time>2026-05-01T08:52:36.801Z</time></trkpt><trkpt lat="42.2901346" lon="14.2790356"><ele>193.0</ele><time>2026-05-01T08:52:37.819Z</time></trkpt><trkpt lat="42.2900196" lon="14.2789481"><ele>193.0</ele><time>2026-05-01T08:52:38.796Z</time></trkpt><trkpt lat="42.28996" lon="14.2788417"><ele>194.60000000000002</ele><time>2026-05-01T08:52:39.805Z</time></trkpt><trkpt lat="42.2899205" lon="14.278706"><ele>196.20000000000002</ele><time>2026-05-01T08:52:40.809Z</time></trkpt><trkpt lat="42.2898821" lon="14.2785661"><ele>197.8</ele><time>2026-05-01T08:52:41.806Z</time></trkpt><trkpt lat="42.2898444" lon="14.2784386"><ele>199.4</ele><time>2026-05-01T08:52:42.798Z</time></trkpt><trkpt lat="42.2898132" lon="14.2782982"><ele>201.0</ele><time>2026-05-01T08:52:43.817Z</time></trkpt><trkpt lat="42.2897867" lon="14.2781566"><ele>200.5</ele><time>2026-05-01T08:52:44.818Z</time></trkpt><trkpt lat="42.2897707" lon="14.2780259"><ele>200.0</ele><time>2026-05-01T08:52:45.825Z</time></trkpt><trkpt lat="42.2897427" lon="14.2778892"><ele>199.5</ele><time>2026-05-01T08:52:46.799Z</time></trkpt><trkpt lat="42.2896984" lon="14.2777246"><ele>199.0</ele><time>2026-05-01T08:52:47.804Z</time></trkpt><trkpt lat="42.2896438" lon="14.2775172"><ele>199.0</ele><time>2026-05-01T08:52:48.813Z</time></trkpt><trkpt lat="42.2895881" lon="14.277304"><ele>199.0</ele><time>2026-05-01T08:52:49.804Z</time></trkpt><trkpt lat="42.2895559" lon="14.2771052"><ele>199.0</ele><time>2026-05-01T08:52:50.842Z</time></trkpt><trkpt lat="42.2895367" lon="14.2769333"><ele>199.0</ele><time>2026-05-01T08:52:51.806Z</time></trkpt><trkpt lat="42.2895381" lon="14.276769"><ele>200.79999999999998</ele><time>2026-05-01T08:52:52.809Z</time></trkpt><trkpt lat="42.2895276" lon="14.2765954"><ele>202.6</ele><time>2026-05-01T08:52:53.801Z</time></trkpt><trkpt lat="42.2895067" lon="14.2764403"><ele>204.4</ele><time>2026-05-01T08:52:54.806Z</time></trkpt><trkpt lat="42.2894951" lon="14.2763121"><ele>206.2</ele><time>2026-05-01T08:52:55.808Z</time></trkpt><trkpt lat="42.2894774" lon="14.2762141"><ele>208.0</ele><time>2026-05-01T08:52:56.809Z</time></trkpt><trkpt lat="42.2894689" lon="14.2761256"><ele>208.99999999999997</ele><time>2026-05-01T08:52:57.787Z</time></trkpt><trkpt lat="42.2894743" lon="14.2759996"><ele>210.0</ele><time>2026-05-01T08:52:59.797Z</time></trkpt><trkpt lat="42.2894424" lon="14.2759187"><ele>211.0</ele><time>2026-05-01T08:53:01.803Z</time></trkpt><trkpt lat="42.289359" lon="14.2759056"><ele>212.0</ele><time>2026-05-01T08:53:03.826Z</time></trkpt><trkpt lat="42.2892715" lon="14.2759067"><ele>212.99999999999997</ele><time>2026-05-01T08:53:05.804Z</time></trkpt><trkpt lat="42.2891769" lon="14.2758932"><ele>214.0</ele><time>2026-05-01T08:53:07.806Z</time></trkpt><trkpt lat="42.2891023" lon="14.2759029"><ele>214.0</ele><time>2026-05-01T08:53:09.797Z</time></trkpt><trkpt lat="42.2890222" lon="14.2759054"><ele>213.99999999999997</ele><time>2026-05-01T08:53:11.803Z</time></trkpt><trkpt lat="42.2889308" lon="14.2758656"><ele>213.99999999999997</ele><time>2026-05-01T08:53:13.813Z</time></trkpt><trkpt lat="42.2888208" lon="14.2757873"><ele>214.0</ele><time>2026-05-01T08:53:15.814Z</time></trkpt><trkpt lat="42.2887484" lon="14.2757606"><ele>214.0</ele><time>2026-05-01T08:53:16.807Z</time></trkpt><trkpt lat="42.288657" lon="14.2757243"><ele>214.39999999999998</ele><time>2026-05-01T08:53:17.802Z</time></trkpt><trkpt lat="42.2885731" lon="14.2756706"><ele>214.79999999999998</ele><time>2026-05-01T08:53:18.803Z</time></trkpt><trkpt lat="42.2885169" lon="14.2756056"><ele>215.20000000000002</ele><time>2026-05-01T08:53:19.802Z</time></trkpt><trkpt lat="42.2884228" lon="14.2755066"><ele>215.60000000000002</ele><time>2026-05-01T08:53:21.809Z</time></trkpt><trkpt lat="42.2883168" lon="14.2754541"><ele>216.0</ele><time>2026-05-01T08:53:23.807Z</time></trkpt><trkpt lat="42.2882481" lon="14.2754423"><ele>216.0</ele><time>2026-05-01T08:53:24.807Z</time></trkpt><trkpt lat="42.2881798" lon="14.2754496"><ele>216.0</ele><time>2026-05-01T08:53:25.811Z</time></trkpt><trkpt lat="42.2881033" lon="14.2754794"><ele>216.0</ele><time>2026-05-01T08:53:26.796Z</time></trkpt><trkpt lat="42.2880089" lon="14.2755058"><ele>216.0</ele><time>2026-05-01T08:53:27.814Z</time></trkpt><trkpt lat="42.2879141" lon="14.2755234"><ele>216.0</ele><time>2026-05-01T08:53:28.818Z</time></trkpt><trkpt lat="42.2878362" lon="14.2755417"><ele>216.0</ele><time>2026-05-01T08:53:29.801Z</time></trkpt><trkpt lat="42.2877697" lon="14.2755492"><ele>214.0</ele><time>2026-05-01T08:53:30.809Z</time></trkpt><trkpt lat="42.2876925" lon="14.2755407"><ele>212.0</ele><time>2026-05-01T08:53:31.807Z</time></trkpt><trkpt lat="42.2876158" lon="14.2754943"><ele>210.0</ele><time>2026-05-01T08:53:32.82Z</time></trkpt><trkpt lat="42.2875536" lon="14.2754365"><ele>208.0</ele><time>2026-05-01T08:53:33.805Z</time></trkpt><trkpt lat="42.2874793" lon="14.2753124"><ele>206.0</ele><time>2026-05-01T08:53:35.795Z</time></trkpt><trkpt lat="42.2874442" lon="14.2752282"><ele>204.0</ele><time>2026-05-01T08:53:36.807Z</time></trkpt><trkpt lat="42.287409" lon="14.2751139"><ele>204.0</ele><time>2026-05-01T08:53:37.798Z</time></trkpt><trkpt lat="42.2873647" lon="14.2749937"><ele>204.0</ele><time>2026-05-01T08:53:38.811Z</time></trkpt><trkpt lat="42.28732" lon="14.2748878"><ele>204.0</ele><time>2026-05-01T08:53:39.81Z</time></trkpt><trkpt lat="42.28729" lon="14.2747999"><ele>204.0</ele><time>2026-05-01T08:53:40.813Z</time></trkpt><trkpt lat="42.2872263" lon="14.2746934"><ele>204.0</ele><time>2026-05-01T08:53:42.812Z</time></trkpt><trkpt lat="42.2871545" lon="14.2746735"><ele>204.0</ele><time>2026-05-01T08:53:44.795Z</time></trkpt><trkpt lat="42.2870935" lon="14.2746946"><ele>204.16666666666666</ele><time>2026-05-01T08:53:47.811Z</time></trkpt><trkpt lat="42.2870222" lon="14.2747119"><ele>204.33333333333331</ele><time>2026-05-01T08:53:49.812Z</time></trkpt><trkpt lat="42.2869318" lon="14.2747315"><ele>204.5</ele><time>2026-05-01T08:53:51.816Z</time></trkpt><trkpt lat="42.2868391" lon="14.2747662"><ele>204.66666666666666</ele><time>2026-05-01T08:53:53.815Z</time></trkpt><trkpt lat="42.2867745" lon="14.2747859"><ele>204.83333333333331</ele><time>2026-05-01T08:53:54.808Z</time></trkpt><trkpt lat="42.2866725" lon="14.274831"><ele>205.0</ele><time>2026-05-01T08:53:56.805Z</time></trkpt><trkpt lat="42.2866092" lon="14.274849"><ele>204.2</ele><time>2026-05-01T08:53:58.809Z</time></trkpt><trkpt lat="42.2865133" lon="14.2748352"><ele>203.4</ele><time>2026-05-01T08:54:01.821Z</time></trkpt><trkpt lat="42.28644" lon="14.2747896"><ele>202.60000000000002</ele><time>2026-05-01T08:54:03.815Z</time></trkpt><trkpt lat="42.2863586" lon="14.2746995"><ele>201.8</ele><time>2026-05-01T08:54:05.81Z</time></trkpt><trkpt lat="42.2862741" lon="14.274622"><ele>201.0</ele><time>2026-05-01T08:54:07.81Z</time></trkpt><trkpt lat="42.2862027" lon="14.2745214"><ele>201.0</ele><time>2026-05-01T08:54:09.801Z</time></trkpt><trkpt lat="42.2861604" lon="14.2744306"><ele>201.0</ele><time>2026-05-01T08:54:10.806Z</time></trkpt><trkpt lat="42.2861117" lon="14.2743415"><ele>201.0</ele><time>2026-05-01T08:54:11.811Z</time></trkpt><trkpt lat="42.2860824" lon="14.2742617"><ele>201.0</ele><time>2026-05-01T08:54:12.794Z</time></trkpt><trkpt lat="42.2860623" lon="14.2741711"><ele>201.0</ele><time>2026-05-01T08:54:13.821Z</time></trkpt><trkpt lat="42.286049" lon="14.2740782"><ele>201.0</ele><time>2026-05-01T08:54:14.8Z</time></trkpt><trkpt lat="42.2860665" lon="14.2739716"><ele>201.0</ele><time>2026-05-01T08:54:15.808Z</time></trkpt><trkpt lat="42.2861016" lon="14.2738506"><ele>203.60000000000002</ele><time>2026-05-01T08:54:16.804Z</time></trkpt><trkpt lat="42.2861353" lon="14.2737427"><ele>206.2</ele><time>2026-05-01T08:54:17.807Z</time></trkpt><trkpt lat="42.286153" lon="14.2736132"><ele>208.79999999999998</ele><time>2026-05-01T08:54:19.805Z</time></trkpt><trkpt lat="42.2861306" lon="14.2735149"><ele>211.39999999999998</ele><time>2026-05-01T08:54:20.832Z</time></trkpt><trkpt lat="42.2860925" lon="14.2733907"><ele>214.0</ele><time>2026-05-01T08:54:21.798Z</time></trkpt><trkpt lat="42.2860333" lon="14.273283"><ele>214.0</ele><time>2026-05-01T08:54:22.806Z</time></trkpt><trkpt lat="42.2859656" lon="14.2731728"><ele>213.99999999999997</ele><time>2026-05-01T08:54:23.806Z</time></trkpt><trkpt lat="42.285899" lon="14.2730862"><ele>213.99999999999997</ele><time>2026-05-01T08:54:24.8Z</time></trkpt><trkpt lat="42.2858376" lon="14.2729922"><ele>214.0</ele><time>2026-05-01T08:54:25.819Z</time></trkpt><trkpt lat="42.2857706" lon="14.2729052"><ele>214.0</ele><time>2026-05-01T08:54:26.802Z</time></trkpt><trkpt lat="42.2856992" lon="14.2728234"><ele>213.49999999999997</ele><time>2026-05-01T08:54:27.815Z</time></trkpt><trkpt lat="42.285617" lon="14.2727381"><ele>213.0</ele><time>2026-05-01T08:54:28.798Z</time></trkpt><trkpt lat="42.2855464" lon="14.2726557"><ele>212.5</ele><time>2026-05-01T08:54:29.797Z</time></trkpt><trkpt lat="42.2855042" lon="14.2725782"><ele>212.0</ele><time>2026-05-01T08:54:30.798Z</time></trkpt><trkpt lat="42.285468" lon="14.2725004"><ele>211.49999999999997</ele><time>2026-05-01T08:54:31.793Z</time></trkpt><trkpt lat="42.2854365" lon="14.2723989"><ele>211.0</ele><time>2026-05-01T08:54:32.791Z</time></trkpt><trkpt lat="42.2854108" lon="14.2723028"><ele>212.99999999999997</ele><time>2026-05-01T08:54:33.809Z</time></trkpt><trkpt lat="42.2853887" lon="14.2722184"><ele>215.0</ele><time>2026-05-01T08:54:34.792Z</time></trkpt><trkpt lat="42.2853606" lon="14.272132"><ele>217.0</ele><time>2026-05-01T08:54:35.798Z</time></trkpt><trkpt lat="42.2853402" lon="14.2720371"><ele>219.0</ele><time>2026-05-01T08:54:36.8Z</time></trkpt><trkpt lat="42.2853304" lon="14.2719256"><ele>220.99999999999997</ele><time>2026-05-01T08:54:37.804Z</time></trkpt><trkpt lat="42.2853221" lon="14.2718024"><ele>223.0</ele><time>2026-05-01T08:54:38.811Z</time></trkpt><trkpt lat="42.2853158" lon="14.2716988"><ele>223.0</ele><time>2026-05-01T08:54:39.801Z</time></trkpt><trkpt lat="42.2853125" lon="14.2715991"><ele>223.0</ele><time>2026-05-01T08:54:40.809Z</time></trkpt><trkpt lat="42.2853114" lon="14.2714902"><ele>223.0</ele><time>2026-05-01T08:54:41.802Z</time></trkpt><trkpt lat="42.2853056" lon="14.2713822"><ele>223.0</ele><time>2026-05-01T08:54:42.798Z</time></trkpt><trkpt lat="42.2852988" lon="14.2712871"><ele>223.0</ele><time>2026-05-01T08:54:43.806Z</time></trkpt><trkpt lat="42.2852882" lon="14.2711951"><ele>223.0</ele><time>2026-05-01T08:54:44.811Z</time></trkpt><trkpt lat="42.285284" lon="14.271098"><ele>223.0</ele><time>2026-05-01T08:54:45.805Z</time></trkpt><trkpt lat="42.2852783" lon="14.2710017"><ele>224.83333333333331</ele><time>2026-05-01T08:54:46.816Z</time></trkpt><trkpt lat="42.2852822" lon="14.2709103"><ele>226.66666666666666</ele><time>2026-05-01T08:54:47.8Z</time></trkpt><trkpt lat="42.2852955" lon="14.2708016"><ele>228.5</ele><time>2026-05-01T08:54:48.797Z</time></trkpt><trkpt lat="42.2853113" lon="14.2706836"><ele>230.33333333333331</ele><time>2026-05-01T08:54:49.809Z</time></trkpt><trkpt lat="42.285317" lon="14.2705528"><ele>232.16666666666666</ele><time>2026-05-01T08:54:50.799Z</time></trkpt><trkpt lat="42.2853228" lon="14.2704222"><ele>234.0</ele><time>2026-05-01T08:54:51.801Z</time></trkpt><trkpt lat="42.2853337" lon="14.2702958"><ele>235.5</ele><time>2026-05-01T08:54:52.798Z</time></trkpt><trkpt lat="42.2853422" lon="14.270171"><ele>237.0</ele><time>2026-05-01T08:54:53.803Z</time></trkpt><trkpt lat="42.2853589" lon="14.2700371"><ele>238.5</ele><time>2026-05-01T08:54:54.813Z</time></trkpt><trkpt lat="42.2853912" lon="14.2699158"><ele>240.0</ele><time>2026-05-01T08:54:55.802Z</time></trkpt><trkpt lat="42.2854106" lon="14.2697971"><ele>241.5</ele><time>2026-05-01T08:54:56.805Z</time></trkpt><trkpt lat="42.2854252" lon="14.2697047"><ele>243.0</ele><time>2026-05-01T08:54:57.798Z</time></trkpt><trkpt lat="42.2854454" lon="14.269619"><ele>244.33333333333334</ele><time>2026-05-01T08:54:58.802Z</time></trkpt><trkpt lat="42.2854692" lon="14.2695364"><ele>245.66666666666669</ele><time>2026-05-01T08:54:59.809Z</time></trkpt><trkpt lat="42.285502" lon="14.2693744"><ele>247.0</ele><time>2026-05-01T08:55:01.798Z</time></trkpt><trkpt lat="42.2855186" lon="14.2692814"><ele>248.33333333333334</ele><time>2026-05-01T08:55:02.804Z</time></trkpt><trkpt lat="42.2855404" lon="14.2691772"><ele>249.66666666666669</ele><time>2026-05-01T08:55:03.815Z</time></trkpt><trkpt lat="42.2855666" lon="14.2690571"><ele>251.0</ele><time>2026-05-01T08:55:04.804Z</time></trkpt><trkpt lat="42.2855914" lon="14.2689357"><ele>257.0</ele><time>2026-05-01T08:55:05.81Z</time></trkpt><trkpt lat="42.2856082" lon="14.2688283"><ele>263.0</ele><time>2026-05-01T08:55:06.81Z</time></trkpt><trkpt lat="42.2856228" lon="14.2687109"><ele>269.0</ele><time>2026-05-01T08:55:07.81Z</time></trkpt><trkpt lat="42.2856371" lon="14.2685879"><ele>275.0</ele><time>2026-05-01T08:55:08.806Z</time></trkpt><trkpt lat="42.285644" lon="14.2684439"><ele>281.0</ele><time>2026-05-01T08:55:09.802Z</time></trkpt><trkpt lat="42.2856541" lon="14.2683165"><ele>281.0</ele><time>2026-05-01T08:55:10.804Z</time></trkpt><trkpt lat="42.2856568" lon="14.2682259"><ele>281.0</ele><time>2026-05-01T08:55:11.805Z</time></trkpt><trkpt lat="42.2856468" lon="14.2680566"><ele>281.0</ele><time>2026-05-01T08:55:13.8Z</time></trkpt><trkpt lat="42.2856097" lon="14.2679311"><ele>281.0</ele><time>2026-05-01T08:55:14.819Z</time></trkpt><trkpt lat="42.2855469" lon="14.2678009"><ele>281.0</ele><time>2026-05-01T08:55:15.796Z</time></trkpt><trkpt lat="42.2854781" lon="14.2676787"><ele>280.33333333333337</ele><time>2026-05-01T08:55:16.817Z</time></trkpt><trkpt lat="42.285393" lon="14.2675317"><ele>279.6666666666667</ele><time>2026-05-01T08:55:17.812Z</time></trkpt><trkpt lat="42.2852879" lon="14.2673679"><ele>279.0</ele><time>2026-05-01T08:55:18.801Z</time></trkpt><trkpt lat="42.2851665" lon="14.2671872"><ele>280.2</ele><time>2026-05-01T08:55:19.81Z</time></trkpt><trkpt lat="42.2850557" lon="14.2670365"><ele>281.4</ele><time>2026-05-01T08:55:20.805Z</time></trkpt><trkpt lat="42.2849637" lon="14.2669496"><ele>282.6</ele><time>2026-05-01T08:55:21.815Z</time></trkpt><trkpt lat="42.2849026" lon="14.2668919"><ele>283.8</ele><time>2026-05-01T08:55:22.813Z</time></trkpt><trkpt lat="42.2848461" lon="14.2668353"><ele>285.0</ele><time>2026-05-01T08:55:23.81Z</time></trkpt><trkpt lat="42.2847816" lon="14.2667161"><ele>285.0</ele><time>2026-05-01T08:55:25.803Z</time></trkpt><trkpt lat="42.2847614" lon="14.2666073"><ele>285.0</ele><time>2026-05-01T08:55:27.814Z</time></trkpt><trkpt lat="42.2848084" lon="14.2664464"><ele>285.0</ele><time>2026-05-01T08:55:29.8Z</time></trkpt><trkpt lat="42.2848418" lon="14.2663657"><ele>285.0</ele><time>2026-05-01T08:55:30.799Z</time></trkpt><trkpt lat="42.2848731" lon="14.2662894"><ele>285.0</ele><time>2026-05-01T08:55:31.829Z</time></trkpt><trkpt lat="42.2849124" lon="14.2662046"><ele>285.0</ele><time>2026-05-01T08:55:32.801Z</time></trkpt><trkpt lat="42.2849611" lon="14.2661171"><ele>284.8333333333333</ele><time>2026-05-01T08:55:33.825Z</time></trkpt><trkpt lat="42.2850103" lon="14.2660228"><ele>284.6666666666667</ele><time>2026-05-01T08:55:34.799Z</time></trkpt><trkpt lat="42.2850639" lon="14.2659197"><ele>284.5</ele><time>2026-05-01T08:55:35.81Z</time></trkpt><trkpt lat="42.2851191" lon="14.2658205"><ele>284.33333333333337</ele><time>2026-05-01T08:55:36.801Z</time></trkpt><trkpt lat="42.2851679" lon="14.2657289"><ele>284.1666666666667</ele><time>2026-05-01T08:55:37.807Z</time></trkpt><trkpt lat="42.2852231" lon="14.2656408"><ele>284.0</ele><time>2026-05-01T08:55:38.82Z</time></trkpt><trkpt lat="42.28527" lon="14.2655695"><ele>282.4</ele><time>2026-05-01T08:55:39.812Z</time></trkpt><trkpt lat="42.2853537" lon="14.2654299"><ele>280.79999999999995</ele><time>2026-05-01T08:55:41.816Z</time></trkpt><trkpt lat="42.2853978" lon="14.2653556"><ele>279.20000000000005</ele><time>2026-05-01T08:55:42.825Z</time></trkpt><trkpt lat="42.2854412" lon="14.265292"><ele>277.6</ele><time>2026-05-01T08:55:43.813Z</time></trkpt><trkpt lat="42.2855345" lon="14.2651711"><ele>276.0</ele><time>2026-05-01T08:55:45.793Z</time></trkpt><trkpt lat="42.285601" lon="14.2651292"><ele>274.2</ele><time>2026-05-01T08:55:46.809Z</time></trkpt><trkpt lat="42.2856686" lon="14.2650986"><ele>272.40000000000003</ele><time>2026-05-01T08:55:47.797Z</time></trkpt><trkpt lat="42.2857659" lon="14.2650169"><ele>270.6</ele><time>2026-05-01T08:55:49.807Z</time></trkpt><trkpt lat="42.2857631" lon="14.2648894"><ele>268.8</ele><time>2026-05-01T08:55:51.804Z</time></trkpt><trkpt lat="42.2857222" lon="14.2647893"><ele>267.0</ele><time>2026-05-01T08:55:52.785Z</time></trkpt><trkpt lat="42.2856714" lon="14.2646461"><ele>265.0</ele><time>2026-05-01T08:55:53.823Z</time></trkpt><trkpt lat="42.2855987" lon="14.2644698"><ele>263.0</ele><time>2026-05-01T08:55:54.794Z</time></trkpt><trkpt lat="42.2855101" lon="14.2642808"><ele>261.0</ele><time>2026-05-01T08:55:55.818Z</time></trkpt><trkpt lat="42.2854217" lon="14.2640876"><ele>260.5</ele><time>2026-05-01T08:55:56.807Z</time></trkpt><trkpt lat="42.2853451" lon="14.2639093"><ele>260.0</ele><time>2026-05-01T08:55:57.785Z</time></trkpt><trkpt lat="42.2852711" lon="14.2637411"><ele>259.5</ele><time>2026-05-01T08:55:58.811Z</time></trkpt><trkpt lat="42.2852233" lon="14.2635698"><ele>259.0</ele><time>2026-05-01T08:55:59.8Z</time></trkpt><trkpt lat="42.2852155" lon="14.2633993"><ele>259.0</ele><time>2026-05-01T08:56:00.823Z</time></trkpt><trkpt lat="42.2852466" lon="14.2632305"><ele>259.0</ele><time>2026-05-01T08:56:01.808Z</time></trkpt><trkpt lat="42.2852884" lon="14.2630711"><ele>259.0</ele><time>2026-05-01T08:56:02.809Z</time></trkpt><trkpt lat="42.2853201" lon="14.2629289"><ele>259.0</ele><time>2026-05-01T08:56:03.798Z</time></trkpt><trkpt lat="42.2853092" lon="14.262774"><ele>258.0</ele><time>2026-05-01T08:56:04.797Z</time></trkpt><trkpt lat="42.2852521" lon="14.2626214"><ele>257.0</ele><time>2026-05-01T08:56:05.796Z</time></trkpt><trkpt lat="42.2851752" lon="14.262464"><ele>256.0</ele><time>2026-05-01T08:56:06.803Z</time></trkpt><trkpt lat="42.2850887" lon="14.2622988"><ele>255.0</ele><time>2026-05-01T08:56:07.791Z</time></trkpt><trkpt lat="42.2849977" lon="14.2621158"><ele>256.75</ele><time>2026-05-01T08:56:08.796Z</time></trkpt><trkpt lat="42.284909" lon="14.2619403"><ele>258.5</ele><time>2026-05-01T08:56:09.799Z</time></trkpt><trkpt lat="42.2848237" lon="14.2617794"><ele>260.25</ele><time>2026-05-01T08:56:10.805Z</time></trkpt><trkpt lat="42.2847423" lon="14.2616221"><ele>262.0</ele><time>2026-05-01T08:56:11.855Z</time></trkpt><trkpt lat="42.2846659" lon="14.2614682"><ele>259.6</ele><time>2026-05-01T08:56:12.805Z</time></trkpt><trkpt lat="42.2845948" lon="14.2613257"><ele>257.2</ele><time>2026-05-01T08:56:13.809Z</time></trkpt><trkpt lat="42.2845408" lon="14.261191"><ele>254.8</ele><time>2026-05-01T08:56:14.812Z</time></trkpt><trkpt lat="42.2845146" lon="14.2610568"><ele>252.4</ele><time>2026-05-01T08:56:15.789Z</time></trkpt><trkpt lat="42.2845157" lon="14.2609287"><ele>250.0</ele><time>2026-05-01T08:56:16.814Z</time></trkpt><trkpt lat="42.2845523" lon="14.26081"><ele>250.0</ele><time>2026-05-01T08:56:17.788Z</time></trkpt><trkpt lat="42.2846207" lon="14.260734"><ele>250.0</ele><time>2026-05-01T08:56:18.795Z</time></trkpt><trkpt lat="42.2847113" lon="14.2606678"><ele>250.0</ele><time>2026-05-01T08:56:19.797Z</time></trkpt><trkpt lat="42.28481" lon="14.2606398"><ele>250.0</ele><time>2026-05-01T08:56:20.8Z</time></trkpt><trkpt lat="42.2849353" lon="14.2606189"><ele>250.0</ele><time>2026-05-01T08:56:21.816Z</time></trkpt><trkpt lat="42.2850864" lon="14.2606017"><ele>248.33333333333331</ele><time>2026-05-01T08:56:22.8Z</time></trkpt><trkpt lat="42.2852517" lon="14.2605802"><ele>246.66666666666669</ele><time>2026-05-01T08:56:23.811Z</time></trkpt><trkpt lat="42.2854306" lon="14.2605576"><ele>245.0</ele><time>2026-05-01T08:56:24.817Z</time></trkpt><trkpt lat="42.2856024" lon="14.2605384"><ele>248.66666666666669</ele><time>2026-05-01T08:56:25.802Z</time></trkpt><trkpt lat="42.285771" lon="14.2605339"><ele>252.33333333333331</ele><time>2026-05-01T08:56:26.813Z</time></trkpt><trkpt lat="42.2859373" lon="14.2605414"><ele>256.0</ele><time>2026-05-01T08:56:27.794Z</time></trkpt><trkpt lat="42.2860978" lon="14.2606007"><ele>254.0</ele><time>2026-05-01T08:56:28.807Z</time></trkpt><trkpt lat="42.2862351" lon="14.2606692"><ele>252.0</ele><time>2026-05-01T08:56:29.809Z</time></trkpt><trkpt lat="42.2863793" lon="14.2607051"><ele>250.0</ele><time>2026-05-01T08:56:30.816Z</time></trkpt><trkpt lat="42.2865236" lon="14.2607152"><ele>248.0</ele><time>2026-05-01T08:56:31.809Z</time></trkpt><trkpt lat="42.2866519" lon="14.260677"><ele>248.0</ele><time>2026-05-01T08:56:32.835Z</time></trkpt><trkpt lat="42.2867554" lon="14.260631"><ele>248.0</ele><time>2026-05-01T08:56:33.8Z</time></trkpt><trkpt lat="42.2868386" lon="14.260543"><ele>248.0</ele><time>2026-05-01T08:56:34.801Z</time></trkpt><trkpt lat="42.2868922" lon="14.2604275"><ele>248.0</ele><time>2026-05-01T08:56:35.802Z</time></trkpt><trkpt lat="42.2869048" lon="14.2603036"><ele>248.0</ele><time>2026-05-01T08:56:36.796Z</time></trkpt><trkpt lat="42.286887" lon="14.2601515"><ele>251.75</ele><time>2026-05-01T08:56:37.834Z</time></trkpt><trkpt lat="42.286835" lon="14.2600139"><ele>255.5</ele><time>2026-05-01T08:56:38.816Z</time></trkpt><trkpt lat="42.2867738" lon="14.2598707"><ele>259.25</ele><time>2026-05-01T08:56:39.813Z</time></trkpt><trkpt lat="42.2867065" lon="14.2597476"><ele>263.0</ele><time>2026-05-01T08:56:40.81Z</time></trkpt><trkpt lat="42.2866415" lon="14.259642"><ele>264.25</ele><time>2026-05-01T08:56:41.817Z</time></trkpt><trkpt lat="42.2865638" lon="14.2595549"><ele>265.5</ele><time>2026-05-01T08:56:42.805Z</time></trkpt><trkpt lat="42.286452" lon="14.2594906"><ele>266.75</ele><time>2026-05-01T08:56:43.794Z</time></trkpt><trkpt lat="42.2863316" lon="14.2594325"><ele>268.0</ele><time>2026-05-01T08:56:44.799Z</time></trkpt><trkpt lat="42.2862119" lon="14.2593647"><ele>268.0</ele><time>2026-05-01T08:56:45.813Z</time></trkpt><trkpt lat="42.286097" lon="14.2592836"><ele>268.0</ele><time>2026-05-01T08:56:46.812Z</time></trkpt><trkpt lat="42.2859815" lon="14.2591987"><ele>268.0</ele><time>2026-05-01T08:56:47.829Z</time></trkpt><trkpt lat="42.2858731" lon="14.2591008"><ele>268.0</ele><time>2026-05-01T08:56:48.809Z</time></trkpt><trkpt lat="42.2857741" lon="14.258987"><ele>271.2</ele><time>2026-05-01T08:56:49.807Z</time></trkpt><trkpt lat="42.2857004" lon="14.2588632"><ele>274.4</ele><time>2026-05-01T08:56:50.812Z</time></trkpt><trkpt lat="42.2856489" lon="14.2587309"><ele>277.59999999999997</ele><time>2026-05-01T08:56:51.806Z</time></trkpt><trkpt lat="42.2856332" lon="14.2586157"><ele>280.8</ele><time>2026-05-01T08:56:52.808Z</time></trkpt><trkpt lat="42.2856525" lon="14.2585092"><ele>284.0</ele><time>2026-05-01T08:56:53.814Z</time></trkpt><trkpt lat="42.2857105" lon="14.2584184"><ele>284.0</ele><time>2026-05-01T08:56:54.806Z</time></trkpt><trkpt lat="42.2857957" lon="14.2583609"><ele>284.0</ele><time>2026-05-01T08:56:55.804Z</time></trkpt><trkpt lat="42.2859072" lon="14.2583686"><ele>284.0</ele><time>2026-05-01T08:56:56.821Z</time></trkpt><trkpt lat="42.2860289" lon="14.258409"><ele>284.0</ele><time>2026-05-01T08:56:57.796Z</time></trkpt><trkpt lat="42.2861513" lon="14.2585054"><ele>284.0</ele><time>2026-05-01T08:56:58.811Z</time></trkpt><trkpt lat="42.2862873" lon="14.258615"><ele>284.0</ele><time>2026-05-01T08:56:59.797Z</time></trkpt><trkpt lat="42.2864409" lon="14.2587357"><ele>284.0</ele><time>2026-05-01T08:57:00.809Z</time></trkpt><trkpt lat="42.2866227" lon="14.2588499"><ele>281.6666666666667</ele><time>2026-05-01T08:57:01.815Z</time></trkpt><trkpt lat="42.2868028" lon="14.2589558"><ele>279.3333333333333</ele><time>2026-05-01T08:57:02.821Z</time></trkpt><trkpt lat="42.286974" lon="14.2590532"><ele>277.0</ele><time>2026-05-01T08:57:03.805Z</time></trkpt><trkpt lat="42.2871272" lon="14.2591477"><ele>277.0</ele><time>2026-05-01T08:57:04.818Z</time></trkpt><trkpt lat="42.2872558" lon="14.2592255"><ele>277.0</ele><time>2026-05-01T08:57:05.802Z</time></trkpt><trkpt lat="42.2873651" lon="14.2592931"><ele>277.0</ele><time>2026-05-01T08:57:06.824Z</time></trkpt><trkpt lat="42.2874609" lon="14.2593518"><ele>277.0</ele><time>2026-05-01T08:57:07.808Z</time></trkpt><trkpt lat="42.287563" lon="14.2593736"><ele>279.5</ele><time>2026-05-01T08:57:08.802Z</time></trkpt><trkpt lat="42.2876797" lon="14.2593637"><ele>282.0</ele><time>2026-05-01T08:57:09.806Z</time></trkpt><trkpt lat="42.2878056" lon="14.2593424"><ele>284.5</ele><time>2026-05-01T08:57:10.805Z</time></trkpt><trkpt lat="42.2879252" lon="14.2593051"><ele>287.0</ele><time>2026-05-01T08:57:11.809Z</time></trkpt><trkpt lat="42.2880343" lon="14.2592418"><ele>288.25</ele><time>2026-05-01T08:57:12.808Z</time></trkpt><trkpt lat="42.2881449" lon="14.2591715"><ele>289.5</ele><time>2026-05-01T08:57:13.807Z</time></trkpt><trkpt lat="42.2882486" lon="14.2590928"><ele>290.75</ele><time>2026-05-01T08:57:14.804Z</time></trkpt><trkpt lat="42.2883433" lon="14.2590075"><ele>292.0</ele><time>2026-05-01T08:57:15.811Z</time></trkpt><trkpt lat="42.2884299" lon="14.2589027"><ele>293.75</ele><time>2026-05-01T08:57:16.804Z</time></trkpt><trkpt lat="42.2885238" lon="14.2587954"><ele>295.5</ele><time>2026-05-01T08:57:17.81Z</time></trkpt><trkpt lat="42.2886174" lon="14.2586905"><ele>297.25</ele><time>2026-05-01T08:57:18.798Z</time></trkpt><trkpt lat="42.2886975" lon="14.2585945"><ele>299.0</ele><time>2026-05-01T08:57:19.816Z</time></trkpt><trkpt lat="42.2887785" lon="14.2585049"><ele>299.0</ele><time>2026-05-01T08:57:20.834Z</time></trkpt><trkpt lat="42.2888472" lon="14.2584163"><ele>299.0</ele><time>2026-05-01T08:57:21.802Z</time></trkpt><trkpt lat="42.2889097" lon="14.2583195"><ele>299.0</ele><time>2026-05-01T08:57:22.817Z</time></trkpt><trkpt lat="42.2889605" lon="14.2582232"><ele>299.0</ele><time>2026-05-01T08:57:23.802Z</time></trkpt><trkpt lat="42.2890063" lon="14.2581444"><ele>299.0</ele><time>2026-05-01T08:57:24.811Z</time></trkpt><trkpt lat="42.2890397" lon="14.2580675"><ele>299.0</ele><time>2026-05-01T08:57:25.801Z</time></trkpt><trkpt lat="42.2890982" lon="14.2579812"><ele>298.4</ele><time>2026-05-01T08:57:27.814Z</time></trkpt><trkpt lat="42.2890726" lon="14.257842"><ele>297.79999999999995</ele><time>2026-05-01T08:57:31.803Z</time></trkpt><trkpt lat="42.2890202" lon="14.2577932"><ele>297.20000000000005</ele><time>2026-05-01T08:57:32.805Z</time></trkpt><trkpt lat="42.288942" lon="14.2577053"><ele>296.6</ele><time>2026-05-01T08:57:33.791Z</time></trkpt><trkpt lat="42.2888609" lon="14.25761"><ele>296.0</ele><time>2026-05-01T08:57:34.795Z</time></trkpt><trkpt lat="42.2887701" lon="14.2574907"><ele>298.0</ele><time>2026-05-01T08:57:35.807Z</time></trkpt><trkpt lat="42.2886552" lon="14.257373"><ele>300.0</ele><time>2026-05-01T08:57:36.82Z</time></trkpt><trkpt lat="42.2885222" lon="14.257239"><ele>302.0</ele><time>2026-05-01T08:57:37.798Z</time></trkpt><trkpt lat="42.2883768" lon="14.2571153"><ele>302.0</ele><time>2026-05-01T08:57:38.798Z</time></trkpt><trkpt lat="42.2882088" lon="14.2569967"><ele>302.0</ele><time>2026-05-01T08:57:39.796Z</time></trkpt><trkpt lat="42.2880248" lon="14.2568993"><ele>302.0</ele><time>2026-05-01T08:57:40.833Z</time></trkpt><trkpt lat="42.2878225" lon="14.2568017"><ele>303.0</ele><time>2026-05-01T08:57:41.814Z</time></trkpt><trkpt lat="42.2876348" lon="14.2567046"><ele>304.0</ele><time>2026-05-01T08:57:42.806Z</time></trkpt><trkpt lat="42.2874588" lon="14.2565999"><ele>305.0</ele><time>2026-05-01T08:57:43.8Z</time></trkpt><trkpt lat="42.2872856" lon="14.2564694"><ele>306.6666666666667</ele><time>2026-05-01T08:57:44.807Z</time></trkpt><trkpt lat="42.2871206" lon="14.2563151"><ele>308.3333333333333</ele><time>2026-05-01T08:57:45.806Z</time></trkpt><trkpt lat="42.2869542" lon="14.2561499"><ele>310.0</ele><time>2026-05-01T08:57:46.814Z</time></trkpt><trkpt lat="42.2867819" lon="14.2559711"><ele>310.0</ele><time>2026-05-01T08:57:47.795Z</time></trkpt><trkpt lat="42.2866029" lon="14.2557912"><ele>310.0</ele><time>2026-05-01T08:57:48.809Z</time></trkpt><trkpt lat="42.2864156" lon="14.2556066"><ele>311.5</ele><time>2026-05-01T08:57:49.81Z</time></trkpt><trkpt lat="42.2862168" lon="14.2554316"><ele>313.0</ele><time>2026-05-01T08:57:50.8Z</time></trkpt><trkpt lat="42.2860057" lon="14.2552676"><ele>313.0</ele><time>2026-05-01T08:57:51.823Z</time></trkpt><trkpt lat="42.2857875" lon="14.2551003"><ele>313.0</ele><time>2026-05-01T08:57:52.801Z</time></trkpt><trkpt lat="42.2855733" lon="14.2549353"><ele>313.5</ele><time>2026-05-01T08:57:53.819Z</time></trkpt><trkpt lat="42.2853614" lon="14.2547841"><ele>314.0</ele><time>2026-05-01T08:57:54.806Z</time></trkpt><trkpt lat="42.2851565" lon="14.2546388"><ele>314.0</ele><time>2026-05-01T08:57:55.8Z</time></trkpt><trkpt lat="42.2849595" lon="14.2545082"><ele>314.0</ele><time>2026-05-01T08:57:56.808Z</time></trkpt><trkpt lat="42.2847715" lon="14.2543773"><ele>314.0</ele><time>2026-05-01T08:57:57.811Z</time></trkpt><trkpt lat="42.2845908" lon="14.2542632"><ele>314.0</ele><time>2026-05-01T08:57:58.803Z</time></trkpt><trkpt lat="42.2844086" lon="14.2541539"><ele>314.0</ele><time>2026-05-01T08:57:59.816Z</time></trkpt><trkpt lat="42.2842208" lon="14.2540515"><ele>314.0</ele><time>2026-05-01T08:58:00.813Z</time></trkpt><trkpt lat="42.2840319" lon="14.2539525"><ele>314.0</ele><time>2026-05-01T08:58:01.807Z</time></trkpt><trkpt lat="42.2838362" lon="14.2538607"><ele>314.0</ele><time>2026-05-01T08:58:02.808Z</time></trkpt><trkpt lat="42.2836427" lon="14.2537444"><ele>314.0</ele><time>2026-05-01T08:58:03.794Z</time></trkpt><trkpt lat="42.2834453" lon="14.2536246"><ele>314.0</ele><time>2026-05-01T08:58:04.811Z</time></trkpt><trkpt lat="42.2832492" lon="14.2535061"><ele>314.0</ele><time>2026-05-01T08:58:05.803Z</time></trkpt><trkpt lat="42.2830441" lon="14.253399"><ele>314.0</ele><time>2026-05-01T08:58:06.805Z</time></trkpt><trkpt lat="42.2828384" lon="14.2532878"><ele>313.0</ele><time>2026-05-01T08:58:07.807Z</time></trkpt><trkpt lat="42.2826224" lon="14.253174"><ele>312.0</ele><time>2026-05-01T08:58:08.809Z</time></trkpt><trkpt lat="42.2824033" lon="14.2530723"><ele>312.5</ele><time>2026-05-01T08:58:09.799Z</time></trkpt><trkpt lat="42.282183" lon="14.2529747"><ele>313.0</ele><time>2026-05-01T08:58:10.797Z</time></trkpt><trkpt lat="42.2819614" lon="14.2528834"><ele>313.0</ele><time>2026-05-01T08:58:11.805Z</time></trkpt><trkpt lat="42.2817358" lon="14.2527942"><ele>313.0</ele><time>2026-05-01T08:58:12.803Z</time></trkpt><trkpt lat="42.2815119" lon="14.2527049"><ele>314.5</ele><time>2026-05-01T08:58:13.792Z</time></trkpt><trkpt lat="42.2812862" lon="14.252616"><ele>316.0</ele><time>2026-05-01T08:58:14.798Z</time></trkpt><trkpt lat="42.2810561" lon="14.2525203"><ele>316.0</ele><time>2026-05-01T08:58:15.811Z</time></trkpt><trkpt lat="42.2808319" lon="14.2524276"><ele>316.0</ele><time>2026-05-01T08:58:16.808Z</time></trkpt><trkpt lat="42.2805984" lon="14.2523349"><ele>316.0</ele><time>2026-05-01T08:58:17.811Z</time></trkpt><trkpt lat="42.2803683" lon="14.2522435"><ele>316.0</ele><time>2026-05-01T08:58:18.808Z</time></trkpt><trkpt lat="42.2801378" lon="14.2521461"><ele>316.0</ele><time>2026-05-01T08:58:19.808Z</time></trkpt><trkpt lat="42.2799136" lon="14.2520493"><ele>316.0</ele><time>2026-05-01T08:58:20.82Z</time></trkpt><trkpt lat="42.2796935" lon="14.2519285"><ele>317.5</ele><time>2026-05-01T08:58:21.8Z</time></trkpt><trkpt lat="42.2794716" lon="14.251795"><ele>319.0</ele><time>2026-05-01T08:58:22.798Z</time></trkpt><trkpt lat="42.2792477" lon="14.251674"><ele>319.0</ele><time>2026-05-01T08:58:23.803Z</time></trkpt><trkpt lat="42.2790205" lon="14.2515653"><ele>319.0</ele><time>2026-05-01T08:58:24.801Z</time></trkpt><trkpt lat="42.2787957" lon="14.2514681"><ele>321.0</ele><time>2026-05-01T08:58:25.806Z</time></trkpt><trkpt lat="42.2785749" lon="14.2513786"><ele>323.0</ele><time>2026-05-01T08:58:26.801Z</time></trkpt><trkpt lat="42.2783552" lon="14.2512909"><ele>323.0</ele><time>2026-05-01T08:58:27.798Z</time></trkpt><trkpt lat="42.278144" lon="14.2512069"><ele>323.0</ele><time>2026-05-01T08:58:28.811Z</time></trkpt><trkpt lat="42.2779351" lon="14.251127"><ele>323.0</ele><time>2026-05-01T08:58:29.807Z</time></trkpt><trkpt lat="42.2777224" lon="14.2510476"><ele>324.33333333333337</ele><time>2026-05-01T08:58:30.809Z</time></trkpt><trkpt lat="42.277501" lon="14.2509741"><ele>325.6666666666667</ele><time>2026-05-01T08:58:31.805Z</time></trkpt><trkpt lat="42.2772849" lon="14.2509281"><ele>327.0</ele><time>2026-05-01T08:58:32.804Z</time></trkpt><trkpt lat="42.2771038" lon="14.2509001"><ele>328.0</ele><time>2026-05-01T08:58:33.81Z</time></trkpt><trkpt lat="42.276961" lon="14.2508727"><ele>329.0</ele><time>2026-05-01T08:58:34.812Z</time></trkpt><trkpt lat="42.2768423" lon="14.2508183"><ele>330.0</ele><time>2026-05-01T08:58:35.798Z</time></trkpt><trkpt lat="42.2767246" lon="14.2507246"><ele>331.0</ele><time>2026-05-01T08:58:36.815Z</time></trkpt><trkpt lat="42.276612" lon="14.2506224"><ele>330.3333333333333</ele><time>2026-05-01T08:58:37.806Z</time></trkpt><trkpt lat="42.2764939" lon="14.2504958"><ele>329.6666666666667</ele><time>2026-05-01T08:58:38.798Z</time></trkpt><trkpt lat="42.2763786" lon="14.2503533"><ele>329.0</ele><time>2026-05-01T08:58:39.817Z</time></trkpt><trkpt lat="42.2762817" lon="14.2501893"><ele>329.0</ele><time>2026-05-01T08:58:40.814Z</time></trkpt><trkpt lat="42.2762069" lon="14.2500189"><ele>329.0</ele><time>2026-05-01T08:58:41.804Z</time></trkpt><trkpt lat="42.2761235" lon="14.2498729"><ele>329.0</ele><time>2026-05-01T08:58:42.804Z</time></trkpt><trkpt lat="42.2760257" lon="14.2497557"><ele>329.0</ele><time>2026-05-01T08:58:43.803Z</time></trkpt><trkpt lat="42.275894" lon="14.2496696"><ele>326.33333333333337</ele><time>2026-05-01T08:58:44.8Z</time></trkpt><trkpt lat="42.2757304" lon="14.2495815"><ele>323.6666666666667</ele><time>2026-05-01T08:58:45.823Z</time></trkpt><trkpt lat="42.2755638" lon="14.2494877"><ele>321.0</ele><time>2026-05-01T08:58:46.818Z</time></trkpt><trkpt lat="42.2754137" lon="14.2493751"><ele>321.0</ele><time>2026-05-01T08:58:47.797Z</time></trkpt><trkpt lat="42.275285" lon="14.2492567"><ele>321.0</ele><time>2026-05-01T08:58:48.806Z</time></trkpt><trkpt lat="42.2751466" lon="14.2491319"><ele>321.0</ele><time>2026-05-01T08:58:49.806Z</time></trkpt><trkpt lat="42.2749737" lon="14.2490152"><ele>308.5</ele><time>2026-05-01T08:58:50.8Z</time></trkpt><trkpt lat="42.2747529" lon="14.2489195"><ele>296.0</ele><time>2026-05-01T08:58:51.798Z</time></trkpt><trkpt lat="42.2745247" lon="14.2488276"><ele>296.0</ele><time>2026-05-01T08:58:52.799Z</time></trkpt><trkpt lat="42.2743096" lon="14.2487374"><ele>296.0</ele><time>2026-05-01T08:58:53.793Z</time></trkpt><trkpt lat="42.2740968" lon="14.2486337"><ele>300.0</ele><time>2026-05-01T08:58:54.794Z</time></trkpt><trkpt lat="42.2738931" lon="14.2485308"><ele>304.0</ele><time>2026-05-01T08:58:55.805Z</time></trkpt><trkpt lat="42.2737046" lon="14.2484287"><ele>308.0</ele><time>2026-05-01T08:58:56.804Z</time></trkpt><trkpt lat="42.2735174" lon="14.2482965"><ele>308.0</ele><time>2026-05-01T08:58:57.801Z</time></trkpt><trkpt lat="42.2733556" lon="14.2481621"><ele>308.0</ele><time>2026-05-01T08:58:58.805Z</time></trkpt><trkpt lat="42.2732264" lon="14.2480095"><ele>308.0</ele><time>2026-05-01T08:58:59.787Z</time></trkpt><trkpt lat="42.2731278" lon="14.2478418"><ele>307.0</ele><time>2026-05-01T08:59:00.797Z</time></trkpt><trkpt lat="42.2730644" lon="14.2476227"><ele>306.0</ele><time>2026-05-01T08:59:01.798Z</time></trkpt><trkpt lat="42.2730102" lon="14.2473549"><ele>305.0</ele><time>2026-05-01T08:59:02.794Z</time></trkpt><trkpt lat="42.2729688" lon="14.247067"><ele>297.6666666666667</ele><time>2026-05-01T08:59:03.797Z</time></trkpt><trkpt lat="42.2729303" lon="14.2468004"><ele>290.3333333333333</ele><time>2026-05-01T08:59:04.799Z</time></trkpt><trkpt lat="42.272893" lon="14.2465465"><ele>283.0</ele><time>2026-05-01T08:59:05.783Z</time></trkpt><trkpt lat="42.2728605" lon="14.246312"><ele>280.75</ele><time>2026-05-01T08:59:06.798Z</time></trkpt><trkpt lat="42.2728264" lon="14.2461225"><ele>278.5</ele><time>2026-05-01T08:59:07.797Z</time></trkpt><trkpt lat="42.2727802" lon="14.2459746"><ele>276.25</ele><time>2026-05-01T08:59:08.796Z</time></trkpt><trkpt lat="42.2727241" lon="14.2458266"><ele>274.0</ele><time>2026-05-01T08:59:09.804Z</time></trkpt><trkpt lat="42.2726357" lon="14.2456732"><ele>274.3333333333333</ele><time>2026-05-01T08:59:10.802Z</time></trkpt><trkpt lat="42.2725275" lon="14.2455066"><ele>274.6666666666667</ele><time>2026-05-01T08:59:11.8Z</time></trkpt><trkpt lat="42.2723992" lon="14.2452964"><ele>275.0</ele><time>2026-05-01T08:59:12.802Z</time></trkpt><trkpt lat="42.2722839" lon="14.2450671"><ele>275.33333333333337</ele><time>2026-05-01T08:59:13.806Z</time></trkpt><trkpt lat="42.2721868" lon="14.244847"><ele>275.6666666666667</ele><time>2026-05-01T08:59:14.809Z</time></trkpt><trkpt lat="42.2720921" lon="14.2446764"><ele>276.0</ele><time>2026-05-01T08:59:15.795Z</time></trkpt><trkpt lat="42.2719937" lon="14.2445369"><ele>277.8</ele><time>2026-05-01T08:59:16.811Z</time></trkpt><trkpt lat="42.2718971" lon="14.2444501"><ele>279.6</ele><time>2026-05-01T08:59:17.807Z</time></trkpt><trkpt lat="42.2718116" lon="14.2443928"><ele>281.4</ele><time>2026-05-01T08:59:18.792Z</time></trkpt><trkpt lat="42.2717244" lon="14.2443577"><ele>283.2</ele><time>2026-05-01T08:59:19.809Z</time></trkpt><trkpt lat="42.2716224" lon="14.2443273"><ele>285.0</ele><time>2026-05-01T08:59:20.793Z</time></trkpt><trkpt lat="42.2715" lon="14.2443072"><ele>284.0</ele><time>2026-05-01T08:59:21.843Z</time></trkpt><trkpt lat="42.2713719" lon="14.2442829"><ele>283.0</ele><time>2026-05-01T08:59:22.8Z</time></trkpt><trkpt lat="42.2712665" lon="14.2442404"><ele>282.0</ele><time>2026-05-01T08:59:23.801Z</time></trkpt><trkpt lat="42.2711663" lon="14.2441711"><ele>281.0</ele><time>2026-05-01T08:59:24.811Z</time></trkpt><trkpt lat="42.2710541" lon="14.2440712"><ele>281.0</ele><time>2026-05-01T08:59:25.801Z</time></trkpt><trkpt lat="42.270928" lon="14.2439766"><ele>281.0</ele><time>2026-05-01T08:59:26.812Z</time></trkpt><trkpt lat="42.2707879" lon="14.2438866"><ele>281.0</ele><time>2026-05-01T08:59:27.809Z</time></trkpt><trkpt lat="42.2706536" lon="14.2437838"><ele>283.33333333333337</ele><time>2026-05-01T08:59:28.797Z</time></trkpt><trkpt lat="42.2705229" lon="14.2436556"><ele>285.6666666666667</ele><time>2026-05-01T08:59:29.806Z</time></trkpt><trkpt lat="42.2703994" lon="14.2435157"><ele>288.0</ele><time>2026-05-01T08:59:30.808Z</time></trkpt><trkpt lat="42.270288" lon="14.2433593"><ele>288.0</ele><time>2026-05-01T08:59:31.842Z</time></trkpt><trkpt lat="42.2701674" lon="14.2432096"><ele>288.0</ele><time>2026-05-01T08:59:32.806Z</time></trkpt><trkpt lat="42.2700459" lon="14.2430793"><ele>288.0</ele><time>2026-05-01T08:59:33.81Z</time></trkpt><trkpt lat="42.2699288" lon="14.2429661"><ele>289.6666666666667</ele><time>2026-05-01T08:59:34.807Z</time></trkpt><trkpt lat="42.2698002" lon="14.2428353"><ele>291.33333333333337</ele><time>2026-05-01T08:59:35.79Z</time></trkpt><trkpt lat="42.2696541" lon="14.242688"><ele>293.0</ele><time>2026-05-01T08:59:36.797Z</time></trkpt><trkpt lat="42.2694969" lon="14.2425491"><ele>293.0</ele><time>2026-05-01T08:59:37.802Z</time></trkpt><trkpt lat="42.2693511" lon="14.2424295"><ele>293.0</ele><time>2026-05-01T08:59:38.817Z</time></trkpt><trkpt lat="42.2692433" lon="14.2423318"><ele>293.0</ele><time>2026-05-01T08:59:39.806Z</time></trkpt><trkpt lat="42.2691518" lon="14.242201"><ele>293.0</ele><time>2026-05-01T08:59:40.803Z</time></trkpt><trkpt lat="42.269056" lon="14.2420312"><ele>295.0</ele><time>2026-05-01T08:59:41.811Z</time></trkpt><trkpt lat="42.2689649" lon="14.241832"><ele>297.0</ele><time>2026-05-01T08:59:42.796Z</time></trkpt><trkpt lat="42.2688915" lon="14.241685"><ele>299.0</ele><time>2026-05-01T08:59:43.818Z</time></trkpt><trkpt lat="42.2688428" lon="14.2416055"><ele>301.0</ele><time>2026-05-01T08:59:44.819Z</time></trkpt><trkpt lat="42.2687648" lon="14.2415347"><ele>301.2</ele><time>2026-05-01T08:59:46.802Z</time></trkpt><trkpt lat="42.2687001" lon="14.2415231"><ele>301.40000000000003</ele><time>2026-05-01T08:59:47.808Z</time></trkpt><trkpt lat="42.2686162" lon="14.2415001"><ele>301.6</ele><time>2026-05-01T08:59:48.8Z</time></trkpt><trkpt lat="42.2685262" lon="14.2414529"><ele>301.8</ele><time>2026-05-01T08:59:49.81Z</time></trkpt><trkpt lat="42.2684321" lon="14.2414146"><ele>302.0</ele><time>2026-05-01T08:59:50.79Z</time></trkpt><trkpt lat="42.2683291" lon="14.2413832"><ele>303.6</ele><time>2026-05-01T08:59:51.805Z</time></trkpt><trkpt lat="42.2682164" lon="14.2413443"><ele>305.2</ele><time>2026-05-01T08:59:52.801Z</time></trkpt><trkpt lat="42.2681093" lon="14.2412956"><ele>306.8</ele><time>2026-05-01T08:59:53.807Z</time></trkpt><trkpt lat="42.2680095" lon="14.2412174"><ele>308.4</ele><time>2026-05-01T08:59:54.808Z</time></trkpt><trkpt lat="42.2679291" lon="14.2411435"><ele>310.0</ele><time>2026-05-01T08:59:55.799Z</time></trkpt><trkpt lat="42.2678583" lon="14.2410656"><ele>310.0</ele><time>2026-05-01T08:59:56.803Z</time></trkpt><trkpt lat="42.2677897" lon="14.2409849"><ele>310.0</ele><time>2026-05-01T08:59:57.809Z</time></trkpt><trkpt lat="42.2677144" lon="14.240888"><ele>310.0</ele><time>2026-05-01T08:59:58.802Z</time></trkpt><trkpt lat="42.2676398" lon="14.2407874"><ele>310.0</ele><time>2026-05-01T08:59:59.804Z</time></trkpt><trkpt lat="42.2675776" lon="14.2406721"><ele>310.0</ele><time>2026-05-01T09:00:00.799Z</time></trkpt><trkpt lat="42.26753" lon="14.2405601"><ele>311.0</ele><time>2026-05-01T09:00:01.797Z</time></trkpt><trkpt lat="42.2674901" lon="14.2404311"><ele>312.0</ele><time>2026-05-01T09:00:02.79Z</time></trkpt><trkpt lat="42.2674506" lon="14.2403069"><ele>313.0</ele><time>2026-05-01T09:00:03.797Z</time></trkpt><trkpt lat="42.2673846" lon="14.2401831"><ele>314.0</ele><time>2026-05-01T09:00:04.799Z</time></trkpt><trkpt lat="42.2673203" lon="14.2400772"><ele>315.0</ele><time>2026-05-01T09:00:05.798Z</time></trkpt><trkpt lat="42.2672693" lon="14.2399865"><ele>317.5</ele><time>2026-05-01T09:00:06.814Z</time></trkpt><trkpt lat="42.267239" lon="14.2398968"><ele>320.0</ele><time>2026-05-01T09:00:07.791Z</time></trkpt><trkpt lat="42.2672122" lon="14.2397347"><ele>322.5</ele><time>2026-05-01T09:00:09.802Z</time></trkpt><trkpt lat="42.2671977" lon="14.2396297"><ele>325.0</ele><time>2026-05-01T09:00:10.802Z</time></trkpt><trkpt lat="42.2671774" lon="14.2395214"><ele>327.5</ele><time>2026-05-01T09:00:11.795Z</time></trkpt><trkpt lat="42.267161" lon="14.2394289"><ele>330.0</ele><time>2026-05-01T09:00:12.795Z</time></trkpt><trkpt lat="42.2671427" lon="14.2393306"><ele>330.1666666666667</ele><time>2026-05-01T09:00:13.791Z</time></trkpt><trkpt lat="42.2671158" lon="14.2392269"><ele>330.3333333333333</ele><time>2026-05-01T09:00:14.796Z</time></trkpt><trkpt lat="42.2670885" lon="14.2391249"><ele>330.5</ele><time>2026-05-01T09:00:15.789Z</time></trkpt><trkpt lat="42.2670511" lon="14.2390419"><ele>330.66666666666663</ele><time>2026-05-01T09:00:16.812Z</time></trkpt><trkpt lat="42.2669723" lon="14.2389159"><ele>330.8333333333333</ele><time>2026-05-01T09:00:18.806Z</time></trkpt><trkpt lat="42.2669217" lon="14.238864"><ele>331.0</ele><time>2026-05-01T09:00:19.803Z</time></trkpt><trkpt lat="42.2668213" lon="14.2387801"><ele>331.20000000000005</ele><time>2026-05-01T09:00:21.8Z</time></trkpt><trkpt lat="42.2667234" lon="14.238708"><ele>331.40000000000003</ele><time>2026-05-01T09:00:23.814Z</time></trkpt><trkpt lat="42.266656" lon="14.2386177"><ele>331.6</ele><time>2026-05-01T09:00:25.801Z</time></trkpt><trkpt lat="42.266581" lon="14.2385101"><ele>331.8</ele><time>2026-05-01T09:00:27.806Z</time></trkpt><trkpt lat="42.2664905" lon="14.2384144"><ele>332.0</ele><time>2026-05-01T09:00:29.801Z</time></trkpt><trkpt lat="42.266412" lon="14.2383408"><ele>332.83333333333337</ele><time>2026-05-01T09:00:31.794Z</time></trkpt><trkpt lat="42.2663574" lon="14.2382934"><ele>333.6666666666667</ele><time>2026-05-01T09:00:33.792Z</time></trkpt><trkpt lat="42.2663457" lon="14.2382068"><ele>334.5</ele><time>2026-05-01T09:01:11.795Z</time></trkpt><trkpt lat="42.2662569" lon="14.2380927"><ele>335.3333333333333</ele><time>2026-05-01T09:01:13.793Z</time></trkpt><trkpt lat="42.2661924" lon="14.2380347"><ele>336.16666666666663</ele><time>2026-05-01T09:01:14.79Z</time></trkpt><trkpt lat="42.2661248" lon="14.2379813"><ele>337.0</ele><time>2026-05-01T09:01:15.795Z</time></trkpt><trkpt lat="42.2660486" lon="14.2379361"><ele>337.0</ele><time>2026-05-01T09:01:16.791Z</time></trkpt><trkpt lat="42.265977" lon="14.2378975"><ele>337.0</ele><time>2026-05-01T09:01:17.8Z</time></trkpt><trkpt lat="42.2659064" lon="14.2378475"><ele>337.0</ele><time>2026-05-01T09:01:18.789Z</time></trkpt><trkpt lat="42.2658309" lon="14.2377848"><ele>337.0</ele><time>2026-05-01T09:01:19.795Z</time></trkpt><trkpt lat="42.2657557" lon="14.2377228"><ele>337.0</ele><time>2026-05-01T09:01:20.809Z</time></trkpt><trkpt lat="42.2656807" lon="14.2376521"><ele>337.0</ele><time>2026-05-01T09:01:21.797Z</time></trkpt><trkpt lat="42.2656151" lon="14.2375809"><ele>339.0</ele><time>2026-05-01T09:01:22.796Z</time></trkpt><trkpt lat="42.265567" lon="14.2374917"><ele>341.0</ele><time>2026-05-01T09:01:23.785Z</time></trkpt><trkpt lat="42.2655146" lon="14.2373937"><ele>343.0</ele><time>2026-05-01T09:01:24.8Z</time></trkpt><trkpt lat="42.2654559" lon="14.237276"><ele>345.0</ele><time>2026-05-01T09:01:25.801Z</time></trkpt><trkpt lat="42.2654055" lon="14.2371522"><ele>347.0</ele><time>2026-05-01T09:01:26.806Z</time></trkpt><trkpt lat="42.2653656" lon="14.2370485"><ele>347.0</ele><time>2026-05-01T09:01:27.804Z</time></trkpt><trkpt lat="42.2653295" lon="14.2369381"><ele>347.0</ele><time>2026-05-01T09:01:28.798Z</time></trkpt><trkpt lat="42.2652856" lon="14.2368196"><ele>347.0</ele><time>2026-05-01T09:01:29.806Z</time></trkpt><trkpt lat="42.265252" lon="14.2367188"><ele>347.0</ele><time>2026-05-01T09:01:30.802Z</time></trkpt><trkpt lat="42.2652258" lon="14.2366294"><ele>347.0</ele><time>2026-05-01T09:01:31.804Z</time></trkpt><trkpt lat="42.2651446" lon="14.236529"><ele>346.20000000000005</ele><time>2026-05-01T09:01:33.812Z</time></trkpt><trkpt lat="42.2650907" lon="14.236419"><ele>345.4</ele><time>2026-05-01T09:03:21.804Z</time></trkpt><trkpt lat="42.2650476" lon="14.2363011"><ele>344.6</ele><time>2026-05-01T09:03:23.791Z</time></trkpt><trkpt lat="42.2649653" lon="14.2361786"><ele>343.79999999999995</ele><time>2026-05-01T09:03:25.808Z</time></trkpt><trkpt lat="42.2648679" lon="14.2360796"><ele>343.0</ele><time>2026-05-01T09:03:27.806Z</time></trkpt><trkpt lat="42.2647805" lon="14.2360347"><ele>340.8333333333333</ele><time>2026-05-01T09:03:29.809Z</time></trkpt><trkpt lat="42.264681" lon="14.2360522"><ele>338.66666666666663</ele><time>2026-05-01T09:03:31.803Z</time></trkpt><trkpt lat="42.2645945" lon="14.2361413"><ele>336.5</ele><time>2026-05-01T09:03:33.806Z</time></trkpt><trkpt lat="42.2645473" lon="14.2362015"><ele>334.3333333333333</ele><time>2026-05-01T09:03:34.808Z</time></trkpt><trkpt lat="42.2644947" lon="14.236262"><ele>332.1666666666667</ele><time>2026-05-01T09:03:35.809Z</time></trkpt><trkpt lat="42.2644467" lon="14.2363237"><ele>330.0</ele><time>2026-05-01T09:03:36.815Z</time></trkpt><trkpt lat="42.2643906" lon="14.2363879"><ele>330.0</ele><time>2026-05-01T09:03:37.814Z</time></trkpt><trkpt lat="42.2643162" lon="14.236447"><ele>330.0</ele><time>2026-05-01T09:03:38.811Z</time></trkpt><trkpt lat="42.2642271" lon="14.2364967"><ele>330.0</ele><time>2026-05-01T09:03:39.8Z</time></trkpt><trkpt lat="42.2641292" lon="14.2365355"><ele>330.0</ele><time>2026-05-01T09:03:40.808Z</time></trkpt><trkpt lat="42.264037" lon="14.2365979"><ele>330.0</ele><time>2026-05-01T09:03:41.803Z</time></trkpt><trkpt lat="42.2639532" lon="14.2366711"><ele>333.0</ele><time>2026-05-01T09:03:42.796Z</time></trkpt><trkpt lat="42.2638681" lon="14.2367399"><ele>336.0</ele><time>2026-05-01T09:03:43.801Z</time></trkpt><trkpt lat="42.2637894" lon="14.2367878"><ele>339.0</ele><time>2026-05-01T09:03:44.793Z</time></trkpt><trkpt lat="42.2637058" lon="14.2367932"><ele>342.0</ele><time>2026-05-01T09:03:45.814Z</time></trkpt><trkpt lat="42.2636074" lon="14.2367656"><ele>345.0</ele><time>2026-05-01T09:03:46.806Z</time></trkpt><trkpt lat="42.2634986" lon="14.2367235"><ele>345.0</ele><time>2026-05-01T09:03:47.817Z</time></trkpt><trkpt lat="42.2633882" lon="14.2367036"><ele>345.0</ele><time>2026-05-01T09:03:48.804Z</time></trkpt><trkpt lat="42.2632803" lon="14.2367293"><ele>345.0</ele><time>2026-05-01T09:03:49.811Z</time></trkpt><trkpt lat="42.2631748" lon="14.2367704"><ele>345.0</ele><time>2026-05-01T09:03:50.815Z</time></trkpt><trkpt lat="42.2630698" lon="14.2368388"><ele>345.0</ele><time>2026-05-01T09:03:51.803Z</time></trkpt><trkpt lat="42.2629543" lon="14.2369062"><ele>344.5</ele><time>2026-05-01T09:03:52.814Z</time></trkpt><trkpt lat="42.2628355" lon="14.2369621"><ele>344.0</ele><time>2026-05-01T09:03:53.805Z</time></trkpt><trkpt lat="42.2627151" lon="14.2370138"><ele>343.5</ele><time>2026-05-01T09:03:54.83Z</time></trkpt><trkpt lat="42.2626047" lon="14.2370643"><ele>343.0</ele><time>2026-05-01T09:03:55.794Z</time></trkpt><trkpt lat="42.2625015" lon="14.2371111"><ele>343.0</ele><time>2026-05-01T09:03:56.796Z</time></trkpt><trkpt lat="42.2623946" lon="14.2371456"><ele>343.0</ele><time>2026-05-01T09:03:57.811Z</time></trkpt><trkpt lat="42.2622817" lon="14.2371668"><ele>343.0</ele><time>2026-05-01T09:03:58.798Z</time></trkpt><trkpt lat="42.2621644" lon="14.2371652"><ele>343.0</ele><time>2026-05-01T09:03:59.816Z</time></trkpt><trkpt lat="42.2620653" lon="14.2371735"><ele>343.0</ele><time>2026-05-01T09:04:00.802Z</time></trkpt><trkpt lat="42.2619783" lon="14.2371856"><ele>341.66666666666663</ele><time>2026-05-01T09:04:01.812Z</time></trkpt><trkpt lat="42.261891" lon="14.2371984"><ele>340.3333333333333</ele><time>2026-05-01T09:04:02.818Z</time></trkpt><trkpt lat="42.2618101" lon="14.2372104"><ele>339.0</ele><time>2026-05-01T09:04:03.806Z</time></trkpt><trkpt lat="42.2617231" lon="14.2372309"><ele>337.6666666666667</ele><time>2026-05-01T09:04:04.824Z</time></trkpt><trkpt lat="42.2616374" lon="14.237267"><ele>336.33333333333337</ele><time>2026-05-01T09:04:05.806Z</time></trkpt><trkpt lat="42.2615607" lon="14.2373105"><ele>335.0</ele><time>2026-05-01T09:04:06.803Z</time></trkpt><trkpt lat="42.2614875" lon="14.2373549"><ele>337.33333333333337</ele><time>2026-05-01T09:04:07.816Z</time></trkpt><trkpt lat="42.2614185" lon="14.2374079"><ele>339.6666666666667</ele><time>2026-05-01T09:04:08.799Z</time></trkpt><trkpt lat="42.2613447" lon="14.2374565"><ele>342.0</ele><time>2026-05-01T09:04:09.838Z</time></trkpt><trkpt lat="42.2612683" lon="14.2374941"><ele>344.3333333333333</ele><time>2026-05-01T09:04:10.794Z</time></trkpt><trkpt lat="42.261203" lon="14.2375143"><ele>346.66666666666663</ele><time>2026-05-01T09:04:11.809Z</time></trkpt><trkpt lat="42.2611356" lon="14.2375577"><ele>349.0</ele><time>2026-05-01T09:04:12.799Z</time></trkpt><trkpt lat="42.2610797" lon="14.2376115"><ele>349.0</ele><time>2026-05-01T09:04:13.798Z</time></trkpt><trkpt lat="42.2610323" lon="14.2376695"><ele>349.0</ele><time>2026-05-01T09:04:14.804Z</time></trkpt><trkpt lat="42.2609844" lon="14.2377557"><ele>349.0</ele><time>2026-05-01T09:04:15.82Z</time></trkpt><trkpt lat="42.260925" lon="14.2378742"><ele>349.0</ele><time>2026-05-01T09:04:16.815Z</time></trkpt><trkpt lat="42.2608685" lon="14.2379926"><ele>349.0</ele><time>2026-05-01T09:04:17.802Z</time></trkpt><trkpt lat="42.2608161" lon="14.2381056"><ele>349.16666666666663</ele><time>2026-05-01T09:04:18.807Z</time></trkpt><trkpt lat="42.2607673" lon="14.2382117"><ele>349.3333333333333</ele><time>2026-05-01T09:04:19.807Z</time></trkpt><trkpt lat="42.2607306" lon="14.2383113"><ele>349.5</ele><time>2026-05-01T09:04:20.804Z</time></trkpt><trkpt lat="42.2606961" lon="14.2383911"><ele>349.6666666666667</ele><time>2026-05-01T09:04:21.819Z</time></trkpt><trkpt lat="42.2606609" lon="14.238477"><ele>349.83333333333337</ele><time>2026-05-01T09:04:22.804Z</time></trkpt><trkpt lat="42.2606243" lon="14.2385756"><ele>350.0</ele><time>2026-05-01T09:04:23.81Z</time></trkpt><trkpt lat="42.2605837" lon="14.2386941"><ele>350.0</ele><time>2026-05-01T09:04:24.811Z</time></trkpt><trkpt lat="42.2605406" lon="14.2387944"><ele>350.0</ele><time>2026-05-01T09:04:25.802Z</time></trkpt><trkpt lat="42.2604835" lon="14.2388836"><ele>350.0</ele><time>2026-05-01T09:04:26.832Z</time></trkpt><trkpt lat="42.2604171" lon="14.2389585"><ele>350.0</ele><time>2026-05-01T09:04:27.802Z</time></trkpt><trkpt lat="42.260345" lon="14.2390208"><ele>350.0</ele><time>2026-05-01T09:04:28.802Z</time></trkpt><trkpt lat="42.2602703" lon="14.2390775"><ele>350.0</ele><time>2026-05-01T09:04:29.818Z</time></trkpt><trkpt lat="42.2601926" lon="14.2391347"><ele>351.0</ele><time>2026-05-01T09:04:30.826Z</time></trkpt><trkpt lat="42.2601225" lon="14.2391963"><ele>352.0</ele><time>2026-05-01T09:04:31.809Z</time></trkpt><trkpt lat="42.2600618" lon="14.2392422"><ele>353.0</ele><time>2026-05-01T09:04:32.8Z</time></trkpt><trkpt lat="42.2599297" lon="14.239243"><ele>354.0</ele><time>2026-05-01T09:04:34.793Z</time></trkpt><trkpt lat="42.2598586" lon="14.2392212"><ele>355.0</ele><time>2026-05-01T09:04:35.794Z</time></trkpt><trkpt lat="42.2597785" lon="14.2391942"><ele>356.0</ele><time>2026-05-01T09:04:36.802Z</time></trkpt><trkpt lat="42.2597013" lon="14.2391884"><ele>356.83333333333337</ele><time>2026-05-01T09:04:37.802Z</time></trkpt><trkpt lat="42.2596263" lon="14.239183"><ele>357.6666666666667</ele><time>2026-05-01T09:04:38.801Z</time></trkpt><trkpt lat="42.2595458" lon="14.2391584"><ele>358.5</ele><time>2026-05-01T09:04:39.809Z</time></trkpt><trkpt lat="42.259464" lon="14.2391234"><ele>359.3333333333333</ele><time>2026-05-01T09:04:40.808Z</time></trkpt><trkpt lat="42.2593768" lon="14.2391044"><ele>360.16666666666663</ele><time>2026-05-01T09:04:41.799Z</time></trkpt><trkpt lat="42.2592893" lon="14.23911"><ele>361.0</ele><time>2026-05-01T09:04:42.799Z</time></trkpt><trkpt lat="42.2591692" lon="14.2391744"><ele>361.0</ele><time>2026-05-01T09:04:44.794Z</time></trkpt><trkpt lat="42.2590973" lon="14.239206"><ele>361.0</ele><time>2026-05-01T09:04:45.799Z</time></trkpt><trkpt lat="42.2590214" lon="14.2392121"><ele>361.0</ele><time>2026-05-01T09:04:46.817Z</time></trkpt><trkpt lat="42.2589302" lon="14.2392044"><ele>361.0</ele><time>2026-05-01T09:04:47.795Z</time></trkpt><trkpt lat="42.2588325" lon="14.2391801"><ele>361.0</ele><time>2026-05-01T09:04:48.8Z</time></trkpt><trkpt lat="42.2587371" lon="14.2391664"><ele>361.0</ele><time>2026-05-01T09:04:49.815Z</time></trkpt><trkpt lat="42.2586468" lon="14.2391889"><ele>362.6</ele><time>2026-05-01T09:04:50.798Z</time></trkpt><trkpt lat="42.2585661" lon="14.2392325"><ele>364.20000000000005</ele><time>2026-05-01T09:04:51.787Z</time></trkpt><trkpt lat="42.25847" lon="14.239286"><ele>365.79999999999995</ele><time>2026-05-01T09:04:52.796Z</time></trkpt><trkpt lat="42.2583763" lon="14.2393538"><ele>367.4</ele><time>2026-05-01T09:04:53.798Z</time></trkpt><trkpt lat="42.2582734" lon="14.2394366"><ele>369.0</ele><time>2026-05-01T09:04:54.799Z</time></trkpt><trkpt lat="42.2581619" lon="14.2395119"><ele>368.75</ele><time>2026-05-01T09:04:55.795Z</time></trkpt><trkpt lat="42.2580465" lon="14.2396042"><ele>368.5</ele><time>2026-05-01T09:04:56.809Z</time></trkpt><trkpt lat="42.2579461" lon="14.2397097"><ele>368.25</ele><time>2026-05-01T09:04:57.822Z</time></trkpt><trkpt lat="42.2578498" lon="14.2398262"><ele>368.0</ele><time>2026-05-01T09:04:58.802Z</time></trkpt><trkpt lat="42.2577628" lon="14.2399268"><ele>366.79999999999995</ele><time>2026-05-01T09:04:59.794Z</time></trkpt><trkpt lat="42.2576639" lon="14.2400045"><ele>365.6</ele><time>2026-05-01T09:05:00.8Z</time></trkpt><trkpt lat="42.2575611" lon="14.2400583"><ele>364.4</ele><time>2026-05-01T09:05:01.804Z</time></trkpt><trkpt lat="42.2574674" lon="14.240069"><ele>363.20000000000005</ele><time>2026-05-01T09:05:02.814Z</time></trkpt><trkpt lat="42.2573706" lon="14.2400409"><ele>362.0</ele><time>2026-05-01T09:05:03.789Z</time></trkpt><trkpt lat="42.2572828" lon="14.2399934"><ele>361.0</ele><time>2026-05-01T09:05:04.793Z</time></trkpt><trkpt lat="42.2571927" lon="14.239926"><ele>360.0</ele><time>2026-05-01T09:05:05.806Z</time></trkpt><trkpt lat="42.2571157" lon="14.239853"><ele>359.0</ele><time>2026-05-01T09:05:06.802Z</time></trkpt><trkpt lat="42.2570371" lon="14.2397667"><ele>358.0</ele><time>2026-05-01T09:05:07.835Z</time></trkpt><trkpt lat="42.2569618" lon="14.2396903"><ele>357.0</ele><time>2026-05-01T09:05:08.813Z</time></trkpt><trkpt lat="42.2568848" lon="14.2396276"><ele>357.0</ele><time>2026-05-01T09:05:09.806Z</time></trkpt><trkpt lat="42.2568106" lon="14.2395747"><ele>357.0</ele><time>2026-05-01T09:05:10.804Z</time></trkpt><trkpt lat="42.2567472" lon="14.2395567"><ele>357.0</ele><time>2026-05-01T09:05:11.797Z</time></trkpt><trkpt lat="42.2566814" lon="14.2395494"><ele>357.0</ele><time>2026-05-01T09:05:12.802Z</time></trkpt><trkpt lat="42.2565682" lon="14.2394654"><ele>357.0</ele><time>2026-05-01T09:05:14.807Z</time></trkpt><trkpt lat="42.2565002" lon="14.2393964"><ele>357.0</ele><time>2026-05-01T09:05:15.815Z</time></trkpt><trkpt lat="42.2564115" lon="14.2393187"><ele>354.0</ele><time>2026-05-01T09:05:16.823Z</time></trkpt><trkpt lat="42.2563206" lon="14.2392417"><ele>351.0</ele><time>2026-05-01T09:05:17.82Z</time></trkpt><trkpt lat="42.2562323" lon="14.2391603"><ele>348.0</ele><time>2026-05-01T09:05:18.789Z</time></trkpt><trkpt lat="42.2561343" lon="14.2390725"><ele>345.0</ele><time>2026-05-01T09:05:19.812Z</time></trkpt><trkpt lat="42.2560296" lon="14.2389799"><ele>345.0</ele><time>2026-05-01T09:05:20.802Z</time></trkpt><trkpt lat="42.2559257" lon="14.238888"><ele>345.0</ele><time>2026-05-01T09:05:21.814Z</time></trkpt><trkpt lat="42.2558379" lon="14.2388157"><ele>345.0</ele><time>2026-05-01T09:05:22.8Z</time></trkpt><trkpt lat="42.2557634" lon="14.2387473"><ele>345.0</ele><time>2026-05-01T09:05:23.799Z</time></trkpt><trkpt lat="42.2557022" lon="14.2386956"><ele>345.0</ele><time>2026-05-01T09:05:24.812Z</time></trkpt><trkpt lat="42.2556022" lon="14.2386868"><ele>345.0</ele><time>2026-05-01T09:05:26.829Z</time></trkpt><trkpt lat="42.2555332" lon="14.2387047"><ele>345.0</ele><time>2026-05-01T09:05:28.8Z</time></trkpt><trkpt lat="42.2555043" lon="14.2386266"><ele>345.0</ele><time>2026-05-01T09:05:30.799Z</time></trkpt><trkpt lat="42.2554827" lon="14.2384456"><ele>345.0</ele><time>2026-05-01T09:05:32.801Z</time></trkpt><trkpt lat="42.2554409" lon="14.2383375"><ele>345.0</ele><time>2026-05-01T09:05:33.794Z</time></trkpt><trkpt lat="42.2553407" lon="14.2382273"><ele>345.0</ele><time>2026-05-01T09:05:34.81Z</time></trkpt><trkpt lat="42.2552049" lon="14.2381492"><ele>345.0</ele><time>2026-05-01T09:05:35.794Z</time></trkpt><trkpt lat="42.2550368" lon="14.2381235"><ele>345.0</ele><time>2026-05-01T09:05:36.791Z</time></trkpt><trkpt lat="42.2548609" lon="14.2380999"><ele>340.5</ele><time>2026-05-01T09:05:37.79Z</time></trkpt><trkpt lat="42.2547069" lon="14.2380793"><ele>336.0</ele><time>2026-05-01T09:05:38.803Z</time></trkpt><trkpt lat="42.2545575" lon="14.2380512"><ele>331.5</ele><time>2026-05-01T09:05:39.804Z</time></trkpt><trkpt lat="42.254425" lon="14.2380209"><ele>327.0</ele><time>2026-05-01T09:05:40.814Z</time></trkpt><trkpt lat="42.2542908" lon="14.2379693"><ele>327.0</ele><time>2026-05-01T09:05:41.804Z</time></trkpt><trkpt lat="42.2541522" lon="14.2378932"><ele>327.0</ele><time>2026-05-01T09:05:42.805Z</time></trkpt><trkpt lat="42.2540165" lon="14.2377686"><ele>327.0</ele><time>2026-05-01T09:05:43.806Z</time></trkpt><trkpt lat="42.2538801" lon="14.2376208"><ele>328.0</ele><time>2026-05-01T09:05:44.791Z</time></trkpt><trkpt lat="42.2537408" lon="14.2374659"><ele>329.0</ele><time>2026-05-01T09:05:45.802Z</time></trkpt><trkpt lat="42.2536038" lon="14.2373016"><ele>330.0</ele><time>2026-05-01T09:05:46.784Z</time></trkpt><trkpt lat="42.2535017" lon="14.2371027"><ele>330.0</ele><time>2026-05-01T09:05:47.784Z</time></trkpt><trkpt lat="42.2534185" lon="14.2368843"><ele>330.0</ele><time>2026-05-01T09:05:48.787Z</time></trkpt><trkpt lat="42.2533391" lon="14.2366588"><ele>330.0</ele><time>2026-05-01T09:05:49.78Z</time></trkpt><trkpt lat="42.2532645" lon="14.2364295"><ele>330.6666666666667</ele><time>2026-05-01T09:05:50.798Z</time></trkpt><trkpt lat="42.2531921" lon="14.2361959"><ele>331.33333333333337</ele><time>2026-05-01T09:05:51.799Z</time></trkpt><trkpt lat="42.2531341" lon="14.2359672"><ele>332.0</ele><time>2026-05-01T09:05:52.794Z</time></trkpt><trkpt lat="42.2530791" lon="14.2357568"><ele>327.5</ele><time>2026-05-01T09:05:53.796Z</time></trkpt><trkpt lat="42.2530117" lon="14.2355725"><ele>323.0</ele><time>2026-05-01T09:05:54.804Z</time></trkpt><trkpt lat="42.2529291" lon="14.2354157"><ele>318.5</ele><time>2026-05-01T09:05:55.793Z</time></trkpt><trkpt lat="42.2528275" lon="14.2352783"><ele>314.0</ele><time>2026-05-01T09:05:56.793Z</time></trkpt><trkpt lat="42.2526839" lon="14.2351829"><ele>314.0</ele><time>2026-05-01T09:05:57.797Z</time></trkpt><trkpt lat="42.2525281" lon="14.2351006"><ele>314.0</ele><time>2026-05-01T09:05:58.799Z</time></trkpt><trkpt lat="42.2523758" lon="14.2349992"><ele>314.0</ele><time>2026-05-01T09:05:59.821Z</time></trkpt><trkpt lat="42.2522425" lon="14.2348589"><ele>315.33333333333337</ele><time>2026-05-01T09:06:00.803Z</time></trkpt><trkpt lat="42.2521201" lon="14.2346881"><ele>316.6666666666667</ele><time>2026-05-01T09:06:01.805Z</time></trkpt><trkpt lat="42.2519969" lon="14.2344796"><ele>318.0</ele><time>2026-05-01T09:06:02.798Z</time></trkpt><trkpt lat="42.2518798" lon="14.234267"><ele>318.0</ele><time>2026-05-01T09:06:03.799Z</time></trkpt><trkpt lat="42.2517956" lon="14.2340578"><ele>318.0</ele><time>2026-05-01T09:06:04.778Z</time></trkpt><trkpt lat="42.2517663" lon="14.2338849"><ele>318.0</ele><time>2026-05-01T09:06:05.782Z</time></trkpt><trkpt lat="42.2517774" lon="14.233752"><ele>318.0</ele><time>2026-05-01T09:06:06.79Z</time></trkpt><trkpt lat="42.2518429" lon="14.2336325"><ele>314.6</ele><time>2026-05-01T09:06:07.787Z</time></trkpt><trkpt lat="42.2519215" lon="14.2335767"><ele>311.20000000000005</ele><time>2026-05-01T09:06:08.795Z</time></trkpt><trkpt lat="42.2519914" lon="14.2335913"><ele>307.8</ele><time>2026-05-01T09:06:09.821Z</time></trkpt><trkpt lat="42.2520718" lon="14.2336579"><ele>304.40000000000003</ele><time>2026-05-01T09:06:10.796Z</time></trkpt><trkpt lat="42.2521422" lon="14.2337979"><ele>301.0</ele><time>2026-05-01T09:06:11.802Z</time></trkpt><trkpt lat="42.2522156" lon="14.233961"><ele>299.3333333333333</ele><time>2026-05-01T09:06:12.791Z</time></trkpt><trkpt lat="42.2523013" lon="14.234133"><ele>297.6666666666667</ele><time>2026-05-01T09:06:13.792Z</time></trkpt><trkpt lat="42.2524127" lon="14.2342636"><ele>296.0</ele><time>2026-05-01T09:06:14.798Z</time></trkpt><trkpt lat="42.2525398" lon="14.2343796"><ele>296.0</ele><time>2026-05-01T09:06:15.792Z</time></trkpt><trkpt lat="42.2527056" lon="14.2344325"><ele>296.0</ele><time>2026-05-01T09:06:16.791Z</time></trkpt><trkpt lat="42.2528889" lon="14.2344242"><ele>296.0</ele><time>2026-05-01T09:06:17.791Z</time></trkpt><trkpt lat="42.2530757" lon="14.2344108"><ele>293.6666666666667</ele><time>2026-05-01T09:06:18.809Z</time></trkpt><trkpt lat="42.2532495" lon="14.2344062"><ele>291.3333333333333</ele><time>2026-05-01T09:06:19.798Z</time></trkpt><trkpt lat="42.2534101" lon="14.2344116"><ele>289.0</ele><time>2026-05-01T09:06:20.796Z</time></trkpt><trkpt lat="42.2535553" lon="14.2344485"><ele>289.0</ele><time>2026-05-01T09:06:21.799Z</time></trkpt><trkpt lat="42.2536985" lon="14.2345015"><ele>289.0</ele><time>2026-05-01T09:06:22.802Z</time></trkpt><trkpt lat="42.2538441" lon="14.2345808"><ele>289.0</ele><time>2026-05-01T09:06:23.791Z</time></trkpt><trkpt lat="42.2539887" lon="14.2346787"><ele>290.3333333333333</ele><time>2026-05-01T09:06:24.795Z</time></trkpt><trkpt lat="42.2541391" lon="14.2347767"><ele>291.6666666666667</ele><time>2026-05-01T09:06:25.793Z</time></trkpt><trkpt lat="42.2542915" lon="14.2348712"><ele>293.0</ele><time>2026-05-01T09:06:26.8Z</time></trkpt><trkpt lat="42.2544435" lon="14.2349625"><ele>293.0</ele><time>2026-05-01T09:06:27.806Z</time></trkpt><trkpt lat="42.2546001" lon="14.2350563"><ele>293.0</ele><time>2026-05-01T09:06:28.799Z</time></trkpt><trkpt lat="42.2547644" lon="14.235148"><ele>293.0</ele><time>2026-05-01T09:06:29.81Z</time></trkpt><trkpt lat="42.2549338" lon="14.2352186"><ele>290.0</ele><time>2026-05-01T09:06:30.799Z</time></trkpt><trkpt lat="42.255117" lon="14.2352635"><ele>287.0</ele><time>2026-05-01T09:06:31.79Z</time></trkpt><trkpt lat="42.2553074" lon="14.2352831"><ele>284.0</ele><time>2026-05-01T09:06:32.802Z</time></trkpt><trkpt lat="42.2554906" lon="14.2352939"><ele>281.33333333333337</ele><time>2026-05-01T09:06:33.795Z</time></trkpt><trkpt lat="42.2556711" lon="14.2353072"><ele>278.6666666666667</ele><time>2026-05-01T09:06:34.81Z</time></trkpt><trkpt lat="42.2558374" lon="14.2352965"><ele>276.0</ele><time>2026-05-01T09:06:35.804Z</time></trkpt><trkpt lat="42.255996" lon="14.2352396"><ele>276.0</ele><time>2026-05-01T09:06:36.792Z</time></trkpt><trkpt lat="42.2561615" lon="14.2351426"><ele>276.0</ele><time>2026-05-01T09:06:37.802Z</time></trkpt><trkpt lat="42.256326" lon="14.2349912"><ele>276.0</ele><time>2026-05-01T09:06:38.788Z</time></trkpt><trkpt lat="42.2564946" lon="14.2348178"><ele>272.6666666666667</ele><time>2026-05-01T09:06:39.846Z</time></trkpt><trkpt lat="42.2566611" lon="14.2346699"><ele>269.33333333333337</ele><time>2026-05-01T09:06:40.799Z</time></trkpt><trkpt lat="42.2568004" lon="14.2345548"><ele>266.0</ele><time>2026-05-01T09:06:41.795Z</time></trkpt><trkpt lat="42.2568901" lon="14.2344747"><ele>266.0</ele><time>2026-05-01T09:06:42.803Z</time></trkpt><trkpt lat="42.2569446" lon="14.2344195"><ele>266.0</ele><time>2026-05-01T09:06:43.794Z</time></trkpt><trkpt lat="42.2569458" lon="14.23433"><ele>266.0</ele><time>2026-05-01T09:06:45.801Z</time></trkpt><trkpt lat="42.2568512" lon="14.2342745"><ele>266.0</ele><time>2026-05-01T09:06:47.8Z</time></trkpt><trkpt lat="42.2567704" lon="14.2342728"><ele>266.0</ele><time>2026-05-01T09:06:48.786Z</time></trkpt><trkpt lat="42.2566779" lon="14.2342764"><ele>266.0</ele><time>2026-05-01T09:06:49.803Z</time></trkpt><trkpt lat="42.2565706" lon="14.2342892"><ele>266.0</ele><time>2026-05-01T09:06:50.821Z</time></trkpt><trkpt lat="42.2564574" lon="14.2343073"><ele>266.0</ele><time>2026-05-01T09:06:51.79Z</time></trkpt><trkpt lat="42.2563346" lon="14.2343208"><ele>266.0</ele><time>2026-05-01T09:06:52.806Z</time></trkpt><trkpt lat="42.2562096" lon="14.2343325"><ele>266.0</ele><time>2026-05-01T09:06:53.804Z</time></trkpt><trkpt lat="42.2560862" lon="14.2343301"><ele>266.0</ele><time>2026-05-01T09:06:54.79Z</time></trkpt><trkpt lat="42.2559618" lon="14.2343047"><ele>266.0</ele><time>2026-05-01T09:06:55.791Z</time></trkpt><trkpt lat="42.255843" lon="14.2342295"><ele>266.0</ele><time>2026-05-01T09:06:56.8Z</time></trkpt><trkpt lat="42.25574" lon="14.2340968"><ele>266.0</ele><time>2026-05-01T09:06:57.795Z</time></trkpt><trkpt lat="42.2556669" lon="14.2339403"><ele>262.6666666666667</ele><time>2026-05-01T09:06:58.788Z</time></trkpt><trkpt lat="42.2556104" lon="14.2337487"><ele>259.3333333333333</ele><time>2026-05-01T09:06:59.797Z</time></trkpt><trkpt lat="42.255577" lon="14.2335166"><ele>256.0</ele><time>2026-05-01T09:07:00.802Z</time></trkpt><trkpt lat="42.2555734" lon="14.233274"><ele>254.75</ele><time>2026-05-01T09:07:01.792Z</time></trkpt><trkpt lat="42.2555826" lon="14.2330812"><ele>253.5</ele><time>2026-05-01T09:07:02.795Z</time></trkpt><trkpt lat="42.2556213" lon="14.2329355"><ele>252.25</ele><time>2026-05-01T09:07:03.799Z</time></trkpt><trkpt lat="42.2556813" lon="14.2328173"><ele>251.0</ele><time>2026-05-01T09:07:04.812Z</time></trkpt><trkpt lat="42.255788" lon="14.2327008"><ele>251.0</ele><time>2026-05-01T09:07:05.785Z</time></trkpt><trkpt lat="42.2559182" lon="14.2325857"><ele>251.0</ele><time>2026-05-01T09:07:06.797Z</time></trkpt><trkpt lat="42.2560713" lon="14.2324863"><ele>251.0</ele><time>2026-05-01T09:07:07.791Z</time></trkpt><trkpt lat="42.2562366" lon="14.2323925"><ele>251.0</ele><time>2026-05-01T09:07:08.8Z</time></trkpt><trkpt lat="42.2564023" lon="14.2323142"><ele>251.0</ele><time>2026-05-01T09:07:09.805Z</time></trkpt><trkpt lat="42.25658" lon="14.2322585"><ele>251.0</ele><time>2026-05-01T09:07:10.79Z</time></trkpt><trkpt lat="42.2567486" lon="14.2322372"><ele>249.25</ele><time>2026-05-01T09:07:11.786Z</time></trkpt><trkpt lat="42.2568985" lon="14.2322159"><ele>247.5</ele><time>2026-05-01T09:07:12.79Z</time></trkpt><trkpt lat="42.2570203" lon="14.2321722"><ele>245.75</ele><time>2026-05-01T09:07:13.797Z</time></trkpt><trkpt lat="42.2571309" lon="14.2320875"><ele>244.0</ele><time>2026-05-01T09:07:14.805Z</time></trkpt><trkpt lat="42.2572469" lon="14.2319573"><ele>241.66666666666666</ele><time>2026-05-01T09:07:15.791Z</time></trkpt><trkpt lat="42.257364" lon="14.2317911"><ele>239.33333333333331</ele><time>2026-05-01T09:07:16.824Z</time></trkpt><trkpt lat="42.2575001" lon="14.2315906"><ele>237.0</ele><time>2026-05-01T09:07:17.803Z</time></trkpt><trkpt lat="42.2576489" lon="14.2313896"><ele>236.0</ele><time>2026-05-01T09:07:18.808Z</time></trkpt><trkpt lat="42.2578015" lon="14.2311962"><ele>235.0</ele><time>2026-05-01T09:07:19.794Z</time></trkpt><trkpt lat="42.2579452" lon="14.2310267"><ele>234.0</ele><time>2026-05-01T09:07:20.814Z</time></trkpt><trkpt lat="42.2580578" lon="14.2308576"><ele>230.66666666666669</ele><time>2026-05-01T09:07:21.802Z</time></trkpt><trkpt lat="42.2581677" lon="14.2306663"><ele>227.33333333333334</ele><time>2026-05-01T09:07:22.803Z</time></trkpt><trkpt lat="42.2582488" lon="14.2304412"><ele>224.0</ele><time>2026-05-01T09:07:23.81Z</time></trkpt><trkpt lat="42.2582967" lon="14.2301848"><ele>223.0</ele><time>2026-05-01T09:07:24.807Z</time></trkpt><trkpt lat="42.258343" lon="14.2299117"><ele>222.0</ele><time>2026-05-01T09:07:25.818Z</time></trkpt><trkpt lat="42.2583781" lon="14.2296788"><ele>221.0</ele><time>2026-05-01T09:07:26.807Z</time></trkpt><trkpt lat="42.2584129" lon="14.2294753"><ele>220.25</ele><time>2026-05-01T09:07:27.802Z</time></trkpt><trkpt lat="42.2584277" lon="14.2292876"><ele>219.5</ele><time>2026-05-01T09:07:28.806Z</time></trkpt><trkpt lat="42.258406" lon="14.2291256"><ele>218.75</ele><time>2026-05-01T09:07:29.824Z</time></trkpt><trkpt lat="42.2583476" lon="14.22899"><ele>218.0</ele><time>2026-05-01T09:07:30.795Z</time></trkpt><trkpt lat="42.2582515" lon="14.2288874"><ele>216.25</ele><time>2026-05-01T09:07:31.817Z</time></trkpt><trkpt lat="42.2581307" lon="14.2288481"><ele>214.5</ele><time>2026-05-01T09:07:32.804Z</time></trkpt><trkpt lat="42.2579887" lon="14.2288505"><ele>212.75</ele><time>2026-05-01T09:07:33.806Z</time></trkpt><trkpt lat="42.2578432" lon="14.2289199"><ele>211.0</ele><time>2026-05-01T09:07:34.805Z</time></trkpt><trkpt lat="42.2576896" lon="14.2290322"><ele>211.0</ele><time>2026-05-01T09:07:35.804Z</time></trkpt><trkpt lat="42.257533" lon="14.2291676"><ele>211.0</ele><time>2026-05-01T09:07:36.796Z</time></trkpt><trkpt lat="42.2573772" lon="14.2292924"><ele>211.0</ele><time>2026-05-01T09:07:37.806Z</time></trkpt><trkpt lat="42.2572425" lon="14.2293695"><ele>210.75</ele><time>2026-05-01T09:07:38.802Z</time></trkpt><trkpt lat="42.2571152" lon="14.2294114"><ele>210.5</ele><time>2026-05-01T09:07:39.807Z</time></trkpt><trkpt lat="42.256984" lon="14.2293851"><ele>210.25</ele><time>2026-05-01T09:07:40.806Z</time></trkpt><trkpt lat="42.256875" lon="14.229292"><ele>210.0</ele><time>2026-05-01T09:07:41.818Z</time></trkpt><trkpt lat="42.2568047" lon="14.2291482"><ele>210.0</ele><time>2026-05-01T09:07:42.799Z</time></trkpt><trkpt lat="42.2567605" lon="14.2289916"><ele>210.0</ele><time>2026-05-01T09:07:43.816Z</time></trkpt><trkpt lat="42.2567511" lon="14.2288269"><ele>210.0</ele><time>2026-05-01T09:07:44.799Z</time></trkpt><trkpt lat="42.2567746" lon="14.2286734"><ele>210.0</ele><time>2026-05-01T09:07:45.809Z</time></trkpt><trkpt lat="42.2568396" lon="14.2285101"><ele>209.66666666666669</ele><time>2026-05-01T09:07:46.793Z</time></trkpt><trkpt lat="42.2569343" lon="14.228343"><ele>209.33333333333334</ele><time>2026-05-01T09:07:47.812Z</time></trkpt><trkpt lat="42.2570528" lon="14.2281775"><ele>209.0</ele><time>2026-05-01T09:07:48.805Z</time></trkpt><trkpt lat="42.2571693" lon="14.227993"><ele>209.0</ele><time>2026-05-01T09:07:49.797Z</time></trkpt><trkpt lat="42.2572697" lon="14.227796"><ele>209.0</ele><time>2026-05-01T09:07:50.821Z</time></trkpt><trkpt lat="42.257356" lon="14.2275886"><ele>209.0</ele><time>2026-05-01T09:07:51.803Z</time></trkpt><trkpt lat="42.2574144" lon="14.2273698"><ele>204.75</ele><time>2026-05-01T09:07:52.819Z</time></trkpt><trkpt lat="42.2574504" lon="14.2271484"><ele>200.5</ele><time>2026-05-01T09:07:53.81Z</time></trkpt><trkpt lat="42.2574567" lon="14.2269575"><ele>196.25</ele><time>2026-05-01T09:07:54.81Z</time></trkpt><trkpt lat="42.2574376" lon="14.2268094"><ele>192.0</ele><time>2026-05-01T09:07:55.807Z</time></trkpt><trkpt lat="42.2573915" lon="14.2266602"><ele>192.0</ele><time>2026-05-01T09:07:56.803Z</time></trkpt><trkpt lat="42.2573047" lon="14.2265223"><ele>192.0</ele><time>2026-05-01T09:07:57.796Z</time></trkpt><trkpt lat="42.257176" lon="14.2263952"><ele>192.0</ele><time>2026-05-01T09:07:58.799Z</time></trkpt><trkpt lat="42.2570154" lon="14.2262969"><ele>189.75</ele><time>2026-05-01T09:07:59.81Z</time></trkpt><trkpt lat="42.2568579" lon="14.2262237"><ele>187.5</ele><time>2026-05-01T09:08:00.804Z</time></trkpt><trkpt lat="42.2567377" lon="14.2261641"><ele>185.25</ele><time>2026-05-01T09:08:01.801Z</time></trkpt><trkpt lat="42.2566467" lon="14.2260788"><ele>183.0</ele><time>2026-05-01T09:08:02.811Z</time></trkpt><trkpt lat="42.2566059" lon="14.2259451"><ele>183.0</ele><time>2026-05-01T09:08:03.81Z</time></trkpt><trkpt lat="42.2566069" lon="14.2257806"><ele>183.0</ele><time>2026-05-01T09:08:04.799Z</time></trkpt><trkpt lat="42.2566758" lon="14.2256329"><ele>183.0</ele><time>2026-05-01T09:08:05.818Z</time></trkpt><trkpt lat="42.2567818" lon="14.2255524"><ele>183.0</ele><time>2026-05-01T09:08:06.801Z</time></trkpt><trkpt lat="42.2569031" lon="14.2255341"><ele>179.66666666666666</ele><time>2026-05-01T09:08:07.813Z</time></trkpt><trkpt lat="42.257066" lon="14.2255315"><ele>176.33333333333331</ele><time>2026-05-01T09:08:08.803Z</time></trkpt><trkpt lat="42.2572406" lon="14.2255423"><ele>173.0</ele><time>2026-05-01T09:08:09.796Z</time></trkpt><trkpt lat="42.2574191" lon="14.2255512"><ele>173.0</ele><time>2026-05-01T09:08:10.811Z</time></trkpt><trkpt lat="42.2575927" lon="14.2255603"><ele>173.0</ele><time>2026-05-01T09:08:11.81Z</time></trkpt><trkpt lat="42.2577514" lon="14.2255618"><ele>173.0</ele><time>2026-05-01T09:08:12.801Z</time></trkpt><trkpt lat="42.257867" lon="14.2255543"><ele>173.0</ele><time>2026-05-01T09:08:13.838Z</time></trkpt><trkpt lat="42.2579565" lon="14.2254976"><ele>173.0</ele><time>2026-05-01T09:08:14.823Z</time></trkpt><trkpt lat="42.2580164" lon="14.2254143"><ele>173.0</ele><time>2026-05-01T09:08:15.8Z</time></trkpt><trkpt lat="42.2580509" lon="14.225298"><ele>173.0</ele><time>2026-05-01T09:08:16.805Z</time></trkpt><trkpt lat="42.2580232" lon="14.2251333"><ele>173.0</ele><time>2026-05-01T09:08:17.82Z</time></trkpt><trkpt lat="42.2579509" lon="14.2249989"><ele>173.0</ele><time>2026-05-01T09:08:18.822Z</time></trkpt><trkpt lat="42.2578286" lon="14.2249012"><ele>173.0</ele><time>2026-05-01T09:08:19.786Z</time></trkpt><trkpt lat="42.257672" lon="14.2248251"><ele>173.0</ele><time>2026-05-01T09:08:20.786Z</time></trkpt><trkpt lat="42.2574991" lon="14.224746"><ele>173.0</ele><time>2026-05-01T09:08:21.785Z</time></trkpt><trkpt lat="42.2573307" lon="14.2246762"><ele>170.5</ele><time>2026-05-01T09:08:22.789Z</time></trkpt><trkpt lat="42.2571714" lon="14.2245975"><ele>168.0</ele><time>2026-05-01T09:08:23.805Z</time></trkpt><trkpt lat="42.2570452" lon="14.2245057"><ele>165.5</ele><time>2026-05-01T09:08:24.806Z</time></trkpt><trkpt lat="42.2569676" lon="14.224397"><ele>163.0</ele><time>2026-05-01T09:08:25.812Z</time></trkpt><trkpt lat="42.2569304" lon="14.2242874"><ele>163.0</ele><time>2026-05-01T09:08:26.802Z</time></trkpt><trkpt lat="42.2569412" lon="14.2241612"><ele>163.0</ele><time>2026-05-01T09:08:27.809Z</time></trkpt><trkpt lat="42.2570072" lon="14.224052"><ele>163.0</ele><time>2026-05-01T09:08:28.797Z</time></trkpt><trkpt lat="42.257117" lon="14.2239471"><ele>163.0</ele><time>2026-05-01T09:08:29.795Z</time></trkpt><trkpt lat="42.2572638" lon="14.2238474"><ele>162.0</ele><time>2026-05-01T09:08:30.807Z</time></trkpt><trkpt lat="42.2574223" lon="14.2237559"><ele>161.0</ele><time>2026-05-01T09:08:31.811Z</time></trkpt><trkpt lat="42.2575624" lon="14.2236744"><ele>160.0</ele><time>2026-05-01T09:08:32.796Z</time></trkpt><trkpt lat="42.2576653" lon="14.2235972"><ele>159.0</ele><time>2026-05-01T09:08:33.789Z</time></trkpt><trkpt lat="42.2577395" lon="14.2235081"><ele>159.0</ele><time>2026-05-01T09:08:34.808Z</time></trkpt><trkpt lat="42.2577746" lon="14.2233942"><ele>159.0</ele><time>2026-05-01T09:08:35.799Z</time></trkpt><trkpt lat="42.2577602" lon="14.2232615"><ele>159.0</ele><time>2026-05-01T09:08:36.826Z</time></trkpt><trkpt lat="42.2577052" lon="14.2230868"><ele>159.0</ele><time>2026-05-01T09:08:37.815Z</time></trkpt><trkpt lat="42.2576205" lon="14.2228876"><ele>158.33333333333334</ele><time>2026-05-01T09:08:38.825Z</time></trkpt><trkpt lat="42.257534" lon="14.222649"><ele>157.66666666666669</ele><time>2026-05-01T09:08:39.795Z</time></trkpt><trkpt lat="42.2574414" lon="14.222377"><ele>157.0</ele><time>2026-05-01T09:08:40.796Z</time></trkpt><trkpt lat="42.2573381" lon="14.2220877"><ele>158.33333333333334</ele><time>2026-05-01T09:08:41.809Z</time></trkpt><trkpt lat="42.2572438" lon="14.221818"><ele>159.66666666666666</ele><time>2026-05-01T09:08:42.802Z</time></trkpt><trkpt lat="42.2571709" lon="14.2215955"><ele>161.0</ele><time>2026-05-01T09:08:43.793Z</time></trkpt><trkpt lat="42.25715" lon="14.2214485"><ele>162.25</ele><time>2026-05-01T09:08:44.8Z</time></trkpt><trkpt lat="42.2571767" lon="14.2213073"><ele>163.5</ele><time>2026-05-01T09:08:45.808Z</time></trkpt><trkpt lat="42.2572323" lon="14.2211538"><ele>164.75</ele><time>2026-05-01T09:08:46.806Z</time></trkpt><trkpt lat="42.2573256" lon="14.2210138"><ele>166.0</ele><time>2026-05-01T09:08:47.797Z</time></trkpt><trkpt lat="42.2574658" lon="14.2209138"><ele>166.0</ele><time>2026-05-01T09:08:48.8Z</time></trkpt><trkpt lat="42.2576485" lon="14.2208188"><ele>166.0</ele><time>2026-05-01T09:08:49.808Z</time></trkpt><trkpt lat="42.2578217" lon="14.2207421"><ele>166.0</ele><time>2026-05-01T09:08:50.807Z</time></trkpt><trkpt lat="42.2579475" lon="14.2206798"><ele>168.8</ele><time>2026-05-01T09:08:51.797Z</time></trkpt><trkpt lat="42.2580215" lon="14.220589"><ele>171.60000000000002</ele><time>2026-05-01T09:08:52.814Z</time></trkpt><trkpt lat="42.2580775" lon="14.2204941"><ele>174.4</ele><time>2026-05-01T09:08:53.822Z</time></trkpt><trkpt lat="42.2580824" lon="14.2203801"><ele>177.2</ele><time>2026-05-01T09:08:54.796Z</time></trkpt><trkpt lat="42.2580499" lon="14.2202757"><ele>180.0</ele><time>2026-05-01T09:08:55.803Z</time></trkpt><trkpt lat="42.2579688" lon="14.220187"><ele>180.0</ele><time>2026-05-01T09:08:56.802Z</time></trkpt><trkpt lat="42.2578509" lon="14.2201416"><ele>180.0</ele><time>2026-05-01T09:08:57.811Z</time></trkpt><trkpt lat="42.2576976" lon="14.220104"><ele>180.0</ele><time>2026-05-01T09:08:58.792Z</time></trkpt><trkpt lat="42.2574951" lon="14.2200675"><ele>179.33333333333334</ele><time>2026-05-01T09:08:59.811Z</time></trkpt><trkpt lat="42.2572744" lon="14.2200217"><ele>178.66666666666669</ele><time>2026-05-01T09:09:00.798Z</time></trkpt><trkpt lat="42.257085" lon="14.2199755"><ele>178.0</ele><time>2026-05-01T09:09:01.809Z</time></trkpt><trkpt lat="42.2569307" lon="14.2199271"><ele>178.0</ele><time>2026-05-01T09:09:02.797Z</time></trkpt><trkpt lat="42.2568206" lon="14.2198628"><ele>178.0</ele><time>2026-05-01T09:09:03.802Z</time></trkpt><trkpt lat="42.2567604" lon="14.2197707"><ele>178.0</ele><time>2026-05-01T09:09:04.789Z</time></trkpt><trkpt lat="42.2567462" lon="14.219678"><ele>178.0</ele><time>2026-05-01T09:09:05.8Z</time></trkpt><trkpt lat="42.2567354" lon="14.2195915"><ele>178.0</ele><time>2026-05-01T09:09:07.791Z</time></trkpt><trkpt lat="42.2566623" lon="14.2195924"><ele>178.0</ele><time>2026-05-01T09:09:09.789Z</time></trkpt><trkpt lat="42.2565511" lon="14.2196541"><ele>180.4</ele><time>2026-05-01T09:09:11.788Z</time></trkpt><trkpt lat="42.2564668" lon="14.2196645"><ele>182.8</ele><time>2026-05-01T09:09:12.796Z</time></trkpt><trkpt lat="42.2563839" lon="14.2196516"><ele>185.2</ele><time>2026-05-01T09:09:13.804Z</time></trkpt><trkpt lat="42.2563138" lon="14.2196208"><ele>187.6</ele><time>2026-05-01T09:09:14.795Z</time></trkpt><trkpt lat="42.2562105" lon="14.2195165"><ele>190.0</ele><time>2026-05-01T09:09:16.802Z</time></trkpt><trkpt lat="42.2561284" lon="14.2194296"><ele>190.0</ele><time>2026-05-01T09:09:18.79Z</time></trkpt><trkpt lat="42.2560624" lon="14.2194288"><ele>190.0</ele><time>2026-05-01T09:09:19.8Z</time></trkpt><trkpt lat="42.2559978" lon="14.2194475"><ele>190.0</ele><time>2026-05-01T09:09:20.8Z</time></trkpt><trkpt lat="42.2559277" lon="14.219536"><ele>190.0</ele><time>2026-05-01T09:09:22.803Z</time></trkpt><trkpt lat="42.2559312" lon="14.2197273"><ele>190.0</ele><time>2026-05-01T09:09:24.793Z</time></trkpt><trkpt lat="42.2559437" lon="14.2198498"><ele>187.8</ele><time>2026-05-01T09:09:25.792Z</time></trkpt><trkpt lat="42.2559443" lon="14.2199763"><ele>185.6</ele><time>2026-05-01T09:09:26.795Z</time></trkpt><trkpt lat="42.2559337" lon="14.2201212"><ele>183.39999999999998</ele><time>2026-05-01T09:09:27.795Z</time></trkpt><trkpt lat="42.2559168" lon="14.2202697"><ele>181.2</ele><time>2026-05-01T09:09:28.793Z</time></trkpt><trkpt lat="42.2559032" lon="14.2203762"><ele>179.0</ele><time>2026-05-01T09:09:29.798Z</time></trkpt><trkpt lat="42.255894" lon="14.2204661"><ele>179.0</ele><time>2026-05-01T09:09:30.795Z</time></trkpt><trkpt lat="42.2558787" lon="14.2205519"><ele>179.0</ele><time>2026-05-01T09:09:31.797Z</time></trkpt><trkpt lat="42.2558522" lon="14.2206632"><ele>179.0</ele><time>2026-05-01T09:09:32.793Z</time></trkpt><trkpt lat="42.2558118" lon="14.2207994"><ele>179.0</ele><time>2026-05-01T09:09:33.805Z</time></trkpt><trkpt lat="42.2557556" lon="14.2209189"><ele>179.0</ele><time>2026-05-01T09:09:34.795Z</time></trkpt><trkpt lat="42.2556762" lon="14.2209966"><ele>178.5</ele><time>2026-05-01T09:09:35.793Z</time></trkpt><trkpt lat="42.2555787" lon="14.2210623"><ele>178.0</ele><time>2026-05-01T09:09:36.792Z</time></trkpt><trkpt lat="42.2554686" lon="14.221132"><ele>177.5</ele><time>2026-05-01T09:09:37.809Z</time></trkpt><trkpt lat="42.2553547" lon="14.2212002"><ele>177.0</ele><time>2026-05-01T09:09:38.794Z</time></trkpt><trkpt lat="42.2552404" lon="14.2212693"><ele>177.0</ele><time>2026-05-01T09:09:39.849Z</time></trkpt><trkpt lat="42.2551245" lon="14.2213397"><ele>177.0</ele><time>2026-05-01T09:09:40.787Z</time></trkpt><trkpt lat="42.2550063" lon="14.2214221"><ele>177.0</ele><time>2026-05-01T09:09:41.795Z</time></trkpt><trkpt lat="42.2548859" lon="14.2214988"><ele>177.0</ele><time>2026-05-01T09:09:42.794Z</time></trkpt><trkpt lat="42.254775" lon="14.2215527"><ele>175.39999999999998</ele><time>2026-05-01T09:09:43.82Z</time></trkpt><trkpt lat="42.2546767" lon="14.2215714"><ele>173.79999999999998</ele><time>2026-05-01T09:09:44.799Z</time></trkpt><trkpt lat="42.2545803" lon="14.2215525"><ele>172.2</ele><time>2026-05-01T09:09:45.8Z</time></trkpt><trkpt lat="42.2544866" lon="14.2214879"><ele>170.6</ele><time>2026-05-01T09:09:46.809Z</time></trkpt><trkpt lat="42.2544084" lon="14.2213786"><ele>169.0</ele><time>2026-05-01T09:09:47.81Z</time></trkpt><trkpt lat="42.2543499" lon="14.2212649"><ele>169.0</ele><time>2026-05-01T09:09:48.799Z</time></trkpt><trkpt lat="42.2543119" lon="14.2211749"><ele>169.0</ele><time>2026-05-01T09:09:49.798Z</time></trkpt><trkpt lat="42.254251" lon="14.2211257"><ele>169.0</ele><time>2026-05-01T09:09:50.795Z</time></trkpt><trkpt lat="42.2541325" lon="14.2211242"><ele>169.0</ele><time>2026-05-01T09:09:52.783Z</time></trkpt><trkpt lat="42.2540549" lon="14.2211486"><ele>169.0</ele><time>2026-05-01T09:09:53.84Z</time></trkpt><trkpt lat="42.2539838" lon="14.2211597"><ele>169.0</ele><time>2026-05-01T09:09:54.808Z</time></trkpt><trkpt lat="42.2539208" lon="14.2211447"><ele>169.2</ele><time>2026-05-01T09:09:55.799Z</time></trkpt><trkpt lat="42.2538583" lon="14.2210857"><ele>169.39999999999998</ele><time>2026-05-01T09:09:56.805Z</time></trkpt><trkpt lat="42.2538074" lon="14.2209889"><ele>169.6</ele><time>2026-05-01T09:09:57.798Z</time></trkpt><trkpt lat="42.253757" lon="14.2208733"><ele>169.8</ele><time>2026-05-01T09:09:58.807Z</time></trkpt><trkpt lat="42.2537063" lon="14.2207523"><ele>170.0</ele><time>2026-05-01T09:09:59.835Z</time></trkpt><trkpt lat="42.2536465" lon="14.2206605"><ele>170.25</ele><time>2026-05-01T09:10:00.806Z</time></trkpt><trkpt lat="42.2535619" lon="14.2206137"><ele>170.5</ele><time>2026-05-01T09:10:01.795Z</time></trkpt><trkpt lat="42.2534552" lon="14.220599"><ele>170.75</ele><time>2026-05-01T09:10:02.804Z</time></trkpt><trkpt lat="42.2533319" lon="14.2206102"><ele>171.0</ele><time>2026-05-01T09:10:03.803Z</time></trkpt><trkpt lat="42.2531924" lon="14.2206187"><ele>172.5</ele><time>2026-05-01T09:10:04.804Z</time></trkpt><trkpt lat="42.2530425" lon="14.2206207"><ele>174.0</ele><time>2026-05-01T09:10:05.806Z</time></trkpt><trkpt lat="42.2528931" lon="14.2206106"><ele>175.5</ele><time>2026-05-01T09:10:06.805Z</time></trkpt><trkpt lat="42.2527441" lon="14.2205928"><ele>177.0</ele><time>2026-05-01T09:10:07.791Z</time></trkpt><trkpt lat="42.252593" lon="14.22057"><ele>177.0</ele><time>2026-05-01T09:10:08.807Z</time></trkpt><trkpt lat="42.2524395" lon="14.2205384"><ele>177.0</ele><time>2026-05-01T09:10:09.795Z</time></trkpt><trkpt lat="42.2522849" lon="14.2204864"><ele>177.0</ele><time>2026-05-01T09:10:10.804Z</time></trkpt><trkpt lat="42.2521313" lon="14.2204192"><ele>179.66666666666666</ele><time>2026-05-01T09:10:11.793Z</time></trkpt><trkpt lat="42.2519797" lon="14.22034"><ele>182.33333333333331</ele><time>2026-05-01T09:10:12.826Z</time></trkpt><trkpt lat="42.2518254" lon="14.2202688"><ele>185.0</ele><time>2026-05-01T09:10:13.806Z</time></trkpt><trkpt lat="42.2516681" lon="14.2202118"><ele>185.0</ele><time>2026-05-01T09:10:14.792Z</time></trkpt><trkpt lat="42.2515145" lon="14.2201667"><ele>185.0</ele><time>2026-05-01T09:10:15.799Z</time></trkpt><trkpt lat="42.2513565" lon="14.220139"><ele>185.0</ele><time>2026-05-01T09:10:16.791Z</time></trkpt><trkpt lat="42.2511978" lon="14.2201217"><ele>187.0</ele><time>2026-05-01T09:10:17.792Z</time></trkpt><trkpt lat="42.2510461" lon="14.220104"><ele>189.0</ele><time>2026-05-01T09:10:18.793Z</time></trkpt><trkpt lat="42.2509117" lon="14.220097"><ele>191.0</ele><time>2026-05-01T09:10:19.79Z</time></trkpt><trkpt lat="42.2507972" lon="14.2201144"><ele>193.0</ele><time>2026-05-01T09:10:20.795Z</time></trkpt><trkpt lat="42.2507018" lon="14.2201374"><ele>194.0</ele><time>2026-05-01T09:10:21.791Z</time></trkpt><trkpt lat="42.2506223" lon="14.2201478"><ele>195.0</ele><time>2026-05-01T09:10:22.811Z</time></trkpt><trkpt lat="42.2505175" lon="14.2201385"><ele>196.0</ele><time>2026-05-01T09:10:23.797Z</time></trkpt><trkpt lat="42.250411" lon="14.2201076"><ele>197.0</ele><time>2026-05-01T09:10:24.802Z</time></trkpt><trkpt lat="42.2503007" lon="14.2200533"><ele>198.0</ele><time>2026-05-01T09:10:25.802Z</time></trkpt><trkpt lat="42.2502133" lon="14.2199949"><ele>198.0</ele><time>2026-05-01T09:10:26.811Z</time></trkpt><trkpt lat="42.2501305" lon="14.2199399"><ele>198.0</ele><time>2026-05-01T09:10:27.804Z</time></trkpt><trkpt lat="42.2500602" lon="14.2198966"><ele>198.0</ele><time>2026-05-01T09:10:28.796Z</time></trkpt><trkpt lat="42.2499821" lon="14.2198674"><ele>198.0</ele><time>2026-05-01T09:10:29.804Z</time></trkpt><trkpt lat="42.2499027" lon="14.2198562"><ele>198.0</ele><time>2026-05-01T09:10:30.806Z</time></trkpt><trkpt lat="42.2498329" lon="14.2198405"><ele>198.0</ele><time>2026-05-01T09:10:31.797Z</time></trkpt><trkpt lat="42.2497762" lon="14.2198013"><ele>201.33333333333334</ele><time>2026-05-01T09:10:32.802Z</time></trkpt><trkpt lat="42.2497335" lon="14.2197259"><ele>204.66666666666669</ele><time>2026-05-01T09:10:33.807Z</time></trkpt><trkpt lat="42.2496997" lon="14.2196241"><ele>208.0</ele><time>2026-05-01T09:10:34.799Z</time></trkpt><trkpt lat="42.2496727" lon="14.2195134"><ele>211.33333333333334</ele><time>2026-05-01T09:10:35.811Z</time></trkpt><trkpt lat="42.2496425" lon="14.2194064"><ele>214.66666666666669</ele><time>2026-05-01T09:10:36.794Z</time></trkpt><trkpt lat="42.2496049" lon="14.219283"><ele>218.0</ele><time>2026-05-01T09:10:38.798Z</time></trkpt><trkpt lat="42.2495467" lon="14.2192278"><ele>218.00000000000003</ele><time>2026-05-01T09:10:41.794Z</time></trkpt><trkpt lat="42.2494696" lon="14.2193278"><ele>218.0</ele><time>2026-05-01T09:10:43.804Z</time></trkpt><trkpt lat="42.2494478" lon="14.2194138"><ele>218.0</ele><time>2026-05-01T09:10:44.797Z</time></trkpt><trkpt lat="42.2494303" lon="14.2195015"><ele>218.0</ele><time>2026-05-01T09:10:45.8Z</time></trkpt><trkpt lat="42.2493736" lon="14.2195398"><ele>218.00000000000003</ele><time>2026-05-01T09:10:48.793Z</time></trkpt><trkpt lat="42.2493084" lon="14.2195109"><ele>218.0</ele><time>2026-05-01T09:10:51.797Z</time></trkpt><trkpt lat="42.2492368" lon="14.2194702"><ele>218.00000000000003</ele><time>2026-05-01T09:10:54.818Z</time></trkpt><trkpt lat="42.2491231" lon="14.2194339"><ele>218.0</ele><time>2026-05-01T09:10:57.8Z</time></trkpt><trkpt lat="42.2490491" lon="14.219414"><ele>218.0</ele><time>2026-05-01T09:10:58.789Z</time></trkpt><trkpt lat="42.2489748" lon="14.2193718"><ele>218.0</ele><time>2026-05-01T09:10:59.804Z</time></trkpt><trkpt lat="42.2489231" lon="14.2193185"><ele>218.00000000000003</ele><time>2026-05-01T09:11:00.795Z</time></trkpt><trkpt lat="42.2488817" lon="14.2192371"><ele>218.0</ele><time>2026-05-01T09:11:01.8Z</time></trkpt><trkpt lat="42.2488487" lon="14.219143"><ele>218.16666666666669</ele><time>2026-05-01T09:11:02.788Z</time></trkpt><trkpt lat="42.2488281" lon="14.2190528"><ele>218.33333333333334</ele><time>2026-05-01T09:11:03.794Z</time></trkpt><trkpt lat="42.2488202" lon="14.2188989"><ele>218.5</ele><time>2026-05-01T09:11:05.786Z</time></trkpt><trkpt lat="42.2488363" lon="14.2188093"><ele>218.66666666666669</ele><time>2026-05-01T09:11:06.796Z</time></trkpt><trkpt lat="42.2488492" lon="14.2187143"><ele>218.83333333333334</ele><time>2026-05-01T09:11:07.808Z</time></trkpt><trkpt lat="42.2488547" lon="14.2186153"><ele>219.0</ele><time>2026-05-01T09:11:08.812Z</time></trkpt><trkpt lat="42.2488474" lon="14.2185181"><ele>219.0</ele><time>2026-05-01T09:11:09.805Z</time></trkpt><trkpt lat="42.2488248" lon="14.2184182"><ele>219.0</ele><time>2026-05-01T09:11:10.806Z</time></trkpt><trkpt lat="42.2488005" lon="14.2183311"><ele>219.0</ele><time>2026-05-01T09:11:11.812Z</time></trkpt><trkpt lat="42.2487811" lon="14.2182487"><ele>219.0</ele><time>2026-05-01T09:11:12.812Z</time></trkpt><trkpt lat="42.2487633" lon="14.2181586"><ele>219.0</ele><time>2026-05-01T09:11:13.817Z</time></trkpt><trkpt lat="42.2487455" lon="14.2180514"><ele>219.0</ele><time>2026-05-01T09:11:14.804Z</time></trkpt><trkpt lat="42.2487288" lon="14.2179323"><ele>222.2</ele><time>2026-05-01T09:11:15.793Z</time></trkpt><trkpt lat="42.2487044" lon="14.2177945"><ele>225.39999999999998</ele><time>2026-05-01T09:11:16.8Z</time></trkpt><trkpt lat="42.2486837" lon="14.2176423"><ele>228.6</ele><time>2026-05-01T09:11:17.808Z</time></trkpt><trkpt lat="42.2486604" lon="14.2174987"><ele>231.8</ele><time>2026-05-01T09:11:18.795Z</time></trkpt><trkpt lat="42.2486392" lon="14.2173558"><ele>235.0</ele><time>2026-05-01T09:11:19.796Z</time></trkpt><trkpt lat="42.2486281" lon="14.2172293"><ele>238.0</ele><time>2026-05-01T09:11:20.79Z</time></trkpt><trkpt lat="42.2486089" lon="14.2171132"><ele>241.0</ele><time>2026-05-01T09:11:21.805Z</time></trkpt><trkpt lat="42.2485654" lon="14.217003"><ele>244.0</ele><time>2026-05-01T09:11:22.801Z</time></trkpt><trkpt lat="42.2485172" lon="14.2168931"><ele>247.0</ele><time>2026-05-01T09:11:23.792Z</time></trkpt><trkpt lat="42.2484729" lon="14.2167796"><ele>250.0</ele><time>2026-05-01T09:11:24.787Z</time></trkpt><trkpt lat="42.2484363" lon="14.2166537"><ele>250.0</ele><time>2026-05-01T09:11:25.802Z</time></trkpt><trkpt lat="42.2483987" lon="14.21653"><ele>250.0</ele><time>2026-05-01T09:11:26.794Z</time></trkpt><trkpt lat="42.2483662" lon="14.2164103"><ele>250.0</ele><time>2026-05-01T09:11:27.792Z</time></trkpt><trkpt lat="42.2483344" lon="14.2162987"><ele>250.0</ele><time>2026-05-01T09:11:28.804Z</time></trkpt><trkpt lat="42.2483093" lon="14.2161861"><ele>250.0</ele><time>2026-05-01T09:11:29.823Z</time></trkpt><trkpt lat="42.2482816" lon="14.2160788"><ele>250.6</ele><time>2026-05-01T09:11:30.792Z</time></trkpt><trkpt lat="42.2482496" lon="14.2159622"><ele>251.2</ele><time>2026-05-01T09:11:31.804Z</time></trkpt><trkpt lat="42.2482177" lon="14.2158425"><ele>251.8</ele><time>2026-05-01T09:11:32.798Z</time></trkpt><trkpt lat="42.2481704" lon="14.2157278"><ele>252.4</ele><time>2026-05-01T09:11:33.809Z</time></trkpt><trkpt lat="42.2481063" lon="14.2156079"><ele>253.0</ele><time>2026-05-01T09:11:34.798Z</time></trkpt><trkpt lat="42.2480538" lon="14.2155032"><ele>252.99999999999997</ele><time>2026-05-01T09:11:35.807Z</time></trkpt><trkpt lat="42.2480205" lon="14.2154052"><ele>253.0</ele><time>2026-05-01T09:11:36.796Z</time></trkpt><trkpt lat="42.2479878" lon="14.2153004"><ele>253.0</ele><time>2026-05-01T09:11:37.791Z</time></trkpt><trkpt lat="42.2479495" lon="14.2151854"><ele>253.0</ele><time>2026-05-01T09:11:38.801Z</time></trkpt><trkpt lat="42.2479093" lon="14.2150847"><ele>252.99999999999997</ele><time>2026-05-01T09:11:39.808Z</time></trkpt><trkpt lat="42.247889" lon="14.2149906"><ele>253.0</ele><time>2026-05-01T09:11:40.788Z</time></trkpt><trkpt lat="42.2478856" lon="14.214891"><ele>254.83333333333331</ele><time>2026-05-01T09:11:41.799Z</time></trkpt><trkpt lat="42.2479026" lon="14.2147905"><ele>256.66666666666663</ele><time>2026-05-01T09:11:42.813Z</time></trkpt><trkpt lat="42.2479197" lon="14.2146802"><ele>258.5</ele><time>2026-05-01T09:11:43.796Z</time></trkpt><trkpt lat="42.2479225" lon="14.2145635"><ele>260.3333333333333</ele><time>2026-05-01T09:11:44.8Z</time></trkpt><trkpt lat="42.2479061" lon="14.2144447"><ele>262.1666666666667</ele><time>2026-05-01T09:11:45.798Z</time></trkpt><trkpt lat="42.2478869" lon="14.2143146"><ele>264.0</ele><time>2026-05-01T09:11:46.786Z</time></trkpt><trkpt lat="42.2478576" lon="14.2142062"><ele>264.0</ele><time>2026-05-01T09:11:47.806Z</time></trkpt><trkpt lat="42.2478236" lon="14.2141091"><ele>264.0</ele><time>2026-05-01T09:11:48.818Z</time></trkpt><trkpt lat="42.2477907" lon="14.214006"><ele>264.0</ele><time>2026-05-01T09:11:49.818Z</time></trkpt><trkpt lat="42.2477525" lon="14.2138964"><ele>264.0</ele><time>2026-05-01T09:11:50.807Z</time></trkpt><trkpt lat="42.2477155" lon="14.2138135"><ele>264.0</ele><time>2026-05-01T09:11:51.804Z</time></trkpt><trkpt lat="42.2476303" lon="14.2136946"><ele>264.0</ele><time>2026-05-01T09:11:53.8Z</time></trkpt><trkpt lat="42.2475871" lon="14.2135763"><ele>266.0</ele><time>2026-05-01T09:11:55.805Z</time></trkpt><trkpt lat="42.2475798" lon="14.2134766"><ele>268.0</ele><time>2026-05-01T09:11:56.799Z</time></trkpt><trkpt lat="42.2475639" lon="14.2133548"><ele>270.0</ele><time>2026-05-01T09:11:57.793Z</time></trkpt><trkpt lat="42.2475382" lon="14.2132232"><ele>272.0</ele><time>2026-05-01T09:11:58.809Z</time></trkpt><trkpt lat="42.2475169" lon="14.2130937"><ele>274.0</ele><time>2026-05-01T09:11:59.805Z</time></trkpt><trkpt lat="42.2475042" lon="14.2129604"><ele>274.4</ele><time>2026-05-01T09:12:00.797Z</time></trkpt><trkpt lat="42.2475003" lon="14.2128321"><ele>274.79999999999995</ele><time>2026-05-01T09:12:01.807Z</time></trkpt><trkpt lat="42.2474941" lon="14.2127095"><ele>275.20000000000005</ele><time>2026-05-01T09:12:02.797Z</time></trkpt><trkpt lat="42.24749" lon="14.2125892"><ele>275.6</ele><time>2026-05-01T09:12:03.838Z</time></trkpt><trkpt lat="42.247478" lon="14.2124634"><ele>276.0</ele><time>2026-05-01T09:12:04.814Z</time></trkpt><trkpt lat="42.2474592" lon="14.2123422"><ele>276.0</ele><time>2026-05-01T09:12:05.799Z</time></trkpt><trkpt lat="42.2474401" lon="14.2122077"><ele>284.0</ele><time>2026-05-01T09:12:06.802Z</time></trkpt><trkpt lat="42.2474186" lon="14.2120765"><ele>284.0</ele><time>2026-05-01T09:12:07.792Z</time></trkpt><trkpt lat="42.2473879" lon="14.211957"><ele>284.0</ele><time>2026-05-01T09:12:08.792Z</time></trkpt><trkpt lat="42.2473553" lon="14.2118385"><ele>284.0</ele><time>2026-05-01T09:12:09.805Z</time></trkpt></trkseg><trkseg><trkpt lat="42.2459022" lon="14.2048958"><ele>377.57142857142856</ele><time>2026-05-01T09:28:34.09Z</time></trkpt><trkpt lat="42.2458688" lon="14.2047839"><ele>378.1428571428571</ele><time>2026-05-01T09:28:35.098Z</time></trkpt><trkpt lat="42.2458442" lon="14.2046974"><ele>378.71428571428567</ele><time>2026-05-01T09:28:36.096Z</time></trkpt><trkpt lat="42.2458444" lon="14.204611"><ele>379.2857142857143</ele><time>2026-05-01T09:28:37.085Z</time></trkpt><trkpt lat="42.2458581" lon="14.2045192"><ele>379.8571428571429</ele><time>2026-05-01T09:28:38.078Z</time></trkpt><trkpt lat="42.2458863" lon="14.2044261"><ele>380.4285714285714</ele><time>2026-05-01T09:28:39.083Z</time></trkpt><trkpt lat="42.2459238" lon="14.2043294"><ele>381.0</ele><time>2026-05-01T09:28:40.081Z</time></trkpt><trkpt lat="42.2459673" lon="14.2042301"><ele>381.0</ele><time>2026-05-01T09:28:41.082Z</time></trkpt><trkpt lat="42.2460032" lon="14.2041427"><ele>381.0</ele><time>2026-05-01T09:28:42.08Z</time></trkpt><trkpt lat="42.2460472" lon="14.2039692"><ele>381.0</ele><time>2026-05-01T09:28:44.09Z</time></trkpt><trkpt lat="42.2460663" lon="14.2038329"><ele>381.0</ele><time>2026-05-01T09:28:45.091Z</time></trkpt><trkpt lat="42.2460665" lon="14.2036784"><ele>381.0</ele><time>2026-05-01T09:28:46.079Z</time></trkpt><trkpt lat="42.2460557" lon="14.2035165"><ele>382.75</ele><time>2026-05-01T09:28:47.088Z</time></trkpt><trkpt lat="42.246038" lon="14.2033616"><ele>384.5</ele><time>2026-05-01T09:28:48.096Z</time></trkpt><trkpt lat="42.2459991" lon="14.2032065"><ele>386.25</ele><time>2026-05-01T09:28:49.087Z</time></trkpt><trkpt lat="42.2459448" lon="14.2030566"><ele>388.0</ele><time>2026-05-01T09:28:50.101Z</time></trkpt><trkpt lat="42.2458917" lon="14.2029381"><ele>389.00000000000006</ele><time>2026-05-01T09:28:51.093Z</time></trkpt><trkpt lat="42.2458465" lon="14.2028543"><ele>390.0</ele><time>2026-05-01T09:28:52.096Z</time></trkpt><trkpt lat="42.2457735" lon="14.2028198"><ele>391.0</ele><time>2026-05-01T09:28:53.093Z</time></trkpt><trkpt lat="42.2457005" lon="14.2027898"><ele>392.0</ele><time>2026-05-01T09:28:54.104Z</time></trkpt><trkpt lat="42.2456259" lon="14.202738"><ele>393.00000000000006</ele><time>2026-05-01T09:28:55.091Z</time></trkpt><trkpt lat="42.2455595" lon="14.2026442"><ele>394.0</ele><time>2026-05-01T09:28:56.1Z</time></trkpt><trkpt lat="42.2455097" lon="14.2025387"><ele>395.33333333333337</ele><time>2026-05-01T09:28:57.093Z</time></trkpt><trkpt lat="42.2454707" lon="14.202449"><ele>396.6666666666667</ele><time>2026-05-01T09:28:58.09Z</time></trkpt><trkpt lat="42.2454624" lon="14.202349"><ele>398.0</ele><time>2026-05-01T09:29:00.097Z</time></trkpt><trkpt lat="42.2453826" lon="14.2023561"><ele>399.33333333333337</ele><time>2026-05-01T09:29:03.09Z</time></trkpt><trkpt lat="42.2453496" lon="14.2024521"><ele>400.6666666666667</ele><time>2026-05-01T09:29:04.097Z</time></trkpt><trkpt lat="42.2453166" lon="14.2025695"><ele>402.0</ele><time>2026-05-01T09:29:05.088Z</time></trkpt><trkpt lat="42.245257" lon="14.202696"><ele>402.0</ele><time>2026-05-01T09:29:06.102Z</time></trkpt><trkpt lat="42.2451625" lon="14.2028009"><ele>402.0</ele><time>2026-05-01T09:29:07.095Z</time></trkpt><trkpt lat="42.2450556" lon="14.2028787"><ele>402.0</ele><time>2026-05-01T09:29:08.093Z</time></trkpt><trkpt lat="42.2449222" lon="14.2029444"><ele>402.0</ele><time>2026-05-01T09:29:09.099Z</time></trkpt><trkpt lat="42.2447987" lon="14.2029913"><ele>401.5</ele><time>2026-05-01T09:29:10.12Z</time></trkpt><trkpt lat="42.2446858" lon="14.2030462"><ele>401.0</ele><time>2026-05-01T09:29:11.107Z</time></trkpt><trkpt lat="42.2445881" lon="14.2031359"><ele>400.5</ele><time>2026-05-01T09:29:12.1Z</time></trkpt><trkpt lat="42.2445093" lon="14.2032728"><ele>400.0</ele><time>2026-05-01T09:29:13.108Z</time></trkpt><trkpt lat="42.2444573" lon="14.2034223"><ele>400.0</ele><time>2026-05-01T09:29:14.086Z</time></trkpt><trkpt lat="42.2444229" lon="14.2036074"><ele>400.0</ele><time>2026-05-01T09:29:15.102Z</time></trkpt><trkpt lat="42.2443965" lon="14.2038155"><ele>400.0</ele><time>2026-05-01T09:29:16.096Z</time></trkpt><trkpt lat="42.2443628" lon="14.204018"><ele>398.0</ele><time>2026-05-01T09:29:17.099Z</time></trkpt><trkpt lat="42.2443267" lon="14.2042002"><ele>396.0</ele><time>2026-05-01T09:29:18.09Z</time></trkpt><trkpt lat="42.2442615" lon="14.2043592"><ele>394.0</ele><time>2026-05-01T09:29:19.101Z</time></trkpt><trkpt lat="42.2441746" lon="14.2044966"><ele>392.0</ele><time>2026-05-01T09:29:20.091Z</time></trkpt><trkpt lat="42.2440603" lon="14.2046351"><ele>393.0</ele><time>2026-05-01T09:29:21.096Z</time></trkpt><trkpt lat="42.2439357" lon="14.2047823"><ele>394.0</ele><time>2026-05-01T09:29:22.104Z</time></trkpt><trkpt lat="42.243809" lon="14.2049515"><ele>395.0</ele><time>2026-05-01T09:29:23.098Z</time></trkpt><trkpt lat="42.2437035" lon="14.2051326"><ele>395.0</ele><time>2026-05-01T09:29:24.101Z</time></trkpt><trkpt lat="42.2436363" lon="14.2053378"><ele>395.0</ele><time>2026-05-01T09:29:25.093Z</time></trkpt><trkpt lat="42.2435758" lon="14.2055399"><ele>395.0</ele><time>2026-05-01T09:29:26.092Z</time></trkpt><trkpt lat="42.2434989" lon="14.2057178"><ele>391.0</ele><time>2026-05-01T09:29:27.097Z</time></trkpt><trkpt lat="42.2434109" lon="14.2058811"><ele>387.0</ele><time>2026-05-01T09:29:28.095Z</time></trkpt><trkpt lat="42.2432861" lon="14.206018"><ele>383.0</ele><time>2026-05-01T09:29:29.083Z</time></trkpt><trkpt lat="42.2431431" lon="14.2061605"><ele>380.0</ele><time>2026-05-01T09:29:30.102Z</time></trkpt><trkpt lat="42.2429872" lon="14.2062971"><ele>377.0</ele><time>2026-05-01T09:29:31.084Z</time></trkpt><trkpt lat="42.2428164" lon="14.2064338"><ele>374.0</ele><time>2026-05-01T09:29:32.096Z</time></trkpt><trkpt lat="42.2426483" lon="14.2065768"><ele>374.0</ele><time>2026-05-01T09:29:33.094Z</time></trkpt><trkpt lat="42.2424918" lon="14.2066986"><ele>374.0</ele><time>2026-05-01T09:29:34.092Z</time></trkpt><trkpt lat="42.2423385" lon="14.206789"><ele>374.0</ele><time>2026-05-01T09:29:35.098Z</time></trkpt><trkpt lat="42.2421892" lon="14.2068516"><ele>375.33333333333337</ele><time>2026-05-01T09:29:36.105Z</time></trkpt><trkpt lat="42.2420203" lon="14.2068913"><ele>376.6666666666667</ele><time>2026-05-01T09:29:37.091Z</time></trkpt><trkpt lat="42.2418289" lon="14.2069163"><ele>378.0</ele><time>2026-05-01T09:29:38.094Z</time></trkpt><trkpt lat="42.2416312" lon="14.2069329"><ele>375.0</ele><time>2026-05-01T09:29:39.094Z</time></trkpt><trkpt lat="42.2414367" lon="14.2069386"><ele>372.0</ele><time>2026-05-01T09:29:40.087Z</time></trkpt><trkpt lat="42.2412576" lon="14.2069216"><ele>369.0</ele><time>2026-05-01T09:29:41.097Z</time></trkpt><trkpt lat="42.2411" lon="14.2068791"><ele>369.0</ele><time>2026-05-01T09:29:42.097Z</time></trkpt><trkpt lat="42.2409578" lon="14.2068279"><ele>369.0</ele><time>2026-05-01T09:29:43.092Z</time></trkpt><trkpt lat="42.2408182" lon="14.2067873"><ele>369.0</ele><time>2026-05-01T09:29:44.093Z</time></trkpt><trkpt lat="42.2406921" lon="14.20677"><ele>369.0</ele><time>2026-05-01T09:29:45.095Z</time></trkpt><trkpt lat="42.2405796" lon="14.2068198"><ele>366.75</ele><time>2026-05-01T09:29:46.087Z</time></trkpt><trkpt lat="42.2404588" lon="14.2068958"><ele>364.5</ele><time>2026-05-01T09:29:47.1Z</time></trkpt><trkpt lat="42.2403544" lon="14.206942"><ele>362.25</ele><time>2026-05-01T09:29:48.101Z</time></trkpt><trkpt lat="42.2402433" lon="14.2069321"><ele>360.0</ele><time>2026-05-01T09:29:49.091Z</time></trkpt><trkpt lat="42.2401439" lon="14.2068843"><ele>360.0</ele><time>2026-05-01T09:29:50.107Z</time></trkpt><trkpt lat="42.2400467" lon="14.2068433"><ele>360.0</ele><time>2026-05-01T09:29:51.095Z</time></trkpt><trkpt lat="42.2399758" lon="14.20684"><ele>360.0</ele><time>2026-05-01T09:29:52.097Z</time></trkpt><trkpt lat="42.2398871" lon="14.2068207"><ele>360.0</ele><time>2026-05-01T09:29:54.099Z</time></trkpt><trkpt lat="42.2398312" lon="14.2067733"><ele>360.0</ele><time>2026-05-01T09:29:55.093Z</time></trkpt><trkpt lat="42.2397526" lon="14.2066987"><ele>360.0</ele><time>2026-05-01T09:29:56.091Z</time></trkpt><trkpt lat="42.239655" lon="14.2066032"><ele>359.0</ele><time>2026-05-01T09:29:57.093Z</time></trkpt><trkpt lat="42.2395491" lon="14.2065061"><ele>358.0</ele><time>2026-05-01T09:29:58.095Z</time></trkpt><trkpt lat="42.2394449" lon="14.2064082"><ele>357.0</ele><time>2026-05-01T09:29:59.096Z</time></trkpt><trkpt lat="42.2393497" lon="14.2063096"><ele>356.0</ele><time>2026-05-01T09:30:00.092Z</time></trkpt><trkpt lat="42.2392707" lon="14.2062118"><ele>356.0</ele><time>2026-05-01T09:30:01.094Z</time></trkpt><trkpt lat="42.2392043" lon="14.2061073"><ele>356.0</ele><time>2026-05-01T09:30:02.097Z</time></trkpt><trkpt lat="42.2391388" lon="14.2059828"><ele>356.0</ele><time>2026-05-01T09:30:03.1Z</time></trkpt><trkpt lat="42.239076" lon="14.2058186"><ele>356.0</ele><time>2026-05-01T09:30:04.094Z</time></trkpt><trkpt lat="42.2390258" lon="14.2056465"><ele>353.8</ele><time>2026-05-01T09:30:05.095Z</time></trkpt><trkpt lat="42.2389638" lon="14.2055071"><ele>351.6</ele><time>2026-05-01T09:30:06.096Z</time></trkpt><trkpt lat="42.2389029" lon="14.2053903"><ele>349.4</ele><time>2026-05-01T09:30:07.091Z</time></trkpt><trkpt lat="42.2388393" lon="14.2052947"><ele>347.2</ele><time>2026-05-01T09:30:08.103Z</time></trkpt><trkpt lat="42.2387748" lon="14.2052057"><ele>345.0</ele><time>2026-05-01T09:30:09.085Z</time></trkpt><trkpt lat="42.2387344" lon="14.2051107"><ele>345.0</ele><time>2026-05-01T09:30:10.096Z</time></trkpt><trkpt lat="42.2386871" lon="14.2050465"><ele>345.0</ele><time>2026-05-01T09:30:11.094Z</time></trkpt><trkpt lat="42.2386248" lon="14.2049939"><ele>345.0</ele><time>2026-05-01T09:30:12.102Z</time></trkpt><trkpt lat="42.2385635" lon="14.2049421"><ele>345.0</ele><time>2026-05-01T09:30:13.101Z</time></trkpt><trkpt lat="42.2385058" lon="14.2048712"><ele>345.0</ele><time>2026-05-01T09:30:14.095Z</time></trkpt><trkpt lat="42.2384446" lon="14.2047591"><ele>345.0</ele><time>2026-05-01T09:30:15.1Z</time></trkpt><trkpt lat="42.2383873" lon="14.2046528"><ele>346.6</ele><time>2026-05-01T09:30:16.097Z</time></trkpt><trkpt lat="42.23835" lon="14.2045598"><ele>348.2</ele><time>2026-05-01T09:30:17.099Z</time></trkpt><trkpt lat="42.2383109" lon="14.2044653"><ele>349.79999999999995</ele><time>2026-05-01T09:30:18.11Z</time></trkpt><trkpt lat="42.2382633" lon="14.2043361"><ele>351.4</ele><time>2026-05-01T09:30:19.09Z</time></trkpt><trkpt lat="42.2382147" lon="14.2041962"><ele>353.0</ele><time>2026-05-01T09:30:20.113Z</time></trkpt><trkpt lat="42.2381718" lon="14.2040655"><ele>353.2857142857143</ele><time>2026-05-01T09:30:21.096Z</time></trkpt><trkpt lat="42.2381354" lon="14.2039548"><ele>353.5714285714286</ele><time>2026-05-01T09:30:22.098Z</time></trkpt><trkpt lat="42.2381026" lon="14.2038657"><ele>353.8571428571429</ele><time>2026-05-01T09:30:23.101Z</time></trkpt><trkpt lat="42.2380809" lon="14.2037858"><ele>354.1428571428571</ele><time>2026-05-01T09:30:24.083Z</time></trkpt><trkpt lat="42.2380672" lon="14.2037002"><ele>354.42857142857144</ele><time>2026-05-01T09:30:25.1Z</time></trkpt><trkpt lat="42.2380645" lon="14.2035998"><ele>354.7142857142857</ele><time>2026-05-01T09:30:26.088Z</time></trkpt><trkpt lat="42.238071" lon="14.2034946"><ele>355.0</ele><time>2026-05-01T09:30:27.081Z</time></trkpt><trkpt lat="42.2380762" lon="14.2034076"><ele>351.0</ele><time>2026-05-01T09:30:28.076Z</time></trkpt><trkpt lat="42.2380208" lon="14.203319"><ele>347.0</ele><time>2026-05-01T09:30:30.096Z</time></trkpt><trkpt lat="42.2379257" lon="14.2031875"><ele>343.0</ele><time>2026-05-01T09:30:32.09Z</time></trkpt><trkpt lat="42.2378384" lon="14.2030804"><ele>339.0</ele><time>2026-05-01T09:30:34.094Z</time></trkpt><trkpt lat="42.237797" lon="14.2030083"><ele>335.0</ele><time>2026-05-01T09:30:35.091Z</time></trkpt><trkpt lat="42.2377698" lon="14.2029288"><ele>335.0</ele><time>2026-05-01T09:30:36.09Z</time></trkpt><trkpt lat="42.237704" lon="14.2027927"><ele>335.0</ele><time>2026-05-01T09:30:38.093Z</time></trkpt><trkpt lat="42.237658" lon="14.2027235"><ele>335.0</ele><time>2026-05-01T09:30:39.093Z</time></trkpt><trkpt lat="42.2376141" lon="14.2026562"><ele>335.0</ele><time>2026-05-01T09:30:40.099Z</time></trkpt><trkpt lat="42.2375512" lon="14.2025161"><ele>335.0</ele><time>2026-05-01T09:30:42.091Z</time></trkpt><trkpt lat="42.2375232" lon="14.202434"><ele>335.0</ele><time>2026-05-01T09:30:43.088Z</time></trkpt><trkpt lat="42.2374988" lon="14.2023486"><ele>336.2</ele><time>2026-05-01T09:30:44.102Z</time></trkpt><trkpt lat="42.2374817" lon="14.2022637"><ele>337.4</ele><time>2026-05-01T09:30:45.097Z</time></trkpt><trkpt lat="42.2374556" lon="14.2021465"><ele>338.6</ele><time>2026-05-01T09:30:46.1Z</time></trkpt><trkpt lat="42.2374275" lon="14.2020019"><ele>339.8</ele><time>2026-05-01T09:30:47.088Z</time></trkpt><trkpt lat="42.237387" lon="14.2018594"><ele>341.0</ele><time>2026-05-01T09:30:48.098Z</time></trkpt><trkpt lat="42.2373595" lon="14.201727"><ele>341.0</ele><time>2026-05-01T09:30:49.098Z</time></trkpt><trkpt lat="42.2373372" lon="14.2015971"><ele>341.0</ele><time>2026-05-01T09:30:50.095Z</time></trkpt><trkpt lat="42.2373246" lon="14.2014924"><ele>341.0</ele><time>2026-05-01T09:30:51.095Z</time></trkpt><trkpt lat="42.2373126" lon="14.2013927"><ele>341.0</ele><time>2026-05-01T09:30:52.096Z</time></trkpt><trkpt lat="42.2373053" lon="14.2012813"><ele>341.0</ele><time>2026-05-01T09:30:53.103Z</time></trkpt><trkpt lat="42.2372954" lon="14.2011665"><ele>341.0</ele><time>2026-05-01T09:30:54.103Z</time></trkpt><trkpt lat="42.2372966" lon="14.201061"><ele>341.6</ele><time>2026-05-01T09:30:55.098Z</time></trkpt><trkpt lat="42.2373078" lon="14.2009413"><ele>342.20000000000005</ele><time>2026-05-01T09:30:56.106Z</time></trkpt><trkpt lat="42.2373288" lon="14.200798"><ele>342.79999999999995</ele><time>2026-05-01T09:30:57.101Z</time></trkpt><trkpt lat="42.2373432" lon="14.2006597"><ele>343.4</ele><time>2026-05-01T09:30:58.092Z</time></trkpt><trkpt lat="42.237353" lon="14.2005368"><ele>344.0</ele><time>2026-05-01T09:30:59.1Z</time></trkpt><trkpt lat="42.2373633" lon="14.2004127"><ele>344.6666666666667</ele><time>2026-05-01T09:31:00.094Z</time></trkpt><trkpt lat="42.2373783" lon="14.2002996"><ele>345.33333333333337</ele><time>2026-05-01T09:31:01.104Z</time></trkpt><trkpt lat="42.2373908" lon="14.2001946"><ele>346.0</ele><time>2026-05-01T09:31:02.096Z</time></trkpt><trkpt lat="42.2374095" lon="14.200078"><ele>346.6666666666667</ele><time>2026-05-01T09:31:03.09Z</time></trkpt><trkpt lat="42.2374339" lon="14.1999672"><ele>347.3333333333333</ele><time>2026-05-01T09:31:04.094Z</time></trkpt><trkpt lat="42.2374534" lon="14.199874"><ele>348.0</ele><time>2026-05-01T09:31:05.109Z</time></trkpt><trkpt lat="42.2374781" lon="14.1997667"><ele>348.0</ele><time>2026-05-01T09:31:07.1Z</time></trkpt><trkpt lat="42.2374102" lon="14.1996989"><ele>348.0</ele><time>2026-05-01T09:31:10.104Z</time></trkpt><trkpt lat="42.2372962" lon="14.1996566"><ele>348.0</ele><time>2026-05-01T09:31:12.099Z</time></trkpt><trkpt lat="42.2372186" lon="14.1996284"><ele>348.0</ele><time>2026-05-01T09:31:13.092Z</time></trkpt><trkpt lat="42.2371412" lon="14.1995963"><ele>348.0</ele><time>2026-05-01T09:31:14.11Z</time></trkpt><trkpt lat="42.2370696" lon="14.1995647"><ele>348.0</ele><time>2026-05-01T09:31:15.1Z</time></trkpt><trkpt lat="42.2369984" lon="14.1995385"><ele>344.5</ele><time>2026-05-01T09:31:16.102Z</time></trkpt><trkpt lat="42.236931" lon="14.1995141"><ele>341.0</ele><time>2026-05-01T09:31:17.088Z</time></trkpt><trkpt lat="42.2368503" lon="14.199483"><ele>337.5</ele><time>2026-05-01T09:31:18.09Z</time></trkpt><trkpt lat="42.2367624" lon="14.1994506"><ele>334.0</ele><time>2026-05-01T09:31:19.094Z</time></trkpt><trkpt lat="42.2366807" lon="14.1994221"><ele>330.5</ele><time>2026-05-01T09:31:20.101Z</time></trkpt><trkpt lat="42.2365976" lon="14.1993926"><ele>327.0</ele><time>2026-05-01T09:31:21.097Z</time></trkpt><trkpt lat="42.2365212" lon="14.1993661"><ele>322.20000000000005</ele><time>2026-05-01T09:31:22.099Z</time></trkpt><trkpt lat="42.2364538" lon="14.1993407"><ele>317.40000000000003</ele><time>2026-05-01T09:31:23.103Z</time></trkpt><trkpt lat="42.2363398" lon="14.1992927"><ele>312.6</ele><time>2026-05-01T09:31:25.11Z</time></trkpt><trkpt lat="42.2362329" lon="14.1992511"><ele>307.8</ele><time>2026-05-01T09:31:27.092Z</time></trkpt><trkpt lat="42.2361349" lon="14.1992471"><ele>303.0</ele><time>2026-05-01T09:31:29.095Z</time></trkpt><trkpt lat="42.2360761" lon="14.1993802"><ele>303.0</ele><time>2026-05-01T09:31:31.095Z</time></trkpt><trkpt lat="42.2360497" lon="14.1995064"><ele>303.0</ele><time>2026-05-01T09:31:32.098Z</time></trkpt><trkpt lat="42.2360179" lon="14.1996362"><ele>303.0</ele><time>2026-05-01T09:31:33.091Z</time></trkpt><trkpt lat="42.2359845" lon="14.199732"><ele>303.0</ele><time>2026-05-01T09:31:34.104Z</time></trkpt><trkpt lat="42.2359562" lon="14.1998888"><ele>303.0</ele><time>2026-05-01T09:31:36.103Z</time></trkpt><trkpt lat="42.2359308" lon="14.200011"><ele>303.2</ele><time>2026-05-01T09:31:38.117Z</time></trkpt><trkpt lat="42.2358673" lon="14.2000996"><ele>303.4</ele><time>2026-05-01T09:31:40.093Z</time></trkpt><trkpt lat="42.235748" lon="14.2000981"><ele>303.59999999999997</ele><time>2026-05-01T09:31:42.096Z</time></trkpt><trkpt lat="42.235665" lon="14.2000759"><ele>303.8</ele><time>2026-05-01T09:31:43.09Z</time></trkpt><trkpt lat="42.2355799" lon="14.2000442"><ele>304.0</ele><time>2026-05-01T09:31:44.093Z</time></trkpt><trkpt lat="42.2355043" lon="14.2000041"><ele>301.3333333333333</ele><time>2026-05-01T09:31:45.095Z</time></trkpt><trkpt lat="42.2354194" lon="14.1999632"><ele>298.66666666666663</ele><time>2026-05-01T09:31:46.103Z</time></trkpt><trkpt lat="42.2353425" lon="14.1999262"><ele>296.0</ele><time>2026-05-01T09:31:47.098Z</time></trkpt><trkpt lat="42.2352608" lon="14.1998832"><ele>293.3333333333333</ele><time>2026-05-01T09:31:48.088Z</time></trkpt><trkpt lat="42.2351797" lon="14.1998286"><ele>290.6666666666667</ele><time>2026-05-01T09:31:49.101Z</time></trkpt><trkpt lat="42.235108" lon="14.199767"><ele>288.0</ele><time>2026-05-01T09:31:50.094Z</time></trkpt><trkpt lat="42.2350412" lon="14.1996922"><ele>287.8</ele><time>2026-05-01T09:31:51.09Z</time></trkpt><trkpt lat="42.2349693" lon="14.1996039"><ele>287.6</ele><time>2026-05-01T09:31:52.092Z</time></trkpt><trkpt lat="42.2348903" lon="14.1995135"><ele>287.4</ele><time>2026-05-01T09:31:53.097Z</time></trkpt><trkpt lat="42.2348093" lon="14.199421"><ele>287.2</ele><time>2026-05-01T09:31:54.093Z</time></trkpt><trkpt lat="42.2347285" lon="14.1993414"><ele>287.0</ele><time>2026-05-01T09:31:55.103Z</time></trkpt><trkpt lat="42.2346634" lon="14.1992673"><ele>285.85714285714283</ele><time>2026-05-01T09:31:56.099Z</time></trkpt><trkpt lat="42.2346037" lon="14.1991908"><ele>284.7142857142857</ele><time>2026-05-01T09:31:57.097Z</time></trkpt><trkpt lat="42.2345502" lon="14.199116"><ele>283.57142857142856</ele><time>2026-05-01T09:31:58.106Z</time></trkpt><trkpt lat="42.2344976" lon="14.1990311"><ele>282.42857142857144</ele><time>2026-05-01T09:31:59.095Z</time></trkpt><trkpt lat="42.2344507" lon="14.1989483"><ele>281.2857142857143</ele><time>2026-05-01T09:32:00.105Z</time></trkpt><trkpt lat="42.2344099" lon="14.1988816"><ele>280.1428571428571</ele><time>2026-05-01T09:32:01.096Z</time></trkpt><trkpt lat="42.2343652" lon="14.1988199"><ele>279.0</ele><time>2026-05-01T09:32:02.094Z</time></trkpt><trkpt lat="42.2343043" lon="14.1987731"><ele>278.3333333333333</ele><time>2026-05-01T09:32:03.098Z</time></trkpt><trkpt lat="42.2342294" lon="14.1987203"><ele>277.6666666666667</ele><time>2026-05-01T09:32:04.11Z</time></trkpt><trkpt lat="42.2341646" lon="14.1986636"><ele>277.0</ele><time>2026-05-01T09:32:05.094Z</time></trkpt><trkpt lat="42.2340969" lon="14.1986011"><ele>276.33333333333337</ele><time>2026-05-01T09:32:06.098Z</time></trkpt><trkpt lat="42.2340354" lon="14.1985413"><ele>275.6666666666667</ele><time>2026-05-01T09:32:07.097Z</time></trkpt><trkpt lat="42.2339484" lon="14.1984569"><ele>275.0</ele><time>2026-05-01T09:32:09.09Z</time></trkpt><trkpt lat="42.2338504" lon="14.1984485"><ele>274.1666666666667</ele><time>2026-05-01T09:32:11.088Z</time></trkpt><trkpt lat="42.2337909" lon="14.1984975"><ele>273.33333333333337</ele><time>2026-05-01T09:32:12.092Z</time></trkpt><trkpt lat="42.2337352" lon="14.1985615"><ele>272.5</ele><time>2026-05-01T09:32:13.088Z</time></trkpt><trkpt lat="42.2336747" lon="14.1986012"><ele>271.6666666666667</ele><time>2026-05-01T09:32:14.093Z</time></trkpt><trkpt lat="42.2335759" lon="14.198567"><ele>270.8333333333333</ele><time>2026-05-01T09:32:16.105Z</time></trkpt><trkpt lat="42.2334995" lon="14.1984903"><ele>270.0</ele><time>2026-05-01T09:32:17.091Z</time></trkpt><trkpt lat="42.2334075" lon="14.1983903"><ele>270.0</ele><time>2026-05-01T09:32:18.081Z</time></trkpt><trkpt lat="42.2333287" lon="14.1982947"><ele>270.0</ele><time>2026-05-01T09:32:19.086Z</time></trkpt><trkpt lat="42.2332533" lon="14.1981961"><ele>270.0</ele><time>2026-05-01T09:32:20.099Z</time></trkpt><trkpt lat="42.2331885" lon="14.1980972"><ele>270.0</ele><time>2026-05-01T09:32:21.084Z</time></trkpt><trkpt lat="42.2331472" lon="14.1980008"><ele>270.0</ele><time>2026-05-01T09:32:22.113Z</time></trkpt><trkpt lat="42.233115" lon="14.1978697"><ele>269.5</ele><time>2026-05-01T09:32:24.092Z</time></trkpt><trkpt lat="42.2330916" lon="14.1977792"><ele>269.0</ele><time>2026-05-01T09:32:26.09Z</time></trkpt><trkpt lat="42.2330136" lon="14.1977639"><ele>268.5</ele><time>2026-05-01T09:32:28.11Z</time></trkpt><trkpt lat="42.2329486" lon="14.1977834"><ele>268.0</ele><time>2026-05-01T09:32:29.091Z</time></trkpt><trkpt lat="42.2329406" lon="14.1976871"><ele>267.5</ele><time>2026-05-01T09:32:34.091Z</time></trkpt><trkpt lat="42.2329458" lon="14.1975564"><ele>267.0</ele><time>2026-05-01T09:32:37.097Z</time></trkpt><trkpt lat="42.2329582" lon="14.1974248"><ele>267.5</ele><time>2026-05-01T09:32:39.096Z</time></trkpt><trkpt lat="42.2329443" lon="14.1972816"><ele>268.0</ele><time>2026-05-01T09:32:41.102Z</time></trkpt><trkpt lat="42.2329315" lon="14.1971911"><ele>268.5</ele><time>2026-05-01T09:32:42.102Z</time></trkpt><trkpt lat="42.2329138" lon="14.1970786"><ele>269.0</ele><time>2026-05-01T09:32:43.089Z</time></trkpt><trkpt lat="42.2329016" lon="14.196972"><ele>269.5</ele><time>2026-05-01T09:32:44.091Z</time></trkpt><trkpt lat="42.2328804" lon="14.1968731"><ele>270.0</ele><time>2026-05-01T09:32:45.095Z</time></trkpt><trkpt lat="42.2328569" lon="14.196768"><ele>270.0</ele><time>2026-05-01T09:32:46.094Z</time></trkpt><trkpt lat="42.2328346" lon="14.1966705"><ele>270.0</ele><time>2026-05-01T09:32:47.087Z</time></trkpt><trkpt lat="42.2328198" lon="14.1965711"><ele>270.0</ele><time>2026-05-01T09:32:48.085Z</time></trkpt><trkpt lat="42.2328107" lon="14.1964585"><ele>270.0</ele><time>2026-05-01T09:32:49.097Z</time></trkpt><trkpt lat="42.2328045" lon="14.1963474"><ele>270.0</ele><time>2026-05-01T09:32:50.099Z</time></trkpt><trkpt lat="42.2327787" lon="14.1962142"><ele>270.0</ele><time>2026-05-01T09:32:51.095Z</time></trkpt><trkpt lat="42.2327341" lon="14.1961137"><ele>270.2</ele><time>2026-05-01T09:32:52.085Z</time></trkpt><trkpt lat="42.2326661" lon="14.1960374"><ele>270.4</ele><time>2026-05-01T09:32:53.106Z</time></trkpt><trkpt lat="42.2325824" lon="14.1960036"><ele>270.6</ele><time>2026-05-01T09:32:54.099Z</time></trkpt><trkpt lat="42.232492" lon="14.195999"><ele>270.8</ele><time>2026-05-01T09:32:55.084Z</time></trkpt><trkpt lat="42.2323814" lon="14.1960192"><ele>271.0</ele><time>2026-05-01T09:32:56.095Z</time></trkpt><trkpt lat="42.2322837" lon="14.1960421"><ele>271.6</ele><time>2026-05-01T09:32:57.094Z</time></trkpt><trkpt lat="42.2321856" lon="14.1960583"><ele>272.20000000000005</ele><time>2026-05-01T09:32:58.094Z</time></trkpt><trkpt lat="42.2320751" lon="14.1960766"><ele>272.79999999999995</ele><time>2026-05-01T09:32:59.092Z</time></trkpt><trkpt lat="42.2319617" lon="14.1960936"><ele>273.4</ele><time>2026-05-01T09:33:00.094Z</time></trkpt><trkpt lat="42.2318519" lon="14.1961154"><ele>274.0</ele><time>2026-05-01T09:33:01.089Z</time></trkpt><trkpt lat="42.2317393" lon="14.1961362"><ele>274.0</ele><time>2026-05-01T09:33:02.092Z</time></trkpt><trkpt lat="42.2316237" lon="14.1961526"><ele>274.0</ele><time>2026-05-01T09:33:03.117Z</time></trkpt><trkpt lat="42.2315091" lon="14.1961695"><ele>274.0</ele><time>2026-05-01T09:33:04.1Z</time></trkpt><trkpt lat="42.2313993" lon="14.196176"><ele>274.0</ele><time>2026-05-01T09:33:05.087Z</time></trkpt><trkpt lat="42.231294" lon="14.1961756"><ele>274.0</ele><time>2026-05-01T09:33:06.093Z</time></trkpt><trkpt lat="42.2311851" lon="14.1961623"><ele>274.5</ele><time>2026-05-01T09:33:07.091Z</time></trkpt><trkpt lat="42.231071" lon="14.1961356"><ele>275.0</ele><time>2026-05-01T09:33:08.093Z</time></trkpt><trkpt lat="42.2309513" lon="14.1961054"><ele>275.5</ele><time>2026-05-01T09:33:09.099Z</time></trkpt><trkpt lat="42.2308238" lon="14.1960677"><ele>276.0</ele><time>2026-05-01T09:33:10.099Z</time></trkpt><trkpt lat="42.2306979" lon="14.1960243"><ele>276.0</ele><time>2026-05-01T09:33:11.093Z</time></trkpt><trkpt lat="42.2305861" lon="14.1959705"><ele>276.0</ele><time>2026-05-01T09:33:12.102Z</time></trkpt><trkpt lat="42.2304873" lon="14.1958856"><ele>276.0</ele><time>2026-05-01T09:33:13.098Z</time></trkpt><trkpt lat="42.230389" lon="14.1957719"><ele>276.0</ele><time>2026-05-01T09:33:14.082Z</time></trkpt><trkpt lat="42.2302918" lon="14.1956729"><ele>277.40000000000003</ele><time>2026-05-01T09:33:15.095Z</time></trkpt><trkpt lat="42.2302045" lon="14.1955911"><ele>278.8</ele><time>2026-05-01T09:33:16.109Z</time></trkpt><trkpt lat="42.2301072" lon="14.1955329"><ele>280.20000000000005</ele><time>2026-05-01T09:33:17.093Z</time></trkpt><trkpt lat="42.2300059" lon="14.1954993"><ele>281.6</ele><time>2026-05-01T09:33:18.098Z</time></trkpt><trkpt lat="42.2299154" lon="14.195468"><ele>283.0</ele><time>2026-05-01T09:33:19.093Z</time></trkpt><trkpt lat="42.2298411" lon="14.1954374"><ele>282.6</ele><time>2026-05-01T09:33:20.087Z</time></trkpt><trkpt lat="42.2297782" lon="14.1953843"><ele>282.20000000000005</ele><time>2026-05-01T09:33:21.098Z</time></trkpt><trkpt lat="42.2297326" lon="14.1952853"><ele>281.8</ele><time>2026-05-01T09:33:22.091Z</time></trkpt><trkpt lat="42.229682" lon="14.1951432"><ele>281.40000000000003</ele><time>2026-05-01T09:33:23.092Z</time></trkpt><trkpt lat="42.2296241" lon="14.195013"><ele>281.0</ele><time>2026-05-01T09:33:24.092Z</time></trkpt><trkpt lat="42.2295377" lon="14.1948761"><ele>282.5</ele><time>2026-05-01T09:33:25.097Z</time></trkpt><trkpt lat="42.2294402" lon="14.1947528"><ele>284.0</ele><time>2026-05-01T09:33:26.088Z</time></trkpt><trkpt lat="42.2293526" lon="14.1946208"><ele>285.5</ele><time>2026-05-01T09:33:27.088Z</time></trkpt><trkpt lat="42.2292717" lon="14.194483"><ele>287.0</ele><time>2026-05-01T09:33:28.093Z</time></trkpt><trkpt lat="42.229185" lon="14.1943496"><ele>287.0</ele><time>2026-05-01T09:33:29.095Z</time></trkpt><trkpt lat="42.2290981" lon="14.1942121"><ele>287.0</ele><time>2026-05-01T09:33:30.094Z</time></trkpt><trkpt lat="42.229005" lon="14.1940862"><ele>287.0</ele><time>2026-05-01T09:33:31.089Z</time></trkpt><trkpt lat="42.2289097" lon="14.1939599"><ele>287.0</ele><time>2026-05-01T09:33:32.103Z</time></trkpt><trkpt lat="42.2288209" lon="14.1938598"><ele>288.8</ele><time>2026-05-01T09:33:33.092Z</time></trkpt><trkpt lat="42.2287494" lon="14.1938009"><ele>290.6</ele><time>2026-05-01T09:33:34.094Z</time></trkpt><trkpt lat="42.2286785" lon="14.1937705"><ele>292.40000000000003</ele><time>2026-05-01T09:33:35.086Z</time></trkpt><trkpt lat="42.2285857" lon="14.1937644"><ele>294.2</ele><time>2026-05-01T09:33:36.101Z</time></trkpt><trkpt lat="42.22849" lon="14.19375"><ele>296.0</ele><time>2026-05-01T09:33:37.103Z</time></trkpt><trkpt lat="42.2283743" lon="14.1937193"><ele>296.0</ele><time>2026-05-01T09:33:38.107Z</time></trkpt><trkpt lat="42.2282641" lon="14.193666"><ele>296.0</ele><time>2026-05-01T09:33:39.093Z</time></trkpt><trkpt lat="42.2281714" lon="14.1935808"><ele>296.0</ele><time>2026-05-01T09:33:40.096Z</time></trkpt><trkpt lat="42.2280822" lon="14.1934871"><ele>296.0</ele><time>2026-05-01T09:33:41.086Z</time></trkpt><trkpt lat="42.2279976" lon="14.1933843"><ele>294.75</ele><time>2026-05-01T09:33:42.102Z</time></trkpt><trkpt lat="42.2279157" lon="14.1932765"><ele>293.5</ele><time>2026-05-01T09:33:43.094Z</time></trkpt><trkpt lat="42.2278258" lon="14.1931797"><ele>292.25</ele><time>2026-05-01T09:33:44.109Z</time></trkpt><trkpt lat="42.2277291" lon="14.1930916"><ele>291.0</ele><time>2026-05-01T09:33:45.094Z</time></trkpt><trkpt lat="42.2276308" lon="14.1930076"><ele>293.25</ele><time>2026-05-01T09:33:46.103Z</time></trkpt><trkpt lat="42.2275303" lon="14.1929174"><ele>295.5</ele><time>2026-05-01T09:33:47.089Z</time></trkpt><trkpt lat="42.2274241" lon="14.1928264"><ele>297.75</ele><time>2026-05-01T09:33:48.104Z</time></trkpt><trkpt lat="42.2273116" lon="14.1927339"><ele>300.0</ele><time>2026-05-01T09:33:49.105Z</time></trkpt><trkpt lat="42.2271962" lon="14.192652"><ele>300.0</ele><time>2026-05-01T09:33:50.091Z</time></trkpt><trkpt lat="42.2270912" lon="14.1925893"><ele>300.0</ele><time>2026-05-01T09:33:51.095Z</time></trkpt><trkpt lat="42.2269823" lon="14.1925529"><ele>300.0</ele><time>2026-05-01T09:33:52.096Z</time></trkpt><trkpt lat="42.2268626" lon="14.1925211"><ele>300.0</ele><time>2026-05-01T09:33:53.094Z</time></trkpt><trkpt lat="42.2267323" lon="14.1925034"><ele>300.0</ele><time>2026-05-01T09:33:54.112Z</time></trkpt><trkpt lat="42.2266009" lon="14.192484"><ele>300.0</ele><time>2026-05-01T09:33:55.097Z</time></trkpt><trkpt lat="42.2264571" lon="14.1924767"><ele>300.0</ele><time>2026-05-01T09:33:56.11Z</time></trkpt><trkpt lat="42.2263075" lon="14.1924879"><ele>300.0</ele><time>2026-05-01T09:33:57.093Z</time></trkpt><trkpt lat="42.2261728" lon="14.1925311"><ele>300.6666666666667</ele><time>2026-05-01T09:33:58.105Z</time></trkpt><trkpt lat="42.2260175" lon="14.1926026"><ele>301.33333333333337</ele><time>2026-05-01T09:33:59.087Z</time></trkpt><trkpt lat="42.225859" lon="14.1926775"><ele>302.0</ele><time>2026-05-01T09:34:00.09Z</time></trkpt><trkpt lat="42.2257028" lon="14.1927378"><ele>302.75</ele><time>2026-05-01T09:34:01.096Z</time></trkpt><trkpt lat="42.2255546" lon="14.1927828"><ele>303.5</ele><time>2026-05-01T09:34:02.092Z</time></trkpt><trkpt lat="42.2254116" lon="14.1928102"><ele>304.25</ele><time>2026-05-01T09:34:03.107Z</time></trkpt><trkpt lat="42.2252596" lon="14.1928258"><ele>305.0</ele><time>2026-05-01T09:34:04.09Z</time></trkpt><trkpt lat="42.2251143" lon="14.1928321"><ele>305.0</ele><time>2026-05-01T09:34:05.089Z</time></trkpt><trkpt lat="42.2249793" lon="14.1928478"><ele>305.0</ele><time>2026-05-01T09:34:06.092Z</time></trkpt><trkpt lat="42.2248409" lon="14.1928597"><ele>305.0</ele><time>2026-05-01T09:34:07.098Z</time></trkpt><trkpt lat="42.2247089" lon="14.1928674"><ele>305.0</ele><time>2026-05-01T09:34:08.096Z</time></trkpt><trkpt lat="42.2245808" lon="14.1928835"><ele>305.5</ele><time>2026-05-01T09:34:09.094Z</time></trkpt><trkpt lat="42.2244526" lon="14.1928955"><ele>306.0</ele><time>2026-05-01T09:34:10.117Z</time></trkpt><trkpt lat="42.224327" lon="14.1928839"><ele>306.5</ele><time>2026-05-01T09:34:11.093Z</time></trkpt><trkpt lat="42.2242218" lon="14.1928529"><ele>307.0</ele><time>2026-05-01T09:34:12.105Z</time></trkpt><trkpt lat="42.2241297" lon="14.1928084"><ele>307.0</ele><time>2026-05-01T09:34:13.095Z</time></trkpt><trkpt lat="42.2240443" lon="14.192733"><ele>307.0</ele><time>2026-05-01T09:34:14.1Z</time></trkpt><trkpt lat="42.2239572" lon="14.1926484"><ele>307.0</ele><time>2026-05-01T09:34:15.102Z</time></trkpt><trkpt lat="42.2238832" lon="14.1925693"><ele>307.0</ele><time>2026-05-01T09:34:16.096Z</time></trkpt><trkpt lat="42.2238077" lon="14.1925"><ele>307.0</ele><time>2026-05-01T09:34:17.091Z</time></trkpt><trkpt lat="42.2237211" lon="14.192443"><ele>308.0</ele><time>2026-05-01T09:34:18.114Z</time></trkpt><trkpt lat="42.2236392" lon="14.192423"><ele>309.0</ele><time>2026-05-01T09:34:19.103Z</time></trkpt><trkpt lat="42.2235702" lon="14.1924194"><ele>310.0</ele><time>2026-05-01T09:34:20.096Z</time></trkpt><trkpt lat="42.2234702" lon="14.1925151"><ele>311.0</ele><time>2026-05-01T09:34:22.093Z</time></trkpt><trkpt lat="42.2233833" lon="14.1925677"><ele>312.0</ele><time>2026-05-01T09:34:24.108Z</time></trkpt><trkpt lat="42.223273" lon="14.1925816"><ele>312.0</ele><time>2026-05-01T09:34:26.093Z</time></trkpt><trkpt lat="42.2231777" lon="14.1925936"><ele>312.0</ele><time>2026-05-01T09:34:27.094Z</time></trkpt><trkpt lat="42.2230604" lon="14.1926259"><ele>312.0</ele><time>2026-05-01T09:34:28.098Z</time></trkpt><trkpt lat="42.2229256" lon="14.1926683"><ele>312.0</ele><time>2026-05-01T09:34:29.104Z</time></trkpt><trkpt lat="42.2227794" lon="14.1926946"><ele>312.5</ele><time>2026-05-01T09:34:30.093Z</time></trkpt><trkpt lat="42.2226324" lon="14.1927102"><ele>313.0</ele><time>2026-05-01T09:34:31.09Z</time></trkpt><trkpt lat="42.2224959" lon="14.1927052"><ele>313.5</ele><time>2026-05-01T09:34:32.094Z</time></trkpt><trkpt lat="42.2223796" lon="14.1926933"><ele>314.0</ele><time>2026-05-01T09:34:33.099Z</time></trkpt><trkpt lat="42.222273" lon="14.1926586"><ele>314.8</ele><time>2026-05-01T09:34:34.102Z</time></trkpt><trkpt lat="42.2221747" lon="14.1926301"><ele>315.59999999999997</ele><time>2026-05-01T09:34:35.089Z</time></trkpt><trkpt lat="42.2220784" lon="14.1926084"><ele>316.4</ele><time>2026-05-01T09:34:36.106Z</time></trkpt><trkpt lat="42.2219722" lon="14.19258"><ele>317.2</ele><time>2026-05-01T09:34:37.111Z</time></trkpt><trkpt lat="42.2218567" lon="14.1925474"><ele>318.0</ele><time>2026-05-01T09:34:38.11Z</time></trkpt><trkpt lat="42.2217433" lon="14.192513"><ele>318.0</ele><time>2026-05-01T09:34:39.085Z</time></trkpt><trkpt lat="42.221634" lon="14.1924766"><ele>318.0</ele><time>2026-05-01T09:34:40.092Z</time></trkpt><trkpt lat="42.2215384" lon="14.1924156"><ele>318.0</ele><time>2026-05-01T09:34:41.094Z</time></trkpt><trkpt lat="42.2214669" lon="14.1923626"><ele>318.0</ele><time>2026-05-01T09:34:42.11Z</time></trkpt><trkpt lat="42.2214081" lon="14.1923026"><ele>318.0</ele><time>2026-05-01T09:34:43.094Z</time></trkpt><trkpt lat="42.2213535" lon="14.192252"><ele>318.0</ele><time>2026-05-01T09:34:44.101Z</time></trkpt><trkpt lat="42.221299" lon="14.1921964"><ele>319.2</ele><time>2026-05-01T09:34:45.089Z</time></trkpt><trkpt lat="42.2212174" lon="14.192117"><ele>320.4</ele><time>2026-05-01T09:34:47.082Z</time></trkpt><trkpt lat="42.2211492" lon="14.1921564"><ele>321.59999999999997</ele><time>2026-05-01T09:34:50.109Z</time></trkpt><trkpt lat="42.2212216" lon="14.1922495"><ele>322.8</ele><time>2026-05-01T09:34:52.109Z</time></trkpt><trkpt lat="42.221307" lon="14.1923033"><ele>324.0</ele><time>2026-05-01T09:34:53.09Z</time></trkpt><trkpt lat="42.2214013" lon="14.1924021"><ele>322.5</ele><time>2026-05-01T09:34:54.099Z</time></trkpt><trkpt lat="42.2215066" lon="14.1925287"><ele>321.0</ele><time>2026-05-01T09:34:55.097Z</time></trkpt><trkpt lat="42.2216217" lon="14.1926597"><ele>319.5</ele><time>2026-05-01T09:34:56.091Z</time></trkpt><trkpt lat="42.2217359" lon="14.1927741"><ele>318.0</ele><time>2026-05-01T09:34:57.098Z</time></trkpt><trkpt lat="42.2218458" lon="14.1928861"><ele>318.0</ele><time>2026-05-01T09:34:58.102Z</time></trkpt><trkpt lat="42.2219507" lon="14.1929927"><ele>318.0</ele><time>2026-05-01T09:34:59.096Z</time></trkpt><trkpt lat="42.2220606" lon="14.1930913"><ele>318.0</ele><time>2026-05-01T09:35:00.108Z</time></trkpt><trkpt lat="42.2221771" lon="14.1931981"><ele>318.0</ele><time>2026-05-01T09:35:01.088Z</time></trkpt><trkpt lat="42.2223005" lon="14.1933093"><ele>315.3333333333333</ele><time>2026-05-01T09:35:02.107Z</time></trkpt><trkpt lat="42.222437" lon="14.1934195"><ele>312.66666666666663</ele><time>2026-05-01T09:35:03.094Z</time></trkpt><trkpt lat="42.2225755" lon="14.1935174"><ele>310.0</ele><time>2026-05-01T09:35:04.12Z</time></trkpt><trkpt lat="42.2227086" lon="14.1936067"><ele>310.0</ele><time>2026-05-01T09:35:05.093Z</time></trkpt><trkpt lat="42.2228397" lon="14.1936901"><ele>310.0</ele><time>2026-05-01T09:35:06.096Z</time></trkpt><trkpt lat="42.2229722" lon="14.1937762"><ele>310.0</ele><time>2026-05-01T09:35:07.096Z</time></trkpt><trkpt lat="42.2230988" lon="14.1938667"><ele>310.0</ele><time>2026-05-01T09:35:08.098Z</time></trkpt><trkpt lat="42.2232283" lon="14.1939578"><ele>308.5</ele><time>2026-05-01T09:35:09.089Z</time></trkpt><trkpt lat="42.2233593" lon="14.1940378"><ele>307.0</ele><time>2026-05-01T09:35:10.092Z</time></trkpt><trkpt lat="42.2234902" lon="14.1941201"><ele>305.5</ele><time>2026-05-01T09:35:11.089Z</time></trkpt><trkpt lat="42.2236238" lon="14.1941986"><ele>304.0</ele><time>2026-05-01T09:35:12.09Z</time></trkpt><trkpt lat="42.2237496" lon="14.1942824"><ele>304.0</ele><time>2026-05-01T09:35:13.093Z</time></trkpt><trkpt lat="42.2238627" lon="14.1943897"><ele>304.0</ele><time>2026-05-01T09:35:14.094Z</time></trkpt><trkpt lat="42.2239743" lon="14.1945121"><ele>304.0</ele><time>2026-05-01T09:35:15.096Z</time></trkpt><trkpt lat="42.224089" lon="14.1946194"><ele>304.0</ele><time>2026-05-01T09:35:16.103Z</time></trkpt><trkpt lat="42.2241941" lon="14.1947143"><ele>303.5</ele><time>2026-05-01T09:35:17.088Z</time></trkpt><trkpt lat="42.2242988" lon="14.1947946"><ele>303.0</ele><time>2026-05-01T09:35:18.096Z</time></trkpt><trkpt lat="42.2244285" lon="14.1948579"><ele>302.5</ele><time>2026-05-01T09:35:19.09Z</time></trkpt><trkpt lat="42.2245685" lon="14.1949099"><ele>302.0</ele><time>2026-05-01T09:35:20.095Z</time></trkpt><trkpt lat="42.2246858" lon="14.1949251"><ele>301.6</ele><time>2026-05-01T09:35:21.095Z</time></trkpt><trkpt lat="42.2247946" lon="14.1949313"><ele>301.2</ele><time>2026-05-01T09:35:22.096Z</time></trkpt><trkpt lat="42.2249039" lon="14.1949349"><ele>300.8</ele><time>2026-05-01T09:35:23.082Z</time></trkpt><trkpt lat="42.2250157" lon="14.1949442"><ele>300.4</ele><time>2026-05-01T09:35:24.092Z</time></trkpt><trkpt lat="42.2251158" lon="14.1949654"><ele>300.0</ele><time>2026-05-01T09:35:25.088Z</time></trkpt><trkpt lat="42.2252014" lon="14.1949911"><ele>298.8333333333333</ele><time>2026-05-01T09:35:26.102Z</time></trkpt><trkpt lat="42.2252634" lon="14.1950174"><ele>297.6666666666667</ele><time>2026-05-01T09:35:27.086Z</time></trkpt><trkpt lat="42.2253469" lon="14.1951486"><ele>296.5</ele><time>2026-05-01T09:35:29.093Z</time></trkpt><trkpt lat="42.2253828" lon="14.1952403"><ele>295.33333333333337</ele><time>2026-05-01T09:35:30.114Z</time></trkpt><trkpt lat="42.225409" lon="14.195333"><ele>294.1666666666667</ele><time>2026-05-01T09:35:31.093Z</time></trkpt><trkpt lat="42.2254246" lon="14.1954205"><ele>293.0</ele><time>2026-05-01T09:35:32.094Z</time></trkpt><trkpt lat="42.2254784" lon="14.1955634"><ele>293.0</ele><time>2026-05-01T09:35:34.085Z</time></trkpt><trkpt lat="42.2255814" lon="14.1956472"><ele>293.0</ele><time>2026-05-01T09:35:36.097Z</time></trkpt><trkpt lat="42.2256506" lon="14.1956779"><ele>293.0</ele><time>2026-05-01T09:35:37.097Z</time></trkpt><trkpt lat="42.225724" lon="14.1956956"><ele>293.0</ele><time>2026-05-01T09:35:38.09Z</time></trkpt><trkpt lat="42.2257882" lon="14.195734"><ele>293.0</ele><time>2026-05-01T09:35:39.09Z</time></trkpt><trkpt lat="42.22587" lon="14.1958434"><ele>294.75</ele><time>2026-05-01T09:35:41.091Z</time></trkpt><trkpt lat="42.2259121" lon="14.1959928"><ele>296.5</ele><time>2026-05-01T09:35:43.09Z</time></trkpt><trkpt lat="42.2259348" lon="14.1961493"><ele>298.25</ele><time>2026-05-01T09:35:45.089Z</time></trkpt><trkpt lat="42.2259664" lon="14.1962908"><ele>300.0</ele><time>2026-05-01T09:35:47.108Z</time></trkpt><trkpt lat="42.2260059" lon="14.1964514"><ele>302.1666666666667</ele><time>2026-05-01T09:35:49.106Z</time></trkpt><trkpt lat="42.2260251" lon="14.1965402"><ele>304.3333333333333</ele><time>2026-05-01T09:35:50.103Z</time></trkpt><trkpt lat="42.2260455" lon="14.1966265"><ele>306.5</ele><time>2026-05-01T09:35:51.095Z</time></trkpt><trkpt lat="42.2260911" lon="14.1967035"><ele>308.66666666666663</ele><time>2026-05-01T09:35:52.098Z</time></trkpt><trkpt lat="42.2261637" lon="14.1967769"><ele>310.8333333333333</ele><time>2026-05-01T09:35:53.098Z</time></trkpt><trkpt lat="42.2262436" lon="14.1968581"><ele>313.0</ele><time>2026-05-01T09:35:54.095Z</time></trkpt><trkpt lat="42.22633" lon="14.1969358"><ele>313.0</ele><time>2026-05-01T09:35:55.086Z</time></trkpt><trkpt lat="42.2264182" lon="14.197021"><ele>313.0</ele><time>2026-05-01T09:35:56.098Z</time></trkpt><trkpt lat="42.226499" lon="14.1971054"><ele>313.0</ele><time>2026-05-01T09:35:57.09Z</time></trkpt><trkpt lat="42.2265628" lon="14.1971908"><ele>313.0</ele><time>2026-05-01T09:35:58.098Z</time></trkpt><trkpt lat="42.2266269" lon="14.1972901"><ele>313.0</ele><time>2026-05-01T09:35:59.092Z</time></trkpt><trkpt lat="42.226693" lon="14.197376"><ele>313.6</ele><time>2026-05-01T09:36:00.093Z</time></trkpt><trkpt lat="42.2267736" lon="14.1974566"><ele>314.20000000000005</ele><time>2026-05-01T09:36:01.095Z</time></trkpt><trkpt lat="42.2268584" lon="14.1975412"><ele>314.8</ele><time>2026-05-01T09:36:02.095Z</time></trkpt><trkpt lat="42.2269527" lon="14.1976185"><ele>315.40000000000003</ele><time>2026-05-01T09:36:03.093Z</time></trkpt><trkpt lat="42.2270425" lon="14.1977059"><ele>316.0</ele><time>2026-05-01T09:36:04.093Z</time></trkpt><trkpt lat="42.2271279" lon="14.1977941"><ele>316.0</ele><time>2026-05-01T09:36:05.092Z</time></trkpt><trkpt lat="42.2272079" lon="14.1978836"><ele>316.0</ele><time>2026-05-01T09:36:06.093Z</time></trkpt><trkpt lat="42.2272714" lon="14.1979691"><ele>316.0</ele><time>2026-05-01T09:36:07.097Z</time></trkpt><trkpt lat="42.2273236" lon="14.1980723"><ele>316.0</ele><time>2026-05-01T09:36:08.093Z</time></trkpt><trkpt lat="42.227366" lon="14.1981966"><ele>316.0</ele><time>2026-05-01T09:36:09.09Z</time></trkpt><trkpt lat="42.2273999" lon="14.1983292"><ele>315.8</ele><time>2026-05-01T09:36:10.093Z</time></trkpt><trkpt lat="42.2274306" lon="14.1984717"><ele>315.6</ele><time>2026-05-01T09:36:11.093Z</time></trkpt><trkpt lat="42.2274534" lon="14.1986212"><ele>315.4</ele><time>2026-05-01T09:36:12.1Z</time></trkpt><trkpt lat="42.2274565" lon="14.1987733"><ele>315.2</ele><time>2026-05-01T09:36:13.093Z</time></trkpt><trkpt lat="42.2274544" lon="14.1989164"><ele>315.0</ele><time>2026-05-01T09:36:14.104Z</time></trkpt><trkpt lat="42.2274474" lon="14.1990368"><ele>314.42857142857144</ele><time>2026-05-01T09:36:15.099Z</time></trkpt><trkpt lat="42.2274425" lon="14.1991296"><ele>313.8571428571429</ele><time>2026-05-01T09:36:16.106Z</time></trkpt><trkpt lat="42.2274533" lon="14.1992139"><ele>313.2857142857143</ele><time>2026-05-01T09:36:17.096Z</time></trkpt><trkpt lat="42.227495" lon="14.199305"><ele>312.7142857142857</ele><time>2026-05-01T09:36:18.095Z</time></trkpt><trkpt lat="42.2275428" lon="14.1994039"><ele>312.14285714285717</ele><time>2026-05-01T09:36:19.1Z</time></trkpt><trkpt lat="42.2275824" lon="14.1994968"><ele>311.57142857142856</ele><time>2026-05-01T09:36:20.091Z</time></trkpt><trkpt lat="42.2276173" lon="14.1995779"><ele>311.0</ele><time>2026-05-01T09:36:21.09Z</time></trkpt><trkpt lat="42.2276543" lon="14.1996526"><ele>311.0</ele><time>2026-05-01T09:36:22.094Z</time></trkpt><trkpt lat="42.2276874" lon="14.1998122"><ele>311.0</ele><time>2026-05-01T09:36:24.096Z</time></trkpt><trkpt lat="42.2276825" lon="14.1999009"><ele>311.0</ele><time>2026-05-01T09:36:25.095Z</time></trkpt><trkpt lat="42.227651" lon="14.1999917"><ele>311.0</ele><time>2026-05-01T09:36:26.098Z</time></trkpt><trkpt lat="42.2276174" lon="14.2000951"><ele>311.0</ele><time>2026-05-01T09:36:27.091Z</time></trkpt><trkpt lat="42.2275775" lon="14.200199"><ele>311.0</ele><time>2026-05-01T09:36:28.094Z</time></trkpt><trkpt lat="42.2275452" lon="14.2003059"><ele>310.6666666666667</ele><time>2026-05-01T09:36:29.101Z</time></trkpt><trkpt lat="42.2275092" lon="14.2004173"><ele>310.33333333333337</ele><time>2026-05-01T09:36:30.103Z</time></trkpt><trkpt lat="42.2274606" lon="14.200522"><ele>310.0</ele><time>2026-05-01T09:36:31.105Z</time></trkpt><trkpt lat="42.227406" lon="14.2006113"><ele>309.6666666666667</ele><time>2026-05-01T09:36:32.114Z</time></trkpt><trkpt lat="42.2273473" lon="14.2006764"><ele>309.3333333333333</ele><time>2026-05-01T09:36:33.094Z</time></trkpt><trkpt lat="42.2272974" lon="14.2007488"><ele>309.0</ele><time>2026-05-01T09:36:34.097Z</time></trkpt><trkpt lat="42.227258" lon="14.200817"><ele>308.2</ele><time>2026-05-01T09:36:35.092Z</time></trkpt><trkpt lat="42.2272177" lon="14.200915"><ele>307.4</ele><time>2026-05-01T09:36:37.101Z</time></trkpt><trkpt lat="42.2272499" lon="14.2009893"><ele>306.6</ele><time>2026-05-01T09:36:41.085Z</time></trkpt><trkpt lat="42.2273918" lon="14.2011341"><ele>305.8</ele><time>2026-05-01T09:36:43.088Z</time></trkpt><trkpt lat="42.2274821" lon="14.2012144"><ele>305.0</ele><time>2026-05-01T09:36:44.092Z</time></trkpt><trkpt lat="42.2275403" lon="14.2012582"><ele>305.0</ele><time>2026-05-01T09:36:47.094Z</time></trkpt><trkpt lat="42.2275103" lon="14.2013557"><ele>305.0</ele><time>2026-05-01T09:36:49.097Z</time></trkpt><trkpt lat="42.2274625" lon="14.2014606"><ele>305.0</ele><time>2026-05-01T09:36:50.089Z</time></trkpt><trkpt lat="42.2274016" lon="14.2015518"><ele>305.0</ele><time>2026-05-01T09:36:51.086Z</time></trkpt><trkpt lat="42.2273369" lon="14.2016361"><ele>305.0</ele><time>2026-05-01T09:36:52.102Z</time></trkpt><trkpt lat="42.2272793" lon="14.2017154"><ele>305.0</ele><time>2026-05-01T09:36:53.091Z</time></trkpt><trkpt lat="42.2271944" lon="14.2018501"><ele>305.6666666666667</ele><time>2026-05-01T09:36:55.09Z</time></trkpt><trkpt lat="42.227158" lon="14.2019285"><ele>306.33333333333337</ele><time>2026-05-01T09:36:56.103Z</time></trkpt><trkpt lat="42.2271118" lon="14.2020075"><ele>307.0</ele><time>2026-05-01T09:36:57.087Z</time></trkpt><trkpt lat="42.2270558" lon="14.2020799"><ele>307.6666666666667</ele><time>2026-05-01T09:36:58.103Z</time></trkpt><trkpt lat="42.2269928" lon="14.202163"><ele>308.3333333333333</ele><time>2026-05-01T09:36:59.097Z</time></trkpt><trkpt lat="42.2269317" lon="14.2022763"><ele>309.0</ele><time>2026-05-01T09:37:00.103Z</time></trkpt><trkpt lat="42.2268647" lon="14.202412"><ele>309.0</ele><time>2026-05-01T09:37:01.093Z</time></trkpt><trkpt lat="42.2267836" lon="14.2025305"><ele>309.0</ele><time>2026-05-01T09:37:02.094Z</time></trkpt><trkpt lat="42.2267006" lon="14.2026219"><ele>309.0</ele><time>2026-05-01T09:37:03.092Z</time></trkpt><trkpt lat="42.2266506" lon="14.2026998"><ele>309.0</ele><time>2026-05-01T09:37:04.087Z</time></trkpt><trkpt lat="42.2266099" lon="14.2027825"><ele>309.0</ele><time>2026-05-01T09:37:05.099Z</time></trkpt><trkpt lat="42.2265726" lon="14.2028542"><ele>309.0</ele><time>2026-05-01T09:37:06.097Z</time></trkpt><trkpt lat="42.2265177" lon="14.2029168"><ele>309.1666666666667</ele><time>2026-05-01T09:37:07.111Z</time></trkpt><trkpt lat="42.2264396" lon="14.2029865"><ele>309.3333333333333</ele><time>2026-05-01T09:37:08.102Z</time></trkpt><trkpt lat="42.2263585" lon="14.203054"><ele>309.5</ele><time>2026-05-01T09:37:09.092Z</time></trkpt><trkpt lat="42.2262857" lon="14.203114"><ele>309.66666666666663</ele><time>2026-05-01T09:37:10.09Z</time></trkpt><trkpt lat="42.2262404" lon="14.2031851"><ele>309.8333333333333</ele><time>2026-05-01T09:37:11.098Z</time></trkpt><trkpt lat="42.2261974" lon="14.2032848"><ele>310.0</ele><time>2026-05-01T09:37:12.085Z</time></trkpt><trkpt lat="42.2261492" lon="14.2033969"><ele>310.0</ele><time>2026-05-01T09:37:13.092Z</time></trkpt><trkpt lat="42.2261034" lon="14.2035042"><ele>310.0</ele><time>2026-05-01T09:37:14.084Z</time></trkpt><trkpt lat="42.2260519" lon="14.2035869"><ele>310.0</ele><time>2026-05-01T09:37:15.094Z</time></trkpt><trkpt lat="42.2260016" lon="14.2036619"><ele>310.0</ele><time>2026-05-01T09:37:16.093Z</time></trkpt><trkpt lat="42.2259208" lon="14.2037559"><ele>310.0</ele><time>2026-05-01T09:37:17.089Z</time></trkpt><trkpt lat="42.2258293" lon="14.2038508"><ele>310.0</ele><time>2026-05-01T09:37:18.088Z</time></trkpt><trkpt lat="42.2257316" lon="14.2039225"><ele>310.0</ele><time>2026-05-01T09:37:19.106Z</time></trkpt><trkpt lat="42.225645" lon="14.2039636"><ele>310.0</ele><time>2026-05-01T09:37:20.093Z</time></trkpt><trkpt lat="42.2255821" lon="14.2040144"><ele>310.0</ele><time>2026-05-01T09:37:21.097Z</time></trkpt><trkpt lat="42.2255032" lon="14.2041035"><ele>310.0</ele><time>2026-05-01T09:37:22.095Z</time></trkpt><trkpt lat="42.2254289" lon="14.2041833"><ele>309.6</ele><time>2026-05-01T09:37:23.09Z</time></trkpt><trkpt lat="42.225345" lon="14.2042473"><ele>309.2</ele><time>2026-05-01T09:37:24.099Z</time></trkpt><trkpt lat="42.2252426" lon="14.2042912"><ele>308.8</ele><time>2026-05-01T09:37:25.089Z</time></trkpt><trkpt lat="42.2251178" lon="14.2043336"><ele>308.4</ele><time>2026-05-01T09:37:26.098Z</time></trkpt><trkpt lat="42.2250207" lon="14.2043692"><ele>308.0</ele><time>2026-05-01T09:37:27.094Z</time></trkpt><trkpt lat="42.2249364" lon="14.2044092"><ele>308.0</ele><time>2026-05-01T09:37:28.091Z</time></trkpt><trkpt lat="42.2248585" lon="14.2044512"><ele>308.0</ele><time>2026-05-01T09:37:29.087Z</time></trkpt><trkpt lat="42.2247853" lon="14.2044995"><ele>308.0</ele><time>2026-05-01T09:37:30.096Z</time></trkpt><trkpt lat="42.2247102" lon="14.2045571"><ele>308.0</ele><time>2026-05-01T09:37:31.096Z</time></trkpt><trkpt lat="42.2246407" lon="14.2046219"><ele>308.0</ele><time>2026-05-01T09:37:32.101Z</time></trkpt><trkpt lat="42.2245781" lon="14.2046867"><ele>308.0</ele><time>2026-05-01T09:37:33.093Z</time></trkpt><trkpt lat="42.2245137" lon="14.2047385"><ele>308.57142857142856</ele><time>2026-05-01T09:37:34.099Z</time></trkpt><trkpt lat="42.2244477" lon="14.2047816"><ele>309.1428571428571</ele><time>2026-05-01T09:37:35.092Z</time></trkpt><trkpt lat="42.2243779" lon="14.204824"><ele>309.7142857142857</ele><time>2026-05-01T09:37:36.102Z</time></trkpt><trkpt lat="42.2243026" lon="14.204867"><ele>310.2857142857143</ele><time>2026-05-01T09:37:37.093Z</time></trkpt><trkpt lat="42.224245" lon="14.2049121"><ele>310.85714285714283</ele><time>2026-05-01T09:37:38.102Z</time></trkpt><trkpt lat="42.2242037" lon="14.2049778"><ele>311.42857142857144</ele><time>2026-05-01T09:37:39.102Z</time></trkpt><trkpt lat="42.2241594" lon="14.2050414"><ele>312.0</ele><time>2026-05-01T09:37:40.094Z</time></trkpt><trkpt lat="42.2240871" lon="14.2050789"><ele>312.0</ele><time>2026-05-01T09:37:41.088Z</time></trkpt><trkpt lat="42.2240075" lon="14.205105"><ele>312.0</ele><time>2026-05-01T09:37:42.099Z</time></trkpt><trkpt lat="42.2239121" lon="14.205158"><ele>312.0</ele><time>2026-05-01T09:37:43.089Z</time></trkpt><trkpt lat="42.2238163" lon="14.205213"><ele>312.0</ele><time>2026-05-01T09:37:44.092Z</time></trkpt><trkpt lat="42.2237426" lon="14.205272"><ele>312.0</ele><time>2026-05-01T09:37:45.082Z</time></trkpt><trkpt lat="42.2236734" lon="14.2053574"><ele>312.2</ele><time>2026-05-01T09:37:46.097Z</time></trkpt><trkpt lat="42.2235991" lon="14.2054266"><ele>312.4</ele><time>2026-05-01T09:37:47.084Z</time></trkpt><trkpt lat="42.223513" lon="14.2054937"><ele>312.6</ele><time>2026-05-01T09:37:48.111Z</time></trkpt><trkpt lat="42.2234181" lon="14.2055613"><ele>312.8</ele><time>2026-05-01T09:37:49.085Z</time></trkpt><trkpt lat="42.2233271" lon="14.2056282"><ele>313.0</ele><time>2026-05-01T09:37:50.094Z</time></trkpt><trkpt lat="42.2232417" lon="14.2056929"><ele>313.0</ele><time>2026-05-01T09:37:51.099Z</time></trkpt><trkpt lat="42.2231581" lon="14.2057487"><ele>313.0</ele><time>2026-05-01T09:37:52.088Z</time></trkpt><trkpt lat="42.2230663" lon="14.2058245"><ele>313.0</ele><time>2026-05-01T09:37:53.09Z</time></trkpt><trkpt lat="42.2229714" lon="14.2059352"><ele>313.0</ele><time>2026-05-01T09:37:54.085Z</time></trkpt><trkpt lat="42.2228739" lon="14.206059"><ele>315.2</ele><time>2026-05-01T09:37:55.086Z</time></trkpt><trkpt lat="42.2227877" lon="14.2061578"><ele>317.4</ele><time>2026-05-01T09:37:56.093Z</time></trkpt><trkpt lat="42.2227097" lon="14.2062394"><ele>319.59999999999997</ele><time>2026-05-01T09:37:57.09Z</time></trkpt><trkpt lat="42.2226327" lon="14.206318"><ele>321.8</ele><time>2026-05-01T09:37:58.089Z</time></trkpt><trkpt lat="42.2225644" lon="14.2063749"><ele>324.0</ele><time>2026-05-01T09:37:59.097Z</time></trkpt><trkpt lat="42.2224898" lon="14.2064297"><ele>324.0</ele><time>2026-05-01T09:38:00.095Z</time></trkpt><trkpt lat="42.2224045" lon="14.2064858"><ele>324.0</ele><time>2026-05-01T09:38:01.09Z</time></trkpt><trkpt lat="42.2223189" lon="14.2065402"><ele>324.0</ele><time>2026-05-01T09:38:02.092Z</time></trkpt><trkpt lat="42.2222375" lon="14.2066033"><ele>324.0</ele><time>2026-05-01T09:38:03.091Z</time></trkpt><trkpt lat="42.2221552" lon="14.2066691"><ele>324.0</ele><time>2026-05-01T09:38:04.09Z</time></trkpt><trkpt lat="42.2220831" lon="14.20672"><ele>323.8333333333333</ele><time>2026-05-01T09:38:05.086Z</time></trkpt><trkpt lat="42.2220089" lon="14.2067645"><ele>323.6666666666667</ele><time>2026-05-01T09:38:06.095Z</time></trkpt><trkpt lat="42.2219411" lon="14.2068119"><ele>323.5</ele><time>2026-05-01T09:38:07.098Z</time></trkpt><trkpt lat="42.2218707" lon="14.2068528"><ele>323.33333333333337</ele><time>2026-05-01T09:38:08.093Z</time></trkpt><trkpt lat="42.2217987" lon="14.2069056"><ele>323.1666666666667</ele><time>2026-05-01T09:38:09.092Z</time></trkpt><trkpt lat="42.2217277" lon="14.2069592"><ele>323.0</ele><time>2026-05-01T09:38:10.095Z</time></trkpt><trkpt lat="42.2216591" lon="14.2070115"><ele>323.0</ele><time>2026-05-01T09:38:11.09Z</time></trkpt><trkpt lat="42.2215941" lon="14.2070788"><ele>323.0</ele><time>2026-05-01T09:38:12.1Z</time></trkpt><trkpt lat="42.2215302" lon="14.207162"><ele>323.0</ele><time>2026-05-01T09:38:13.078Z</time></trkpt><trkpt lat="42.221459" lon="14.2072447"><ele>323.0</ele><time>2026-05-01T09:38:14.088Z</time></trkpt><trkpt lat="42.221389" lon="14.2073156"><ele>323.0</ele><time>2026-05-01T09:38:15.083Z</time></trkpt><trkpt lat="42.2213206" lon="14.2073858"><ele>323.0</ele><time>2026-05-01T09:38:16.103Z</time></trkpt><trkpt lat="42.2212506" lon="14.2074498"><ele>324.4</ele><time>2026-05-01T09:38:17.087Z</time></trkpt><trkpt lat="42.2211662" lon="14.2075215"><ele>325.79999999999995</ele><time>2026-05-01T09:38:18.084Z</time></trkpt><trkpt lat="42.2210766" lon="14.2076026"><ele>327.2</ele><time>2026-05-01T09:38:19.093Z</time></trkpt><trkpt lat="42.2209926" lon="14.2076744"><ele>328.6</ele><time>2026-05-01T09:38:20.094Z</time></trkpt><trkpt lat="42.2209262" lon="14.2077368"><ele>330.0</ele><time>2026-05-01T09:38:21.084Z</time></trkpt><trkpt lat="42.2208702" lon="14.2077785"><ele>330.0</ele><time>2026-05-01T09:38:22.103Z</time></trkpt><trkpt lat="42.2208127" lon="14.2078153"><ele>330.0</ele><time>2026-05-01T09:38:42.093Z</time></trkpt><trkpt lat="42.2207404" lon="14.2078434"><ele>330.0</ele><time>2026-05-01T09:38:51.095Z</time></trkpt><trkpt lat="42.220635" lon="14.2079193"><ele>330.0</ele><time>2026-05-01T09:38:53.088Z</time></trkpt><trkpt lat="42.2205242" lon="14.2080017"><ele>330.0</ele><time>2026-05-01T09:38:55.092Z</time></trkpt><trkpt lat="42.2204641" lon="14.2080509"><ele>330.5</ele><time>2026-05-01T09:38:56.089Z</time></trkpt><trkpt lat="42.2203972" lon="14.2081112"><ele>331.0</ele><time>2026-05-01T09:38:57.091Z</time></trkpt><trkpt lat="42.2203251" lon="14.2081743"><ele>331.5</ele><time>2026-05-01T09:38:58.1Z</time></trkpt><trkpt lat="42.2202521" lon="14.2082455"><ele>332.0</ele><time>2026-05-01T09:38:59.089Z</time></trkpt><trkpt lat="42.2201862" lon="14.208317"><ele>332.5</ele><time>2026-05-01T09:39:00.097Z</time></trkpt><trkpt lat="42.2201087" lon="14.2083936"><ele>333.0</ele><time>2026-05-01T09:39:01.084Z</time></trkpt><trkpt lat="42.2200213" lon="14.2084689"><ele>333.0</ele><time>2026-05-01T09:39:02.09Z</time></trkpt><trkpt lat="42.219924" lon="14.2085423"><ele>333.0</ele><time>2026-05-01T09:39:03.091Z</time></trkpt><trkpt lat="42.2198109" lon="14.2086156"><ele>333.0</ele><time>2026-05-01T09:39:04.086Z</time></trkpt><trkpt lat="42.2197018" lon="14.2086885"><ele>333.0</ele><time>2026-05-01T09:39:05.093Z</time></trkpt><trkpt lat="42.2195951" lon="14.2087518"><ele>335.0</ele><time>2026-05-01T09:39:06.092Z</time></trkpt><trkpt lat="42.2194873" lon="14.2088183"><ele>337.0</ele><time>2026-05-01T09:39:07.09Z</time></trkpt><trkpt lat="42.2193605" lon="14.2088754"><ele>339.0</ele><time>2026-05-01T09:39:08.087Z</time></trkpt><trkpt lat="42.2192301" lon="14.2089046"><ele>341.0</ele><time>2026-05-01T09:39:09.086Z</time></trkpt><trkpt lat="42.219116" lon="14.2089106"><ele>341.0</ele><time>2026-05-01T09:39:10.091Z</time></trkpt><trkpt lat="42.2190013" lon="14.2089028"><ele>341.0</ele><time>2026-05-01T09:39:11.092Z</time></trkpt><trkpt lat="42.2188897" lon="14.208875"><ele>341.0</ele><time>2026-05-01T09:39:12.091Z</time></trkpt><trkpt lat="42.218785" lon="14.2088246"><ele>341.0</ele><time>2026-05-01T09:39:13.091Z</time></trkpt><trkpt lat="42.218686" lon="14.2087546"><ele>339.8</ele><time>2026-05-01T09:39:14.092Z</time></trkpt><trkpt lat="42.2185872" lon="14.2086709"><ele>338.6</ele><time>2026-05-01T09:39:15.091Z</time></trkpt><trkpt lat="42.2184982" lon="14.2086093"><ele>337.4</ele><time>2026-05-01T09:39:16.104Z</time></trkpt><trkpt lat="42.2184058" lon="14.2085694"><ele>336.2</ele><time>2026-05-01T09:39:17.091Z</time></trkpt><trkpt lat="42.218294" lon="14.2085221"><ele>335.0</ele><time>2026-05-01T09:39:18.093Z</time></trkpt><trkpt lat="42.2181768" lon="14.2084549"><ele>335.5</ele><time>2026-05-01T09:39:19.09Z</time></trkpt><trkpt lat="42.2180555" lon="14.2083753"><ele>336.0</ele><time>2026-05-01T09:39:20.1Z</time></trkpt><trkpt lat="42.2179409" lon="14.2083172"><ele>336.5</ele><time>2026-05-01T09:39:21.102Z</time></trkpt><trkpt lat="42.2178316" lon="14.2082808"><ele>337.0</ele><time>2026-05-01T09:39:22.091Z</time></trkpt><trkpt lat="42.2177151" lon="14.2082508"><ele>337.0</ele><time>2026-05-01T09:39:23.087Z</time></trkpt><trkpt lat="42.2176051" lon="14.2082147"><ele>337.0</ele><time>2026-05-01T09:39:24.101Z</time></trkpt><trkpt lat="42.2174968" lon="14.2081726"><ele>337.0</ele><time>2026-05-01T09:39:25.092Z</time></trkpt><trkpt lat="42.2173975" lon="14.2081226"><ele>337.0</ele><time>2026-05-01T09:39:26.13Z</time></trkpt><trkpt lat="42.217302" lon="14.2080569"><ele>337.0</ele><time>2026-05-01T09:39:27.092Z</time></trkpt><trkpt lat="42.2172166" lon="14.2079643"><ele>339.25</ele><time>2026-05-01T09:39:28.095Z</time></trkpt><trkpt lat="42.217127" lon="14.2078482"><ele>341.5</ele><time>2026-05-01T09:39:29.091Z</time></trkpt><trkpt lat="42.2170255" lon="14.2077222"><ele>343.75</ele><time>2026-05-01T09:39:30.1Z</time></trkpt><trkpt lat="42.216927" lon="14.2076026"><ele>346.0</ele><time>2026-05-01T09:39:31.09Z</time></trkpt><trkpt lat="42.2168255" lon="14.2075096"><ele>346.0</ele><time>2026-05-01T09:39:32.098Z</time></trkpt><trkpt lat="42.2167047" lon="14.2074162"><ele>346.0</ele><time>2026-05-01T09:39:33.094Z</time></trkpt><trkpt lat="42.2165795" lon="14.2073249"><ele>346.0</ele><time>2026-05-01T09:39:34.094Z</time></trkpt><trkpt lat="42.2164407" lon="14.2072292"><ele>346.0</ele><time>2026-05-01T09:39:35.093Z</time></trkpt><trkpt lat="42.2162991" lon="14.2071468"><ele>347.25</ele><time>2026-05-01T09:39:36.101Z</time></trkpt><trkpt lat="42.2161591" lon="14.2070721"><ele>348.5</ele><time>2026-05-01T09:39:37.093Z</time></trkpt><trkpt lat="42.2160206" lon="14.2070142"><ele>349.75</ele><time>2026-05-01T09:39:38.115Z</time></trkpt><trkpt lat="42.2158823" lon="14.2069585"><ele>351.0</ele><time>2026-05-01T09:39:39.087Z</time></trkpt><trkpt lat="42.2157447" lon="14.2069156"><ele>352.0</ele><time>2026-05-01T09:39:40.09Z</time></trkpt><trkpt lat="42.2156163" lon="14.2068805"><ele>353.0</ele><time>2026-05-01T09:39:41.083Z</time></trkpt><trkpt lat="42.2154832" lon="14.2068382"><ele>354.0</ele><time>2026-05-01T09:39:42.097Z</time></trkpt><trkpt lat="42.2153541" lon="14.2067989"><ele>355.0</ele><time>2026-05-01T09:39:43.088Z</time></trkpt><trkpt lat="42.2152324" lon="14.206762"><ele>355.0</ele><time>2026-05-01T09:39:44.114Z</time></trkpt><trkpt lat="42.2151143" lon="14.2067365"><ele>355.0</ele><time>2026-05-01T09:39:45.092Z</time></trkpt><trkpt lat="42.214994" lon="14.2067001"><ele>355.0</ele><time>2026-05-01T09:39:46.084Z</time></trkpt><trkpt lat="42.2148706" lon="14.2066607"><ele>355.0</ele><time>2026-05-01T09:39:47.095Z</time></trkpt><trkpt lat="42.2147476" lon="14.2066384"><ele>356.25</ele><time>2026-05-01T09:39:48.087Z</time></trkpt><trkpt lat="42.2146266" lon="14.2066169"><ele>357.5</ele><time>2026-05-01T09:39:49.088Z</time></trkpt><trkpt lat="42.2145136" lon="14.2065907"><ele>358.75</ele><time>2026-05-01T09:39:50.087Z</time></trkpt><trkpt lat="42.214408" lon="14.2065577"><ele>360.0</ele><time>2026-05-01T09:39:51.096Z</time></trkpt><trkpt lat="42.2143" lon="14.2065228"><ele>361.25</ele><time>2026-05-01T09:39:52.098Z</time></trkpt><trkpt lat="42.2141931" lon="14.2064915"><ele>362.5</ele><time>2026-05-01T09:39:53.091Z</time></trkpt><trkpt lat="42.2140694" lon="14.2064646"><ele>363.75</ele><time>2026-05-01T09:39:54.101Z</time></trkpt><trkpt lat="42.213941" lon="14.2064327"><ele>365.0</ele><time>2026-05-01T09:39:55.085Z</time></trkpt><trkpt lat="42.2138079" lon="14.206394"><ele>366.0</ele><time>2026-05-01T09:39:56.09Z</time></trkpt><trkpt lat="42.2136648" lon="14.2063475"><ele>367.0</ele><time>2026-05-01T09:39:57.093Z</time></trkpt><trkpt lat="42.2135057" lon="14.2062972"><ele>368.0</ele><time>2026-05-01T09:39:58.096Z</time></trkpt><trkpt lat="42.2133343" lon="14.2062361"><ele>368.0</ele><time>2026-05-01T09:39:59.093Z</time></trkpt><trkpt lat="42.2131678" lon="14.2061756"><ele>368.0</ele><time>2026-05-01T09:40:00.13Z</time></trkpt><trkpt lat="42.2130213" lon="14.2061263"><ele>368.0</ele><time>2026-05-01T09:40:01.091Z</time></trkpt><trkpt lat="42.2128934" lon="14.206082"><ele>368.79999999999995</ele><time>2026-05-01T09:40:02.098Z</time></trkpt><trkpt lat="42.2127865" lon="14.2060547"><ele>369.6</ele><time>2026-05-01T09:40:03.089Z</time></trkpt><trkpt lat="42.2127064" lon="14.2060364"><ele>370.4</ele><time>2026-05-01T09:40:04.086Z</time></trkpt><trkpt lat="42.212598" lon="14.205992"><ele>371.20000000000005</ele><time>2026-05-01T09:40:06.093Z</time></trkpt><trkpt lat="42.2125261" lon="14.2059597"><ele>372.0</ele><time>2026-05-01T09:40:08.102Z</time></trkpt><trkpt lat="42.212387" lon="14.2059438"><ele>373.0</ele><time>2026-05-01T09:40:10.094Z</time></trkpt><trkpt lat="42.2122762" lon="14.2059218"><ele>374.0</ele><time>2026-05-01T09:40:11.097Z</time></trkpt><trkpt lat="42.2121543" lon="14.2058953"><ele>375.0</ele><time>2026-05-01T09:40:12.101Z</time></trkpt><trkpt lat="42.2120253" lon="14.2058694"><ele>376.0</ele><time>2026-05-01T09:40:13.093Z</time></trkpt><trkpt lat="42.2118857" lon="14.2058423"><ele>376.0</ele><time>2026-05-01T09:40:14.102Z</time></trkpt><trkpt lat="42.2117372" lon="14.2058027"><ele>376.0</ele><time>2026-05-01T09:40:15.091Z</time></trkpt><trkpt lat="42.2115815" lon="14.2057585"><ele>376.0</ele><time>2026-05-01T09:40:16.09Z</time></trkpt><trkpt lat="42.2114293" lon="14.2057165"><ele>377.0</ele><time>2026-05-01T09:40:17.098Z</time></trkpt><trkpt lat="42.2112992" lon="14.2056715"><ele>378.0</ele><time>2026-05-01T09:40:18.096Z</time></trkpt><trkpt lat="42.211184" lon="14.205627"><ele>379.0</ele><time>2026-05-01T09:40:19.095Z</time></trkpt><trkpt lat="42.2110774" lon="14.2055878"><ele>380.0</ele><time>2026-05-01T09:40:20.093Z</time></trkpt><trkpt lat="42.2109778" lon="14.2055489"><ele>381.75</ele><time>2026-05-01T09:40:21.088Z</time></trkpt><trkpt lat="42.2108742" lon="14.2055235"><ele>383.5</ele><time>2026-05-01T09:40:22.1Z</time></trkpt><trkpt lat="42.2107662" lon="14.2055032"><ele>385.25</ele><time>2026-05-01T09:40:23.099Z</time></trkpt><trkpt lat="42.2106467" lon="14.205477"><ele>387.0</ele><time>2026-05-01T09:40:24.099Z</time></trkpt><trkpt lat="42.2105217" lon="14.2054396"><ele>387.20000000000005</ele><time>2026-05-01T09:40:25.085Z</time></trkpt><trkpt lat="42.2104113" lon="14.2054138"><ele>387.4</ele><time>2026-05-01T09:40:26.087Z</time></trkpt><trkpt lat="42.2103101" lon="14.205394"><ele>387.6</ele><time>2026-05-01T09:40:27.102Z</time></trkpt><trkpt lat="42.2101988" lon="14.2053773"><ele>387.79999999999995</ele><time>2026-05-01T09:40:28.092Z</time></trkpt><trkpt lat="42.2100878" lon="14.2053396"><ele>388.0</ele><time>2026-05-01T09:40:29.096Z</time></trkpt><trkpt lat="42.2099928" lon="14.2053087"><ele>388.00000000000006</ele><time>2026-05-01T09:40:30.099Z</time></trkpt><trkpt lat="42.2099239" lon="14.2052829"><ele>388.0</ele><time>2026-05-01T09:40:31.086Z</time></trkpt><trkpt lat="42.2098008" lon="14.2052457"><ele>388.0</ele><time>2026-05-01T09:40:33.098Z</time></trkpt><trkpt lat="42.2097275" lon="14.2052229"><ele>388.0</ele><time>2026-05-01T09:40:34.092Z</time></trkpt><trkpt lat="42.2096463" lon="14.2052027"><ele>388.00000000000006</ele><time>2026-05-01T09:40:35.089Z</time></trkpt><trkpt lat="42.2095638" lon="14.2051809"><ele>388.0</ele><time>2026-05-01T09:40:36.091Z</time></trkpt><trkpt lat="42.2094829" lon="14.2051533"><ele>388.50000000000006</ele><time>2026-05-01T09:40:37.094Z</time></trkpt><trkpt lat="42.2093978" lon="14.2051256"><ele>389.0</ele><time>2026-05-01T09:40:38.109Z</time></trkpt><trkpt lat="42.2093165" lon="14.205091"><ele>389.5</ele><time>2026-05-01T09:40:39.096Z</time></trkpt><trkpt lat="42.2092277" lon="14.2050538"><ele>390.0</ele><time>2026-05-01T09:40:40.098Z</time></trkpt><trkpt lat="42.2091438" lon="14.2050197"><ele>390.50000000000006</ele><time>2026-05-01T09:40:41.083Z</time></trkpt><trkpt lat="42.2090706" lon="14.2049865"><ele>391.0</ele><time>2026-05-01T09:40:42.095Z</time></trkpt><trkpt lat="42.2089966" lon="14.2049516"><ele>390.99999999999994</ele><time>2026-05-01T09:40:43.087Z</time></trkpt><trkpt lat="42.2089244" lon="14.2049224"><ele>391.0</ele><time>2026-05-01T09:40:44.092Z</time></trkpt><trkpt lat="42.2088555" lon="14.204894"><ele>391.0</ele><time>2026-05-01T09:40:45.092Z</time></trkpt><trkpt lat="42.208794" lon="14.2048679"><ele>391.0</ele><time>2026-05-01T09:40:46.102Z</time></trkpt><trkpt lat="42.2087345" lon="14.2048396"><ele>391.0</ele><time>2026-05-01T09:40:47.086Z</time></trkpt><trkpt lat="42.2086697" lon="14.2048005"><ele>390.99999999999994</ele><time>2026-05-01T09:40:48.089Z</time></trkpt><trkpt lat="42.2086033" lon="14.2047601"><ele>391.0</ele><time>2026-05-01T09:40:49.091Z</time></trkpt><trkpt lat="42.2085423" lon="14.2047188"><ele>393.00000000000006</ele><time>2026-05-01T09:40:50.103Z</time></trkpt><trkpt lat="42.2084783" lon="14.2046855"><ele>395.0</ele><time>2026-05-01T09:40:51.101Z</time></trkpt><trkpt lat="42.2084167" lon="14.2046539"><ele>397.0</ele><time>2026-05-01T09:40:52.096Z</time></trkpt><trkpt lat="42.208343" lon="14.2046176"><ele>399.0</ele><time>2026-05-01T09:40:53.087Z</time></trkpt><trkpt lat="42.2082679" lon="14.2045833"><ele>401.00000000000006</ele><time>2026-05-01T09:40:54.115Z</time></trkpt><trkpt lat="42.2081896" lon="14.2045357"><ele>403.0</ele><time>2026-05-01T09:40:55.09Z</time></trkpt><trkpt lat="42.2081" lon="14.2044759"><ele>403.00000000000006</ele><time>2026-05-01T09:40:56.093Z</time></trkpt><trkpt lat="42.2080236" lon="14.204422"><ele>403.0</ele><time>2026-05-01T09:40:57.094Z</time></trkpt><trkpt lat="42.2079557" lon="14.2043771"><ele>403.0</ele><time>2026-05-01T09:40:58.091Z</time></trkpt><trkpt lat="42.2078977" lon="14.2043278"><ele>403.0</ele><time>2026-05-01T09:40:59.086Z</time></trkpt><trkpt lat="42.2078277" lon="14.2042657"><ele>403.00000000000006</ele><time>2026-05-01T09:41:01.089Z</time></trkpt><trkpt lat="42.2077724" lon="14.2042186"><ele>403.0</ele><time>2026-05-01T09:41:03.091Z</time></trkpt><trkpt lat="42.2076879" lon="14.2041598"><ele>403.0</ele><time>2026-05-01T09:41:06.1Z</time></trkpt><trkpt lat="42.20761" lon="14.2040946"><ele>403.0</ele><time>2026-05-01T09:41:07.08Z</time></trkpt><trkpt lat="42.207522" lon="14.2040321"><ele>403.0</ele><time>2026-05-01T09:41:08.084Z</time></trkpt><trkpt lat="42.2074243" lon="14.2039524"><ele>403.0</ele><time>2026-05-01T09:41:09.084Z</time></trkpt><trkpt lat="42.2073165" lon="14.2038719"><ele>403.0</ele><time>2026-05-01T09:41:10.086Z</time></trkpt><trkpt lat="42.2072099" lon="14.2037839"><ele>404.4</ele><time>2026-05-01T09:41:11.093Z</time></trkpt><trkpt lat="42.20711" lon="14.2037036"><ele>405.79999999999995</ele><time>2026-05-01T09:41:12.09Z</time></trkpt><trkpt lat="42.2070103" lon="14.2036399"><ele>407.2</ele><time>2026-05-01T09:41:13.093Z</time></trkpt><trkpt lat="42.206915" lon="14.2035747"><ele>408.6</ele><time>2026-05-01T09:41:14.092Z</time></trkpt><trkpt lat="42.2068327" lon="14.203518"><ele>410.0</ele><time>2026-05-01T09:41:15.095Z</time></trkpt><trkpt lat="42.2067473" lon="14.2034541"><ele>410.0</ele><time>2026-05-01T09:41:16.093Z</time></trkpt><trkpt lat="42.206664" lon="14.2034"><ele>410.0</ele><time>2026-05-01T09:41:17.097Z</time></trkpt><trkpt lat="42.2065708" lon="14.2033471"><ele>410.0</ele><time>2026-05-01T09:41:18.084Z</time></trkpt><trkpt lat="42.2064819" lon="14.203294"><ele>410.0</ele><time>2026-05-01T09:41:19.092Z</time></trkpt><trkpt lat="42.2063966" lon="14.2032367"><ele>410.0</ele><time>2026-05-01T09:41:20.094Z</time></trkpt><trkpt lat="42.2063061" lon="14.2031735"><ele>411.8</ele><time>2026-05-01T09:41:21.094Z</time></trkpt><trkpt lat="42.2062096" lon="14.2030986"><ele>413.6</ele><time>2026-05-01T09:41:22.096Z</time></trkpt><trkpt lat="42.2061181" lon="14.2030274"><ele>415.4</ele><time>2026-05-01T09:41:23.085Z</time></trkpt><trkpt lat="42.2060377" lon="14.2029628"><ele>417.2</ele><time>2026-05-01T09:41:24.088Z</time></trkpt><trkpt lat="42.2059603" lon="14.2029201"><ele>419.0</ele><time>2026-05-01T09:41:25.094Z</time></trkpt><trkpt lat="42.2058633" lon="14.2028738"><ele>419.0</ele><time>2026-05-01T09:41:26.086Z</time></trkpt><trkpt lat="42.2057498" lon="14.2028156"><ele>419.0</ele><time>2026-05-01T09:41:27.101Z</time></trkpt><trkpt lat="42.2056238" lon="14.2027353"><ele>419.0</ele><time>2026-05-01T09:41:28.089Z</time></trkpt><trkpt lat="42.20551" lon="14.2026551"><ele>419.0</ele><time>2026-05-01T09:41:29.087Z</time></trkpt><trkpt lat="42.205406" lon="14.2025862"><ele>418.5</ele><time>2026-05-01T09:41:30.09Z</time></trkpt><trkpt lat="42.2052967" lon="14.2025137"><ele>418.0</ele><time>2026-05-01T09:41:31.098Z</time></trkpt><trkpt lat="42.2051808" lon="14.2024494"><ele>417.5</ele><time>2026-05-01T09:41:32.087Z</time></trkpt><trkpt lat="42.2050657" lon="14.2023873"><ele>417.0</ele><time>2026-05-01T09:41:33.097Z</time></trkpt><trkpt lat="42.2049656" lon="14.2023313"><ele>419.40000000000003</ele><time>2026-05-01T09:41:34.092Z</time></trkpt><trkpt lat="42.2048712" lon="14.2022811"><ele>421.8</ele><time>2026-05-01T09:41:35.091Z</time></trkpt><trkpt lat="42.2047744" lon="14.2022257"><ele>424.2</ele><time>2026-05-01T09:41:36.093Z</time></trkpt><trkpt lat="42.2046796" lon="14.202168"><ele>426.6</ele><time>2026-05-01T09:41:37.083Z</time></trkpt><trkpt lat="42.2045958" lon="14.2021154"><ele>429.0</ele><time>2026-05-01T09:41:38.094Z</time></trkpt><trkpt lat="42.2045131" lon="14.2020615"><ele>429.0</ele><time>2026-05-01T09:41:39.082Z</time></trkpt><trkpt lat="42.2044289" lon="14.2020103"><ele>429.0</ele><time>2026-05-01T09:41:40.087Z</time></trkpt><trkpt lat="42.2043468" lon="14.2019553"><ele>429.0</ele><time>2026-05-01T09:41:41.084Z</time></trkpt><trkpt lat="42.2042778" lon="14.2019076"><ele>429.0</ele><time>2026-05-01T09:41:42.087Z</time></trkpt><trkpt lat="42.204214" lon="14.2018654"><ele>429.0</ele><time>2026-05-01T09:41:43.108Z</time></trkpt><trkpt lat="42.2041513" lon="14.2018152"><ele>429.0</ele><time>2026-05-01T09:41:44.097Z</time></trkpt><trkpt lat="42.2040784" lon="14.2017756"><ele>429.0</ele><time>2026-05-01T09:41:45.087Z</time></trkpt><trkpt lat="42.2039989" lon="14.2017297"><ele>429.0</ele><time>2026-05-01T09:41:46.089Z</time></trkpt><trkpt lat="42.2039125" lon="14.2016905"><ele>429.0</ele><time>2026-05-01T09:41:47.094Z</time></trkpt><trkpt lat="42.2038277" lon="14.2016605"><ele>429.0</ele><time>2026-05-01T09:41:48.091Z</time></trkpt><trkpt lat="42.2037372" lon="14.2016264"><ele>429.0</ele><time>2026-05-01T09:41:49.092Z</time></trkpt><trkpt lat="42.2036383" lon="14.2015915"><ele>427.79999999999995</ele><time>2026-05-01T09:41:50.087Z</time></trkpt><trkpt lat="42.2035391" lon="14.2015623"><ele>426.59999999999997</ele><time>2026-05-01T09:41:51.094Z</time></trkpt><trkpt lat="42.2034436" lon="14.2015394"><ele>425.4</ele><time>2026-05-01T09:41:52.093Z</time></trkpt><trkpt lat="42.2033529" lon="14.2015264"><ele>424.2</ele><time>2026-05-01T09:41:53.097Z</time></trkpt><trkpt lat="42.2032703" lon="14.2015138"><ele>423.0</ele><time>2026-05-01T09:41:54.089Z</time></trkpt><trkpt lat="42.2031859" lon="14.2014938"><ele>423.5</ele><time>2026-05-01T09:41:55.092Z</time></trkpt><trkpt lat="42.2031087" lon="14.2014664"><ele>424.0</ele><time>2026-05-01T09:41:56.092Z</time></trkpt><trkpt lat="42.2030377" lon="14.2014289"><ele>424.5</ele><time>2026-05-01T09:41:57.101Z</time></trkpt><trkpt lat="42.2029606" lon="14.2013852"><ele>425.0</ele><time>2026-05-01T09:41:58.091Z</time></trkpt><trkpt lat="42.2028841" lon="14.2013422"><ele>425.5</ele><time>2026-05-01T09:41:59.095Z</time></trkpt><trkpt lat="42.2028152" lon="14.2013078"><ele>426.0</ele><time>2026-05-01T09:42:00.098Z</time></trkpt><trkpt lat="42.2027502" lon="14.2012765"><ele>426.0</ele><time>2026-05-01T09:42:01.098Z</time></trkpt><trkpt lat="42.2026233" lon="14.2012388"><ele>426.0</ele><time>2026-05-01T09:42:03.089Z</time></trkpt><trkpt lat="42.2025464" lon="14.2012093"><ele>426.0</ele><time>2026-05-01T09:42:04.1Z</time></trkpt><trkpt lat="42.2024591" lon="14.2011916"><ele>426.0</ele><time>2026-05-01T09:42:05.09Z</time></trkpt><trkpt lat="42.2023762" lon="14.201173"><ele>426.0</ele><time>2026-05-01T09:42:06.133Z</time></trkpt><trkpt lat="42.2023042" lon="14.2011601"><ele>427.0</ele><time>2026-05-01T09:42:07.086Z</time></trkpt><trkpt lat="42.2022396" lon="14.2011539"><ele>428.0</ele><time>2026-05-01T09:42:08.106Z</time></trkpt><trkpt lat="42.2021423" lon="14.2011208"><ele>429.0</ele><time>2026-05-01T09:42:10.095Z</time></trkpt><trkpt lat="42.2020675" lon="14.2010445"><ele>430.0</ele><time>2026-05-01T09:42:12.094Z</time></trkpt><trkpt lat="42.2019797" lon="14.2009751"><ele>431.0</ele><time>2026-05-01T09:42:14.09Z</time></trkpt><trkpt lat="42.2018777" lon="14.2009171"><ele>431.0</ele><time>2026-05-01T09:42:16.106Z</time></trkpt><trkpt lat="42.2017842" lon="14.2008752"><ele>431.0</ele><time>2026-05-01T09:42:18.093Z</time></trkpt><trkpt lat="42.2016932" lon="14.2008514"><ele>431.0</ele><time>2026-05-01T09:42:20.089Z</time></trkpt><trkpt lat="42.2015901" lon="14.2008334"><ele>431.0</ele><time>2026-05-01T09:42:22.085Z</time></trkpt><trkpt lat="42.2014784" lon="14.200817"><ele>431.0</ele><time>2026-05-01T09:42:24.089Z</time></trkpt><trkpt lat="42.2014132" lon="14.2008013"><ele>432.3333333333333</ele><time>2026-05-01T09:42:25.104Z</time></trkpt><trkpt lat="42.2013489" lon="14.2007778"><ele>433.66666666666663</ele><time>2026-05-01T09:42:26.085Z</time></trkpt><trkpt lat="42.2012816" lon="14.2007479"><ele>435.0</ele><time>2026-05-01T09:42:27.094Z</time></trkpt><trkpt lat="42.2012186" lon="14.2007152"><ele>436.33333333333337</ele><time>2026-05-01T09:42:28.093Z</time></trkpt><trkpt lat="42.2011551" lon="14.2006834"><ele>437.6666666666667</ele><time>2026-05-01T09:42:29.091Z</time></trkpt><trkpt lat="42.2010358" lon="14.2006385"><ele>439.0</ele><time>2026-05-01T09:42:31.102Z</time></trkpt><trkpt lat="42.2009698" lon="14.2006146"><ele>439.83333333333337</ele><time>2026-05-01T09:42:32.103Z</time></trkpt><trkpt lat="42.2008868" lon="14.2005891"><ele>440.6666666666667</ele><time>2026-05-01T09:42:33.091Z</time></trkpt><trkpt lat="42.2008154" lon="14.2005544"><ele>441.5</ele><time>2026-05-01T09:42:34.086Z</time></trkpt><trkpt lat="42.2007493" lon="14.2005153"><ele>442.33333333333337</ele><time>2026-05-01T09:42:35.086Z</time></trkpt><trkpt lat="42.2006427" lon="14.2004437"><ele>443.1666666666667</ele><time>2026-05-01T09:42:37.085Z</time></trkpt><trkpt lat="42.2005776" lon="14.200422"><ele>444.0</ele><time>2026-05-01T09:42:38.09Z</time></trkpt><trkpt lat="42.2005121" lon="14.2004075"><ele>445.1428571428571</ele><time>2026-05-01T09:42:39.085Z</time></trkpt><trkpt lat="42.200447" lon="14.2003974"><ele>446.28571428571433</ele><time>2026-05-01T09:42:40.092Z</time></trkpt><trkpt lat="42.2003798" lon="14.2004066"><ele>447.42857142857144</ele><time>2026-05-01T09:42:41.085Z</time></trkpt><trkpt lat="42.2003147" lon="14.2004229"><ele>448.57142857142856</ele><time>2026-05-01T09:42:42.09Z</time></trkpt><trkpt lat="42.2002418" lon="14.2004257"><ele>449.71428571428567</ele><time>2026-05-01T09:42:43.099Z</time></trkpt><trkpt lat="42.2001677" lon="14.2003966"><ele>450.8571428571429</ele><time>2026-05-01T09:42:44.089Z</time></trkpt><trkpt lat="42.2000936" lon="14.2003566"><ele>452.0</ele><time>2026-05-01T09:42:45.103Z</time></trkpt><trkpt lat="42.2000251" lon="14.2003157"><ele>451.99999999999994</ele><time>2026-05-01T09:42:46.092Z</time></trkpt><trkpt lat="42.1999566" lon="14.2002449"><ele>452.0</ele><time>2026-05-01T09:42:47.095Z</time></trkpt><trkpt lat="42.1998877" lon="14.2001863"><ele>452.0</ele><time>2026-05-01T09:42:48.097Z</time></trkpt><trkpt lat="42.1998124" lon="14.2001489"><ele>452.0</ele><time>2026-05-01T09:42:49.095Z</time></trkpt><trkpt lat="42.1997412" lon="14.2001174"><ele>451.99999999999994</ele><time>2026-05-01T09:42:50.087Z</time></trkpt><trkpt lat="42.1996688" lon="14.2000899"><ele>452.0</ele><time>2026-05-01T09:42:51.095Z</time></trkpt><trkpt lat="42.1996025" lon="14.2000428"><ele>453.3333333333333</ele><time>2026-05-01T09:42:52.102Z</time></trkpt><trkpt lat="42.1995367" lon="14.1999811"><ele>454.66666666666663</ele><time>2026-05-01T09:42:53.1Z</time></trkpt><trkpt lat="42.199473" lon="14.1999335"><ele>456.0</ele><time>2026-05-01T09:42:54.095Z</time></trkpt><trkpt lat="42.1993973" lon="14.1999144"><ele>457.33333333333337</ele><time>2026-05-01T09:42:55.094Z</time></trkpt><trkpt lat="42.1993067" lon="14.1999207"><ele>458.6666666666667</ele><time>2026-05-01T09:42:56.083Z</time></trkpt><trkpt lat="42.1992174" lon="14.1999207"><ele>460.0</ele><time>2026-05-01T09:42:57.087Z</time></trkpt><trkpt lat="42.1991254" lon="14.1999167"><ele>460.00000000000006</ele><time>2026-05-01T09:42:58.118Z</time></trkpt><trkpt lat="42.1990283" lon="14.1999097"><ele>460.0</ele><time>2026-05-01T09:42:59.086Z</time></trkpt><trkpt lat="42.198934" lon="14.1999135"><ele>460.0</ele><time>2026-05-01T09:43:00.097Z</time></trkpt><trkpt lat="42.1988439" lon="14.1999221"><ele>460.0</ele><time>2026-05-01T09:43:01.097Z</time></trkpt><trkpt lat="42.1987746" lon="14.1999294"><ele>460.00000000000006</ele><time>2026-05-01T09:43:02.104Z</time></trkpt><trkpt lat="42.1987078" lon="14.1999287"><ele>460.0</ele><time>2026-05-01T09:43:03.088Z</time></trkpt><trkpt lat="42.1986304" lon="14.1999315"><ele>461.33333333333337</ele><time>2026-05-01T09:43:04.1Z</time></trkpt><trkpt lat="42.198536" lon="14.1999452"><ele>462.6666666666667</ele><time>2026-05-01T09:43:05.107Z</time></trkpt><trkpt lat="42.1984488" lon="14.1999632"><ele>464.0</ele><time>2026-05-01T09:43:06.105Z</time></trkpt><trkpt lat="42.1983562" lon="14.199983"><ele>465.33333333333337</ele><time>2026-05-01T09:43:08.094Z</time></trkpt><trkpt lat="42.1982948" lon="14.2000107"><ele>466.6666666666667</ele><time>2026-05-01T09:44:08.085Z</time></trkpt><trkpt lat="42.1982201" lon="14.2000398"><ele>468.0</ele><time>2026-05-01T09:44:09.083Z</time></trkpt><trkpt lat="42.1981253" lon="14.200048"><ele>468.8333333333333</ele><time>2026-05-01T09:44:10.112Z</time></trkpt><trkpt lat="42.1980471" lon="14.2000377"><ele>469.66666666666663</ele><time>2026-05-01T09:44:11.096Z</time></trkpt><trkpt lat="42.1979671" lon="14.2000267"><ele>470.5</ele><time>2026-05-01T09:44:12.101Z</time></trkpt><trkpt lat="42.1978987" lon="14.2000101"><ele>471.3333333333333</ele><time>2026-05-01T09:44:13.098Z</time></trkpt><trkpt lat="42.1978259" lon="14.199994"><ele>472.16666666666663</ele><time>2026-05-01T09:44:14.102Z</time></trkpt><trkpt lat="42.1977508" lon="14.1999927"><ele>473.0</ele><time>2026-05-01T09:44:15.094Z</time></trkpt><trkpt lat="42.1976705" lon="14.1999932"><ele>472.99999999999994</ele><time>2026-05-01T09:44:16.103Z</time></trkpt><trkpt lat="42.1975926" lon="14.2000019"><ele>473.0</ele><time>2026-05-01T09:44:17.099Z</time></trkpt><trkpt lat="42.1975294" lon="14.2000153"><ele>473.0</ele><time>2026-05-01T09:44:18.096Z</time></trkpt><trkpt lat="42.1974642" lon="14.2000205"><ele>473.0</ele><time>2026-05-01T09:44:20.101Z</time></trkpt><trkpt lat="42.197444" lon="14.199924"><ele>472.99999999999994</ele><time>2026-05-01T09:44:22.094Z</time></trkpt><trkpt lat="42.1974077" lon="14.1998195"><ele>473.0</ele><time>2026-05-01T09:44:24.094Z</time></trkpt><trkpt lat="42.1973939" lon="14.1996869"><ele>474.2</ele><time>2026-05-01T09:44:26.101Z</time></trkpt><trkpt lat="42.1974277" lon="14.1995061"><ele>475.4</ele><time>2026-05-01T09:44:28.096Z</time></trkpt><trkpt lat="42.1974531" lon="14.1993926"><ele>476.59999999999997</ele><time>2026-05-01T09:44:29.091Z</time></trkpt><trkpt lat="42.1974807" lon="14.1992753"><ele>477.79999999999995</ele><time>2026-05-01T09:44:30.098Z</time></trkpt><trkpt lat="42.1974932" lon="14.1991872"><ele>479.0</ele><time>2026-05-01T09:44:31.093Z</time></trkpt><trkpt lat="42.1974787" lon="14.1990446"><ele>479.3333333333333</ele><time>2026-05-01T09:44:33.086Z</time></trkpt><trkpt lat="42.1974221" lon="14.198976"><ele>479.66666666666663</ele><time>2026-05-01T09:44:34.092Z</time></trkpt><trkpt lat="42.1973703" lon="14.198906"><ele>480.0</ele><time>2026-05-01T09:44:35.09Z</time></trkpt><trkpt lat="42.1973176" lon="14.1988247"><ele>480.33333333333337</ele><time>2026-05-01T09:44:36.095Z</time></trkpt><trkpt lat="42.1972543" lon="14.1987341"><ele>480.6666666666667</ele><time>2026-05-01T09:44:37.084Z</time></trkpt><trkpt lat="42.1971903" lon="14.1986549"><ele>481.0</ele><time>2026-05-01T09:44:38.086Z</time></trkpt><trkpt lat="42.1971409" lon="14.198541"><ele>481.0</ele><time>2026-05-01T09:44:40.082Z</time></trkpt><trkpt lat="42.1971951" lon="14.1984389"><ele>481.0</ele><time>2026-05-01T09:44:42.099Z</time></trkpt><trkpt lat="42.1972836" lon="14.1984478"><ele>481.0</ele><time>2026-05-01T09:44:44.091Z</time></trkpt><trkpt lat="42.1973984" lon="14.1983758"><ele>481.0</ele><time>2026-05-01T09:44:46.091Z</time></trkpt><trkpt lat="42.197439" lon="14.1983075"><ele>481.0</ele><time>2026-05-01T09:44:47.09Z</time></trkpt><trkpt lat="42.1974926" lon="14.1982256"><ele>481.33333333333337</ele><time>2026-05-01T09:44:48.086Z</time></trkpt><trkpt lat="42.1975443" lon="14.1981399"><ele>481.6666666666667</ele><time>2026-05-01T09:44:49.093Z</time></trkpt><trkpt lat="42.1975981" lon="14.1980507"><ele>482.0</ele><time>2026-05-01T09:44:50.1Z</time></trkpt><trkpt lat="42.19765" lon="14.1979652"><ele>482.33333333333337</ele><time>2026-05-01T09:44:51.093Z</time></trkpt><trkpt lat="42.1976881" lon="14.1978801"><ele>482.6666666666667</ele><time>2026-05-01T09:44:52.116Z</time></trkpt><trkpt lat="42.1977405" lon="14.1977802"><ele>483.0</ele><time>2026-05-01T09:44:54.082Z</time></trkpt><trkpt lat="42.1977078" lon="14.1976751"><ele>483.0</ele><time>2026-05-01T09:44:57.08Z</time></trkpt><trkpt lat="42.1976162" lon="14.1975755"><ele>483.0</ele><time>2026-05-01T09:44:59.076Z</time></trkpt><trkpt lat="42.1975713" lon="14.1975029"><ele>483.0</ele><time>2026-05-01T09:45:00.084Z</time></trkpt><trkpt lat="42.1975195" lon="14.1974231"><ele>483.0</ele><time>2026-05-01T09:45:01.097Z</time></trkpt><trkpt lat="42.1974589" lon="14.1973701"><ele>483.0</ele><time>2026-05-01T09:45:02.094Z</time></trkpt><trkpt lat="42.1973641" lon="14.1973194"><ele>483.0</ele><time>2026-05-01T09:45:03.096Z</time></trkpt><trkpt lat="42.197277" lon="14.1972361"><ele>485.0</ele><time>2026-05-01T09:45:04.101Z</time></trkpt><trkpt lat="42.1972036" lon="14.1971563"><ele>486.99999999999994</ele><time>2026-05-01T09:45:05.086Z</time></trkpt><trkpt lat="42.1971348" lon="14.1970872"><ele>488.99999999999994</ele><time>2026-05-01T09:45:06.092Z</time></trkpt><trkpt lat="42.1970582" lon="14.197043"><ele>491.0</ele><time>2026-05-01T09:45:07.097Z</time></trkpt><trkpt lat="42.1969923" lon="14.196997"><ele>493.0</ele><time>2026-05-01T09:45:08.097Z</time></trkpt><trkpt lat="42.1969653" lon="14.1968121"><ele>493.00000000000006</ele><time>2026-05-01T09:45:10.107Z</time></trkpt><trkpt lat="42.1969602" lon="14.1966975"><ele>493.0</ele><time>2026-05-01T09:45:11.09Z</time></trkpt><trkpt lat="42.1969285" lon="14.1965981"><ele>493.0</ele><time>2026-05-01T09:45:12.093Z</time></trkpt><trkpt lat="42.1968667" lon="14.1965045"><ele>493.0</ele><time>2026-05-01T09:45:13.086Z</time></trkpt><trkpt lat="42.1967931" lon="14.1964108"><ele>493.00000000000006</ele><time>2026-05-01T09:45:14.094Z</time></trkpt><trkpt lat="42.1967357" lon="14.19632"><ele>493.0</ele><time>2026-05-01T09:45:15.091Z</time></trkpt><trkpt lat="42.1966989" lon="14.1962218"><ele>493.4</ele><time>2026-05-01T09:45:16.096Z</time></trkpt><trkpt lat="42.1966848" lon="14.1961189"><ele>493.79999999999995</ele><time>2026-05-01T09:45:17.081Z</time></trkpt><trkpt lat="42.1966682" lon="14.1960344"><ele>494.2</ele><time>2026-05-01T09:45:18.089Z</time></trkpt><trkpt lat="42.1965507" lon="14.1958845"><ele>494.6</ele><time>2026-05-01T09:45:20.104Z</time></trkpt><trkpt lat="42.1964584" lon="14.19577"><ele>495.0</ele><time>2026-05-01T09:45:21.1Z</time></trkpt><trkpt lat="42.1963793" lon="14.1956588"><ele>496.0</ele><time>2026-05-01T09:45:22.089Z</time></trkpt><trkpt lat="42.1963059" lon="14.1955624"><ele>497.0</ele><time>2026-05-01T09:45:23.091Z</time></trkpt><trkpt lat="42.1962404" lon="14.1954731"><ele>498.0</ele><time>2026-05-01T09:45:24.097Z</time></trkpt><trkpt lat="42.1961775" lon="14.1953993"><ele>499.0</ele><time>2026-05-01T09:45:25.094Z</time></trkpt><trkpt lat="42.196122" lon="14.1953369"><ele>500.0</ele><time>2026-05-01T09:45:26.121Z</time></trkpt><trkpt lat="42.1960461" lon="14.1952603"><ele>501.0</ele><time>2026-05-01T09:45:27.094Z</time></trkpt><trkpt lat="42.1959561" lon="14.195177"><ele>501.0</ele><time>2026-05-01T09:45:28.098Z</time></trkpt><trkpt lat="42.195869" lon="14.1951175"><ele>501.0</ele><time>2026-05-01T09:45:29.092Z</time></trkpt><trkpt lat="42.1957985" lon="14.1950522"><ele>501.0</ele><time>2026-05-01T09:45:30.094Z</time></trkpt><trkpt lat="42.1956939" lon="14.1949855"><ele>501.0</ele><time>2026-05-01T09:45:32.095Z</time></trkpt><trkpt lat="42.1956292" lon="14.1949568"><ele>501.0</ele><time>2026-05-01T09:45:33.093Z</time></trkpt><trkpt lat="42.1955761" lon="14.1948945"><ele>501.0</ele><time>2026-05-01T09:45:34.095Z</time></trkpt><trkpt lat="42.1955353" lon="14.1948079"><ele>502.8333333333333</ele><time>2026-05-01T09:45:35.089Z</time></trkpt><trkpt lat="42.1954871" lon="14.1947314"><ele>504.66666666666663</ele><time>2026-05-01T09:45:36.103Z</time></trkpt><trkpt lat="42.1954284" lon="14.1946814"><ele>506.5</ele><time>2026-05-01T09:45:37.092Z</time></trkpt><trkpt lat="42.1953707" lon="14.1946185"><ele>508.3333333333333</ele><time>2026-05-01T09:45:38.086Z</time></trkpt><trkpt lat="42.1953318" lon="14.1945411"><ele>510.16666666666663</ele><time>2026-05-01T09:45:39.101Z</time></trkpt><trkpt lat="42.1953145" lon="14.194442"><ele>512.0</ele><time>2026-05-01T09:45:40.104Z</time></trkpt><trkpt lat="42.1952686" lon="14.1943025"><ele>512.0</ele><time>2026-05-01T09:45:42.092Z</time></trkpt><trkpt lat="42.1951984" lon="14.1942282"><ele>511.99999999999994</ele><time>2026-05-01T09:45:43.088Z</time></trkpt><trkpt lat="42.1951329" lon="14.1941751"><ele>512.0</ele><time>2026-05-01T09:45:44.107Z</time></trkpt><trkpt lat="42.1950675" lon="14.19417"><ele>512.0</ele><time>2026-05-01T09:45:45.092Z</time></trkpt><trkpt lat="42.1949957" lon="14.1941917"><ele>511.99999999999994</ele><time>2026-05-01T09:45:46.074Z</time></trkpt><trkpt lat="42.194929" lon="14.1941895"><ele>512.0</ele><time>2026-05-01T09:45:47.082Z</time></trkpt><trkpt lat="42.1948651" lon="14.1941629"><ele>512.0</ele><time>2026-05-01T09:45:48.096Z</time></trkpt><trkpt lat="42.194815" lon="14.1941067"><ele>513.6</ele><time>2026-05-01T09:45:49.084Z</time></trkpt><trkpt lat="42.1947338" lon="14.1939963"><ele>515.2</ele><time>2026-05-01T09:45:51.084Z</time></trkpt><trkpt lat="42.1947073" lon="14.1939018"><ele>516.8</ele><time>2026-05-01T09:45:52.1Z</time></trkpt><trkpt lat="42.1947239" lon="14.1937942"><ele>518.4</ele><time>2026-05-01T09:45:53.083Z</time></trkpt><trkpt lat="42.1947643" lon="14.1936925"><ele>520.0</ele><time>2026-05-01T09:45:54.095Z</time></trkpt><trkpt lat="42.1948122" lon="14.1935834"><ele>521.0</ele><time>2026-05-01T09:45:55.09Z</time></trkpt><trkpt lat="42.1948501" lon="14.1934851"><ele>522.0</ele><time>2026-05-01T09:45:56.095Z</time></trkpt><trkpt lat="42.1948643" lon="14.193402"><ele>523.0</ele><time>2026-05-01T09:45:57.092Z</time></trkpt><trkpt lat="42.1948443" lon="14.1932527"><ele>524.0</ele><time>2026-05-01T09:45:59.097Z</time></trkpt><trkpt lat="42.1948124" lon="14.19314"><ele>525.0</ele><time>2026-05-01T09:46:00.099Z</time></trkpt><trkpt lat="42.1947783" lon="14.1930372"><ele>526.0</ele><time>2026-05-01T09:46:01.09Z</time></trkpt><trkpt lat="42.1947368" lon="14.1929356"><ele>526.0</ele><time>2026-05-01T09:46:02.088Z</time></trkpt><trkpt lat="42.1947032" lon="14.1928118"><ele>526.0</ele><time>2026-05-01T09:46:03.087Z</time></trkpt><trkpt lat="42.1946858" lon="14.1926782"><ele>526.0</ele><time>2026-05-01T09:46:04.083Z</time></trkpt><trkpt lat="42.1946733" lon="14.1925612"><ele>526.0</ele><time>2026-05-01T09:46:05.086Z</time></trkpt><trkpt lat="42.1946483" lon="14.192482"><ele>526.0</ele><time>2026-05-01T09:46:06.083Z</time></trkpt><trkpt lat="42.1945878" lon="14.1924021"><ele>526.0</ele><time>2026-05-01T09:46:07.09Z</time></trkpt><trkpt lat="42.1945177" lon="14.192329"><ele>525.0</ele><time>2026-05-01T09:46:08.087Z</time></trkpt><trkpt lat="42.1944483" lon="14.1922589"><ele>524.0</ele><time>2026-05-01T09:46:09.095Z</time></trkpt><trkpt lat="42.1943665" lon="14.1921965"><ele>523.0</ele><time>2026-05-01T09:46:10.09Z</time></trkpt><trkpt lat="42.1942905" lon="14.1921574"><ele>522.0</ele><time>2026-05-01T09:46:11.087Z</time></trkpt><trkpt lat="42.1942231" lon="14.192141"><ele>521.0</ele><time>2026-05-01T09:46:12.097Z</time></trkpt><trkpt lat="42.1941173" lon="14.1921439"><ele>520.0</ele><time>2026-05-01T09:46:14.109Z</time></trkpt><trkpt lat="42.1940483" lon="14.1920595"><ele>520.0</ele><time>2026-05-01T09:46:16.091Z</time></trkpt><trkpt lat="42.1940143" lon="14.1919862"><ele>520.0</ele><time>2026-05-01T09:46:17.085Z</time></trkpt><trkpt lat="42.1939218" lon="14.1919558"><ele>520.0</ele><time>2026-05-01T09:46:19.096Z</time></trkpt><trkpt lat="42.1938556" lon="14.1919604"><ele>520.0</ele><time>2026-05-01T09:46:20.097Z</time></trkpt><trkpt lat="42.193786" lon="14.1919675"><ele>520.0</ele><time>2026-05-01T09:46:21.092Z</time></trkpt><trkpt lat="42.1937216" lon="14.1919794"><ele>520.0</ele><time>2026-05-01T09:46:22.1Z</time></trkpt><trkpt lat="42.1936324" lon="14.1919573"><ele>521.2</ele><time>2026-05-01T09:46:24.097Z</time></trkpt><trkpt lat="42.1935664" lon="14.1918003"><ele>522.4</ele><time>2026-05-01T09:46:26.09Z</time></trkpt><trkpt lat="42.1935277" lon="14.1917159"><ele>523.6</ele><time>2026-05-01T09:46:27.085Z</time></trkpt><trkpt lat="42.1934702" lon="14.1916266"><ele>524.8</ele><time>2026-05-01T09:46:28.084Z</time></trkpt><trkpt lat="42.1933901" lon="14.1914974"><ele>526.0</ele><time>2026-05-01T09:46:29.096Z</time></trkpt><trkpt lat="42.1933198" lon="14.191384"><ele>526.0</ele><time>2026-05-01T09:46:30.113Z</time></trkpt><trkpt lat="42.1932656" lon="14.1913003"><ele>526.0</ele><time>2026-05-01T09:46:31.091Z</time></trkpt><trkpt lat="42.1932099" lon="14.1912418"><ele>526.0</ele><time>2026-05-01T09:46:32.097Z</time></trkpt><trkpt lat="42.1931251" lon="14.1911951"><ele>526.0</ele><time>2026-05-01T09:46:33.088Z</time></trkpt><trkpt lat="42.1930256" lon="14.1911483"><ele>526.0</ele><time>2026-05-01T09:46:34.1Z</time></trkpt><trkpt lat="42.1929302" lon="14.1911071"><ele>528.0</ele><time>2026-05-01T09:46:35.093Z</time></trkpt><trkpt lat="42.1928321" lon="14.191072"><ele>530.0</ele><time>2026-05-01T09:46:36.106Z</time></trkpt><trkpt lat="42.1927312" lon="14.1910325"><ele>532.0</ele><time>2026-05-01T09:46:37.091Z</time></trkpt><trkpt lat="42.1926353" lon="14.1909957"><ele>534.0</ele><time>2026-05-01T09:46:38.093Z</time></trkpt><trkpt lat="42.1925363" lon="14.1909531"><ele>536.0</ele><time>2026-05-01T09:46:39.095Z</time></trkpt><trkpt lat="42.192442" lon="14.19091"><ele>536.0</ele><time>2026-05-01T09:46:40.106Z</time></trkpt><trkpt lat="42.1923654" lon="14.1908684"><ele>536.0</ele><time>2026-05-01T09:46:41.085Z</time></trkpt><trkpt lat="42.1922962" lon="14.1908454"><ele>536.0</ele><time>2026-05-01T09:46:42.09Z</time></trkpt><trkpt lat="42.1922096" lon="14.1908269"><ele>536.0</ele><time>2026-05-01T09:46:43.093Z</time></trkpt><trkpt lat="42.1921093" lon="14.1908087"><ele>536.0</ele><time>2026-05-01T09:46:44.091Z</time></trkpt><trkpt lat="42.1920071" lon="14.1907866"><ele>536.0</ele><time>2026-05-01T09:46:45.08Z</time></trkpt><trkpt lat="42.1919165" lon="14.1907775"><ele>537.4</ele><time>2026-05-01T09:46:46.094Z</time></trkpt><trkpt lat="42.1918397" lon="14.1907778"><ele>538.8</ele><time>2026-05-01T09:46:47.09Z</time></trkpt><trkpt lat="42.191765" lon="14.190765"><ele>540.1999999999999</ele><time>2026-05-01T09:46:48.095Z</time></trkpt><trkpt lat="42.1916803" lon="14.1907108"><ele>541.6</ele><time>2026-05-01T09:46:49.084Z</time></trkpt><trkpt lat="42.1915921" lon="14.1906353"><ele>543.0</ele><time>2026-05-01T09:46:50.079Z</time></trkpt><trkpt lat="42.1915038" lon="14.1905534"><ele>545.0</ele><time>2026-05-01T09:46:51.098Z</time></trkpt><trkpt lat="42.1914171" lon="14.1904554"><ele>547.0</ele><time>2026-05-01T09:46:52.122Z</time></trkpt><trkpt lat="42.1913382" lon="14.1903471"><ele>549.0</ele><time>2026-05-01T09:46:53.103Z</time></trkpt><trkpt lat="42.1912669" lon="14.1902369"><ele>551.0</ele><time>2026-05-01T09:46:54.091Z</time></trkpt><trkpt lat="42.1912035" lon="14.19013"><ele>553.0</ele><time>2026-05-01T09:46:55.094Z</time></trkpt><trkpt lat="42.1911425" lon="14.1900325"><ele>553.0</ele><time>2026-05-01T09:46:56.091Z</time></trkpt><trkpt lat="42.1910795" lon="14.1899626"><ele>553.0</ele><time>2026-05-01T09:46:57.092Z</time></trkpt><trkpt lat="42.1910049" lon="14.1899102"><ele>553.0</ele><time>2026-05-01T09:46:58.099Z</time></trkpt><trkpt lat="42.1909416" lon="14.1898406"><ele>553.0</ele><time>2026-05-01T09:46:59.089Z</time></trkpt><trkpt lat="42.1908967" lon="14.1897457"><ele>553.0</ele><time>2026-05-01T09:47:00.113Z</time></trkpt><trkpt lat="42.1908222" lon="14.189655"><ele>553.0</ele><time>2026-05-01T09:47:01.103Z</time></trkpt><trkpt lat="42.1907438" lon="14.1895763"><ele>552.6666666666667</ele><time>2026-05-01T09:47:02.096Z</time></trkpt><trkpt lat="42.1906747" lon="14.1894793"><ele>552.3333333333334</ele><time>2026-05-01T09:47:03.093Z</time></trkpt><trkpt lat="42.190615" lon="14.1894032"><ele>552.0</ele><time>2026-05-01T09:47:04.096Z</time></trkpt><trkpt lat="42.1905429" lon="14.1893653"><ele>551.6666666666666</ele><time>2026-05-01T09:47:05.09Z</time></trkpt><trkpt lat="42.1904581" lon="14.1893368"><ele>551.3333333333333</ele><time>2026-05-01T09:47:06.081Z</time></trkpt><trkpt lat="42.1903928" lon="14.1892976"><ele>551.0</ele><time>2026-05-01T09:47:07.096Z</time></trkpt><trkpt lat="42.1903343" lon="14.1892236"><ele>553.0</ele><time>2026-05-01T09:47:08.095Z</time></trkpt><trkpt lat="42.1902938" lon="14.1891123"><ele>555.0</ele><time>2026-05-01T09:47:09.096Z</time></trkpt><trkpt lat="42.190256" lon="14.1889947"><ele>557.0</ele><time>2026-05-01T09:47:10.091Z</time></trkpt><trkpt lat="42.1902074" lon="14.1888665"><ele>559.0</ele><time>2026-05-01T09:47:11.085Z</time></trkpt><trkpt lat="42.1901388" lon="14.1887246"><ele>561.0</ele><time>2026-05-01T09:47:12.107Z</time></trkpt><trkpt lat="42.1900633" lon="14.1885786"><ele>561.4</ele><time>2026-05-01T09:47:13.095Z</time></trkpt><trkpt lat="42.190003" lon="14.1884723"><ele>561.8</ele><time>2026-05-01T09:47:14.094Z</time></trkpt><trkpt lat="42.1899606" lon="14.1883859"><ele>562.1999999999999</ele><time>2026-05-01T09:47:15.089Z</time></trkpt><trkpt lat="42.189951" lon="14.1882426"><ele>562.6</ele><time>2026-05-01T09:47:16.105Z</time></trkpt><trkpt lat="42.1899388" lon="14.1881029"><ele>563.0</ele><time>2026-05-01T09:47:17.093Z</time></trkpt><trkpt lat="42.189903" lon="14.1879575"><ele>563.8</ele><time>2026-05-01T09:47:18.088Z</time></trkpt><trkpt lat="42.1898536" lon="14.1878136"><ele>564.5999999999999</ele><time>2026-05-01T09:47:19.09Z</time></trkpt><trkpt lat="42.1898052" lon="14.1877036"><ele>565.4000000000001</ele><time>2026-05-01T09:47:20.093Z</time></trkpt><trkpt lat="42.189762" lon="14.1876296"><ele>566.2</ele><time>2026-05-01T09:47:21.085Z</time></trkpt><trkpt lat="42.1897055" lon="14.1875339"><ele>567.0</ele><time>2026-05-01T09:47:22.085Z</time></trkpt><trkpt lat="42.1896557" lon="14.1874017"><ele>569.2</ele><time>2026-05-01T09:47:23.085Z</time></trkpt><trkpt lat="42.1896028" lon="14.1872391"><ele>571.4000000000001</ele><time>2026-05-01T09:47:24.094Z</time></trkpt><trkpt lat="42.1895465" lon="14.1870703"><ele>573.5999999999999</ele><time>2026-05-01T09:47:25.105Z</time></trkpt><trkpt lat="42.1894978" lon="14.1869397"><ele>575.8</ele><time>2026-05-01T09:47:26.095Z</time></trkpt><trkpt lat="42.1894555" lon="14.1868641"><ele>578.0</ele><time>2026-05-01T09:47:27.095Z</time></trkpt><trkpt lat="42.189344" lon="14.1868035"><ele>578.0</ele><time>2026-05-01T09:47:29.096Z</time></trkpt><trkpt lat="42.1892733" lon="14.1868222"><ele>578.0</ele><time>2026-05-01T09:47:30.11Z</time></trkpt><trkpt lat="42.1891929" lon="14.186861"><ele>578.0</ele><time>2026-05-01T09:47:31.079Z</time></trkpt><trkpt lat="42.1890924" lon="14.186905"><ele>578.0</ele><time>2026-05-01T09:47:32.096Z</time></trkpt><trkpt lat="42.1889943" lon="14.1869291"><ele>578.0</ele><time>2026-05-01T09:47:33.092Z</time></trkpt><trkpt lat="42.1889126" lon="14.1869314"><ele>578.0</ele><time>2026-05-01T09:47:34.093Z</time></trkpt><trkpt lat="42.1888314" lon="14.1869101"><ele>579.6</ele><time>2026-05-01T09:47:35.087Z</time></trkpt><trkpt lat="42.1887406" lon="14.1868771"><ele>581.1999999999999</ele><time>2026-05-01T09:47:36.108Z</time></trkpt><trkpt lat="42.1886308" lon="14.1868548"><ele>582.8</ele><time>2026-05-01T09:47:37.089Z</time></trkpt><trkpt lat="42.1885273" lon="14.1868569"><ele>584.4</ele><time>2026-05-01T09:47:38.085Z</time></trkpt><trkpt lat="42.188407" lon="14.1869109"><ele>586.0</ele><time>2026-05-01T09:47:39.094Z</time></trkpt><trkpt lat="42.188295" lon="14.18697"><ele>586.0</ele><time>2026-05-01T09:47:40.097Z</time></trkpt><trkpt lat="42.1882222" lon="14.1870331"><ele>586.0</ele><time>2026-05-01T09:47:41.089Z</time></trkpt><trkpt lat="42.1881654" lon="14.1870744"><ele>586.0</ele><time>2026-05-01T09:47:42.09Z</time></trkpt><trkpt lat="42.188106" lon="14.1871252"><ele>586.0</ele><time>2026-05-01T09:47:44.09Z</time></trkpt><trkpt lat="42.1880362" lon="14.1871635"><ele>586.0</ele><time>2026-05-01T09:48:16.091Z</time></trkpt><trkpt lat="42.1880194" lon="14.1870729"><ele>586.0</ele><time>2026-05-01T09:48:18.08Z</time></trkpt><trkpt lat="42.1879422" lon="14.1869367"><ele>587.6</ele><time>2026-05-01T09:48:20.09Z</time></trkpt><trkpt lat="42.1878707" lon="14.1868565"><ele>589.2</ele><time>2026-05-01T09:48:21.083Z</time></trkpt><trkpt lat="42.1877987" lon="14.186762"><ele>590.8</ele><time>2026-05-01T09:48:22.091Z</time></trkpt><trkpt lat="42.1877269" lon="14.1866443"><ele>592.4</ele><time>2026-05-01T09:48:23.092Z</time></trkpt><trkpt lat="42.187664" lon="14.1865206"><ele>594.0</ele><time>2026-05-01T09:48:24.082Z</time></trkpt><trkpt lat="42.1876168" lon="14.1864036"><ele>594.4</ele><time>2026-05-01T09:48:25.084Z</time></trkpt><trkpt lat="42.1875649" lon="14.1863017"><ele>594.8</ele><time>2026-05-01T09:48:26.09Z</time></trkpt><trkpt lat="42.1875065" lon="14.1862089"><ele>595.2</ele><time>2026-05-01T09:48:27.085Z</time></trkpt><trkpt lat="42.1874352" lon="14.1861246"><ele>595.6</ele><time>2026-05-01T09:48:28.091Z</time></trkpt><trkpt lat="42.1873618" lon="14.186041"><ele>596.0</ele><time>2026-05-01T09:48:29.095Z</time></trkpt><trkpt lat="42.1872963" lon="14.1859474"><ele>597.8</ele><time>2026-05-01T09:48:30.095Z</time></trkpt><trkpt lat="42.1872286" lon="14.1858702"><ele>599.6</ele><time>2026-05-01T09:48:31.088Z</time></trkpt><trkpt lat="42.1871591" lon="14.1858023"><ele>601.4</ele><time>2026-05-01T09:48:32.093Z</time></trkpt><trkpt lat="42.1871017" lon="14.1857271"><ele>603.2</ele><time>2026-05-01T09:48:33.08Z</time></trkpt><trkpt lat="42.1870365" lon="14.1856321"><ele>605.0</ele><time>2026-05-01T09:48:34.092Z</time></trkpt><trkpt lat="42.1869595" lon="14.1855183"><ele>605.0</ele><time>2026-05-01T09:48:35.092Z</time></trkpt><trkpt lat="42.1868902" lon="14.1854161"><ele>605.0</ele><time>2026-05-01T09:48:36.092Z</time></trkpt><trkpt lat="42.1868266" lon="14.1853246"><ele>605.0</ele><time>2026-05-01T09:48:37.078Z</time></trkpt><trkpt lat="42.1867617" lon="14.1852408"><ele>605.0</ele><time>2026-05-01T09:48:38.115Z</time></trkpt><trkpt lat="42.1867069" lon="14.1851658"><ele>605.0</ele><time>2026-05-01T09:48:39.091Z</time></trkpt><trkpt lat="42.1866533" lon="14.1850707"><ele>605.0</ele><time>2026-05-01T09:48:40.085Z</time></trkpt><trkpt lat="42.1866015" lon="14.1849922"><ele>605.0</ele><time>2026-05-01T09:48:41.093Z</time></trkpt><trkpt lat="42.1865461" lon="14.1849146"><ele>605.0</ele><time>2026-05-01T09:48:42.102Z</time></trkpt><trkpt lat="42.1864819" lon="14.1848232"><ele>605.0</ele><time>2026-05-01T09:48:43.101Z</time></trkpt><trkpt lat="42.1864221" lon="14.1847351"><ele>605.0</ele><time>2026-05-01T09:48:44.092Z</time></trkpt><trkpt lat="42.1863711" lon="14.1846473"><ele>605.0</ele><time>2026-05-01T09:48:45.09Z</time></trkpt><trkpt lat="42.1863242" lon="14.1845742"><ele>607.8</ele><time>2026-05-01T09:48:46.092Z</time></trkpt><trkpt lat="42.1862532" lon="14.1844626"><ele>610.6</ele><time>2026-05-01T09:48:48.094Z</time></trkpt><trkpt lat="42.1862021" lon="14.1843672"><ele>613.4</ele><time>2026-05-01T09:48:50.091Z</time></trkpt><trkpt lat="42.1861612" lon="14.1842761"><ele>616.2</ele><time>2026-05-01T09:48:51.094Z</time></trkpt><trkpt lat="42.1861133" lon="14.1841727"><ele>619.0</ele><time>2026-05-01T09:48:52.098Z</time></trkpt><trkpt lat="42.186048" lon="14.1840861"><ele>619.1666666666667</ele><time>2026-05-01T09:48:53.091Z</time></trkpt><trkpt lat="42.1859799" lon="14.1840081"><ele>619.3333333333334</ele><time>2026-05-01T09:48:54.126Z</time></trkpt><trkpt lat="42.185927" lon="14.183949"><ele>619.5</ele><time>2026-05-01T09:48:55.092Z</time></trkpt><trkpt lat="42.1858147" lon="14.1839145"><ele>619.6666666666666</ele><time>2026-05-01T09:48:57.087Z</time></trkpt><trkpt lat="42.1857542" lon="14.183949"><ele>619.8333333333333</ele><time>2026-05-01T09:48:58.081Z</time></trkpt><trkpt lat="42.1856872" lon="14.1840028"><ele>620.0</ele><time>2026-05-01T09:48:59.071Z</time></trkpt><trkpt lat="42.1856148" lon="14.1840441"><ele>621.6</ele><time>2026-05-01T09:49:00.094Z</time></trkpt><trkpt lat="42.1855148" lon="14.1839995"><ele>623.2</ele><time>2026-05-01T09:49:02.101Z</time></trkpt><trkpt lat="42.1854313" lon="14.1838791"><ele>624.8</ele><time>2026-05-01T09:49:04.099Z</time></trkpt><trkpt lat="42.1853692" lon="14.1838297"><ele>626.4</ele><time>2026-05-01T09:49:05.098Z</time></trkpt><trkpt lat="42.1852563" lon="14.1837626"><ele>628.0</ele><time>2026-05-01T09:49:07.09Z</time></trkpt><trkpt lat="42.1851891" lon="14.1836211"><ele>628.0</ele><time>2026-05-01T09:49:09.087Z</time></trkpt><trkpt lat="42.1851732" lon="14.1835162"><ele>628.0</ele><time>2026-05-01T09:49:10.105Z</time></trkpt><trkpt lat="42.1851704" lon="14.1834297"><ele>628.0</ele><time>2026-05-01T09:49:11.093Z</time></trkpt><trkpt lat="42.185194" lon="14.1833447"><ele>628.0</ele><time>2026-05-01T09:49:12.102Z</time></trkpt><trkpt lat="42.1852276" lon="14.183247"><ele>628.0</ele><time>2026-05-01T09:49:13.079Z</time></trkpt><trkpt lat="42.18526" lon="14.1831317"><ele>628.0</ele><time>2026-05-01T09:49:14.085Z</time></trkpt><trkpt lat="42.1852868" lon="14.1830044"><ele>628.1999999999999</ele><time>2026-05-01T09:49:15.113Z</time></trkpt><trkpt lat="42.1853095" lon="14.1828666"><ele>628.4</ele><time>2026-05-01T09:49:16.101Z</time></trkpt><trkpt lat="42.1853303" lon="14.1827354"><ele>628.5999999999999</ele><time>2026-05-01T09:49:17.103Z</time></trkpt><trkpt lat="42.1853481" lon="14.182614"><ele>628.8</ele><time>2026-05-01T09:49:18.083Z</time></trkpt><trkpt lat="42.1853609" lon="14.1824972"><ele>629.0</ele><time>2026-05-01T09:49:19.09Z</time></trkpt><trkpt lat="42.1853719" lon="14.1823826"><ele>629.3333333333333</ele><time>2026-05-01T09:49:20.093Z</time></trkpt><trkpt lat="42.1853817" lon="14.1822693"><ele>629.6666666666666</ele><time>2026-05-01T09:49:21.093Z</time></trkpt><trkpt lat="42.1853899" lon="14.1821616"><ele>630.0</ele><time>2026-05-01T09:49:22.092Z</time></trkpt><trkpt lat="42.1853905" lon="14.1820666"><ele>630.3333333333334</ele><time>2026-05-01T09:49:23.085Z</time></trkpt><trkpt lat="42.1853702" lon="14.1819283"><ele>630.6666666666667</ele><time>2026-05-01T09:49:25.09Z</time></trkpt><trkpt lat="42.1853063" lon="14.181876"><ele>631.0</ele><time>2026-05-01T09:49:27.095Z</time></trkpt><trkpt lat="42.1851743" lon="14.1818409"><ele>631.0</ele><time>2026-05-01T09:49:29.091Z</time></trkpt><trkpt lat="42.1850785" lon="14.181823"><ele>631.0</ele><time>2026-05-01T09:49:30.103Z</time></trkpt><trkpt lat="42.1850004" lon="14.181803"><ele>631.0</ele><time>2026-05-01T09:49:31.096Z</time></trkpt><trkpt lat="42.1849596" lon="14.1816761"><ele>631.0</ele><time>2026-05-01T09:49:34.091Z</time></trkpt><trkpt lat="42.1849697" lon="14.1815809"><ele>631.0</ele><time>2026-05-01T09:49:35.091Z</time></trkpt><trkpt lat="42.1849816" lon="14.1814592"><ele>631.0</ele><time>2026-05-01T09:49:36.089Z</time></trkpt><trkpt lat="42.1849876" lon="14.1813325"><ele>632.0</ele><time>2026-05-01T09:49:37.088Z</time></trkpt><trkpt lat="42.1849783" lon="14.1812204"><ele>633.0</ele><time>2026-05-01T09:49:38.095Z</time></trkpt><trkpt lat="42.1849495" lon="14.1811292"><ele>634.0</ele><time>2026-05-01T09:49:39.095Z</time></trkpt><trkpt lat="42.1849067" lon="14.1810427"><ele>635.0</ele><time>2026-05-01T09:49:40.096Z</time></trkpt><trkpt lat="42.1848679" lon="14.1809756"><ele>636.0</ele><time>2026-05-01T09:49:41.085Z</time></trkpt><trkpt lat="42.1847821" lon="14.1808562"><ele>637.0</ele><time>2026-05-01T09:49:43.089Z</time></trkpt><trkpt lat="42.1847242" lon="14.180805"><ele>637.6666666666667</ele><time>2026-05-01T09:49:44.095Z</time></trkpt><trkpt lat="42.184666" lon="14.1807465"><ele>638.3333333333334</ele><time>2026-05-01T09:49:45.087Z</time></trkpt><trkpt lat="42.1846111" lon="14.1806967"><ele>639.0</ele><time>2026-05-01T09:49:47.096Z</time></trkpt><trkpt lat="42.1844941" lon="14.1806624"><ele>639.6666666666666</ele><time>2026-05-01T09:49:50.087Z</time></trkpt><trkpt lat="42.1844163" lon="14.180691"><ele>640.3333333333333</ele><time>2026-05-01T09:49:51.089Z</time></trkpt><trkpt lat="42.1843368" lon="14.1807456"><ele>641.0</ele><time>2026-05-01T09:49:52.092Z</time></trkpt><trkpt lat="42.1842635" lon="14.1808075"><ele>641.0</ele><time>2026-05-01T09:49:53.081Z</time></trkpt><trkpt lat="42.1842042" lon="14.1808736"><ele>641.0</ele><time>2026-05-01T09:49:54.101Z</time></trkpt><trkpt lat="42.1841505" lon="14.180935"><ele>641.0</ele><time>2026-05-01T09:49:55.083Z</time></trkpt><trkpt lat="42.1841017" lon="14.1809945"><ele>641.0</ele><time>2026-05-01T09:49:56.087Z</time></trkpt><trkpt lat="42.1840201" lon="14.1810619"><ele>641.0</ele><time>2026-05-01T09:49:58.088Z</time></trkpt><trkpt lat="42.1839455" lon="14.1809697"><ele>641.0</ele><time>2026-05-01T09:50:00.092Z</time></trkpt><trkpt lat="42.1839199" lon="14.1808629"><ele>641.5714285714286</ele><time>2026-05-01T09:50:01.08Z</time></trkpt><trkpt lat="42.1839186" lon="14.1807701"><ele>642.1428571428571</ele><time>2026-05-01T09:50:02.09Z</time></trkpt><trkpt lat="42.1838656" lon="14.1806843"><ele>642.7142857142858</ele><time>2026-05-01T09:50:04.082Z</time></trkpt><trkpt lat="42.183804" lon="14.1807104"><ele>643.2857142857142</ele><time>2026-05-01T09:50:06.081Z</time></trkpt><trkpt lat="42.1837369" lon="14.180756"><ele>643.8571428571428</ele><time>2026-05-01T09:50:08.091Z</time></trkpt><trkpt lat="42.1836707" lon="14.1807849"><ele>644.4285714285714</ele><time>2026-05-01T09:50:10.099Z</time></trkpt><trkpt lat="42.1835864" lon="14.1808127"><ele>645.0</ele><time>2026-05-01T09:50:13.089Z</time></trkpt><trkpt lat="42.1835572" lon="14.1808994"><ele>645.0</ele><time>2026-05-01T09:50:36.085Z</time></trkpt></trkseg><trkseg><trkpt lat="42.1835619" lon="14.1807984"><ele>645.0</ele><time>2026-05-01T11:15:06.059Z</time></trkpt><trkpt lat="42.1834979" lon="14.1808878"><ele>645.0</ele><time>2026-05-01T11:15:09.062Z</time></trkpt><trkpt lat="42.1834947" lon="14.1809775"><ele>645.0</ele><time>2026-05-01T11:15:11.066Z</time></trkpt><trkpt lat="42.1835573" lon="14.1810125"><ele>645.0</ele><time>2026-05-01T11:15:18.059Z</time></trkpt><trkpt lat="42.1836071" lon="14.1809372"><ele>645.0</ele><time>2026-05-01T11:15:20.059Z</time></trkpt><trkpt lat="42.1836539" lon="14.1808752"><ele>645.0</ele><time>2026-05-01T11:15:22.061Z</time></trkpt><trkpt lat="42.1837101" lon="14.1808083"><ele>645.0</ele><time>2026-05-01T11:15:24.06Z</time></trkpt><trkpt lat="42.1837666" lon="14.1807377"><ele>645.0</ele><time>2026-05-01T11:15:26.059Z</time></trkpt><trkpt lat="42.1838414" lon="14.1806927"><ele>645.0</ele><time>2026-05-01T11:15:29.06Z</time></trkpt><trkpt lat="42.1838994" lon="14.1807697"><ele>645.0</ele><time>2026-05-01T11:15:32.09Z</time></trkpt><trkpt lat="42.1839174" lon="14.1808695"><ele>645.0</ele><time>2026-05-01T11:16:24.065Z</time></trkpt><trkpt lat="42.1839465" lon="14.1809724"><ele>645.0</ele><time>2026-05-01T11:16:25.06Z</time></trkpt><trkpt lat="42.1839443" lon="14.1811152"><ele>645.0</ele><time>2026-05-01T11:16:26.079Z</time></trkpt><trkpt lat="42.1839193" lon="14.1812665"><ele>645.0</ele><time>2026-05-01T11:16:27.072Z</time></trkpt><trkpt lat="42.1838694" lon="14.1814215"><ele>645.0</ele><time>2026-05-01T11:16:28.076Z</time></trkpt><trkpt lat="42.1838006" lon="14.1815724"><ele>645.0</ele><time>2026-05-01T11:16:29.076Z</time></trkpt><trkpt lat="42.1837272" lon="14.1817094"><ele>645.0</ele><time>2026-05-01T11:16:30.081Z</time></trkpt><trkpt lat="42.1836616" lon="14.1818348"><ele>644.6666666666666</ele><time>2026-05-01T11:16:31.062Z</time></trkpt><trkpt lat="42.1835951" lon="14.1819428"><ele>644.3333333333334</ele><time>2026-05-01T11:16:32.073Z</time></trkpt><trkpt lat="42.1835213" lon="14.1820268"><ele>644.0</ele><time>2026-05-01T11:16:33.066Z</time></trkpt><trkpt lat="42.1834559" lon="14.182082"><ele>643.6666666666667</ele><time>2026-05-01T11:16:34.077Z</time></trkpt><trkpt lat="42.1833927" lon="14.1820783"><ele>643.3333333333334</ele><time>2026-05-01T11:16:36.077Z</time></trkpt><trkpt lat="42.1833281" lon="14.1821481"><ele>643.0</ele><time>2026-05-01T11:16:41.058Z</time></trkpt><trkpt lat="42.1834013" lon="14.1823004"><ele>640.8</ele><time>2026-05-01T11:16:43.054Z</time></trkpt><trkpt lat="42.1834677" lon="14.182388"><ele>638.5999999999999</ele><time>2026-05-01T11:16:44.056Z</time></trkpt><trkpt lat="42.1835406" lon="14.1824788"><ele>636.4000000000001</ele><time>2026-05-01T11:16:45.065Z</time></trkpt><trkpt lat="42.1836056" lon="14.1825792"><ele>634.2</ele><time>2026-05-01T11:16:46.055Z</time></trkpt><trkpt lat="42.1836607" lon="14.1826944"><ele>632.0</ele><time>2026-05-01T11:16:47.059Z</time></trkpt><trkpt lat="42.1837135" lon="14.1828179"><ele>632.0</ele><time>2026-05-01T11:16:48.064Z</time></trkpt><trkpt lat="42.1837649" lon="14.1829614"><ele>632.0</ele><time>2026-05-01T11:16:49.063Z</time></trkpt><trkpt lat="42.1838123" lon="14.1831281"><ele>632.0</ele><time>2026-05-01T11:16:50.056Z</time></trkpt><trkpt lat="42.1838614" lon="14.1833072"><ele>632.0</ele><time>2026-05-01T11:16:51.066Z</time></trkpt><trkpt lat="42.1839269" lon="14.1834722"><ele>631.6666666666666</ele><time>2026-05-01T11:16:52.066Z</time></trkpt><trkpt lat="42.1840003" lon="14.1836421"><ele>631.3333333333334</ele><time>2026-05-01T11:16:53.058Z</time></trkpt><trkpt lat="42.1840841" lon="14.1838215"><ele>631.0</ele><time>2026-05-01T11:16:54.06Z</time></trkpt><trkpt lat="42.1841661" lon="14.1840009"><ele>628.0</ele><time>2026-05-01T11:16:55.065Z</time></trkpt><trkpt lat="42.1842402" lon="14.184198"><ele>625.0</ele><time>2026-05-01T11:16:56.06Z</time></trkpt><trkpt lat="42.1843115" lon="14.1843942"><ele>622.0</ele><time>2026-05-01T11:16:57.062Z</time></trkpt><trkpt lat="42.1843827" lon="14.1846054"><ele>622.0</ele><time>2026-05-01T11:16:58.05Z</time></trkpt><trkpt lat="42.1844557" lon="14.1848092"><ele>622.0</ele><time>2026-05-01T11:16:59.06Z</time></trkpt><trkpt lat="42.1845285" lon="14.1850088"><ele>622.0</ele><time>2026-05-01T11:17:00.052Z</time></trkpt><trkpt lat="42.1846017" lon="14.1852081"><ele>618.0</ele><time>2026-05-01T11:17:01.068Z</time></trkpt><trkpt lat="42.1846835" lon="14.1853999"><ele>614.0</ele><time>2026-05-01T11:17:02.059Z</time></trkpt><trkpt lat="42.1847858" lon="14.1855851"><ele>610.0</ele><time>2026-05-01T11:17:03.054Z</time></trkpt><trkpt lat="42.1849066" lon="14.1857612"><ele>610.0</ele><time>2026-05-01T11:17:04.055Z</time></trkpt><trkpt lat="42.1850313" lon="14.1859353"><ele>610.0</ele><time>2026-05-01T11:17:05.055Z</time></trkpt><trkpt lat="42.1851614" lon="14.1861012"><ele>610.0</ele><time>2026-05-01T11:17:06.062Z</time></trkpt><trkpt lat="42.1852791" lon="14.1862736"><ele>610.0</ele><time>2026-05-01T11:17:07.077Z</time></trkpt><trkpt lat="42.1853813" lon="14.1864247"><ele>610.0</ele><time>2026-05-01T11:17:08.055Z</time></trkpt><trkpt lat="42.1854661" lon="14.186585"><ele>610.0</ele><time>2026-05-01T11:17:09.066Z</time></trkpt><trkpt lat="42.1855292" lon="14.1867491"><ele>610.0</ele><time>2026-05-01T11:17:10.061Z</time></trkpt><trkpt lat="42.185593" lon="14.1869225"><ele>607.75</ele><time>2026-05-01T11:17:11.059Z</time></trkpt><trkpt lat="42.1856522" lon="14.187095"><ele>605.5</ele><time>2026-05-01T11:17:12.06Z</time></trkpt><trkpt lat="42.1857048" lon="14.1872563"><ele>603.25</ele><time>2026-05-01T11:17:13.072Z</time></trkpt><trkpt lat="42.185742" lon="14.1873983"><ele>601.0</ele><time>2026-05-01T11:17:14.058Z</time></trkpt><trkpt lat="42.1857717" lon="14.1875116"><ele>599.3333333333334</ele><time>2026-05-01T11:17:15.063Z</time></trkpt><trkpt lat="42.1857939" lon="14.1875999"><ele>597.6666666666667</ele><time>2026-05-01T11:17:16.054Z</time></trkpt><trkpt lat="42.1858364" lon="14.187743"><ele>596.0</ele><time>2026-05-01T11:17:18.064Z</time></trkpt><trkpt lat="42.1858821" lon="14.1878707"><ele>594.3333333333334</ele><time>2026-05-01T11:17:20.06Z</time></trkpt><trkpt lat="42.1859146" lon="14.1879752"><ele>592.6666666666666</ele><time>2026-05-01T11:17:22.061Z</time></trkpt><trkpt lat="42.1858444" lon="14.1879601"><ele>591.0</ele><time>2026-05-01T11:17:25.061Z</time></trkpt><trkpt lat="42.1858073" lon="14.1878715"><ele>591.0</ele><time>2026-05-01T11:17:26.05Z</time></trkpt><trkpt lat="42.1857541" lon="14.18774"><ele>591.0</ele><time>2026-05-01T11:17:27.073Z</time></trkpt><trkpt lat="42.1856867" lon="14.1875823"><ele>591.0</ele><time>2026-05-01T11:17:28.053Z</time></trkpt><trkpt lat="42.1856217" lon="14.1874241"><ele>591.0</ele><time>2026-05-01T11:17:29.055Z</time></trkpt><trkpt lat="42.1855515" lon="14.1872731"><ele>591.25</ele><time>2026-05-01T11:17:30.061Z</time></trkpt><trkpt lat="42.1854814" lon="14.1871126"><ele>591.5</ele><time>2026-05-01T11:17:31.059Z</time></trkpt><trkpt lat="42.1854054" lon="14.1869679"><ele>591.75</ele><time>2026-05-01T11:17:32.068Z</time></trkpt><trkpt lat="42.185331" lon="14.1868337"><ele>592.0</ele><time>2026-05-01T11:17:33.052Z</time></trkpt><trkpt lat="42.1852581" lon="14.1867345"><ele>592.0</ele><time>2026-05-01T11:17:34.056Z</time></trkpt><trkpt lat="42.1851575" lon="14.1866408"><ele>592.0</ele><time>2026-05-01T11:17:35.043Z</time></trkpt><trkpt lat="42.1850414" lon="14.1865471"><ele>592.0</ele><time>2026-05-01T11:17:36.056Z</time></trkpt><trkpt lat="42.1849285" lon="14.1864629"><ele>592.0</ele><time>2026-05-01T11:17:37.058Z</time></trkpt><trkpt lat="42.184826" lon="14.1864026"><ele>592.0</ele><time>2026-05-01T11:17:38.053Z</time></trkpt><trkpt lat="42.1847432" lon="14.186385"><ele>592.0</ele><time>2026-05-01T11:17:39.05Z</time></trkpt><trkpt lat="42.1846524" lon="14.1863988"><ele>592.0</ele><time>2026-05-01T11:17:40.064Z</time></trkpt><trkpt lat="42.184538" lon="14.1864287"><ele>592.0</ele><time>2026-05-01T11:17:41.055Z</time></trkpt><trkpt lat="42.1844153" lon="14.1864581"><ele>592.0</ele><time>2026-05-01T11:17:42.06Z</time></trkpt><trkpt lat="42.1843167" lon="14.1864901"><ele>592.0</ele><time>2026-05-01T11:17:43.054Z</time></trkpt><trkpt lat="42.1842238" lon="14.1864901"><ele>592.0</ele><time>2026-05-01T11:17:44.065Z</time></trkpt><trkpt lat="42.1841175" lon="14.1864668"><ele>592.0</ele><time>2026-05-01T11:17:45.055Z</time></trkpt><trkpt lat="42.1839925" lon="14.1864626"><ele>592.0</ele><time>2026-05-01T11:17:46.063Z</time></trkpt><trkpt lat="42.1838426" lon="14.1864777"><ele>590.6666666666667</ele><time>2026-05-01T11:17:47.06Z</time></trkpt><trkpt lat="42.1836883" lon="14.1865106"><ele>589.3333333333334</ele><time>2026-05-01T11:17:48.06Z</time></trkpt><trkpt lat="42.1835471" lon="14.1865724"><ele>588.0</ele><time>2026-05-01T11:17:49.06Z</time></trkpt><trkpt lat="42.1834027" lon="14.1866571"><ele>586.0</ele><time>2026-05-01T11:17:50.054Z</time></trkpt><trkpt lat="42.1832313" lon="14.186757"><ele>584.0</ele><time>2026-05-01T11:17:51.063Z</time></trkpt><trkpt lat="42.1830718" lon="14.1868521"><ele>582.0</ele><time>2026-05-01T11:17:52.055Z</time></trkpt><trkpt lat="42.1829275" lon="14.1869211"><ele>582.0</ele><time>2026-05-01T11:17:53.056Z</time></trkpt><trkpt lat="42.182787" lon="14.1869677"><ele>582.0</ele><time>2026-05-01T11:17:54.055Z</time></trkpt><trkpt lat="42.1826635" lon="14.1869946"><ele>582.0</ele><time>2026-05-01T11:17:55.056Z</time></trkpt><trkpt lat="42.1825838" lon="14.1870226"><ele>582.0</ele><time>2026-05-01T11:17:56.051Z</time></trkpt><trkpt lat="42.1825346" lon="14.1871047"><ele>582.0</ele><time>2026-05-01T11:17:59.055Z</time></trkpt><trkpt lat="42.1826367" lon="14.1872697"><ele>579.0</ele><time>2026-05-01T11:18:01.059Z</time></trkpt><trkpt lat="42.1827192" lon="14.1874007"><ele>576.0</ele><time>2026-05-01T11:18:02.059Z</time></trkpt><trkpt lat="42.1828375" lon="14.1875602"><ele>573.0</ele><time>2026-05-01T11:18:03.066Z</time></trkpt><trkpt lat="42.1829843" lon="14.187722"><ele>573.0</ele><time>2026-05-01T11:18:04.051Z</time></trkpt><trkpt lat="42.183136" lon="14.187884"><ele>573.0</ele><time>2026-05-01T11:18:05.054Z</time></trkpt><trkpt lat="42.1832683" lon="14.1880639"><ele>573.0</ele><time>2026-05-01T11:18:06.051Z</time></trkpt><trkpt lat="42.1833943" lon="14.1882652"><ele>573.6666666666666</ele><time>2026-05-01T11:18:07.053Z</time></trkpt><trkpt lat="42.1835078" lon="14.1884942"><ele>574.3333333333333</ele><time>2026-05-01T11:18:08.063Z</time></trkpt><trkpt lat="42.1836196" lon="14.1887357"><ele>575.0</ele><time>2026-05-01T11:18:09.058Z</time></trkpt><trkpt lat="42.1837321" lon="14.188976"><ele>573.0</ele><time>2026-05-01T11:18:10.071Z</time></trkpt><trkpt lat="42.1838299" lon="14.1891879"><ele>571.0</ele><time>2026-05-01T11:18:11.067Z</time></trkpt><trkpt lat="42.1838925" lon="14.1894044"><ele>569.0</ele><time>2026-05-01T11:18:12.057Z</time></trkpt><trkpt lat="42.1839298" lon="14.1896054"><ele>569.0</ele><time>2026-05-01T11:18:13.073Z</time></trkpt><trkpt lat="42.18395" lon="14.1898356"><ele>569.0</ele><time>2026-05-01T11:18:14.061Z</time></trkpt><trkpt lat="42.1839566" lon="14.1900877"><ele>569.0</ele><time>2026-05-01T11:18:15.066Z</time></trkpt><trkpt lat="42.1839546" lon="14.190345"><ele>567.6666666666666</ele><time>2026-05-01T11:18:16.052Z</time></trkpt><trkpt lat="42.1839616" lon="14.1905892"><ele>566.3333333333334</ele><time>2026-05-01T11:18:17.063Z</time></trkpt><trkpt lat="42.1839767" lon="14.1908336"><ele>565.0</ele><time>2026-05-01T11:18:18.049Z</time></trkpt><trkpt lat="42.1839887" lon="14.1910752"><ele>563.5</ele><time>2026-05-01T11:18:19.051Z</time></trkpt><trkpt lat="42.1839894" lon="14.1912604"><ele>562.0</ele><time>2026-05-01T11:18:20.054Z</time></trkpt><trkpt lat="42.1839737" lon="14.1914239"><ele>560.5</ele><time>2026-05-01T11:18:21.059Z</time></trkpt><trkpt lat="42.1839651" lon="14.1915554"><ele>559.0</ele><time>2026-05-01T11:18:22.065Z</time></trkpt><trkpt lat="42.1839703" lon="14.1916832"><ele>558.2</ele><time>2026-05-01T11:18:23.065Z</time></trkpt><trkpt lat="42.1839842" lon="14.191816"><ele>557.4</ele><time>2026-05-01T11:18:24.059Z</time></trkpt><trkpt lat="42.1840135" lon="14.1919454"><ele>556.6</ele><time>2026-05-01T11:18:25.061Z</time></trkpt><trkpt lat="42.1840685" lon="14.1920916"><ele>555.8</ele><time>2026-05-01T11:18:26.055Z</time></trkpt><trkpt lat="42.1841387" lon="14.1922138"><ele>555.0</ele><time>2026-05-01T11:18:27.06Z</time></trkpt><trkpt lat="42.1842108" lon="14.1923508"><ele>552.75</ele><time>2026-05-01T11:18:28.068Z</time></trkpt><trkpt lat="42.1842666" lon="14.1924926"><ele>550.5</ele><time>2026-05-01T11:18:29.067Z</time></trkpt><trkpt lat="42.1843021" lon="14.192659"><ele>548.25</ele><time>2026-05-01T11:18:30.056Z</time></trkpt><trkpt lat="42.1843352" lon="14.1928249"><ele>546.0</ele><time>2026-05-01T11:18:31.062Z</time></trkpt><trkpt lat="42.1843548" lon="14.1929613"><ele>546.0</ele><time>2026-05-01T11:18:32.05Z</time></trkpt><trkpt lat="42.1843749" lon="14.1930522"><ele>546.0</ele><time>2026-05-01T11:18:33.066Z</time></trkpt><trkpt lat="42.1843272" lon="14.1932071"><ele>546.0</ele><time>2026-05-01T11:18:35.062Z</time></trkpt><trkpt lat="42.1842856" lon="14.1933152"><ele>546.0</ele><time>2026-05-01T11:18:36.056Z</time></trkpt><trkpt lat="42.1842416" lon="14.19345"><ele>546.0</ele><time>2026-05-01T11:18:37.059Z</time></trkpt><trkpt lat="42.1842084" lon="14.1935682"><ele>545.1666666666666</ele><time>2026-05-01T11:18:38.058Z</time></trkpt><trkpt lat="42.1841857" lon="14.1936633"><ele>544.3333333333334</ele><time>2026-05-01T11:18:39.06Z</time></trkpt><trkpt lat="42.184183" lon="14.1937608"><ele>543.5</ele><time>2026-05-01T11:18:40.072Z</time></trkpt><trkpt lat="42.1841865" lon="14.1938583"><ele>542.6666666666667</ele><time>2026-05-01T11:18:41.061Z</time></trkpt><trkpt lat="42.1842171" lon="14.1939894"><ele>541.8333333333334</ele><time>2026-05-01T11:18:42.057Z</time></trkpt><trkpt lat="42.1842493" lon="14.1941046"><ele>541.0</ele><time>2026-05-01T11:18:43.059Z</time></trkpt><trkpt lat="42.1842759" lon="14.1942097"><ele>541.0</ele><time>2026-05-01T11:18:44.061Z</time></trkpt><trkpt lat="42.1843256" lon="14.1943073"><ele>541.0</ele><time>2026-05-01T11:18:46.067Z</time></trkpt><trkpt lat="42.1843871" lon="14.1942886"><ele>541.0</ele><time>2026-05-01T11:19:01.054Z</time></trkpt><trkpt lat="42.1843189" lon="14.1942808"><ele>541.0</ele><time>2026-05-01T11:19:13.067Z</time></trkpt><trkpt lat="42.1842616" lon="14.1941776"><ele>541.0</ele><time>2026-05-01T11:19:16.059Z</time></trkpt><trkpt lat="42.184239" lon="14.1940126"><ele>541.0</ele><time>2026-05-01T11:19:18.051Z</time></trkpt><trkpt lat="42.1842041" lon="14.1938749"><ele>541.0</ele><time>2026-05-01T11:19:20.058Z</time></trkpt><trkpt lat="42.1841924" lon="14.1937902"><ele>541.0</ele><time>2026-05-01T11:19:21.057Z</time></trkpt><trkpt lat="42.1841884" lon="14.1936837"><ele>541.0</ele><time>2026-05-01T11:19:23.07Z</time></trkpt><trkpt lat="42.1841243" lon="14.1937497"><ele>541.0</ele><time>2026-05-01T11:19:34.06Z</time></trkpt><trkpt lat="42.1840905" lon="14.1938897"><ele>541.0</ele><time>2026-05-01T11:19:36.056Z</time></trkpt><trkpt lat="42.184079" lon="14.1939805"><ele>541.0</ele><time>2026-05-01T11:19:37.059Z</time></trkpt><trkpt lat="42.1840675" lon="14.1940894"><ele>540.3333333333334</ele><time>2026-05-01T11:19:38.062Z</time></trkpt><trkpt lat="42.1840633" lon="14.1941744"><ele>539.6666666666667</ele><time>2026-05-01T11:19:39.054Z</time></trkpt><trkpt lat="42.1840596" lon="14.1942827"><ele>539.0</ele><time>2026-05-01T11:19:41.061Z</time></trkpt><trkpt lat="42.1840723" lon="14.1943688"><ele>538.3333333333334</ele><time>2026-05-01T11:19:43.068Z</time></trkpt><trkpt lat="42.1841184" lon="14.1944836"><ele>537.6666666666666</ele><time>2026-05-01T11:19:45.078Z</time></trkpt><trkpt lat="42.1841884" lon="14.1945947"><ele>537.0</ele><time>2026-05-01T11:19:47.058Z</time></trkpt><trkpt lat="42.1842406" lon="14.1946529"><ele>541.0</ele><time>2026-05-01T11:19:48.058Z</time></trkpt><trkpt lat="42.1842041" lon="14.1938749"><ele>541.0</ele><time>2026-05-01T11:19:20.058Z</time></trkpt><trkpt lat="42.1841924" lon="14.1937902"><ele>541.0</ele><time>2026-05-01T11:19:21.057Z</time></trkpt><trkpt lat="42.1841884" lon="14.1936837"><ele>541.0</ele><time>2026-05-01T11:19:23.07Z</time></trkpt><trkpt lat="42.1841243" lon="14.1937497"><ele>541.0</ele><time>2026-05-01T11:19:34.06Z</time></trkpt><trkpt lat="42.1840905" lon="14.1938897"><ele>541.0</ele><time>2026-05-01T11:19:36.056Z</time></trkpt><trkpt lat="42.184079" lon="14.1939805"><ele>541.0</ele><time>2026-05-01T11:19:37.059Z</time></trkpt><trkpt lat="42.1840675" lon="14.1940894"><ele>540.3333333333334</ele><time>2026-05-01T11:19:38.062Z</time></trkpt><trkpt lat="42.1840633" lon="14.1941744"><ele>539.6666666666667</ele><time>2026-05-01T11:19:39.054Z</time></trkpt><trkpt lat="42.1840596" lon="14.1942827"><ele>539.0</ele><time>2026-05-01T11:19:41.061Z</time></trkpt><trkpt lat="42.1840723" lon="14.1943688"><ele>538.3333333333334</ele><time>2026-05-01T11:19:43.068Z</time></trkpt><trkpt lat="42.1841184" lon="14.1944836"><ele>537.6666666666666</ele><time>2026-05-01T11:19:45.078Z</time></trkpt><trkpt lat="42.1841884" lon="14.1945947"><ele>537.0</ele><time>2026-05-01T11:19:47.058Z</time></trkpt><trkpt lat="42.1842406" lon="14.1946529"><ele>537.0</ele><time>2026-05-01T11:19:48.058Z</time></trkpt><trkpt lat="42.1843056" lon="14.1947331"><ele>537.0</ele><time>2026-05-01T11:19:50.059Z</time></trkpt><trkpt lat="42.1842247" lon="14.1947553"><ele>537.0</ele><time>2026-05-01T11:19:55.056Z</time></trkpt><trkpt lat="42.1841397" lon="14.1947881"><ele>537.0</ele><time>2026-05-01T11:19:58.056Z</time></trkpt><trkpt lat="42.1841884" lon="14.1948654"><ele>537.0</ele><time>2026-05-01T11:20:00.048Z</time></trkpt><trkpt lat="42.1842557" lon="14.1949272"><ele>537.0</ele><time>2026-05-01T11:20:01.055Z</time></trkpt><trkpt lat="42.1842997" lon="14.1950168"><ele>535.3333333333334</ele><time>2026-05-01T11:20:03.069Z</time></trkpt><trkpt lat="42.1842819" lon="14.1951215"><ele>533.6666666666666</ele><time>2026-05-01T11:20:06.049Z</time></trkpt><trkpt lat="42.1843378" lon="14.1951637"><ele>532.0</ele><time>2026-05-01T11:20:08.049Z</time></trkpt><trkpt lat="42.1844461" lon="14.1952589"><ele>530.3333333333333</ele><time>2026-05-01T11:20:10.05Z</time></trkpt><trkpt lat="42.1845116" lon="14.1953026"><ele>528.6666666666666</ele><time>2026-05-01T11:20:11.052Z</time></trkpt><trkpt lat="42.1845957" lon="14.1953711"><ele>527.0</ele><time>2026-05-01T11:20:12.056Z</time></trkpt><trkpt lat="42.1846841" lon="14.1954734"><ele>527.0</ele><time>2026-05-01T11:20:13.055Z</time></trkpt><trkpt lat="42.1847686" lon="14.1955811"><ele>527.0</ele><time>2026-05-01T11:20:14.059Z</time></trkpt><trkpt lat="42.1848553" lon="14.1957016"><ele>527.0</ele><time>2026-05-01T11:20:15.052Z</time></trkpt><trkpt lat="42.1849389" lon="14.1958003"><ele>527.0</ele><time>2026-05-01T11:20:16.055Z</time></trkpt><trkpt lat="42.1850029" lon="14.1958868"><ele>527.0</ele><time>2026-05-01T11:20:17.059Z</time></trkpt><trkpt lat="42.1850667" lon="14.195964"><ele>526.0</ele><time>2026-05-01T11:20:18.055Z</time></trkpt><trkpt lat="42.1851141" lon="14.196049"><ele>525.0</ele><time>2026-05-01T11:20:19.051Z</time></trkpt><trkpt lat="42.1851458" lon="14.1961639"><ele>524.0</ele><time>2026-05-01T11:20:20.052Z</time></trkpt><trkpt lat="42.1851731" lon="14.1963011"><ele>523.0</ele><time>2026-05-01T11:20:21.061Z</time></trkpt><trkpt lat="42.1851971" lon="14.1964529"><ele>522.0</ele><time>2026-05-01T11:20:22.063Z</time></trkpt><trkpt lat="42.1852263" lon="14.1965982"><ele>524.0</ele><time>2026-05-01T11:20:23.056Z</time></trkpt><trkpt lat="42.1852523" lon="14.1967351"><ele>526.0</ele><time>2026-05-01T11:20:24.051Z</time></trkpt><trkpt lat="42.185274" lon="14.1968726"><ele>528.0</ele><time>2026-05-01T11:20:25.049Z</time></trkpt><trkpt lat="42.1852896" lon="14.1970183"><ele>530.0</ele><time>2026-05-01T11:20:26.053Z</time></trkpt><trkpt lat="42.1852973" lon="14.1971705"><ele>532.0</ele><time>2026-05-01T11:20:27.058Z</time></trkpt><trkpt lat="42.1853111" lon="14.1973115"><ele>534.5</ele><time>2026-05-01T11:20:28.058Z</time></trkpt><trkpt lat="42.1853307" lon="14.1974467"><ele>537.0</ele><time>2026-05-01T11:20:29.051Z</time></trkpt><trkpt lat="42.1853457" lon="14.1975913"><ele>539.5</ele><time>2026-05-01T11:20:30.056Z</time></trkpt><trkpt lat="42.185359" lon="14.1977556"><ele>542.0</ele><time>2026-05-01T11:20:31.06Z</time></trkpt><trkpt lat="42.1853715" lon="14.1979336"><ele>542.0</ele><time>2026-05-01T11:20:32.062Z</time></trkpt><trkpt lat="42.1853768" lon="14.1981082"><ele>542.0</ele><time>2026-05-01T11:20:33.049Z</time></trkpt><trkpt lat="42.1853894" lon="14.1982458"><ele>542.0</ele><time>2026-05-01T11:20:34.062Z</time></trkpt><trkpt lat="42.1854188" lon="14.198368"><ele>542.0</ele><time>2026-05-01T11:20:35.057Z</time></trkpt><trkpt lat="42.1854629" lon="14.1985098"><ele>542.0</ele><time>2026-05-01T11:20:36.054Z</time></trkpt><trkpt lat="42.1855108" lon="14.1986677"><ele>542.0</ele><time>2026-05-01T11:20:37.055Z</time></trkpt><trkpt lat="42.185549" lon="14.198811"><ele>542.0</ele><time>2026-05-01T11:20:38.058Z</time></trkpt><trkpt lat="42.1855782" lon="14.1989341"><ele>542.0</ele><time>2026-05-01T11:20:39.057Z</time></trkpt><trkpt lat="42.1856128" lon="14.1990483"><ele>542.0</ele><time>2026-05-01T11:20:40.078Z</time></trkpt><trkpt lat="42.1856574" lon="14.1991855"><ele>542.0</ele><time>2026-05-01T11:20:41.06Z</time></trkpt><trkpt lat="42.1857088" lon="14.1993467"><ele>542.0</ele><time>2026-05-01T11:20:42.06Z</time></trkpt><trkpt lat="42.1857593" lon="14.1995028"><ele>542.0</ele><time>2026-05-01T11:20:43.055Z</time></trkpt><trkpt lat="42.1858024" lon="14.1996247"><ele>542.0</ele><time>2026-05-01T11:20:44.062Z</time></trkpt><trkpt lat="42.1858388" lon="14.1997145"><ele>542.0</ele><time>2026-05-01T11:20:45.058Z</time></trkpt><trkpt lat="42.1858837" lon="14.1998347"><ele>542.0</ele><time>2026-05-01T11:20:47.063Z</time></trkpt><trkpt lat="42.1859335" lon="14.2000053"><ele>543.8000000000001</ele><time>2026-05-01T11:20:49.06Z</time></trkpt><trkpt lat="42.1859511" lon="14.2000888"><ele>545.6</ele><time>2026-05-01T11:20:50.064Z</time></trkpt><trkpt lat="42.1859744" lon="14.2002401"><ele>547.4000000000001</ele><time>2026-05-01T11:20:52.069Z</time></trkpt><trkpt lat="42.185999" lon="14.200371"><ele>549.2</ele><time>2026-05-01T11:20:54.053Z</time></trkpt><trkpt lat="42.1860176" lon="14.2005142"><ele>551.0</ele><time>2026-05-01T11:20:56.066Z</time></trkpt><trkpt lat="42.1860337" lon="14.2006319"><ele>550.0</ele><time>2026-05-01T11:20:58.071Z</time></trkpt><trkpt lat="42.1860535" lon="14.2007541"><ele>549.0</ele><time>2026-05-01T11:21:00.056Z</time></trkpt><trkpt lat="42.1860699" lon="14.200837"><ele>548.0</ele><time>2026-05-01T11:21:01.072Z</time></trkpt><trkpt lat="42.1860899" lon="14.2009419"><ele>547.0</ele><time>2026-05-01T11:21:02.065Z</time></trkpt><trkpt lat="42.1861155" lon="14.2010727"><ele>546.0</ele><time>2026-05-01T11:21:03.062Z</time></trkpt><trkpt lat="42.1861485" lon="14.2012206"><ele>546.0</ele><time>2026-05-01T11:21:04.077Z</time></trkpt><trkpt lat="42.1861961" lon="14.201373"><ele>546.0</ele><time>2026-05-01T11:21:05.053Z</time></trkpt><trkpt lat="42.1862657" lon="14.2015262"><ele>546.0</ele><time>2026-05-01T11:21:06.061Z</time></trkpt><trkpt lat="42.1863519" lon="14.2016834"><ele>546.0</ele><time>2026-05-01T11:21:07.058Z</time></trkpt><trkpt lat="42.1864529" lon="14.2018218"><ele>545.3333333333334</ele><time>2026-05-01T11:21:08.051Z</time></trkpt><trkpt lat="42.1865583" lon="14.20196"><ele>544.6666666666667</ele><time>2026-05-01T11:21:09.07Z</time></trkpt><trkpt lat="42.1866693" lon="14.202094"><ele>544.0</ele><time>2026-05-01T11:21:10.058Z</time></trkpt><trkpt lat="42.1867884" lon="14.2022327"><ele>541.6666666666667</ele><time>2026-05-01T11:21:11.063Z</time></trkpt><trkpt lat="42.1869126" lon="14.2023745"><ele>539.3333333333334</ele><time>2026-05-01T11:21:12.063Z</time></trkpt><trkpt lat="42.1870386" lon="14.2025302"><ele>537.0</ele><time>2026-05-01T11:21:13.057Z</time></trkpt><trkpt lat="42.1871674" lon="14.2026894"><ele>537.0</ele><time>2026-05-01T11:21:14.06Z</time></trkpt><trkpt lat="42.1872973" lon="14.2028489"><ele>537.0</ele><time>2026-05-01T11:21:15.064Z</time></trkpt><trkpt lat="42.1874207" lon="14.2029963"><ele>537.0</ele><time>2026-05-01T11:21:16.051Z</time></trkpt><trkpt lat="42.187542" lon="14.2031474"><ele>540.6666666666666</ele><time>2026-05-01T11:21:17.064Z</time></trkpt><trkpt lat="42.1876613" lon="14.2032977"><ele>544.3333333333333</ele><time>2026-05-01T11:21:18.062Z</time></trkpt><trkpt lat="42.1877801" lon="14.203439"><ele>548.0</ele><time>2026-05-01T11:21:19.06Z</time></trkpt><trkpt lat="42.1878965" lon="14.2035792"><ele>548.0</ele><time>2026-05-01T11:21:20.057Z</time></trkpt><trkpt lat="42.1880105" lon="14.2037202"><ele>548.0</ele><time>2026-05-01T11:21:21.052Z</time></trkpt><trkpt lat="42.1881159" lon="14.2038673"><ele>548.0</ele><time>2026-05-01T11:21:22.059Z</time></trkpt><trkpt lat="42.1882283" lon="14.2040181"><ele>550.0</ele><time>2026-05-01T11:21:23.056Z</time></trkpt><trkpt lat="42.1883356" lon="14.2041695"><ele>552.0</ele><time>2026-05-01T11:21:24.063Z</time></trkpt><trkpt lat="42.1884377" lon="14.2043282"><ele>554.0</ele><time>2026-05-01T11:21:25.061Z</time></trkpt><trkpt lat="42.1885179" lon="14.2045098"><ele>554.0</ele><time>2026-05-01T11:21:26.058Z</time></trkpt><trkpt lat="42.1885891" lon="14.204699"><ele>554.0</ele><time>2026-05-01T11:21:27.065Z</time></trkpt><trkpt lat="42.1886587" lon="14.2049076"><ele>554.0</ele><time>2026-05-01T11:21:28.066Z</time></trkpt><trkpt lat="42.1887268" lon="14.2051196"><ele>552.3333333333333</ele><time>2026-05-01T11:21:29.068Z</time></trkpt><trkpt lat="42.1887943" lon="14.2053368"><ele>550.6666666666666</ele><time>2026-05-01T11:21:30.054Z</time></trkpt><trkpt lat="42.1888667" lon="14.205534"><ele>549.0</ele><time>2026-05-01T11:21:31.055Z</time></trkpt><trkpt lat="42.1889525" lon="14.2056963"><ele>551.3333333333334</ele><time>2026-05-01T11:21:32.059Z</time></trkpt><trkpt lat="42.1890647" lon="14.205826"><ele>553.6666666666667</ele><time>2026-05-01T11:21:33.058Z</time></trkpt><trkpt lat="42.1892008" lon="14.2059261"><ele>556.0</ele><time>2026-05-01T11:21:34.056Z</time></trkpt><trkpt lat="42.1893444" lon="14.2060108"><ele>556.0</ele><time>2026-05-01T11:21:35.057Z</time></trkpt><trkpt lat="42.1894587" lon="14.2061305"><ele>556.0</ele><time>2026-05-01T11:21:36.058Z</time></trkpt><trkpt lat="42.1895316" lon="14.2062826"><ele>556.0</ele><time>2026-05-01T11:21:37.056Z</time></trkpt><trkpt lat="42.1895922" lon="14.2064445"><ele>556.0</ele><time>2026-05-01T11:21:38.06Z</time></trkpt><trkpt lat="42.1896505" lon="14.2066086"><ele>558.25</ele><time>2026-05-01T11:21:39.058Z</time></trkpt><trkpt lat="42.1897084" lon="14.2067715"><ele>560.5</ele><time>2026-05-01T11:21:40.059Z</time></trkpt><trkpt lat="42.1897624" lon="14.2069235"><ele>562.75</ele><time>2026-05-01T11:21:41.053Z</time></trkpt><trkpt lat="42.1898037" lon="14.2070636"><ele>565.0</ele><time>2026-05-01T11:21:42.057Z</time></trkpt><trkpt lat="42.1898222" lon="14.2072162"><ele>566.0</ele><time>2026-05-01T11:21:43.053Z</time></trkpt><trkpt lat="42.1898152" lon="14.2073643"><ele>567.0</ele><time>2026-05-01T11:21:44.05Z</time></trkpt><trkpt lat="42.1897848" lon="14.207505"><ele>568.0</ele><time>2026-05-01T11:21:45.061Z</time></trkpt><trkpt lat="42.1897445" lon="14.2076364"><ele>569.0</ele><time>2026-05-01T11:21:46.065Z</time></trkpt><trkpt lat="42.1897012" lon="14.2077667"><ele>570.0</ele><time>2026-05-01T11:21:47.062Z</time></trkpt><trkpt lat="42.1896642" lon="14.2078912"><ele>570.0</ele><time>2026-05-01T11:21:48.055Z</time></trkpt><trkpt lat="42.1896272" lon="14.2080108"><ele>570.0</ele><time>2026-05-01T11:21:49.066Z</time></trkpt><trkpt lat="42.1895906" lon="14.2081244"><ele>570.0</ele><time>2026-05-01T11:21:50.06Z</time></trkpt><trkpt lat="42.1895498" lon="14.2082327"><ele>570.0</ele><time>2026-05-01T11:21:51.063Z</time></trkpt><trkpt lat="42.1895158" lon="14.2083294"><ele>570.0</ele><time>2026-05-01T11:21:52.05Z</time></trkpt><trkpt lat="42.1894835" lon="14.208426"><ele>570.0</ele><time>2026-05-01T11:21:53.056Z</time></trkpt><trkpt lat="42.1894523" lon="14.2085159"><ele>570.1666666666666</ele><time>2026-05-01T11:21:54.067Z</time></trkpt><trkpt lat="42.1894296" lon="14.2086011"><ele>570.3333333333334</ele><time>2026-05-01T11:21:55.062Z</time></trkpt><trkpt lat="42.1894039" lon="14.2086804"><ele>570.5</ele><time>2026-05-01T11:21:56.068Z</time></trkpt><trkpt lat="42.1893587" lon="14.2088418"><ele>570.6666666666667</ele><time>2026-05-01T11:21:58.056Z</time></trkpt><trkpt lat="42.189327" lon="14.2089374"><ele>570.8333333333334</ele><time>2026-05-01T11:21:59.056Z</time></trkpt><trkpt lat="42.1892913" lon="14.2090456"><ele>571.0</ele><time>2026-05-01T11:22:00.056Z</time></trkpt><trkpt lat="42.1892571" lon="14.2091617"><ele>570.3333333333334</ele><time>2026-05-01T11:22:01.063Z</time></trkpt><trkpt lat="42.1892184" lon="14.2092697"><ele>569.6666666666667</ele><time>2026-05-01T11:22:02.064Z</time></trkpt><trkpt lat="42.189197" lon="14.2093629"><ele>569.0</ele><time>2026-05-01T11:22:03.058Z</time></trkpt><trkpt lat="42.1892674" lon="14.2094677"><ele>568.3333333333334</ele><time>2026-05-01T11:22:05.052Z</time></trkpt><trkpt lat="42.1893388" lon="14.2094472"><ele>567.6666666666666</ele><time>2026-05-01T11:22:06.053Z</time></trkpt><trkpt lat="42.1894151" lon="14.2093763"><ele>567.0</ele><time>2026-05-01T11:22:07.066Z</time></trkpt><trkpt lat="42.1894819" lon="14.2092547"><ele>567.0</ele><time>2026-05-01T11:22:08.063Z</time></trkpt><trkpt lat="42.1895208" lon="14.209078"><ele>567.0</ele><time>2026-05-01T11:22:09.057Z</time></trkpt><trkpt lat="42.1895788" lon="14.2089034"><ele>567.0</ele><time>2026-05-01T11:22:10.06Z</time></trkpt><trkpt lat="42.1896811" lon="14.2087536"><ele>567.0</ele><time>2026-05-01T11:22:11.06Z</time></trkpt><trkpt lat="42.1897988" lon="14.2085931"><ele>564.6666666666666</ele><time>2026-05-01T11:22:12.059Z</time></trkpt><trkpt lat="42.1898821" lon="14.2083942"><ele>562.3333333333333</ele><time>2026-05-01T11:22:13.066Z</time></trkpt><trkpt lat="42.1899231" lon="14.2081607"><ele>560.0</ele><time>2026-05-01T11:22:14.059Z</time></trkpt><trkpt lat="42.1900147" lon="14.2079383"><ele>560.0</ele><time>2026-05-01T11:22:15.04Z</time></trkpt><trkpt lat="42.1901241" lon="14.2077532"><ele>560.0</ele><time>2026-05-01T11:22:16.06Z</time></trkpt><trkpt lat="42.1902027" lon="14.2075705"><ele>560.0</ele><time>2026-05-01T11:22:17.045Z</time></trkpt><trkpt lat="42.190237" lon="14.2073687"><ele>558.75</ele><time>2026-05-01T11:22:18.052Z</time></trkpt><trkpt lat="42.1902374" lon="14.2071921"><ele>557.5</ele><time>2026-05-01T11:22:19.058Z</time></trkpt><trkpt lat="42.1901869" lon="14.2070093"><ele>556.25</ele><time>2026-05-01T11:22:20.061Z</time></trkpt><trkpt lat="42.1901187" lon="14.2068235"><ele>555.0</ele><time>2026-05-01T11:22:21.053Z</time></trkpt><trkpt lat="42.1900403" lon="14.2066234"><ele>555.3333333333334</ele><time>2026-05-01T11:22:22.056Z</time></trkpt><trkpt lat="42.1899468" lon="14.2064186"><ele>555.6666666666667</ele><time>2026-05-01T11:22:23.057Z</time></trkpt><trkpt lat="42.1898517" lon="14.2062144"><ele>556.0</ele><time>2026-05-01T11:22:24.055Z</time></trkpt><trkpt lat="42.1897665" lon="14.2060459"><ele>556.0</ele><time>2026-05-01T11:22:25.054Z</time></trkpt><trkpt lat="42.189687" lon="14.2059184"><ele>556.0</ele><time>2026-05-01T11:22:26.052Z</time></trkpt><trkpt lat="42.1896412" lon="14.2058155"><ele>556.0</ele><time>2026-05-01T11:22:27.049Z</time></trkpt><trkpt lat="42.1896332" lon="14.205684"><ele>556.0</ele><time>2026-05-01T11:22:29.058Z</time></trkpt><trkpt lat="42.1897329" lon="14.2056327"><ele>556.0</ele><time>2026-05-01T11:22:31.056Z</time></trkpt><trkpt lat="42.1898292" lon="14.2056629"><ele>552.75</ele><time>2026-05-01T11:22:32.058Z</time></trkpt><trkpt lat="42.1899431" lon="14.2057117"><ele>549.5</ele><time>2026-05-01T11:22:33.056Z</time></trkpt><trkpt lat="42.1900663" lon="14.2057922"><ele>546.25</ele><time>2026-05-01T11:22:34.051Z</time></trkpt><trkpt lat="42.1901732" lon="14.2059165"><ele>543.0</ele><time>2026-05-01T11:22:35.06Z</time></trkpt><trkpt lat="42.190261" lon="14.2060702"><ele>543.0</ele><time>2026-05-01T11:22:36.054Z</time></trkpt><trkpt lat="42.19034" lon="14.206246"><ele>543.0</ele><time>2026-05-01T11:22:37.058Z</time></trkpt><trkpt lat="42.1904073" lon="14.2064551"><ele>543.0</ele><time>2026-05-01T11:22:38.048Z</time></trkpt><trkpt lat="42.1904582" lon="14.2066808"><ele>547.0</ele><time>2026-05-01T11:22:39.055Z</time></trkpt><trkpt lat="42.1905007" lon="14.2069237"><ele>551.0</ele><time>2026-05-01T11:22:40.057Z</time></trkpt><trkpt lat="42.1905301" lon="14.2071754"><ele>555.0</ele><time>2026-05-01T11:22:41.055Z</time></trkpt><trkpt lat="42.1905431" lon="14.2074291"><ele>556.25</ele><time>2026-05-01T11:22:42.054Z</time></trkpt><trkpt lat="42.1905547" lon="14.2076569"><ele>557.5</ele><time>2026-05-01T11:22:43.061Z</time></trkpt><trkpt lat="42.1905565" lon="14.2078372"><ele>558.75</ele><time>2026-05-01T11:22:44.053Z</time></trkpt><trkpt lat="42.1905545" lon="14.2079637"><ele>560.0</ele><time>2026-05-01T11:22:45.061Z</time></trkpt><trkpt lat="42.1906026" lon="14.208081"><ele>560.0</ele><time>2026-05-01T11:22:47.064Z</time></trkpt><trkpt lat="42.1906734" lon="14.2081058"><ele>560.0</ele><time>2026-05-01T11:22:48.062Z</time></trkpt><trkpt lat="42.190776" lon="14.20811"><ele>560.0</ele><time>2026-05-01T11:22:49.061Z</time></trkpt><trkpt lat="42.1909077" lon="14.2081104"><ele>560.0</ele><time>2026-05-01T11:22:50.063Z</time></trkpt><trkpt lat="42.1910679" lon="14.208129"><ele>551.3333333333333</ele><time>2026-05-01T11:22:51.064Z</time></trkpt><trkpt lat="42.1912368" lon="14.2081516"><ele>542.6666666666666</ele><time>2026-05-01T11:22:52.058Z</time></trkpt><trkpt lat="42.1914205" lon="14.2081655"><ele>534.0</ele><time>2026-05-01T11:22:53.065Z</time></trkpt><trkpt lat="42.1916091" lon="14.2081664"><ele>531.0</ele><time>2026-05-01T11:22:54.065Z</time></trkpt><trkpt lat="42.1917903" lon="14.2081745"><ele>528.0</ele><time>2026-05-01T11:22:55.052Z</time></trkpt><trkpt lat="42.1919416" lon="14.2081792"><ele>525.0</ele><time>2026-05-01T11:22:56.053Z</time></trkpt><trkpt lat="42.19208" lon="14.2081833"><ele>525.0</ele><time>2026-05-01T11:22:57.051Z</time></trkpt><trkpt lat="42.1922135" lon="14.2081807"><ele>525.0</ele><time>2026-05-01T11:22:58.066Z</time></trkpt><trkpt lat="42.1923544" lon="14.2081621"><ele>525.0</ele><time>2026-05-01T11:22:59.063Z</time></trkpt><trkpt lat="42.192496" lon="14.2081366"><ele>525.0</ele><time>2026-05-01T11:23:00.057Z</time></trkpt><trkpt lat="42.1926269" lon="14.2081056"><ele>521.75</ele><time>2026-05-01T11:23:01.062Z</time></trkpt><trkpt lat="42.1927545" lon="14.2080724"><ele>518.5</ele><time>2026-05-01T11:23:02.061Z</time></trkpt><trkpt lat="42.1928814" lon="14.2080477"><ele>515.25</ele><time>2026-05-01T11:23:03.063Z</time></trkpt><trkpt lat="42.1930129" lon="14.2080258"><ele>512.0</ele><time>2026-05-01T11:23:04.059Z</time></trkpt><trkpt lat="42.1931435" lon="14.2080137"><ele>509.3333333333333</ele><time>2026-05-01T11:23:05.062Z</time></trkpt><trkpt lat="42.1932726" lon="14.208005"><ele>506.66666666666663</ele><time>2026-05-01T11:23:06.067Z</time></trkpt><trkpt lat="42.1934264" lon="14.208021"><ele>504.0</ele><time>2026-05-01T11:23:07.078Z</time></trkpt><trkpt lat="42.1936057" lon="14.2080452"><ele>504.0</ele><time>2026-05-01T11:23:08.061Z</time></trkpt><trkpt lat="42.1937792" lon="14.208077"><ele>504.0</ele><time>2026-05-01T11:23:09.064Z</time></trkpt><trkpt lat="42.1939463" lon="14.2081062"><ele>504.0</ele><time>2026-05-01T11:23:10.067Z</time></trkpt><trkpt lat="42.1941012" lon="14.2081419"><ele>501.75</ele><time>2026-05-01T11:23:11.066Z</time></trkpt><trkpt lat="42.1942366" lon="14.2082026"><ele>499.5</ele><time>2026-05-01T11:23:12.069Z</time></trkpt><trkpt lat="42.1943595" lon="14.2082801"><ele>497.25</ele><time>2026-05-01T11:23:13.058Z</time></trkpt><trkpt lat="42.1944794" lon="14.2083832"><ele>495.0</ele><time>2026-05-01T11:23:14.057Z</time></trkpt><trkpt lat="42.1946064" lon="14.2085203"><ele>495.0</ele><time>2026-05-01T11:23:15.058Z</time></trkpt><trkpt lat="42.1947305" lon="14.208669"><ele>495.0</ele><time>2026-05-01T11:23:16.056Z</time></trkpt><trkpt lat="42.1948336" lon="14.2087951"><ele>495.0</ele><time>2026-05-01T11:23:17.051Z</time></trkpt><trkpt lat="42.194921" lon="14.2088977"><ele>495.0</ele><time>2026-05-01T11:23:18.056Z</time></trkpt><trkpt lat="42.1949891" lon="14.2089619"><ele>492.0</ele><time>2026-05-01T11:23:19.055Z</time></trkpt><trkpt lat="42.1950567" lon="14.2089803"><ele>489.0</ele><time>2026-05-01T11:23:20.056Z</time></trkpt><trkpt lat="42.1951283" lon="14.2089639"><ele>486.0</ele><time>2026-05-01T11:23:21.06Z</time></trkpt><trkpt lat="42.1952275" lon="14.2089129"><ele>483.0</ele><time>2026-05-01T11:23:22.059Z</time></trkpt><trkpt lat="42.1953548" lon="14.2088341"><ele>480.0</ele><time>2026-05-01T11:23:23.07Z</time></trkpt><trkpt lat="42.1954854" lon="14.2087324"><ele>480.0</ele><time>2026-05-01T11:23:24.059Z</time></trkpt><trkpt lat="42.195621" lon="14.2086205"><ele>480.0</ele><time>2026-05-01T11:23:25.087Z</time></trkpt><trkpt lat="42.1957377" lon="14.2084957"><ele>480.0</ele><time>2026-05-01T11:23:26.064Z</time></trkpt><trkpt lat="42.195844" lon="14.2083881"><ele>480.0</ele><time>2026-05-01T11:23:27.055Z</time></trkpt><trkpt lat="42.1959513" lon="14.2083191"><ele>478.8</ele><time>2026-05-01T11:23:28.071Z</time></trkpt><trkpt lat="42.1960475" lon="14.208305"><ele>477.6</ele><time>2026-05-01T11:23:29.059Z</time></trkpt><trkpt lat="42.1961465" lon="14.2083301"><ele>476.4</ele><time>2026-05-01T11:23:30.069Z</time></trkpt><trkpt lat="42.196259" lon="14.2083365"><ele>475.2</ele><time>2026-05-01T11:23:31.064Z</time></trkpt><trkpt lat="42.1963787" lon="14.2083086"><ele>474.0</ele><time>2026-05-01T11:23:32.061Z</time></trkpt><trkpt lat="42.1965206" lon="14.2082616"><ele>469.66666666666663</ele><time>2026-05-01T11:23:33.049Z</time></trkpt><trkpt lat="42.1966874" lon="14.2082076"><ele>465.3333333333333</ele><time>2026-05-01T11:23:34.05Z</time></trkpt><trkpt lat="42.1968395" lon="14.2081643"><ele>461.0</ele><time>2026-05-01T11:23:35.054Z</time></trkpt><trkpt lat="42.1969846" lon="14.2081014"><ele>459.0</ele><time>2026-05-01T11:23:36.061Z</time></trkpt><trkpt lat="42.1970998" lon="14.2080487"><ele>457.0</ele><time>2026-05-01T11:23:37.054Z</time></trkpt><trkpt lat="42.1972212" lon="14.2080281"><ele>455.0</ele><time>2026-05-01T11:23:38.058Z</time></trkpt><trkpt lat="42.1973407" lon="14.2080457"><ele>453.0</ele><time>2026-05-01T11:23:39.063Z</time></trkpt><trkpt lat="42.1974519" lon="14.2080859"><ele>452.0</ele><time>2026-05-01T11:23:40.059Z</time></trkpt><trkpt lat="42.1975756" lon="14.208156"><ele>451.0</ele><time>2026-05-01T11:23:41.058Z</time></trkpt><trkpt lat="42.1977087" lon="14.2082141"><ele>450.0</ele><time>2026-05-01T11:23:42.044Z</time></trkpt><trkpt lat="42.1978557" lon="14.2082828"><ele>449.0</ele><time>2026-05-01T11:23:43.052Z</time></trkpt><trkpt lat="42.1980221" lon="14.208332"><ele>444.0</ele><time>2026-05-01T11:23:44.048Z</time></trkpt><trkpt lat="42.1981752" lon="14.2083755"><ele>439.0</ele><time>2026-05-01T11:23:45.059Z</time></trkpt><trkpt lat="42.1983287" lon="14.2084147"><ele>434.0</ele><time>2026-05-01T11:23:46.052Z</time></trkpt><trkpt lat="42.1984878" lon="14.208447"><ele>434.0</ele><time>2026-05-01T11:23:47.05Z</time></trkpt><trkpt lat="42.1986328" lon="14.2084491"><ele>434.0</ele><time>2026-05-01T11:23:48.057Z</time></trkpt><trkpt lat="42.1987709" lon="14.2084498"><ele>434.0</ele><time>2026-05-01T11:23:49.055Z</time></trkpt><trkpt lat="42.198878" lon="14.2084562"><ele>434.0</ele><time>2026-05-01T11:23:50.056Z</time></trkpt><trkpt lat="42.198951" lon="14.2084651"><ele>431.6</ele><time>2026-05-01T11:23:51.059Z</time></trkpt><trkpt lat="42.1990537" lon="14.2084207"><ele>429.2</ele><time>2026-05-01T11:23:53.06Z</time></trkpt><trkpt lat="42.199073" lon="14.2082644"><ele>426.8</ele><time>2026-05-01T11:23:55.057Z</time></trkpt><trkpt lat="42.1990413" lon="14.2081451"><ele>424.40000000000003</ele><time>2026-05-01T11:23:56.049Z</time></trkpt><trkpt lat="42.1990044" lon="14.2080256"><ele>422.0</ele><time>2026-05-01T11:23:57.052Z</time></trkpt><trkpt lat="42.1989783" lon="14.2079205"><ele>422.0</ele><time>2026-05-01T11:23:58.052Z</time></trkpt><trkpt lat="42.1989758" lon="14.2078093"><ele>422.0</ele><time>2026-05-01T11:23:59.06Z</time></trkpt><trkpt lat="42.1989681" lon="14.2076911"><ele>422.0</ele><time>2026-05-01T11:24:00.054Z</time></trkpt><trkpt lat="42.1989881" lon="14.2075545"><ele>422.0</ele><time>2026-05-01T11:24:01.059Z</time></trkpt><trkpt lat="42.1990397" lon="14.2074089"><ele>422.0</ele><time>2026-05-01T11:24:02.052Z</time></trkpt><trkpt lat="42.1990954" lon="14.2072729"><ele>421.66666666666663</ele><time>2026-05-01T11:24:03.056Z</time></trkpt><trkpt lat="42.1991558" lon="14.2071732"><ele>421.3333333333333</ele><time>2026-05-01T11:24:04.057Z</time></trkpt><trkpt lat="42.1992094" lon="14.2070935"><ele>421.0</ele><time>2026-05-01T11:24:05.056Z</time></trkpt><trkpt lat="42.1992608" lon="14.207026"><ele>420.66666666666663</ele><time>2026-05-01T11:24:06.055Z</time></trkpt><trkpt lat="42.1993223" lon="14.2069834"><ele>420.3333333333333</ele><time>2026-05-01T11:24:07.061Z</time></trkpt><trkpt lat="42.1994366" lon="14.2069444"><ele>420.0</ele><time>2026-05-01T11:24:09.058Z</time></trkpt><trkpt lat="42.199516" lon="14.2069584"><ele>420.0</ele><time>2026-05-01T11:24:10.053Z</time></trkpt><trkpt lat="42.1996253" lon="14.2069837"><ele>420.0</ele><time>2026-05-01T11:24:11.061Z</time></trkpt><trkpt lat="42.1997312" lon="14.2070275"><ele>420.0</ele><time>2026-05-01T11:24:12.051Z</time></trkpt><trkpt lat="42.1998352" lon="14.2070932"><ele>420.0</ele><time>2026-05-01T11:24:13.06Z</time></trkpt><trkpt lat="42.1999253" lon="14.2071722"><ele>420.0</ele><time>2026-05-01T11:24:14.06Z</time></trkpt><trkpt lat="42.2000002" lon="14.2072344"><ele>419.8</ele><time>2026-05-01T11:24:15.052Z</time></trkpt><trkpt lat="42.2000671" lon="14.2072692"><ele>419.6</ele><time>2026-05-01T11:24:16.055Z</time></trkpt><trkpt lat="42.2001663" lon="14.2072644"><ele>419.4</ele><time>2026-05-01T11:24:18.054Z</time></trkpt><trkpt lat="42.2002725" lon="14.2073078"><ele>419.2</ele><time>2026-05-01T11:24:20.048Z</time></trkpt><trkpt lat="42.2003579" lon="14.2073498"><ele>419.0</ele><time>2026-05-01T11:24:21.062Z</time></trkpt><trkpt lat="42.2004584" lon="14.2073638"><ele>419.0</ele><time>2026-05-01T11:24:22.063Z</time></trkpt><trkpt lat="42.2005441" lon="14.2073701"><ele>419.0</ele><time>2026-05-01T11:24:23.066Z</time></trkpt><trkpt lat="42.2006631" lon="14.2073866"><ele>419.0</ele><time>2026-05-01T11:24:25.058Z</time></trkpt><trkpt lat="42.2006721" lon="14.2075275"><ele>419.0</ele><time>2026-05-01T11:24:27.062Z</time></trkpt><trkpt lat="42.2006639" lon="14.2076667"><ele>419.0</ele><time>2026-05-01T11:24:29.05Z</time></trkpt><trkpt lat="42.2006812" lon="14.2077701"><ele>419.99999999999994</ele><time>2026-05-01T11:24:31.056Z</time></trkpt><trkpt lat="42.2007468" lon="14.207817"><ele>421.0</ele><time>2026-05-01T11:24:35.055Z</time></trkpt><trkpt lat="42.2008046" lon="14.2078588"><ele>422.0</ele><time>2026-05-01T11:24:37.049Z</time></trkpt><trkpt lat="42.2008792" lon="14.2078649"><ele>423.0</ele><time>2026-05-01T11:24:41.055Z</time></trkpt><trkpt lat="42.2009404" lon="14.2079309"><ele>423.99999999999994</ele><time>2026-05-01T11:24:43.056Z</time></trkpt><trkpt lat="42.2009996" lon="14.2079738"><ele>425.0</ele><time>2026-05-01T11:24:45.061Z</time></trkpt><trkpt lat="42.2009357" lon="14.2078872"><ele>424.99999999999994</ele><time>2026-05-01T11:24:49.053Z</time></trkpt><trkpt lat="42.2008579" lon="14.2078698"><ele>425.0</ele><time>2026-05-01T11:24:50.063Z</time></trkpt><trkpt lat="42.2007795" lon="14.2078765"><ele>425.0</ele><time>2026-05-01T11:24:51.055Z</time></trkpt><trkpt lat="42.2006791" lon="14.2078442"><ele>425.0</ele><time>2026-05-01T11:24:53.054Z</time></trkpt><trkpt lat="42.2006025" lon="14.2078741"><ele>424.99999999999994</ele><time>2026-05-01T11:24:55.055Z</time></trkpt><trkpt lat="42.2005277" lon="14.2079176"><ele>425.0</ele><time>2026-05-01T11:24:58.058Z</time></trkpt><trkpt lat="42.2005188" lon="14.2080983"><ele>422.0</ele><time>2026-05-01T11:25:06.056Z</time></trkpt><trkpt lat="42.2005781" lon="14.2082095"><ele>419.0</ele><time>2026-05-01T11:25:07.052Z</time></trkpt><trkpt lat="42.2006205" lon="14.2083222"><ele>416.0</ele><time>2026-05-01T11:25:09.057Z</time></trkpt><trkpt lat="42.2005907" lon="14.2084957"><ele>413.0</ele><time>2026-05-01T11:25:11.058Z</time></trkpt><trkpt lat="42.2005791" lon="14.2086315"><ele>410.0</ele><time>2026-05-01T11:25:12.067Z</time></trkpt><trkpt lat="42.2005899" lon="14.2087702"><ele>409.99999999999994</ele><time>2026-05-01T11:25:13.062Z</time></trkpt><trkpt lat="42.2005951" lon="14.208897"><ele>410.0</ele><time>2026-05-01T11:25:14.052Z</time></trkpt><trkpt lat="42.2006103" lon="14.2090066"><ele>410.0</ele><time>2026-05-01T11:25:15.058Z</time></trkpt><trkpt lat="42.2006288" lon="14.2091075"><ele>410.0</ele><time>2026-05-01T11:25:16.051Z</time></trkpt><trkpt lat="42.2006539" lon="14.2091998"><ele>409.99999999999994</ele><time>2026-05-01T11:25:17.05Z</time></trkpt><trkpt lat="42.2006725" lon="14.2092894"><ele>410.0</ele><time>2026-05-01T11:25:18.062Z</time></trkpt><trkpt lat="42.2006868" lon="14.209429"><ele>411.2</ele><time>2026-05-01T11:25:20.061Z</time></trkpt><trkpt lat="42.2007731" lon="14.2095237"><ele>412.4</ele><time>2026-05-01T11:25:22.053Z</time></trkpt><trkpt lat="42.20085" lon="14.2095068"><ele>413.6</ele><time>2026-05-01T11:25:23.062Z</time></trkpt><trkpt lat="42.200956" lon="14.2094872"><ele>414.8</ele><time>2026-05-01T11:25:24.061Z</time></trkpt><trkpt lat="42.201072" lon="14.2094504"><ele>416.0</ele><time>2026-05-01T11:25:25.056Z</time></trkpt><trkpt lat="42.2011923" lon="14.2094241"><ele>416.0</ele><time>2026-05-01T11:25:26.053Z</time></trkpt><trkpt lat="42.2013076" lon="14.209424"><ele>416.0</ele><time>2026-05-01T11:25:27.064Z</time></trkpt><trkpt lat="42.2014257" lon="14.2094523"><ele>416.0</ele><time>2026-05-01T11:25:28.054Z</time></trkpt><trkpt lat="42.2015333" lon="14.2094886"><ele>416.0</ele><time>2026-05-01T11:25:29.051Z</time></trkpt><trkpt lat="42.2016141" lon="14.2094903"><ele>416.0</ele><time>2026-05-01T11:25:30.061Z</time></trkpt><trkpt lat="42.2017243" lon="14.2094568"><ele>415.6</ele><time>2026-05-01T11:25:31.068Z</time></trkpt><trkpt lat="42.2018459" lon="14.2094198"><ele>415.20000000000005</ele><time>2026-05-01T11:25:32.045Z</time></trkpt><trkpt lat="42.2019578" lon="14.2093958"><ele>414.79999999999995</ele><time>2026-05-01T11:25:33.056Z</time></trkpt><trkpt lat="42.202052" lon="14.2093882"><ele>414.4</ele><time>2026-05-01T11:25:34.051Z</time></trkpt><trkpt lat="42.2021343" lon="14.20939"><ele>414.0</ele><time>2026-05-01T11:25:35.052Z</time></trkpt><trkpt lat="42.202217" lon="14.209412"><ele>414.0</ele><time>2026-05-01T11:25:36.056Z</time></trkpt><trkpt lat="42.2023112" lon="14.2094566"><ele>414.0</ele><time>2026-05-01T11:25:37.058Z</time></trkpt><trkpt lat="42.2024059" lon="14.209499"><ele>414.0</ele><time>2026-05-01T11:25:38.06Z</time></trkpt><trkpt lat="42.2025021" lon="14.2095514"><ele>414.0</ele><time>2026-05-01T11:25:39.061Z</time></trkpt><trkpt lat="42.2025945" lon="14.2095846"><ele>414.0</ele><time>2026-05-01T11:25:40.054Z</time></trkpt><trkpt lat="42.2026691" lon="14.2095975"><ele>413.4</ele><time>2026-05-01T11:25:41.058Z</time></trkpt><trkpt lat="42.2027513" lon="14.209599"><ele>412.79999999999995</ele><time>2026-05-01T11:25:42.054Z</time></trkpt><trkpt lat="42.2028402" lon="14.2096244"><ele>412.20000000000005</ele><time>2026-05-01T11:25:43.058Z</time></trkpt><trkpt lat="42.2029357" lon="14.2096726"><ele>411.6</ele><time>2026-05-01T11:25:44.052Z</time></trkpt><trkpt lat="42.2030253" lon="14.2097228"><ele>411.0</ele><time>2026-05-01T11:25:45.063Z</time></trkpt><trkpt lat="42.2031058" lon="14.2097578"><ele>410.5</ele><time>2026-05-01T11:25:46.052Z</time></trkpt><trkpt lat="42.2032022" lon="14.2097803"><ele>410.0</ele><time>2026-05-01T11:25:47.064Z</time></trkpt><trkpt lat="42.2033016" lon="14.2098072"><ele>409.5</ele><time>2026-05-01T11:25:48.056Z</time></trkpt><trkpt lat="42.2034284" lon="14.2098198"><ele>409.0</ele><time>2026-05-01T11:25:49.054Z</time></trkpt><trkpt lat="42.2035638" lon="14.2098352"><ele>409.00000000000006</ele><time>2026-05-01T11:25:50.046Z</time></trkpt><trkpt lat="42.2036857" lon="14.2098513"><ele>409.0</ele><time>2026-05-01T11:25:51.05Z</time></trkpt><trkpt lat="42.2037543" lon="14.2098495"><ele>409.0</ele><time>2026-05-01T11:25:52.06Z</time></trkpt><trkpt lat="42.2038348" lon="14.2097866"><ele>409.0</ele><time>2026-05-01T11:25:54.054Z</time></trkpt><trkpt lat="42.2038958" lon="14.2097445"><ele>409.00000000000006</ele><time>2026-05-01T11:25:55.068Z</time></trkpt><trkpt lat="42.2039522" lon="14.2096793"><ele>409.0</ele><time>2026-05-01T11:25:56.059Z</time></trkpt><trkpt lat="42.204009" lon="14.2096022"><ele>408.2</ele><time>2026-05-01T11:25:57.059Z</time></trkpt><trkpt lat="42.2040786" lon="14.2095527"><ele>407.4</ele><time>2026-05-01T11:25:58.067Z</time></trkpt><trkpt lat="42.2041441" lon="14.209533"><ele>406.6</ele><time>2026-05-01T11:25:59.059Z</time></trkpt><trkpt lat="42.2042692" lon="14.2095637"><ele>405.8</ele><time>2026-05-01T11:26:01.053Z</time></trkpt><trkpt lat="42.2043527" lon="14.2096071"><ele>405.0</ele><time>2026-05-01T11:26:02.045Z</time></trkpt><trkpt lat="42.2044361" lon="14.2096639"><ele>405.0</ele><time>2026-05-01T11:26:03.055Z</time></trkpt><trkpt lat="42.2045169" lon="14.2097375"><ele>405.0</ele><time>2026-05-01T11:26:04.052Z</time></trkpt><trkpt lat="42.2045937" lon="14.2098253"><ele>405.0</ele><time>2026-05-01T11:26:05.06Z</time></trkpt><trkpt lat="42.2046672" lon="14.2099186"><ele>405.0</ele><time>2026-05-01T11:26:06.052Z</time></trkpt><trkpt lat="42.204733" lon="14.2100038"><ele>405.0</ele><time>2026-05-01T11:26:07.059Z</time></trkpt><trkpt lat="42.2047872" lon="14.2100839"><ele>403.8333333333333</ele><time>2026-05-01T11:26:08.055Z</time></trkpt><trkpt lat="42.2048448" lon="14.2101569"><ele>402.66666666666663</ele><time>2026-05-01T11:26:09.053Z</time></trkpt><trkpt lat="42.2048987" lon="14.2102323"><ele>401.5</ele><time>2026-05-01T11:26:10.051Z</time></trkpt><trkpt lat="42.2049635" lon="14.2102994"><ele>400.3333333333333</ele><time>2026-05-01T11:26:11.055Z</time></trkpt><trkpt lat="42.2050291" lon="14.2103638"><ele>399.16666666666663</ele><time>2026-05-01T11:26:12.07Z</time></trkpt><trkpt lat="42.2050975" lon="14.2104061"><ele>398.0</ele><time>2026-05-01T11:26:13.061Z</time></trkpt><trkpt lat="42.2051821" lon="14.2104104"><ele>398.0</ele><time>2026-05-01T11:26:14.056Z</time></trkpt><trkpt lat="42.2052885" lon="14.2104185"><ele>398.0</ele><time>2026-05-01T11:26:15.053Z</time></trkpt><trkpt lat="42.2053984" lon="14.2104231"><ele>398.0</ele><time>2026-05-01T11:26:16.051Z</time></trkpt><trkpt lat="42.2055001" lon="14.2104439"><ele>398.0</ele><time>2026-05-01T11:26:17.06Z</time></trkpt><trkpt lat="42.2055788" lon="14.2104828"><ele>398.0</ele><time>2026-05-01T11:26:18.068Z</time></trkpt><trkpt lat="42.2056474" lon="14.2105287"><ele>396.79999999999995</ele><time>2026-05-01T11:26:19.051Z</time></trkpt><trkpt lat="42.205714" lon="14.2105755"><ele>395.6</ele><time>2026-05-01T11:26:20.059Z</time></trkpt><trkpt lat="42.2057909" lon="14.2106314"><ele>394.4</ele><time>2026-05-01T11:26:21.057Z</time></trkpt><trkpt lat="42.2058713" lon="14.2107222"><ele>393.20000000000005</ele><time>2026-05-01T11:26:22.05Z</time></trkpt><trkpt lat="42.2059529" lon="14.2108029"><ele>392.0</ele><time>2026-05-01T11:26:23.068Z</time></trkpt><trkpt lat="42.2060282" lon="14.2108543"><ele>391.99999999999994</ele><time>2026-05-01T11:26:24.053Z</time></trkpt><trkpt lat="42.2060919" lon="14.2108777"><ele>392.0</ele><time>2026-05-01T11:26:25.056Z</time></trkpt><trkpt lat="42.2061621" lon="14.2108862"><ele>392.0</ele><time>2026-05-01T11:26:26.054Z</time></trkpt><trkpt lat="42.2062707" lon="14.2108274"><ele>392.0</ele><time>2026-05-01T11:26:28.056Z</time></trkpt><trkpt lat="42.2063104" lon="14.2107588"><ele>391.99999999999994</ele><time>2026-05-01T11:26:29.061Z</time></trkpt><trkpt lat="42.2063688" lon="14.2106626"><ele>392.0</ele><time>2026-05-01T11:26:30.051Z</time></trkpt><trkpt lat="42.2064311" lon="14.2105696"><ele>391.0</ele><time>2026-05-01T11:26:31.052Z</time></trkpt><trkpt lat="42.2065062" lon="14.2105352"><ele>390.0</ele><time>2026-05-01T11:26:32.053Z</time></trkpt><trkpt lat="42.2066013" lon="14.210515"><ele>389.0</ele><time>2026-05-01T11:26:33.05Z</time></trkpt><trkpt lat="42.206702" lon="14.2105224"><ele>388.0</ele><time>2026-05-01T11:26:34.063Z</time></trkpt><trkpt lat="42.2067725" lon="14.210568"><ele>387.0</ele><time>2026-05-01T11:26:35.05Z</time></trkpt><trkpt lat="42.2068451" lon="14.2106533"><ele>385.5</ele><time>2026-05-01T11:26:36.067Z</time></trkpt><trkpt lat="42.2069459" lon="14.2107697"><ele>384.0</ele><time>2026-05-01T11:26:37.053Z</time></trkpt><trkpt lat="42.2070472" lon="14.2108726"><ele>382.5</ele><time>2026-05-01T11:26:38.061Z</time></trkpt><trkpt lat="42.207136" lon="14.2109667"><ele>381.0</ele><time>2026-05-01T11:26:39.049Z</time></trkpt><trkpt lat="42.2071911" lon="14.2110554"><ele>381.0</ele><time>2026-05-01T11:26:40.055Z</time></trkpt><trkpt lat="42.2072817" lon="14.2111025"><ele>381.0</ele><time>2026-05-01T11:26:42.054Z</time></trkpt><trkpt lat="42.2073484" lon="14.2110994"><ele>381.0</ele><time>2026-05-01T11:26:43.065Z</time></trkpt><trkpt lat="42.207421" lon="14.2111334"><ele>381.0</ele><time>2026-05-01T11:26:44.057Z</time></trkpt><trkpt lat="42.2074811" lon="14.2111882"><ele>381.0</ele><time>2026-05-01T11:26:45.057Z</time></trkpt><trkpt lat="42.2075464" lon="14.2112101"><ele>381.0</ele><time>2026-05-01T11:26:46.05Z</time></trkpt><trkpt lat="42.2076238" lon="14.2112148"><ele>381.0</ele><time>2026-05-01T11:26:47.05Z</time></trkpt><trkpt lat="42.2077133" lon="14.2112131"><ele>381.0</ele><time>2026-05-01T11:26:48.063Z</time></trkpt><trkpt lat="42.207788" lon="14.2112405"><ele>381.0</ele><time>2026-05-01T11:26:49.064Z</time></trkpt><trkpt lat="42.2078666" lon="14.211284"><ele>381.0</ele><time>2026-05-01T11:26:50.05Z</time></trkpt><trkpt lat="42.207941" lon="14.2113317"><ele>381.0</ele><time>2026-05-01T11:26:51.058Z</time></trkpt><trkpt lat="42.2080197" lon="14.2113755"><ele>381.0</ele><time>2026-05-01T11:26:52.05Z</time></trkpt><trkpt lat="42.2081091" lon="14.2114164"><ele>380.6</ele><time>2026-05-01T11:26:53.052Z</time></trkpt><trkpt lat="42.2082121" lon="14.2114634"><ele>380.20000000000005</ele><time>2026-05-01T11:26:54.055Z</time></trkpt><trkpt lat="42.2083274" lon="14.2115234"><ele>379.79999999999995</ele><time>2026-05-01T11:26:55.063Z</time></trkpt><trkpt lat="42.2084211" lon="14.2115622"><ele>379.4</ele><time>2026-05-01T11:26:56.052Z</time></trkpt><trkpt lat="42.2084853" lon="14.2115513"><ele>379.0</ele><time>2026-05-01T11:26:57.07Z</time></trkpt><trkpt lat="42.2085683" lon="14.2115266"><ele>377.66666666666663</ele><time>2026-05-01T11:26:58.054Z</time></trkpt><trkpt lat="42.208658" lon="14.2115295"><ele>376.3333333333333</ele><time>2026-05-01T11:26:59.062Z</time></trkpt><trkpt lat="42.2087444" lon="14.2115652"><ele>375.0</ele><time>2026-05-01T11:27:00.053Z</time></trkpt><trkpt lat="42.2088275" lon="14.2116074"><ele>373.6666666666667</ele><time>2026-05-01T11:27:01.055Z</time></trkpt><trkpt lat="42.2088827" lon="14.2116937"><ele>372.33333333333337</ele><time>2026-05-01T11:27:02.05Z</time></trkpt><trkpt lat="42.2089278" lon="14.2118053"><ele>371.0</ele><time>2026-05-01T11:27:03.06Z</time></trkpt><trkpt lat="42.2089719" lon="14.2118787"><ele>370.8</ele><time>2026-05-01T11:27:04.052Z</time></trkpt><trkpt lat="42.20904" lon="14.2119467"><ele>370.6</ele><time>2026-05-01T11:27:05.073Z</time></trkpt><trkpt lat="42.2091329" lon="14.212012"><ele>370.4</ele><time>2026-05-01T11:27:06.074Z</time></trkpt><trkpt lat="42.2092349" lon="14.2120729"><ele>370.2</ele><time>2026-05-01T11:27:07.06Z</time></trkpt><trkpt lat="42.2093461" lon="14.2121286"><ele>370.0</ele><time>2026-05-01T11:27:08.054Z</time></trkpt><trkpt lat="42.2094481" lon="14.2121761"><ele>370.0</ele><time>2026-05-01T11:27:09.058Z</time></trkpt><trkpt lat="42.2095262" lon="14.212197"><ele>370.0</ele><time>2026-05-01T11:27:10.071Z</time></trkpt><trkpt lat="42.2096004" lon="14.2122165"><ele>370.0</ele><time>2026-05-01T11:27:11.051Z</time></trkpt><trkpt lat="42.209669" lon="14.2122437"><ele>370.0</ele><time>2026-05-01T11:27:12.048Z</time></trkpt><trkpt lat="42.2097318" lon="14.2122738"><ele>370.0</ele><time>2026-05-01T11:27:13.061Z</time></trkpt><trkpt lat="42.2098278" lon="14.2122832"><ele>370.0</ele><time>2026-05-01T11:27:15.06Z</time></trkpt><trkpt lat="42.2099007" lon="14.2122585"><ele>369.2</ele><time>2026-05-01T11:27:19.059Z</time></trkpt><trkpt lat="42.2099626" lon="14.2123631"><ele>368.4</ele><time>2026-05-01T11:27:23.047Z</time></trkpt><trkpt lat="42.209927" lon="14.212493"><ele>367.6</ele><time>2026-05-01T11:27:24.051Z</time></trkpt><trkpt lat="42.2098716" lon="14.2126294"><ele>366.8</ele><time>2026-05-01T11:27:25.045Z</time></trkpt><trkpt lat="42.2097996" lon="14.2127175"><ele>366.0</ele><time>2026-05-01T11:27:26.046Z</time></trkpt><trkpt lat="42.2097145" lon="14.2127737"><ele>366.0</ele><time>2026-05-01T11:27:27.047Z</time></trkpt><trkpt lat="42.2096266" lon="14.2128248"><ele>366.0</ele><time>2026-05-01T11:27:28.047Z</time></trkpt><trkpt lat="42.2095773" lon="14.2129248"><ele>366.0</ele><time>2026-05-01T11:27:29.057Z</time></trkpt><trkpt lat="42.2095584" lon="14.2130337"><ele>366.0</ele><time>2026-05-01T11:27:30.05Z</time></trkpt><trkpt lat="42.2095641" lon="14.2131526"><ele>366.0</ele><time>2026-05-01T11:27:31.071Z</time></trkpt><trkpt lat="42.2095886" lon="14.2132552"><ele>366.0</ele><time>2026-05-01T11:27:32.046Z</time></trkpt><trkpt lat="42.2096371" lon="14.2133501"><ele>365.0</ele><time>2026-05-01T11:27:33.048Z</time></trkpt><trkpt lat="42.2097009" lon="14.213472"><ele>364.0</ele><time>2026-05-01T11:27:34.04Z</time></trkpt><trkpt lat="42.2097589" lon="14.2136317"><ele>363.0</ele><time>2026-05-01T11:27:35.052Z</time></trkpt><trkpt lat="42.209795" lon="14.2138021"><ele>362.0</ele><time>2026-05-01T11:27:36.06Z</time></trkpt><trkpt lat="42.2098222" lon="14.2139648"><ele>361.0</ele><time>2026-05-01T11:27:37.059Z</time></trkpt><trkpt lat="42.2098578" lon="14.2141048"><ele>360.0</ele><time>2026-05-01T11:27:38.063Z</time></trkpt><trkpt lat="42.2099238" lon="14.2142105"><ele>359.0</ele><time>2026-05-01T11:27:39.049Z</time></trkpt><trkpt lat="42.2100346" lon="14.2143049"><ele>358.0</ele><time>2026-05-01T11:27:40.055Z</time></trkpt><trkpt lat="42.2101347" lon="14.2143995"><ele>358.0</ele><time>2026-05-01T11:27:41.06Z</time></trkpt><trkpt lat="42.2102052" lon="14.2145196"><ele>358.0</ele><time>2026-05-01T11:27:42.052Z</time></trkpt><trkpt lat="42.2102242" lon="14.2146501"><ele>358.0</ele><time>2026-05-01T11:27:43.063Z</time></trkpt><trkpt lat="42.2102202" lon="14.2147807"><ele>358.0</ele><time>2026-05-01T11:27:44.061Z</time></trkpt><trkpt lat="42.2102131" lon="14.2148747"><ele>358.0</ele><time>2026-05-01T11:27:45.061Z</time></trkpt><trkpt lat="42.2101921" lon="14.2149568"><ele>358.0</ele><time>2026-05-01T11:27:48.052Z</time></trkpt><trkpt lat="42.2101237" lon="14.2149723"><ele>359.79999999999995</ele><time>2026-05-01T11:27:50.062Z</time></trkpt><trkpt lat="42.2100093" lon="14.2149647"><ele>361.6</ele><time>2026-05-01T11:27:52.067Z</time></trkpt><trkpt lat="42.2098783" lon="14.2149624"><ele>363.4</ele><time>2026-05-01T11:27:54.059Z</time></trkpt><trkpt lat="42.2098017" lon="14.2149542"><ele>365.20000000000005</ele><time>2026-05-01T11:27:55.056Z</time></trkpt><trkpt lat="42.2097278" lon="14.214937"><ele>367.0</ele><time>2026-05-01T11:27:56.058Z</time></trkpt><trkpt lat="42.2096465" lon="14.2149198"><ele>368.8333333333333</ele><time>2026-05-01T11:27:57.06Z</time></trkpt><trkpt lat="42.2095677" lon="14.2149049"><ele>370.66666666666663</ele><time>2026-05-01T11:27:58.051Z</time></trkpt><trkpt lat="42.209485" lon="14.2148994"><ele>372.5</ele><time>2026-05-01T11:27:59.052Z</time></trkpt><trkpt lat="42.2093915" lon="14.2148989"><ele>374.3333333333333</ele><time>2026-05-01T11:28:00.049Z</time></trkpt><trkpt lat="42.2092954" lon="14.2148947"><ele>376.1666666666667</ele><time>2026-05-01T11:28:01.042Z</time></trkpt><trkpt lat="42.2092085" lon="14.2148866"><ele>378.0</ele><time>2026-05-01T11:28:02.05Z</time></trkpt><trkpt lat="42.2091298" lon="14.2148729"><ele>378.0</ele><time>2026-05-01T11:28:03.049Z</time></trkpt><trkpt lat="42.2090559" lon="14.2148491"><ele>378.0</ele><time>2026-05-01T11:28:04.044Z</time></trkpt><trkpt lat="42.2089868" lon="14.2148163"><ele>378.0</ele><time>2026-05-01T11:28:05.062Z</time></trkpt><trkpt lat="42.2089346" lon="14.2147575"><ele>378.0</ele><time>2026-05-01T11:28:06.056Z</time></trkpt><trkpt lat="42.2088723" lon="14.2146275"><ele>378.0</ele><time>2026-05-01T11:28:08.055Z</time></trkpt><trkpt lat="42.2088474" lon="14.2144761"><ele>378.0</ele><time>2026-05-01T11:28:10.047Z</time></trkpt><trkpt lat="42.2088335" lon="14.2143176"><ele>378.0</ele><time>2026-05-01T11:28:12.052Z</time></trkpt><trkpt lat="42.2088267" lon="14.2142256"><ele>378.0</ele><time>2026-05-01T11:28:13.058Z</time></trkpt><trkpt lat="42.2088317" lon="14.2141366"><ele>378.0</ele><time>2026-05-01T11:28:14.054Z</time></trkpt><trkpt lat="42.2088149" lon="14.2139766"><ele>378.0</ele><time>2026-05-01T11:28:16.053Z</time></trkpt><trkpt lat="42.2087783" lon="14.2138954"><ele>378.0</ele><time>2026-05-01T11:28:17.059Z</time></trkpt><trkpt lat="42.2087234" lon="14.2138358"><ele>378.0</ele><time>2026-05-01T11:28:18.055Z</time></trkpt><trkpt lat="42.2086525" lon="14.2137685"><ele>378.0</ele><time>2026-05-01T11:28:19.059Z</time></trkpt><trkpt lat="42.2085729" lon="14.2136957"><ele>378.0</ele><time>2026-05-01T11:28:20.058Z</time></trkpt><trkpt lat="42.2085035" lon="14.2136162"><ele>378.0</ele><time>2026-05-01T11:28:21.052Z</time></trkpt><trkpt lat="42.2084377" lon="14.2135473"><ele>378.0</ele><time>2026-05-01T11:28:22.048Z</time></trkpt><trkpt lat="42.208374" lon="14.2134726"><ele>378.0</ele><time>2026-05-01T11:28:23.046Z</time></trkpt><trkpt lat="42.2083048" lon="14.2133968"><ele>378.0</ele><time>2026-05-01T11:28:24.049Z</time></trkpt><trkpt lat="42.2082312" lon="14.2133378"><ele>380.1666666666667</ele><time>2026-05-01T11:28:25.059Z</time></trkpt><trkpt lat="42.2080944" lon="14.2133007"><ele>382.33333333333337</ele><time>2026-05-01T11:28:27.058Z</time></trkpt><trkpt lat="42.2080231" lon="14.213292"><ele>384.5</ele><time>2026-05-01T11:28:28.047Z</time></trkpt><trkpt lat="42.2079433" lon="14.2132879"><ele>386.6666666666667</ele><time>2026-05-01T11:28:29.054Z</time></trkpt><trkpt lat="42.2078614" lon="14.2132837"><ele>388.83333333333337</ele><time>2026-05-01T11:28:30.052Z</time></trkpt><trkpt lat="42.2077866" lon="14.2132764"><ele>391.0</ele><time>2026-05-01T11:28:31.06Z</time></trkpt><trkpt lat="42.2077059" lon="14.2132676"><ele>391.00000000000006</ele><time>2026-05-01T11:28:32.051Z</time></trkpt><trkpt lat="42.2076334" lon="14.2132166"><ele>391.0</ele><time>2026-05-01T11:28:33.05Z</time></trkpt><trkpt lat="42.207575" lon="14.2131715"><ele>391.0</ele><time>2026-05-01T11:28:34.047Z</time></trkpt><trkpt lat="42.2075015" lon="14.2131664"><ele>391.0</ele><time>2026-05-01T11:28:35.05Z</time></trkpt><trkpt lat="42.2074253" lon="14.2131738"><ele>391.00000000000006</ele><time>2026-05-01T11:28:36.044Z</time></trkpt><trkpt lat="42.2073591" lon="14.213182"><ele>391.0</ele><time>2026-05-01T11:28:37.044Z</time></trkpt><trkpt lat="42.2072541" lon="14.213207"><ele>393.20000000000005</ele><time>2026-05-01T11:28:39.051Z</time></trkpt><trkpt lat="42.2071719" lon="14.2132608"><ele>395.40000000000003</ele><time>2026-05-01T11:28:41.052Z</time></trkpt><trkpt lat="42.2070602" lon="14.2133187"><ele>397.6</ele><time>2026-05-01T11:28:43.053Z</time></trkpt><trkpt lat="42.2069333" lon="14.2133158"><ele>399.8</ele><time>2026-05-01T11:28:45.055Z</time></trkpt><trkpt lat="42.2068687" lon="14.2133224"><ele>402.0</ele><time>2026-05-01T11:28:46.046Z</time></trkpt><trkpt lat="42.2068006" lon="14.2133303"><ele>402.0</ele><time>2026-05-01T11:28:47.05Z</time></trkpt><trkpt lat="42.2067384" lon="14.2133492"><ele>402.0</ele><time>2026-05-01T11:28:48.052Z</time></trkpt><trkpt lat="42.2066794" lon="14.2133841"><ele>402.0</ele><time>2026-05-01T11:28:49.047Z</time></trkpt><trkpt lat="42.2066129" lon="14.2134183"><ele>402.0</ele><time>2026-05-01T11:28:50.048Z</time></trkpt><trkpt lat="42.2065515" lon="14.2134442"><ele>402.0</ele><time>2026-05-01T11:28:51.051Z</time></trkpt><trkpt lat="42.206429" lon="14.2134758"><ele>402.0</ele><time>2026-05-01T11:28:53.061Z</time></trkpt><trkpt lat="42.2063653" lon="14.2134685"><ele>403.3333333333333</ele><time>2026-05-01T11:28:54.056Z</time></trkpt><trkpt lat="42.2062623" lon="14.2134344"><ele>404.66666666666663</ele><time>2026-05-01T11:28:56.063Z</time></trkpt><trkpt lat="42.2061792" lon="14.2133992"><ele>406.0</ele><time>2026-05-01T11:28:58.047Z</time></trkpt><trkpt lat="42.2061132" lon="14.2133955"><ele>407.3333333333333</ele><time>2026-05-01T11:28:59.051Z</time></trkpt><trkpt lat="42.2060491" lon="14.2134061"><ele>408.66666666666663</ele><time>2026-05-01T11:29:00.05Z</time></trkpt><trkpt lat="42.205934" lon="14.2134493"><ele>410.0</ele><time>2026-05-01T11:29:02.053Z</time></trkpt><trkpt lat="42.2058028" lon="14.2134698"><ele>409.99999999999994</ele><time>2026-05-01T11:29:04.051Z</time></trkpt><trkpt lat="42.2057301" lon="14.2134646"><ele>410.0</ele><time>2026-05-01T11:29:05.063Z</time></trkpt><trkpt lat="42.2056553" lon="14.2134408"><ele>410.0</ele><time>2026-05-01T11:29:06.055Z</time></trkpt><trkpt lat="42.2055855" lon="14.2134262"><ele>410.0</ele><time>2026-05-01T11:29:07.046Z</time></trkpt><trkpt lat="42.2054721" lon="14.2134078"><ele>409.99999999999994</ele><time>2026-05-01T11:29:09.044Z</time></trkpt><trkpt lat="42.2054045" lon="14.2134111"><ele>410.0</ele><time>2026-05-01T11:29:10.042Z</time></trkpt><trkpt lat="42.2053272" lon="14.2134287"><ele>411.0</ele><time>2026-05-01T11:29:11.048Z</time></trkpt><trkpt lat="42.2052324" lon="14.2134283"><ele>412.0</ele><time>2026-05-01T11:29:12.054Z</time></trkpt><trkpt lat="42.2051526" lon="14.2134152"><ele>413.0</ele><time>2026-05-01T11:29:13.05Z</time></trkpt><trkpt lat="42.2050369" lon="14.2134191"><ele>414.0</ele><time>2026-05-01T11:29:15.059Z</time></trkpt><trkpt lat="42.204918" lon="14.2134033"><ele>415.0</ele><time>2026-05-01T11:29:17.065Z</time></trkpt><trkpt lat="42.2048199" lon="14.2134023"><ele>416.4</ele><time>2026-05-01T11:29:19.059Z</time></trkpt><trkpt lat="42.2047163" lon="14.2134334"><ele>417.8</ele><time>2026-05-01T11:29:21.052Z</time></trkpt><trkpt lat="42.2046127" lon="14.2134794"><ele>419.20000000000005</ele><time>2026-05-01T11:29:23.048Z</time></trkpt><trkpt lat="42.2045211" lon="14.21352"><ele>420.6</ele><time>2026-05-01T11:29:25.049Z</time></trkpt><trkpt lat="42.2044151" lon="14.2135413"><ele>422.0</ele><time>2026-05-01T11:29:27.048Z</time></trkpt><trkpt lat="42.2043053" lon="14.2135465"><ele>421.99999999999994</ele><time>2026-05-01T11:29:29.058Z</time></trkpt><trkpt lat="42.204212" lon="14.2135419"><ele>422.0</ele><time>2026-05-01T11:29:31.056Z</time></trkpt><trkpt lat="42.2040986" lon="14.213549"><ele>422.0</ele><time>2026-05-01T11:29:33.046Z</time></trkpt><trkpt lat="42.2040243" lon="14.2135382"><ele>422.0</ele><time>2026-05-01T11:29:34.047Z</time></trkpt><trkpt lat="42.203941" lon="14.2135342"><ele>421.99999999999994</ele><time>2026-05-01T11:29:35.055Z</time></trkpt><trkpt lat="42.203859" lon="14.2135358"><ele>422.0</ele><time>2026-05-01T11:29:36.053Z</time></trkpt><trkpt lat="42.2037774" lon="14.2135451"><ele>423.49999999999994</ele><time>2026-05-01T11:29:37.053Z</time></trkpt><trkpt lat="42.2037037" lon="14.2135598"><ele>425.0</ele><time>2026-05-01T11:29:38.045Z</time></trkpt><trkpt lat="42.2036365" lon="14.2135684"><ele>426.5</ele><time>2026-05-01T11:29:39.046Z</time></trkpt><trkpt lat="42.2035717" lon="14.2135768"><ele>428.0</ele><time>2026-05-01T11:29:40.045Z</time></trkpt><trkpt lat="42.2035043" lon="14.2135835"><ele>429.49999999999994</ele><time>2026-05-01T11:29:41.052Z</time></trkpt><trkpt lat="42.2034366" lon="14.2135848"><ele>431.0</ele><time>2026-05-01T11:29:42.045Z</time></trkpt><trkpt lat="42.2033177" lon="14.213577"><ele>430.99999999999994</ele><time>2026-05-01T11:29:44.066Z</time></trkpt><trkpt lat="42.2032128" lon="14.2135689"><ele>431.0</ele><time>2026-05-01T11:29:46.044Z</time></trkpt><trkpt lat="42.203094" lon="14.2135751"><ele>431.0</ele><time>2026-05-01T11:29:48.048Z</time></trkpt><trkpt lat="42.2030279" lon="14.2135776"><ele>431.0</ele><time>2026-05-01T11:29:49.044Z</time></trkpt><trkpt lat="42.2029539" lon="14.2135749"><ele>430.99999999999994</ele><time>2026-05-01T11:29:50.056Z</time></trkpt><trkpt lat="42.2028798" lon="14.2135661"><ele>431.0</ele><time>2026-05-01T11:29:51.048Z</time></trkpt><trkpt lat="42.2027993" lon="14.2135573"><ele>432.2857142857143</ele><time>2026-05-01T11:29:52.054Z</time></trkpt><trkpt lat="42.2027214" lon="14.2135427"><ele>433.57142857142856</ele><time>2026-05-01T11:29:53.053Z</time></trkpt><trkpt lat="42.2026458" lon="14.2135299"><ele>434.85714285714283</ele><time>2026-05-01T11:29:54.056Z</time></trkpt><trkpt lat="42.2025782" lon="14.2135194"><ele>436.1428571428571</ele><time>2026-05-01T11:29:55.053Z</time></trkpt><trkpt lat="42.2025109" lon="14.2135083"><ele>437.42857142857144</ele><time>2026-05-01T11:29:56.049Z</time></trkpt><trkpt lat="42.2024419" lon="14.2134955"><ele>438.71428571428567</ele><time>2026-05-01T11:29:57.043Z</time></trkpt><trkpt lat="42.2023776" lon="14.2134866"><ele>440.0</ele><time>2026-05-01T11:29:58.054Z</time></trkpt><trkpt lat="42.2022534" lon="14.213466"><ele>442.3333333333333</ele><time>2026-05-01T11:30:00.058Z</time></trkpt><trkpt lat="42.2021333" lon="14.2134812"><ele>444.66666666666663</ele><time>2026-05-01T11:30:02.059Z</time></trkpt><trkpt lat="42.2020693" lon="14.2134989"><ele>447.0</ele><time>2026-05-01T11:30:03.059Z</time></trkpt><trkpt lat="42.2020043" lon="14.2135272"><ele>449.33333333333337</ele><time>2026-05-01T11:30:04.055Z</time></trkpt><trkpt lat="42.2019315" lon="14.2135649"><ele>451.6666666666667</ele><time>2026-05-01T11:30:05.051Z</time></trkpt><trkpt lat="42.2018561" lon="14.2135887"><ele>454.0</ele><time>2026-05-01T11:30:06.053Z</time></trkpt><trkpt lat="42.2017799" lon="14.2136022"><ele>454.00000000000006</ele><time>2026-05-01T11:30:07.051Z</time></trkpt><trkpt lat="42.2017025" lon="14.2136116"><ele>454.0</ele><time>2026-05-01T11:30:08.05Z</time></trkpt><trkpt lat="42.201621" lon="14.2136226"><ele>454.0</ele><time>2026-05-01T11:30:09.049Z</time></trkpt><trkpt lat="42.2015444" lon="14.2136255"><ele>454.0</ele><time>2026-05-01T11:30:10.052Z</time></trkpt><trkpt lat="42.201469" lon="14.2136289"><ele>454.00000000000006</ele><time>2026-05-01T11:30:11.057Z</time></trkpt><trkpt lat="42.2013882" lon="14.2136329"><ele>454.0</ele><time>2026-05-01T11:30:12.045Z</time></trkpt><trkpt lat="42.2013085" lon="14.2136348"><ele>455.6666666666667</ele><time>2026-05-01T11:30:13.058Z</time></trkpt><trkpt lat="42.2012354" lon="14.2136291"><ele>457.33333333333337</ele><time>2026-05-01T11:30:14.046Z</time></trkpt><trkpt lat="42.2011628" lon="14.2136175"><ele>459.0</ele><time>2026-05-01T11:30:15.045Z</time></trkpt><trkpt lat="42.2010913" lon="14.2136018"><ele>460.66666666666663</ele><time>2026-05-01T11:30:16.058Z</time></trkpt><trkpt lat="42.2010101" lon="14.2135911"><ele>462.3333333333333</ele><time>2026-05-01T11:30:17.063Z</time></trkpt><trkpt lat="42.2009306" lon="14.2135666"><ele>464.0</ele><time>2026-05-01T11:30:18.066Z</time></trkpt><trkpt lat="42.2008481" lon="14.2135392"><ele>463.99999999999994</ele><time>2026-05-01T11:30:19.054Z</time></trkpt><trkpt lat="42.2007638" lon="14.2135204"><ele>464.0</ele><time>2026-05-01T11:30:20.055Z</time></trkpt><trkpt lat="42.2006873" lon="14.2134985"><ele>464.0</ele><time>2026-05-01T11:30:21.062Z</time></trkpt><trkpt lat="42.2006102" lon="14.2134835"><ele>464.0</ele><time>2026-05-01T11:30:22.054Z</time></trkpt><trkpt lat="42.2005279" lon="14.2134743"><ele>463.99999999999994</ele><time>2026-05-01T11:30:23.058Z</time></trkpt><trkpt lat="42.2004456" lon="14.213472"><ele>464.0</ele><time>2026-05-01T11:30:24.063Z</time></trkpt><trkpt lat="42.2003653" lon="14.2134582"><ele>463.8333333333333</ele><time>2026-05-01T11:30:25.068Z</time></trkpt><trkpt lat="42.2002744" lon="14.2134283"><ele>463.66666666666663</ele><time>2026-05-01T11:30:26.051Z</time></trkpt><trkpt lat="42.2001886" lon="14.2134121"><ele>463.5</ele><time>2026-05-01T11:30:27.062Z</time></trkpt><trkpt lat="42.2001052" lon="14.21341"><ele>463.33333333333337</ele><time>2026-05-01T11:30:28.054Z</time></trkpt><trkpt lat="42.2000229" lon="14.2134242"><ele>463.1666666666667</ele><time>2026-05-01T11:30:29.063Z</time></trkpt><trkpt lat="42.1999526" lon="14.2134491"><ele>463.0</ele><time>2026-05-01T11:30:30.05Z</time></trkpt><trkpt lat="42.1998856" lon="14.2134962"><ele>460.50000000000006</ele><time>2026-05-01T11:30:31.054Z</time></trkpt><trkpt lat="42.1998177" lon="14.2135558"><ele>458.0</ele><time>2026-05-01T11:30:32.053Z</time></trkpt><trkpt lat="42.19975" lon="14.2136178"><ele>455.5</ele><time>2026-05-01T11:30:33.052Z</time></trkpt><trkpt lat="42.1996808" lon="14.2136762"><ele>453.0</ele><time>2026-05-01T11:30:34.064Z</time></trkpt><trkpt lat="42.1996205" lon="14.2137433"><ele>450.50000000000006</ele><time>2026-05-01T11:30:35.065Z</time></trkpt><trkpt lat="42.1995609" lon="14.2138103"><ele>448.0</ele><time>2026-05-01T11:30:36.053Z</time></trkpt><trkpt lat="42.1994954" lon="14.2138783"><ele>448.00000000000006</ele><time>2026-05-01T11:30:37.056Z</time></trkpt><trkpt lat="42.1994309" lon="14.2139234"><ele>448.0</ele><time>2026-05-01T11:30:38.055Z</time></trkpt><trkpt lat="42.1993655" lon="14.2139519"><ele>448.0</ele><time>2026-05-01T11:30:39.054Z</time></trkpt><trkpt lat="42.1992984" lon="14.2139911"><ele>448.0</ele><time>2026-05-01T11:30:40.065Z</time></trkpt><trkpt lat="42.1992305" lon="14.2140353"><ele>448.00000000000006</ele><time>2026-05-01T11:30:41.067Z</time></trkpt><trkpt lat="42.1991609" lon="14.214082"><ele>448.0</ele><time>2026-05-01T11:30:42.055Z</time></trkpt><trkpt lat="42.1990938" lon="14.2141508"><ele>448.83333333333337</ele><time>2026-05-01T11:30:43.056Z</time></trkpt><trkpt lat="42.1990291" lon="14.2142259"><ele>449.6666666666667</ele><time>2026-05-01T11:30:44.054Z</time></trkpt><trkpt lat="42.1989656" lon="14.2143031"><ele>450.5</ele><time>2026-05-01T11:30:45.048Z</time></trkpt><trkpt lat="42.1989073" lon="14.2143844"><ele>451.33333333333337</ele><time>2026-05-01T11:30:46.06Z</time></trkpt><trkpt lat="42.1988521" lon="14.2144639"><ele>452.1666666666667</ele><time>2026-05-01T11:30:47.057Z</time></trkpt><trkpt lat="42.1988009" lon="14.2145409"><ele>453.0</ele><time>2026-05-01T11:30:48.059Z</time></trkpt><trkpt lat="42.1987644" lon="14.2146182"><ele>453.0</ele><time>2026-05-01T11:30:49.054Z</time></trkpt><trkpt lat="42.1987226" lon="14.2146925"><ele>452.99999999999994</ele><time>2026-05-01T11:30:50.057Z</time></trkpt><trkpt lat="42.198681" lon="14.2147582"><ele>452.99999999999994</ele><time>2026-05-01T11:30:51.065Z</time></trkpt><trkpt lat="42.1985842" lon="14.2148568"><ele>453.0</ele><time>2026-05-01T11:30:53.056Z</time></trkpt><trkpt lat="42.1985135" lon="14.2149672"><ele>453.0</ele><time>2026-05-01T11:30:55.053Z</time></trkpt><trkpt lat="42.1984253" lon="14.2150853"><ele>453.59999999999997</ele><time>2026-05-01T11:30:57.056Z</time></trkpt><trkpt lat="42.1983673" lon="14.2151295"><ele>454.19999999999993</ele><time>2026-05-01T11:30:58.055Z</time></trkpt><trkpt lat="42.1982682" lon="14.2151864"><ele>454.8</ele><time>2026-05-01T11:31:00.056Z</time></trkpt><trkpt lat="42.1981744" lon="14.215238"><ele>455.4</ele><time>2026-05-01T11:31:02.056Z</time></trkpt><trkpt lat="42.1980922" lon="14.2153291"><ele>456.0</ele><time>2026-05-01T11:31:04.055Z</time></trkpt><trkpt lat="42.1980495" lon="14.2154002"><ele>456.0</ele><time>2026-05-01T11:31:12.059Z</time></trkpt><trkpt lat="42.1980283" lon="14.2154865"><ele>456.0</ele><time>2026-05-01T11:31:17.055Z</time></trkpt><trkpt lat="42.1980206" lon="14.2155953"><ele>456.0</ele><time>2026-05-01T11:31:22.048Z</time></trkpt><trkpt lat="42.1980088" lon="14.2156882"><ele>456.0</ele><time>2026-05-01T11:31:25.057Z</time></trkpt><trkpt lat="42.1980174" lon="14.2157737"><ele>456.0</ele><time>2026-05-01T11:31:32.049Z</time></trkpt><trkpt lat="42.197993" lon="14.2158812"><ele>456.0</ele><time>2026-05-01T11:31:48.049Z</time></trkpt><trkpt lat="42.1979334" lon="14.2160092"><ele>460.0</ele><time>2026-05-01T11:31:50.055Z</time></trkpt><trkpt lat="42.1978761" lon="14.2160752"><ele>464.0</ele><time>2026-05-01T11:31:51.059Z</time></trkpt><trkpt lat="42.1978181" lon="14.2161496"><ele>468.0</ele><time>2026-05-01T11:31:52.06Z</time></trkpt><trkpt lat="42.197762" lon="14.2162415"><ele>472.0</ele><time>2026-05-01T11:31:53.053Z</time></trkpt><trkpt lat="42.1976976" lon="14.2163502"><ele>476.0</ele><time>2026-05-01T11:31:54.058Z</time></trkpt><trkpt lat="42.1976249" lon="14.2164585"><ele>479.16666666666663</ele><time>2026-05-01T11:31:55.054Z</time></trkpt><trkpt lat="42.1975751" lon="14.2165467"><ele>482.3333333333333</ele><time>2026-05-01T11:31:56.061Z</time></trkpt><trkpt lat="42.1975336" lon="14.2166505"><ele>485.5</ele><time>2026-05-01T11:31:58.063Z</time></trkpt><trkpt lat="42.1975315" lon="14.21674"><ele>488.66666666666663</ele><time>2026-05-01T11:31:59.058Z</time></trkpt><trkpt lat="42.1975116" lon="14.2168478"><ele>491.8333333333333</ele><time>2026-05-01T11:32:00.068Z</time></trkpt><trkpt lat="42.1974396" lon="14.2169426"><ele>495.0</ele><time>2026-05-01T11:32:02.058Z</time></trkpt><trkpt lat="42.1973638" lon="14.2170032"><ele>494.8333333333333</ele><time>2026-05-01T11:32:05.059Z</time></trkpt><trkpt lat="42.1972717" lon="14.2170298"><ele>494.66666666666663</ele><time>2026-05-01T11:34:41.066Z</time></trkpt><trkpt lat="42.1972053" lon="14.2170442"><ele>494.5</ele><time>2026-05-01T11:34:42.054Z</time></trkpt><trkpt lat="42.1971267" lon="14.217065"><ele>494.3333333333333</ele><time>2026-05-01T11:34:43.07Z</time></trkpt><trkpt lat="42.1970365" lon="14.2170856"><ele>494.16666666666663</ele><time>2026-05-01T11:34:44.071Z</time></trkpt><trkpt lat="42.1969446" lon="14.2171144"><ele>494.0</ele><time>2026-05-01T11:34:45.064Z</time></trkpt><trkpt lat="42.1968625" lon="14.2171415"><ele>493.99999999999994</ele><time>2026-05-01T11:34:46.073Z</time></trkpt><trkpt lat="42.1967773" lon="14.2171642"><ele>494.0</ele><time>2026-05-01T11:34:47.064Z</time></trkpt><trkpt lat="42.1966896" lon="14.2171985"><ele>494.0</ele><time>2026-05-01T11:34:48.071Z</time></trkpt><trkpt lat="42.1966083" lon="14.2172267"><ele>494.0</ele><time>2026-05-01T11:34:49.065Z</time></trkpt><trkpt lat="42.1965271" lon="14.2172395"><ele>493.99999999999994</ele><time>2026-05-01T11:34:50.058Z</time></trkpt><trkpt lat="42.196445" lon="14.2172742"><ele>494.0</ele><time>2026-05-01T11:34:51.066Z</time></trkpt><trkpt lat="42.196368" lon="14.2173107"><ele>496.66666666666663</ele><time>2026-05-01T11:34:52.077Z</time></trkpt><trkpt lat="42.1962832" lon="14.2173363"><ele>499.3333333333333</ele><time>2026-05-01T11:34:53.076Z</time></trkpt><trkpt lat="42.1962029" lon="14.2173588"><ele>502.0</ele><time>2026-05-01T11:34:54.066Z</time></trkpt><trkpt lat="42.1961262" lon="14.2173913"><ele>504.66666666666663</ele><time>2026-05-01T11:34:55.064Z</time></trkpt><trkpt lat="42.1960434" lon="14.2174106"><ele>507.3333333333333</ele><time>2026-05-01T11:34:56.069Z</time></trkpt><trkpt lat="42.1959574" lon="14.2174472"><ele>510.0</ele><time>2026-05-01T11:34:57.066Z</time></trkpt><trkpt lat="42.1958799" lon="14.2174746"><ele>510.0</ele><time>2026-05-01T11:34:58.064Z</time></trkpt><trkpt lat="42.1957947" lon="14.2175087"><ele>510.0</ele><time>2026-05-01T11:34:59.071Z</time></trkpt><trkpt lat="42.1957065" lon="14.2175349"><ele>510.0</ele><time>2026-05-01T11:35:00.069Z</time></trkpt><trkpt lat="42.1956154" lon="14.217565"><ele>510.0</ele><time>2026-05-01T11:35:01.075Z</time></trkpt><trkpt lat="42.1955258" lon="14.2176007"><ele>510.0</ele><time>2026-05-01T11:35:02.052Z</time></trkpt><trkpt lat="42.1954383" lon="14.217634"><ele>510.8</ele><time>2026-05-01T11:35:03.058Z</time></trkpt><trkpt lat="42.1953533" lon="14.2176841"><ele>511.6</ele><time>2026-05-01T11:35:04.059Z</time></trkpt><trkpt lat="42.1952764" lon="14.2177506"><ele>512.4</ele><time>2026-05-01T11:35:05.06Z</time></trkpt><trkpt lat="42.1951989" lon="14.2178349"><ele>513.2</ele><time>2026-05-01T11:35:06.059Z</time></trkpt><trkpt lat="42.1951288" lon="14.217926"><ele>514.0</ele><time>2026-05-01T11:35:07.052Z</time></trkpt><trkpt lat="42.1950543" lon="14.218012"><ele>514.0</ele><time>2026-05-01T11:35:08.053Z</time></trkpt><trkpt lat="42.1949777" lon="14.2180781"><ele>514.0</ele><time>2026-05-01T11:35:09.055Z</time></trkpt><trkpt lat="42.194922" lon="14.2181418"><ele>514.0</ele><time>2026-05-01T11:35:10.071Z</time></trkpt><trkpt lat="42.1948775" lon="14.2182653"><ele>514.0</ele><time>2026-05-01T11:35:12.063Z</time></trkpt><trkpt lat="42.1948849" lon="14.218355"><ele>514.0</ele><time>2026-05-01T11:35:13.063Z</time></trkpt><trkpt lat="42.1948809" lon="14.2184983"><ele>514.0</ele><time>2026-05-01T11:35:15.062Z</time></trkpt><trkpt lat="42.1948355" lon="14.2186642"><ele>515.4</ele><time>2026-05-01T11:35:17.068Z</time></trkpt><trkpt lat="42.1948219" lon="14.2187757"><ele>516.8</ele><time>2026-05-01T11:35:18.068Z</time></trkpt><trkpt lat="42.1948327" lon="14.2189161"><ele>518.2</ele><time>2026-05-01T11:35:19.068Z</time></trkpt><trkpt lat="42.194842" lon="14.2190396"><ele>519.6</ele><time>2026-05-01T11:35:20.059Z</time></trkpt><trkpt lat="42.1948537" lon="14.2191661"><ele>521.0</ele><time>2026-05-01T11:35:21.066Z</time></trkpt><trkpt lat="42.1948529" lon="14.2192898"><ele>521.0</ele><time>2026-05-01T11:35:22.069Z</time></trkpt><trkpt lat="42.1948541" lon="14.2194235"><ele>521.0</ele><time>2026-05-01T11:35:23.061Z</time></trkpt><trkpt lat="42.1948659" lon="14.2195687"><ele>521.0</ele><time>2026-05-01T11:35:24.065Z</time></trkpt><trkpt lat="42.1948782" lon="14.2197109"><ele>521.0</ele><time>2026-05-01T11:35:25.057Z</time></trkpt><trkpt lat="42.1948924" lon="14.2198617"><ele>521.0</ele><time>2026-05-01T11:35:26.068Z</time></trkpt><trkpt lat="42.1948993" lon="14.2200114"><ele>521.5</ele><time>2026-05-01T11:35:27.069Z</time></trkpt><trkpt lat="42.1949065" lon="14.2201455"><ele>522.0</ele><time>2026-05-01T11:35:28.055Z</time></trkpt><trkpt lat="42.1948953" lon="14.2202791"><ele>522.5</ele><time>2026-05-01T11:35:29.066Z</time></trkpt><trkpt lat="42.1948769" lon="14.2204014"><ele>523.0</ele><time>2026-05-01T11:35:30.07Z</time></trkpt><trkpt lat="42.1948416" lon="14.2204953"><ele>523.5</ele><time>2026-05-01T11:35:31.066Z</time></trkpt><trkpt lat="42.1947999" lon="14.2205616"><ele>524.0</ele><time>2026-05-01T11:35:32.066Z</time></trkpt><trkpt lat="42.1947205" lon="14.2205606"><ele>526.4</ele><time>2026-05-01T11:35:33.067Z</time></trkpt><trkpt lat="42.1946346" lon="14.2204869"><ele>528.8</ele><time>2026-05-01T11:35:34.064Z</time></trkpt><trkpt lat="42.1945682" lon="14.2203642"><ele>531.2</ele><time>2026-05-01T11:35:35.055Z</time></trkpt><trkpt lat="42.1945281" lon="14.2202351"><ele>533.6</ele><time>2026-05-01T11:35:36.063Z</time></trkpt><trkpt lat="42.1944801" lon="14.2200986"><ele>536.0</ele><time>2026-05-01T11:35:37.058Z</time></trkpt><trkpt lat="42.1944291" lon="14.2199764"><ele>536.0</ele><time>2026-05-01T11:35:38.068Z</time></trkpt><trkpt lat="42.1943632" lon="14.2198604"><ele>536.0</ele><time>2026-05-01T11:35:39.066Z</time></trkpt><trkpt lat="42.194274" lon="14.2197574"><ele>536.0</ele><time>2026-05-01T11:35:40.074Z</time></trkpt><trkpt lat="42.1941817" lon="14.2196657"><ele>536.0</ele><time>2026-05-01T11:35:41.057Z</time></trkpt><trkpt lat="42.1940841" lon="14.2195987"><ele>537.0</ele><time>2026-05-01T11:35:42.06Z</time></trkpt><trkpt lat="42.1939869" lon="14.2195249"><ele>538.0</ele><time>2026-05-01T11:35:43.061Z</time></trkpt><trkpt lat="42.1938865" lon="14.2194578"><ele>539.0</ele><time>2026-05-01T11:35:44.068Z</time></trkpt><trkpt lat="42.1937945" lon="14.2193827"><ele>540.0</ele><time>2026-05-01T11:35:45.069Z</time></trkpt><trkpt lat="42.1937052" lon="14.2193142"><ele>541.0</ele><time>2026-05-01T11:35:46.061Z</time></trkpt><trkpt lat="42.1936057" lon="14.2192665"><ele>541.0</ele><time>2026-05-01T11:35:47.056Z</time></trkpt><trkpt lat="42.1935107" lon="14.2192209"><ele>541.0</ele><time>2026-05-01T11:35:48.078Z</time></trkpt><trkpt lat="42.1934031" lon="14.2191957"><ele>541.0</ele><time>2026-05-01T11:35:49.066Z</time></trkpt><trkpt lat="42.1932851" lon="14.2191761"><ele>541.0</ele><time>2026-05-01T11:35:50.057Z</time></trkpt><trkpt lat="42.1931799" lon="14.2192019"><ele>541.0</ele><time>2026-05-01T11:35:51.057Z</time></trkpt><trkpt lat="42.1930847" lon="14.2192924"><ele>540.4</ele><time>2026-05-01T11:35:52.059Z</time></trkpt><trkpt lat="42.1930057" lon="14.2194032"><ele>539.8</ele><time>2026-05-01T11:35:53.058Z</time></trkpt><trkpt lat="42.192952" lon="14.219527"><ele>539.1999999999999</ele><time>2026-05-01T11:35:54.057Z</time></trkpt><trkpt lat="42.1929444" lon="14.2196623"><ele>538.6</ele><time>2026-05-01T11:35:55.058Z</time></trkpt><trkpt lat="42.1929551" lon="14.2197934"><ele>538.0</ele><time>2026-05-01T11:35:56.054Z</time></trkpt><trkpt lat="42.1930028" lon="14.2198906"><ele>540.4</ele><time>2026-05-01T11:35:57.054Z</time></trkpt><trkpt lat="42.193081" lon="14.2199688"><ele>542.8</ele><time>2026-05-01T11:35:58.053Z</time></trkpt><trkpt lat="42.1931717" lon="14.2200317"><ele>545.2</ele><time>2026-05-01T11:35:59.052Z</time></trkpt><trkpt lat="42.193278" lon="14.2201017"><ele>547.6</ele><time>2026-05-01T11:36:00.055Z</time></trkpt><trkpt lat="42.1933823" lon="14.2201623"><ele>550.0</ele><time>2026-05-01T11:36:01.066Z</time></trkpt><trkpt lat="42.1934975" lon="14.2202163"><ele>550.0</ele><time>2026-05-01T11:36:02.059Z</time></trkpt><trkpt lat="42.1936117" lon="14.2202735"><ele>550.0</ele><time>2026-05-01T11:36:03.062Z</time></trkpt><trkpt lat="42.1937228" lon="14.2203372"><ele>550.0</ele><time>2026-05-01T11:36:04.062Z</time></trkpt><trkpt lat="42.1937964" lon="14.2204086"><ele>550.0</ele><time>2026-05-01T11:36:05.069Z</time></trkpt><trkpt lat="42.1938211" lon="14.2204886"><ele>550.0</ele><time>2026-05-01T11:36:06.067Z</time></trkpt><trkpt lat="42.1937716" lon="14.2205895"><ele>550.0</ele><time>2026-05-01T11:36:08.054Z</time></trkpt><trkpt lat="42.1937076" lon="14.2205945"><ele>550.0</ele><time>2026-05-01T11:36:09.064Z</time></trkpt><trkpt lat="42.1936301" lon="14.2205788"><ele>550.0</ele><time>2026-05-01T11:36:10.06Z</time></trkpt><trkpt lat="42.1935445" lon="14.2205518"><ele>550.0</ele><time>2026-05-01T11:36:11.068Z</time></trkpt><trkpt lat="42.1934799" lon="14.2205273"><ele>550.0</ele><time>2026-05-01T11:36:12.06Z</time></trkpt><trkpt lat="42.1933965" lon="14.2204855"><ele>550.0</ele><time>2026-05-01T11:36:19.058Z</time></trkpt><trkpt lat="42.1933361" lon="14.2205244"><ele>550.0</ele><time>2026-05-01T11:36:21.059Z</time></trkpt><trkpt lat="42.1933246" lon="14.2206283"><ele>550.0</ele><time>2026-05-01T11:36:35.067Z</time></trkpt><trkpt lat="42.1932562" lon="14.2206461"><ele>550.0</ele><time>2026-05-01T11:36:45.058Z</time></trkpt><trkpt lat="42.1931912" lon="14.220629"><ele>550.0</ele><time>2026-05-01T11:36:47.06Z</time></trkpt><trkpt lat="42.1931104" lon="14.2206068"><ele>550.0</ele><time>2026-05-01T11:36:49.062Z</time></trkpt><trkpt lat="42.1930152" lon="14.2206221"><ele>550.0</ele><time>2026-05-01T11:36:51.06Z</time></trkpt><trkpt lat="42.1929486" lon="14.2206292"><ele>550.0</ele><time>2026-05-01T11:36:53.05Z</time></trkpt><trkpt lat="42.1928897" lon="14.2205805"><ele>550.0</ele><time>2026-05-01T11:36:57.048Z</time></trkpt><trkpt lat="42.192983" lon="14.2205455"><ele>550.0</ele><time>2026-05-01T11:37:03.047Z</time></trkpt><trkpt lat="42.1931062" lon="14.220606"><ele>550.0</ele><time>2026-05-01T11:37:05.054Z</time></trkpt><trkpt lat="42.1932042" lon="14.2206386"><ele>550.0</ele><time>2026-05-01T11:37:07.052Z</time></trkpt><trkpt lat="42.1932726" lon="14.2206777"><ele>551.0</ele><time>2026-05-01T11:37:10.067Z</time></trkpt><trkpt lat="42.1932723" lon="14.2207758"><ele>552.0</ele><time>2026-05-01T11:37:12.049Z</time></trkpt><trkpt lat="42.1932633" lon="14.2208632"><ele>553.0</ele><time>2026-05-01T11:37:13.056Z</time></trkpt><trkpt lat="42.1932218" lon="14.2209892"><ele>554.0</ele><time>2026-05-01T11:37:15.055Z</time></trkpt><trkpt lat="42.1930952" lon="14.2210038"><ele>555.0</ele><time>2026-05-01T11:37:17.062Z</time></trkpt><trkpt lat="42.1930185" lon="14.2209657"><ele>556.0</ele><time>2026-05-01T11:37:18.047Z</time></trkpt><trkpt lat="42.1929119" lon="14.2209446"><ele>558.3333333333334</ele><time>2026-05-01T11:37:19.055Z</time></trkpt><trkpt lat="42.1928192" lon="14.2209383"><ele>560.6666666666667</ele><time>2026-05-01T11:37:20.053Z</time></trkpt><trkpt lat="42.192735" lon="14.2209078"><ele>563.0</ele><time>2026-05-01T11:37:21.068Z</time></trkpt><trkpt lat="42.1926643" lon="14.2208919"><ele>565.3333333333334</ele><time>2026-05-01T11:37:22.063Z</time></trkpt><trkpt lat="42.1925611" lon="14.2209126"><ele>567.6666666666666</ele><time>2026-05-01T11:37:24.05Z</time></trkpt><trkpt lat="42.192491" lon="14.2209138"><ele>570.0</ele><time>2026-05-01T11:37:26.048Z</time></trkpt><trkpt lat="42.1924283" lon="14.2208828"><ele>570.0</ele><time>2026-05-01T11:37:37.056Z</time></trkpt><trkpt lat="42.1923531" lon="14.2208513"><ele>570.0</ele><time>2026-05-01T11:37:39.054Z</time></trkpt><trkpt lat="42.1922763" lon="14.220848"><ele>570.0</ele><time>2026-05-01T11:37:40.05Z</time></trkpt><trkpt lat="42.1922091" lon="14.2208195"><ele>570.0</ele><time>2026-05-01T11:37:41.058Z</time></trkpt><trkpt lat="42.1921364" lon="14.2207852"><ele>570.0</ele><time>2026-05-01T11:37:42.073Z</time></trkpt><trkpt lat="42.1920586" lon="14.220757"><ele>570.0</ele><time>2026-05-01T11:37:43.056Z</time></trkpt><trkpt lat="42.1919789" lon="14.2207215"><ele>570.6666666666666</ele><time>2026-05-01T11:37:44.057Z</time></trkpt><trkpt lat="42.1918882" lon="14.2206942"><ele>571.3333333333334</ele><time>2026-05-01T11:37:45.053Z</time></trkpt><trkpt lat="42.1917945" lon="14.2206738"><ele>572.0</ele><time>2026-05-01T11:37:46.054Z</time></trkpt><trkpt lat="42.1917084" lon="14.2206619"><ele>572.6666666666667</ele><time>2026-05-01T11:37:47.048Z</time></trkpt><trkpt lat="42.1916416" lon="14.2206774"><ele>573.3333333333334</ele><time>2026-05-01T11:37:48.064Z</time></trkpt><trkpt lat="42.1915793" lon="14.2207199"><ele>574.0</ele><time>2026-05-01T11:37:49.063Z</time></trkpt><trkpt lat="42.191447" lon="14.2206936"><ele>579.0</ele><time>2026-05-01T11:37:51.056Z</time></trkpt><trkpt lat="42.1913836" lon="14.2206674"><ele>579.0</ele><time>2026-05-01T11:37:52.058Z</time></trkpt><trkpt lat="42.1913016" lon="14.2206299"><ele>568.0</ele><time>2026-05-01T11:37:54.059Z</time></trkpt><trkpt lat="42.1912585" lon="14.2205359"><ele>568.0</ele><time>2026-05-01T11:37:57.053Z</time></trkpt><trkpt lat="42.1911778" lon="14.2205502"><ele>568.0</ele><time>2026-05-01T11:38:01.06Z</time></trkpt></trkseg></trk></gpx>